<?xml version="1.0" encoding="UTF-8"?>
<gpx version="1.1" creator="https://www.youtrack.es" xsi:schemaLocation="http://www.topografix.com/GPX/1/1 http://www.topografix.com/GPX/1/1/gpx.xsd http://www.garmin.com/xmlschemas/GpxExtensions/v3 http://www.garmin.com/xmlschemas/GpxExtensionsv3.xsd http://www.garmin.com/xmlschemas/TrackPointExtension/v1 http://www.garmin.com/xmlschemas/TrackPointExtensionv1.xsd" xmlns:gpxtpx="http://www.garmin.com/xmlschemas/TrackPointExtension/v1" xmlns:gpxx="http://www.garmin.com/xmlschemas/GpxExtensions/v3" xmlns:xsi="http://www.w3.org/2001/XMLSchema-instance">
  <metadata>
    <link href="https://www.youtrack.es">
      <text>YouTrack.es</text>
    </link>
    <time>2026-05-08T13:02:52Z</time>
  </metadata>
  <trk>
    <src>https://www.youtrack.es</src>
    <link href="https://www.youtrack.es/ruta/6789-payole-escot--elkartuta-">
      <text>YouTrack.es</text>
    </link>
    <trkseg>
      <trkpt lat="42.93609667" lon="0.28969">
        <ele>1126.0</ele>
        <time>2019-07-07T06:14:47.823Z</time>
      </trkpt>
      <trkpt lat="42.93609667" lon="0.28969">
        <ele>1126.0</ele>
        <time>2019-07-07T06:14:48.819Z</time>
      </trkpt>
      <trkpt lat="42.93616333" lon="0.28957667">
        <ele>1126.0</ele>
        <time>2019-07-07T06:14:49.802Z</time>
      </trkpt>
      <trkpt lat="42.93616333" lon="0.28957667">
        <ele>1126.0</ele>
        <time>2019-07-07T06:14:50.826Z</time>
      </trkpt>
      <trkpt lat="42.93623167" lon="0.28946167">
        <ele>1126.0</ele>
        <time>2019-07-07T06:14:51.816Z</time>
      </trkpt>
      <trkpt lat="42.93623167" lon="0.28946167">
        <ele>1126.0</ele>
        <time>2019-07-07T06:14:52.806Z</time>
      </trkpt>
      <trkpt lat="42.93630333" lon="0.28934167">
        <ele>1126.0</ele>
        <time>2019-07-07T06:14:53.817Z</time>
      </trkpt>
      <trkpt lat="42.93630333" lon="0.28934167">
        <ele>1126.0</ele>
        <time>2019-07-07T06:14:54.810Z</time>
      </trkpt>
      <trkpt lat="42.936375" lon="0.28921167">
        <ele>1125.0</ele>
        <time>2019-07-07T06:14:55.817Z</time>
      </trkpt>
      <trkpt lat="42.93641167" lon="0.289145">
        <ele>1125.0</ele>
        <time>2019-07-07T06:14:56.805Z</time>
      </trkpt>
      <trkpt lat="42.93641167" lon="0.289145">
        <ele>1125.0</ele>
        <time>2019-07-07T06:14:57.820Z</time>
      </trkpt>
      <trkpt lat="42.93649" lon="0.28901">
        <ele>1124.0</ele>
        <time>2019-07-07T06:14:58.831Z</time>
      </trkpt>
      <trkpt lat="42.93652333" lon="0.28893667">
        <ele>1124.0</ele>
        <time>2019-07-07T06:14:59.802Z</time>
      </trkpt>
      <trkpt lat="42.93652333" lon="0.28893667">
        <ele>1124.0</ele>
        <time>2019-07-07T06:15:00.827Z</time>
      </trkpt>
      <trkpt lat="42.93659333" lon="0.28878667">
        <ele>1124.0</ele>
        <time>2019-07-07T06:15:01.828Z</time>
      </trkpt>
      <trkpt lat="42.93659333" lon="0.28878667">
        <ele>1124.0</ele>
        <time>2019-07-07T06:15:02.809Z</time>
      </trkpt>
      <trkpt lat="42.93666333" lon="0.28863667">
        <ele>1123.0</ele>
        <time>2019-07-07T06:15:03.811Z</time>
      </trkpt>
      <trkpt lat="42.93666333" lon="0.28863667">
        <ele>1123.0</ele>
        <time>2019-07-07T06:15:04.818Z</time>
      </trkpt>
      <trkpt lat="42.93674" lon="0.28848667">
        <ele>1122.0</ele>
        <time>2019-07-07T06:15:05.834Z</time>
      </trkpt>
      <trkpt lat="42.93674" lon="0.28848667">
        <ele>1122.0</ele>
        <time>2019-07-07T06:15:06.801Z</time>
      </trkpt>
      <trkpt lat="42.93681833" lon="0.288335">
        <ele>1122.0</ele>
        <time>2019-07-07T06:15:07.811Z</time>
      </trkpt>
      <trkpt lat="42.93686" lon="0.28826">
        <ele>1121.0</ele>
        <time>2019-07-07T06:15:08.837Z</time>
      </trkpt>
      <trkpt lat="42.93686" lon="0.28826">
        <ele>1121.0</ele>
        <time>2019-07-07T06:15:09.811Z</time>
      </trkpt>
      <trkpt lat="42.93694833" lon="0.28811167">
        <ele>1121.0</ele>
        <time>2019-07-07T06:15:10.806Z</time>
      </trkpt>
      <trkpt lat="42.93694833" lon="0.28811167">
        <ele>1121.0</ele>
        <time>2019-07-07T06:15:11.811Z</time>
      </trkpt>
      <trkpt lat="42.93703667" lon="0.28796167">
        <ele>1120.0</ele>
        <time>2019-07-07T06:15:12.821Z</time>
      </trkpt>
      <trkpt lat="42.93703667" lon="0.28796167">
        <ele>1120.0</ele>
        <time>2019-07-07T06:15:13.830Z</time>
      </trkpt>
      <trkpt lat="42.93712833" lon="0.28781">
        <ele>1120.0</ele>
        <time>2019-07-07T06:15:14.823Z</time>
      </trkpt>
      <trkpt lat="42.93712833" lon="0.28781">
        <ele>1120.0</ele>
        <time>2019-07-07T06:15:15.811Z</time>
      </trkpt>
      <trkpt lat="42.93722" lon="0.28766">
        <ele>1119.0</ele>
        <time>2019-07-07T06:15:16.824Z</time>
      </trkpt>
      <trkpt lat="42.93722" lon="0.28766">
        <ele>1119.0</ele>
        <time>2019-07-07T06:15:17.813Z</time>
      </trkpt>
      <trkpt lat="42.93731167" lon="0.28751">
        <ele>1119.0</ele>
        <time>2019-07-07T06:15:18.817Z</time>
      </trkpt>
      <trkpt lat="42.93735667" lon="0.28743667">
        <ele>1118.0</ele>
        <time>2019-07-07T06:15:19.802Z</time>
      </trkpt>
      <trkpt lat="42.93735667" lon="0.28743667">
        <ele>1118.0</ele>
        <time>2019-07-07T06:15:20.803Z</time>
      </trkpt>
      <trkpt lat="42.93744667" lon="0.28728667">
        <ele>1118.0</ele>
        <time>2019-07-07T06:15:21.816Z</time>
      </trkpt>
      <trkpt lat="42.93744667" lon="0.28728667">
        <ele>1118.0</ele>
        <time>2019-07-07T06:15:22.809Z</time>
      </trkpt>
      <trkpt lat="42.93753667" lon="0.287135">
        <ele>1117.0</ele>
        <time>2019-07-07T06:15:23.813Z</time>
      </trkpt>
      <trkpt lat="42.93753667" lon="0.287135">
        <ele>1117.0</ele>
        <time>2019-07-07T06:15:24.803Z</time>
      </trkpt>
      <trkpt lat="42.93762833" lon="0.28698">
        <ele>1117.0</ele>
        <time>2019-07-07T06:15:25.806Z</time>
      </trkpt>
      <trkpt lat="42.937675" lon="0.28690167">
        <ele>1116.0</ele>
        <time>2019-07-07T06:15:26.826Z</time>
      </trkpt>
      <trkpt lat="42.937675" lon="0.28690167">
        <ele>1116.0</ele>
        <time>2019-07-07T06:15:27.828Z</time>
      </trkpt>
      <trkpt lat="42.93777" lon="0.28674167">
        <ele>1116.0</ele>
        <time>2019-07-07T06:15:28.834Z</time>
      </trkpt>
      <trkpt lat="42.93777" lon="0.28674167">
        <ele>1116.0</ele>
        <time>2019-07-07T06:15:29.822Z</time>
      </trkpt>
      <trkpt lat="42.937865" lon="0.28658333">
        <ele>1115.0</ele>
        <time>2019-07-07T06:15:30.826Z</time>
      </trkpt>
      <trkpt lat="42.937865" lon="0.28658333">
        <ele>1115.0</ele>
        <time>2019-07-07T06:15:31.813Z</time>
      </trkpt>
      <trkpt lat="42.93796333" lon="0.286425">
        <ele>1115.0</ele>
        <time>2019-07-07T06:15:32.820Z</time>
      </trkpt>
      <trkpt lat="42.93796333" lon="0.286425">
        <ele>1115.0</ele>
        <time>2019-07-07T06:15:33.817Z</time>
      </trkpt>
      <trkpt lat="42.93806" lon="0.28626833">
        <ele>1114.0</ele>
        <time>2019-07-07T06:15:34.826Z</time>
      </trkpt>
      <trkpt lat="42.93806" lon="0.28626833">
        <ele>1114.0</ele>
        <time>2019-07-07T06:15:35.812Z</time>
      </trkpt>
      <trkpt lat="42.93815333" lon="0.28610667">
        <ele>1114.0</ele>
        <time>2019-07-07T06:15:36.826Z</time>
      </trkpt>
      <trkpt lat="42.93815333" lon="0.28610667">
        <ele>1114.0</ele>
        <time>2019-07-07T06:15:37.818Z</time>
      </trkpt>
      <trkpt lat="42.93824667" lon="0.28594833">
        <ele>1113.0</ele>
        <time>2019-07-07T06:15:38.824Z</time>
      </trkpt>
      <trkpt lat="42.93829167" lon="0.28586833">
        <ele>1113.0</ele>
        <time>2019-07-07T06:15:39.824Z</time>
      </trkpt>
      <trkpt lat="42.93829167" lon="0.28586833">
        <ele>1113.0</ele>
        <time>2019-07-07T06:15:40.812Z</time>
      </trkpt>
      <trkpt lat="42.93838667" lon="0.28571">
        <ele>1112.0</ele>
        <time>2019-07-07T06:15:41.827Z</time>
      </trkpt>
      <trkpt lat="42.93838667" lon="0.28571">
        <ele>1112.0</ele>
        <time>2019-07-07T06:15:42.818Z</time>
      </trkpt>
      <trkpt lat="42.93848167" lon="0.28555667">
        <ele>1112.0</ele>
        <time>2019-07-07T06:15:43.817Z</time>
      </trkpt>
      <trkpt lat="42.93848167" lon="0.28555667">
        <ele>1112.0</ele>
        <time>2019-07-07T06:15:44.812Z</time>
      </trkpt>
      <trkpt lat="42.93857833" lon="0.28540667">
        <ele>1112.0</ele>
        <time>2019-07-07T06:15:45.827Z</time>
      </trkpt>
      <trkpt lat="42.93857833" lon="0.28540667">
        <ele>1112.0</ele>
        <time>2019-07-07T06:15:46.813Z</time>
      </trkpt>
      <trkpt lat="42.938675" lon="0.28526">
        <ele>1111.0</ele>
        <time>2019-07-07T06:15:47.818Z</time>
      </trkpt>
      <trkpt lat="42.93872167" lon="0.28518833">
        <ele>1111.0</ele>
        <time>2019-07-07T06:15:48.825Z</time>
      </trkpt>
      <trkpt lat="42.93872167" lon="0.28518833">
        <ele>1111.0</ele>
        <time>2019-07-07T06:15:49.836Z</time>
      </trkpt>
      <trkpt lat="42.938815" lon="0.28504">
        <ele>1111.0</ele>
        <time>2019-07-07T06:15:50.820Z</time>
      </trkpt>
      <trkpt lat="42.93885833" lon="0.28496333">
        <ele>1111.0</ele>
        <time>2019-07-07T06:15:51.826Z</time>
      </trkpt>
      <trkpt lat="42.93885833" lon="0.28496333">
        <ele>1111.0</ele>
        <time>2019-07-07T06:15:52.818Z</time>
      </trkpt>
      <trkpt lat="42.93894667" lon="0.28480833">
        <ele>1110.0</ele>
        <time>2019-07-07T06:15:53.830Z</time>
      </trkpt>
      <trkpt lat="42.93898833" lon="0.28473">
        <ele>1110.0</ele>
        <time>2019-07-07T06:15:54.833Z</time>
      </trkpt>
      <trkpt lat="42.93903" lon="0.28465">
        <ele>1110.0</ele>
        <time>2019-07-07T06:15:55.835Z</time>
      </trkpt>
      <trkpt lat="42.93903" lon="0.28465">
        <ele>1110.0</ele>
        <time>2019-07-07T06:15:56.821Z</time>
      </trkpt>
      <trkpt lat="42.93910833" lon="0.28448667">
        <ele>1109.0</ele>
        <time>2019-07-07T06:15:57.826Z</time>
      </trkpt>
      <trkpt lat="42.93910833" lon="0.28448667">
        <ele>1109.0</ele>
        <time>2019-07-07T06:15:58.812Z</time>
      </trkpt>
      <trkpt lat="42.93918833" lon="0.28432667">
        <ele>1109.0</ele>
        <time>2019-07-07T06:15:59.826Z</time>
      </trkpt>
      <trkpt lat="42.93923" lon="0.28425">
        <ele>1109.0</ele>
        <time>2019-07-07T06:16:00.834Z</time>
      </trkpt>
      <trkpt lat="42.93923" lon="0.28425">
        <ele>1109.0</ele>
        <time>2019-07-07T06:16:01.819Z</time>
      </trkpt>
      <trkpt lat="42.93932167" lon="0.2841">
        <ele>1108.0</ele>
        <time>2019-07-07T06:16:02.801Z</time>
      </trkpt>
      <trkpt lat="42.93936833" lon="0.284025">
        <ele>1108.0</ele>
        <time>2019-07-07T06:16:03.827Z</time>
      </trkpt>
      <trkpt lat="42.93936833" lon="0.284025">
        <ele>1108.0</ele>
        <time>2019-07-07T06:16:04.814Z</time>
      </trkpt>
      <trkpt lat="42.93946667" lon="0.28388">
        <ele>1107.0</ele>
        <time>2019-07-07T06:16:05.827Z</time>
      </trkpt>
      <trkpt lat="42.93946667" lon="0.28388">
        <ele>1107.0</ele>
        <time>2019-07-07T06:16:06.813Z</time>
      </trkpt>
      <trkpt lat="42.93956667" lon="0.28373667">
        <ele>1107.0</ele>
        <time>2019-07-07T06:16:07.818Z</time>
      </trkpt>
      <trkpt lat="42.939615" lon="0.28366167">
        <ele>1107.0</ele>
        <time>2019-07-07T06:16:08.835Z</time>
      </trkpt>
      <trkpt lat="42.93966333" lon="0.28358667">
        <ele>1107.0</ele>
        <time>2019-07-07T06:16:09.837Z</time>
      </trkpt>
      <trkpt lat="42.93966333" lon="0.28358667">
        <ele>1107.0</ele>
        <time>2019-07-07T06:16:10.801Z</time>
      </trkpt>
      <trkpt lat="42.939755" lon="0.283435">
        <ele>1106.0</ele>
        <time>2019-07-07T06:16:11.807Z</time>
      </trkpt>
      <trkpt lat="42.93980167" lon="0.28336">
        <ele>1106.0</ele>
        <time>2019-07-07T06:16:12.825Z</time>
      </trkpt>
      <trkpt lat="42.93985" lon="0.28328333">
        <ele>1106.0</ele>
        <time>2019-07-07T06:16:13.832Z</time>
      </trkpt>
      <trkpt lat="42.93989833" lon="0.28320833">
        <ele>1106.0</ele>
        <time>2019-07-07T06:16:14.834Z</time>
      </trkpt>
      <trkpt lat="42.93989833" lon="0.28320833">
        <ele>1106.0</ele>
        <time>2019-07-07T06:16:15.819Z</time>
      </trkpt>
      <trkpt lat="42.93999833" lon="0.28306333">
        <ele>1105.0</ele>
        <time>2019-07-07T06:16:16.825Z</time>
      </trkpt>
      <trkpt lat="42.93999833" lon="0.28306333">
        <ele>1105.0</ele>
        <time>2019-07-07T06:16:17.812Z</time>
      </trkpt>
      <trkpt lat="42.94010167" lon="0.28292167">
        <ele>1105.0</ele>
        <time>2019-07-07T06:16:18.821Z</time>
      </trkpt>
      <trkpt lat="42.940155" lon="0.28285167">
        <ele>1105.0</ele>
        <time>2019-07-07T06:16:19.840Z</time>
      </trkpt>
      <trkpt lat="42.940155" lon="0.28285167">
        <ele>1105.0</ele>
        <time>2019-07-07T06:16:20.836Z</time>
      </trkpt>
      <trkpt lat="42.94026" lon="0.282715">
        <ele>1104.0</ele>
        <time>2019-07-07T06:16:21.811Z</time>
      </trkpt>
      <trkpt lat="42.94026" lon="0.282715">
        <ele>1104.0</ele>
        <time>2019-07-07T06:16:22.828Z</time>
      </trkpt>
      <trkpt lat="42.94037333" lon="0.28258333">
        <ele>1104.0</ele>
        <time>2019-07-07T06:16:23.839Z</time>
      </trkpt>
      <trkpt lat="42.94043333" lon="0.28252167">
        <ele>1104.0</ele>
        <time>2019-07-07T06:16:24.831Z</time>
      </trkpt>
      <trkpt lat="42.94043333" lon="0.28252167">
        <ele>1104.0</ele>
        <time>2019-07-07T06:16:25.819Z</time>
      </trkpt>
      <trkpt lat="42.94055" lon="0.28239667">
        <ele>1103.0</ele>
        <time>2019-07-07T06:16:26.827Z</time>
      </trkpt>
      <trkpt lat="42.94060667" lon="0.28232833">
        <ele>1103.0</ele>
        <time>2019-07-07T06:16:27.827Z</time>
      </trkpt>
      <trkpt lat="42.94060667" lon="0.28232833">
        <ele>1103.0</ele>
        <time>2019-07-07T06:16:28.812Z</time>
      </trkpt>
      <trkpt lat="42.94070833" lon="0.28217333">
        <ele>1102.0</ele>
        <time>2019-07-07T06:16:29.826Z</time>
      </trkpt>
      <trkpt lat="42.94070833" lon="0.28217333">
        <ele>1102.0</ele>
        <time>2019-07-07T06:16:30.816Z</time>
      </trkpt>
      <trkpt lat="42.940795" lon="0.28199833">
        <ele>1101.0</ele>
        <time>2019-07-07T06:16:31.826Z</time>
      </trkpt>
      <trkpt lat="42.940795" lon="0.28199833">
        <ele>1101.0</ele>
        <time>2019-07-07T06:16:32.818Z</time>
      </trkpt>
      <trkpt lat="42.94087333" lon="0.28182">
        <ele>1101.0</ele>
        <time>2019-07-07T06:16:33.827Z</time>
      </trkpt>
      <trkpt lat="42.94087333" lon="0.28182">
        <ele>1101.0</ele>
        <time>2019-07-07T06:16:34.827Z</time>
      </trkpt>
      <trkpt lat="42.94095167" lon="0.28162667">
        <ele>1099.0</ele>
        <time>2019-07-07T06:16:35.827Z</time>
      </trkpt>
      <trkpt lat="42.94099833" lon="0.28152833">
        <ele>1098.0</ele>
        <time>2019-07-07T06:16:36.817Z</time>
      </trkpt>
      <trkpt lat="42.94099833" lon="0.28152833">
        <ele>1098.0</ele>
        <time>2019-07-07T06:16:37.805Z</time>
      </trkpt>
      <trkpt lat="42.94111167" lon="0.281345">
        <ele>1096.0</ele>
        <time>2019-07-07T06:16:38.827Z</time>
      </trkpt>
      <trkpt lat="42.94118167" lon="0.28126167">
        <ele>1095.0</ele>
        <time>2019-07-07T06:16:39.837Z</time>
      </trkpt>
      <trkpt lat="42.94118167" lon="0.28126167">
        <ele>1095.0</ele>
        <time>2019-07-07T06:16:40.805Z</time>
      </trkpt>
      <trkpt lat="42.94134167" lon="0.28110833">
        <ele>1094.0</ele>
        <time>2019-07-07T06:16:41.827Z</time>
      </trkpt>
      <trkpt lat="42.94142667" lon="0.281035">
        <ele>1093.0</ele>
        <time>2019-07-07T06:16:42.833Z</time>
      </trkpt>
      <trkpt lat="42.94142667" lon="0.281035">
        <ele>1093.0</ele>
        <time>2019-07-07T06:16:43.820Z</time>
      </trkpt>
      <trkpt lat="42.94159833" lon="0.28089833">
        <ele>1092.0</ele>
        <time>2019-07-07T06:16:44.834Z</time>
      </trkpt>
      <trkpt lat="42.94168167" lon="0.28083333">
        <ele>1092.0</ele>
        <time>2019-07-07T06:16:45.836Z</time>
      </trkpt>
      <trkpt lat="42.94168167" lon="0.28083333">
        <ele>1092.0</ele>
        <time>2019-07-07T06:16:46.804Z</time>
      </trkpt>
      <trkpt lat="42.94184" lon="0.28070167">
        <ele>1091.0</ele>
        <time>2019-07-07T06:16:47.829Z</time>
      </trkpt>
      <trkpt lat="42.94184" lon="0.28070167">
        <ele>1091.0</ele>
        <time>2019-07-07T06:16:48.815Z</time>
      </trkpt>
      <trkpt lat="42.94198667" lon="0.280575">
        <ele>1090.0</ele>
        <time>2019-07-07T06:16:49.832Z</time>
      </trkpt>
      <trkpt lat="42.94198667" lon="0.280575">
        <ele>1090.0</ele>
        <time>2019-07-07T06:16:50.813Z</time>
      </trkpt>
      <trkpt lat="42.942125" lon="0.28044833">
        <ele>1088.0</ele>
        <time>2019-07-07T06:16:51.827Z</time>
      </trkpt>
      <trkpt lat="42.942125" lon="0.28044833">
        <ele>1088.0</ele>
        <time>2019-07-07T06:16:52.838Z</time>
      </trkpt>
      <trkpt lat="42.94224833" lon="0.28030667">
        <ele>1087.0</ele>
        <time>2019-07-07T06:16:53.826Z</time>
      </trkpt>
      <trkpt lat="42.94224833" lon="0.28030667">
        <ele>1087.0</ele>
        <time>2019-07-07T06:16:54.813Z</time>
      </trkpt>
      <trkpt lat="42.94233833" lon="0.280155">
        <ele>1087.0</ele>
        <time>2019-07-07T06:16:55.827Z</time>
      </trkpt>
      <trkpt lat="42.94233833" lon="0.280155">
        <ele>1087.0</ele>
        <time>2019-07-07T06:16:56.813Z</time>
      </trkpt>
      <trkpt lat="42.942415" lon="0.27999833">
        <ele>1086.0</ele>
        <time>2019-07-07T06:16:57.826Z</time>
      </trkpt>
      <trkpt lat="42.942415" lon="0.27999833">
        <ele>1086.0</ele>
        <time>2019-07-07T06:16:58.815Z</time>
      </trkpt>
      <trkpt lat="42.94248" lon="0.27985">
        <ele>1085.0</ele>
        <time>2019-07-07T06:16:59.817Z</time>
      </trkpt>
      <trkpt lat="42.94250833" lon="0.27978667">
        <ele>1085.0</ele>
        <time>2019-07-07T06:17:00.834Z</time>
      </trkpt>
      <trkpt lat="42.942535" lon="0.27972333">
        <ele>1085.0</ele>
        <time>2019-07-07T06:17:01.837Z</time>
      </trkpt>
      <trkpt lat="42.942535" lon="0.27972333">
        <ele>1085.0</ele>
        <time>2019-07-07T06:17:02.824Z</time>
      </trkpt>
      <trkpt lat="42.94259" lon="0.279595">
        <ele>1084.0</ele>
        <time>2019-07-07T06:17:03.827Z</time>
      </trkpt>
      <trkpt lat="42.94259" lon="0.279595">
        <ele>1084.0</ele>
        <time>2019-07-07T06:17:04.823Z</time>
      </trkpt>
      <trkpt lat="42.94264667" lon="0.27946167">
        <ele>1083.0</ele>
        <time>2019-07-07T06:17:05.827Z</time>
      </trkpt>
      <trkpt lat="42.94264667" lon="0.27946167">
        <ele>1083.0</ele>
        <time>2019-07-07T06:17:06.814Z</time>
      </trkpt>
      <trkpt lat="42.94270167" lon="0.279335">
        <ele>1083.0</ele>
        <time>2019-07-07T06:17:07.815Z</time>
      </trkpt>
      <trkpt lat="42.94270167" lon="0.279335">
        <ele>1083.0</ele>
        <time>2019-07-07T06:17:08.803Z</time>
      </trkpt>
      <trkpt lat="42.94276333" lon="0.27921">
        <ele>1083.0</ele>
        <time>2019-07-07T06:17:09.828Z</time>
      </trkpt>
      <trkpt lat="42.94276333" lon="0.27921">
        <ele>1083.0</ele>
        <time>2019-07-07T06:17:10.814Z</time>
      </trkpt>
      <trkpt lat="42.942825" lon="0.27908">
        <ele>1083.0</ele>
        <time>2019-07-07T06:17:11.817Z</time>
      </trkpt>
      <trkpt lat="42.942825" lon="0.27908">
        <ele>1083.0</ele>
        <time>2019-07-07T06:17:12.812Z</time>
      </trkpt>
      <trkpt lat="42.94288833" lon="0.27894333">
        <ele>1082.0</ele>
        <time>2019-07-07T06:17:13.827Z</time>
      </trkpt>
      <trkpt lat="42.94288833" lon="0.27894333">
        <ele>1082.0</ele>
        <time>2019-07-07T06:17:14.815Z</time>
      </trkpt>
      <trkpt lat="42.94295167" lon="0.27879667">
        <ele>1082.0</ele>
        <time>2019-07-07T06:17:15.827Z</time>
      </trkpt>
      <trkpt lat="42.94295167" lon="0.27879667">
        <ele>1082.0</ele>
        <time>2019-07-07T06:17:16.819Z</time>
      </trkpt>
      <trkpt lat="42.943015" lon="0.27865333">
        <ele>1082.0</ele>
        <time>2019-07-07T06:17:17.827Z</time>
      </trkpt>
      <trkpt lat="42.943015" lon="0.27865333">
        <ele>1082.0</ele>
        <time>2019-07-07T06:17:18.816Z</time>
      </trkpt>
      <trkpt lat="42.94308833" lon="0.27851833">
        <ele>1081.0</ele>
        <time>2019-07-07T06:17:19.831Z</time>
      </trkpt>
      <trkpt lat="42.94308833" lon="0.27851833">
        <ele>1081.0</ele>
        <time>2019-07-07T06:17:20.818Z</time>
      </trkpt>
      <trkpt lat="42.943165" lon="0.27838833">
        <ele>1081.0</ele>
        <time>2019-07-07T06:17:21.817Z</time>
      </trkpt>
      <trkpt lat="42.943165" lon="0.27838833">
        <ele>1081.0</ele>
        <time>2019-07-07T06:17:22.812Z</time>
      </trkpt>
      <trkpt lat="42.94323667" lon="0.27826667">
        <ele>1080.0</ele>
        <time>2019-07-07T06:17:23.816Z</time>
      </trkpt>
      <trkpt lat="42.943275" lon="0.278215">
        <ele>1080.0</ele>
        <time>2019-07-07T06:17:24.822Z</time>
      </trkpt>
      <trkpt lat="42.94331" lon="0.27816833">
        <ele>1079.0</ele>
        <time>2019-07-07T06:17:25.827Z</time>
      </trkpt>
      <trkpt lat="42.943345" lon="0.27813">
        <ele>1079.0</ele>
        <time>2019-07-07T06:17:26.803Z</time>
      </trkpt>
      <trkpt lat="42.943345" lon="0.27813">
        <ele>1079.0</ele>
        <time>2019-07-07T06:17:27.840Z</time>
      </trkpt>
      <trkpt lat="42.94341167" lon="0.27807833">
        <ele>1079.0</ele>
        <time>2019-07-07T06:17:28.823Z</time>
      </trkpt>
      <trkpt lat="42.94344167" lon="0.27806667">
        <ele>1079.0</ele>
        <time>2019-07-07T06:17:29.828Z</time>
      </trkpt>
      <trkpt lat="42.94344167" lon="0.27806667">
        <ele>1079.0</ele>
        <time>2019-07-07T06:17:30.814Z</time>
      </trkpt>
      <trkpt lat="42.94349167" lon="0.278055">
        <ele>1079.0</ele>
        <time>2019-07-07T06:17:31.825Z</time>
      </trkpt>
      <trkpt lat="42.94349167" lon="0.278055">
        <ele>1079.0</ele>
        <time>2019-07-07T06:17:32.818Z</time>
      </trkpt>
      <trkpt lat="42.94352" lon="0.27805667">
        <ele>1079.0</ele>
        <time>2019-07-07T06:17:33.827Z</time>
      </trkpt>
      <trkpt lat="42.94352" lon="0.27805667">
        <ele>1079.0</ele>
        <time>2019-07-07T06:17:34.814Z</time>
      </trkpt>
      <trkpt lat="42.943525" lon="0.27806">
        <ele>1079.0</ele>
        <time>2019-07-07T06:17:35.827Z</time>
      </trkpt>
      <trkpt lat="42.94361" lon="0.27799833">
        <ele>1079.0</ele>
        <time>2019-07-07T06:17:36.824Z</time>
      </trkpt>
      <trkpt lat="42.94361" lon="0.27799833">
        <ele>1079.0</ele>
        <time>2019-07-07T06:17:37.817Z</time>
      </trkpt>
      <trkpt lat="42.943645" lon="0.27791167">
        <ele>1079.0</ele>
        <time>2019-07-07T06:17:38.815Z</time>
      </trkpt>
      <trkpt lat="42.943645" lon="0.27791167">
        <ele>1079.0</ele>
        <time>2019-07-07T06:17:39.813Z</time>
      </trkpt>
      <trkpt lat="42.94368167" lon="0.27780333">
        <ele>1079.0</ele>
        <time>2019-07-07T06:17:40.827Z</time>
      </trkpt>
      <trkpt lat="42.94368167" lon="0.27780333">
        <ele>1079.0</ele>
        <time>2019-07-07T06:17:41.806Z</time>
      </trkpt>
      <trkpt lat="42.94371833" lon="0.27768333">
        <ele>1078.0</ele>
        <time>2019-07-07T06:17:42.822Z</time>
      </trkpt>
      <trkpt lat="42.94371833" lon="0.27768333">
        <ele>1078.0</ele>
        <time>2019-07-07T06:17:43.803Z</time>
      </trkpt>
      <trkpt lat="42.94376333" lon="0.27755333">
        <ele>1078.0</ele>
        <time>2019-07-07T06:17:44.822Z</time>
      </trkpt>
      <trkpt lat="42.94376333" lon="0.27755333">
        <ele>1078.0</ele>
        <time>2019-07-07T06:17:45.806Z</time>
      </trkpt>
      <trkpt lat="42.94381167" lon="0.27741167">
        <ele>1077.0</ele>
        <time>2019-07-07T06:17:46.810Z</time>
      </trkpt>
      <trkpt lat="42.94381167" lon="0.27741167">
        <ele>1077.0</ele>
        <time>2019-07-07T06:17:47.805Z</time>
      </trkpt>
      <trkpt lat="42.943865" lon="0.27726167">
        <ele>1077.0</ele>
        <time>2019-07-07T06:17:48.820Z</time>
      </trkpt>
      <trkpt lat="42.94389167" lon="0.27718333">
        <ele>1076.0</ele>
        <time>2019-07-07T06:17:49.820Z</time>
      </trkpt>
      <trkpt lat="42.94389167" lon="0.27718333">
        <ele>1076.0</ele>
        <time>2019-07-07T06:17:50.819Z</time>
      </trkpt>
      <trkpt lat="42.94395167" lon="0.27702333">
        <ele>1076.0</ele>
        <time>2019-07-07T06:17:51.809Z</time>
      </trkpt>
      <trkpt lat="42.943985" lon="0.276945">
        <ele>1076.0</ele>
        <time>2019-07-07T06:17:52.831Z</time>
      </trkpt>
      <trkpt lat="42.943985" lon="0.276945">
        <ele>1076.0</ele>
        <time>2019-07-07T06:17:53.828Z</time>
      </trkpt>
      <trkpt lat="42.94406333" lon="0.27679667">
        <ele>1076.0</ele>
        <time>2019-07-07T06:17:54.816Z</time>
      </trkpt>
      <trkpt lat="42.94406333" lon="0.27679667">
        <ele>1076.0</ele>
        <time>2019-07-07T06:17:55.819Z</time>
      </trkpt>
      <trkpt lat="42.94415833" lon="0.27666833">
        <ele>1076.0</ele>
        <time>2019-07-07T06:17:56.824Z</time>
      </trkpt>
      <trkpt lat="42.94415833" lon="0.27666833">
        <ele>1076.0</ele>
        <time>2019-07-07T06:17:57.819Z</time>
      </trkpt>
      <trkpt lat="42.94425833" lon="0.276555">
        <ele>1075.0</ele>
        <time>2019-07-07T06:17:58.824Z</time>
      </trkpt>
      <trkpt lat="42.94430667" lon="0.2765">
        <ele>1075.0</ele>
        <time>2019-07-07T06:17:59.818Z</time>
      </trkpt>
      <trkpt lat="42.944355" lon="0.27644667">
        <ele>1075.0</ele>
        <time>2019-07-07T06:18:00.811Z</time>
      </trkpt>
      <trkpt lat="42.944355" lon="0.27644667">
        <ele>1075.0</ele>
        <time>2019-07-07T06:18:01.820Z</time>
      </trkpt>
      <trkpt lat="42.94444667" lon="0.27632667">
        <ele>1075.0</ele>
        <time>2019-07-07T06:18:02.822Z</time>
      </trkpt>
      <trkpt lat="42.94444667" lon="0.27632667">
        <ele>1075.0</ele>
        <time>2019-07-07T06:18:03.807Z</time>
      </trkpt>
      <trkpt lat="42.94452833" lon="0.27619333">
        <ele>1075.0</ele>
        <time>2019-07-07T06:18:04.819Z</time>
      </trkpt>
      <trkpt lat="42.94452833" lon="0.27619333">
        <ele>1075.0</ele>
        <time>2019-07-07T06:18:05.803Z</time>
      </trkpt>
      <trkpt lat="42.94459" lon="0.276035">
        <ele>1076.0</ele>
        <time>2019-07-07T06:18:06.823Z</time>
      </trkpt>
      <trkpt lat="42.94459" lon="0.276035">
        <ele>1076.0</ele>
        <time>2019-07-07T06:18:07.806Z</time>
      </trkpt>
      <trkpt lat="42.94463833" lon="0.27586833">
        <ele>1076.0</ele>
        <time>2019-07-07T06:18:08.814Z</time>
      </trkpt>
      <trkpt lat="42.94465833" lon="0.27578167">
        <ele>1076.0</ele>
        <time>2019-07-07T06:18:09.829Z</time>
      </trkpt>
      <trkpt lat="42.944675" lon="0.27569167">
        <ele>1076.0</ele>
        <time>2019-07-07T06:18:10.823Z</time>
      </trkpt>
      <trkpt lat="42.944675" lon="0.27569167">
        <ele>1076.0</ele>
        <time>2019-07-07T06:18:11.814Z</time>
      </trkpt>
      <trkpt lat="42.94470167" lon="0.275515">
        <ele>1076.0</ele>
        <time>2019-07-07T06:18:12.823Z</time>
      </trkpt>
      <trkpt lat="42.94470167" lon="0.275515">
        <ele>1076.0</ele>
        <time>2019-07-07T06:18:13.804Z</time>
      </trkpt>
      <trkpt lat="42.94472833" lon="0.275335">
        <ele>1076.0</ele>
        <time>2019-07-07T06:18:14.822Z</time>
      </trkpt>
      <trkpt lat="42.94472833" lon="0.275335">
        <ele>1076.0</ele>
        <time>2019-07-07T06:18:15.806Z</time>
      </trkpt>
      <trkpt lat="42.94476333" lon="0.27515667">
        <ele>1076.0</ele>
        <time>2019-07-07T06:18:16.810Z</time>
      </trkpt>
      <trkpt lat="42.94476333" lon="0.27515667">
        <ele>1076.0</ele>
        <time>2019-07-07T06:18:17.821Z</time>
      </trkpt>
      <trkpt lat="42.94481833" lon="0.27496667">
        <ele>1076.0</ele>
        <time>2019-07-07T06:18:18.807Z</time>
      </trkpt>
      <trkpt lat="42.94485" lon="0.27486833">
        <ele>1076.0</ele>
        <time>2019-07-07T06:18:19.831Z</time>
      </trkpt>
      <trkpt lat="42.944885" lon="0.274775">
        <ele>1075.0</ele>
        <time>2019-07-07T06:18:20.821Z</time>
      </trkpt>
      <trkpt lat="42.944885" lon="0.274775">
        <ele>1075.0</ele>
        <time>2019-07-07T06:18:21.806Z</time>
      </trkpt>
      <trkpt lat="42.94495667" lon="0.27459">
        <ele>1075.0</ele>
        <time>2019-07-07T06:18:22.819Z</time>
      </trkpt>
      <trkpt lat="42.94495667" lon="0.27459">
        <ele>1075.0</ele>
        <time>2019-07-07T06:18:23.801Z</time>
      </trkpt>
      <trkpt lat="42.94503333" lon="0.27440667">
        <ele>1075.0</ele>
        <time>2019-07-07T06:18:24.821Z</time>
      </trkpt>
      <trkpt lat="42.94503333" lon="0.27440667">
        <ele>1075.0</ele>
        <time>2019-07-07T06:18:25.807Z</time>
      </trkpt>
      <trkpt lat="42.94510833" lon="0.27421667">
        <ele>1075.0</ele>
        <time>2019-07-07T06:18:26.822Z</time>
      </trkpt>
      <trkpt lat="42.94510833" lon="0.27421667">
        <ele>1075.0</ele>
        <time>2019-07-07T06:18:27.804Z</time>
      </trkpt>
      <trkpt lat="42.94517333" lon="0.27402167">
        <ele>1075.0</ele>
        <time>2019-07-07T06:18:28.816Z</time>
      </trkpt>
      <trkpt lat="42.94520167" lon="0.27392333">
        <ele>1075.0</ele>
        <time>2019-07-07T06:18:29.832Z</time>
      </trkpt>
      <trkpt lat="42.94523" lon="0.27382667">
        <ele>1075.0</ele>
        <time>2019-07-07T06:18:30.821Z</time>
      </trkpt>
      <trkpt lat="42.94523" lon="0.27382667">
        <ele>1075.0</ele>
        <time>2019-07-07T06:18:31.813Z</time>
      </trkpt>
      <trkpt lat="42.94528667" lon="0.27363167">
        <ele>1075.0</ele>
        <time>2019-07-07T06:18:32.812Z</time>
      </trkpt>
      <trkpt lat="42.94528667" lon="0.27363167">
        <ele>1075.0</ele>
        <time>2019-07-07T06:18:33.815Z</time>
      </trkpt>
      <trkpt lat="42.94534333" lon="0.27344">
        <ele>1075.0</ele>
        <time>2019-07-07T06:18:34.819Z</time>
      </trkpt>
      <trkpt lat="42.94537" lon="0.27334333">
        <ele>1074.0</ele>
        <time>2019-07-07T06:18:35.823Z</time>
      </trkpt>
      <trkpt lat="42.94537" lon="0.27334333">
        <ele>1074.0</ele>
        <time>2019-07-07T06:18:36.804Z</time>
      </trkpt>
      <trkpt lat="42.94542667" lon="0.27315">
        <ele>1074.0</ele>
        <time>2019-07-07T06:18:37.819Z</time>
      </trkpt>
      <trkpt lat="42.94542667" lon="0.27315">
        <ele>1074.0</ele>
        <time>2019-07-07T06:18:38.829Z</time>
      </trkpt>
      <trkpt lat="42.945485" lon="0.27295667">
        <ele>1074.0</ele>
        <time>2019-07-07T06:18:39.802Z</time>
      </trkpt>
      <trkpt lat="42.945515" lon="0.27286167">
        <ele>1074.0</ele>
        <time>2019-07-07T06:18:40.834Z</time>
      </trkpt>
      <trkpt lat="42.945515" lon="0.27286167">
        <ele>1074.0</ele>
        <time>2019-07-07T06:18:41.807Z</time>
      </trkpt>
      <trkpt lat="42.94558167" lon="0.272675">
        <ele>1074.0</ele>
        <time>2019-07-07T06:18:42.824Z</time>
      </trkpt>
      <trkpt lat="42.94558167" lon="0.272675">
        <ele>1074.0</ele>
        <time>2019-07-07T06:18:43.806Z</time>
      </trkpt>
      <trkpt lat="42.94565667" lon="0.27249667">
        <ele>1073.0</ele>
        <time>2019-07-07T06:18:44.818Z</time>
      </trkpt>
      <trkpt lat="42.9457" lon="0.27241167">
        <ele>1073.0</ele>
        <time>2019-07-07T06:18:45.814Z</time>
      </trkpt>
      <trkpt lat="42.94574667" lon="0.27233">
        <ele>1073.0</ele>
        <time>2019-07-07T06:18:46.824Z</time>
      </trkpt>
      <trkpt lat="42.94574667" lon="0.27233">
        <ele>1073.0</ele>
        <time>2019-07-07T06:18:47.807Z</time>
      </trkpt>
      <trkpt lat="42.94585167" lon="0.27218667">
        <ele>1073.0</ele>
        <time>2019-07-07T06:18:48.813Z</time>
      </trkpt>
      <trkpt lat="42.94591167" lon="0.272125">
        <ele>1073.0</ele>
        <time>2019-07-07T06:18:49.808Z</time>
      </trkpt>
      <trkpt lat="42.94591167" lon="0.272125">
        <ele>1073.0</ele>
        <time>2019-07-07T06:18:50.824Z</time>
      </trkpt>
      <trkpt lat="42.94603833" lon="0.27203">
        <ele>1073.0</ele>
        <time>2019-07-07T06:18:51.809Z</time>
      </trkpt>
      <trkpt lat="42.946105" lon="0.27199333">
        <ele>1073.0</ele>
        <time>2019-07-07T06:18:52.832Z</time>
      </trkpt>
      <trkpt lat="42.946105" lon="0.27199333">
        <ele>1073.0</ele>
        <time>2019-07-07T06:18:53.829Z</time>
      </trkpt>
      <trkpt lat="42.946235" lon="0.271905">
        <ele>1073.0</ele>
        <time>2019-07-07T06:18:54.831Z</time>
      </trkpt>
      <trkpt lat="42.946235" lon="0.271905">
        <ele>1073.0</ele>
        <time>2019-07-07T06:18:55.807Z</time>
      </trkpt>
      <trkpt lat="42.946355" lon="0.2718">
        <ele>1073.0</ele>
        <time>2019-07-07T06:18:56.827Z</time>
      </trkpt>
      <trkpt lat="42.946355" lon="0.2718">
        <ele>1073.0</ele>
        <time>2019-07-07T06:18:57.806Z</time>
      </trkpt>
      <trkpt lat="42.94647167" lon="0.27168833">
        <ele>1073.0</ele>
        <time>2019-07-07T06:18:58.819Z</time>
      </trkpt>
      <trkpt lat="42.94647167" lon="0.27168833">
        <ele>1073.0</ele>
        <time>2019-07-07T06:18:59.814Z</time>
      </trkpt>
      <trkpt lat="42.94658167" lon="0.27158167">
        <ele>1073.0</ele>
        <time>2019-07-07T06:19:00.822Z</time>
      </trkpt>
      <trkpt lat="42.94664333" lon="0.27153333">
        <ele>1073.0</ele>
        <time>2019-07-07T06:19:01.807Z</time>
      </trkpt>
      <trkpt lat="42.94670333" lon="0.27148">
        <ele>1073.0</ele>
        <time>2019-07-07T06:19:02.825Z</time>
      </trkpt>
      <trkpt lat="42.94670333" lon="0.27148">
        <ele>1073.0</ele>
        <time>2019-07-07T06:19:03.807Z</time>
      </trkpt>
      <trkpt lat="42.94682" lon="0.27137833">
        <ele>1073.0</ele>
        <time>2019-07-07T06:19:04.811Z</time>
      </trkpt>
      <trkpt lat="42.94682" lon="0.27137833">
        <ele>1073.0</ele>
        <time>2019-07-07T06:19:05.822Z</time>
      </trkpt>
      <trkpt lat="42.946935" lon="0.27128">
        <ele>1072.0</ele>
        <time>2019-07-07T06:19:06.820Z</time>
      </trkpt>
      <trkpt lat="42.946935" lon="0.27128">
        <ele>1072.0</ele>
        <time>2019-07-07T06:19:07.807Z</time>
      </trkpt>
      <trkpt lat="42.947055" lon="0.27118333">
        <ele>1072.0</ele>
        <time>2019-07-07T06:19:08.821Z</time>
      </trkpt>
      <trkpt lat="42.947055" lon="0.27118333">
        <ele>1072.0</ele>
        <time>2019-07-07T06:19:09.808Z</time>
      </trkpt>
      <trkpt lat="42.94718" lon="0.27110167">
        <ele>1072.0</ele>
        <time>2019-07-07T06:19:10.822Z</time>
      </trkpt>
      <trkpt lat="42.94718" lon="0.27110167">
        <ele>1072.0</ele>
        <time>2019-07-07T06:19:11.805Z</time>
      </trkpt>
      <trkpt lat="42.947305" lon="0.27102167">
        <ele>1072.0</ele>
        <time>2019-07-07T06:19:12.823Z</time>
      </trkpt>
      <trkpt lat="42.947305" lon="0.27102167">
        <ele>1072.0</ele>
        <time>2019-07-07T06:19:13.832Z</time>
      </trkpt>
      <trkpt lat="42.94743" lon="0.27094833">
        <ele>1072.0</ele>
        <time>2019-07-07T06:19:14.833Z</time>
      </trkpt>
      <trkpt lat="42.94743" lon="0.27094833">
        <ele>1072.0</ele>
        <time>2019-07-07T06:19:15.805Z</time>
      </trkpt>
      <trkpt lat="42.94755" lon="0.27088">
        <ele>1072.0</ele>
        <time>2019-07-07T06:19:16.812Z</time>
      </trkpt>
      <trkpt lat="42.94755" lon="0.27088">
        <ele>1072.0</ele>
        <time>2019-07-07T06:19:17.820Z</time>
      </trkpt>
      <trkpt lat="42.947685" lon="0.27082167">
        <ele>1072.0</ele>
        <time>2019-07-07T06:19:18.821Z</time>
      </trkpt>
      <trkpt lat="42.947685" lon="0.27082167">
        <ele>1072.0</ele>
        <time>2019-07-07T06:19:19.806Z</time>
      </trkpt>
      <trkpt lat="42.94781" lon="0.27077333">
        <ele>1072.0</ele>
        <time>2019-07-07T06:19:20.819Z</time>
      </trkpt>
      <trkpt lat="42.94781" lon="0.27077333">
        <ele>1072.0</ele>
        <time>2019-07-07T06:19:21.814Z</time>
      </trkpt>
      <trkpt lat="42.94794167" lon="0.27072833">
        <ele>1072.0</ele>
        <time>2019-07-07T06:19:22.825Z</time>
      </trkpt>
      <trkpt lat="42.94794167" lon="0.27072833">
        <ele>1072.0</ele>
        <time>2019-07-07T06:19:23.805Z</time>
      </trkpt>
      <trkpt lat="42.94808" lon="0.27068833">
        <ele>1073.0</ele>
        <time>2019-07-07T06:19:24.803Z</time>
      </trkpt>
      <trkpt lat="42.94808" lon="0.27068833">
        <ele>1073.0</ele>
        <time>2019-07-07T06:19:25.807Z</time>
      </trkpt>
      <trkpt lat="42.94822667" lon="0.27065833">
        <ele>1073.0</ele>
        <time>2019-07-07T06:19:26.820Z</time>
      </trkpt>
      <trkpt lat="42.94822667" lon="0.27065833">
        <ele>1073.0</ele>
        <time>2019-07-07T06:19:27.807Z</time>
      </trkpt>
      <trkpt lat="42.948375" lon="0.27063833">
        <ele>1073.0</ele>
        <time>2019-07-07T06:19:28.823Z</time>
      </trkpt>
      <trkpt lat="42.948375" lon="0.27063833">
        <ele>1073.0</ele>
        <time>2019-07-07T06:19:29.815Z</time>
      </trkpt>
      <trkpt lat="42.94853" lon="0.27063333">
        <ele>1073.0</ele>
        <time>2019-07-07T06:19:30.820Z</time>
      </trkpt>
      <trkpt lat="42.94853" lon="0.27063333">
        <ele>1073.0</ele>
        <time>2019-07-07T06:19:31.808Z</time>
      </trkpt>
      <trkpt lat="42.94869167" lon="0.270635">
        <ele>1072.0</ele>
        <time>2019-07-07T06:19:32.819Z</time>
      </trkpt>
      <trkpt lat="42.94869167" lon="0.270635">
        <ele>1072.0</ele>
        <time>2019-07-07T06:19:33.806Z</time>
      </trkpt>
      <trkpt lat="42.94885" lon="0.27061333">
        <ele>1071.0</ele>
        <time>2019-07-07T06:19:34.822Z</time>
      </trkpt>
      <trkpt lat="42.94885" lon="0.27061333">
        <ele>1071.0</ele>
        <time>2019-07-07T06:19:35.808Z</time>
      </trkpt>
      <trkpt lat="42.94899167" lon="0.27054333">
        <ele>1071.0</ele>
        <time>2019-07-07T06:19:36.824Z</time>
      </trkpt>
      <trkpt lat="42.94899167" lon="0.27054333">
        <ele>1071.0</ele>
        <time>2019-07-07T06:19:37.805Z</time>
      </trkpt>
      <trkpt lat="42.94912667" lon="0.27042167">
        <ele>1071.0</ele>
        <time>2019-07-07T06:19:38.824Z</time>
      </trkpt>
      <trkpt lat="42.94912667" lon="0.27042167">
        <ele>1071.0</ele>
        <time>2019-07-07T06:19:39.828Z</time>
      </trkpt>
      <trkpt lat="42.94925167" lon="0.270245">
        <ele>1070.0</ele>
        <time>2019-07-07T06:19:40.823Z</time>
      </trkpt>
      <trkpt lat="42.94925167" lon="0.270245">
        <ele>1070.0</ele>
        <time>2019-07-07T06:19:41.805Z</time>
      </trkpt>
      <trkpt lat="42.94937333" lon="0.27003167">
        <ele>1069.0</ele>
        <time>2019-07-07T06:19:42.824Z</time>
      </trkpt>
      <trkpt lat="42.94937333" lon="0.27003167">
        <ele>1069.0</ele>
        <time>2019-07-07T06:19:43.832Z</time>
      </trkpt>
      <trkpt lat="42.9495" lon="0.269805">
        <ele>1068.0</ele>
        <time>2019-07-07T06:19:44.837Z</time>
      </trkpt>
      <trkpt lat="42.94956333" lon="0.269685">
        <ele>1067.0</ele>
        <time>2019-07-07T06:19:45.823Z</time>
      </trkpt>
      <trkpt lat="42.94956333" lon="0.269685">
        <ele>1067.0</ele>
        <time>2019-07-07T06:19:46.806Z</time>
      </trkpt>
      <trkpt lat="42.94968" lon="0.269445">
        <ele>1066.0</ele>
        <time>2019-07-07T06:19:47.825Z</time>
      </trkpt>
      <trkpt lat="42.94968" lon="0.269445">
        <ele>1066.0</ele>
        <time>2019-07-07T06:19:48.808Z</time>
      </trkpt>
      <trkpt lat="42.94978167" lon="0.269205">
        <ele>1065.0</ele>
        <time>2019-07-07T06:19:49.826Z</time>
      </trkpt>
      <trkpt lat="42.94978167" lon="0.269205">
        <ele>1065.0</ele>
        <time>2019-07-07T06:19:50.808Z</time>
      </trkpt>
      <trkpt lat="42.94985667" lon="0.26897167">
        <ele>1063.0</ele>
        <time>2019-07-07T06:19:51.821Z</time>
      </trkpt>
      <trkpt lat="42.94987167" lon="0.268855">
        <ele>1062.0</ele>
        <time>2019-07-07T06:19:52.833Z</time>
      </trkpt>
      <trkpt lat="42.94987167" lon="0.268855">
        <ele>1062.0</ele>
        <time>2019-07-07T06:19:53.807Z</time>
      </trkpt>
      <trkpt lat="42.94985667" lon="0.26861833">
        <ele>1061.0</ele>
        <time>2019-07-07T06:19:54.822Z</time>
      </trkpt>
      <trkpt lat="42.94985667" lon="0.26861833">
        <ele>1061.0</ele>
        <time>2019-07-07T06:19:55.806Z</time>
      </trkpt>
      <trkpt lat="42.94983" lon="0.26837833">
        <ele>1059.0</ele>
        <time>2019-07-07T06:19:56.812Z</time>
      </trkpt>
      <trkpt lat="42.94983" lon="0.26837833">
        <ele>1059.0</ele>
        <time>2019-07-07T06:19:57.820Z</time>
      </trkpt>
      <trkpt lat="42.94984167" lon="0.26815333">
        <ele>1058.0</ele>
        <time>2019-07-07T06:19:58.823Z</time>
      </trkpt>
      <trkpt lat="42.94984167" lon="0.26815333">
        <ele>1058.0</ele>
        <time>2019-07-07T06:19:59.806Z</time>
      </trkpt>
      <trkpt lat="42.94990333" lon="0.26795">
        <ele>1057.0</ele>
        <time>2019-07-07T06:20:00.823Z</time>
      </trkpt>
      <trkpt lat="42.94996" lon="0.26786833">
        <ele>1056.0</ele>
        <time>2019-07-07T06:20:01.840Z</time>
      </trkpt>
      <trkpt lat="42.95004833" lon="0.267805">
        <ele>1056.0</ele>
        <time>2019-07-07T06:20:02.821Z</time>
      </trkpt>
      <trkpt lat="42.95004833" lon="0.267805">
        <ele>1056.0</ele>
        <time>2019-07-07T06:20:03.805Z</time>
      </trkpt>
      <trkpt lat="42.95023833" lon="0.26768333">
        <ele>1054.0</ele>
        <time>2019-07-07T06:20:04.839Z</time>
      </trkpt>
      <trkpt lat="42.95034" lon="0.26760667">
        <ele>1054.0</ele>
        <time>2019-07-07T06:20:05.822Z</time>
      </trkpt>
      <trkpt lat="42.95043333" lon="0.26751667">
        <ele>1053.0</ele>
        <time>2019-07-07T06:20:06.823Z</time>
      </trkpt>
      <trkpt lat="42.95043333" lon="0.26751667">
        <ele>1053.0</ele>
        <time>2019-07-07T06:20:07.805Z</time>
      </trkpt>
      <trkpt lat="42.95062" lon="0.267315">
        <ele>1051.0</ele>
        <time>2019-07-07T06:20:08.837Z</time>
      </trkpt>
      <trkpt lat="42.95062" lon="0.267315">
        <ele>1051.0</ele>
        <time>2019-07-07T06:20:09.804Z</time>
      </trkpt>
      <trkpt lat="42.950805" lon="0.26713333">
        <ele>1049.0</ele>
        <time>2019-07-07T06:20:10.823Z</time>
      </trkpt>
      <trkpt lat="42.950805" lon="0.26713333">
        <ele>1049.0</ele>
        <time>2019-07-07T06:20:11.805Z</time>
      </trkpt>
      <trkpt lat="42.95099" lon="0.26699333">
        <ele>1048.0</ele>
        <time>2019-07-07T06:20:12.824Z</time>
      </trkpt>
      <trkpt lat="42.95099" lon="0.26699333">
        <ele>1048.0</ele>
        <time>2019-07-07T06:20:13.805Z</time>
      </trkpt>
      <trkpt lat="42.95115833" lon="0.26685833">
        <ele>1048.0</ele>
        <time>2019-07-07T06:20:14.824Z</time>
      </trkpt>
      <trkpt lat="42.95115833" lon="0.26685833">
        <ele>1048.0</ele>
        <time>2019-07-07T06:20:15.824Z</time>
      </trkpt>
      <trkpt lat="42.9513" lon="0.26667333">
        <ele>1047.0</ele>
        <time>2019-07-07T06:20:16.824Z</time>
      </trkpt>
      <trkpt lat="42.9513" lon="0.26667333">
        <ele>1047.0</ele>
        <time>2019-07-07T06:20:17.806Z</time>
      </trkpt>
      <trkpt lat="42.9514" lon="0.26644833">
        <ele>1046.0</ele>
        <time>2019-07-07T06:20:18.819Z</time>
      </trkpt>
      <trkpt lat="42.9514" lon="0.26644833">
        <ele>1046.0</ele>
        <time>2019-07-07T06:20:19.813Z</time>
      </trkpt>
      <trkpt lat="42.95145333" lon="0.266195">
        <ele>1045.0</ele>
        <time>2019-07-07T06:20:20.827Z</time>
      </trkpt>
      <trkpt lat="42.95146" lon="0.26605833">
        <ele>1045.0</ele>
        <time>2019-07-07T06:20:21.832Z</time>
      </trkpt>
      <trkpt lat="42.95146" lon="0.26592">
        <ele>1044.0</ele>
        <time>2019-07-07T06:20:22.821Z</time>
      </trkpt>
      <trkpt lat="42.95146" lon="0.26592">
        <ele>1044.0</ele>
        <time>2019-07-07T06:20:23.823Z</time>
      </trkpt>
      <trkpt lat="42.95147333" lon="0.26564333">
        <ele>1043.0</ele>
        <time>2019-07-07T06:20:24.820Z</time>
      </trkpt>
      <trkpt lat="42.95148167" lon="0.265505">
        <ele>1043.0</ele>
        <time>2019-07-07T06:20:25.819Z</time>
      </trkpt>
      <trkpt lat="42.95148167" lon="0.265505">
        <ele>1043.0</ele>
        <time>2019-07-07T06:20:26.807Z</time>
      </trkpt>
      <trkpt lat="42.95153333" lon="0.26523333">
        <ele>1042.0</ele>
        <time>2019-07-07T06:20:27.820Z</time>
      </trkpt>
      <trkpt lat="42.95153333" lon="0.26523333">
        <ele>1042.0</ele>
        <time>2019-07-07T06:20:28.808Z</time>
      </trkpt>
      <trkpt lat="42.95162667" lon="0.26496167">
        <ele>1041.0</ele>
        <time>2019-07-07T06:20:29.821Z</time>
      </trkpt>
      <trkpt lat="42.95162667" lon="0.26496167">
        <ele>1041.0</ele>
        <time>2019-07-07T06:20:30.819Z</time>
      </trkpt>
      <trkpt lat="42.95176167" lon="0.26472">
        <ele>1040.0</ele>
        <time>2019-07-07T06:20:31.813Z</time>
      </trkpt>
      <trkpt lat="42.95176167" lon="0.26472">
        <ele>1040.0</ele>
        <time>2019-07-07T06:20:32.818Z</time>
      </trkpt>
      <trkpt lat="42.951925" lon="0.26451667">
        <ele>1039.0</ele>
        <time>2019-07-07T06:20:33.824Z</time>
      </trkpt>
      <trkpt lat="42.95200667" lon="0.26442333">
        <ele>1038.0</ele>
        <time>2019-07-07T06:20:34.824Z</time>
      </trkpt>
      <trkpt lat="42.95200667" lon="0.26442333">
        <ele>1038.0</ele>
        <time>2019-07-07T06:20:35.809Z</time>
      </trkpt>
      <trkpt lat="42.95213833" lon="0.26421167">
        <ele>1037.0</ele>
        <time>2019-07-07T06:20:36.819Z</time>
      </trkpt>
      <trkpt lat="42.95213833" lon="0.26421167">
        <ele>1037.0</ele>
        <time>2019-07-07T06:20:37.806Z</time>
      </trkpt>
      <trkpt lat="42.95221667" lon="0.26395">
        <ele>1036.0</ele>
        <time>2019-07-07T06:20:38.825Z</time>
      </trkpt>
      <trkpt lat="42.95225833" lon="0.26380833">
        <ele>1035.0</ele>
        <time>2019-07-07T06:20:39.834Z</time>
      </trkpt>
      <trkpt lat="42.95228667" lon="0.263655">
        <ele>1034.0</ele>
        <time>2019-07-07T06:20:40.824Z</time>
      </trkpt>
      <trkpt lat="42.95228667" lon="0.263655">
        <ele>1034.0</ele>
        <time>2019-07-07T06:20:41.815Z</time>
      </trkpt>
      <trkpt lat="42.95237" lon="0.26335333">
        <ele>1032.0</ele>
        <time>2019-07-07T06:20:42.824Z</time>
      </trkpt>
      <trkpt lat="42.95237" lon="0.26335333">
        <ele>1032.0</ele>
        <time>2019-07-07T06:20:43.824Z</time>
      </trkpt>
      <trkpt lat="42.95247" lon="0.263045">
        <ele>1031.0</ele>
        <time>2019-07-07T06:20:44.823Z</time>
      </trkpt>
      <trkpt lat="42.95247" lon="0.263045">
        <ele>1031.0</ele>
        <time>2019-07-07T06:20:45.807Z</time>
      </trkpt>
      <trkpt lat="42.95259667" lon="0.26273">
        <ele>1029.0</ele>
        <time>2019-07-07T06:20:46.821Z</time>
      </trkpt>
      <trkpt lat="42.95259667" lon="0.26273">
        <ele>1029.0</ele>
        <time>2019-07-07T06:20:47.833Z</time>
      </trkpt>
      <trkpt lat="42.95270333" lon="0.26239833">
        <ele>1026.0</ele>
        <time>2019-07-07T06:20:48.835Z</time>
      </trkpt>
      <trkpt lat="42.95270333" lon="0.26239833">
        <ele>1026.0</ele>
        <time>2019-07-07T06:20:49.820Z</time>
      </trkpt>
      <trkpt lat="42.95283167" lon="0.26208333">
        <ele>1023.0</ele>
        <time>2019-07-07T06:20:50.821Z</time>
      </trkpt>
      <trkpt lat="42.95283167" lon="0.26208333">
        <ele>1023.0</ele>
        <time>2019-07-07T06:20:51.817Z</time>
      </trkpt>
      <trkpt lat="42.95297167" lon="0.26178833">
        <ele>1021.0</ele>
        <time>2019-07-07T06:20:52.817Z</time>
      </trkpt>
      <trkpt lat="42.95297167" lon="0.26178833">
        <ele>1021.0</ele>
        <time>2019-07-07T06:20:53.827Z</time>
      </trkpt>
      <trkpt lat="42.95312833" lon="0.26149333">
        <ele>1019.0</ele>
        <time>2019-07-07T06:20:54.816Z</time>
      </trkpt>
      <trkpt lat="42.95312833" lon="0.26149333">
        <ele>1019.0</ele>
        <time>2019-07-07T06:20:55.806Z</time>
      </trkpt>
      <trkpt lat="42.95328667" lon="0.26119833">
        <ele>1016.0</ele>
        <time>2019-07-07T06:20:56.816Z</time>
      </trkpt>
      <trkpt lat="42.95328667" lon="0.26119833">
        <ele>1016.0</ele>
        <time>2019-07-07T06:20:57.815Z</time>
      </trkpt>
      <trkpt lat="42.95344333" lon="0.26091333">
        <ele>1014.0</ele>
        <time>2019-07-07T06:20:58.820Z</time>
      </trkpt>
      <trkpt lat="42.95344333" lon="0.26091333">
        <ele>1014.0</ele>
        <time>2019-07-07T06:20:59.816Z</time>
      </trkpt>
      <trkpt lat="42.953595" lon="0.26065">
        <ele>1012.0</ele>
        <time>2019-07-07T06:21:00.820Z</time>
      </trkpt>
      <trkpt lat="42.953595" lon="0.26065">
        <ele>1012.0</ele>
        <time>2019-07-07T06:21:01.822Z</time>
      </trkpt>
      <trkpt lat="42.95376833" lon="0.26043333">
        <ele>1010.0</ele>
        <time>2019-07-07T06:21:02.820Z</time>
      </trkpt>
      <trkpt lat="42.95376833" lon="0.26043333">
        <ele>1010.0</ele>
        <time>2019-07-07T06:21:03.806Z</time>
      </trkpt>
      <trkpt lat="42.95398" lon="0.26027167">
        <ele>1008.0</ele>
        <time>2019-07-07T06:21:04.826Z</time>
      </trkpt>
      <trkpt lat="42.95408833" lon="0.26020667">
        <ele>1008.0</ele>
        <time>2019-07-07T06:21:05.802Z</time>
      </trkpt>
      <trkpt lat="42.95408833" lon="0.26020667">
        <ele>1008.0</ele>
        <time>2019-07-07T06:21:06.809Z</time>
      </trkpt>
      <trkpt lat="42.95431167" lon="0.26009667">
        <ele>1006.0</ele>
        <time>2019-07-07T06:21:07.819Z</time>
      </trkpt>
      <trkpt lat="42.95431167" lon="0.26009667">
        <ele>1006.0</ele>
        <time>2019-07-07T06:21:08.816Z</time>
      </trkpt>
      <trkpt lat="42.95454" lon="0.26001">
        <ele>1005.0</ele>
        <time>2019-07-07T06:21:09.845Z</time>
      </trkpt>
      <trkpt lat="42.95454" lon="0.26001">
        <ele>1005.0</ele>
        <time>2019-07-07T06:21:10.818Z</time>
      </trkpt>
      <trkpt lat="42.954765" lon="0.25992">
        <ele>1004.0</ele>
        <time>2019-07-07T06:21:11.839Z</time>
      </trkpt>
      <trkpt lat="42.95487333" lon="0.25988">
        <ele>1003.0</ele>
        <time>2019-07-07T06:21:12.824Z</time>
      </trkpt>
      <trkpt lat="42.95487333" lon="0.25988">
        <ele>1003.0</ele>
        <time>2019-07-07T06:21:13.808Z</time>
      </trkpt>
      <trkpt lat="42.95508667" lon="0.25978167">
        <ele>1003.0</ele>
        <time>2019-07-07T06:21:14.822Z</time>
      </trkpt>
      <trkpt lat="42.95508667" lon="0.25978167">
        <ele>1003.0</ele>
        <time>2019-07-07T06:21:15.806Z</time>
      </trkpt>
      <trkpt lat="42.95530167" lon="0.25966167">
        <ele>1002.0</ele>
        <time>2019-07-07T06:21:16.818Z</time>
      </trkpt>
      <trkpt lat="42.95530167" lon="0.25966167">
        <ele>1002.0</ele>
        <time>2019-07-07T06:21:17.806Z</time>
      </trkpt>
      <trkpt lat="42.95548833" lon="0.25949167">
        <ele>1000.0</ele>
        <time>2019-07-07T06:21:18.835Z</time>
      </trkpt>
      <trkpt lat="42.95557" lon="0.259385">
        <ele>1000.0</ele>
        <time>2019-07-07T06:21:19.819Z</time>
      </trkpt>
      <trkpt lat="42.95557" lon="0.259385">
        <ele>1000.0</ele>
        <time>2019-07-07T06:21:20.808Z</time>
      </trkpt>
      <trkpt lat="42.955695" lon="0.25913">
        <ele>999.0</ele>
        <time>2019-07-07T06:21:21.805Z</time>
      </trkpt>
      <trkpt lat="42.955745" lon="0.25899">
        <ele>998.0</ele>
        <time>2019-07-07T06:21:22.824Z</time>
      </trkpt>
      <trkpt lat="42.95579" lon="0.258845">
        <ele>997.0</ele>
        <time>2019-07-07T06:21:23.818Z</time>
      </trkpt>
      <trkpt lat="42.95579" lon="0.258845">
        <ele>997.0</ele>
        <time>2019-07-07T06:21:24.803Z</time>
      </trkpt>
      <trkpt lat="42.955885" lon="0.25857167">
        <ele>996.0</ele>
        <time>2019-07-07T06:21:25.824Z</time>
      </trkpt>
      <trkpt lat="42.955885" lon="0.25857167">
        <ele>996.0</ele>
        <time>2019-07-07T06:21:26.816Z</time>
      </trkpt>
      <trkpt lat="42.95599833" lon="0.25832167">
        <ele>995.0</ele>
        <time>2019-07-07T06:21:27.824Z</time>
      </trkpt>
      <trkpt lat="42.95599833" lon="0.25832167">
        <ele>995.0</ele>
        <time>2019-07-07T06:21:28.807Z</time>
      </trkpt>
      <trkpt lat="42.95612833" lon="0.25810167">
        <ele>994.0</ele>
        <time>2019-07-07T06:21:29.835Z</time>
      </trkpt>
      <trkpt lat="42.95612833" lon="0.25810167">
        <ele>994.0</ele>
        <time>2019-07-07T06:21:30.841Z</time>
      </trkpt>
      <trkpt lat="42.95627" lon="0.25790667">
        <ele>993.0</ele>
        <time>2019-07-07T06:21:31.818Z</time>
      </trkpt>
      <trkpt lat="42.95634667" lon="0.25781833">
        <ele>993.0</ele>
        <time>2019-07-07T06:21:32.827Z</time>
      </trkpt>
      <trkpt lat="42.95634667" lon="0.25781833">
        <ele>993.0</ele>
        <time>2019-07-07T06:21:33.839Z</time>
      </trkpt>
      <trkpt lat="42.95651167" lon="0.25765167">
        <ele>991.0</ele>
        <time>2019-07-07T06:21:34.824Z</time>
      </trkpt>
      <trkpt lat="42.95659667" lon="0.25757">
        <ele>991.0</ele>
        <time>2019-07-07T06:21:35.827Z</time>
      </trkpt>
      <trkpt lat="42.95668333" lon="0.25748833">
        <ele>990.0</ele>
        <time>2019-07-07T06:21:36.824Z</time>
      </trkpt>
      <trkpt lat="42.95668333" lon="0.25748833">
        <ele>990.0</ele>
        <time>2019-07-07T06:21:37.807Z</time>
      </trkpt>
      <trkpt lat="42.95685833" lon="0.25732333">
        <ele>989.0</ele>
        <time>2019-07-07T06:21:38.825Z</time>
      </trkpt>
      <trkpt lat="42.95694667" lon="0.25724167">
        <ele>989.0</ele>
        <time>2019-07-07T06:21:39.817Z</time>
      </trkpt>
      <trkpt lat="42.95694667" lon="0.25724167">
        <ele>989.0</ele>
        <time>2019-07-07T06:21:40.803Z</time>
      </trkpt>
      <trkpt lat="42.95711333" lon="0.25707">
        <ele>988.0</ele>
        <time>2019-07-07T06:21:41.832Z</time>
      </trkpt>
      <trkpt lat="42.95719667" lon="0.25698333">
        <ele>987.0</ele>
        <time>2019-07-07T06:21:42.820Z</time>
      </trkpt>
      <trkpt lat="42.95719667" lon="0.25698333">
        <ele>987.0</ele>
        <time>2019-07-07T06:21:43.808Z</time>
      </trkpt>
      <trkpt lat="42.95736" lon="0.25681167">
        <ele>987.0</ele>
        <time>2019-07-07T06:21:44.835Z</time>
      </trkpt>
      <trkpt lat="42.95736" lon="0.25681167">
        <ele>987.0</ele>
        <time>2019-07-07T06:21:45.807Z</time>
      </trkpt>
      <trkpt lat="42.95751667" lon="0.25663667">
        <ele>986.0</ele>
        <time>2019-07-07T06:21:46.822Z</time>
      </trkpt>
      <trkpt lat="42.95751667" lon="0.25663667">
        <ele>986.0</ele>
        <time>2019-07-07T06:21:47.808Z</time>
      </trkpt>
      <trkpt lat="42.957665" lon="0.25645">
        <ele>986.0</ele>
        <time>2019-07-07T06:21:48.826Z</time>
      </trkpt>
      <trkpt lat="42.95773833" lon="0.25635333">
        <ele>985.0</ele>
        <time>2019-07-07T06:21:49.838Z</time>
      </trkpt>
      <trkpt lat="42.95773833" lon="0.25635333">
        <ele>985.0</ele>
        <time>2019-07-07T06:21:50.823Z</time>
      </trkpt>
      <trkpt lat="42.95788333" lon="0.25616167">
        <ele>984.0</ele>
        <time>2019-07-07T06:21:51.809Z</time>
      </trkpt>
      <trkpt lat="42.95796" lon="0.25606667">
        <ele>984.0</ele>
        <time>2019-07-07T06:21:52.824Z</time>
      </trkpt>
      <trkpt lat="42.95796" lon="0.25606667">
        <ele>984.0</ele>
        <time>2019-07-07T06:21:53.808Z</time>
      </trkpt>
      <trkpt lat="42.95811833" lon="0.255885">
        <ele>983.0</ele>
        <time>2019-07-07T06:21:54.824Z</time>
      </trkpt>
      <trkpt lat="42.95811833" lon="0.255885">
        <ele>983.0</ele>
        <time>2019-07-07T06:21:55.807Z</time>
      </trkpt>
      <trkpt lat="42.95828" lon="0.25570333">
        <ele>982.0</ele>
        <time>2019-07-07T06:21:56.833Z</time>
      </trkpt>
      <trkpt lat="42.95828" lon="0.25570333">
        <ele>982.0</ele>
        <time>2019-07-07T06:21:57.807Z</time>
      </trkpt>
      <trkpt lat="42.95844333" lon="0.255525">
        <ele>982.0</ele>
        <time>2019-07-07T06:21:58.826Z</time>
      </trkpt>
      <trkpt lat="42.95844333" lon="0.255525">
        <ele>982.0</ele>
        <time>2019-07-07T06:21:59.810Z</time>
      </trkpt>
      <trkpt lat="42.958605" lon="0.25535833">
        <ele>981.0</ele>
        <time>2019-07-07T06:22:00.817Z</time>
      </trkpt>
      <trkpt lat="42.958605" lon="0.25535833">
        <ele>981.0</ele>
        <time>2019-07-07T06:22:01.832Z</time>
      </trkpt>
      <trkpt lat="42.95876" lon="0.25519167">
        <ele>980.0</ele>
        <time>2019-07-07T06:22:02.825Z</time>
      </trkpt>
      <trkpt lat="42.95883667" lon="0.25511167">
        <ele>980.0</ele>
        <time>2019-07-07T06:22:03.827Z</time>
      </trkpt>
      <trkpt lat="42.95892" lon="0.25504">
        <ele>980.0</ele>
        <time>2019-07-07T06:22:04.825Z</time>
      </trkpt>
      <trkpt lat="42.95892" lon="0.25504">
        <ele>980.0</ele>
        <time>2019-07-07T06:22:05.807Z</time>
      </trkpt>
      <trkpt lat="42.95909333" lon="0.25491">
        <ele>979.0</ele>
        <time>2019-07-07T06:22:06.820Z</time>
      </trkpt>
      <trkpt lat="42.95909333" lon="0.25491">
        <ele>979.0</ele>
        <time>2019-07-07T06:22:07.807Z</time>
      </trkpt>
      <trkpt lat="42.959255" lon="0.25478167">
        <ele>979.0</ele>
        <time>2019-07-07T06:22:08.835Z</time>
      </trkpt>
      <trkpt lat="42.95933333" lon="0.25471667">
        <ele>979.0</ele>
        <time>2019-07-07T06:22:09.824Z</time>
      </trkpt>
      <trkpt lat="42.95940667" lon="0.25465167">
        <ele>978.0</ele>
        <time>2019-07-07T06:22:10.827Z</time>
      </trkpt>
      <trkpt lat="42.95940667" lon="0.25465167">
        <ele>978.0</ele>
        <time>2019-07-07T06:22:11.818Z</time>
      </trkpt>
      <trkpt lat="42.95954667" lon="0.25450833">
        <ele>978.0</ele>
        <time>2019-07-07T06:22:12.824Z</time>
      </trkpt>
      <trkpt lat="42.95954667" lon="0.25450833">
        <ele>978.0</ele>
        <time>2019-07-07T06:22:13.807Z</time>
      </trkpt>
      <trkpt lat="42.95968667" lon="0.25434667">
        <ele>978.0</ele>
        <time>2019-07-07T06:22:14.817Z</time>
      </trkpt>
      <trkpt lat="42.95975833" lon="0.254265">
        <ele>978.0</ele>
        <time>2019-07-07T06:22:15.819Z</time>
      </trkpt>
      <trkpt lat="42.95975833" lon="0.254265">
        <ele>978.0</ele>
        <time>2019-07-07T06:22:16.808Z</time>
      </trkpt>
      <trkpt lat="42.95991" lon="0.25409167">
        <ele>977.0</ele>
        <time>2019-07-07T06:22:17.827Z</time>
      </trkpt>
      <trkpt lat="42.959985" lon="0.25399167">
        <ele>976.0</ele>
        <time>2019-07-07T06:22:18.825Z</time>
      </trkpt>
      <trkpt lat="42.959985" lon="0.25399167">
        <ele>976.0</ele>
        <time>2019-07-07T06:22:19.821Z</time>
      </trkpt>
      <trkpt lat="42.96013333" lon="0.25379">
        <ele>975.0</ele>
        <time>2019-07-07T06:22:20.817Z</time>
      </trkpt>
      <trkpt lat="42.96020833" lon="0.25368667">
        <ele>975.0</ele>
        <time>2019-07-07T06:22:21.827Z</time>
      </trkpt>
      <trkpt lat="42.96028" lon="0.25358">
        <ele>974.0</ele>
        <time>2019-07-07T06:22:22.823Z</time>
      </trkpt>
      <trkpt lat="42.96028" lon="0.25358">
        <ele>974.0</ele>
        <time>2019-07-07T06:22:23.808Z</time>
      </trkpt>
      <trkpt lat="42.96041833" lon="0.253355">
        <ele>973.0</ele>
        <time>2019-07-07T06:22:24.818Z</time>
      </trkpt>
      <trkpt lat="42.96049167" lon="0.25325">
        <ele>973.0</ele>
        <time>2019-07-07T06:22:25.806Z</time>
      </trkpt>
      <trkpt lat="42.96056167" lon="0.25314667">
        <ele>972.0</ele>
        <time>2019-07-07T06:22:26.826Z</time>
      </trkpt>
      <trkpt lat="42.96056167" lon="0.25314667">
        <ele>972.0</ele>
        <time>2019-07-07T06:22:27.808Z</time>
      </trkpt>
      <trkpt lat="42.960715" lon="0.25294333">
        <ele>971.0</ele>
        <time>2019-07-07T06:22:28.823Z</time>
      </trkpt>
      <trkpt lat="42.960715" lon="0.25294333">
        <ele>971.0</ele>
        <time>2019-07-07T06:22:29.823Z</time>
      </trkpt>
      <trkpt lat="42.96087667" lon="0.252745">
        <ele>970.0</ele>
        <time>2019-07-07T06:22:30.831Z</time>
      </trkpt>
      <trkpt lat="42.96096167" lon="0.25265">
        <ele>969.0</ele>
        <time>2019-07-07T06:22:31.802Z</time>
      </trkpt>
      <trkpt lat="42.96096167" lon="0.25265">
        <ele>969.0</ele>
        <time>2019-07-07T06:22:32.816Z</time>
      </trkpt>
      <trkpt lat="42.961125" lon="0.252455">
        <ele>968.0</ele>
        <time>2019-07-07T06:22:33.823Z</time>
      </trkpt>
      <trkpt lat="42.961125" lon="0.252455">
        <ele>968.0</ele>
        <time>2019-07-07T06:22:34.805Z</time>
      </trkpt>
      <trkpt lat="42.96128833" lon="0.25226167">
        <ele>967.0</ele>
        <time>2019-07-07T06:22:35.833Z</time>
      </trkpt>
      <trkpt lat="42.96136667" lon="0.252165">
        <ele>967.0</ele>
        <time>2019-07-07T06:22:36.823Z</time>
      </trkpt>
      <trkpt lat="42.96136667" lon="0.252165">
        <ele>967.0</ele>
        <time>2019-07-07T06:22:37.808Z</time>
      </trkpt>
      <trkpt lat="42.96152667" lon="0.25197333">
        <ele>966.0</ele>
        <time>2019-07-07T06:22:38.819Z</time>
      </trkpt>
      <trkpt lat="42.96160333" lon="0.251875">
        <ele>965.0</ele>
        <time>2019-07-07T06:22:39.821Z</time>
      </trkpt>
      <trkpt lat="42.96168167" lon="0.251775">
        <ele>965.0</ele>
        <time>2019-07-07T06:22:40.824Z</time>
      </trkpt>
      <trkpt lat="42.96168167" lon="0.251775">
        <ele>965.0</ele>
        <time>2019-07-07T06:22:41.819Z</time>
      </trkpt>
      <trkpt lat="42.96184167" lon="0.251575">
        <ele>964.0</ele>
        <time>2019-07-07T06:22:42.823Z</time>
      </trkpt>
      <trkpt lat="42.96184167" lon="0.251575">
        <ele>964.0</ele>
        <time>2019-07-07T06:22:43.838Z</time>
      </trkpt>
      <trkpt lat="42.96197833" lon="0.25135667">
        <ele>962.0</ele>
        <time>2019-07-07T06:22:44.836Z</time>
      </trkpt>
      <trkpt lat="42.96203667" lon="0.25123833">
        <ele>962.0</ele>
        <time>2019-07-07T06:22:45.821Z</time>
      </trkpt>
      <trkpt lat="42.96203667" lon="0.25123833">
        <ele>962.0</ele>
        <time>2019-07-07T06:22:46.810Z</time>
      </trkpt>
      <trkpt lat="42.96216333" lon="0.25101">
        <ele>961.0</ele>
        <time>2019-07-07T06:22:47.838Z</time>
      </trkpt>
      <trkpt lat="42.96222333" lon="0.250895">
        <ele>960.0</ele>
        <time>2019-07-07T06:22:48.819Z</time>
      </trkpt>
      <trkpt lat="42.96222333" lon="0.250895">
        <ele>960.0</ele>
        <time>2019-07-07T06:22:49.838Z</time>
      </trkpt>
      <trkpt lat="42.96234833" lon="0.250665">
        <ele>960.0</ele>
        <time>2019-07-07T06:22:50.825Z</time>
      </trkpt>
      <trkpt lat="42.96234833" lon="0.250665">
        <ele>960.0</ele>
        <time>2019-07-07T06:22:51.827Z</time>
      </trkpt>
      <trkpt lat="42.96248" lon="0.25044667">
        <ele>958.0</ele>
        <time>2019-07-07T06:22:52.826Z</time>
      </trkpt>
      <trkpt lat="42.96248" lon="0.25044667">
        <ele>958.0</ele>
        <time>2019-07-07T06:22:53.819Z</time>
      </trkpt>
      <trkpt lat="42.96261" lon="0.25021833">
        <ele>957.0</ele>
        <time>2019-07-07T06:22:54.823Z</time>
      </trkpt>
      <trkpt lat="42.96267167" lon="0.25010167">
        <ele>957.0</ele>
        <time>2019-07-07T06:22:55.805Z</time>
      </trkpt>
      <trkpt lat="42.96267167" lon="0.25010167">
        <ele>957.0</ele>
        <time>2019-07-07T06:22:56.817Z</time>
      </trkpt>
      <trkpt lat="42.96278167" lon="0.249865">
        <ele>956.0</ele>
        <time>2019-07-07T06:22:57.822Z</time>
      </trkpt>
      <trkpt lat="42.96283667" lon="0.249745">
        <ele>955.0</ele>
        <time>2019-07-07T06:22:58.837Z</time>
      </trkpt>
      <trkpt lat="42.96283667" lon="0.249745">
        <ele>955.0</ele>
        <time>2019-07-07T06:22:59.807Z</time>
      </trkpt>
      <trkpt lat="42.96293333" lon="0.24949833">
        <ele>954.0</ele>
        <time>2019-07-07T06:23:00.817Z</time>
      </trkpt>
      <trkpt lat="42.96293333" lon="0.24949833">
        <ele>954.0</ele>
        <time>2019-07-07T06:23:01.819Z</time>
      </trkpt>
      <trkpt lat="42.96304167" lon="0.24926667">
        <ele>953.0</ele>
        <time>2019-07-07T06:23:02.822Z</time>
      </trkpt>
      <trkpt lat="42.96304167" lon="0.24926667">
        <ele>953.0</ele>
        <time>2019-07-07T06:23:03.811Z</time>
      </trkpt>
      <trkpt lat="42.96315833" lon="0.24904667">
        <ele>952.0</ele>
        <time>2019-07-07T06:23:04.818Z</time>
      </trkpt>
      <trkpt lat="42.96315833" lon="0.24904667">
        <ele>952.0</ele>
        <time>2019-07-07T06:23:05.818Z</time>
      </trkpt>
      <trkpt lat="42.96327833" lon="0.24883833">
        <ele>952.0</ele>
        <time>2019-07-07T06:23:06.823Z</time>
      </trkpt>
      <trkpt lat="42.96327833" lon="0.24883833">
        <ele>952.0</ele>
        <time>2019-07-07T06:23:07.808Z</time>
      </trkpt>
      <trkpt lat="42.963385" lon="0.248625">
        <ele>951.0</ele>
        <time>2019-07-07T06:23:08.823Z</time>
      </trkpt>
      <trkpt lat="42.96343667" lon="0.24851667">
        <ele>951.0</ele>
        <time>2019-07-07T06:23:09.824Z</time>
      </trkpt>
      <trkpt lat="42.96348167" lon="0.24840167">
        <ele>950.0</ele>
        <time>2019-07-07T06:23:10.825Z</time>
      </trkpt>
      <trkpt lat="42.96348167" lon="0.24840167">
        <ele>950.0</ele>
        <time>2019-07-07T06:23:11.803Z</time>
      </trkpt>
      <trkpt lat="42.96358167" lon="0.24818">
        <ele>949.0</ele>
        <time>2019-07-07T06:23:12.823Z</time>
      </trkpt>
      <trkpt lat="42.96358167" lon="0.24818">
        <ele>949.0</ele>
        <time>2019-07-07T06:23:13.817Z</time>
      </trkpt>
      <trkpt lat="42.963695" lon="0.24797333">
        <ele>948.0</ele>
        <time>2019-07-07T06:23:14.821Z</time>
      </trkpt>
      <trkpt lat="42.96375333" lon="0.24787667">
        <ele>948.0</ele>
        <time>2019-07-07T06:23:15.823Z</time>
      </trkpt>
      <trkpt lat="42.96377333" lon="0.24776333">
        <ele>947.0</ele>
        <time>2019-07-07T06:23:16.826Z</time>
      </trkpt>
      <trkpt lat="42.96377333" lon="0.24776333">
        <ele>947.0</ele>
        <time>2019-07-07T06:23:17.818Z</time>
      </trkpt>
      <trkpt lat="42.96385167" lon="0.24755">
        <ele>946.0</ele>
        <time>2019-07-07T06:23:18.824Z</time>
      </trkpt>
      <trkpt lat="42.96385167" lon="0.24755">
        <ele>946.0</ele>
        <time>2019-07-07T06:23:19.808Z</time>
      </trkpt>
      <trkpt lat="42.963965" lon="0.24733833">
        <ele>945.0</ele>
        <time>2019-07-07T06:23:20.824Z</time>
      </trkpt>
      <trkpt lat="42.963965" lon="0.24733833">
        <ele>945.0</ele>
        <time>2019-07-07T06:23:21.804Z</time>
      </trkpt>
      <trkpt lat="42.96408333" lon="0.24713167">
        <ele>945.0</ele>
        <time>2019-07-07T06:23:22.837Z</time>
      </trkpt>
      <trkpt lat="42.96408333" lon="0.24713167">
        <ele>945.0</ele>
        <time>2019-07-07T06:23:23.808Z</time>
      </trkpt>
      <trkpt lat="42.96422333" lon="0.246945">
        <ele>944.0</ele>
        <time>2019-07-07T06:23:24.825Z</time>
      </trkpt>
      <trkpt lat="42.96429833" lon="0.24686">
        <ele>944.0</ele>
        <time>2019-07-07T06:23:25.819Z</time>
      </trkpt>
      <trkpt lat="42.964375" lon="0.24678333">
        <ele>944.0</ele>
        <time>2019-07-07T06:23:26.819Z</time>
      </trkpt>
      <trkpt lat="42.964375" lon="0.24678333">
        <ele>944.0</ele>
        <time>2019-07-07T06:23:27.806Z</time>
      </trkpt>
      <trkpt lat="42.96452" lon="0.24663">
        <ele>944.0</ele>
        <time>2019-07-07T06:23:28.838Z</time>
      </trkpt>
      <trkpt lat="42.96452" lon="0.24663">
        <ele>944.0</ele>
        <time>2019-07-07T06:23:29.808Z</time>
      </trkpt>
      <trkpt lat="42.96466" lon="0.24646667">
        <ele>943.0</ele>
        <time>2019-07-07T06:23:30.820Z</time>
      </trkpt>
      <trkpt lat="42.96473167" lon="0.246385">
        <ele>943.0</ele>
        <time>2019-07-07T06:23:31.833Z</time>
      </trkpt>
      <trkpt lat="42.96473167" lon="0.246385">
        <ele>943.0</ele>
        <time>2019-07-07T06:23:32.809Z</time>
      </trkpt>
      <trkpt lat="42.96487167" lon="0.24623">
        <ele>943.0</ele>
        <time>2019-07-07T06:23:33.820Z</time>
      </trkpt>
      <trkpt lat="42.96494167" lon="0.24615333">
        <ele>943.0</ele>
        <time>2019-07-07T06:23:34.839Z</time>
      </trkpt>
      <trkpt lat="42.96494167" lon="0.24615333">
        <ele>943.0</ele>
        <time>2019-07-07T06:23:35.819Z</time>
      </trkpt>
      <trkpt lat="42.965075" lon="0.24601333">
        <ele>943.0</ele>
        <time>2019-07-07T06:23:36.823Z</time>
      </trkpt>
      <trkpt lat="42.965075" lon="0.24601333">
        <ele>943.0</ele>
        <time>2019-07-07T06:23:37.817Z</time>
      </trkpt>
      <trkpt lat="42.96520667" lon="0.24588">
        <ele>944.0</ele>
        <time>2019-07-07T06:23:38.827Z</time>
      </trkpt>
      <trkpt lat="42.96520667" lon="0.24588">
        <ele>944.0</ele>
        <time>2019-07-07T06:23:39.808Z</time>
      </trkpt>
      <trkpt lat="42.96534167" lon="0.24576">
        <ele>944.0</ele>
        <time>2019-07-07T06:23:40.826Z</time>
      </trkpt>
      <trkpt lat="42.96534167" lon="0.24576">
        <ele>944.0</ele>
        <time>2019-07-07T06:23:41.809Z</time>
      </trkpt>
      <trkpt lat="42.965485" lon="0.24565333">
        <ele>945.0</ele>
        <time>2019-07-07T06:23:42.823Z</time>
      </trkpt>
      <trkpt lat="42.965485" lon="0.24565333">
        <ele>945.0</ele>
        <time>2019-07-07T06:23:43.809Z</time>
      </trkpt>
      <trkpt lat="42.96562833" lon="0.24554333">
        <ele>944.0</ele>
        <time>2019-07-07T06:23:44.820Z</time>
      </trkpt>
      <trkpt lat="42.96562833" lon="0.24554333">
        <ele>944.0</ele>
        <time>2019-07-07T06:23:45.808Z</time>
      </trkpt>
      <trkpt lat="42.96577167" lon="0.24542667">
        <ele>944.0</ele>
        <time>2019-07-07T06:23:46.821Z</time>
      </trkpt>
      <trkpt lat="42.96577167" lon="0.24542667">
        <ele>944.0</ele>
        <time>2019-07-07T06:23:47.819Z</time>
      </trkpt>
      <trkpt lat="42.96592833" lon="0.24530333">
        <ele>943.0</ele>
        <time>2019-07-07T06:23:48.825Z</time>
      </trkpt>
      <trkpt lat="42.96601167" lon="0.245245">
        <ele>942.0</ele>
        <time>2019-07-07T06:23:49.801Z</time>
      </trkpt>
      <trkpt lat="42.96601167" lon="0.245245">
        <ele>942.0</ele>
        <time>2019-07-07T06:23:50.808Z</time>
      </trkpt>
      <trkpt lat="42.96619333" lon="0.245145">
        <ele>941.0</ele>
        <time>2019-07-07T06:23:51.804Z</time>
      </trkpt>
      <trkpt lat="42.96629167" lon="0.245105">
        <ele>940.0</ele>
        <time>2019-07-07T06:23:52.827Z</time>
      </trkpt>
      <trkpt lat="42.96629167" lon="0.245105">
        <ele>940.0</ele>
        <time>2019-07-07T06:23:53.807Z</time>
      </trkpt>
      <trkpt lat="42.96649167" lon="0.24506167">
        <ele>939.0</ele>
        <time>2019-07-07T06:23:54.823Z</time>
      </trkpt>
      <trkpt lat="42.96649167" lon="0.24506167">
        <ele>939.0</ele>
        <time>2019-07-07T06:23:55.810Z</time>
      </trkpt>
      <trkpt lat="42.96669333" lon="0.245055">
        <ele>938.0</ele>
        <time>2019-07-07T06:23:56.820Z</time>
      </trkpt>
      <trkpt lat="42.96669333" lon="0.245055">
        <ele>938.0</ele>
        <time>2019-07-07T06:23:57.809Z</time>
      </trkpt>
      <trkpt lat="42.96689667" lon="0.245055">
        <ele>937.0</ele>
        <time>2019-07-07T06:23:58.819Z</time>
      </trkpt>
      <trkpt lat="42.967" lon="0.24504833">
        <ele>937.0</ele>
        <time>2019-07-07T06:23:59.819Z</time>
      </trkpt>
      <trkpt lat="42.96710333" lon="0.245035">
        <ele>937.0</ele>
        <time>2019-07-07T06:24:00.819Z</time>
      </trkpt>
      <trkpt lat="42.96710333" lon="0.245035">
        <ele>937.0</ele>
        <time>2019-07-07T06:24:01.809Z</time>
      </trkpt>
      <trkpt lat="42.96731167" lon="0.24500333">
        <ele>936.0</ele>
        <time>2019-07-07T06:24:02.804Z</time>
      </trkpt>
      <trkpt lat="42.96731167" lon="0.24500333">
        <ele>936.0</ele>
        <time>2019-07-07T06:24:03.819Z</time>
      </trkpt>
      <trkpt lat="42.96752167" lon="0.24497167">
        <ele>935.0</ele>
        <time>2019-07-07T06:24:04.831Z</time>
      </trkpt>
      <trkpt lat="42.96752167" lon="0.24497167">
        <ele>935.0</ele>
        <time>2019-07-07T06:24:05.829Z</time>
      </trkpt>
      <trkpt lat="42.967725" lon="0.24489833">
        <ele>934.0</ele>
        <time>2019-07-07T06:24:06.824Z</time>
      </trkpt>
      <trkpt lat="42.967725" lon="0.24489833">
        <ele>934.0</ele>
        <time>2019-07-07T06:24:07.809Z</time>
      </trkpt>
      <trkpt lat="42.96792167" lon="0.24480667">
        <ele>934.0</ele>
        <time>2019-07-07T06:24:08.819Z</time>
      </trkpt>
      <trkpt lat="42.96792167" lon="0.24480667">
        <ele>934.0</ele>
        <time>2019-07-07T06:24:09.818Z</time>
      </trkpt>
      <trkpt lat="42.96812" lon="0.24471333">
        <ele>933.0</ele>
        <time>2019-07-07T06:24:10.817Z</time>
      </trkpt>
      <trkpt lat="42.96812" lon="0.24471333">
        <ele>933.0</ele>
        <time>2019-07-07T06:24:11.808Z</time>
      </trkpt>
      <trkpt lat="42.96831667" lon="0.24462167">
        <ele>932.0</ele>
        <time>2019-07-07T06:24:12.823Z</time>
      </trkpt>
      <trkpt lat="42.96831667" lon="0.24462167">
        <ele>932.0</ele>
        <time>2019-07-07T06:24:13.808Z</time>
      </trkpt>
      <trkpt lat="42.968515" lon="0.24452667">
        <ele>931.0</ele>
        <time>2019-07-07T06:24:14.819Z</time>
      </trkpt>
      <trkpt lat="42.968515" lon="0.24452667">
        <ele>931.0</ele>
        <time>2019-07-07T06:24:15.808Z</time>
      </trkpt>
      <trkpt lat="42.96871167" lon="0.24443167">
        <ele>931.0</ele>
        <time>2019-07-07T06:24:16.824Z</time>
      </trkpt>
      <trkpt lat="42.96880833" lon="0.244385">
        <ele>931.0</ele>
        <time>2019-07-07T06:24:17.819Z</time>
      </trkpt>
      <trkpt lat="42.968905" lon="0.24434167">
        <ele>931.0</ele>
        <time>2019-07-07T06:24:18.801Z</time>
      </trkpt>
      <trkpt lat="42.968905" lon="0.24434167">
        <ele>931.0</ele>
        <time>2019-07-07T06:24:19.818Z</time>
      </trkpt>
      <trkpt lat="42.9691" lon="0.24427167">
        <ele>930.0</ele>
        <time>2019-07-07T06:24:20.822Z</time>
      </trkpt>
      <trkpt lat="42.9692" lon="0.24425333">
        <ele>930.0</ele>
        <time>2019-07-07T06:24:21.841Z</time>
      </trkpt>
      <trkpt lat="42.9692" lon="0.24425333">
        <ele>930.0</ele>
        <time>2019-07-07T06:24:22.819Z</time>
      </trkpt>
      <trkpt lat="42.969415" lon="0.24424167">
        <ele>929.0</ele>
        <time>2019-07-07T06:24:23.823Z</time>
      </trkpt>
      <trkpt lat="42.969525" lon="0.244245">
        <ele>929.0</ele>
        <time>2019-07-07T06:24:24.822Z</time>
      </trkpt>
      <trkpt lat="42.969525" lon="0.244245">
        <ele>929.0</ele>
        <time>2019-07-07T06:24:25.809Z</time>
      </trkpt>
      <trkpt lat="42.96975667" lon="0.24425667">
        <ele>927.0</ele>
        <time>2019-07-07T06:24:26.823Z</time>
      </trkpt>
      <trkpt lat="42.96975667" lon="0.24425667">
        <ele>927.0</ele>
        <time>2019-07-07T06:24:27.808Z</time>
      </trkpt>
      <trkpt lat="42.96998833" lon="0.244235">
        <ele>926.0</ele>
        <time>2019-07-07T06:24:28.818Z</time>
      </trkpt>
      <trkpt lat="42.97010333" lon="0.24420833">
        <ele>925.0</ele>
        <time>2019-07-07T06:24:29.804Z</time>
      </trkpt>
      <trkpt lat="42.97010333" lon="0.24420833">
        <ele>925.0</ele>
        <time>2019-07-07T06:24:30.811Z</time>
      </trkpt>
      <trkpt lat="42.97035333" lon="0.24417333">
        <ele>924.0</ele>
        <time>2019-07-07T06:24:31.830Z</time>
      </trkpt>
      <trkpt lat="42.97035333" lon="0.24417333">
        <ele>924.0</ele>
        <time>2019-07-07T06:24:32.833Z</time>
      </trkpt>
      <trkpt lat="42.97061833" lon="0.24415667">
        <ele>922.0</ele>
        <time>2019-07-07T06:24:33.835Z</time>
      </trkpt>
      <trkpt lat="42.97061833" lon="0.24415667">
        <ele>922.0</ele>
        <time>2019-07-07T06:24:34.830Z</time>
      </trkpt>
      <trkpt lat="42.97088333" lon="0.24413667">
        <ele>921.0</ele>
        <time>2019-07-07T06:24:35.823Z</time>
      </trkpt>
      <trkpt lat="42.97088333" lon="0.24413667">
        <ele>921.0</ele>
        <time>2019-07-07T06:24:36.818Z</time>
      </trkpt>
      <trkpt lat="42.97114667" lon="0.24411833">
        <ele>919.0</ele>
        <time>2019-07-07T06:24:37.833Z</time>
      </trkpt>
      <trkpt lat="42.97114667" lon="0.24411833">
        <ele>919.0</ele>
        <time>2019-07-07T06:24:38.823Z</time>
      </trkpt>
      <trkpt lat="42.97141167" lon="0.24410333">
        <ele>917.0</ele>
        <time>2019-07-07T06:24:39.823Z</time>
      </trkpt>
      <trkpt lat="42.97154167" lon="0.24409333">
        <ele>916.0</ele>
        <time>2019-07-07T06:24:40.816Z</time>
      </trkpt>
      <trkpt lat="42.97154167" lon="0.24409333">
        <ele>916.0</ele>
        <time>2019-07-07T06:24:41.818Z</time>
      </trkpt>
      <trkpt lat="42.97178833" lon="0.24404333">
        <ele>915.0</ele>
        <time>2019-07-07T06:24:42.812Z</time>
      </trkpt>
      <trkpt lat="42.971905" lon="0.24399833">
        <ele>914.0</ele>
        <time>2019-07-07T06:24:43.824Z</time>
      </trkpt>
      <trkpt lat="42.971905" lon="0.24399833">
        <ele>914.0</ele>
        <time>2019-07-07T06:24:44.808Z</time>
      </trkpt>
      <trkpt lat="42.97213333" lon="0.243885">
        <ele>913.0</ele>
        <time>2019-07-07T06:24:45.805Z</time>
      </trkpt>
      <trkpt lat="42.97213333" lon="0.243885">
        <ele>913.0</ele>
        <time>2019-07-07T06:24:46.818Z</time>
      </trkpt>
      <trkpt lat="42.97236667" lon="0.24377333">
        <ele>911.0</ele>
        <time>2019-07-07T06:24:47.827Z</time>
      </trkpt>
      <trkpt lat="42.97248833" lon="0.24372667">
        <ele>910.0</ele>
        <time>2019-07-07T06:24:48.839Z</time>
      </trkpt>
      <trkpt lat="42.97248833" lon="0.24372667">
        <ele>910.0</ele>
        <time>2019-07-07T06:24:49.826Z</time>
      </trkpt>
      <trkpt lat="42.97273" lon="0.24365167">
        <ele>908.0</ele>
        <time>2019-07-07T06:24:50.830Z</time>
      </trkpt>
      <trkpt lat="42.97273" lon="0.24365167">
        <ele>908.0</ele>
        <time>2019-07-07T06:24:51.820Z</time>
      </trkpt>
      <trkpt lat="42.97296833" lon="0.24357833">
        <ele>907.0</ele>
        <time>2019-07-07T06:24:52.815Z</time>
      </trkpt>
      <trkpt lat="42.97308667" lon="0.24354333">
        <ele>906.0</ele>
        <time>2019-07-07T06:24:53.826Z</time>
      </trkpt>
      <trkpt lat="42.97320167" lon="0.243505">
        <ele>905.0</ele>
        <time>2019-07-07T06:24:54.836Z</time>
      </trkpt>
      <trkpt lat="42.97320167" lon="0.243505">
        <ele>905.0</ele>
        <time>2019-07-07T06:24:55.829Z</time>
      </trkpt>
      <trkpt lat="42.97342833" lon="0.24342">
        <ele>904.0</ele>
        <time>2019-07-07T06:24:56.825Z</time>
      </trkpt>
      <trkpt lat="42.97342833" lon="0.24342">
        <ele>904.0</ele>
        <time>2019-07-07T06:24:57.829Z</time>
      </trkpt>
      <trkpt lat="42.973655" lon="0.24334333">
        <ele>903.0</ele>
        <time>2019-07-07T06:24:58.839Z</time>
      </trkpt>
      <trkpt lat="42.973655" lon="0.24334333">
        <ele>903.0</ele>
        <time>2019-07-07T06:24:59.820Z</time>
      </trkpt>
      <trkpt lat="42.973875" lon="0.24329167">
        <ele>902.0</ele>
        <time>2019-07-07T06:25:00.833Z</time>
      </trkpt>
      <trkpt lat="42.973875" lon="0.24329167">
        <ele>902.0</ele>
        <time>2019-07-07T06:25:01.837Z</time>
      </trkpt>
      <trkpt lat="42.97409" lon="0.24325333">
        <ele>901.0</ele>
        <time>2019-07-07T06:25:02.833Z</time>
      </trkpt>
      <trkpt lat="42.97419333" lon="0.24324">
        <ele>901.0</ele>
        <time>2019-07-07T06:25:03.836Z</time>
      </trkpt>
      <trkpt lat="42.97429167" lon="0.24322833">
        <ele>901.0</ele>
        <time>2019-07-07T06:25:04.826Z</time>
      </trkpt>
      <trkpt lat="42.97429167" lon="0.24322833">
        <ele>901.0</ele>
        <time>2019-07-07T06:25:05.826Z</time>
      </trkpt>
      <trkpt lat="42.97449167" lon="0.243225">
        <ele>900.0</ele>
        <time>2019-07-07T06:25:06.837Z</time>
      </trkpt>
      <trkpt lat="42.97449167" lon="0.243225">
        <ele>900.0</ele>
        <time>2019-07-07T06:25:07.827Z</time>
      </trkpt>
      <trkpt lat="42.97469" lon="0.243235">
        <ele>901.0</ele>
        <time>2019-07-07T06:25:08.836Z</time>
      </trkpt>
      <trkpt lat="42.97469" lon="0.243235">
        <ele>901.0</ele>
        <time>2019-07-07T06:25:09.827Z</time>
      </trkpt>
      <trkpt lat="42.97488333" lon="0.24324">
        <ele>901.0</ele>
        <time>2019-07-07T06:25:10.841Z</time>
      </trkpt>
      <trkpt lat="42.97488333" lon="0.24324">
        <ele>901.0</ele>
        <time>2019-07-07T06:25:11.827Z</time>
      </trkpt>
      <trkpt lat="42.97508" lon="0.24323167">
        <ele>900.0</ele>
        <time>2019-07-07T06:25:12.807Z</time>
      </trkpt>
      <trkpt lat="42.97508" lon="0.24323167">
        <ele>900.0</ele>
        <time>2019-07-07T06:25:13.834Z</time>
      </trkpt>
      <trkpt lat="42.97527167" lon="0.24317833">
        <ele>900.0</ele>
        <time>2019-07-07T06:25:14.827Z</time>
      </trkpt>
      <trkpt lat="42.97527167" lon="0.24317833">
        <ele>900.0</ele>
        <time>2019-07-07T06:25:15.812Z</time>
      </trkpt>
      <trkpt lat="42.97545167" lon="0.24309333">
        <ele>899.0</ele>
        <time>2019-07-07T06:25:16.830Z</time>
      </trkpt>
      <trkpt lat="42.97545167" lon="0.24309333">
        <ele>899.0</ele>
        <time>2019-07-07T06:25:17.822Z</time>
      </trkpt>
      <trkpt lat="42.97563333" lon="0.24299667">
        <ele>898.0</ele>
        <time>2019-07-07T06:25:18.826Z</time>
      </trkpt>
      <trkpt lat="42.97563333" lon="0.24299667">
        <ele>898.0</ele>
        <time>2019-07-07T06:25:19.810Z</time>
      </trkpt>
      <trkpt lat="42.97581833" lon="0.242925">
        <ele>898.0</ele>
        <time>2019-07-07T06:25:20.832Z</time>
      </trkpt>
      <trkpt lat="42.97581833" lon="0.242925">
        <ele>898.0</ele>
        <time>2019-07-07T06:25:21.812Z</time>
      </trkpt>
      <trkpt lat="42.97601" lon="0.242895">
        <ele>897.0</ele>
        <time>2019-07-07T06:25:22.803Z</time>
      </trkpt>
      <trkpt lat="42.97601" lon="0.242895">
        <ele>897.0</ele>
        <time>2019-07-07T06:25:23.822Z</time>
      </trkpt>
      <trkpt lat="42.97620333" lon="0.24286167">
        <ele>897.0</ele>
        <time>2019-07-07T06:25:24.821Z</time>
      </trkpt>
      <trkpt lat="42.97620333" lon="0.24286167">
        <ele>897.0</ele>
        <time>2019-07-07T06:25:25.810Z</time>
      </trkpt>
      <trkpt lat="42.976415" lon="0.24282667">
        <ele>896.0</ele>
        <time>2019-07-07T06:25:26.827Z</time>
      </trkpt>
      <trkpt lat="42.976415" lon="0.24282667">
        <ele>896.0</ele>
        <time>2019-07-07T06:25:27.811Z</time>
      </trkpt>
      <trkpt lat="42.97663667" lon="0.24277833">
        <ele>895.0</ele>
        <time>2019-07-07T06:25:28.829Z</time>
      </trkpt>
      <trkpt lat="42.97663667" lon="0.24277833">
        <ele>895.0</ele>
        <time>2019-07-07T06:25:29.821Z</time>
      </trkpt>
      <trkpt lat="42.97685167" lon="0.24271833">
        <ele>894.0</ele>
        <time>2019-07-07T06:25:30.827Z</time>
      </trkpt>
      <trkpt lat="42.97685167" lon="0.24271833">
        <ele>894.0</ele>
        <time>2019-07-07T06:25:31.828Z</time>
      </trkpt>
      <trkpt lat="42.97706667" lon="0.24265">
        <ele>892.0</ele>
        <time>2019-07-07T06:25:32.834Z</time>
      </trkpt>
      <trkpt lat="42.97706667" lon="0.24265">
        <ele>892.0</ele>
        <time>2019-07-07T06:25:33.811Z</time>
      </trkpt>
      <trkpt lat="42.97728" lon="0.24257333">
        <ele>890.0</ele>
        <time>2019-07-07T06:25:34.827Z</time>
      </trkpt>
      <trkpt lat="42.97728" lon="0.24257333">
        <ele>890.0</ele>
        <time>2019-07-07T06:25:35.813Z</time>
      </trkpt>
      <trkpt lat="42.97747333" lon="0.242465">
        <ele>889.0</ele>
        <time>2019-07-07T06:25:36.827Z</time>
      </trkpt>
      <trkpt lat="42.97747333" lon="0.242465">
        <ele>889.0</ele>
        <time>2019-07-07T06:25:37.821Z</time>
      </trkpt>
      <trkpt lat="42.97762667" lon="0.24230167">
        <ele>887.0</ele>
        <time>2019-07-07T06:25:38.827Z</time>
      </trkpt>
      <trkpt lat="42.97762667" lon="0.24230167">
        <ele>887.0</ele>
        <time>2019-07-07T06:25:39.810Z</time>
      </trkpt>
      <trkpt lat="42.97774833" lon="0.242105">
        <ele>886.0</ele>
        <time>2019-07-07T06:25:40.820Z</time>
      </trkpt>
      <trkpt lat="42.97774833" lon="0.242105">
        <ele>886.0</ele>
        <time>2019-07-07T06:25:41.811Z</time>
      </trkpt>
      <trkpt lat="42.97784667" lon="0.24190833">
        <ele>885.0</ele>
        <time>2019-07-07T06:25:42.823Z</time>
      </trkpt>
      <trkpt lat="42.97784667" lon="0.24190833">
        <ele>885.0</ele>
        <time>2019-07-07T06:25:43.810Z</time>
      </trkpt>
      <trkpt lat="42.97791833" lon="0.24169333">
        <ele>883.0</ele>
        <time>2019-07-07T06:25:44.827Z</time>
      </trkpt>
      <trkpt lat="42.97791833" lon="0.24169333">
        <ele>883.0</ele>
        <time>2019-07-07T06:25:45.810Z</time>
      </trkpt>
      <trkpt lat="42.97799333" lon="0.24148333">
        <ele>882.0</ele>
        <time>2019-07-07T06:25:46.837Z</time>
      </trkpt>
      <trkpt lat="42.97799333" lon="0.24148333">
        <ele>882.0</ele>
        <time>2019-07-07T06:25:47.813Z</time>
      </trkpt>
      <trkpt lat="42.97806167" lon="0.24129">
        <ele>882.0</ele>
        <time>2019-07-07T06:25:48.825Z</time>
      </trkpt>
      <trkpt lat="42.97806167" lon="0.24129">
        <ele>882.0</ele>
        <time>2019-07-07T06:25:49.834Z</time>
      </trkpt>
      <trkpt lat="42.97814167" lon="0.241105">
        <ele>880.0</ele>
        <time>2019-07-07T06:25:50.826Z</time>
      </trkpt>
      <trkpt lat="42.97814167" lon="0.241105">
        <ele>880.0</ele>
        <time>2019-07-07T06:25:51.807Z</time>
      </trkpt>
      <trkpt lat="42.97821833" lon="0.24091">
        <ele>880.0</ele>
        <time>2019-07-07T06:25:52.822Z</time>
      </trkpt>
      <trkpt lat="42.97821833" lon="0.24091">
        <ele>880.0</ele>
        <time>2019-07-07T06:25:53.810Z</time>
      </trkpt>
      <trkpt lat="42.97827667" lon="0.24071">
        <ele>879.0</ele>
        <time>2019-07-07T06:25:54.828Z</time>
      </trkpt>
      <trkpt lat="42.97827667" lon="0.24071">
        <ele>879.0</ele>
        <time>2019-07-07T06:25:55.830Z</time>
      </trkpt>
      <trkpt lat="42.97834167" lon="0.24051167">
        <ele>878.0</ele>
        <time>2019-07-07T06:25:56.827Z</time>
      </trkpt>
      <trkpt lat="42.978375" lon="0.24041667">
        <ele>878.0</ele>
        <time>2019-07-07T06:25:57.811Z</time>
      </trkpt>
      <trkpt lat="42.978375" lon="0.24041667">
        <ele>878.0</ele>
        <time>2019-07-07T06:25:58.814Z</time>
      </trkpt>
      <trkpt lat="42.97845833" lon="0.24024167">
        <ele>878.0</ele>
        <time>2019-07-07T06:25:59.827Z</time>
      </trkpt>
      <trkpt lat="42.97851833" lon="0.24017167">
        <ele>878.0</ele>
        <time>2019-07-07T06:26:00.818Z</time>
      </trkpt>
      <trkpt lat="42.97851833" lon="0.24017167">
        <ele>878.0</ele>
        <time>2019-07-07T06:26:01.811Z</time>
      </trkpt>
      <trkpt lat="42.97862667" lon="0.24004833">
        <ele>877.0</ele>
        <time>2019-07-07T06:26:02.837Z</time>
      </trkpt>
      <trkpt lat="42.97862667" lon="0.24004833">
        <ele>877.0</ele>
        <time>2019-07-07T06:26:03.810Z</time>
      </trkpt>
      <trkpt lat="42.97875" lon="0.23995333">
        <ele>877.0</ele>
        <time>2019-07-07T06:26:04.823Z</time>
      </trkpt>
      <trkpt lat="42.97875" lon="0.23995333">
        <ele>877.0</ele>
        <time>2019-07-07T06:26:05.811Z</time>
      </trkpt>
      <trkpt lat="42.978875" lon="0.23988667">
        <ele>877.0</ele>
        <time>2019-07-07T06:26:06.822Z</time>
      </trkpt>
      <trkpt lat="42.978875" lon="0.23988667">
        <ele>877.0</ele>
        <time>2019-07-07T06:26:07.829Z</time>
      </trkpt>
      <trkpt lat="42.97898333" lon="0.23981">
        <ele>877.0</ele>
        <time>2019-07-07T06:26:08.828Z</time>
      </trkpt>
      <trkpt lat="42.97903667" lon="0.23977167">
        <ele>877.0</ele>
        <time>2019-07-07T06:26:09.819Z</time>
      </trkpt>
      <trkpt lat="42.97903667" lon="0.23977167">
        <ele>877.0</ele>
        <time>2019-07-07T06:26:10.827Z</time>
      </trkpt>
      <trkpt lat="42.97915" lon="0.23970833">
        <ele>877.0</ele>
        <time>2019-07-07T06:26:11.837Z</time>
      </trkpt>
      <trkpt lat="42.97915" lon="0.23970833">
        <ele>877.0</ele>
        <time>2019-07-07T06:26:12.812Z</time>
      </trkpt>
      <trkpt lat="42.97927167" lon="0.23964833">
        <ele>877.0</ele>
        <time>2019-07-07T06:26:13.802Z</time>
      </trkpt>
      <trkpt lat="42.97933" lon="0.23960667">
        <ele>878.0</ele>
        <time>2019-07-07T06:26:14.826Z</time>
      </trkpt>
      <trkpt lat="42.97937167" lon="0.23955333">
        <ele>878.0</ele>
        <time>2019-07-07T06:26:15.827Z</time>
      </trkpt>
      <trkpt lat="42.97937167" lon="0.23955333">
        <ele>878.0</ele>
        <time>2019-07-07T06:26:16.831Z</time>
      </trkpt>
      <trkpt lat="42.97946167" lon="0.239435">
        <ele>878.0</ele>
        <time>2019-07-07T06:26:17.821Z</time>
      </trkpt>
      <trkpt lat="42.97951167" lon="0.239375">
        <ele>879.0</ele>
        <time>2019-07-07T06:26:18.827Z</time>
      </trkpt>
      <trkpt lat="42.97951167" lon="0.239375">
        <ele>879.0</ele>
        <time>2019-07-07T06:26:19.829Z</time>
      </trkpt>
      <trkpt lat="42.97961333" lon="0.23923">
        <ele>879.0</ele>
        <time>2019-07-07T06:26:20.822Z</time>
      </trkpt>
      <trkpt lat="42.97961333" lon="0.23923">
        <ele>879.0</ele>
        <time>2019-07-07T06:26:21.829Z</time>
      </trkpt>
      <trkpt lat="42.97971833" lon="0.239085">
        <ele>880.0</ele>
        <time>2019-07-07T06:26:22.827Z</time>
      </trkpt>
      <trkpt lat="42.97971833" lon="0.239085">
        <ele>880.0</ele>
        <time>2019-07-07T06:26:23.809Z</time>
      </trkpt>
      <trkpt lat="42.979815" lon="0.23895167">
        <ele>880.0</ele>
        <time>2019-07-07T06:26:24.821Z</time>
      </trkpt>
      <trkpt lat="42.979815" lon="0.23895167">
        <ele>880.0</ele>
        <time>2019-07-07T06:26:25.814Z</time>
      </trkpt>
      <trkpt lat="42.979915" lon="0.23880167">
        <ele>881.0</ele>
        <time>2019-07-07T06:26:26.817Z</time>
      </trkpt>
      <trkpt lat="42.979915" lon="0.23880167">
        <ele>881.0</ele>
        <time>2019-07-07T06:26:27.827Z</time>
      </trkpt>
      <trkpt lat="42.980025" lon="0.23865667">
        <ele>881.0</ele>
        <time>2019-07-07T06:26:28.833Z</time>
      </trkpt>
      <trkpt lat="42.980025" lon="0.23865667">
        <ele>881.0</ele>
        <time>2019-07-07T06:26:29.825Z</time>
      </trkpt>
      <trkpt lat="42.98014667" lon="0.23851833">
        <ele>882.0</ele>
        <time>2019-07-07T06:26:30.825Z</time>
      </trkpt>
      <trkpt lat="42.98014667" lon="0.23851833">
        <ele>882.0</ele>
        <time>2019-07-07T06:26:31.813Z</time>
      </trkpt>
      <trkpt lat="42.98027167" lon="0.238375">
        <ele>882.0</ele>
        <time>2019-07-07T06:26:32.827Z</time>
      </trkpt>
      <trkpt lat="42.98027167" lon="0.238375">
        <ele>882.0</ele>
        <time>2019-07-07T06:26:33.829Z</time>
      </trkpt>
      <trkpt lat="42.98039333" lon="0.23823333">
        <ele>883.0</ele>
        <time>2019-07-07T06:26:34.818Z</time>
      </trkpt>
      <trkpt lat="42.98045" lon="0.238165">
        <ele>883.0</ele>
        <time>2019-07-07T06:26:35.833Z</time>
      </trkpt>
      <trkpt lat="42.98045" lon="0.238165">
        <ele>883.0</ele>
        <time>2019-07-07T06:26:36.813Z</time>
      </trkpt>
      <trkpt lat="42.98056833" lon="0.23802833">
        <ele>884.0</ele>
        <time>2019-07-07T06:26:37.836Z</time>
      </trkpt>
      <trkpt lat="42.98056833" lon="0.23802833">
        <ele>884.0</ele>
        <time>2019-07-07T06:26:38.810Z</time>
      </trkpt>
      <trkpt lat="42.98069333" lon="0.237885">
        <ele>885.0</ele>
        <time>2019-07-07T06:26:39.820Z</time>
      </trkpt>
      <trkpt lat="42.98069333" lon="0.237885">
        <ele>885.0</ele>
        <time>2019-07-07T06:26:40.811Z</time>
      </trkpt>
      <trkpt lat="42.98081833" lon="0.23773667">
        <ele>885.0</ele>
        <time>2019-07-07T06:26:41.827Z</time>
      </trkpt>
      <trkpt lat="42.98088" lon="0.23766167">
        <ele>885.0</ele>
        <time>2019-07-07T06:26:42.836Z</time>
      </trkpt>
      <trkpt lat="42.98088" lon="0.23766167">
        <ele>885.0</ele>
        <time>2019-07-07T06:26:43.820Z</time>
      </trkpt>
      <trkpt lat="42.98101167" lon="0.23750667">
        <ele>885.0</ele>
        <time>2019-07-07T06:26:44.824Z</time>
      </trkpt>
      <trkpt lat="42.98101167" lon="0.23750667">
        <ele>885.0</ele>
        <time>2019-07-07T06:26:45.810Z</time>
      </trkpt>
      <trkpt lat="42.98115167" lon="0.237345">
        <ele>885.0</ele>
        <time>2019-07-07T06:26:46.827Z</time>
      </trkpt>
      <trkpt lat="42.98115167" lon="0.237345">
        <ele>885.0</ele>
        <time>2019-07-07T06:26:47.813Z</time>
      </trkpt>
      <trkpt lat="42.98129333" lon="0.23718333">
        <ele>884.0</ele>
        <time>2019-07-07T06:26:48.822Z</time>
      </trkpt>
      <trkpt lat="42.98129333" lon="0.23718333">
        <ele>884.0</ele>
        <time>2019-07-07T06:26:49.803Z</time>
      </trkpt>
      <trkpt lat="42.98144" lon="0.23701">
        <ele>884.0</ele>
        <time>2019-07-07T06:26:50.812Z</time>
      </trkpt>
      <trkpt lat="42.98151333" lon="0.23692">
        <ele>883.0</ele>
        <time>2019-07-07T06:26:51.827Z</time>
      </trkpt>
      <trkpt lat="42.98151333" lon="0.23692">
        <ele>883.0</ele>
        <time>2019-07-07T06:26:52.829Z</time>
      </trkpt>
      <trkpt lat="42.981665" lon="0.23674333">
        <ele>883.0</ele>
        <time>2019-07-07T06:26:53.838Z</time>
      </trkpt>
      <trkpt lat="42.98174167" lon="0.236655">
        <ele>882.0</ele>
        <time>2019-07-07T06:26:54.824Z</time>
      </trkpt>
      <trkpt lat="42.98174167" lon="0.236655">
        <ele>882.0</ele>
        <time>2019-07-07T06:26:55.813Z</time>
      </trkpt>
      <trkpt lat="42.98189333" lon="0.23647">
        <ele>881.0</ele>
        <time>2019-07-07T06:26:56.826Z</time>
      </trkpt>
      <trkpt lat="42.98196667" lon="0.23636">
        <ele>881.0</ele>
        <time>2019-07-07T06:26:57.822Z</time>
      </trkpt>
      <trkpt lat="42.98196667" lon="0.23636">
        <ele>881.0</ele>
        <time>2019-07-07T06:26:58.829Z</time>
      </trkpt>
      <trkpt lat="42.98210833" lon="0.23612167">
        <ele>880.0</ele>
        <time>2019-07-07T06:26:59.835Z</time>
      </trkpt>
      <trkpt lat="42.98217667" lon="0.23599167">
        <ele>880.0</ele>
        <time>2019-07-07T06:27:00.830Z</time>
      </trkpt>
      <trkpt lat="42.98224167" lon="0.23585833">
        <ele>879.0</ele>
        <time>2019-07-07T06:27:01.817Z</time>
      </trkpt>
      <trkpt lat="42.98224167" lon="0.23585833">
        <ele>879.0</ele>
        <time>2019-07-07T06:27:02.814Z</time>
      </trkpt>
      <trkpt lat="42.982345" lon="0.235555">
        <ele>879.0</ele>
        <time>2019-07-07T06:27:03.845Z</time>
      </trkpt>
      <trkpt lat="42.982345" lon="0.235555">
        <ele>879.0</ele>
        <time>2019-07-07T06:27:04.831Z</time>
      </trkpt>
      <trkpt lat="42.98240333" lon="0.23522667">
        <ele>878.0</ele>
        <time>2019-07-07T06:27:05.837Z</time>
      </trkpt>
      <trkpt lat="42.98243" lon="0.23506167">
        <ele>877.0</ele>
        <time>2019-07-07T06:27:06.822Z</time>
      </trkpt>
      <trkpt lat="42.98243" lon="0.23506167">
        <ele>877.0</ele>
        <time>2019-07-07T06:27:07.814Z</time>
      </trkpt>
      <trkpt lat="42.98249667" lon="0.23474833">
        <ele>876.0</ele>
        <time>2019-07-07T06:27:08.832Z</time>
      </trkpt>
      <trkpt lat="42.98249667" lon="0.23474833">
        <ele>876.0</ele>
        <time>2019-07-07T06:27:09.829Z</time>
      </trkpt>
      <trkpt lat="42.98258667" lon="0.23445167">
        <ele>875.0</ele>
        <time>2019-07-07T06:27:10.831Z</time>
      </trkpt>
      <trkpt lat="42.98258667" lon="0.23445167">
        <ele>875.0</ele>
        <time>2019-07-07T06:27:11.837Z</time>
      </trkpt>
      <trkpt lat="42.98268833" lon="0.234185">
        <ele>874.0</ele>
        <time>2019-07-07T06:27:12.817Z</time>
      </trkpt>
      <trkpt lat="42.98268833" lon="0.234185">
        <ele>874.0</ele>
        <time>2019-07-07T06:27:13.838Z</time>
      </trkpt>
      <trkpt lat="42.98282" lon="0.23396">
        <ele>873.0</ele>
        <time>2019-07-07T06:27:14.806Z</time>
      </trkpt>
      <trkpt lat="42.98282" lon="0.23396">
        <ele>873.0</ele>
        <time>2019-07-07T06:27:15.814Z</time>
      </trkpt>
      <trkpt lat="42.982985" lon="0.23378667">
        <ele>873.0</ele>
        <time>2019-07-07T06:27:16.833Z</time>
      </trkpt>
      <trkpt lat="42.982985" lon="0.23378667">
        <ele>873.0</ele>
        <time>2019-07-07T06:27:17.829Z</time>
      </trkpt>
      <trkpt lat="42.983165" lon="0.233645">
        <ele>871.0</ele>
        <time>2019-07-07T06:27:18.826Z</time>
      </trkpt>
      <trkpt lat="42.983165" lon="0.233645">
        <ele>871.0</ele>
        <time>2019-07-07T06:27:19.838Z</time>
      </trkpt>
      <trkpt lat="42.98334333" lon="0.23349833">
        <ele>870.0</ele>
        <time>2019-07-07T06:27:20.807Z</time>
      </trkpt>
      <trkpt lat="42.983425" lon="0.23340667">
        <ele>870.0</ele>
        <time>2019-07-07T06:27:21.838Z</time>
      </trkpt>
      <trkpt lat="42.983425" lon="0.23340667">
        <ele>870.0</ele>
        <time>2019-07-07T06:27:22.809Z</time>
      </trkpt>
      <trkpt lat="42.98356167" lon="0.23318167">
        <ele>869.0</ele>
        <time>2019-07-07T06:27:23.837Z</time>
      </trkpt>
      <trkpt lat="42.98361667" lon="0.23305333">
        <ele>868.0</ele>
        <time>2019-07-07T06:27:24.827Z</time>
      </trkpt>
      <trkpt lat="42.98361667" lon="0.23305333">
        <ele>868.0</ele>
        <time>2019-07-07T06:27:25.814Z</time>
      </trkpt>
      <trkpt lat="42.98373667" lon="0.23279667">
        <ele>867.0</ele>
        <time>2019-07-07T06:27:26.832Z</time>
      </trkpt>
      <trkpt lat="42.98373667" lon="0.23279667">
        <ele>867.0</ele>
        <time>2019-07-07T06:27:27.828Z</time>
      </trkpt>
      <trkpt lat="42.98383667" lon="0.23253333">
        <ele>865.0</ele>
        <time>2019-07-07T06:27:28.837Z</time>
      </trkpt>
      <trkpt lat="42.98383667" lon="0.23253333">
        <ele>865.0</ele>
        <time>2019-07-07T06:27:29.814Z</time>
      </trkpt>
      <trkpt lat="42.98386667" lon="0.23225333">
        <ele>864.0</ele>
        <time>2019-07-07T06:27:30.838Z</time>
      </trkpt>
      <trkpt lat="42.98386667" lon="0.23225333">
        <ele>864.0</ele>
        <time>2019-07-07T06:27:31.804Z</time>
      </trkpt>
      <trkpt lat="42.98381833" lon="0.23196833">
        <ele>862.0</ele>
        <time>2019-07-07T06:27:32.801Z</time>
      </trkpt>
      <trkpt lat="42.98377833" lon="0.23182667">
        <ele>862.0</ele>
        <time>2019-07-07T06:27:33.836Z</time>
      </trkpt>
      <trkpt lat="42.98377833" lon="0.23182667">
        <ele>862.0</ele>
        <time>2019-07-07T06:27:34.839Z</time>
      </trkpt>
      <trkpt lat="42.98369" lon="0.23155">
        <ele>860.0</ele>
        <time>2019-07-07T06:27:35.802Z</time>
      </trkpt>
      <trkpt lat="42.98369" lon="0.23155">
        <ele>860.0</ele>
        <time>2019-07-07T06:27:36.825Z</time>
      </trkpt>
      <trkpt lat="42.98359833" lon="0.23127333">
        <ele>860.0</ele>
        <time>2019-07-07T06:27:37.825Z</time>
      </trkpt>
      <trkpt lat="42.98359833" lon="0.23127333">
        <ele>860.0</ele>
        <time>2019-07-07T06:27:38.825Z</time>
      </trkpt>
      <trkpt lat="42.983515" lon="0.23099">
        <ele>858.0</ele>
        <time>2019-07-07T06:27:39.831Z</time>
      </trkpt>
      <trkpt lat="42.98347333" lon="0.23084667">
        <ele>857.0</ele>
        <time>2019-07-07T06:27:40.834Z</time>
      </trkpt>
      <trkpt lat="42.98347333" lon="0.23084667">
        <ele>857.0</ele>
        <time>2019-07-07T06:27:41.837Z</time>
      </trkpt>
      <trkpt lat="42.98339667" lon="0.23056167">
        <ele>856.0</ele>
        <time>2019-07-07T06:27:42.808Z</time>
      </trkpt>
      <trkpt lat="42.98339667" lon="0.23056167">
        <ele>856.0</ele>
        <time>2019-07-07T06:27:43.813Z</time>
      </trkpt>
      <trkpt lat="42.983345" lon="0.23027667">
        <ele>855.0</ele>
        <time>2019-07-07T06:27:44.837Z</time>
      </trkpt>
      <trkpt lat="42.98332333" lon="0.230135">
        <ele>854.0</ele>
        <time>2019-07-07T06:27:45.826Z</time>
      </trkpt>
      <trkpt lat="42.98329833" lon="0.22999667">
        <ele>853.0</ele>
        <time>2019-07-07T06:27:46.808Z</time>
      </trkpt>
      <trkpt lat="42.98327" lon="0.22986833">
        <ele>852.0</ele>
        <time>2019-07-07T06:27:47.804Z</time>
      </trkpt>
      <trkpt lat="42.98327" lon="0.22986833">
        <ele>852.0</ele>
        <time>2019-07-07T06:27:48.814Z</time>
      </trkpt>
      <trkpt lat="42.98317" lon="0.22964333">
        <ele>851.0</ele>
        <time>2019-07-07T06:27:49.831Z</time>
      </trkpt>
      <trkpt lat="42.98317" lon="0.22964333">
        <ele>851.0</ele>
        <time>2019-07-07T06:27:50.814Z</time>
      </trkpt>
      <trkpt lat="42.98302167" lon="0.22944833">
        <ele>849.0</ele>
        <time>2019-07-07T06:27:51.832Z</time>
      </trkpt>
      <trkpt lat="42.98294" lon="0.22935">
        <ele>848.0</ele>
        <time>2019-07-07T06:27:52.801Z</time>
      </trkpt>
      <trkpt lat="42.98294" lon="0.22935">
        <ele>848.0</ele>
        <time>2019-07-07T06:27:53.811Z</time>
      </trkpt>
      <trkpt lat="42.98277167" lon="0.22916667">
        <ele>847.0</ele>
        <time>2019-07-07T06:27:54.826Z</time>
      </trkpt>
      <trkpt lat="42.98268833" lon="0.22909">
        <ele>846.0</ele>
        <time>2019-07-07T06:27:55.840Z</time>
      </trkpt>
      <trkpt lat="42.98268833" lon="0.22909">
        <ele>846.0</ele>
        <time>2019-07-07T06:27:56.829Z</time>
      </trkpt>
      <trkpt lat="42.98251667" lon="0.22897833">
        <ele>845.0</ele>
        <time>2019-07-07T06:27:57.826Z</time>
      </trkpt>
      <trkpt lat="42.98243667" lon="0.22893667">
        <ele>844.0</ele>
        <time>2019-07-07T06:27:58.828Z</time>
      </trkpt>
      <trkpt lat="42.98236167" lon="0.22889167">
        <ele>843.0</ele>
        <time>2019-07-07T06:27:59.840Z</time>
      </trkpt>
      <trkpt lat="42.98236167" lon="0.22889167">
        <ele>843.0</ele>
        <time>2019-07-07T06:28:00.838Z</time>
      </trkpt>
      <trkpt lat="42.98226" lon="0.228755">
        <ele>842.0</ele>
        <time>2019-07-07T06:28:01.807Z</time>
      </trkpt>
      <trkpt lat="42.98226" lon="0.228755">
        <ele>842.0</ele>
        <time>2019-07-07T06:28:02.831Z</time>
      </trkpt>
      <trkpt lat="42.982225" lon="0.22856">
        <ele>841.0</ele>
        <time>2019-07-07T06:28:03.808Z</time>
      </trkpt>
      <trkpt lat="42.98223" lon="0.22847833">
        <ele>840.0</ele>
        <time>2019-07-07T06:28:04.810Z</time>
      </trkpt>
      <trkpt lat="42.98223" lon="0.22847833">
        <ele>840.0</ele>
        <time>2019-07-07T06:28:05.814Z</time>
      </trkpt>
      <trkpt lat="42.98231" lon="0.228335">
        <ele>839.0</ele>
        <time>2019-07-07T06:28:06.824Z</time>
      </trkpt>
      <trkpt lat="42.98236833" lon="0.22828167">
        <ele>839.0</ele>
        <time>2019-07-07T06:28:07.801Z</time>
      </trkpt>
      <trkpt lat="42.98236833" lon="0.22828167">
        <ele>839.0</ele>
        <time>2019-07-07T06:28:08.814Z</time>
      </trkpt>
      <trkpt lat="42.98250667" lon="0.22822333">
        <ele>838.0</ele>
        <time>2019-07-07T06:28:09.833Z</time>
      </trkpt>
      <trkpt lat="42.98258" lon="0.22821167">
        <ele>837.0</ele>
        <time>2019-07-07T06:28:10.831Z</time>
      </trkpt>
      <trkpt lat="42.98258" lon="0.22821167">
        <ele>837.0</ele>
        <time>2019-07-07T06:28:11.811Z</time>
      </trkpt>
      <trkpt lat="42.98272333" lon="0.22820167">
        <ele>837.0</ele>
        <time>2019-07-07T06:28:12.831Z</time>
      </trkpt>
      <trkpt lat="42.98272333" lon="0.22820167">
        <ele>837.0</ele>
        <time>2019-07-07T06:28:13.832Z</time>
      </trkpt>
      <trkpt lat="42.98285833" lon="0.2282">
        <ele>836.0</ele>
        <time>2019-07-07T06:28:14.839Z</time>
      </trkpt>
      <trkpt lat="42.98292167" lon="0.22819833">
        <ele>836.0</ele>
        <time>2019-07-07T06:28:15.817Z</time>
      </trkpt>
      <trkpt lat="42.982985" lon="0.22819333">
        <ele>836.0</ele>
        <time>2019-07-07T06:28:16.802Z</time>
      </trkpt>
      <trkpt lat="42.982985" lon="0.22819333">
        <ele>836.0</ele>
        <time>2019-07-07T06:28:17.830Z</time>
      </trkpt>
      <trkpt lat="42.98310833" lon="0.22818">
        <ele>837.0</ele>
        <time>2019-07-07T06:28:18.801Z</time>
      </trkpt>
      <trkpt lat="42.98310833" lon="0.22818">
        <ele>837.0</ele>
        <time>2019-07-07T06:28:19.814Z</time>
      </trkpt>
      <trkpt lat="42.983225" lon="0.22816333">
        <ele>839.0</ele>
        <time>2019-07-07T06:28:20.827Z</time>
      </trkpt>
      <trkpt lat="42.98328333" lon="0.22815333">
        <ele>840.0</ele>
        <time>2019-07-07T06:28:21.823Z</time>
      </trkpt>
      <trkpt lat="42.98334167" lon="0.228135">
        <ele>840.0</ele>
        <time>2019-07-07T06:28:22.837Z</time>
      </trkpt>
      <trkpt lat="42.98334167" lon="0.228135">
        <ele>840.0</ele>
        <time>2019-07-07T06:28:23.814Z</time>
      </trkpt>
      <trkpt lat="42.98345667" lon="0.22809333">
        <ele>841.0</ele>
        <time>2019-07-07T06:28:24.837Z</time>
      </trkpt>
      <trkpt lat="42.98345667" lon="0.22809333">
        <ele>841.0</ele>
        <time>2019-07-07T06:28:25.837Z</time>
      </trkpt>
      <trkpt lat="42.98357" lon="0.22804833">
        <ele>841.0</ele>
        <time>2019-07-07T06:28:26.804Z</time>
      </trkpt>
      <trkpt lat="42.98357" lon="0.22804833">
        <ele>841.0</ele>
        <time>2019-07-07T06:28:27.815Z</time>
      </trkpt>
      <trkpt lat="42.983675" lon="0.22800667">
        <ele>842.0</ele>
        <time>2019-07-07T06:28:28.832Z</time>
      </trkpt>
      <trkpt lat="42.983675" lon="0.22800667">
        <ele>842.0</ele>
        <time>2019-07-07T06:28:29.831Z</time>
      </trkpt>
      <trkpt lat="42.98377667" lon="0.22796167">
        <ele>842.0</ele>
        <time>2019-07-07T06:28:30.833Z</time>
      </trkpt>
      <trkpt lat="42.98377667" lon="0.22796167">
        <ele>842.0</ele>
        <time>2019-07-07T06:28:31.828Z</time>
      </trkpt>
      <trkpt lat="42.98387667" lon="0.22791333">
        <ele>843.0</ele>
        <time>2019-07-07T06:28:32.826Z</time>
      </trkpt>
      <trkpt lat="42.98387667" lon="0.22791333">
        <ele>843.0</ele>
        <time>2019-07-07T06:28:33.833Z</time>
      </trkpt>
      <trkpt lat="42.98397333" lon="0.22786333">
        <ele>844.0</ele>
        <time>2019-07-07T06:28:34.817Z</time>
      </trkpt>
      <trkpt lat="42.98397333" lon="0.22786333">
        <ele>844.0</ele>
        <time>2019-07-07T06:28:35.823Z</time>
      </trkpt>
      <trkpt lat="42.98406667" lon="0.22782667">
        <ele>844.0</ele>
        <time>2019-07-07T06:28:36.837Z</time>
      </trkpt>
      <trkpt lat="42.98406667" lon="0.22782667">
        <ele>844.0</ele>
        <time>2019-07-07T06:28:37.833Z</time>
      </trkpt>
      <trkpt lat="42.98416833" lon="0.227785">
        <ele>845.0</ele>
        <time>2019-07-07T06:28:38.829Z</time>
      </trkpt>
      <trkpt lat="42.98416833" lon="0.227785">
        <ele>845.0</ele>
        <time>2019-07-07T06:28:39.812Z</time>
      </trkpt>
      <trkpt lat="42.98428333" lon="0.227745">
        <ele>845.0</ele>
        <time>2019-07-07T06:28:40.830Z</time>
      </trkpt>
      <trkpt lat="42.98428333" lon="0.227745">
        <ele>845.0</ele>
        <time>2019-07-07T06:28:41.809Z</time>
      </trkpt>
      <trkpt lat="42.9844" lon="0.22769833">
        <ele>845.0</ele>
        <time>2019-07-07T06:28:42.821Z</time>
      </trkpt>
      <trkpt lat="42.98445167" lon="0.22767667">
        <ele>845.0</ele>
        <time>2019-07-07T06:28:43.814Z</time>
      </trkpt>
      <trkpt lat="42.98445167" lon="0.22767667">
        <ele>845.0</ele>
        <time>2019-07-07T06:28:44.827Z</time>
      </trkpt>
      <trkpt lat="42.984535" lon="0.22763167">
        <ele>846.0</ele>
        <time>2019-07-07T06:28:45.823Z</time>
      </trkpt>
      <trkpt lat="42.98457" lon="0.22760333">
        <ele>846.0</ele>
        <time>2019-07-07T06:28:46.804Z</time>
      </trkpt>
      <trkpt lat="42.98457" lon="0.22760333">
        <ele>846.0</ele>
        <time>2019-07-07T06:28:47.838Z</time>
      </trkpt>
      <trkpt lat="42.98461833" lon="0.22752667">
        <ele>846.0</ele>
        <time>2019-07-07T06:28:48.808Z</time>
      </trkpt>
      <trkpt lat="42.98461833" lon="0.22752667">
        <ele>846.0</ele>
        <time>2019-07-07T06:28:49.826Z</time>
      </trkpt>
      <trkpt lat="42.98462667" lon="0.22741167">
        <ele>847.0</ele>
        <time>2019-07-07T06:28:50.837Z</time>
      </trkpt>
      <trkpt lat="42.98462667" lon="0.22741167">
        <ele>847.0</ele>
        <time>2019-07-07T06:28:51.827Z</time>
      </trkpt>
      <trkpt lat="42.98460333" lon="0.22728833">
        <ele>847.0</ele>
        <time>2019-07-07T06:28:52.826Z</time>
      </trkpt>
      <trkpt lat="42.98458333" lon="0.22723333">
        <ele>847.0</ele>
        <time>2019-07-07T06:28:53.822Z</time>
      </trkpt>
      <trkpt lat="42.98458333" lon="0.22723333">
        <ele>847.0</ele>
        <time>2019-07-07T06:28:54.813Z</time>
      </trkpt>
      <trkpt lat="42.98452" lon="0.22715167">
        <ele>847.0</ele>
        <time>2019-07-07T06:28:55.836Z</time>
      </trkpt>
      <trkpt lat="42.98452" lon="0.22715167">
        <ele>847.0</ele>
        <time>2019-07-07T06:28:56.829Z</time>
      </trkpt>
      <trkpt lat="42.98444" lon="0.22711">
        <ele>848.0</ele>
        <time>2019-07-07T06:28:57.833Z</time>
      </trkpt>
      <trkpt lat="42.98439833" lon="0.22709833">
        <ele>848.0</ele>
        <time>2019-07-07T06:28:58.804Z</time>
      </trkpt>
      <trkpt lat="42.98439833" lon="0.22709833">
        <ele>848.0</ele>
        <time>2019-07-07T06:28:59.815Z</time>
      </trkpt>
      <trkpt lat="42.98431667" lon="0.22708">
        <ele>848.0</ele>
        <time>2019-07-07T06:29:00.825Z</time>
      </trkpt>
      <trkpt lat="42.98431667" lon="0.22708">
        <ele>848.0</ele>
        <time>2019-07-07T06:29:01.828Z</time>
      </trkpt>
      <trkpt lat="42.98424333" lon="0.227065">
        <ele>849.0</ele>
        <time>2019-07-07T06:29:02.833Z</time>
      </trkpt>
      <trkpt lat="42.98424333" lon="0.227065">
        <ele>849.0</ele>
        <time>2019-07-07T06:29:03.814Z</time>
      </trkpt>
      <trkpt lat="42.984175" lon="0.227045">
        <ele>849.0</ele>
        <time>2019-07-07T06:29:04.838Z</time>
      </trkpt>
      <trkpt lat="42.984175" lon="0.227045">
        <ele>849.0</ele>
        <time>2019-07-07T06:29:05.814Z</time>
      </trkpt>
      <trkpt lat="42.98413" lon="0.22702333">
        <ele>849.0</ele>
        <time>2019-07-07T06:29:06.832Z</time>
      </trkpt>
      <trkpt lat="42.98413" lon="0.22702333">
        <ele>849.0</ele>
        <time>2019-07-07T06:29:07.829Z</time>
      </trkpt>
      <trkpt lat="42.984055" lon="0.226995">
        <ele>849.0</ele>
        <time>2019-07-07T06:29:08.836Z</time>
      </trkpt>
      <trkpt lat="42.984055" lon="0.226995">
        <ele>849.0</ele>
        <time>2019-07-07T06:29:09.833Z</time>
      </trkpt>
      <trkpt lat="42.983975" lon="0.22696333">
        <ele>849.0</ele>
        <time>2019-07-07T06:29:10.827Z</time>
      </trkpt>
      <trkpt lat="42.98393667" lon="0.22695833">
        <ele>850.0</ele>
        <time>2019-07-07T06:29:11.834Z</time>
      </trkpt>
      <trkpt lat="42.98393667" lon="0.22695833">
        <ele>850.0</ele>
        <time>2019-07-07T06:29:12.813Z</time>
      </trkpt>
      <trkpt lat="42.98386833" lon="0.22693833">
        <ele>850.0</ele>
        <time>2019-07-07T06:29:13.840Z</time>
      </trkpt>
      <trkpt lat="42.98386833" lon="0.22693833">
        <ele>850.0</ele>
        <time>2019-07-07T06:29:14.830Z</time>
      </trkpt>
      <trkpt lat="42.98379833" lon="0.226925">
        <ele>850.0</ele>
        <time>2019-07-07T06:29:15.832Z</time>
      </trkpt>
      <trkpt lat="42.983765" lon="0.22691833">
        <ele>850.0</ele>
        <time>2019-07-07T06:29:16.830Z</time>
      </trkpt>
      <trkpt lat="42.983765" lon="0.22691833">
        <ele>850.0</ele>
        <time>2019-07-07T06:29:17.841Z</time>
      </trkpt>
      <trkpt lat="42.98369333" lon="0.22689833">
        <ele>850.0</ele>
        <time>2019-07-07T06:29:18.813Z</time>
      </trkpt>
      <trkpt lat="42.98369333" lon="0.22689833">
        <ele>850.0</ele>
        <time>2019-07-07T06:29:19.805Z</time>
      </trkpt>
      <trkpt lat="42.98361833" lon="0.226875">
        <ele>850.0</ele>
        <time>2019-07-07T06:29:20.805Z</time>
      </trkpt>
      <trkpt lat="42.98361833" lon="0.226875">
        <ele>850.0</ele>
        <time>2019-07-07T06:29:21.829Z</time>
      </trkpt>
      <trkpt lat="42.98354667" lon="0.22686167">
        <ele>850.0</ele>
        <time>2019-07-07T06:29:22.839Z</time>
      </trkpt>
      <trkpt lat="42.98354667" lon="0.22686167">
        <ele>850.0</ele>
        <time>2019-07-07T06:29:23.815Z</time>
      </trkpt>
      <trkpt lat="42.98347833" lon="0.22685333">
        <ele>851.0</ele>
        <time>2019-07-07T06:29:24.827Z</time>
      </trkpt>
      <trkpt lat="42.98347833" lon="0.22685333">
        <ele>851.0</ele>
        <time>2019-07-07T06:29:25.830Z</time>
      </trkpt>
      <trkpt lat="42.98340667" lon="0.22684">
        <ele>851.0</ele>
        <time>2019-07-07T06:29:26.827Z</time>
      </trkpt>
      <trkpt lat="42.98340667" lon="0.22684">
        <ele>851.0</ele>
        <time>2019-07-07T06:29:27.832Z</time>
      </trkpt>
      <trkpt lat="42.98332667" lon="0.22683333">
        <ele>852.0</ele>
        <time>2019-07-07T06:29:28.830Z</time>
      </trkpt>
      <trkpt lat="42.98329" lon="0.22683333">
        <ele>852.0</ele>
        <time>2019-07-07T06:29:29.834Z</time>
      </trkpt>
      <trkpt lat="42.98329" lon="0.22683333">
        <ele>852.0</ele>
        <time>2019-07-07T06:29:30.813Z</time>
      </trkpt>
      <trkpt lat="42.98321667" lon="0.22683333">
        <ele>853.0</ele>
        <time>2019-07-07T06:29:31.834Z</time>
      </trkpt>
      <trkpt lat="42.98321667" lon="0.22683333">
        <ele>853.0</ele>
        <time>2019-07-07T06:29:32.815Z</time>
      </trkpt>
      <trkpt lat="42.98314167" lon="0.22684">
        <ele>853.0</ele>
        <time>2019-07-07T06:29:33.827Z</time>
      </trkpt>
      <trkpt lat="42.9831" lon="0.22684333">
        <ele>854.0</ele>
        <time>2019-07-07T06:29:34.839Z</time>
      </trkpt>
      <trkpt lat="42.9831" lon="0.22684333">
        <ele>854.0</ele>
        <time>2019-07-07T06:29:35.837Z</time>
      </trkpt>
      <trkpt lat="42.98302" lon="0.22686">
        <ele>854.0</ele>
        <time>2019-07-07T06:29:36.838Z</time>
      </trkpt>
      <trkpt lat="42.98302" lon="0.22686">
        <ele>854.0</ele>
        <time>2019-07-07T06:29:37.829Z</time>
      </trkpt>
      <trkpt lat="42.982955" lon="0.22687333">
        <ele>855.0</ele>
        <time>2019-07-07T06:29:38.819Z</time>
      </trkpt>
      <trkpt lat="42.982955" lon="0.22687333">
        <ele>855.0</ele>
        <time>2019-07-07T06:29:39.829Z</time>
      </trkpt>
      <trkpt lat="42.98287667" lon="0.22689">
        <ele>855.0</ele>
        <time>2019-07-07T06:29:40.839Z</time>
      </trkpt>
      <trkpt lat="42.98287667" lon="0.22689">
        <ele>855.0</ele>
        <time>2019-07-07T06:29:41.836Z</time>
      </trkpt>
      <trkpt lat="42.98280333" lon="0.22690833">
        <ele>856.0</ele>
        <time>2019-07-07T06:29:42.827Z</time>
      </trkpt>
      <trkpt lat="42.98280333" lon="0.22690833">
        <ele>856.0</ele>
        <time>2019-07-07T06:29:43.816Z</time>
      </trkpt>
      <trkpt lat="42.982725" lon="0.22692333">
        <ele>857.0</ele>
        <time>2019-07-07T06:29:44.829Z</time>
      </trkpt>
      <trkpt lat="42.982725" lon="0.22692333">
        <ele>857.0</ele>
        <time>2019-07-07T06:29:45.815Z</time>
      </trkpt>
      <trkpt lat="42.982655" lon="0.22693">
        <ele>857.0</ele>
        <time>2019-07-07T06:29:46.829Z</time>
      </trkpt>
      <trkpt lat="42.982655" lon="0.22693">
        <ele>857.0</ele>
        <time>2019-07-07T06:29:47.819Z</time>
      </trkpt>
      <trkpt lat="42.98257333" lon="0.22693">
        <ele>858.0</ele>
        <time>2019-07-07T06:29:48.828Z</time>
      </trkpt>
      <trkpt lat="42.98257333" lon="0.22693">
        <ele>858.0</ele>
        <time>2019-07-07T06:29:49.837Z</time>
      </trkpt>
      <trkpt lat="42.98248833" lon="0.22694333">
        <ele>858.0</ele>
        <time>2019-07-07T06:29:50.802Z</time>
      </trkpt>
      <trkpt lat="42.98248833" lon="0.22694333">
        <ele>858.0</ele>
        <time>2019-07-07T06:29:51.829Z</time>
      </trkpt>
      <trkpt lat="42.98239667" lon="0.22697">
        <ele>859.0</ele>
        <time>2019-07-07T06:29:52.833Z</time>
      </trkpt>
      <trkpt lat="42.98239667" lon="0.22697">
        <ele>859.0</ele>
        <time>2019-07-07T06:29:53.833Z</time>
      </trkpt>
      <trkpt lat="42.98231167" lon="0.22699">
        <ele>860.0</ele>
        <time>2019-07-07T06:29:54.834Z</time>
      </trkpt>
      <trkpt lat="42.98231167" lon="0.22699">
        <ele>860.0</ele>
        <time>2019-07-07T06:29:55.808Z</time>
      </trkpt>
      <trkpt lat="42.98221833" lon="0.227025">
        <ele>861.0</ele>
        <time>2019-07-07T06:29:56.829Z</time>
      </trkpt>
      <trkpt lat="42.98221833" lon="0.227025">
        <ele>861.0</ele>
        <time>2019-07-07T06:29:57.815Z</time>
      </trkpt>
      <trkpt lat="42.98213833" lon="0.22705833">
        <ele>862.0</ele>
        <time>2019-07-07T06:29:58.830Z</time>
      </trkpt>
      <trkpt lat="42.98213833" lon="0.22705833">
        <ele>862.0</ele>
        <time>2019-07-07T06:29:59.839Z</time>
      </trkpt>
      <trkpt lat="42.98204833" lon="0.22708333">
        <ele>862.0</ele>
        <time>2019-07-07T06:30:00.809Z</time>
      </trkpt>
      <trkpt lat="42.98204833" lon="0.22708333">
        <ele>862.0</ele>
        <time>2019-07-07T06:30:01.813Z</time>
      </trkpt>
      <trkpt lat="42.98195667" lon="0.22709833">
        <ele>863.0</ele>
        <time>2019-07-07T06:30:02.833Z</time>
      </trkpt>
      <trkpt lat="42.98195667" lon="0.22709833">
        <ele>863.0</ele>
        <time>2019-07-07T06:30:03.829Z</time>
      </trkpt>
      <trkpt lat="42.981865" lon="0.22710333">
        <ele>864.0</ele>
        <time>2019-07-07T06:30:04.817Z</time>
      </trkpt>
      <trkpt lat="42.981865" lon="0.22710333">
        <ele>864.0</ele>
        <time>2019-07-07T06:30:05.834Z</time>
      </trkpt>
      <trkpt lat="42.98177" lon="0.22710333">
        <ele>864.0</ele>
        <time>2019-07-07T06:30:06.811Z</time>
      </trkpt>
      <trkpt lat="42.98177" lon="0.22710333">
        <ele>864.0</ele>
        <time>2019-07-07T06:30:07.815Z</time>
      </trkpt>
      <trkpt lat="42.98168333" lon="0.2271">
        <ele>864.0</ele>
        <time>2019-07-07T06:30:08.827Z</time>
      </trkpt>
      <trkpt lat="42.98168333" lon="0.2271">
        <ele>864.0</ele>
        <time>2019-07-07T06:30:09.813Z</time>
      </trkpt>
      <trkpt lat="42.98159" lon="0.22709833">
        <ele>864.0</ele>
        <time>2019-07-07T06:30:10.833Z</time>
      </trkpt>
      <trkpt lat="42.98159" lon="0.22709833">
        <ele>864.0</ele>
        <time>2019-07-07T06:30:11.805Z</time>
      </trkpt>
      <trkpt lat="42.981495" lon="0.22710333">
        <ele>865.0</ele>
        <time>2019-07-07T06:30:12.811Z</time>
      </trkpt>
      <trkpt lat="42.981495" lon="0.22710333">
        <ele>865.0</ele>
        <time>2019-07-07T06:30:13.816Z</time>
      </trkpt>
      <trkpt lat="42.981395" lon="0.22712">
        <ele>865.0</ele>
        <time>2019-07-07T06:30:14.827Z</time>
      </trkpt>
      <trkpt lat="42.981395" lon="0.22712">
        <ele>865.0</ele>
        <time>2019-07-07T06:30:15.817Z</time>
      </trkpt>
      <trkpt lat="42.981295" lon="0.227135">
        <ele>865.0</ele>
        <time>2019-07-07T06:30:16.825Z</time>
      </trkpt>
      <trkpt lat="42.981295" lon="0.227135">
        <ele>865.0</ele>
        <time>2019-07-07T06:30:17.835Z</time>
      </trkpt>
      <trkpt lat="42.98119833" lon="0.22715333">
        <ele>866.0</ele>
        <time>2019-07-07T06:30:18.812Z</time>
      </trkpt>
      <trkpt lat="42.98119833" lon="0.22715333">
        <ele>866.0</ele>
        <time>2019-07-07T06:30:19.815Z</time>
      </trkpt>
      <trkpt lat="42.98110833" lon="0.22717">
        <ele>866.0</ele>
        <time>2019-07-07T06:30:20.833Z</time>
      </trkpt>
      <trkpt lat="42.98110833" lon="0.22717">
        <ele>866.0</ele>
        <time>2019-07-07T06:30:21.829Z</time>
      </trkpt>
      <trkpt lat="42.98101333" lon="0.22718667">
        <ele>867.0</ele>
        <time>2019-07-07T06:30:22.833Z</time>
      </trkpt>
      <trkpt lat="42.98101333" lon="0.22718667">
        <ele>867.0</ele>
        <time>2019-07-07T06:30:23.838Z</time>
      </trkpt>
      <trkpt lat="42.98092333" lon="0.227205">
        <ele>867.0</ele>
        <time>2019-07-07T06:30:24.808Z</time>
      </trkpt>
      <trkpt lat="42.98092333" lon="0.227205">
        <ele>867.0</ele>
        <time>2019-07-07T06:30:25.816Z</time>
      </trkpt>
      <trkpt lat="42.98083333" lon="0.227225">
        <ele>868.0</ele>
        <time>2019-07-07T06:30:26.830Z</time>
      </trkpt>
      <trkpt lat="42.98078667" lon="0.22723333">
        <ele>868.0</ele>
        <time>2019-07-07T06:30:27.827Z</time>
      </trkpt>
      <trkpt lat="42.98078667" lon="0.22723333">
        <ele>868.0</ele>
        <time>2019-07-07T06:30:28.816Z</time>
      </trkpt>
      <trkpt lat="42.98069167" lon="0.22725667">
        <ele>868.0</ele>
        <time>2019-07-07T06:30:29.829Z</time>
      </trkpt>
      <trkpt lat="42.98069167" lon="0.22725667">
        <ele>868.0</ele>
        <time>2019-07-07T06:30:30.829Z</time>
      </trkpt>
      <trkpt lat="42.98060333" lon="0.22729667">
        <ele>869.0</ele>
        <time>2019-07-07T06:30:31.806Z</time>
      </trkpt>
      <trkpt lat="42.98060333" lon="0.22729667">
        <ele>869.0</ele>
        <time>2019-07-07T06:30:32.823Z</time>
      </trkpt>
      <trkpt lat="42.98051167" lon="0.227345">
        <ele>869.0</ele>
        <time>2019-07-07T06:30:33.834Z</time>
      </trkpt>
      <trkpt lat="42.98051167" lon="0.227345">
        <ele>869.0</ele>
        <time>2019-07-07T06:30:34.817Z</time>
      </trkpt>
      <trkpt lat="42.98041833" lon="0.22739667">
        <ele>869.0</ele>
        <time>2019-07-07T06:30:35.835Z</time>
      </trkpt>
      <trkpt lat="42.98037167" lon="0.22742167">
        <ele>869.0</ele>
        <time>2019-07-07T06:30:36.822Z</time>
      </trkpt>
      <trkpt lat="42.98037167" lon="0.22742167">
        <ele>869.0</ele>
        <time>2019-07-07T06:30:37.829Z</time>
      </trkpt>
      <trkpt lat="42.98027833" lon="0.22746833">
        <ele>869.0</ele>
        <time>2019-07-07T06:30:38.833Z</time>
      </trkpt>
      <trkpt lat="42.98027833" lon="0.22746833">
        <ele>869.0</ele>
        <time>2019-07-07T06:30:39.816Z</time>
      </trkpt>
      <trkpt lat="42.98019" lon="0.22750833">
        <ele>870.0</ele>
        <time>2019-07-07T06:30:40.830Z</time>
      </trkpt>
      <trkpt lat="42.98019" lon="0.22750833">
        <ele>870.0</ele>
        <time>2019-07-07T06:30:41.829Z</time>
      </trkpt>
      <trkpt lat="42.98010333" lon="0.22753333">
        <ele>870.0</ele>
        <time>2019-07-07T06:30:42.829Z</time>
      </trkpt>
      <trkpt lat="42.98010333" lon="0.22753333">
        <ele>870.0</ele>
        <time>2019-07-07T06:30:43.839Z</time>
      </trkpt>
      <trkpt lat="42.98001833" lon="0.22755667">
        <ele>870.0</ele>
        <time>2019-07-07T06:30:44.804Z</time>
      </trkpt>
      <trkpt lat="42.98001833" lon="0.22755667">
        <ele>870.0</ele>
        <time>2019-07-07T06:30:45.816Z</time>
      </trkpt>
      <trkpt lat="42.97993667" lon="0.22760167">
        <ele>871.0</ele>
        <time>2019-07-07T06:30:46.831Z</time>
      </trkpt>
      <trkpt lat="42.97993667" lon="0.22760167">
        <ele>871.0</ele>
        <time>2019-07-07T06:30:47.816Z</time>
      </trkpt>
      <trkpt lat="42.979855" lon="0.22765">
        <ele>871.0</ele>
        <time>2019-07-07T06:30:48.823Z</time>
      </trkpt>
      <trkpt lat="42.97981167" lon="0.22767667">
        <ele>871.0</ele>
        <time>2019-07-07T06:30:49.836Z</time>
      </trkpt>
      <trkpt lat="42.97981167" lon="0.22767667">
        <ele>871.0</ele>
        <time>2019-07-07T06:30:50.813Z</time>
      </trkpt>
      <trkpt lat="42.97972333" lon="0.22773667">
        <ele>872.0</ele>
        <time>2019-07-07T06:30:51.817Z</time>
      </trkpt>
      <trkpt lat="42.97968" lon="0.22776833">
        <ele>872.0</ele>
        <time>2019-07-07T06:30:52.820Z</time>
      </trkpt>
      <trkpt lat="42.97968" lon="0.22776833">
        <ele>872.0</ele>
        <time>2019-07-07T06:30:53.824Z</time>
      </trkpt>
      <trkpt lat="42.97959" lon="0.22783">
        <ele>872.0</ele>
        <time>2019-07-07T06:30:54.832Z</time>
      </trkpt>
      <trkpt lat="42.97959" lon="0.22783">
        <ele>872.0</ele>
        <time>2019-07-07T06:30:55.814Z</time>
      </trkpt>
      <trkpt lat="42.97949667" lon="0.22788">
        <ele>872.0</ele>
        <time>2019-07-07T06:30:56.808Z</time>
      </trkpt>
      <trkpt lat="42.97944833" lon="0.22790167">
        <ele>872.0</ele>
        <time>2019-07-07T06:30:57.820Z</time>
      </trkpt>
      <trkpt lat="42.97940167" lon="0.22791667">
        <ele>872.0</ele>
        <time>2019-07-07T06:30:58.812Z</time>
      </trkpt>
      <trkpt lat="42.97940167" lon="0.22791667">
        <ele>872.0</ele>
        <time>2019-07-07T06:30:59.816Z</time>
      </trkpt>
      <trkpt lat="42.97929333" lon="0.22792833">
        <ele>872.0</ele>
        <time>2019-07-07T06:31:00.832Z</time>
      </trkpt>
      <trkpt lat="42.97929333" lon="0.22792833">
        <ele>872.0</ele>
        <time>2019-07-07T06:31:01.837Z</time>
      </trkpt>
      <trkpt lat="42.97918667" lon="0.22794667">
        <ele>873.0</ele>
        <time>2019-07-07T06:31:02.825Z</time>
      </trkpt>
      <trkpt lat="42.97918667" lon="0.22794667">
        <ele>873.0</ele>
        <time>2019-07-07T06:31:03.816Z</time>
      </trkpt>
      <trkpt lat="42.97907833" lon="0.22796833">
        <ele>873.0</ele>
        <time>2019-07-07T06:31:04.833Z</time>
      </trkpt>
      <trkpt lat="42.97907833" lon="0.22796833">
        <ele>873.0</ele>
        <time>2019-07-07T06:31:05.816Z</time>
      </trkpt>
      <trkpt lat="42.97896833" lon="0.22799667">
        <ele>873.0</ele>
        <time>2019-07-07T06:31:06.838Z</time>
      </trkpt>
      <trkpt lat="42.97896833" lon="0.22799667">
        <ele>873.0</ele>
        <time>2019-07-07T06:31:07.831Z</time>
      </trkpt>
      <trkpt lat="42.97886167" lon="0.228025">
        <ele>873.0</ele>
        <time>2019-07-07T06:31:08.830Z</time>
      </trkpt>
      <trkpt lat="42.97880833" lon="0.22804333">
        <ele>873.0</ele>
        <time>2019-07-07T06:31:09.819Z</time>
      </trkpt>
      <trkpt lat="42.97880833" lon="0.22804333">
        <ele>873.0</ele>
        <time>2019-07-07T06:31:10.824Z</time>
      </trkpt>
      <trkpt lat="42.97871" lon="0.22808167">
        <ele>873.0</ele>
        <time>2019-07-07T06:31:11.834Z</time>
      </trkpt>
      <trkpt lat="42.97866333" lon="0.2281">
        <ele>873.0</ele>
        <time>2019-07-07T06:31:12.832Z</time>
      </trkpt>
      <trkpt lat="42.97866333" lon="0.2281">
        <ele>873.0</ele>
        <time>2019-07-07T06:31:13.814Z</time>
      </trkpt>
      <trkpt lat="42.978575" lon="0.22811333">
        <ele>873.0</ele>
        <time>2019-07-07T06:31:14.833Z</time>
      </trkpt>
      <trkpt lat="42.978575" lon="0.22811333">
        <ele>873.0</ele>
        <time>2019-07-07T06:31:15.829Z</time>
      </trkpt>
      <trkpt lat="42.97847667" lon="0.22811667">
        <ele>874.0</ele>
        <time>2019-07-07T06:31:16.833Z</time>
      </trkpt>
      <trkpt lat="42.97847667" lon="0.22811667">
        <ele>874.0</ele>
        <time>2019-07-07T06:31:17.814Z</time>
      </trkpt>
      <trkpt lat="42.97838667" lon="0.22812333">
        <ele>874.0</ele>
        <time>2019-07-07T06:31:18.835Z</time>
      </trkpt>
      <trkpt lat="42.97838667" lon="0.22812333">
        <ele>874.0</ele>
        <time>2019-07-07T06:31:19.816Z</time>
      </trkpt>
      <trkpt lat="42.97830333" lon="0.228135">
        <ele>874.0</ele>
        <time>2019-07-07T06:31:20.829Z</time>
      </trkpt>
      <trkpt lat="42.97826333" lon="0.22814167">
        <ele>874.0</ele>
        <time>2019-07-07T06:31:21.827Z</time>
      </trkpt>
      <trkpt lat="42.97826333" lon="0.22814167">
        <ele>874.0</ele>
        <time>2019-07-07T06:31:22.814Z</time>
      </trkpt>
      <trkpt lat="42.97819167" lon="0.22815667">
        <ele>875.0</ele>
        <time>2019-07-07T06:31:23.820Z</time>
      </trkpt>
      <trkpt lat="42.97819167" lon="0.22815667">
        <ele>875.0</ele>
        <time>2019-07-07T06:31:24.826Z</time>
      </trkpt>
      <trkpt lat="42.97811667" lon="0.22817333">
        <ele>875.0</ele>
        <time>2019-07-07T06:31:25.822Z</time>
      </trkpt>
      <trkpt lat="42.97811667" lon="0.22817333">
        <ele>875.0</ele>
        <time>2019-07-07T06:31:26.829Z</time>
      </trkpt>
      <trkpt lat="42.978045" lon="0.2282">
        <ele>875.0</ele>
        <time>2019-07-07T06:31:27.833Z</time>
      </trkpt>
      <trkpt lat="42.97800833" lon="0.228215">
        <ele>876.0</ele>
        <time>2019-07-07T06:31:28.839Z</time>
      </trkpt>
      <trkpt lat="42.97800833" lon="0.228215">
        <ele>876.0</ele>
        <time>2019-07-07T06:31:29.807Z</time>
      </trkpt>
      <trkpt lat="42.97794" lon="0.228245">
        <ele>876.0</ele>
        <time>2019-07-07T06:31:30.805Z</time>
      </trkpt>
      <trkpt lat="42.97794" lon="0.228245">
        <ele>876.0</ele>
        <time>2019-07-07T06:31:31.830Z</time>
      </trkpt>
      <trkpt lat="42.97787" lon="0.228275">
        <ele>876.0</ele>
        <time>2019-07-07T06:31:32.829Z</time>
      </trkpt>
      <trkpt lat="42.97787" lon="0.228275">
        <ele>876.0</ele>
        <time>2019-07-07T06:31:33.834Z</time>
      </trkpt>
      <trkpt lat="42.977795" lon="0.2283">
        <ele>877.0</ele>
        <time>2019-07-07T06:31:34.833Z</time>
      </trkpt>
      <trkpt lat="42.977795" lon="0.2283">
        <ele>877.0</ele>
        <time>2019-07-07T06:31:35.830Z</time>
      </trkpt>
      <trkpt lat="42.97772667" lon="0.22833">
        <ele>878.0</ele>
        <time>2019-07-07T06:31:36.836Z</time>
      </trkpt>
      <trkpt lat="42.97769" lon="0.22834833">
        <ele>878.0</ele>
        <time>2019-07-07T06:31:37.825Z</time>
      </trkpt>
      <trkpt lat="42.97765333" lon="0.22836667">
        <ele>878.0</ele>
        <time>2019-07-07T06:31:38.804Z</time>
      </trkpt>
      <trkpt lat="42.97765333" lon="0.22836667">
        <ele>878.0</ele>
        <time>2019-07-07T06:31:39.824Z</time>
      </trkpt>
      <trkpt lat="42.97758833" lon="0.22839167">
        <ele>879.0</ele>
        <time>2019-07-07T06:31:40.832Z</time>
      </trkpt>
      <trkpt lat="42.97758833" lon="0.22839167">
        <ele>879.0</ele>
        <time>2019-07-07T06:31:41.826Z</time>
      </trkpt>
      <trkpt lat="42.97751667" lon="0.228405">
        <ele>880.0</ele>
        <time>2019-07-07T06:31:42.828Z</time>
      </trkpt>
      <trkpt lat="42.97751667" lon="0.228405">
        <ele>880.0</ele>
        <time>2019-07-07T06:31:43.814Z</time>
      </trkpt>
      <trkpt lat="42.97744833" lon="0.22841">
        <ele>880.0</ele>
        <time>2019-07-07T06:31:44.806Z</time>
      </trkpt>
      <trkpt lat="42.97741667" lon="0.22841167">
        <ele>880.0</ele>
        <time>2019-07-07T06:31:45.835Z</time>
      </trkpt>
      <trkpt lat="42.97741667" lon="0.22841167">
        <ele>880.0</ele>
        <time>2019-07-07T06:31:46.832Z</time>
      </trkpt>
      <trkpt lat="42.97735667" lon="0.228405">
        <ele>881.0</ele>
        <time>2019-07-07T06:31:47.825Z</time>
      </trkpt>
      <trkpt lat="42.97735667" lon="0.228405">
        <ele>881.0</ele>
        <time>2019-07-07T06:31:48.818Z</time>
      </trkpt>
      <trkpt lat="42.97729833" lon="0.2284">
        <ele>881.0</ele>
        <time>2019-07-07T06:31:49.838Z</time>
      </trkpt>
      <trkpt lat="42.97729833" lon="0.2284">
        <ele>881.0</ele>
        <time>2019-07-07T06:31:50.817Z</time>
      </trkpt>
      <trkpt lat="42.97723" lon="0.22839667">
        <ele>882.0</ele>
        <time>2019-07-07T06:31:51.825Z</time>
      </trkpt>
      <trkpt lat="42.97719667" lon="0.228395">
        <ele>882.0</ele>
        <time>2019-07-07T06:31:52.833Z</time>
      </trkpt>
      <trkpt lat="42.97719667" lon="0.228395">
        <ele>882.0</ele>
        <time>2019-07-07T06:31:53.825Z</time>
      </trkpt>
      <trkpt lat="42.97713667" lon="0.22838833">
        <ele>883.0</ele>
        <time>2019-07-07T06:31:54.840Z</time>
      </trkpt>
      <trkpt lat="42.97713667" lon="0.22838833">
        <ele>883.0</ele>
        <time>2019-07-07T06:31:55.817Z</time>
      </trkpt>
      <trkpt lat="42.97707833" lon="0.22838833">
        <ele>883.0</ele>
        <time>2019-07-07T06:31:56.841Z</time>
      </trkpt>
      <trkpt lat="42.97704833" lon="0.22838667">
        <ele>884.0</ele>
        <time>2019-07-07T06:31:57.833Z</time>
      </trkpt>
      <trkpt lat="42.97701833" lon="0.228385">
        <ele>884.0</ele>
        <time>2019-07-07T06:31:58.831Z</time>
      </trkpt>
      <trkpt lat="42.97701833" lon="0.228385">
        <ele>884.0</ele>
        <time>2019-07-07T06:31:59.815Z</time>
      </trkpt>
      <trkpt lat="42.97696167" lon="0.22838833">
        <ele>884.0</ele>
        <time>2019-07-07T06:32:00.831Z</time>
      </trkpt>
      <trkpt lat="42.97696167" lon="0.22838833">
        <ele>884.0</ele>
        <time>2019-07-07T06:32:01.829Z</time>
      </trkpt>
      <trkpt lat="42.97690333" lon="0.22839167">
        <ele>885.0</ele>
        <time>2019-07-07T06:32:02.843Z</time>
      </trkpt>
      <trkpt lat="42.97690333" lon="0.22839167">
        <ele>885.0</ele>
        <time>2019-07-07T06:32:03.814Z</time>
      </trkpt>
      <trkpt lat="42.97684833" lon="0.22838667">
        <ele>885.0</ele>
        <time>2019-07-07T06:32:04.810Z</time>
      </trkpt>
      <trkpt lat="42.97682167" lon="0.22838167">
        <ele>885.0</ele>
        <time>2019-07-07T06:32:05.830Z</time>
      </trkpt>
      <trkpt lat="42.976795" lon="0.228375">
        <ele>885.0</ele>
        <time>2019-07-07T06:32:06.837Z</time>
      </trkpt>
      <trkpt lat="42.976795" lon="0.228375">
        <ele>885.0</ele>
        <time>2019-07-07T06:32:07.817Z</time>
      </trkpt>
      <trkpt lat="42.97673167" lon="0.22835167">
        <ele>886.0</ele>
        <time>2019-07-07T06:32:08.837Z</time>
      </trkpt>
      <trkpt lat="42.97673167" lon="0.22835167">
        <ele>886.0</ele>
        <time>2019-07-07T06:32:09.819Z</time>
      </trkpt>
      <trkpt lat="42.97667" lon="0.22834333">
        <ele>886.0</ele>
        <time>2019-07-07T06:32:10.842Z</time>
      </trkpt>
      <trkpt lat="42.97667" lon="0.22834333">
        <ele>886.0</ele>
        <time>2019-07-07T06:32:11.828Z</time>
      </trkpt>
      <trkpt lat="42.97661167" lon="0.22831667">
        <ele>886.0</ele>
        <time>2019-07-07T06:32:12.832Z</time>
      </trkpt>
      <trkpt lat="42.97661167" lon="0.22831667">
        <ele>886.0</ele>
        <time>2019-07-07T06:32:13.825Z</time>
      </trkpt>
      <trkpt lat="42.97655167" lon="0.22830333">
        <ele>887.0</ele>
        <time>2019-07-07T06:32:14.833Z</time>
      </trkpt>
      <trkpt lat="42.97655167" lon="0.22830333">
        <ele>887.0</ele>
        <time>2019-07-07T06:32:15.814Z</time>
      </trkpt>
      <trkpt lat="42.97648333" lon="0.22828">
        <ele>887.0</ele>
        <time>2019-07-07T06:32:16.847Z</time>
      </trkpt>
      <trkpt lat="42.97648333" lon="0.22828">
        <ele>887.0</ele>
        <time>2019-07-07T06:32:17.835Z</time>
      </trkpt>
      <trkpt lat="42.97641833" lon="0.22826833">
        <ele>888.0</ele>
        <time>2019-07-07T06:32:18.833Z</time>
      </trkpt>
      <trkpt lat="42.97638667" lon="0.22826667">
        <ele>888.0</ele>
        <time>2019-07-07T06:32:19.833Z</time>
      </trkpt>
      <trkpt lat="42.97638667" lon="0.22826667">
        <ele>888.0</ele>
        <time>2019-07-07T06:32:20.814Z</time>
      </trkpt>
      <trkpt lat="42.97632" lon="0.22825">
        <ele>889.0</ele>
        <time>2019-07-07T06:32:21.805Z</time>
      </trkpt>
      <trkpt lat="42.97629" lon="0.228245">
        <ele>889.0</ele>
        <time>2019-07-07T06:32:22.830Z</time>
      </trkpt>
      <trkpt lat="42.97629" lon="0.228245">
        <ele>889.0</ele>
        <time>2019-07-07T06:32:23.815Z</time>
      </trkpt>
      <trkpt lat="42.97622" lon="0.22823833">
        <ele>890.0</ele>
        <time>2019-07-07T06:32:24.833Z</time>
      </trkpt>
      <trkpt lat="42.97622" lon="0.22823833">
        <ele>890.0</ele>
        <time>2019-07-07T06:32:25.815Z</time>
      </trkpt>
      <trkpt lat="42.976145" lon="0.22823">
        <ele>890.0</ele>
        <time>2019-07-07T06:32:26.827Z</time>
      </trkpt>
      <trkpt lat="42.976145" lon="0.22823">
        <ele>890.0</ele>
        <time>2019-07-07T06:32:27.814Z</time>
      </trkpt>
      <trkpt lat="42.97606333" lon="0.22823">
        <ele>891.0</ele>
        <time>2019-07-07T06:32:28.837Z</time>
      </trkpt>
      <trkpt lat="42.97606333" lon="0.22823">
        <ele>891.0</ele>
        <time>2019-07-07T06:32:29.816Z</time>
      </trkpt>
      <trkpt lat="42.97597333" lon="0.228225">
        <ele>891.0</ele>
        <time>2019-07-07T06:32:30.832Z</time>
      </trkpt>
      <trkpt lat="42.97597333" lon="0.228225">
        <ele>891.0</ele>
        <time>2019-07-07T06:32:31.829Z</time>
      </trkpt>
      <trkpt lat="42.97587667" lon="0.22823167">
        <ele>892.0</ele>
        <time>2019-07-07T06:32:32.833Z</time>
      </trkpt>
      <trkpt lat="42.97582667" lon="0.22824333">
        <ele>892.0</ele>
        <time>2019-07-07T06:32:33.843Z</time>
      </trkpt>
      <trkpt lat="42.97582667" lon="0.22824333">
        <ele>892.0</ele>
        <time>2019-07-07T06:32:34.816Z</time>
      </trkpt>
      <trkpt lat="42.97572667" lon="0.228275">
        <ele>892.0</ele>
        <time>2019-07-07T06:32:35.837Z</time>
      </trkpt>
      <trkpt lat="42.97567667" lon="0.228295">
        <ele>892.0</ele>
        <time>2019-07-07T06:32:36.833Z</time>
      </trkpt>
      <trkpt lat="42.97567667" lon="0.228295">
        <ele>892.0</ele>
        <time>2019-07-07T06:32:37.815Z</time>
      </trkpt>
      <trkpt lat="42.97556833" lon="0.22834">
        <ele>892.0</ele>
        <time>2019-07-07T06:32:38.823Z</time>
      </trkpt>
      <trkpt lat="42.97556833" lon="0.22834">
        <ele>892.0</ele>
        <time>2019-07-07T06:32:39.801Z</time>
      </trkpt>
      <trkpt lat="42.97546167" lon="0.22838667">
        <ele>893.0</ele>
        <time>2019-07-07T06:32:40.813Z</time>
      </trkpt>
      <trkpt lat="42.97546167" lon="0.22838667">
        <ele>893.0</ele>
        <time>2019-07-07T06:32:41.829Z</time>
      </trkpt>
      <trkpt lat="42.97535833" lon="0.22844167">
        <ele>893.0</ele>
        <time>2019-07-07T06:32:42.833Z</time>
      </trkpt>
      <trkpt lat="42.97535833" lon="0.22844167">
        <ele>893.0</ele>
        <time>2019-07-07T06:32:43.801Z</time>
      </trkpt>
      <trkpt lat="42.975255" lon="0.22850167">
        <ele>894.0</ele>
        <time>2019-07-07T06:32:44.806Z</time>
      </trkpt>
      <trkpt lat="42.97520667" lon="0.228535">
        <ele>894.0</ele>
        <time>2019-07-07T06:32:45.844Z</time>
      </trkpt>
      <trkpt lat="42.97520667" lon="0.228535">
        <ele>894.0</ele>
        <time>2019-07-07T06:32:46.817Z</time>
      </trkpt>
      <trkpt lat="42.97511167" lon="0.22860833">
        <ele>895.0</ele>
        <time>2019-07-07T06:32:47.822Z</time>
      </trkpt>
      <trkpt lat="42.975065" lon="0.22864333">
        <ele>895.0</ele>
        <time>2019-07-07T06:32:48.844Z</time>
      </trkpt>
      <trkpt lat="42.975065" lon="0.22864333">
        <ele>895.0</ele>
        <time>2019-07-07T06:32:49.832Z</time>
      </trkpt>
      <trkpt lat="42.97497833" lon="0.22871667">
        <ele>895.0</ele>
        <time>2019-07-07T06:32:50.831Z</time>
      </trkpt>
      <trkpt lat="42.974935" lon="0.22875667">
        <ele>895.0</ele>
        <time>2019-07-07T06:32:51.837Z</time>
      </trkpt>
      <trkpt lat="42.974935" lon="0.22875667">
        <ele>895.0</ele>
        <time>2019-07-07T06:32:52.817Z</time>
      </trkpt>
      <trkpt lat="42.97484833" lon="0.22882833">
        <ele>894.0</ele>
        <time>2019-07-07T06:32:53.837Z</time>
      </trkpt>
      <trkpt lat="42.974805" lon="0.22886167">
        <ele>895.0</ele>
        <time>2019-07-07T06:32:54.833Z</time>
      </trkpt>
      <trkpt lat="42.974805" lon="0.22886167">
        <ele>895.0</ele>
        <time>2019-07-07T06:32:55.816Z</time>
      </trkpt>
      <trkpt lat="42.974725" lon="0.22893833">
        <ele>895.0</ele>
        <time>2019-07-07T06:32:56.820Z</time>
      </trkpt>
      <trkpt lat="42.974725" lon="0.22893833">
        <ele>895.0</ele>
        <time>2019-07-07T06:32:57.836Z</time>
      </trkpt>
      <trkpt lat="42.974635" lon="0.229">
        <ele>896.0</ele>
        <time>2019-07-07T06:32:58.830Z</time>
      </trkpt>
      <trkpt lat="42.974635" lon="0.229">
        <ele>896.0</ele>
        <time>2019-07-07T06:32:59.816Z</time>
      </trkpt>
      <trkpt lat="42.97454833" lon="0.22906333">
        <ele>897.0</ele>
        <time>2019-07-07T06:33:00.835Z</time>
      </trkpt>
      <trkpt lat="42.97454833" lon="0.22906333">
        <ele>897.0</ele>
        <time>2019-07-07T06:33:01.829Z</time>
      </trkpt>
      <trkpt lat="42.97445833" lon="0.22913">
        <ele>897.0</ele>
        <time>2019-07-07T06:33:02.843Z</time>
      </trkpt>
      <trkpt lat="42.97445833" lon="0.22913">
        <ele>897.0</ele>
        <time>2019-07-07T06:33:03.816Z</time>
      </trkpt>
      <trkpt lat="42.97437167" lon="0.22919667">
        <ele>898.0</ele>
        <time>2019-07-07T06:33:04.815Z</time>
      </trkpt>
      <trkpt lat="42.97437167" lon="0.22919667">
        <ele>898.0</ele>
        <time>2019-07-07T06:33:05.826Z</time>
      </trkpt>
      <trkpt lat="42.97428667" lon="0.22925833">
        <ele>899.0</ele>
        <time>2019-07-07T06:33:06.839Z</time>
      </trkpt>
      <trkpt lat="42.97428667" lon="0.22925833">
        <ele>899.0</ele>
        <time>2019-07-07T06:33:07.840Z</time>
      </trkpt>
      <trkpt lat="42.97421" lon="0.229315">
        <ele>900.0</ele>
        <time>2019-07-07T06:33:08.807Z</time>
      </trkpt>
      <trkpt lat="42.97421" lon="0.229315">
        <ele>900.0</ele>
        <time>2019-07-07T06:33:09.825Z</time>
      </trkpt>
      <trkpt lat="42.97413833" lon="0.22936833">
        <ele>901.0</ele>
        <time>2019-07-07T06:33:10.834Z</time>
      </trkpt>
      <trkpt lat="42.97413833" lon="0.22936833">
        <ele>901.0</ele>
        <time>2019-07-07T06:33:11.825Z</time>
      </trkpt>
      <trkpt lat="42.97407" lon="0.22942333">
        <ele>902.0</ele>
        <time>2019-07-07T06:33:12.830Z</time>
      </trkpt>
      <trkpt lat="42.97407" lon="0.22942333">
        <ele>902.0</ele>
        <time>2019-07-07T06:33:13.818Z</time>
      </trkpt>
      <trkpt lat="42.97400333" lon="0.22948">
        <ele>903.0</ele>
        <time>2019-07-07T06:33:14.836Z</time>
      </trkpt>
      <trkpt lat="42.97400333" lon="0.22948">
        <ele>903.0</ele>
        <time>2019-07-07T06:33:15.816Z</time>
      </trkpt>
      <trkpt lat="42.97393333" lon="0.22952833">
        <ele>904.0</ele>
        <time>2019-07-07T06:33:16.832Z</time>
      </trkpt>
      <trkpt lat="42.97393333" lon="0.22952833">
        <ele>904.0</ele>
        <time>2019-07-07T06:33:17.827Z</time>
      </trkpt>
      <trkpt lat="42.97387333" lon="0.22958167">
        <ele>904.0</ele>
        <time>2019-07-07T06:33:18.814Z</time>
      </trkpt>
      <trkpt lat="42.97387333" lon="0.22958167">
        <ele>904.0</ele>
        <time>2019-07-07T06:33:19.825Z</time>
      </trkpt>
      <trkpt lat="42.97380667" lon="0.229635">
        <ele>905.0</ele>
        <time>2019-07-07T06:33:20.833Z</time>
      </trkpt>
      <trkpt lat="42.97377167" lon="0.22965833">
        <ele>906.0</ele>
        <time>2019-07-07T06:33:21.824Z</time>
      </trkpt>
      <trkpt lat="42.97377167" lon="0.22965833">
        <ele>906.0</ele>
        <time>2019-07-07T06:33:22.816Z</time>
      </trkpt>
      <trkpt lat="42.97370333" lon="0.22970833">
        <ele>907.0</ele>
        <time>2019-07-07T06:33:23.844Z</time>
      </trkpt>
      <trkpt lat="42.97367" lon="0.22973167">
        <ele>907.0</ele>
        <time>2019-07-07T06:33:24.818Z</time>
      </trkpt>
      <trkpt lat="42.97367" lon="0.22973167">
        <ele>907.0</ele>
        <time>2019-07-07T06:33:25.824Z</time>
      </trkpt>
      <trkpt lat="42.97360167" lon="0.229775">
        <ele>908.0</ele>
        <time>2019-07-07T06:33:26.831Z</time>
      </trkpt>
      <trkpt lat="42.97360167" lon="0.229775">
        <ele>908.0</ele>
        <time>2019-07-07T06:33:27.837Z</time>
      </trkpt>
      <trkpt lat="42.973535" lon="0.22982167">
        <ele>909.0</ele>
        <time>2019-07-07T06:33:28.814Z</time>
      </trkpt>
      <trkpt lat="42.97350167" lon="0.229845">
        <ele>910.0</ele>
        <time>2019-07-07T06:33:29.836Z</time>
      </trkpt>
      <trkpt lat="42.97346833" lon="0.22986833">
        <ele>910.0</ele>
        <time>2019-07-07T06:33:30.830Z</time>
      </trkpt>
      <trkpt lat="42.97346833" lon="0.22986833">
        <ele>910.0</ele>
        <time>2019-07-07T06:33:31.828Z</time>
      </trkpt>
      <trkpt lat="42.9734" lon="0.22991333">
        <ele>910.0</ele>
        <time>2019-07-07T06:33:32.837Z</time>
      </trkpt>
      <trkpt lat="42.9734" lon="0.22991333">
        <ele>910.0</ele>
        <time>2019-07-07T06:33:33.818Z</time>
      </trkpt>
      <trkpt lat="42.97332833" lon="0.22996">
        <ele>911.0</ele>
        <time>2019-07-07T06:33:34.802Z</time>
      </trkpt>
      <trkpt lat="42.97332833" lon="0.22996">
        <ele>911.0</ele>
        <time>2019-07-07T06:33:35.827Z</time>
      </trkpt>
      <trkpt lat="42.97325" lon="0.23">
        <ele>911.0</ele>
        <time>2019-07-07T06:33:36.837Z</time>
      </trkpt>
      <trkpt lat="42.97325" lon="0.23">
        <ele>911.0</ele>
        <time>2019-07-07T06:33:37.817Z</time>
      </trkpt>
      <trkpt lat="42.97317167" lon="0.23002833">
        <ele>912.0</ele>
        <time>2019-07-07T06:33:38.833Z</time>
      </trkpt>
      <trkpt lat="42.97313" lon="0.23003833">
        <ele>913.0</ele>
        <time>2019-07-07T06:33:39.830Z</time>
      </trkpt>
      <trkpt lat="42.97309" lon="0.23004667">
        <ele>913.0</ele>
        <time>2019-07-07T06:33:40.827Z</time>
      </trkpt>
      <trkpt lat="42.97309" lon="0.23004667">
        <ele>913.0</ele>
        <time>2019-07-07T06:33:41.833Z</time>
      </trkpt>
      <trkpt lat="42.97301" lon="0.23005833">
        <ele>913.0</ele>
        <time>2019-07-07T06:33:42.833Z</time>
      </trkpt>
      <trkpt lat="42.97301" lon="0.23005833">
        <ele>913.0</ele>
        <time>2019-07-07T06:33:43.818Z</time>
      </trkpt>
      <trkpt lat="42.97293167" lon="0.23006833">
        <ele>913.0</ele>
        <time>2019-07-07T06:33:44.802Z</time>
      </trkpt>
      <trkpt lat="42.97293167" lon="0.23006833">
        <ele>913.0</ele>
        <time>2019-07-07T06:33:45.815Z</time>
      </trkpt>
      <trkpt lat="42.97285167" lon="0.23008">
        <ele>913.0</ele>
        <time>2019-07-07T06:33:46.834Z</time>
      </trkpt>
      <trkpt lat="42.97285167" lon="0.23008">
        <ele>913.0</ele>
        <time>2019-07-07T06:33:47.811Z</time>
      </trkpt>
      <trkpt lat="42.97277" lon="0.23008833">
        <ele>913.0</ele>
        <time>2019-07-07T06:33:48.823Z</time>
      </trkpt>
      <trkpt lat="42.97277" lon="0.23008833">
        <ele>913.0</ele>
        <time>2019-07-07T06:33:49.830Z</time>
      </trkpt>
      <trkpt lat="42.972685" lon="0.23009333">
        <ele>913.0</ele>
        <time>2019-07-07T06:33:50.832Z</time>
      </trkpt>
      <trkpt lat="42.972685" lon="0.23009333">
        <ele>913.0</ele>
        <time>2019-07-07T06:33:51.807Z</time>
      </trkpt>
      <trkpt lat="42.97260333" lon="0.23009667">
        <ele>913.0</ele>
        <time>2019-07-07T06:33:52.816Z</time>
      </trkpt>
      <trkpt lat="42.97256167" lon="0.2301">
        <ele>913.0</ele>
        <time>2019-07-07T06:33:53.832Z</time>
      </trkpt>
      <trkpt lat="42.97256167" lon="0.2301">
        <ele>913.0</ele>
        <time>2019-07-07T06:33:54.819Z</time>
      </trkpt>
      <trkpt lat="42.97248" lon="0.23010833">
        <ele>914.0</ele>
        <time>2019-07-07T06:33:55.830Z</time>
      </trkpt>
      <trkpt lat="42.97248" lon="0.23010833">
        <ele>914.0</ele>
        <time>2019-07-07T06:33:56.816Z</time>
      </trkpt>
      <trkpt lat="42.972395" lon="0.23011833">
        <ele>914.0</ele>
        <time>2019-07-07T06:33:57.806Z</time>
      </trkpt>
      <trkpt lat="42.972395" lon="0.23011833">
        <ele>914.0</ele>
        <time>2019-07-07T06:33:58.829Z</time>
      </trkpt>
      <trkpt lat="42.97231" lon="0.23013167">
        <ele>914.0</ele>
        <time>2019-07-07T06:33:59.831Z</time>
      </trkpt>
      <trkpt lat="42.97226833" lon="0.23014">
        <ele>914.0</ele>
        <time>2019-07-07T06:34:00.833Z</time>
      </trkpt>
      <trkpt lat="42.97226833" lon="0.23014">
        <ele>914.0</ele>
        <time>2019-07-07T06:34:01.825Z</time>
      </trkpt>
      <trkpt lat="42.97218333" lon="0.230165">
        <ele>914.0</ele>
        <time>2019-07-07T06:34:02.802Z</time>
      </trkpt>
      <trkpt lat="42.97218333" lon="0.230165">
        <ele>914.0</ele>
        <time>2019-07-07T06:34:03.835Z</time>
      </trkpt>
      <trkpt lat="42.97210167" lon="0.23019667">
        <ele>915.0</ele>
        <time>2019-07-07T06:34:04.832Z</time>
      </trkpt>
      <trkpt lat="42.97210167" lon="0.23019667">
        <ele>915.0</ele>
        <time>2019-07-07T06:34:05.816Z</time>
      </trkpt>
      <trkpt lat="42.97202167" lon="0.23023833">
        <ele>916.0</ele>
        <time>2019-07-07T06:34:06.830Z</time>
      </trkpt>
      <trkpt lat="42.97202167" lon="0.23023833">
        <ele>916.0</ele>
        <time>2019-07-07T06:34:07.820Z</time>
      </trkpt>
      <trkpt lat="42.971945" lon="0.23029">
        <ele>916.0</ele>
        <time>2019-07-07T06:34:08.830Z</time>
      </trkpt>
      <trkpt lat="42.971945" lon="0.23029">
        <ele>916.0</ele>
        <time>2019-07-07T06:34:09.838Z</time>
      </trkpt>
      <trkpt lat="42.97186667" lon="0.23034333">
        <ele>916.0</ele>
        <time>2019-07-07T06:34:10.835Z</time>
      </trkpt>
      <trkpt lat="42.97186667" lon="0.23034333">
        <ele>916.0</ele>
        <time>2019-07-07T06:34:11.834Z</time>
      </trkpt>
      <trkpt lat="42.97179167" lon="0.2304">
        <ele>916.0</ele>
        <time>2019-07-07T06:34:12.837Z</time>
      </trkpt>
      <trkpt lat="42.97179167" lon="0.2304">
        <ele>916.0</ele>
        <time>2019-07-07T06:34:13.821Z</time>
      </trkpt>
      <trkpt lat="42.971715" lon="0.23045833">
        <ele>916.0</ele>
        <time>2019-07-07T06:34:14.833Z</time>
      </trkpt>
      <trkpt lat="42.97167833" lon="0.23048667">
        <ele>917.0</ele>
        <time>2019-07-07T06:34:15.832Z</time>
      </trkpt>
      <trkpt lat="42.97167833" lon="0.23048667">
        <ele>917.0</ele>
        <time>2019-07-07T06:34:16.818Z</time>
      </trkpt>
      <trkpt lat="42.97160333" lon="0.23054667">
        <ele>917.0</ele>
        <time>2019-07-07T06:34:17.833Z</time>
      </trkpt>
      <trkpt lat="42.971565" lon="0.23057667">
        <ele>917.0</ele>
        <time>2019-07-07T06:34:18.829Z</time>
      </trkpt>
      <trkpt lat="42.971565" lon="0.23057667">
        <ele>917.0</ele>
        <time>2019-07-07T06:34:19.826Z</time>
      </trkpt>
      <trkpt lat="42.97149" lon="0.23063333">
        <ele>917.0</ele>
        <time>2019-07-07T06:34:20.834Z</time>
      </trkpt>
      <trkpt lat="42.97145333" lon="0.23066167">
        <ele>917.0</ele>
        <time>2019-07-07T06:34:21.816Z</time>
      </trkpt>
      <trkpt lat="42.97141667" lon="0.23069">
        <ele>917.0</ele>
        <time>2019-07-07T06:34:22.813Z</time>
      </trkpt>
      <trkpt lat="42.97141667" lon="0.23069">
        <ele>917.0</ele>
        <time>2019-07-07T06:34:23.834Z</time>
      </trkpt>
      <trkpt lat="42.97134667" lon="0.23074667">
        <ele>917.0</ele>
        <time>2019-07-07T06:34:24.829Z</time>
      </trkpt>
      <trkpt lat="42.97134667" lon="0.23074667">
        <ele>917.0</ele>
        <time>2019-07-07T06:34:25.835Z</time>
      </trkpt>
      <trkpt lat="42.971275" lon="0.2308">
        <ele>918.0</ele>
        <time>2019-07-07T06:34:26.839Z</time>
      </trkpt>
      <trkpt lat="42.97124" lon="0.230825">
        <ele>918.0</ele>
        <time>2019-07-07T06:34:27.833Z</time>
      </trkpt>
      <trkpt lat="42.97124" lon="0.230825">
        <ele>918.0</ele>
        <time>2019-07-07T06:34:28.826Z</time>
      </trkpt>
      <trkpt lat="42.97117333" lon="0.230875">
        <ele>918.0</ele>
        <time>2019-07-07T06:34:29.837Z</time>
      </trkpt>
      <trkpt lat="42.97114" lon="0.2309">
        <ele>918.0</ele>
        <time>2019-07-07T06:34:30.815Z</time>
      </trkpt>
      <trkpt lat="42.97114" lon="0.2309">
        <ele>918.0</ele>
        <time>2019-07-07T06:34:31.811Z</time>
      </trkpt>
      <trkpt lat="42.97107333" lon="0.23094833">
        <ele>919.0</ele>
        <time>2019-07-07T06:34:32.810Z</time>
      </trkpt>
      <trkpt lat="42.97107333" lon="0.23094833">
        <ele>919.0</ele>
        <time>2019-07-07T06:34:33.818Z</time>
      </trkpt>
      <trkpt lat="42.97100667" lon="0.231">
        <ele>919.0</ele>
        <time>2019-07-07T06:34:34.832Z</time>
      </trkpt>
      <trkpt lat="42.97100667" lon="0.231">
        <ele>919.0</ele>
        <time>2019-07-07T06:34:35.819Z</time>
      </trkpt>
      <trkpt lat="42.97094333" lon="0.23104833">
        <ele>919.0</ele>
        <time>2019-07-07T06:34:36.832Z</time>
      </trkpt>
      <trkpt lat="42.97094333" lon="0.23104833">
        <ele>919.0</ele>
        <time>2019-07-07T06:34:37.817Z</time>
      </trkpt>
      <trkpt lat="42.97087833" lon="0.23108833">
        <ele>921.0</ele>
        <time>2019-07-07T06:34:38.815Z</time>
      </trkpt>
      <trkpt lat="42.97087833" lon="0.23108833">
        <ele>921.0</ele>
        <time>2019-07-07T06:34:39.814Z</time>
      </trkpt>
      <trkpt lat="42.970815" lon="0.23111667">
        <ele>921.0</ele>
        <time>2019-07-07T06:34:40.822Z</time>
      </trkpt>
      <trkpt lat="42.970815" lon="0.23111667">
        <ele>921.0</ele>
        <time>2019-07-07T06:34:41.834Z</time>
      </trkpt>
      <trkpt lat="42.97075" lon="0.23113667">
        <ele>921.0</ele>
        <time>2019-07-07T06:34:42.809Z</time>
      </trkpt>
      <trkpt lat="42.97071333" lon="0.23114333">
        <ele>921.0</ele>
        <time>2019-07-07T06:34:43.810Z</time>
      </trkpt>
      <trkpt lat="42.97067667" lon="0.23115">
        <ele>921.0</ele>
        <time>2019-07-07T06:34:44.837Z</time>
      </trkpt>
      <trkpt lat="42.97067667" lon="0.23115">
        <ele>921.0</ele>
        <time>2019-07-07T06:34:45.819Z</time>
      </trkpt>
      <trkpt lat="42.970595" lon="0.23115">
        <ele>922.0</ele>
        <time>2019-07-07T06:34:46.833Z</time>
      </trkpt>
      <trkpt lat="42.970595" lon="0.23115">
        <ele>922.0</ele>
        <time>2019-07-07T06:34:47.810Z</time>
      </trkpt>
      <trkpt lat="42.97051167" lon="0.23114333">
        <ele>922.0</ele>
        <time>2019-07-07T06:34:48.817Z</time>
      </trkpt>
      <trkpt lat="42.97047" lon="0.23114">
        <ele>923.0</ele>
        <time>2019-07-07T06:34:49.812Z</time>
      </trkpt>
      <trkpt lat="42.97047" lon="0.23114">
        <ele>923.0</ele>
        <time>2019-07-07T06:34:50.817Z</time>
      </trkpt>
      <trkpt lat="42.970385" lon="0.23112833">
        <ele>923.0</ele>
        <time>2019-07-07T06:34:51.836Z</time>
      </trkpt>
      <trkpt lat="42.97034333" lon="0.23112333">
        <ele>923.0</ele>
        <time>2019-07-07T06:34:52.833Z</time>
      </trkpt>
      <trkpt lat="42.97034333" lon="0.23112333">
        <ele>923.0</ele>
        <time>2019-07-07T06:34:53.836Z</time>
      </trkpt>
      <trkpt lat="42.97026" lon="0.23111">
        <ele>924.0</ele>
        <time>2019-07-07T06:34:54.801Z</time>
      </trkpt>
      <trkpt lat="42.97026" lon="0.23111">
        <ele>924.0</ele>
        <time>2019-07-07T06:34:55.827Z</time>
      </trkpt>
      <trkpt lat="42.97018" lon="0.23109333">
        <ele>924.0</ele>
        <time>2019-07-07T06:34:56.833Z</time>
      </trkpt>
      <trkpt lat="42.97014" lon="0.23108667">
        <ele>924.0</ele>
        <time>2019-07-07T06:34:57.833Z</time>
      </trkpt>
      <trkpt lat="42.9701" lon="0.23107833">
        <ele>925.0</ele>
        <time>2019-07-07T06:34:58.833Z</time>
      </trkpt>
      <trkpt lat="42.9701" lon="0.23107833">
        <ele>925.0</ele>
        <time>2019-07-07T06:34:59.818Z</time>
      </trkpt>
      <trkpt lat="42.970015" lon="0.231055">
        <ele>926.0</ele>
        <time>2019-07-07T06:35:00.811Z</time>
      </trkpt>
      <trkpt lat="42.970015" lon="0.231055">
        <ele>926.0</ele>
        <time>2019-07-07T06:35:01.807Z</time>
      </trkpt>
      <trkpt lat="42.969935" lon="0.23102833">
        <ele>926.0</ele>
        <time>2019-07-07T06:35:02.812Z</time>
      </trkpt>
      <trkpt lat="42.969935" lon="0.23102833">
        <ele>926.0</ele>
        <time>2019-07-07T06:35:03.817Z</time>
      </trkpt>
      <trkpt lat="42.96985667" lon="0.231005">
        <ele>927.0</ele>
        <time>2019-07-07T06:35:04.833Z</time>
      </trkpt>
      <trkpt lat="42.96985667" lon="0.231005">
        <ele>927.0</ele>
        <time>2019-07-07T06:35:05.821Z</time>
      </trkpt>
      <trkpt lat="42.96977833" lon="0.23098167">
        <ele>928.0</ele>
        <time>2019-07-07T06:35:06.833Z</time>
      </trkpt>
      <trkpt lat="42.96977833" lon="0.23098167">
        <ele>928.0</ele>
        <time>2019-07-07T06:35:07.818Z</time>
      </trkpt>
      <trkpt lat="42.96970333" lon="0.23096">
        <ele>928.0</ele>
        <time>2019-07-07T06:35:08.806Z</time>
      </trkpt>
      <trkpt lat="42.96966667" lon="0.23095">
        <ele>928.0</ele>
        <time>2019-07-07T06:35:09.805Z</time>
      </trkpt>
      <trkpt lat="42.96962833" lon="0.23093833">
        <ele>928.0</ele>
        <time>2019-07-07T06:35:10.835Z</time>
      </trkpt>
      <trkpt lat="42.96962833" lon="0.23093833">
        <ele>928.0</ele>
        <time>2019-07-07T06:35:11.840Z</time>
      </trkpt>
      <trkpt lat="42.96955167" lon="0.230915">
        <ele>929.0</ele>
        <time>2019-07-07T06:35:12.832Z</time>
      </trkpt>
      <trkpt lat="42.96955167" lon="0.230915">
        <ele>929.0</ele>
        <time>2019-07-07T06:35:13.819Z</time>
      </trkpt>
      <trkpt lat="42.969475" lon="0.23088667">
        <ele>930.0</ele>
        <time>2019-07-07T06:35:14.833Z</time>
      </trkpt>
      <trkpt lat="42.969475" lon="0.23088667">
        <ele>930.0</ele>
        <time>2019-07-07T06:35:15.830Z</time>
      </trkpt>
      <trkpt lat="42.9694" lon="0.23085167">
        <ele>930.0</ele>
        <time>2019-07-07T06:35:16.832Z</time>
      </trkpt>
      <trkpt lat="42.9694" lon="0.23085167">
        <ele>930.0</ele>
        <time>2019-07-07T06:35:17.821Z</time>
      </trkpt>
      <trkpt lat="42.96932667" lon="0.23081333">
        <ele>931.0</ele>
        <time>2019-07-07T06:35:18.804Z</time>
      </trkpt>
      <trkpt lat="42.96932667" lon="0.23081333">
        <ele>931.0</ele>
        <time>2019-07-07T06:35:19.819Z</time>
      </trkpt>
      <trkpt lat="42.969255" lon="0.23077833">
        <ele>931.0</ele>
        <time>2019-07-07T06:35:20.834Z</time>
      </trkpt>
      <trkpt lat="42.969255" lon="0.23077833">
        <ele>931.0</ele>
        <time>2019-07-07T06:35:21.827Z</time>
      </trkpt>
      <trkpt lat="42.969185" lon="0.230735">
        <ele>932.0</ele>
        <time>2019-07-07T06:35:22.832Z</time>
      </trkpt>
      <trkpt lat="42.96915333" lon="0.230715">
        <ele>932.0</ele>
        <time>2019-07-07T06:35:23.842Z</time>
      </trkpt>
      <trkpt lat="42.96912167" lon="0.23069333">
        <ele>932.0</ele>
        <time>2019-07-07T06:35:24.832Z</time>
      </trkpt>
      <trkpt lat="42.96912167" lon="0.23069333">
        <ele>932.0</ele>
        <time>2019-07-07T06:35:25.808Z</time>
      </trkpt>
      <trkpt lat="42.96905833" lon="0.23064333">
        <ele>932.0</ele>
        <time>2019-07-07T06:35:26.810Z</time>
      </trkpt>
      <trkpt lat="42.96905833" lon="0.23064333">
        <ele>932.0</ele>
        <time>2019-07-07T06:35:27.833Z</time>
      </trkpt>
      <trkpt lat="42.968995" lon="0.23060167">
        <ele>933.0</ele>
        <time>2019-07-07T06:35:28.837Z</time>
      </trkpt>
      <trkpt lat="42.968995" lon="0.23060167">
        <ele>933.0</ele>
        <time>2019-07-07T06:35:29.819Z</time>
      </trkpt>
      <trkpt lat="42.96893167" lon="0.23056333">
        <ele>933.0</ele>
        <time>2019-07-07T06:35:30.830Z</time>
      </trkpt>
      <trkpt lat="42.96893167" lon="0.23056333">
        <ele>933.0</ele>
        <time>2019-07-07T06:35:31.812Z</time>
      </trkpt>
      <trkpt lat="42.96886333" lon="0.23052333">
        <ele>933.0</ele>
        <time>2019-07-07T06:35:32.814Z</time>
      </trkpt>
      <trkpt lat="42.96886333" lon="0.23052333">
        <ele>933.0</ele>
        <time>2019-07-07T06:35:33.819Z</time>
      </trkpt>
      <trkpt lat="42.96879333" lon="0.23048667">
        <ele>933.0</ele>
        <time>2019-07-07T06:35:34.831Z</time>
      </trkpt>
      <trkpt lat="42.96879333" lon="0.23048667">
        <ele>933.0</ele>
        <time>2019-07-07T06:35:35.829Z</time>
      </trkpt>
      <trkpt lat="42.96872167" lon="0.23044167">
        <ele>934.0</ele>
        <time>2019-07-07T06:35:36.830Z</time>
      </trkpt>
      <trkpt lat="42.96872167" lon="0.23044167">
        <ele>934.0</ele>
        <time>2019-07-07T06:35:37.818Z</time>
      </trkpt>
      <trkpt lat="42.96864167" lon="0.2304">
        <ele>934.0</ele>
        <time>2019-07-07T06:35:38.841Z</time>
      </trkpt>
      <trkpt lat="42.9686" lon="0.23038333">
        <ele>935.0</ele>
        <time>2019-07-07T06:35:39.802Z</time>
      </trkpt>
      <trkpt lat="42.9686" lon="0.23038333">
        <ele>935.0</ele>
        <time>2019-07-07T06:35:40.821Z</time>
      </trkpt>
      <trkpt lat="42.968515" lon="0.23035333">
        <ele>935.0</ele>
        <time>2019-07-07T06:35:41.801Z</time>
      </trkpt>
      <trkpt lat="42.96847333" lon="0.23034167">
        <ele>936.0</ele>
        <time>2019-07-07T06:35:42.843Z</time>
      </trkpt>
      <trkpt lat="42.96847333" lon="0.23034167">
        <ele>936.0</ele>
        <time>2019-07-07T06:35:43.828Z</time>
      </trkpt>
      <trkpt lat="42.96839167" lon="0.23032333">
        <ele>936.0</ele>
        <time>2019-07-07T06:35:44.833Z</time>
      </trkpt>
      <trkpt lat="42.96839167" lon="0.23032333">
        <ele>936.0</ele>
        <time>2019-07-07T06:35:45.819Z</time>
      </trkpt>
      <trkpt lat="42.96831333" lon="0.230305">
        <ele>937.0</ele>
        <time>2019-07-07T06:35:46.832Z</time>
      </trkpt>
      <trkpt lat="42.96831333" lon="0.230305">
        <ele>937.0</ele>
        <time>2019-07-07T06:35:47.818Z</time>
      </trkpt>
      <trkpt lat="42.96823667" lon="0.230285">
        <ele>937.0</ele>
        <time>2019-07-07T06:35:48.828Z</time>
      </trkpt>
      <trkpt lat="42.96819667" lon="0.23028">
        <ele>938.0</ele>
        <time>2019-07-07T06:35:49.827Z</time>
      </trkpt>
      <trkpt lat="42.96819667" lon="0.23028">
        <ele>938.0</ele>
        <time>2019-07-07T06:35:50.839Z</time>
      </trkpt>
      <trkpt lat="42.96811833" lon="0.23027167">
        <ele>938.0</ele>
        <time>2019-07-07T06:35:51.807Z</time>
      </trkpt>
      <trkpt lat="42.96807667" lon="0.23026667">
        <ele>938.0</ele>
        <time>2019-07-07T06:35:52.834Z</time>
      </trkpt>
      <trkpt lat="42.96807667" lon="0.23026667">
        <ele>938.0</ele>
        <time>2019-07-07T06:35:53.833Z</time>
      </trkpt>
      <trkpt lat="42.967995" lon="0.23025667">
        <ele>939.0</ele>
        <time>2019-07-07T06:35:54.844Z</time>
      </trkpt>
      <trkpt lat="42.967995" lon="0.23025667">
        <ele>939.0</ele>
        <time>2019-07-07T06:35:55.819Z</time>
      </trkpt>
      <trkpt lat="42.96790833" lon="0.23024167">
        <ele>939.0</ele>
        <time>2019-07-07T06:35:56.832Z</time>
      </trkpt>
      <trkpt lat="42.96790833" lon="0.23024167">
        <ele>939.0</ele>
        <time>2019-07-07T06:35:57.839Z</time>
      </trkpt>
      <trkpt lat="42.96782" lon="0.23022833">
        <ele>940.0</ele>
        <time>2019-07-07T06:35:58.832Z</time>
      </trkpt>
      <trkpt lat="42.96782" lon="0.23022833">
        <ele>940.0</ele>
        <time>2019-07-07T06:35:59.829Z</time>
      </trkpt>
      <trkpt lat="42.96773167" lon="0.23021333">
        <ele>940.0</ele>
        <time>2019-07-07T06:36:00.827Z</time>
      </trkpt>
      <trkpt lat="42.96773167" lon="0.23021333">
        <ele>940.0</ele>
        <time>2019-07-07T06:36:01.807Z</time>
      </trkpt>
      <trkpt lat="42.96764167" lon="0.2302">
        <ele>940.0</ele>
        <time>2019-07-07T06:36:02.803Z</time>
      </trkpt>
      <trkpt lat="42.96764167" lon="0.2302">
        <ele>940.0</ele>
        <time>2019-07-07T06:36:03.834Z</time>
      </trkpt>
      <trkpt lat="42.96754333" lon="0.23019333">
        <ele>940.0</ele>
        <time>2019-07-07T06:36:04.832Z</time>
      </trkpt>
      <trkpt lat="42.96754333" lon="0.23019333">
        <ele>940.0</ele>
        <time>2019-07-07T06:36:05.821Z</time>
      </trkpt>
      <trkpt lat="42.967435" lon="0.23019">
        <ele>940.0</ele>
        <time>2019-07-07T06:36:06.834Z</time>
      </trkpt>
      <trkpt lat="42.967435" lon="0.23019">
        <ele>940.0</ele>
        <time>2019-07-07T06:36:07.828Z</time>
      </trkpt>
      <trkpt lat="42.96732" lon="0.23020167">
        <ele>939.0</ele>
        <time>2019-07-07T06:36:08.829Z</time>
      </trkpt>
      <trkpt lat="42.96732" lon="0.23020167">
        <ele>939.0</ele>
        <time>2019-07-07T06:36:09.830Z</time>
      </trkpt>
      <trkpt lat="42.9672" lon="0.23023167">
        <ele>939.0</ele>
        <time>2019-07-07T06:36:10.832Z</time>
      </trkpt>
      <trkpt lat="42.9672" lon="0.23023167">
        <ele>939.0</ele>
        <time>2019-07-07T06:36:11.827Z</time>
      </trkpt>
      <trkpt lat="42.96707333" lon="0.23027">
        <ele>939.0</ele>
        <time>2019-07-07T06:36:12.833Z</time>
      </trkpt>
      <trkpt lat="42.96707333" lon="0.23027">
        <ele>939.0</ele>
        <time>2019-07-07T06:36:13.821Z</time>
      </trkpt>
      <trkpt lat="42.96695" lon="0.23030833">
        <ele>939.0</ele>
        <time>2019-07-07T06:36:14.833Z</time>
      </trkpt>
      <trkpt lat="42.96695" lon="0.23030833">
        <ele>939.0</ele>
        <time>2019-07-07T06:36:15.833Z</time>
      </trkpt>
      <trkpt lat="42.96682833" lon="0.23035333">
        <ele>938.0</ele>
        <time>2019-07-07T06:36:16.837Z</time>
      </trkpt>
      <trkpt lat="42.96676667" lon="0.23037667">
        <ele>938.0</ele>
        <time>2019-07-07T06:36:17.813Z</time>
      </trkpt>
      <trkpt lat="42.96676667" lon="0.23037667">
        <ele>938.0</ele>
        <time>2019-07-07T06:36:18.819Z</time>
      </trkpt>
      <trkpt lat="42.96664" lon="0.23041833">
        <ele>937.0</ele>
        <time>2019-07-07T06:36:19.831Z</time>
      </trkpt>
      <trkpt lat="42.96664" lon="0.23041833">
        <ele>937.0</ele>
        <time>2019-07-07T06:36:20.831Z</time>
      </trkpt>
      <trkpt lat="42.96651167" lon="0.23043833">
        <ele>937.0</ele>
        <time>2019-07-07T06:36:21.839Z</time>
      </trkpt>
      <trkpt lat="42.96651167" lon="0.23043833">
        <ele>937.0</ele>
        <time>2019-07-07T06:36:22.835Z</time>
      </trkpt>
      <trkpt lat="42.96636667" lon="0.23045167">
        <ele>936.0</ele>
        <time>2019-07-07T06:36:23.831Z</time>
      </trkpt>
      <trkpt lat="42.96629167" lon="0.23045333">
        <ele>935.0</ele>
        <time>2019-07-07T06:36:24.807Z</time>
      </trkpt>
      <trkpt lat="42.96621667" lon="0.23045333">
        <ele>935.0</ele>
        <time>2019-07-07T06:36:25.834Z</time>
      </trkpt>
      <trkpt lat="42.96621667" lon="0.23045333">
        <ele>935.0</ele>
        <time>2019-07-07T06:36:26.821Z</time>
      </trkpt>
      <trkpt lat="42.96606333" lon="0.230445">
        <ele>935.0</ele>
        <time>2019-07-07T06:36:27.834Z</time>
      </trkpt>
      <trkpt lat="42.96606333" lon="0.230445">
        <ele>935.0</ele>
        <time>2019-07-07T06:36:28.828Z</time>
      </trkpt>
      <trkpt lat="42.96591333" lon="0.23043">
        <ele>934.0</ele>
        <time>2019-07-07T06:36:29.830Z</time>
      </trkpt>
      <trkpt lat="42.96583833" lon="0.23042167">
        <ele>934.0</ele>
        <time>2019-07-07T06:36:30.830Z</time>
      </trkpt>
      <trkpt lat="42.965765" lon="0.23041333">
        <ele>934.0</ele>
        <time>2019-07-07T06:36:31.812Z</time>
      </trkpt>
      <trkpt lat="42.965765" lon="0.23041333">
        <ele>934.0</ele>
        <time>2019-07-07T06:36:32.823Z</time>
      </trkpt>
      <trkpt lat="42.965615" lon="0.23039333">
        <ele>933.0</ele>
        <time>2019-07-07T06:36:33.805Z</time>
      </trkpt>
      <trkpt lat="42.96554167" lon="0.23038667">
        <ele>933.0</ele>
        <time>2019-07-07T06:36:34.833Z</time>
      </trkpt>
      <trkpt lat="42.96546833" lon="0.23037833">
        <ele>933.0</ele>
        <time>2019-07-07T06:36:35.804Z</time>
      </trkpt>
      <trkpt lat="42.96546833" lon="0.23037833">
        <ele>933.0</ele>
        <time>2019-07-07T06:36:36.822Z</time>
      </trkpt>
      <trkpt lat="42.965325" lon="0.23036667">
        <ele>933.0</ele>
        <time>2019-07-07T06:36:37.830Z</time>
      </trkpt>
      <trkpt lat="42.965325" lon="0.23036667">
        <ele>933.0</ele>
        <time>2019-07-07T06:36:38.828Z</time>
      </trkpt>
      <trkpt lat="42.96518333" lon="0.23035167">
        <ele>933.0</ele>
        <time>2019-07-07T06:36:39.802Z</time>
      </trkpt>
      <trkpt lat="42.965115" lon="0.23033333">
        <ele>933.0</ele>
        <time>2019-07-07T06:36:40.832Z</time>
      </trkpt>
      <trkpt lat="42.965115" lon="0.23033333">
        <ele>933.0</ele>
        <time>2019-07-07T06:36:41.839Z</time>
      </trkpt>
      <trkpt lat="42.96497333" lon="0.230305">
        <ele>932.0</ele>
        <time>2019-07-07T06:36:42.831Z</time>
      </trkpt>
      <trkpt lat="42.96497333" lon="0.230305">
        <ele>932.0</ele>
        <time>2019-07-07T06:36:43.830Z</time>
      </trkpt>
      <trkpt lat="42.964835" lon="0.23028167">
        <ele>933.0</ele>
        <time>2019-07-07T06:36:44.833Z</time>
      </trkpt>
      <trkpt lat="42.964835" lon="0.23028167">
        <ele>933.0</ele>
        <time>2019-07-07T06:36:45.836Z</time>
      </trkpt>
      <trkpt lat="42.96470333" lon="0.23026667">
        <ele>933.0</ele>
        <time>2019-07-07T06:36:46.837Z</time>
      </trkpt>
      <trkpt lat="42.96470333" lon="0.23026667">
        <ele>933.0</ele>
        <time>2019-07-07T06:36:47.819Z</time>
      </trkpt>
      <trkpt lat="42.96456667" lon="0.23027167">
        <ele>933.0</ele>
        <time>2019-07-07T06:36:48.835Z</time>
      </trkpt>
      <trkpt lat="42.96449667" lon="0.23027833">
        <ele>933.0</ele>
        <time>2019-07-07T06:36:49.835Z</time>
      </trkpt>
      <trkpt lat="42.96449667" lon="0.23027833">
        <ele>933.0</ele>
        <time>2019-07-07T06:36:50.821Z</time>
      </trkpt>
      <trkpt lat="42.96435167" lon="0.23029">
        <ele>933.0</ele>
        <time>2019-07-07T06:36:51.819Z</time>
      </trkpt>
      <trkpt lat="42.96435167" lon="0.23029">
        <ele>933.0</ele>
        <time>2019-07-07T06:36:52.840Z</time>
      </trkpt>
      <trkpt lat="42.96420833" lon="0.23029667">
        <ele>933.0</ele>
        <time>2019-07-07T06:36:53.830Z</time>
      </trkpt>
      <trkpt lat="42.96413667" lon="0.2303">
        <ele>933.0</ele>
        <time>2019-07-07T06:36:54.821Z</time>
      </trkpt>
      <trkpt lat="42.96413667" lon="0.2303">
        <ele>933.0</ele>
        <time>2019-07-07T06:36:55.821Z</time>
      </trkpt>
      <trkpt lat="42.96399667" lon="0.230305">
        <ele>933.0</ele>
        <time>2019-07-07T06:36:56.832Z</time>
      </trkpt>
      <trkpt lat="42.96399667" lon="0.230305">
        <ele>933.0</ele>
        <time>2019-07-07T06:36:57.822Z</time>
      </trkpt>
      <trkpt lat="42.96385667" lon="0.23031">
        <ele>933.0</ele>
        <time>2019-07-07T06:36:58.839Z</time>
      </trkpt>
      <trkpt lat="42.96379" lon="0.23031167">
        <ele>933.0</ele>
        <time>2019-07-07T06:36:59.807Z</time>
      </trkpt>
      <trkpt lat="42.96372167" lon="0.23031167">
        <ele>933.0</ele>
        <time>2019-07-07T06:37:00.833Z</time>
      </trkpt>
      <trkpt lat="42.96372167" lon="0.23031167">
        <ele>933.0</ele>
        <time>2019-07-07T06:37:01.839Z</time>
      </trkpt>
      <trkpt lat="42.96358667" lon="0.23031333">
        <ele>933.0</ele>
        <time>2019-07-07T06:37:02.836Z</time>
      </trkpt>
      <trkpt lat="42.96358667" lon="0.23031333">
        <ele>933.0</ele>
        <time>2019-07-07T06:37:03.820Z</time>
      </trkpt>
      <trkpt lat="42.96345333" lon="0.230315">
        <ele>933.0</ele>
        <time>2019-07-07T06:37:04.826Z</time>
      </trkpt>
      <trkpt lat="42.96345333" lon="0.230315">
        <ele>933.0</ele>
        <time>2019-07-07T06:37:05.838Z</time>
      </trkpt>
      <trkpt lat="42.96332167" lon="0.23032">
        <ele>933.0</ele>
        <time>2019-07-07T06:37:06.828Z</time>
      </trkpt>
      <trkpt lat="42.96332167" lon="0.23032">
        <ele>933.0</ele>
        <time>2019-07-07T06:37:07.834Z</time>
      </trkpt>
      <trkpt lat="42.963195" lon="0.230325">
        <ele>933.0</ele>
        <time>2019-07-07T06:37:08.833Z</time>
      </trkpt>
      <trkpt lat="42.963195" lon="0.230325">
        <ele>933.0</ele>
        <time>2019-07-07T06:37:09.829Z</time>
      </trkpt>
      <trkpt lat="42.96307333" lon="0.23033333">
        <ele>933.0</ele>
        <time>2019-07-07T06:37:10.837Z</time>
      </trkpt>
      <trkpt lat="42.96307333" lon="0.23033333">
        <ele>933.0</ele>
        <time>2019-07-07T06:37:11.807Z</time>
      </trkpt>
      <trkpt lat="42.96296" lon="0.23035167">
        <ele>933.0</ele>
        <time>2019-07-07T06:37:12.815Z</time>
      </trkpt>
      <trkpt lat="42.96296" lon="0.23035167">
        <ele>933.0</ele>
        <time>2019-07-07T06:37:13.829Z</time>
      </trkpt>
      <trkpt lat="42.96285167" lon="0.23037167">
        <ele>934.0</ele>
        <time>2019-07-07T06:37:14.830Z</time>
      </trkpt>
      <trkpt lat="42.96285167" lon="0.23037167">
        <ele>934.0</ele>
        <time>2019-07-07T06:37:15.807Z</time>
      </trkpt>
      <trkpt lat="42.96274167" lon="0.23038333">
        <ele>935.0</ele>
        <time>2019-07-07T06:37:16.809Z</time>
      </trkpt>
      <trkpt lat="42.96274167" lon="0.23038333">
        <ele>935.0</ele>
        <time>2019-07-07T06:37:17.830Z</time>
      </trkpt>
      <trkpt lat="42.962635" lon="0.23039333">
        <ele>936.0</ele>
        <time>2019-07-07T06:37:18.836Z</time>
      </trkpt>
      <trkpt lat="42.962635" lon="0.23039333">
        <ele>936.0</ele>
        <time>2019-07-07T06:37:19.801Z</time>
      </trkpt>
      <trkpt lat="42.96253167" lon="0.23039667">
        <ele>937.0</ele>
        <time>2019-07-07T06:37:20.833Z</time>
      </trkpt>
      <trkpt lat="42.96253167" lon="0.23039667">
        <ele>937.0</ele>
        <time>2019-07-07T06:37:21.805Z</time>
      </trkpt>
      <trkpt lat="42.96243667" lon="0.230385">
        <ele>938.0</ele>
        <time>2019-07-07T06:37:22.812Z</time>
      </trkpt>
      <trkpt lat="42.96243667" lon="0.230385">
        <ele>938.0</ele>
        <time>2019-07-07T06:37:23.819Z</time>
      </trkpt>
      <trkpt lat="42.96234667" lon="0.23036333">
        <ele>939.0</ele>
        <time>2019-07-07T06:37:24.832Z</time>
      </trkpt>
      <trkpt lat="42.96234667" lon="0.23036333">
        <ele>939.0</ele>
        <time>2019-07-07T06:37:25.821Z</time>
      </trkpt>
      <trkpt lat="42.96225833" lon="0.23034">
        <ele>940.0</ele>
        <time>2019-07-07T06:37:26.833Z</time>
      </trkpt>
      <trkpt lat="42.962215" lon="0.23032833">
        <ele>940.0</ele>
        <time>2019-07-07T06:37:27.820Z</time>
      </trkpt>
      <trkpt lat="42.962215" lon="0.23032833">
        <ele>940.0</ele>
        <time>2019-07-07T06:37:28.830Z</time>
      </trkpt>
      <trkpt lat="42.96212833" lon="0.23030833">
        <ele>941.0</ele>
        <time>2019-07-07T06:37:29.837Z</time>
      </trkpt>
      <trkpt lat="42.96212833" lon="0.23030833">
        <ele>941.0</ele>
        <time>2019-07-07T06:37:30.840Z</time>
      </trkpt>
      <trkpt lat="42.96204167" lon="0.23029333">
        <ele>942.0</ele>
        <time>2019-07-07T06:37:31.811Z</time>
      </trkpt>
      <trkpt lat="42.96204167" lon="0.23029333">
        <ele>942.0</ele>
        <time>2019-07-07T06:37:32.817Z</time>
      </trkpt>
      <trkpt lat="42.96195667" lon="0.230285">
        <ele>943.0</ele>
        <time>2019-07-07T06:37:33.830Z</time>
      </trkpt>
      <trkpt lat="42.96191333" lon="0.23028">
        <ele>943.0</ele>
        <time>2019-07-07T06:37:34.817Z</time>
      </trkpt>
      <trkpt lat="42.96187167" lon="0.23027667">
        <ele>943.0</ele>
        <time>2019-07-07T06:37:35.832Z</time>
      </trkpt>
      <trkpt lat="42.96187167" lon="0.23027667">
        <ele>943.0</ele>
        <time>2019-07-07T06:37:36.839Z</time>
      </trkpt>
      <trkpt lat="42.96179" lon="0.230275">
        <ele>944.0</ele>
        <time>2019-07-07T06:37:37.833Z</time>
      </trkpt>
      <trkpt lat="42.96179" lon="0.230275">
        <ele>944.0</ele>
        <time>2019-07-07T06:37:38.831Z</time>
      </trkpt>
      <trkpt lat="42.96171167" lon="0.23027333">
        <ele>945.0</ele>
        <time>2019-07-07T06:37:39.833Z</time>
      </trkpt>
      <trkpt lat="42.96167167" lon="0.23027167">
        <ele>946.0</ele>
        <time>2019-07-07T06:37:40.831Z</time>
      </trkpt>
      <trkpt lat="42.96163333" lon="0.23027">
        <ele>946.0</ele>
        <time>2019-07-07T06:37:41.801Z</time>
      </trkpt>
      <trkpt lat="42.96163333" lon="0.23027">
        <ele>946.0</ele>
        <time>2019-07-07T06:37:42.823Z</time>
      </trkpt>
      <trkpt lat="42.96156" lon="0.23026667">
        <ele>947.0</ele>
        <time>2019-07-07T06:37:43.837Z</time>
      </trkpt>
      <trkpt lat="42.96152667" lon="0.23026667">
        <ele>948.0</ele>
        <time>2019-07-07T06:37:44.841Z</time>
      </trkpt>
      <trkpt lat="42.96152667" lon="0.23026667">
        <ele>948.0</ele>
        <time>2019-07-07T06:37:45.823Z</time>
      </trkpt>
      <trkpt lat="42.96145667" lon="0.23026833">
        <ele>949.0</ele>
        <time>2019-07-07T06:37:46.833Z</time>
      </trkpt>
      <trkpt lat="42.96145667" lon="0.23026833">
        <ele>949.0</ele>
        <time>2019-07-07T06:37:47.820Z</time>
      </trkpt>
      <trkpt lat="42.96138" lon="0.23025833">
        <ele>949.0</ele>
        <time>2019-07-07T06:37:48.834Z</time>
      </trkpt>
      <trkpt lat="42.96138" lon="0.23025833">
        <ele>949.0</ele>
        <time>2019-07-07T06:37:49.837Z</time>
      </trkpt>
      <trkpt lat="42.96129667" lon="0.23025167">
        <ele>950.0</ele>
        <time>2019-07-07T06:37:50.834Z</time>
      </trkpt>
      <trkpt lat="42.96129667" lon="0.23025167">
        <ele>950.0</ele>
        <time>2019-07-07T06:37:51.839Z</time>
      </trkpt>
      <trkpt lat="42.96121" lon="0.23024333">
        <ele>951.0</ele>
        <time>2019-07-07T06:37:52.803Z</time>
      </trkpt>
      <trkpt lat="42.96121" lon="0.23024333">
        <ele>951.0</ele>
        <time>2019-07-07T06:37:53.823Z</time>
      </trkpt>
      <trkpt lat="42.96112167" lon="0.23023167">
        <ele>952.0</ele>
        <time>2019-07-07T06:37:54.831Z</time>
      </trkpt>
      <trkpt lat="42.96112167" lon="0.23023167">
        <ele>952.0</ele>
        <time>2019-07-07T06:37:55.840Z</time>
      </trkpt>
      <trkpt lat="42.96103833" lon="0.23021833">
        <ele>953.0</ele>
        <time>2019-07-07T06:37:56.803Z</time>
      </trkpt>
      <trkpt lat="42.96103833" lon="0.23021833">
        <ele>953.0</ele>
        <time>2019-07-07T06:37:57.823Z</time>
      </trkpt>
      <trkpt lat="42.96095333" lon="0.23020833">
        <ele>953.0</ele>
        <time>2019-07-07T06:37:58.811Z</time>
      </trkpt>
      <trkpt lat="42.96095333" lon="0.23020833">
        <ele>953.0</ele>
        <time>2019-07-07T06:37:59.820Z</time>
      </trkpt>
      <trkpt lat="42.96086833" lon="0.23019333">
        <ele>954.0</ele>
        <time>2019-07-07T06:38:00.834Z</time>
      </trkpt>
      <trkpt lat="42.96086833" lon="0.23019333">
        <ele>954.0</ele>
        <time>2019-07-07T06:38:01.814Z</time>
      </trkpt>
      <trkpt lat="42.96078167" lon="0.23018">
        <ele>955.0</ele>
        <time>2019-07-07T06:38:02.814Z</time>
      </trkpt>
      <trkpt lat="42.96078167" lon="0.23018">
        <ele>955.0</ele>
        <time>2019-07-07T06:38:03.830Z</time>
      </trkpt>
      <trkpt lat="42.96069833" lon="0.23016833">
        <ele>955.0</ele>
        <time>2019-07-07T06:38:04.836Z</time>
      </trkpt>
      <trkpt lat="42.96069833" lon="0.23016833">
        <ele>955.0</ele>
        <time>2019-07-07T06:38:05.835Z</time>
      </trkpt>
      <trkpt lat="42.960615" lon="0.230155">
        <ele>956.0</ele>
        <time>2019-07-07T06:38:06.832Z</time>
      </trkpt>
      <trkpt lat="42.960615" lon="0.230155">
        <ele>956.0</ele>
        <time>2019-07-07T06:38:07.823Z</time>
      </trkpt>
      <trkpt lat="42.96053167" lon="0.23014333">
        <ele>957.0</ele>
        <time>2019-07-07T06:38:08.837Z</time>
      </trkpt>
      <trkpt lat="42.96053167" lon="0.23014333">
        <ele>957.0</ele>
        <time>2019-07-07T06:38:09.836Z</time>
      </trkpt>
      <trkpt lat="42.96045167" lon="0.23013333">
        <ele>958.0</ele>
        <time>2019-07-07T06:38:10.811Z</time>
      </trkpt>
      <trkpt lat="42.96045167" lon="0.23013333">
        <ele>958.0</ele>
        <time>2019-07-07T06:38:11.802Z</time>
      </trkpt>
      <trkpt lat="42.96037" lon="0.23010667">
        <ele>958.0</ele>
        <time>2019-07-07T06:38:12.833Z</time>
      </trkpt>
      <trkpt lat="42.96037" lon="0.23010667">
        <ele>958.0</ele>
        <time>2019-07-07T06:38:13.823Z</time>
      </trkpt>
      <trkpt lat="42.96028667" lon="0.23008">
        <ele>959.0</ele>
        <time>2019-07-07T06:38:14.833Z</time>
      </trkpt>
      <trkpt lat="42.96028667" lon="0.23008">
        <ele>959.0</ele>
        <time>2019-07-07T06:38:15.822Z</time>
      </trkpt>
      <trkpt lat="42.96020833" lon="0.23004167">
        <ele>960.0</ele>
        <time>2019-07-07T06:38:16.833Z</time>
      </trkpt>
      <trkpt lat="42.96020833" lon="0.23004167">
        <ele>960.0</ele>
        <time>2019-07-07T06:38:17.832Z</time>
      </trkpt>
      <trkpt lat="42.96012833" lon="0.22999167">
        <ele>961.0</ele>
        <time>2019-07-07T06:38:18.837Z</time>
      </trkpt>
      <trkpt lat="42.96012833" lon="0.22999167">
        <ele>961.0</ele>
        <time>2019-07-07T06:38:19.804Z</time>
      </trkpt>
      <trkpt lat="42.96004833" lon="0.22993833">
        <ele>961.0</ele>
        <time>2019-07-07T06:38:20.827Z</time>
      </trkpt>
      <trkpt lat="42.96000667" lon="0.229915">
        <ele>961.0</ele>
        <time>2019-07-07T06:38:21.821Z</time>
      </trkpt>
      <trkpt lat="42.95996833" lon="0.22988667">
        <ele>962.0</ele>
        <time>2019-07-07T06:38:22.837Z</time>
      </trkpt>
      <trkpt lat="42.95996833" lon="0.22988667">
        <ele>962.0</ele>
        <time>2019-07-07T06:38:23.823Z</time>
      </trkpt>
      <trkpt lat="42.95989167" lon="0.22983">
        <ele>962.0</ele>
        <time>2019-07-07T06:38:24.837Z</time>
      </trkpt>
      <trkpt lat="42.95989167" lon="0.22983">
        <ele>962.0</ele>
        <time>2019-07-07T06:38:25.823Z</time>
      </trkpt>
      <trkpt lat="42.95981833" lon="0.22977333">
        <ele>963.0</ele>
        <time>2019-07-07T06:38:26.837Z</time>
      </trkpt>
      <trkpt lat="42.95981833" lon="0.22977333">
        <ele>963.0</ele>
        <time>2019-07-07T06:38:27.801Z</time>
      </trkpt>
      <trkpt lat="42.95973833" lon="0.22970833">
        <ele>963.0</ele>
        <time>2019-07-07T06:38:28.837Z</time>
      </trkpt>
      <trkpt lat="42.95973833" lon="0.22970833">
        <ele>963.0</ele>
        <time>2019-07-07T06:38:29.835Z</time>
      </trkpt>
      <trkpt lat="42.95966333" lon="0.22964167">
        <ele>963.0</ele>
        <time>2019-07-07T06:38:30.841Z</time>
      </trkpt>
      <trkpt lat="42.95962167" lon="0.22960833">
        <ele>963.0</ele>
        <time>2019-07-07T06:38:31.831Z</time>
      </trkpt>
      <trkpt lat="42.95962167" lon="0.22960833">
        <ele>963.0</ele>
        <time>2019-07-07T06:38:32.823Z</time>
      </trkpt>
      <trkpt lat="42.95954167" lon="0.22954">
        <ele>963.0</ele>
        <time>2019-07-07T06:38:33.807Z</time>
      </trkpt>
      <trkpt lat="42.95954167" lon="0.22954">
        <ele>963.0</ele>
        <time>2019-07-07T06:38:34.824Z</time>
      </trkpt>
      <trkpt lat="42.95946" lon="0.22947167">
        <ele>964.0</ele>
        <time>2019-07-07T06:38:35.830Z</time>
      </trkpt>
      <trkpt lat="42.95942167" lon="0.22943833">
        <ele>964.0</ele>
        <time>2019-07-07T06:38:36.838Z</time>
      </trkpt>
      <trkpt lat="42.95942167" lon="0.22943833">
        <ele>964.0</ele>
        <time>2019-07-07T06:38:37.821Z</time>
      </trkpt>
      <trkpt lat="42.95934333" lon="0.22936667">
        <ele>964.0</ele>
        <time>2019-07-07T06:38:38.843Z</time>
      </trkpt>
      <trkpt lat="42.95934333" lon="0.22936667">
        <ele>964.0</ele>
        <time>2019-07-07T06:38:39.839Z</time>
      </trkpt>
      <trkpt lat="42.959265" lon="0.229295">
        <ele>964.0</ele>
        <time>2019-07-07T06:38:40.833Z</time>
      </trkpt>
      <trkpt lat="42.95922667" lon="0.22925833">
        <ele>964.0</ele>
        <time>2019-07-07T06:38:41.804Z</time>
      </trkpt>
      <trkpt lat="42.95918667" lon="0.22922167">
        <ele>964.0</ele>
        <time>2019-07-07T06:38:42.812Z</time>
      </trkpt>
      <trkpt lat="42.95918667" lon="0.22922167">
        <ele>964.0</ele>
        <time>2019-07-07T06:38:43.825Z</time>
      </trkpt>
      <trkpt lat="42.959095" lon="0.22913833">
        <ele>964.0</ele>
        <time>2019-07-07T06:38:44.829Z</time>
      </trkpt>
      <trkpt lat="42.95905333" lon="0.22909833">
        <ele>964.0</ele>
        <time>2019-07-07T06:38:45.832Z</time>
      </trkpt>
      <trkpt lat="42.95905333" lon="0.22909833">
        <ele>964.0</ele>
        <time>2019-07-07T06:38:46.814Z</time>
      </trkpt>
      <trkpt lat="42.95896667" lon="0.229025">
        <ele>964.0</ele>
        <time>2019-07-07T06:38:47.832Z</time>
      </trkpt>
      <trkpt lat="42.95896667" lon="0.229025">
        <ele>964.0</ele>
        <time>2019-07-07T06:38:48.839Z</time>
      </trkpt>
      <trkpt lat="42.95887333" lon="0.22896167">
        <ele>964.0</ele>
        <time>2019-07-07T06:38:49.825Z</time>
      </trkpt>
      <trkpt lat="42.95882833" lon="0.22893">
        <ele>964.0</ele>
        <time>2019-07-07T06:38:50.811Z</time>
      </trkpt>
      <trkpt lat="42.95882833" lon="0.22893">
        <ele>964.0</ele>
        <time>2019-07-07T06:38:51.832Z</time>
      </trkpt>
      <trkpt lat="42.958735" lon="0.22887833">
        <ele>964.0</ele>
        <time>2019-07-07T06:38:52.833Z</time>
      </trkpt>
      <trkpt lat="42.95869" lon="0.22885333">
        <ele>964.0</ele>
        <time>2019-07-07T06:38:53.839Z</time>
      </trkpt>
      <trkpt lat="42.958645" lon="0.22882833">
        <ele>965.0</ele>
        <time>2019-07-07T06:38:54.835Z</time>
      </trkpt>
      <trkpt lat="42.958645" lon="0.22882833">
        <ele>965.0</ele>
        <time>2019-07-07T06:38:55.830Z</time>
      </trkpt>
      <trkpt lat="42.95855333" lon="0.22878333">
        <ele>965.0</ele>
        <time>2019-07-07T06:38:56.802Z</time>
      </trkpt>
      <trkpt lat="42.95855333" lon="0.22878333">
        <ele>965.0</ele>
        <time>2019-07-07T06:38:57.802Z</time>
      </trkpt>
      <trkpt lat="42.95846167" lon="0.22874833">
        <ele>965.0</ele>
        <time>2019-07-07T06:38:58.837Z</time>
      </trkpt>
      <trkpt lat="42.95846167" lon="0.22874833">
        <ele>965.0</ele>
        <time>2019-07-07T06:38:59.824Z</time>
      </trkpt>
      <trkpt lat="42.95836333" lon="0.228725">
        <ele>965.0</ele>
        <time>2019-07-07T06:39:00.837Z</time>
      </trkpt>
      <trkpt lat="42.95836333" lon="0.228725">
        <ele>965.0</ele>
        <time>2019-07-07T06:39:01.822Z</time>
      </trkpt>
      <trkpt lat="42.958265" lon="0.22871333">
        <ele>965.0</ele>
        <time>2019-07-07T06:39:02.837Z</time>
      </trkpt>
      <trkpt lat="42.958215" lon="0.22871">
        <ele>966.0</ele>
        <time>2019-07-07T06:39:03.814Z</time>
      </trkpt>
      <trkpt lat="42.958215" lon="0.22871">
        <ele>966.0</ele>
        <time>2019-07-07T06:39:04.824Z</time>
      </trkpt>
      <trkpt lat="42.958115" lon="0.228705">
        <ele>966.0</ele>
        <time>2019-07-07T06:39:05.833Z</time>
      </trkpt>
      <trkpt lat="42.958115" lon="0.228705">
        <ele>966.0</ele>
        <time>2019-07-07T06:39:06.823Z</time>
      </trkpt>
      <trkpt lat="42.95801167" lon="0.22869833">
        <ele>965.0</ele>
        <time>2019-07-07T06:39:07.834Z</time>
      </trkpt>
      <trkpt lat="42.95801167" lon="0.22869833">
        <ele>965.0</ele>
        <time>2019-07-07T06:39:08.823Z</time>
      </trkpt>
      <trkpt lat="42.95790667" lon="0.22869">
        <ele>965.0</ele>
        <time>2019-07-07T06:39:09.837Z</time>
      </trkpt>
      <trkpt lat="42.95790667" lon="0.22869">
        <ele>965.0</ele>
        <time>2019-07-07T06:39:10.840Z</time>
      </trkpt>
      <trkpt lat="42.95780167" lon="0.22867167">
        <ele>965.0</ele>
        <time>2019-07-07T06:39:11.811Z</time>
      </trkpt>
      <trkpt lat="42.95780167" lon="0.22867167">
        <ele>965.0</ele>
        <time>2019-07-07T06:39:12.839Z</time>
      </trkpt>
      <trkpt lat="42.95770167" lon="0.228635">
        <ele>965.0</ele>
        <time>2019-07-07T06:39:13.839Z</time>
      </trkpt>
      <trkpt lat="42.95765333" lon="0.22861167">
        <ele>965.0</ele>
        <time>2019-07-07T06:39:14.833Z</time>
      </trkpt>
      <trkpt lat="42.95765333" lon="0.22861167">
        <ele>965.0</ele>
        <time>2019-07-07T06:39:15.822Z</time>
      </trkpt>
      <trkpt lat="42.95756" lon="0.22855667">
        <ele>965.0</ele>
        <time>2019-07-07T06:39:16.832Z</time>
      </trkpt>
      <trkpt lat="42.95756" lon="0.22855667">
        <ele>965.0</ele>
        <time>2019-07-07T06:39:17.823Z</time>
      </trkpt>
      <trkpt lat="42.95746833" lon="0.22850167">
        <ele>965.0</ele>
        <time>2019-07-07T06:39:18.832Z</time>
      </trkpt>
      <trkpt lat="42.95746833" lon="0.22850167">
        <ele>965.0</ele>
        <time>2019-07-07T06:39:19.834Z</time>
      </trkpt>
      <trkpt lat="42.95737833" lon="0.22845167">
        <ele>966.0</ele>
        <time>2019-07-07T06:39:20.833Z</time>
      </trkpt>
      <trkpt lat="42.95733333" lon="0.22843">
        <ele>966.0</ele>
        <time>2019-07-07T06:39:21.820Z</time>
      </trkpt>
      <trkpt lat="42.95733333" lon="0.22843">
        <ele>966.0</ele>
        <time>2019-07-07T06:39:22.824Z</time>
      </trkpt>
      <trkpt lat="42.95724667" lon="0.22839333">
        <ele>966.0</ele>
        <time>2019-07-07T06:39:23.833Z</time>
      </trkpt>
      <trkpt lat="42.95724667" lon="0.22839333">
        <ele>966.0</ele>
        <time>2019-07-07T06:39:24.802Z</time>
      </trkpt>
      <trkpt lat="42.95716167" lon="0.22836333">
        <ele>967.0</ele>
        <time>2019-07-07T06:39:25.814Z</time>
      </trkpt>
      <trkpt lat="42.95716167" lon="0.22836333">
        <ele>967.0</ele>
        <time>2019-07-07T06:39:26.824Z</time>
      </trkpt>
      <trkpt lat="42.95708" lon="0.22833">
        <ele>967.0</ele>
        <time>2019-07-07T06:39:27.830Z</time>
      </trkpt>
      <trkpt lat="42.95708" lon="0.22833">
        <ele>967.0</ele>
        <time>2019-07-07T06:39:28.836Z</time>
      </trkpt>
      <trkpt lat="42.95699833" lon="0.228295">
        <ele>968.0</ele>
        <time>2019-07-07T06:39:29.837Z</time>
      </trkpt>
      <trkpt lat="42.95699833" lon="0.228295">
        <ele>968.0</ele>
        <time>2019-07-07T06:39:30.823Z</time>
      </trkpt>
      <trkpt lat="42.95692" lon="0.22826">
        <ele>968.0</ele>
        <time>2019-07-07T06:39:31.817Z</time>
      </trkpt>
      <trkpt lat="42.95692" lon="0.22826">
        <ele>968.0</ele>
        <time>2019-07-07T06:39:32.823Z</time>
      </trkpt>
      <trkpt lat="42.956845" lon="0.22822833">
        <ele>969.0</ele>
        <time>2019-07-07T06:39:33.842Z</time>
      </trkpt>
      <trkpt lat="42.956845" lon="0.22822833">
        <ele>969.0</ele>
        <time>2019-07-07T06:39:34.822Z</time>
      </trkpt>
      <trkpt lat="42.956775" lon="0.228205">
        <ele>969.0</ele>
        <time>2019-07-07T06:39:35.833Z</time>
      </trkpt>
      <trkpt lat="42.956775" lon="0.228205">
        <ele>969.0</ele>
        <time>2019-07-07T06:39:36.824Z</time>
      </trkpt>
      <trkpt lat="42.95670333" lon="0.22817167">
        <ele>970.0</ele>
        <time>2019-07-07T06:39:37.833Z</time>
      </trkpt>
      <trkpt lat="42.95666667" lon="0.22815333">
        <ele>970.0</ele>
        <time>2019-07-07T06:39:38.818Z</time>
      </trkpt>
      <trkpt lat="42.95663" lon="0.22813833">
        <ele>970.0</ele>
        <time>2019-07-07T06:39:39.834Z</time>
      </trkpt>
      <trkpt lat="42.95663" lon="0.22813833">
        <ele>970.0</ele>
        <time>2019-07-07T06:39:40.831Z</time>
      </trkpt>
      <trkpt lat="42.956555" lon="0.22810667">
        <ele>971.0</ele>
        <time>2019-07-07T06:39:41.820Z</time>
      </trkpt>
      <trkpt lat="42.956555" lon="0.22810667">
        <ele>971.0</ele>
        <time>2019-07-07T06:39:42.831Z</time>
      </trkpt>
      <trkpt lat="42.95646833" lon="0.228065">
        <ele>971.0</ele>
        <time>2019-07-07T06:39:43.836Z</time>
      </trkpt>
      <trkpt lat="42.95646833" lon="0.228065">
        <ele>971.0</ele>
        <time>2019-07-07T06:39:44.824Z</time>
      </trkpt>
      <trkpt lat="42.95638167" lon="0.22802667">
        <ele>972.0</ele>
        <time>2019-07-07T06:39:45.837Z</time>
      </trkpt>
      <trkpt lat="42.95634167" lon="0.22800833">
        <ele>972.0</ele>
        <time>2019-07-07T06:39:46.819Z</time>
      </trkpt>
      <trkpt lat="42.95634167" lon="0.22800833">
        <ele>972.0</ele>
        <time>2019-07-07T06:39:47.833Z</time>
      </trkpt>
      <trkpt lat="42.95625833" lon="0.227975">
        <ele>972.0</ele>
        <time>2019-07-07T06:39:48.835Z</time>
      </trkpt>
      <trkpt lat="42.95625833" lon="0.227975">
        <ele>972.0</ele>
        <time>2019-07-07T06:39:49.836Z</time>
      </trkpt>
      <trkpt lat="42.95617667" lon="0.22793833">
        <ele>973.0</ele>
        <time>2019-07-07T06:39:50.802Z</time>
      </trkpt>
      <trkpt lat="42.95617667" lon="0.22793833">
        <ele>973.0</ele>
        <time>2019-07-07T06:39:51.808Z</time>
      </trkpt>
      <trkpt lat="42.95610167" lon="0.227905">
        <ele>973.0</ele>
        <time>2019-07-07T06:39:52.821Z</time>
      </trkpt>
      <trkpt lat="42.95610167" lon="0.227905">
        <ele>973.0</ele>
        <time>2019-07-07T06:39:53.832Z</time>
      </trkpt>
      <trkpt lat="42.95603167" lon="0.22787333">
        <ele>974.0</ele>
        <time>2019-07-07T06:39:54.832Z</time>
      </trkpt>
      <trkpt lat="42.95603167" lon="0.22787333">
        <ele>974.0</ele>
        <time>2019-07-07T06:39:55.832Z</time>
      </trkpt>
      <trkpt lat="42.95595667" lon="0.22785">
        <ele>974.0</ele>
        <time>2019-07-07T06:39:56.836Z</time>
      </trkpt>
      <trkpt lat="42.95595667" lon="0.22785">
        <ele>974.0</ele>
        <time>2019-07-07T06:39:57.827Z</time>
      </trkpt>
      <trkpt lat="42.95587833" lon="0.22784333">
        <ele>975.0</ele>
        <time>2019-07-07T06:39:58.801Z</time>
      </trkpt>
      <trkpt lat="42.95587833" lon="0.22784333">
        <ele>975.0</ele>
        <time>2019-07-07T06:39:59.824Z</time>
      </trkpt>
      <trkpt lat="42.955795" lon="0.22785167">
        <ele>975.0</ele>
        <time>2019-07-07T06:40:00.837Z</time>
      </trkpt>
      <trkpt lat="42.955795" lon="0.22785167">
        <ele>975.0</ele>
        <time>2019-07-07T06:40:01.830Z</time>
      </trkpt>
      <trkpt lat="42.95570833" lon="0.22786">
        <ele>976.0</ele>
        <time>2019-07-07T06:40:02.842Z</time>
      </trkpt>
      <trkpt lat="42.95570833" lon="0.22786">
        <ele>976.0</ele>
        <time>2019-07-07T06:40:03.810Z</time>
      </trkpt>
      <trkpt lat="42.95563" lon="0.22788333">
        <ele>976.0</ele>
        <time>2019-07-07T06:40:04.830Z</time>
      </trkpt>
      <trkpt lat="42.95563" lon="0.22788333">
        <ele>976.0</ele>
        <time>2019-07-07T06:40:05.839Z</time>
      </trkpt>
      <trkpt lat="42.955545" lon="0.22789833">
        <ele>977.0</ele>
        <time>2019-07-07T06:40:06.803Z</time>
      </trkpt>
      <trkpt lat="42.955545" lon="0.22789833">
        <ele>977.0</ele>
        <time>2019-07-07T06:40:07.840Z</time>
      </trkpt>
      <trkpt lat="42.95546333" lon="0.22791833">
        <ele>977.0</ele>
        <time>2019-07-07T06:40:08.806Z</time>
      </trkpt>
      <trkpt lat="42.95546333" lon="0.22791833">
        <ele>977.0</ele>
        <time>2019-07-07T06:40:09.824Z</time>
      </trkpt>
      <trkpt lat="42.95537667" lon="0.22793167">
        <ele>977.0</ele>
        <time>2019-07-07T06:40:10.839Z</time>
      </trkpt>
      <trkpt lat="42.95537667" lon="0.22793167">
        <ele>977.0</ele>
        <time>2019-07-07T06:40:11.807Z</time>
      </trkpt>
      <trkpt lat="42.95528667" lon="0.22794333">
        <ele>977.0</ele>
        <time>2019-07-07T06:40:12.806Z</time>
      </trkpt>
      <trkpt lat="42.95528667" lon="0.22794333">
        <ele>977.0</ele>
        <time>2019-07-07T06:40:13.824Z</time>
      </trkpt>
      <trkpt lat="42.95519333" lon="0.22795167">
        <ele>978.0</ele>
        <time>2019-07-07T06:40:14.839Z</time>
      </trkpt>
      <trkpt lat="42.95519333" lon="0.22795167">
        <ele>978.0</ele>
        <time>2019-07-07T06:40:15.825Z</time>
      </trkpt>
      <trkpt lat="42.955095" lon="0.22795167">
        <ele>978.0</ele>
        <time>2019-07-07T06:40:16.829Z</time>
      </trkpt>
      <trkpt lat="42.955095" lon="0.22795167">
        <ele>978.0</ele>
        <time>2019-07-07T06:40:17.833Z</time>
      </trkpt>
      <trkpt lat="42.95499667" lon="0.22794667">
        <ele>978.0</ele>
        <time>2019-07-07T06:40:18.841Z</time>
      </trkpt>
      <trkpt lat="42.95499667" lon="0.22794667">
        <ele>978.0</ele>
        <time>2019-07-07T06:40:19.821Z</time>
      </trkpt>
      <trkpt lat="42.95489667" lon="0.22794333">
        <ele>978.0</ele>
        <time>2019-07-07T06:40:20.835Z</time>
      </trkpt>
      <trkpt lat="42.95489667" lon="0.22794333">
        <ele>978.0</ele>
        <time>2019-07-07T06:40:21.810Z</time>
      </trkpt>
      <trkpt lat="42.95479667" lon="0.22794333">
        <ele>978.0</ele>
        <time>2019-07-07T06:40:22.829Z</time>
      </trkpt>
      <trkpt lat="42.95479667" lon="0.22794333">
        <ele>978.0</ele>
        <time>2019-07-07T06:40:23.833Z</time>
      </trkpt>
      <trkpt lat="42.9547" lon="0.22795">
        <ele>978.0</ele>
        <time>2019-07-07T06:40:24.842Z</time>
      </trkpt>
      <trkpt lat="42.9547" lon="0.22795">
        <ele>978.0</ele>
        <time>2019-07-07T06:40:25.806Z</time>
      </trkpt>
      <trkpt lat="42.954605" lon="0.22794667">
        <ele>978.0</ele>
        <time>2019-07-07T06:40:26.815Z</time>
      </trkpt>
      <trkpt lat="42.95456" lon="0.22794333">
        <ele>978.0</ele>
        <time>2019-07-07T06:40:27.808Z</time>
      </trkpt>
      <trkpt lat="42.95451167" lon="0.22794">
        <ele>979.0</ele>
        <time>2019-07-07T06:40:28.838Z</time>
      </trkpt>
      <trkpt lat="42.95451167" lon="0.22794">
        <ele>979.0</ele>
        <time>2019-07-07T06:40:29.824Z</time>
      </trkpt>
      <trkpt lat="42.954415" lon="0.22793333">
        <ele>980.0</ele>
        <time>2019-07-07T06:40:30.806Z</time>
      </trkpt>
      <trkpt lat="42.954415" lon="0.22793333">
        <ele>980.0</ele>
        <time>2019-07-07T06:40:31.815Z</time>
      </trkpt>
      <trkpt lat="42.95432333" lon="0.22793333">
        <ele>980.0</ele>
        <time>2019-07-07T06:40:32.827Z</time>
      </trkpt>
      <trkpt lat="42.95427667" lon="0.22793">
        <ele>980.0</ele>
        <time>2019-07-07T06:40:33.817Z</time>
      </trkpt>
      <trkpt lat="42.95427667" lon="0.22793">
        <ele>980.0</ele>
        <time>2019-07-07T06:40:34.825Z</time>
      </trkpt>
      <trkpt lat="42.954185" lon="0.22792667">
        <ele>981.0</ele>
        <time>2019-07-07T06:40:35.837Z</time>
      </trkpt>
      <trkpt lat="42.95414167" lon="0.227925">
        <ele>981.0</ele>
        <time>2019-07-07T06:40:36.834Z</time>
      </trkpt>
      <trkpt lat="42.95414167" lon="0.227925">
        <ele>981.0</ele>
        <time>2019-07-07T06:40:37.834Z</time>
      </trkpt>
      <trkpt lat="42.954055" lon="0.227915">
        <ele>981.0</ele>
        <time>2019-07-07T06:40:38.835Z</time>
      </trkpt>
      <trkpt lat="42.954055" lon="0.227915">
        <ele>981.0</ele>
        <time>2019-07-07T06:40:39.836Z</time>
      </trkpt>
      <trkpt lat="42.95396833" lon="0.22790333">
        <ele>982.0</ele>
        <time>2019-07-07T06:40:40.839Z</time>
      </trkpt>
      <trkpt lat="42.95396833" lon="0.22790333">
        <ele>982.0</ele>
        <time>2019-07-07T06:40:41.811Z</time>
      </trkpt>
      <trkpt lat="42.95388333" lon="0.22789167">
        <ele>982.0</ele>
        <time>2019-07-07T06:40:42.837Z</time>
      </trkpt>
      <trkpt lat="42.95388333" lon="0.22789167">
        <ele>982.0</ele>
        <time>2019-07-07T06:40:43.832Z</time>
      </trkpt>
      <trkpt lat="42.95380333" lon="0.22787167">
        <ele>982.0</ele>
        <time>2019-07-07T06:40:44.836Z</time>
      </trkpt>
      <trkpt lat="42.95380333" lon="0.22787167">
        <ele>982.0</ele>
        <time>2019-07-07T06:40:45.805Z</time>
      </trkpt>
      <trkpt lat="42.95372333" lon="0.227845">
        <ele>982.0</ele>
        <time>2019-07-07T06:40:46.837Z</time>
      </trkpt>
      <trkpt lat="42.95372333" lon="0.227845">
        <ele>982.0</ele>
        <time>2019-07-07T06:40:47.819Z</time>
      </trkpt>
      <trkpt lat="42.95364167" lon="0.227815">
        <ele>982.0</ele>
        <time>2019-07-07T06:40:48.815Z</time>
      </trkpt>
      <trkpt lat="42.95359667" lon="0.22780333">
        <ele>982.0</ele>
        <time>2019-07-07T06:40:49.827Z</time>
      </trkpt>
      <trkpt lat="42.95359667" lon="0.22780333">
        <ele>982.0</ele>
        <time>2019-07-07T06:40:50.825Z</time>
      </trkpt>
      <trkpt lat="42.95351333" lon="0.227765">
        <ele>982.0</ele>
        <time>2019-07-07T06:40:51.847Z</time>
      </trkpt>
      <trkpt lat="42.95347167" lon="0.22774333">
        <ele>982.0</ele>
        <time>2019-07-07T06:40:52.838Z</time>
      </trkpt>
      <trkpt lat="42.95343" lon="0.22772">
        <ele>982.0</ele>
        <time>2019-07-07T06:40:53.830Z</time>
      </trkpt>
      <trkpt lat="42.95339" lon="0.22769667">
        <ele>983.0</ele>
        <time>2019-07-07T06:40:54.831Z</time>
      </trkpt>
      <trkpt lat="42.95339" lon="0.22769667">
        <ele>983.0</ele>
        <time>2019-07-07T06:40:55.839Z</time>
      </trkpt>
      <trkpt lat="42.95331" lon="0.22765">
        <ele>983.0</ele>
        <time>2019-07-07T06:40:56.840Z</time>
      </trkpt>
      <trkpt lat="42.95331" lon="0.22765">
        <ele>983.0</ele>
        <time>2019-07-07T06:40:57.826Z</time>
      </trkpt>
      <trkpt lat="42.953225" lon="0.2276">
        <ele>984.0</ele>
        <time>2019-07-07T06:40:58.802Z</time>
      </trkpt>
      <trkpt lat="42.953225" lon="0.2276">
        <ele>984.0</ele>
        <time>2019-07-07T06:40:59.825Z</time>
      </trkpt>
      <trkpt lat="42.953135" lon="0.22755833">
        <ele>985.0</ele>
        <time>2019-07-07T06:41:00.842Z</time>
      </trkpt>
      <trkpt lat="42.953135" lon="0.22755833">
        <ele>985.0</ele>
        <time>2019-07-07T06:41:01.832Z</time>
      </trkpt>
      <trkpt lat="42.953045" lon="0.227515">
        <ele>985.0</ele>
        <time>2019-07-07T06:41:02.806Z</time>
      </trkpt>
      <trkpt lat="42.953045" lon="0.227515">
        <ele>985.0</ele>
        <time>2019-07-07T06:41:03.807Z</time>
      </trkpt>
      <trkpt lat="42.95296167" lon="0.227475">
        <ele>986.0</ele>
        <time>2019-07-07T06:41:04.812Z</time>
      </trkpt>
      <trkpt lat="42.95296167" lon="0.227475">
        <ele>986.0</ele>
        <time>2019-07-07T06:41:05.834Z</time>
      </trkpt>
      <trkpt lat="42.95287833" lon="0.227435">
        <ele>986.0</ele>
        <time>2019-07-07T06:41:06.837Z</time>
      </trkpt>
      <trkpt lat="42.95287833" lon="0.227435">
        <ele>986.0</ele>
        <time>2019-07-07T06:41:07.839Z</time>
      </trkpt>
      <trkpt lat="42.95279833" lon="0.22739667">
        <ele>987.0</ele>
        <time>2019-07-07T06:41:08.839Z</time>
      </trkpt>
      <trkpt lat="42.95275667" lon="0.22737833">
        <ele>987.0</ele>
        <time>2019-07-07T06:41:09.831Z</time>
      </trkpt>
      <trkpt lat="42.952715" lon="0.22736">
        <ele>987.0</ele>
        <time>2019-07-07T06:41:10.839Z</time>
      </trkpt>
      <trkpt lat="42.952715" lon="0.22736">
        <ele>987.0</ele>
        <time>2019-07-07T06:41:11.840Z</time>
      </trkpt>
      <trkpt lat="42.95262833" lon="0.227315">
        <ele>988.0</ele>
        <time>2019-07-07T06:41:12.807Z</time>
      </trkpt>
      <trkpt lat="42.95262833" lon="0.227315">
        <ele>988.0</ele>
        <time>2019-07-07T06:41:13.833Z</time>
      </trkpt>
      <trkpt lat="42.95254167" lon="0.227275">
        <ele>989.0</ele>
        <time>2019-07-07T06:41:14.814Z</time>
      </trkpt>
      <trkpt lat="42.9525" lon="0.22725833">
        <ele>989.0</ele>
        <time>2019-07-07T06:41:15.842Z</time>
      </trkpt>
      <trkpt lat="42.95245667" lon="0.22724">
        <ele>989.0</ele>
        <time>2019-07-07T06:41:16.802Z</time>
      </trkpt>
      <trkpt lat="42.95245667" lon="0.22724">
        <ele>989.0</ele>
        <time>2019-07-07T06:41:17.833Z</time>
      </trkpt>
      <trkpt lat="42.95237333" lon="0.22719667">
        <ele>990.0</ele>
        <time>2019-07-07T06:41:18.843Z</time>
      </trkpt>
      <trkpt lat="42.95237333" lon="0.22719667">
        <ele>990.0</ele>
        <time>2019-07-07T06:41:19.832Z</time>
      </trkpt>
      <trkpt lat="42.95229333" lon="0.22714667">
        <ele>990.0</ele>
        <time>2019-07-07T06:41:20.836Z</time>
      </trkpt>
      <trkpt lat="42.95229333" lon="0.22714667">
        <ele>990.0</ele>
        <time>2019-07-07T06:41:21.807Z</time>
      </trkpt>
      <trkpt lat="42.95221333" lon="0.22709">
        <ele>990.0</ele>
        <time>2019-07-07T06:41:22.806Z</time>
      </trkpt>
      <trkpt lat="42.95221333" lon="0.22709">
        <ele>990.0</ele>
        <time>2019-07-07T06:41:23.823Z</time>
      </trkpt>
      <trkpt lat="42.95214167" lon="0.22702667">
        <ele>990.0</ele>
        <time>2019-07-07T06:41:24.840Z</time>
      </trkpt>
      <trkpt lat="42.95214167" lon="0.22702667">
        <ele>990.0</ele>
        <time>2019-07-07T06:41:25.809Z</time>
      </trkpt>
      <trkpt lat="42.95205667" lon="0.22696">
        <ele>990.0</ele>
        <time>2019-07-07T06:41:26.831Z</time>
      </trkpt>
      <trkpt lat="42.95205667" lon="0.22696">
        <ele>990.0</ele>
        <time>2019-07-07T06:41:27.838Z</time>
      </trkpt>
      <trkpt lat="42.951975" lon="0.22689">
        <ele>991.0</ele>
        <time>2019-07-07T06:41:28.837Z</time>
      </trkpt>
      <trkpt lat="42.951975" lon="0.22689">
        <ele>991.0</ele>
        <time>2019-07-07T06:41:29.825Z</time>
      </trkpt>
      <trkpt lat="42.95189667" lon="0.22681833">
        <ele>991.0</ele>
        <time>2019-07-07T06:41:30.806Z</time>
      </trkpt>
      <trkpt lat="42.951855" lon="0.22678667">
        <ele>991.0</ele>
        <time>2019-07-07T06:41:31.840Z</time>
      </trkpt>
      <trkpt lat="42.951855" lon="0.22678667">
        <ele>991.0</ele>
        <time>2019-07-07T06:41:32.822Z</time>
      </trkpt>
      <trkpt lat="42.95177" lon="0.22671833">
        <ele>991.0</ele>
        <time>2019-07-07T06:41:33.820Z</time>
      </trkpt>
      <trkpt lat="42.95177" lon="0.22671833">
        <ele>991.0</ele>
        <time>2019-07-07T06:41:34.826Z</time>
      </trkpt>
      <trkpt lat="42.95168167" lon="0.22665">
        <ele>991.0</ele>
        <time>2019-07-07T06:41:35.837Z</time>
      </trkpt>
      <trkpt lat="42.95163667" lon="0.22661333">
        <ele>991.0</ele>
        <time>2019-07-07T06:41:36.829Z</time>
      </trkpt>
      <trkpt lat="42.95163667" lon="0.22661333">
        <ele>991.0</ele>
        <time>2019-07-07T06:41:37.827Z</time>
      </trkpt>
      <trkpt lat="42.95154333" lon="0.22654">
        <ele>991.0</ele>
        <time>2019-07-07T06:41:38.812Z</time>
      </trkpt>
      <trkpt lat="42.95154333" lon="0.22654">
        <ele>991.0</ele>
        <time>2019-07-07T06:41:39.824Z</time>
      </trkpt>
      <trkpt lat="42.95145" lon="0.22646833">
        <ele>991.0</ele>
        <time>2019-07-07T06:41:40.843Z</time>
      </trkpt>
      <trkpt lat="42.95145" lon="0.22646833">
        <ele>991.0</ele>
        <time>2019-07-07T06:41:41.834Z</time>
      </trkpt>
      <trkpt lat="42.95135667" lon="0.22639">
        <ele>990.0</ele>
        <time>2019-07-07T06:41:42.843Z</time>
      </trkpt>
      <trkpt lat="42.95135667" lon="0.22639">
        <ele>990.0</ele>
        <time>2019-07-07T06:41:43.807Z</time>
      </trkpt>
      <trkpt lat="42.95126333" lon="0.226315">
        <ele>990.0</ele>
        <time>2019-07-07T06:41:44.832Z</time>
      </trkpt>
      <trkpt lat="42.95126333" lon="0.226315">
        <ele>990.0</ele>
        <time>2019-07-07T06:41:45.803Z</time>
      </trkpt>
      <trkpt lat="42.95117" lon="0.22624333">
        <ele>990.0</ele>
        <time>2019-07-07T06:41:46.801Z</time>
      </trkpt>
      <trkpt lat="42.95117" lon="0.22624333">
        <ele>990.0</ele>
        <time>2019-07-07T06:41:47.832Z</time>
      </trkpt>
      <trkpt lat="42.95107667" lon="0.22617833">
        <ele>990.0</ele>
        <time>2019-07-07T06:41:48.839Z</time>
      </trkpt>
      <trkpt lat="42.95102833" lon="0.22615">
        <ele>990.0</ele>
        <time>2019-07-07T06:41:49.832Z</time>
      </trkpt>
      <trkpt lat="42.95102833" lon="0.22615">
        <ele>990.0</ele>
        <time>2019-07-07T06:41:50.825Z</time>
      </trkpt>
      <trkpt lat="42.95093833" lon="0.2261">
        <ele>990.0</ele>
        <time>2019-07-07T06:41:51.827Z</time>
      </trkpt>
      <trkpt lat="42.950895" lon="0.22607833">
        <ele>991.0</ele>
        <time>2019-07-07T06:41:52.809Z</time>
      </trkpt>
      <trkpt lat="42.950895" lon="0.22607833">
        <ele>991.0</ele>
        <time>2019-07-07T06:41:53.826Z</time>
      </trkpt>
      <trkpt lat="42.95081333" lon="0.22603333">
        <ele>991.0</ele>
        <time>2019-07-07T06:41:54.809Z</time>
      </trkpt>
      <trkpt lat="42.95081333" lon="0.22603333">
        <ele>991.0</ele>
        <time>2019-07-07T06:41:55.826Z</time>
      </trkpt>
      <trkpt lat="42.95072833" lon="0.22599333">
        <ele>992.0</ele>
        <time>2019-07-07T06:41:56.838Z</time>
      </trkpt>
      <trkpt lat="42.95072833" lon="0.22599333">
        <ele>992.0</ele>
        <time>2019-07-07T06:41:57.835Z</time>
      </trkpt>
      <trkpt lat="42.950645" lon="0.22595">
        <ele>992.0</ele>
        <time>2019-07-07T06:41:58.811Z</time>
      </trkpt>
      <trkpt lat="42.950645" lon="0.22595">
        <ele>992.0</ele>
        <time>2019-07-07T06:41:59.834Z</time>
      </trkpt>
      <trkpt lat="42.95056333" lon="0.22590833">
        <ele>993.0</ele>
        <time>2019-07-07T06:42:00.843Z</time>
      </trkpt>
      <trkpt lat="42.95056333" lon="0.22590833">
        <ele>993.0</ele>
        <time>2019-07-07T06:42:01.811Z</time>
      </trkpt>
      <trkpt lat="42.95048167" lon="0.22587167">
        <ele>993.0</ele>
        <time>2019-07-07T06:42:02.832Z</time>
      </trkpt>
      <trkpt lat="42.95048167" lon="0.22587167">
        <ele>993.0</ele>
        <time>2019-07-07T06:42:03.840Z</time>
      </trkpt>
      <trkpt lat="42.95040333" lon="0.22582667">
        <ele>994.0</ele>
        <time>2019-07-07T06:42:04.801Z</time>
      </trkpt>
      <trkpt lat="42.95040333" lon="0.22582667">
        <ele>994.0</ele>
        <time>2019-07-07T06:42:05.823Z</time>
      </trkpt>
      <trkpt lat="42.95032667" lon="0.22578667">
        <ele>995.0</ele>
        <time>2019-07-07T06:42:06.837Z</time>
      </trkpt>
      <trkpt lat="42.95032667" lon="0.22578667">
        <ele>995.0</ele>
        <time>2019-07-07T06:42:07.839Z</time>
      </trkpt>
      <trkpt lat="42.95026" lon="0.22574667">
        <ele>996.0</ele>
        <time>2019-07-07T06:42:08.801Z</time>
      </trkpt>
      <trkpt lat="42.95026" lon="0.22574667">
        <ele>996.0</ele>
        <time>2019-07-07T06:42:09.826Z</time>
      </trkpt>
      <trkpt lat="42.95019167" lon="0.225705">
        <ele>996.0</ele>
        <time>2019-07-07T06:42:10.839Z</time>
      </trkpt>
      <trkpt lat="42.95019167" lon="0.225705">
        <ele>996.0</ele>
        <time>2019-07-07T06:42:11.834Z</time>
      </trkpt>
      <trkpt lat="42.950125" lon="0.22566333">
        <ele>997.0</ele>
        <time>2019-07-07T06:42:12.814Z</time>
      </trkpt>
      <trkpt lat="42.950125" lon="0.22566333">
        <ele>997.0</ele>
        <time>2019-07-07T06:42:13.824Z</time>
      </trkpt>
      <trkpt lat="42.95005333" lon="0.22562667">
        <ele>997.0</ele>
        <time>2019-07-07T06:42:14.837Z</time>
      </trkpt>
      <trkpt lat="42.95001833" lon="0.22561167">
        <ele>998.0</ele>
        <time>2019-07-07T06:42:15.832Z</time>
      </trkpt>
      <trkpt lat="42.94998333" lon="0.22560333">
        <ele>999.0</ele>
        <time>2019-07-07T06:42:16.832Z</time>
      </trkpt>
      <trkpt lat="42.94998333" lon="0.22560333">
        <ele>999.0</ele>
        <time>2019-07-07T06:42:17.806Z</time>
      </trkpt>
      <trkpt lat="42.94992" lon="0.225585">
        <ele>999.0</ele>
        <time>2019-07-07T06:42:18.838Z</time>
      </trkpt>
      <trkpt lat="42.94992" lon="0.225585">
        <ele>999.0</ele>
        <time>2019-07-07T06:42:19.826Z</time>
      </trkpt>
      <trkpt lat="42.94986167" lon="0.22557333">
        <ele>1000.0</ele>
        <time>2019-07-07T06:42:20.807Z</time>
      </trkpt>
      <trkpt lat="42.94986167" lon="0.22557333">
        <ele>1000.0</ele>
        <time>2019-07-07T06:42:21.811Z</time>
      </trkpt>
      <trkpt lat="42.94979833" lon="0.22556167">
        <ele>1001.0</ele>
        <time>2019-07-07T06:42:22.822Z</time>
      </trkpt>
      <trkpt lat="42.94979833" lon="0.22556167">
        <ele>1001.0</ele>
        <time>2019-07-07T06:42:23.808Z</time>
      </trkpt>
      <trkpt lat="42.949735" lon="0.22555">
        <ele>1002.0</ele>
        <time>2019-07-07T06:42:24.806Z</time>
      </trkpt>
      <trkpt lat="42.949735" lon="0.22555">
        <ele>1002.0</ele>
        <time>2019-07-07T06:42:25.826Z</time>
      </trkpt>
      <trkpt lat="42.94967167" lon="0.22554">
        <ele>1002.0</ele>
        <time>2019-07-07T06:42:26.837Z</time>
      </trkpt>
      <trkpt lat="42.94964167" lon="0.22553667">
        <ele>1003.0</ele>
        <time>2019-07-07T06:42:27.827Z</time>
      </trkpt>
      <trkpt lat="42.94961167" lon="0.22552833">
        <ele>1004.0</ele>
        <time>2019-07-07T06:42:28.837Z</time>
      </trkpt>
      <trkpt lat="42.94961167" lon="0.22552833">
        <ele>1004.0</ele>
        <time>2019-07-07T06:42:29.836Z</time>
      </trkpt>
      <trkpt lat="42.94955167" lon="0.22551167">
        <ele>1004.0</ele>
        <time>2019-07-07T06:42:30.802Z</time>
      </trkpt>
      <trkpt lat="42.94952333" lon="0.22549833">
        <ele>1005.0</ele>
        <time>2019-07-07T06:42:31.820Z</time>
      </trkpt>
      <trkpt lat="42.94949333" lon="0.22548333">
        <ele>1005.0</ele>
        <time>2019-07-07T06:42:32.842Z</time>
      </trkpt>
      <trkpt lat="42.94949333" lon="0.22548333">
        <ele>1005.0</ele>
        <time>2019-07-07T06:42:33.839Z</time>
      </trkpt>
      <trkpt lat="42.94943833" lon="0.22544833">
        <ele>1006.0</ele>
        <time>2019-07-07T06:42:34.801Z</time>
      </trkpt>
      <trkpt lat="42.94943833" lon="0.22544833">
        <ele>1006.0</ele>
        <time>2019-07-07T06:42:35.824Z</time>
      </trkpt>
      <trkpt lat="42.949385" lon="0.22541">
        <ele>1007.0</ele>
        <time>2019-07-07T06:42:36.837Z</time>
      </trkpt>
      <trkpt lat="42.949385" lon="0.22541">
        <ele>1007.0</ele>
        <time>2019-07-07T06:42:37.826Z</time>
      </trkpt>
      <trkpt lat="42.94933167" lon="0.22535667">
        <ele>1008.0</ele>
        <time>2019-07-07T06:42:38.803Z</time>
      </trkpt>
      <trkpt lat="42.94933167" lon="0.22535667">
        <ele>1008.0</ele>
        <time>2019-07-07T06:42:39.826Z</time>
      </trkpt>
      <trkpt lat="42.94928333" lon="0.2253">
        <ele>1009.0</ele>
        <time>2019-07-07T06:42:40.839Z</time>
      </trkpt>
      <trkpt lat="42.94928333" lon="0.2253">
        <ele>1009.0</ele>
        <time>2019-07-07T06:42:41.835Z</time>
      </trkpt>
      <trkpt lat="42.94923667" lon="0.22523667">
        <ele>1008.0</ele>
        <time>2019-07-07T06:42:42.807Z</time>
      </trkpt>
      <trkpt lat="42.94923667" lon="0.22523667">
        <ele>1008.0</ele>
        <time>2019-07-07T06:42:43.826Z</time>
      </trkpt>
      <trkpt lat="42.94918667" lon="0.22516667">
        <ele>1008.0</ele>
        <time>2019-07-07T06:42:44.840Z</time>
      </trkpt>
      <trkpt lat="42.94918667" lon="0.22516667">
        <ele>1008.0</ele>
        <time>2019-07-07T06:42:45.826Z</time>
      </trkpt>
      <trkpt lat="42.94913833" lon="0.225095">
        <ele>1008.0</ele>
        <time>2019-07-07T06:42:46.803Z</time>
      </trkpt>
      <trkpt lat="42.94913833" lon="0.225095">
        <ele>1008.0</ele>
        <time>2019-07-07T06:42:47.805Z</time>
      </trkpt>
      <trkpt lat="42.94909167" lon="0.22502">
        <ele>1008.0</ele>
        <time>2019-07-07T06:42:48.819Z</time>
      </trkpt>
      <trkpt lat="42.94907167" lon="0.22498">
        <ele>1009.0</ele>
        <time>2019-07-07T06:42:49.834Z</time>
      </trkpt>
      <trkpt lat="42.94907167" lon="0.22498">
        <ele>1009.0</ele>
        <time>2019-07-07T06:42:50.833Z</time>
      </trkpt>
      <trkpt lat="42.94903667" lon="0.22489">
        <ele>1008.0</ele>
        <time>2019-07-07T06:42:51.809Z</time>
      </trkpt>
      <trkpt lat="42.94903667" lon="0.22489">
        <ele>1008.0</ele>
        <time>2019-07-07T06:42:52.837Z</time>
      </trkpt>
      <trkpt lat="42.949005" lon="0.22479833">
        <ele>1008.0</ele>
        <time>2019-07-07T06:42:53.812Z</time>
      </trkpt>
      <trkpt lat="42.94898833" lon="0.224755">
        <ele>1009.0</ele>
        <time>2019-07-07T06:42:54.801Z</time>
      </trkpt>
      <trkpt lat="42.94898833" lon="0.224755">
        <ele>1009.0</ele>
        <time>2019-07-07T06:42:55.824Z</time>
      </trkpt>
      <trkpt lat="42.94895" lon="0.22467667">
        <ele>1009.0</ele>
        <time>2019-07-07T06:42:56.801Z</time>
      </trkpt>
      <trkpt lat="42.94895" lon="0.22467667">
        <ele>1009.0</ele>
        <time>2019-07-07T06:42:57.826Z</time>
      </trkpt>
      <trkpt lat="42.94890333" lon="0.22461">
        <ele>1010.0</ele>
        <time>2019-07-07T06:42:58.821Z</time>
      </trkpt>
      <trkpt lat="42.94890333" lon="0.22461">
        <ele>1010.0</ele>
        <time>2019-07-07T06:42:59.835Z</time>
      </trkpt>
      <trkpt lat="42.948845" lon="0.22455667">
        <ele>1011.0</ele>
        <time>2019-07-07T06:43:00.837Z</time>
      </trkpt>
      <trkpt lat="42.948845" lon="0.22455667">
        <ele>1011.0</ele>
        <time>2019-07-07T06:43:01.815Z</time>
      </trkpt>
      <trkpt lat="42.94878" lon="0.224515">
        <ele>1011.0</ele>
        <time>2019-07-07T06:43:02.829Z</time>
      </trkpt>
      <trkpt lat="42.948745" lon="0.2245">
        <ele>1012.0</ele>
        <time>2019-07-07T06:43:03.801Z</time>
      </trkpt>
      <trkpt lat="42.94871333" lon="0.22448667">
        <ele>1012.0</ele>
        <time>2019-07-07T06:43:04.840Z</time>
      </trkpt>
      <trkpt lat="42.94871333" lon="0.22448667">
        <ele>1012.0</ele>
        <time>2019-07-07T06:43:05.824Z</time>
      </trkpt>
      <trkpt lat="42.948645" lon="0.224465">
        <ele>1013.0</ele>
        <time>2019-07-07T06:43:06.802Z</time>
      </trkpt>
      <trkpt lat="42.948645" lon="0.224465">
        <ele>1013.0</ele>
        <time>2019-07-07T06:43:07.826Z</time>
      </trkpt>
      <trkpt lat="42.94857667" lon="0.224445">
        <ele>1013.0</ele>
        <time>2019-07-07T06:43:08.837Z</time>
      </trkpt>
      <trkpt lat="42.94854333" lon="0.22443667">
        <ele>1013.0</ele>
        <time>2019-07-07T06:43:09.822Z</time>
      </trkpt>
      <trkpt lat="42.94850833" lon="0.22442667">
        <ele>1013.0</ele>
        <time>2019-07-07T06:43:10.832Z</time>
      </trkpt>
      <trkpt lat="42.94850833" lon="0.22442667">
        <ele>1013.0</ele>
        <time>2019-07-07T06:43:11.809Z</time>
      </trkpt>
      <trkpt lat="42.94844" lon="0.22440333">
        <ele>1013.0</ele>
        <time>2019-07-07T06:43:12.842Z</time>
      </trkpt>
      <trkpt lat="42.94844" lon="0.22440333">
        <ele>1013.0</ele>
        <time>2019-07-07T06:43:13.827Z</time>
      </trkpt>
      <trkpt lat="42.94837667" lon="0.22438167">
        <ele>1013.0</ele>
        <time>2019-07-07T06:43:14.812Z</time>
      </trkpt>
      <trkpt lat="42.948345" lon="0.22437">
        <ele>1013.0</ele>
        <time>2019-07-07T06:43:15.806Z</time>
      </trkpt>
      <trkpt lat="42.94831167" lon="0.22435667">
        <ele>1014.0</ele>
        <time>2019-07-07T06:43:16.804Z</time>
      </trkpt>
      <trkpt lat="42.94831167" lon="0.22435667">
        <ele>1014.0</ele>
        <time>2019-07-07T06:43:17.810Z</time>
      </trkpt>
      <trkpt lat="42.948245" lon="0.22432">
        <ele>1014.0</ele>
        <time>2019-07-07T06:43:18.820Z</time>
      </trkpt>
      <trkpt lat="42.94821" lon="0.22429833">
        <ele>1014.0</ele>
        <time>2019-07-07T06:43:19.808Z</time>
      </trkpt>
      <trkpt lat="42.948175" lon="0.22427833">
        <ele>1014.0</ele>
        <time>2019-07-07T06:43:20.803Z</time>
      </trkpt>
      <trkpt lat="42.94814" lon="0.22425667">
        <ele>1014.0</ele>
        <time>2019-07-07T06:43:21.817Z</time>
      </trkpt>
      <trkpt lat="42.94810333" lon="0.22423333">
        <ele>1014.0</ele>
        <time>2019-07-07T06:43:22.840Z</time>
      </trkpt>
      <trkpt lat="42.94810333" lon="0.22423333">
        <ele>1014.0</ele>
        <time>2019-07-07T06:43:23.841Z</time>
      </trkpt>
      <trkpt lat="42.94803" lon="0.22418833">
        <ele>1014.0</ele>
        <time>2019-07-07T06:43:24.802Z</time>
      </trkpt>
      <trkpt lat="42.94803" lon="0.22418833">
        <ele>1014.0</ele>
        <time>2019-07-07T06:43:25.818Z</time>
      </trkpt>
      <trkpt lat="42.94795667" lon="0.22414333">
        <ele>1014.0</ele>
        <time>2019-07-07T06:43:26.827Z</time>
      </trkpt>
      <trkpt lat="42.94795667" lon="0.22414333">
        <ele>1014.0</ele>
        <time>2019-07-07T06:43:27.828Z</time>
      </trkpt>
      <trkpt lat="42.94788167" lon="0.22409667">
        <ele>1015.0</ele>
        <time>2019-07-07T06:43:28.817Z</time>
      </trkpt>
      <trkpt lat="42.94788167" lon="0.22409667">
        <ele>1015.0</ele>
        <time>2019-07-07T06:43:29.826Z</time>
      </trkpt>
      <trkpt lat="42.94780667" lon="0.22405">
        <ele>1015.0</ele>
        <time>2019-07-07T06:43:30.841Z</time>
      </trkpt>
      <trkpt lat="42.94780667" lon="0.22405">
        <ele>1015.0</ele>
        <time>2019-07-07T06:43:31.834Z</time>
      </trkpt>
      <trkpt lat="42.94773" lon="0.22400167">
        <ele>1015.0</ele>
        <time>2019-07-07T06:43:32.829Z</time>
      </trkpt>
      <trkpt lat="42.94773" lon="0.22400167">
        <ele>1015.0</ele>
        <time>2019-07-07T06:43:33.802Z</time>
      </trkpt>
      <trkpt lat="42.94766167" lon="0.22394333">
        <ele>1015.0</ele>
        <time>2019-07-07T06:43:34.801Z</time>
      </trkpt>
      <trkpt lat="42.94766167" lon="0.22394333">
        <ele>1015.0</ele>
        <time>2019-07-07T06:43:35.824Z</time>
      </trkpt>
      <trkpt lat="42.947595" lon="0.22388333">
        <ele>1015.0</ele>
        <time>2019-07-07T06:43:36.801Z</time>
      </trkpt>
      <trkpt lat="42.947595" lon="0.22388333">
        <ele>1015.0</ele>
        <time>2019-07-07T06:43:37.826Z</time>
      </trkpt>
      <trkpt lat="42.94753333" lon="0.22382167">
        <ele>1016.0</ele>
        <time>2019-07-07T06:43:38.806Z</time>
      </trkpt>
      <trkpt lat="42.94753333" lon="0.22382167">
        <ele>1016.0</ele>
        <time>2019-07-07T06:43:39.824Z</time>
      </trkpt>
      <trkpt lat="42.94747667" lon="0.22376333">
        <ele>1016.0</ele>
        <time>2019-07-07T06:43:40.802Z</time>
      </trkpt>
      <trkpt lat="42.94747667" lon="0.22376333">
        <ele>1016.0</ele>
        <time>2019-07-07T06:43:41.802Z</time>
      </trkpt>
      <trkpt lat="42.94742167" lon="0.22370667">
        <ele>1017.0</ele>
        <time>2019-07-07T06:43:42.806Z</time>
      </trkpt>
      <trkpt lat="42.94739333" lon="0.22367833">
        <ele>1017.0</ele>
        <time>2019-07-07T06:43:43.828Z</time>
      </trkpt>
      <trkpt lat="42.94739333" lon="0.22367833">
        <ele>1017.0</ele>
        <time>2019-07-07T06:43:44.835Z</time>
      </trkpt>
      <trkpt lat="42.94733833" lon="0.22361833">
        <ele>1018.0</ele>
        <time>2019-07-07T06:43:45.822Z</time>
      </trkpt>
      <trkpt lat="42.94733833" lon="0.22361833">
        <ele>1018.0</ele>
        <time>2019-07-07T06:43:46.829Z</time>
      </trkpt>
      <trkpt lat="42.94728167" lon="0.22356167">
        <ele>1018.0</ele>
        <time>2019-07-07T06:43:47.811Z</time>
      </trkpt>
      <trkpt lat="42.94728167" lon="0.22356167">
        <ele>1018.0</ele>
        <time>2019-07-07T06:43:48.821Z</time>
      </trkpt>
      <trkpt lat="42.94722667" lon="0.22349833">
        <ele>1018.0</ele>
        <time>2019-07-07T06:43:49.828Z</time>
      </trkpt>
      <trkpt lat="42.94722667" lon="0.22349833">
        <ele>1018.0</ele>
        <time>2019-07-07T06:43:50.814Z</time>
      </trkpt>
      <trkpt lat="42.94717167" lon="0.22343167">
        <ele>1019.0</ele>
        <time>2019-07-07T06:43:51.809Z</time>
      </trkpt>
      <trkpt lat="42.94714833" lon="0.223395">
        <ele>1020.0</ele>
        <time>2019-07-07T06:43:52.803Z</time>
      </trkpt>
      <trkpt lat="42.94714833" lon="0.223395">
        <ele>1020.0</ele>
        <time>2019-07-07T06:43:53.829Z</time>
      </trkpt>
      <trkpt lat="42.94710333" lon="0.22331333">
        <ele>1020.0</ele>
        <time>2019-07-07T06:43:54.812Z</time>
      </trkpt>
      <trkpt lat="42.94710333" lon="0.22331333">
        <ele>1020.0</ele>
        <time>2019-07-07T06:43:55.835Z</time>
      </trkpt>
      <trkpt lat="42.94705833" lon="0.22323333">
        <ele>1021.0</ele>
        <time>2019-07-07T06:43:56.803Z</time>
      </trkpt>
      <trkpt lat="42.94705833" lon="0.22323333">
        <ele>1021.0</ele>
        <time>2019-07-07T06:43:57.824Z</time>
      </trkpt>
      <trkpt lat="42.94701167" lon="0.22315">
        <ele>1021.0</ele>
        <time>2019-07-07T06:43:58.802Z</time>
      </trkpt>
      <trkpt lat="42.94698833" lon="0.22310833">
        <ele>1022.0</ele>
        <time>2019-07-07T06:43:59.825Z</time>
      </trkpt>
      <trkpt lat="42.94698833" lon="0.22310833">
        <ele>1022.0</ele>
        <time>2019-07-07T06:44:00.803Z</time>
      </trkpt>
      <trkpt lat="42.94694333" lon="0.22302">
        <ele>1022.0</ele>
        <time>2019-07-07T06:44:01.819Z</time>
      </trkpt>
      <trkpt lat="42.94694333" lon="0.22302">
        <ele>1022.0</ele>
        <time>2019-07-07T06:44:02.826Z</time>
      </trkpt>
      <trkpt lat="42.9469" lon="0.222925">
        <ele>1022.0</ele>
        <time>2019-07-07T06:44:03.820Z</time>
      </trkpt>
      <trkpt lat="42.94687667" lon="0.22288167">
        <ele>1022.0</ele>
        <time>2019-07-07T06:44:04.828Z</time>
      </trkpt>
      <trkpt lat="42.94687667" lon="0.22288167">
        <ele>1022.0</ele>
        <time>2019-07-07T06:44:05.839Z</time>
      </trkpt>
      <trkpt lat="42.946835" lon="0.22279167">
        <ele>1023.0</ele>
        <time>2019-07-07T06:44:06.804Z</time>
      </trkpt>
      <trkpt lat="42.946835" lon="0.22279167">
        <ele>1023.0</ele>
        <time>2019-07-07T06:44:07.839Z</time>
      </trkpt>
      <trkpt lat="42.94680333" lon="0.22269833">
        <ele>1024.0</ele>
        <time>2019-07-07T06:44:08.841Z</time>
      </trkpt>
      <trkpt lat="42.94679167" lon="0.222655">
        <ele>1024.0</ele>
        <time>2019-07-07T06:44:09.829Z</time>
      </trkpt>
      <trkpt lat="42.94678" lon="0.22260833">
        <ele>1025.0</ele>
        <time>2019-07-07T06:44:10.833Z</time>
      </trkpt>
      <trkpt lat="42.94678" lon="0.22260833">
        <ele>1025.0</ele>
        <time>2019-07-07T06:44:11.836Z</time>
      </trkpt>
      <trkpt lat="42.94676" lon="0.22252">
        <ele>1025.0</ele>
        <time>2019-07-07T06:44:12.801Z</time>
      </trkpt>
      <trkpt lat="42.94676" lon="0.22252">
        <ele>1025.0</ele>
        <time>2019-07-07T06:44:13.814Z</time>
      </trkpt>
      <trkpt lat="42.94674333" lon="0.22243333">
        <ele>1026.0</ele>
        <time>2019-07-07T06:44:14.802Z</time>
      </trkpt>
      <trkpt lat="42.94674333" lon="0.22243333">
        <ele>1026.0</ele>
        <time>2019-07-07T06:44:15.835Z</time>
      </trkpt>
      <trkpt lat="42.946725" lon="0.22235167">
        <ele>1027.0</ele>
        <time>2019-07-07T06:44:16.802Z</time>
      </trkpt>
      <trkpt lat="42.946725" lon="0.22235167">
        <ele>1027.0</ele>
        <time>2019-07-07T06:44:17.825Z</time>
      </trkpt>
      <trkpt lat="42.94671167" lon="0.22227333">
        <ele>1027.0</ele>
        <time>2019-07-07T06:44:18.804Z</time>
      </trkpt>
      <trkpt lat="42.94671167" lon="0.22227333">
        <ele>1027.0</ele>
        <time>2019-07-07T06:44:19.835Z</time>
      </trkpt>
      <trkpt lat="42.94669667" lon="0.22219167">
        <ele>1028.0</ele>
        <time>2019-07-07T06:44:20.807Z</time>
      </trkpt>
      <trkpt lat="42.94669" lon="0.22215">
        <ele>1028.0</ele>
        <time>2019-07-07T06:44:21.834Z</time>
      </trkpt>
      <trkpt lat="42.94668" lon="0.22211167">
        <ele>1028.0</ele>
        <time>2019-07-07T06:44:22.833Z</time>
      </trkpt>
      <trkpt lat="42.94668" lon="0.22211167">
        <ele>1028.0</ele>
        <time>2019-07-07T06:44:23.807Z</time>
      </trkpt>
      <trkpt lat="42.94665333" lon="0.22204667">
        <ele>1029.0</ele>
        <time>2019-07-07T06:44:24.831Z</time>
      </trkpt>
      <trkpt lat="42.94665333" lon="0.22204667">
        <ele>1029.0</ele>
        <time>2019-07-07T06:44:25.839Z</time>
      </trkpt>
      <trkpt lat="42.94663667" lon="0.22196333">
        <ele>1029.0</ele>
        <time>2019-07-07T06:44:26.809Z</time>
      </trkpt>
      <trkpt lat="42.94663667" lon="0.22196333">
        <ele>1029.0</ele>
        <time>2019-07-07T06:44:27.824Z</time>
      </trkpt>
      <trkpt lat="42.94661833" lon="0.221875">
        <ele>1030.0</ele>
        <time>2019-07-07T06:44:28.803Z</time>
      </trkpt>
      <trkpt lat="42.94661833" lon="0.221875">
        <ele>1030.0</ele>
        <time>2019-07-07T06:44:29.826Z</time>
      </trkpt>
      <trkpt lat="42.946595" lon="0.22179833">
        <ele>1030.0</ele>
        <time>2019-07-07T06:44:30.803Z</time>
      </trkpt>
      <trkpt lat="42.946595" lon="0.22179833">
        <ele>1030.0</ele>
        <time>2019-07-07T06:44:31.803Z</time>
      </trkpt>
      <trkpt lat="42.94658" lon="0.22173167">
        <ele>1030.0</ele>
        <time>2019-07-07T06:44:32.840Z</time>
      </trkpt>
      <trkpt lat="42.94658" lon="0.22173167">
        <ele>1030.0</ele>
        <time>2019-07-07T06:44:33.825Z</time>
      </trkpt>
      <trkpt lat="42.94655" lon="0.22166667">
        <ele>1030.0</ele>
        <time>2019-07-07T06:44:34.816Z</time>
      </trkpt>
      <trkpt lat="42.94655" lon="0.22166667">
        <ele>1030.0</ele>
        <time>2019-07-07T06:44:35.836Z</time>
      </trkpt>
      <trkpt lat="42.94650833" lon="0.22162167">
        <ele>1031.0</ele>
        <time>2019-07-07T06:44:36.802Z</time>
      </trkpt>
      <trkpt lat="42.94650833" lon="0.22162167">
        <ele>1031.0</ele>
        <time>2019-07-07T06:44:37.825Z</time>
      </trkpt>
      <trkpt lat="42.94647" lon="0.22154167">
        <ele>1031.0</ele>
        <time>2019-07-07T06:44:38.841Z</time>
      </trkpt>
      <trkpt lat="42.94645" lon="0.22150333">
        <ele>1031.0</ele>
        <time>2019-07-07T06:44:39.840Z</time>
      </trkpt>
      <trkpt lat="42.946415" lon="0.22147333">
        <ele>1031.0</ele>
        <time>2019-07-07T06:44:40.830Z</time>
      </trkpt>
      <trkpt lat="42.946415" lon="0.22147333">
        <ele>1031.0</ele>
        <time>2019-07-07T06:44:41.822Z</time>
      </trkpt>
      <trkpt lat="42.946355" lon="0.22142">
        <ele>1031.0</ele>
        <time>2019-07-07T06:44:42.801Z</time>
      </trkpt>
      <trkpt lat="42.946355" lon="0.22142">
        <ele>1031.0</ele>
        <time>2019-07-07T06:44:43.829Z</time>
      </trkpt>
      <trkpt lat="42.94630333" lon="0.22137333">
        <ele>1031.0</ele>
        <time>2019-07-07T06:44:44.802Z</time>
      </trkpt>
      <trkpt lat="42.94630333" lon="0.22137333">
        <ele>1031.0</ele>
        <time>2019-07-07T06:44:45.825Z</time>
      </trkpt>
      <trkpt lat="42.94623833" lon="0.22135667">
        <ele>1031.0</ele>
        <time>2019-07-07T06:44:46.802Z</time>
      </trkpt>
      <trkpt lat="42.94623833" lon="0.22135667">
        <ele>1031.0</ele>
        <time>2019-07-07T06:44:47.810Z</time>
      </trkpt>
      <trkpt lat="42.94617833" lon="0.22135">
        <ele>1032.0</ele>
        <time>2019-07-07T06:44:48.820Z</time>
      </trkpt>
      <trkpt lat="42.94614833" lon="0.22134667">
        <ele>1032.0</ele>
        <time>2019-07-07T06:44:49.834Z</time>
      </trkpt>
      <trkpt lat="42.94614833" lon="0.22134667">
        <ele>1032.0</ele>
        <time>2019-07-07T06:44:50.825Z</time>
      </trkpt>
      <trkpt lat="42.94609667" lon="0.22133667">
        <ele>1033.0</ele>
        <time>2019-07-07T06:44:51.822Z</time>
      </trkpt>
      <trkpt lat="42.94607" lon="0.22132333">
        <ele>1034.0</ele>
        <time>2019-07-07T06:44:52.837Z</time>
      </trkpt>
      <trkpt lat="42.94607" lon="0.22132333">
        <ele>1034.0</ele>
        <time>2019-07-07T06:44:53.803Z</time>
      </trkpt>
      <trkpt lat="42.94601" lon="0.221305">
        <ele>1034.0</ele>
        <time>2019-07-07T06:44:54.804Z</time>
      </trkpt>
      <trkpt lat="42.94601" lon="0.221305">
        <ele>1034.0</ele>
        <time>2019-07-07T06:44:55.835Z</time>
      </trkpt>
      <trkpt lat="42.94594833" lon="0.22127333">
        <ele>1035.0</ele>
        <time>2019-07-07T06:44:56.804Z</time>
      </trkpt>
      <trkpt lat="42.94594833" lon="0.22127333">
        <ele>1035.0</ele>
        <time>2019-07-07T06:44:57.826Z</time>
      </trkpt>
      <trkpt lat="42.94588667" lon="0.22123167">
        <ele>1036.0</ele>
        <time>2019-07-07T06:44:58.829Z</time>
      </trkpt>
      <trkpt lat="42.94588667" lon="0.22123167">
        <ele>1036.0</ele>
        <time>2019-07-07T06:44:59.813Z</time>
      </trkpt>
      <trkpt lat="42.94583167" lon="0.22118167">
        <ele>1037.0</ele>
        <time>2019-07-07T06:45:00.835Z</time>
      </trkpt>
      <trkpt lat="42.94583167" lon="0.22118167">
        <ele>1037.0</ele>
        <time>2019-07-07T06:45:01.808Z</time>
      </trkpt>
      <trkpt lat="42.94578" lon="0.22113333">
        <ele>1037.0</ele>
        <time>2019-07-07T06:45:02.842Z</time>
      </trkpt>
      <trkpt lat="42.94578" lon="0.22113333">
        <ele>1037.0</ele>
        <time>2019-07-07T06:45:03.825Z</time>
      </trkpt>
      <trkpt lat="42.94573333" lon="0.22108667">
        <ele>1038.0</ele>
        <time>2019-07-07T06:45:04.830Z</time>
      </trkpt>
      <trkpt lat="42.94573333" lon="0.22108667">
        <ele>1038.0</ele>
        <time>2019-07-07T06:45:05.807Z</time>
      </trkpt>
      <trkpt lat="42.94569" lon="0.221025">
        <ele>1038.0</ele>
        <time>2019-07-07T06:45:06.802Z</time>
      </trkpt>
      <trkpt lat="42.94569" lon="0.221025">
        <ele>1038.0</ele>
        <time>2019-07-07T06:45:07.829Z</time>
      </trkpt>
      <trkpt lat="42.94565167" lon="0.22096">
        <ele>1038.0</ele>
        <time>2019-07-07T06:45:08.804Z</time>
      </trkpt>
      <trkpt lat="42.94565167" lon="0.22096">
        <ele>1038.0</ele>
        <time>2019-07-07T06:45:09.825Z</time>
      </trkpt>
      <trkpt lat="42.94561833" lon="0.22089">
        <ele>1038.0</ele>
        <time>2019-07-07T06:45:10.803Z</time>
      </trkpt>
      <trkpt lat="42.94561833" lon="0.22089">
        <ele>1038.0</ele>
        <time>2019-07-07T06:45:11.821Z</time>
      </trkpt>
      <trkpt lat="42.94558667" lon="0.22082">
        <ele>1039.0</ele>
        <time>2019-07-07T06:45:12.835Z</time>
      </trkpt>
      <trkpt lat="42.94558667" lon="0.22082">
        <ele>1039.0</ele>
        <time>2019-07-07T06:45:13.825Z</time>
      </trkpt>
      <trkpt lat="42.94555" lon="0.22075">
        <ele>1040.0</ele>
        <time>2019-07-07T06:45:14.830Z</time>
      </trkpt>
      <trkpt lat="42.94555" lon="0.22075">
        <ele>1040.0</ele>
        <time>2019-07-07T06:45:15.826Z</time>
      </trkpt>
      <trkpt lat="42.94551" lon="0.22067833">
        <ele>1040.0</ele>
        <time>2019-07-07T06:45:16.840Z</time>
      </trkpt>
      <trkpt lat="42.94551" lon="0.22067833">
        <ele>1040.0</ele>
        <time>2019-07-07T06:45:17.828Z</time>
      </trkpt>
      <trkpt lat="42.94547667" lon="0.22061333">
        <ele>1041.0</ele>
        <time>2019-07-07T06:45:18.804Z</time>
      </trkpt>
      <trkpt lat="42.94547667" lon="0.22061333">
        <ele>1041.0</ele>
        <time>2019-07-07T06:45:19.836Z</time>
      </trkpt>
      <trkpt lat="42.94544167" lon="0.22054333">
        <ele>1041.0</ele>
        <time>2019-07-07T06:45:20.842Z</time>
      </trkpt>
      <trkpt lat="42.94544167" lon="0.22054333">
        <ele>1041.0</ele>
        <time>2019-07-07T06:45:21.803Z</time>
      </trkpt>
      <trkpt lat="42.94540667" lon="0.22048167">
        <ele>1041.0</ele>
        <time>2019-07-07T06:45:22.802Z</time>
      </trkpt>
      <trkpt lat="42.94540667" lon="0.22048167">
        <ele>1041.0</ele>
        <time>2019-07-07T06:45:23.825Z</time>
      </trkpt>
      <trkpt lat="42.945365" lon="0.22042333">
        <ele>1042.0</ele>
        <time>2019-07-07T06:45:24.833Z</time>
      </trkpt>
      <trkpt lat="42.94534667" lon="0.22039333">
        <ele>1043.0</ele>
        <time>2019-07-07T06:45:25.840Z</time>
      </trkpt>
      <trkpt lat="42.94534667" lon="0.22039333">
        <ele>1043.0</ele>
        <time>2019-07-07T06:45:26.829Z</time>
      </trkpt>
      <trkpt lat="42.945305" lon="0.22033667">
        <ele>1044.0</ele>
        <time>2019-07-07T06:45:27.802Z</time>
      </trkpt>
      <trkpt lat="42.945305" lon="0.22033667">
        <ele>1044.0</ele>
        <time>2019-07-07T06:45:28.828Z</time>
      </trkpt>
      <trkpt lat="42.945265" lon="0.22027833">
        <ele>1044.0</ele>
        <time>2019-07-07T06:45:29.825Z</time>
      </trkpt>
      <trkpt lat="42.945265" lon="0.22027833">
        <ele>1044.0</ele>
        <time>2019-07-07T06:45:30.802Z</time>
      </trkpt>
      <trkpt lat="42.94522167" lon="0.22022333">
        <ele>1043.0</ele>
        <time>2019-07-07T06:45:31.816Z</time>
      </trkpt>
      <trkpt lat="42.94522167" lon="0.22022333">
        <ele>1043.0</ele>
        <time>2019-07-07T06:45:32.836Z</time>
      </trkpt>
      <trkpt lat="42.94517833" lon="0.220175">
        <ele>1043.0</ele>
        <time>2019-07-07T06:45:33.804Z</time>
      </trkpt>
      <trkpt lat="42.94517833" lon="0.220175">
        <ele>1043.0</ele>
        <time>2019-07-07T06:45:34.825Z</time>
      </trkpt>
      <trkpt lat="42.94513167" lon="0.22012667">
        <ele>1043.0</ele>
        <time>2019-07-07T06:45:35.836Z</time>
      </trkpt>
      <trkpt lat="42.94510833" lon="0.22010167">
        <ele>1043.0</ele>
        <time>2019-07-07T06:45:36.824Z</time>
      </trkpt>
      <trkpt lat="42.94510833" lon="0.22010167">
        <ele>1043.0</ele>
        <time>2019-07-07T06:45:37.838Z</time>
      </trkpt>
      <trkpt lat="42.94506" lon="0.22005">
        <ele>1043.0</ele>
        <time>2019-07-07T06:45:38.841Z</time>
      </trkpt>
      <trkpt lat="42.94506" lon="0.22005">
        <ele>1043.0</ele>
        <time>2019-07-07T06:45:39.825Z</time>
      </trkpt>
      <trkpt lat="42.945015" lon="0.22000333">
        <ele>1044.0</ele>
        <time>2019-07-07T06:45:40.819Z</time>
      </trkpt>
      <trkpt lat="42.945015" lon="0.22000333">
        <ele>1044.0</ele>
        <time>2019-07-07T06:45:41.807Z</time>
      </trkpt>
      <trkpt lat="42.94496833" lon="0.21996">
        <ele>1044.0</ele>
        <time>2019-07-07T06:45:42.842Z</time>
      </trkpt>
      <trkpt lat="42.94496833" lon="0.21996">
        <ele>1044.0</ele>
        <time>2019-07-07T06:45:43.829Z</time>
      </trkpt>
      <trkpt lat="42.94492" lon="0.21991833">
        <ele>1044.0</ele>
        <time>2019-07-07T06:45:44.819Z</time>
      </trkpt>
      <trkpt lat="42.944895" lon="0.21989833">
        <ele>1045.0</ele>
        <time>2019-07-07T06:45:45.834Z</time>
      </trkpt>
      <trkpt lat="42.94486833" lon="0.21988">
        <ele>1045.0</ele>
        <time>2019-07-07T06:45:46.830Z</time>
      </trkpt>
      <trkpt lat="42.94486833" lon="0.21988">
        <ele>1045.0</ele>
        <time>2019-07-07T06:45:47.821Z</time>
      </trkpt>
      <trkpt lat="42.94481667" lon="0.21984333">
        <ele>1046.0</ele>
        <time>2019-07-07T06:45:48.828Z</time>
      </trkpt>
      <trkpt lat="42.94479" lon="0.21982333">
        <ele>1046.0</ele>
        <time>2019-07-07T06:45:49.804Z</time>
      </trkpt>
      <trkpt lat="42.94479" lon="0.21982333">
        <ele>1046.0</ele>
        <time>2019-07-07T06:45:50.826Z</time>
      </trkpt>
      <trkpt lat="42.944735" lon="0.21978833">
        <ele>1046.0</ele>
        <time>2019-07-07T06:45:51.803Z</time>
      </trkpt>
      <trkpt lat="42.94470667" lon="0.21976833">
        <ele>1047.0</ele>
        <time>2019-07-07T06:45:52.802Z</time>
      </trkpt>
      <trkpt lat="42.94470667" lon="0.21976833">
        <ele>1047.0</ele>
        <time>2019-07-07T06:45:53.839Z</time>
      </trkpt>
      <trkpt lat="42.944655" lon="0.21973">
        <ele>1047.0</ele>
        <time>2019-07-07T06:45:54.802Z</time>
      </trkpt>
      <trkpt lat="42.944655" lon="0.21973">
        <ele>1047.0</ele>
        <time>2019-07-07T06:45:55.831Z</time>
      </trkpt>
      <trkpt lat="42.94460333" lon="0.21969">
        <ele>1048.0</ele>
        <time>2019-07-07T06:45:56.837Z</time>
      </trkpt>
      <trkpt lat="42.94460333" lon="0.21969">
        <ele>1048.0</ele>
        <time>2019-07-07T06:45:57.805Z</time>
      </trkpt>
      <trkpt lat="42.94455167" lon="0.21964833">
        <ele>1049.0</ele>
        <time>2019-07-07T06:45:58.832Z</time>
      </trkpt>
      <trkpt lat="42.94455167" lon="0.21964833">
        <ele>1049.0</ele>
        <time>2019-07-07T06:45:59.804Z</time>
      </trkpt>
      <trkpt lat="42.94450333" lon="0.21960333">
        <ele>1049.0</ele>
        <time>2019-07-07T06:46:00.818Z</time>
      </trkpt>
      <trkpt lat="42.94450333" lon="0.21960333">
        <ele>1049.0</ele>
        <time>2019-07-07T06:46:01.807Z</time>
      </trkpt>
      <trkpt lat="42.94446" lon="0.219545">
        <ele>1050.0</ele>
        <time>2019-07-07T06:46:02.801Z</time>
      </trkpt>
      <trkpt lat="42.94443833" lon="0.21951833">
        <ele>1050.0</ele>
        <time>2019-07-07T06:46:03.824Z</time>
      </trkpt>
      <trkpt lat="42.94443833" lon="0.21951833">
        <ele>1050.0</ele>
        <time>2019-07-07T06:46:04.828Z</time>
      </trkpt>
      <trkpt lat="42.944395" lon="0.21946833">
        <ele>1050.0</ele>
        <time>2019-07-07T06:46:05.807Z</time>
      </trkpt>
      <trkpt lat="42.94437333" lon="0.21944833">
        <ele>1050.0</ele>
        <time>2019-07-07T06:46:06.802Z</time>
      </trkpt>
      <trkpt lat="42.94437333" lon="0.21944833">
        <ele>1050.0</ele>
        <time>2019-07-07T06:46:07.827Z</time>
      </trkpt>
      <trkpt lat="42.94432667" lon="0.21940333">
        <ele>1050.0</ele>
        <time>2019-07-07T06:46:08.836Z</time>
      </trkpt>
      <trkpt lat="42.944305" lon="0.21937667">
        <ele>1050.0</ele>
        <time>2019-07-07T06:46:09.802Z</time>
      </trkpt>
      <trkpt lat="42.944285" lon="0.21935">
        <ele>1050.0</ele>
        <time>2019-07-07T06:46:10.802Z</time>
      </trkpt>
      <trkpt lat="42.944285" lon="0.21935">
        <ele>1050.0</ele>
        <time>2019-07-07T06:46:11.810Z</time>
      </trkpt>
      <trkpt lat="42.94424333" lon="0.21929667">
        <ele>1051.0</ele>
        <time>2019-07-07T06:46:12.804Z</time>
      </trkpt>
      <trkpt lat="42.94424333" lon="0.21929667">
        <ele>1051.0</ele>
        <time>2019-07-07T06:46:13.826Z</time>
      </trkpt>
      <trkpt lat="42.94419333" lon="0.21924">
        <ele>1051.0</ele>
        <time>2019-07-07T06:46:14.801Z</time>
      </trkpt>
      <trkpt lat="42.94419333" lon="0.21924">
        <ele>1051.0</ele>
        <time>2019-07-07T06:46:15.826Z</time>
      </trkpt>
      <trkpt lat="42.94415" lon="0.219185">
        <ele>1052.0</ele>
        <time>2019-07-07T06:46:16.841Z</time>
      </trkpt>
      <trkpt lat="42.94415" lon="0.219185">
        <ele>1052.0</ele>
        <time>2019-07-07T06:46:17.838Z</time>
      </trkpt>
      <trkpt lat="42.94410667" lon="0.219125">
        <ele>1052.0</ele>
        <time>2019-07-07T06:46:18.801Z</time>
      </trkpt>
      <trkpt lat="42.94410667" lon="0.219125">
        <ele>1052.0</ele>
        <time>2019-07-07T06:46:19.838Z</time>
      </trkpt>
      <trkpt lat="42.944065" lon="0.21906833">
        <ele>1053.0</ele>
        <time>2019-07-07T06:46:20.842Z</time>
      </trkpt>
      <trkpt lat="42.944045" lon="0.21904167">
        <ele>1053.0</ele>
        <time>2019-07-07T06:46:21.816Z</time>
      </trkpt>
      <trkpt lat="42.944045" lon="0.21904167">
        <ele>1053.0</ele>
        <time>2019-07-07T06:46:22.829Z</time>
      </trkpt>
      <trkpt lat="42.94400167" lon="0.21899">
        <ele>1053.0</ele>
        <time>2019-07-07T06:46:23.803Z</time>
      </trkpt>
      <trkpt lat="42.94397833" lon="0.21896333">
        <ele>1053.0</ele>
        <time>2019-07-07T06:46:24.802Z</time>
      </trkpt>
      <trkpt lat="42.94395667" lon="0.21893833">
        <ele>1054.0</ele>
        <time>2019-07-07T06:46:25.801Z</time>
      </trkpt>
      <trkpt lat="42.94395667" lon="0.21893833">
        <ele>1054.0</ele>
        <time>2019-07-07T06:46:26.805Z</time>
      </trkpt>
      <trkpt lat="42.94391333" lon="0.21889">
        <ele>1054.0</ele>
        <time>2019-07-07T06:46:27.801Z</time>
      </trkpt>
      <trkpt lat="42.94389333" lon="0.218865">
        <ele>1054.0</ele>
        <time>2019-07-07T06:46:28.817Z</time>
      </trkpt>
      <trkpt lat="42.94389333" lon="0.218865">
        <ele>1054.0</ele>
        <time>2019-07-07T06:46:29.829Z</time>
      </trkpt>
      <trkpt lat="42.94385" lon="0.21881167">
        <ele>1055.0</ele>
        <time>2019-07-07T06:46:30.804Z</time>
      </trkpt>
      <trkpt lat="42.94385" lon="0.21881167">
        <ele>1055.0</ele>
        <time>2019-07-07T06:46:31.839Z</time>
      </trkpt>
      <trkpt lat="42.943805" lon="0.21875667">
        <ele>1055.0</ele>
        <time>2019-07-07T06:46:32.802Z</time>
      </trkpt>
      <trkpt lat="42.943805" lon="0.21875667">
        <ele>1055.0</ele>
        <time>2019-07-07T06:46:33.826Z</time>
      </trkpt>
      <trkpt lat="42.94376167" lon="0.2187">
        <ele>1056.0</ele>
        <time>2019-07-07T06:46:34.841Z</time>
      </trkpt>
      <trkpt lat="42.94376167" lon="0.2187">
        <ele>1056.0</ele>
        <time>2019-07-07T06:46:35.838Z</time>
      </trkpt>
      <trkpt lat="42.94372" lon="0.21865167">
        <ele>1056.0</ele>
        <time>2019-07-07T06:46:36.804Z</time>
      </trkpt>
      <trkpt lat="42.94372" lon="0.21865167">
        <ele>1056.0</ele>
        <time>2019-07-07T06:46:37.829Z</time>
      </trkpt>
      <trkpt lat="42.94367833" lon="0.2186">
        <ele>1057.0</ele>
        <time>2019-07-07T06:46:38.802Z</time>
      </trkpt>
      <trkpt lat="42.94367833" lon="0.2186">
        <ele>1057.0</ele>
        <time>2019-07-07T06:46:39.826Z</time>
      </trkpt>
      <trkpt lat="42.94364167" lon="0.21854667">
        <ele>1057.0</ele>
        <time>2019-07-07T06:46:40.804Z</time>
      </trkpt>
      <trkpt lat="42.94364167" lon="0.21854667">
        <ele>1057.0</ele>
        <time>2019-07-07T06:46:41.807Z</time>
      </trkpt>
      <trkpt lat="42.943605" lon="0.21849167">
        <ele>1057.0</ele>
        <time>2019-07-07T06:46:42.801Z</time>
      </trkpt>
      <trkpt lat="42.943605" lon="0.21849167">
        <ele>1057.0</ele>
        <time>2019-07-07T06:46:43.827Z</time>
      </trkpt>
      <trkpt lat="42.94356667" lon="0.21844333">
        <ele>1057.0</ele>
        <time>2019-07-07T06:46:44.802Z</time>
      </trkpt>
      <trkpt lat="42.94356667" lon="0.21844333">
        <ele>1057.0</ele>
        <time>2019-07-07T06:46:45.806Z</time>
      </trkpt>
      <trkpt lat="42.94352" lon="0.218385">
        <ele>1058.0</ele>
        <time>2019-07-07T06:46:46.801Z</time>
      </trkpt>
      <trkpt lat="42.94352" lon="0.218385">
        <ele>1058.0</ele>
        <time>2019-07-07T06:46:47.828Z</time>
      </trkpt>
      <trkpt lat="42.94347" lon="0.21833">
        <ele>1058.0</ele>
        <time>2019-07-07T06:46:48.835Z</time>
      </trkpt>
      <trkpt lat="42.94344333" lon="0.218305">
        <ele>1058.0</ele>
        <time>2019-07-07T06:46:49.816Z</time>
      </trkpt>
      <trkpt lat="42.94344333" lon="0.218305">
        <ele>1058.0</ele>
        <time>2019-07-07T06:46:50.837Z</time>
      </trkpt>
      <trkpt lat="42.9434" lon="0.21824833">
        <ele>1058.0</ele>
        <time>2019-07-07T06:46:51.821Z</time>
      </trkpt>
      <trkpt lat="42.9434" lon="0.21824833">
        <ele>1058.0</ele>
        <time>2019-07-07T06:46:52.829Z</time>
      </trkpt>
      <trkpt lat="42.94336333" lon="0.21818167">
        <ele>1058.0</ele>
        <time>2019-07-07T06:46:53.842Z</time>
      </trkpt>
      <trkpt lat="42.94334167" lon="0.21815333">
        <ele>1058.0</ele>
        <time>2019-07-07T06:46:54.826Z</time>
      </trkpt>
      <trkpt lat="42.94334167" lon="0.21815333">
        <ele>1058.0</ele>
        <time>2019-07-07T06:46:55.837Z</time>
      </trkpt>
      <trkpt lat="42.94330333" lon="0.21809">
        <ele>1059.0</ele>
        <time>2019-07-07T06:46:56.802Z</time>
      </trkpt>
      <trkpt lat="42.94328" lon="0.21806333">
        <ele>1059.0</ele>
        <time>2019-07-07T06:46:57.801Z</time>
      </trkpt>
      <trkpt lat="42.94328" lon="0.21806333">
        <ele>1059.0</ele>
        <time>2019-07-07T06:46:58.828Z</time>
      </trkpt>
      <trkpt lat="42.94323667" lon="0.21800667">
        <ele>1060.0</ele>
        <time>2019-07-07T06:46:59.803Z</time>
      </trkpt>
      <trkpt lat="42.943215" lon="0.21797833">
        <ele>1060.0</ele>
        <time>2019-07-07T06:47:00.836Z</time>
      </trkpt>
      <trkpt lat="42.943215" lon="0.21797833">
        <ele>1060.0</ele>
        <time>2019-07-07T06:47:01.809Z</time>
      </trkpt>
      <trkpt lat="42.94317" lon="0.217925">
        <ele>1060.0</ele>
        <time>2019-07-07T06:47:02.817Z</time>
      </trkpt>
      <trkpt lat="42.94317" lon="0.217925">
        <ele>1060.0</ele>
        <time>2019-07-07T06:47:03.831Z</time>
      </trkpt>
      <trkpt lat="42.94313167" lon="0.21784833">
        <ele>1060.0</ele>
        <time>2019-07-07T06:47:04.805Z</time>
      </trkpt>
      <trkpt lat="42.94313167" lon="0.21784833">
        <ele>1060.0</ele>
        <time>2019-07-07T06:47:05.807Z</time>
      </trkpt>
      <trkpt lat="42.94309" lon="0.21778667">
        <ele>1061.0</ele>
        <time>2019-07-07T06:47:06.802Z</time>
      </trkpt>
      <trkpt lat="42.94309" lon="0.21778667">
        <ele>1061.0</ele>
        <time>2019-07-07T06:47:07.830Z</time>
      </trkpt>
      <trkpt lat="42.94304667" lon="0.217735">
        <ele>1061.0</ele>
        <time>2019-07-07T06:47:08.810Z</time>
      </trkpt>
      <trkpt lat="42.94304667" lon="0.217735">
        <ele>1061.0</ele>
        <time>2019-07-07T06:47:09.840Z</time>
      </trkpt>
      <trkpt lat="42.94300167" lon="0.21768667">
        <ele>1062.0</ele>
        <time>2019-07-07T06:47:10.806Z</time>
      </trkpt>
      <trkpt lat="42.94300167" lon="0.21768667">
        <ele>1062.0</ele>
        <time>2019-07-07T06:47:11.819Z</time>
      </trkpt>
      <trkpt lat="42.94294667" lon="0.21764667">
        <ele>1062.0</ele>
        <time>2019-07-07T06:47:12.822Z</time>
      </trkpt>
      <trkpt lat="42.94294667" lon="0.21764667">
        <ele>1062.0</ele>
        <time>2019-07-07T06:47:13.829Z</time>
      </trkpt>
      <trkpt lat="42.942905" lon="0.217595">
        <ele>1063.0</ele>
        <time>2019-07-07T06:47:14.801Z</time>
      </trkpt>
      <trkpt lat="42.942905" lon="0.217595">
        <ele>1063.0</ele>
        <time>2019-07-07T06:47:15.830Z</time>
      </trkpt>
      <trkpt lat="42.94285833" lon="0.21754333">
        <ele>1063.0</ele>
        <time>2019-07-07T06:47:16.802Z</time>
      </trkpt>
      <trkpt lat="42.94285833" lon="0.21754333">
        <ele>1063.0</ele>
        <time>2019-07-07T06:47:17.830Z</time>
      </trkpt>
      <trkpt lat="42.94281167" lon="0.21749">
        <ele>1063.0</ele>
        <time>2019-07-07T06:47:18.819Z</time>
      </trkpt>
      <trkpt lat="42.94279167" lon="0.21746333">
        <ele>1064.0</ele>
        <time>2019-07-07T06:47:19.832Z</time>
      </trkpt>
      <trkpt lat="42.94279167" lon="0.21746333">
        <ele>1064.0</ele>
        <time>2019-07-07T06:47:20.801Z</time>
      </trkpt>
      <trkpt lat="42.94274833" lon="0.21741">
        <ele>1064.0</ele>
        <time>2019-07-07T06:47:21.822Z</time>
      </trkpt>
      <trkpt lat="42.94272667" lon="0.21738333">
        <ele>1065.0</ele>
        <time>2019-07-07T06:47:22.832Z</time>
      </trkpt>
      <trkpt lat="42.94272667" lon="0.21738333">
        <ele>1065.0</ele>
        <time>2019-07-07T06:47:23.827Z</time>
      </trkpt>
      <trkpt lat="42.94268167" lon="0.21733333">
        <ele>1066.0</ele>
        <time>2019-07-07T06:47:24.816Z</time>
      </trkpt>
      <trkpt lat="42.94268167" lon="0.21733333">
        <ele>1066.0</ele>
        <time>2019-07-07T06:47:25.830Z</time>
      </trkpt>
      <trkpt lat="42.94263667" lon="0.21727833">
        <ele>1066.0</ele>
        <time>2019-07-07T06:47:26.831Z</time>
      </trkpt>
      <trkpt lat="42.942615" lon="0.21725833">
        <ele>1066.0</ele>
        <time>2019-07-07T06:47:27.829Z</time>
      </trkpt>
      <trkpt lat="42.942615" lon="0.21725833">
        <ele>1066.0</ele>
        <time>2019-07-07T06:47:28.838Z</time>
      </trkpt>
      <trkpt lat="42.94257833" lon="0.2172">
        <ele>1067.0</ele>
        <time>2019-07-07T06:47:29.803Z</time>
      </trkpt>
      <trkpt lat="42.94256167" lon="0.21716833">
        <ele>1067.0</ele>
        <time>2019-07-07T06:47:30.817Z</time>
      </trkpt>
      <trkpt lat="42.94256167" lon="0.21716833">
        <ele>1067.0</ele>
        <time>2019-07-07T06:47:31.802Z</time>
      </trkpt>
      <trkpt lat="42.94253167" lon="0.217105">
        <ele>1067.0</ele>
        <time>2019-07-07T06:47:32.803Z</time>
      </trkpt>
      <trkpt lat="42.94251667" lon="0.21707833">
        <ele>1068.0</ele>
        <time>2019-07-07T06:47:33.808Z</time>
      </trkpt>
      <trkpt lat="42.9425" lon="0.217045">
        <ele>1068.0</ele>
        <time>2019-07-07T06:47:34.832Z</time>
      </trkpt>
      <trkpt lat="42.9425" lon="0.217045">
        <ele>1068.0</ele>
        <time>2019-07-07T06:47:35.839Z</time>
      </trkpt>
      <trkpt lat="42.94247167" lon="0.21695667">
        <ele>1068.0</ele>
        <time>2019-07-07T06:47:36.812Z</time>
      </trkpt>
      <trkpt lat="42.94247167" lon="0.21695667">
        <ele>1068.0</ele>
        <time>2019-07-07T06:47:37.831Z</time>
      </trkpt>
      <trkpt lat="42.94244333" lon="0.21687833">
        <ele>1068.0</ele>
        <time>2019-07-07T06:47:38.806Z</time>
      </trkpt>
      <trkpt lat="42.94242667" lon="0.216845">
        <ele>1068.0</ele>
        <time>2019-07-07T06:47:39.829Z</time>
      </trkpt>
      <trkpt lat="42.94242667" lon="0.216845">
        <ele>1068.0</ele>
        <time>2019-07-07T06:47:40.839Z</time>
      </trkpt>
      <trkpt lat="42.94239" lon="0.21678167">
        <ele>1068.0</ele>
        <time>2019-07-07T06:47:41.803Z</time>
      </trkpt>
      <trkpt lat="42.94237667" lon="0.21674667">
        <ele>1068.0</ele>
        <time>2019-07-07T06:47:42.802Z</time>
      </trkpt>
      <trkpt lat="42.94237667" lon="0.21674667">
        <ele>1068.0</ele>
        <time>2019-07-07T06:47:43.831Z</time>
      </trkpt>
      <trkpt lat="42.94234167" lon="0.21668667">
        <ele>1068.0</ele>
        <time>2019-07-07T06:47:44.806Z</time>
      </trkpt>
      <trkpt lat="42.94234167" lon="0.21668667">
        <ele>1068.0</ele>
        <time>2019-07-07T06:47:45.830Z</time>
      </trkpt>
      <trkpt lat="42.942305" lon="0.21662333">
        <ele>1068.0</ele>
        <time>2019-07-07T06:47:46.802Z</time>
      </trkpt>
      <trkpt lat="42.942305" lon="0.21662333">
        <ele>1068.0</ele>
        <time>2019-07-07T06:47:47.806Z</time>
      </trkpt>
      <trkpt lat="42.94226833" lon="0.216565">
        <ele>1068.0</ele>
        <time>2019-07-07T06:47:48.813Z</time>
      </trkpt>
      <trkpt lat="42.94225167" lon="0.216535">
        <ele>1068.0</ele>
        <time>2019-07-07T06:47:49.826Z</time>
      </trkpt>
      <trkpt lat="42.94225167" lon="0.216535">
        <ele>1068.0</ele>
        <time>2019-07-07T06:47:50.838Z</time>
      </trkpt>
      <trkpt lat="42.94221167" lon="0.21648167">
        <ele>1068.0</ele>
        <time>2019-07-07T06:47:51.820Z</time>
      </trkpt>
      <trkpt lat="42.94219" lon="0.216455">
        <ele>1068.0</ele>
        <time>2019-07-07T06:47:52.836Z</time>
      </trkpt>
      <trkpt lat="42.94219" lon="0.216455">
        <ele>1068.0</ele>
        <time>2019-07-07T06:47:53.824Z</time>
      </trkpt>
      <trkpt lat="42.942145" lon="0.21641">
        <ele>1068.0</ele>
        <time>2019-07-07T06:47:54.830Z</time>
      </trkpt>
      <trkpt lat="42.94212167" lon="0.21639333">
        <ele>1068.0</ele>
        <time>2019-07-07T06:47:55.830Z</time>
      </trkpt>
      <trkpt lat="42.94212167" lon="0.21639333">
        <ele>1068.0</ele>
        <time>2019-07-07T06:47:56.838Z</time>
      </trkpt>
      <trkpt lat="42.94207333" lon="0.21636333">
        <ele>1069.0</ele>
        <time>2019-07-07T06:47:57.802Z</time>
      </trkpt>
      <trkpt lat="42.94205" lon="0.216345">
        <ele>1069.0</ele>
        <time>2019-07-07T06:47:58.816Z</time>
      </trkpt>
      <trkpt lat="42.94205" lon="0.216345">
        <ele>1069.0</ele>
        <time>2019-07-07T06:47:59.811Z</time>
      </trkpt>
      <trkpt lat="42.94199833" lon="0.216305">
        <ele>1070.0</ele>
        <time>2019-07-07T06:48:00.802Z</time>
      </trkpt>
      <trkpt lat="42.94199833" lon="0.216305">
        <ele>1070.0</ele>
        <time>2019-07-07T06:48:01.809Z</time>
      </trkpt>
      <trkpt lat="42.941955" lon="0.21626667">
        <ele>1071.0</ele>
        <time>2019-07-07T06:48:02.841Z</time>
      </trkpt>
      <trkpt lat="42.941955" lon="0.21626667">
        <ele>1071.0</ele>
        <time>2019-07-07T06:48:03.832Z</time>
      </trkpt>
      <trkpt lat="42.94191833" lon="0.21622333">
        <ele>1072.0</ele>
        <time>2019-07-07T06:48:04.819Z</time>
      </trkpt>
      <trkpt lat="42.94191833" lon="0.21622333">
        <ele>1072.0</ele>
        <time>2019-07-07T06:48:05.831Z</time>
      </trkpt>
      <trkpt lat="42.941875" lon="0.21616167">
        <ele>1074.0</ele>
        <time>2019-07-07T06:48:06.804Z</time>
      </trkpt>
      <trkpt lat="42.941875" lon="0.21616167">
        <ele>1074.0</ele>
        <time>2019-07-07T06:48:07.831Z</time>
      </trkpt>
      <trkpt lat="42.94184833" lon="0.21609167">
        <ele>1074.0</ele>
        <time>2019-07-07T06:48:08.815Z</time>
      </trkpt>
      <trkpt lat="42.94184833" lon="0.21609167">
        <ele>1074.0</ele>
        <time>2019-07-07T06:48:09.829Z</time>
      </trkpt>
      <trkpt lat="42.94182" lon="0.21602">
        <ele>1075.0</ele>
        <time>2019-07-07T06:48:10.811Z</time>
      </trkpt>
      <trkpt lat="42.94182" lon="0.21602">
        <ele>1075.0</ele>
        <time>2019-07-07T06:48:11.831Z</time>
      </trkpt>
      <trkpt lat="42.94179" lon="0.21594333">
        <ele>1077.0</ele>
        <time>2019-07-07T06:48:12.802Z</time>
      </trkpt>
      <trkpt lat="42.94179" lon="0.21594333">
        <ele>1077.0</ele>
        <time>2019-07-07T06:48:13.830Z</time>
      </trkpt>
      <trkpt lat="42.94176667" lon="0.215875">
        <ele>1078.0</ele>
        <time>2019-07-07T06:48:14.802Z</time>
      </trkpt>
      <trkpt lat="42.94176667" lon="0.215875">
        <ele>1078.0</ele>
        <time>2019-07-07T06:48:15.830Z</time>
      </trkpt>
      <trkpt lat="42.94173833" lon="0.21580833">
        <ele>1080.0</ele>
        <time>2019-07-07T06:48:16.801Z</time>
      </trkpt>
      <trkpt lat="42.94173833" lon="0.21580833">
        <ele>1080.0</ele>
        <time>2019-07-07T06:48:17.814Z</time>
      </trkpt>
      <trkpt lat="42.94171333" lon="0.215735">
        <ele>1081.0</ele>
        <time>2019-07-07T06:48:18.833Z</time>
      </trkpt>
      <trkpt lat="42.94171333" lon="0.215735">
        <ele>1081.0</ele>
        <time>2019-07-07T06:48:19.828Z</time>
      </trkpt>
      <trkpt lat="42.94169333" lon="0.21566167">
        <ele>1082.0</ele>
        <time>2019-07-07T06:48:20.804Z</time>
      </trkpt>
      <trkpt lat="42.94169333" lon="0.21566167">
        <ele>1082.0</ele>
        <time>2019-07-07T06:48:21.803Z</time>
      </trkpt>
      <trkpt lat="42.94167833" lon="0.21559">
        <ele>1083.0</ele>
        <time>2019-07-07T06:48:22.813Z</time>
      </trkpt>
      <trkpt lat="42.94167833" lon="0.21559">
        <ele>1083.0</ele>
        <time>2019-07-07T06:48:23.832Z</time>
      </trkpt>
      <trkpt lat="42.94166333" lon="0.21552167">
        <ele>1083.0</ele>
        <time>2019-07-07T06:48:24.803Z</time>
      </trkpt>
      <trkpt lat="42.94166333" lon="0.21552167">
        <ele>1083.0</ele>
        <time>2019-07-07T06:48:25.830Z</time>
      </trkpt>
      <trkpt lat="42.941645" lon="0.21545">
        <ele>1083.0</ele>
        <time>2019-07-07T06:48:26.801Z</time>
      </trkpt>
      <trkpt lat="42.94163167" lon="0.21541667">
        <ele>1083.0</ele>
        <time>2019-07-07T06:48:27.802Z</time>
      </trkpt>
      <trkpt lat="42.94161667" lon="0.21538333">
        <ele>1084.0</ele>
        <time>2019-07-07T06:48:28.808Z</time>
      </trkpt>
      <trkpt lat="42.94161667" lon="0.21538333">
        <ele>1084.0</ele>
        <time>2019-07-07T06:48:29.830Z</time>
      </trkpt>
      <trkpt lat="42.94159667" lon="0.21532">
        <ele>1084.0</ele>
        <time>2019-07-07T06:48:30.802Z</time>
      </trkpt>
      <trkpt lat="42.94159667" lon="0.21532">
        <ele>1084.0</ele>
        <time>2019-07-07T06:48:31.814Z</time>
      </trkpt>
      <trkpt lat="42.941575" lon="0.21524333">
        <ele>1084.0</ele>
        <time>2019-07-07T06:48:32.829Z</time>
      </trkpt>
      <trkpt lat="42.941575" lon="0.21524333">
        <ele>1084.0</ele>
        <time>2019-07-07T06:48:33.801Z</time>
      </trkpt>
      <trkpt lat="42.94154333" lon="0.21516">
        <ele>1085.0</ele>
        <time>2019-07-07T06:48:34.804Z</time>
      </trkpt>
      <trkpt lat="42.94154333" lon="0.21516">
        <ele>1085.0</ele>
        <time>2019-07-07T06:48:35.827Z</time>
      </trkpt>
      <trkpt lat="42.94151" lon="0.21508333">
        <ele>1085.0</ele>
        <time>2019-07-07T06:48:36.842Z</time>
      </trkpt>
      <trkpt lat="42.94151" lon="0.21508333">
        <ele>1085.0</ele>
        <time>2019-07-07T06:48:37.830Z</time>
      </trkpt>
      <trkpt lat="42.941485" lon="0.21500833">
        <ele>1085.0</ele>
        <time>2019-07-07T06:48:38.802Z</time>
      </trkpt>
      <trkpt lat="42.941485" lon="0.21500833">
        <ele>1085.0</ele>
        <time>2019-07-07T06:48:39.831Z</time>
      </trkpt>
      <trkpt lat="42.94144833" lon="0.21494333">
        <ele>1085.0</ele>
        <time>2019-07-07T06:48:40.843Z</time>
      </trkpt>
      <trkpt lat="42.94144833" lon="0.21494333">
        <ele>1085.0</ele>
        <time>2019-07-07T06:48:41.831Z</time>
      </trkpt>
      <trkpt lat="42.94141833" lon="0.21488667">
        <ele>1085.0</ele>
        <time>2019-07-07T06:48:42.802Z</time>
      </trkpt>
      <trkpt lat="42.94141833" lon="0.21488667">
        <ele>1085.0</ele>
        <time>2019-07-07T06:48:43.839Z</time>
      </trkpt>
      <trkpt lat="42.94137167" lon="0.21483833">
        <ele>1086.0</ele>
        <time>2019-07-07T06:48:44.801Z</time>
      </trkpt>
      <trkpt lat="42.94137167" lon="0.21483833">
        <ele>1086.0</ele>
        <time>2019-07-07T06:48:45.830Z</time>
      </trkpt>
      <trkpt lat="42.94133" lon="0.21479">
        <ele>1086.0</ele>
        <time>2019-07-07T06:48:46.833Z</time>
      </trkpt>
      <trkpt lat="42.94133" lon="0.21479">
        <ele>1086.0</ele>
        <time>2019-07-07T06:48:47.839Z</time>
      </trkpt>
      <trkpt lat="42.94128667" lon="0.21474">
        <ele>1087.0</ele>
        <time>2019-07-07T06:48:48.806Z</time>
      </trkpt>
      <trkpt lat="42.94128667" lon="0.21474">
        <ele>1087.0</ele>
        <time>2019-07-07T06:48:49.821Z</time>
      </trkpt>
      <trkpt lat="42.94123167" lon="0.21470667">
        <ele>1088.0</ele>
        <time>2019-07-07T06:48:50.817Z</time>
      </trkpt>
      <trkpt lat="42.94121167" lon="0.21467833">
        <ele>1088.0</ele>
        <time>2019-07-07T06:48:51.827Z</time>
      </trkpt>
      <trkpt lat="42.94121167" lon="0.21467833">
        <ele>1088.0</ele>
        <time>2019-07-07T06:48:52.839Z</time>
      </trkpt>
      <trkpt lat="42.94117" lon="0.21462667">
        <ele>1088.0</ele>
        <time>2019-07-07T06:48:53.826Z</time>
      </trkpt>
      <trkpt lat="42.941145" lon="0.214605">
        <ele>1089.0</ele>
        <time>2019-07-07T06:48:54.833Z</time>
      </trkpt>
      <trkpt lat="42.941145" lon="0.214605">
        <ele>1089.0</ele>
        <time>2019-07-07T06:48:55.840Z</time>
      </trkpt>
      <trkpt lat="42.94110167" lon="0.21455167">
        <ele>1089.0</ele>
        <time>2019-07-07T06:48:56.832Z</time>
      </trkpt>
      <trkpt lat="42.94108" lon="0.21452333">
        <ele>1089.0</ele>
        <time>2019-07-07T06:48:57.840Z</time>
      </trkpt>
      <trkpt lat="42.94105833" lon="0.21449833">
        <ele>1090.0</ele>
        <time>2019-07-07T06:48:58.832Z</time>
      </trkpt>
      <trkpt lat="42.94105833" lon="0.21449833">
        <ele>1090.0</ele>
        <time>2019-07-07T06:48:59.831Z</time>
      </trkpt>
      <trkpt lat="42.94101833" lon="0.21443667">
        <ele>1090.0</ele>
        <time>2019-07-07T06:49:00.838Z</time>
      </trkpt>
      <trkpt lat="42.94101833" lon="0.21443667">
        <ele>1090.0</ele>
        <time>2019-07-07T06:49:01.841Z</time>
      </trkpt>
      <trkpt lat="42.94097333" lon="0.21438333">
        <ele>1091.0</ele>
        <time>2019-07-07T06:49:02.812Z</time>
      </trkpt>
      <trkpt lat="42.94095167" lon="0.21435667">
        <ele>1091.0</ele>
        <time>2019-07-07T06:49:03.813Z</time>
      </trkpt>
      <trkpt lat="42.94095167" lon="0.21435667">
        <ele>1091.0</ele>
        <time>2019-07-07T06:49:04.805Z</time>
      </trkpt>
      <trkpt lat="42.94091" lon="0.214295">
        <ele>1091.0</ele>
        <time>2019-07-07T06:49:05.808Z</time>
      </trkpt>
      <trkpt lat="42.94091" lon="0.214295">
        <ele>1091.0</ele>
        <time>2019-07-07T06:49:06.831Z</time>
      </trkpt>
      <trkpt lat="42.940865" lon="0.21424167">
        <ele>1092.0</ele>
        <time>2019-07-07T06:49:07.816Z</time>
      </trkpt>
      <trkpt lat="42.940865" lon="0.21424167">
        <ele>1092.0</ele>
        <time>2019-07-07T06:49:08.803Z</time>
      </trkpt>
      <trkpt lat="42.94081" lon="0.214195">
        <ele>1092.0</ele>
        <time>2019-07-07T06:49:09.804Z</time>
      </trkpt>
      <trkpt lat="42.94081" lon="0.214195">
        <ele>1092.0</ele>
        <time>2019-07-07T06:49:10.833Z</time>
      </trkpt>
      <trkpt lat="42.940765" lon="0.21414167">
        <ele>1093.0</ele>
        <time>2019-07-07T06:49:11.835Z</time>
      </trkpt>
      <trkpt lat="42.94074167" lon="0.214115">
        <ele>1094.0</ele>
        <time>2019-07-07T06:49:12.811Z</time>
      </trkpt>
      <trkpt lat="42.94074167" lon="0.214115">
        <ele>1094.0</ele>
        <time>2019-07-07T06:49:13.839Z</time>
      </trkpt>
      <trkpt lat="42.94070167" lon="0.21405667">
        <ele>1095.0</ele>
        <time>2019-07-07T06:49:14.823Z</time>
      </trkpt>
      <trkpt lat="42.94068" lon="0.21402667">
        <ele>1095.0</ele>
        <time>2019-07-07T06:49:15.801Z</time>
      </trkpt>
      <trkpt lat="42.94068" lon="0.21402667">
        <ele>1095.0</ele>
        <time>2019-07-07T06:49:16.838Z</time>
      </trkpt>
      <trkpt lat="42.94064" lon="0.21396333">
        <ele>1096.0</ele>
        <time>2019-07-07T06:49:17.802Z</time>
      </trkpt>
      <trkpt lat="42.94061833" lon="0.21393333">
        <ele>1097.0</ele>
        <time>2019-07-07T06:49:18.831Z</time>
      </trkpt>
      <trkpt lat="42.94061833" lon="0.21393333">
        <ele>1097.0</ele>
        <time>2019-07-07T06:49:19.839Z</time>
      </trkpt>
      <trkpt lat="42.94057667" lon="0.213875">
        <ele>1098.0</ele>
        <time>2019-07-07T06:49:20.811Z</time>
      </trkpt>
      <trkpt lat="42.94057667" lon="0.213875">
        <ele>1098.0</ele>
        <time>2019-07-07T06:49:21.809Z</time>
      </trkpt>
      <trkpt lat="42.94053833" lon="0.21381667">
        <ele>1099.0</ele>
        <time>2019-07-07T06:49:22.804Z</time>
      </trkpt>
      <trkpt lat="42.94053833" lon="0.21381667">
        <ele>1099.0</ele>
        <time>2019-07-07T06:49:23.840Z</time>
      </trkpt>
      <trkpt lat="42.94049833" lon="0.21376333">
        <ele>1101.0</ele>
        <time>2019-07-07T06:49:24.801Z</time>
      </trkpt>
      <trkpt lat="42.94049833" lon="0.21376333">
        <ele>1101.0</ele>
        <time>2019-07-07T06:49:25.830Z</time>
      </trkpt>
      <trkpt lat="42.94045667" lon="0.21371333">
        <ele>1102.0</ele>
        <time>2019-07-07T06:49:26.827Z</time>
      </trkpt>
      <trkpt lat="42.94045667" lon="0.21371333">
        <ele>1102.0</ele>
        <time>2019-07-07T06:49:27.823Z</time>
      </trkpt>
      <trkpt lat="42.940415" lon="0.21365667">
        <ele>1103.0</ele>
        <time>2019-07-07T06:49:28.835Z</time>
      </trkpt>
      <trkpt lat="42.940415" lon="0.21365667">
        <ele>1103.0</ele>
        <time>2019-07-07T06:49:29.806Z</time>
      </trkpt>
      <trkpt lat="42.94037333" lon="0.21360167">
        <ele>1103.0</ele>
        <time>2019-07-07T06:49:30.813Z</time>
      </trkpt>
      <trkpt lat="42.94037333" lon="0.21360167">
        <ele>1103.0</ele>
        <time>2019-07-07T06:49:31.803Z</time>
      </trkpt>
      <trkpt lat="42.94033667" lon="0.213545">
        <ele>1104.0</ele>
        <time>2019-07-07T06:49:32.802Z</time>
      </trkpt>
      <trkpt lat="42.94033667" lon="0.213545">
        <ele>1104.0</ele>
        <time>2019-07-07T06:49:33.840Z</time>
      </trkpt>
      <trkpt lat="42.94028833" lon="0.2135">
        <ele>1104.0</ele>
        <time>2019-07-07T06:49:34.804Z</time>
      </trkpt>
      <trkpt lat="42.940265" lon="0.21348">
        <ele>1105.0</ele>
        <time>2019-07-07T06:49:35.839Z</time>
      </trkpt>
      <trkpt lat="42.940265" lon="0.21348">
        <ele>1105.0</ele>
        <time>2019-07-07T06:49:36.832Z</time>
      </trkpt>
      <trkpt lat="42.94021833" lon="0.213425">
        <ele>1105.0</ele>
        <time>2019-07-07T06:49:37.823Z</time>
      </trkpt>
      <trkpt lat="42.94021833" lon="0.213425">
        <ele>1105.0</ele>
        <time>2019-07-07T06:49:38.831Z</time>
      </trkpt>
      <trkpt lat="42.940175" lon="0.213375">
        <ele>1105.0</ele>
        <time>2019-07-07T06:49:39.821Z</time>
      </trkpt>
      <trkpt lat="42.940155" lon="0.21334833">
        <ele>1106.0</ele>
        <time>2019-07-07T06:49:40.834Z</time>
      </trkpt>
      <trkpt lat="42.940155" lon="0.21334833">
        <ele>1106.0</ele>
        <time>2019-07-07T06:49:41.809Z</time>
      </trkpt>
      <trkpt lat="42.94009333" lon="0.21332167">
        <ele>1107.0</ele>
        <time>2019-07-07T06:49:42.804Z</time>
      </trkpt>
      <trkpt lat="42.94009333" lon="0.21332167">
        <ele>1107.0</ele>
        <time>2019-07-07T06:49:43.828Z</time>
      </trkpt>
      <trkpt lat="42.94003667" lon="0.213295">
        <ele>1108.0</ele>
        <time>2019-07-07T06:49:44.802Z</time>
      </trkpt>
      <trkpt lat="42.94003667" lon="0.213295">
        <ele>1108.0</ele>
        <time>2019-07-07T06:49:45.808Z</time>
      </trkpt>
      <trkpt lat="42.93998333" lon="0.213275">
        <ele>1109.0</ele>
        <time>2019-07-07T06:49:46.843Z</time>
      </trkpt>
      <trkpt lat="42.93998333" lon="0.213275">
        <ele>1109.0</ele>
        <time>2019-07-07T06:49:47.820Z</time>
      </trkpt>
      <trkpt lat="42.93992833" lon="0.21326">
        <ele>1110.0</ele>
        <time>2019-07-07T06:49:48.809Z</time>
      </trkpt>
      <trkpt lat="42.93989833" lon="0.21324667">
        <ele>1111.0</ele>
        <time>2019-07-07T06:49:49.803Z</time>
      </trkpt>
      <trkpt lat="42.93989833" lon="0.21324667">
        <ele>1111.0</ele>
        <time>2019-07-07T06:49:50.830Z</time>
      </trkpt>
      <trkpt lat="42.93984167" lon="0.213235">
        <ele>1112.0</ele>
        <time>2019-07-07T06:49:51.813Z</time>
      </trkpt>
      <trkpt lat="42.93981833" lon="0.21322167">
        <ele>1112.0</ele>
        <time>2019-07-07T06:49:52.803Z</time>
      </trkpt>
      <trkpt lat="42.93981833" lon="0.21322167">
        <ele>1112.0</ele>
        <time>2019-07-07T06:49:53.815Z</time>
      </trkpt>
      <trkpt lat="42.939775" lon="0.21318333">
        <ele>1113.0</ele>
        <time>2019-07-07T06:49:54.832Z</time>
      </trkpt>
      <trkpt lat="42.939775" lon="0.21318333">
        <ele>1113.0</ele>
        <time>2019-07-07T06:49:55.831Z</time>
      </trkpt>
      <trkpt lat="42.93972333" lon="0.21314167">
        <ele>1113.0</ele>
        <time>2019-07-07T06:49:56.804Z</time>
      </trkpt>
      <trkpt lat="42.93972333" lon="0.21314167">
        <ele>1113.0</ele>
        <time>2019-07-07T06:49:57.802Z</time>
      </trkpt>
      <trkpt lat="42.93967333" lon="0.21309667">
        <ele>1114.0</ele>
        <time>2019-07-07T06:49:58.808Z</time>
      </trkpt>
      <trkpt lat="42.93967333" lon="0.21309667">
        <ele>1114.0</ele>
        <time>2019-07-07T06:49:59.801Z</time>
      </trkpt>
      <trkpt lat="42.93962333" lon="0.213055">
        <ele>1115.0</ele>
        <time>2019-07-07T06:50:00.803Z</time>
      </trkpt>
      <trkpt lat="42.93962333" lon="0.213055">
        <ele>1115.0</ele>
        <time>2019-07-07T06:50:01.804Z</time>
      </trkpt>
      <trkpt lat="42.93957667" lon="0.21301">
        <ele>1115.0</ele>
        <time>2019-07-07T06:50:02.804Z</time>
      </trkpt>
      <trkpt lat="42.93957667" lon="0.21301">
        <ele>1115.0</ele>
        <time>2019-07-07T06:50:03.809Z</time>
      </trkpt>
      <trkpt lat="42.93953167" lon="0.21296833">
        <ele>1115.0</ele>
        <time>2019-07-07T06:50:04.804Z</time>
      </trkpt>
      <trkpt lat="42.93953167" lon="0.21296833">
        <ele>1115.0</ele>
        <time>2019-07-07T06:50:05.830Z</time>
      </trkpt>
      <trkpt lat="42.93948667" lon="0.21292167">
        <ele>1116.0</ele>
        <time>2019-07-07T06:50:06.811Z</time>
      </trkpt>
      <trkpt lat="42.93948667" lon="0.21292167">
        <ele>1116.0</ele>
        <time>2019-07-07T06:50:07.832Z</time>
      </trkpt>
      <trkpt lat="42.939445" lon="0.21287333">
        <ele>1116.0</ele>
        <time>2019-07-07T06:50:08.801Z</time>
      </trkpt>
      <trkpt lat="42.939445" lon="0.21287333">
        <ele>1116.0</ele>
        <time>2019-07-07T06:50:09.816Z</time>
      </trkpt>
      <trkpt lat="42.93938833" lon="0.21282333">
        <ele>1117.0</ele>
        <time>2019-07-07T06:50:10.832Z</time>
      </trkpt>
      <trkpt lat="42.93938833" lon="0.21282333">
        <ele>1117.0</ele>
        <time>2019-07-07T06:50:11.807Z</time>
      </trkpt>
      <trkpt lat="42.93934333" lon="0.21277333">
        <ele>1117.0</ele>
        <time>2019-07-07T06:50:12.827Z</time>
      </trkpt>
      <trkpt lat="42.93934333" lon="0.21277333">
        <ele>1117.0</ele>
        <time>2019-07-07T06:50:13.807Z</time>
      </trkpt>
      <trkpt lat="42.93930333" lon="0.21272167">
        <ele>1117.0</ele>
        <time>2019-07-07T06:50:14.813Z</time>
      </trkpt>
      <trkpt lat="42.93928167" lon="0.21269833">
        <ele>1118.0</ele>
        <time>2019-07-07T06:50:15.830Z</time>
      </trkpt>
      <trkpt lat="42.93926167" lon="0.21267">
        <ele>1118.0</ele>
        <time>2019-07-07T06:50:16.804Z</time>
      </trkpt>
      <trkpt lat="42.93926167" lon="0.21267">
        <ele>1118.0</ele>
        <time>2019-07-07T06:50:17.831Z</time>
      </trkpt>
      <trkpt lat="42.939225" lon="0.21261">
        <ele>1118.0</ele>
        <time>2019-07-07T06:50:18.811Z</time>
      </trkpt>
      <trkpt lat="42.939225" lon="0.21261">
        <ele>1118.0</ele>
        <time>2019-07-07T06:50:19.840Z</time>
      </trkpt>
      <trkpt lat="42.93918333" lon="0.21255">
        <ele>1118.0</ele>
        <time>2019-07-07T06:50:20.816Z</time>
      </trkpt>
      <trkpt lat="42.93918333" lon="0.21255">
        <ele>1118.0</ele>
        <time>2019-07-07T06:50:21.809Z</time>
      </trkpt>
      <trkpt lat="42.93914167" lon="0.212505">
        <ele>1119.0</ele>
        <time>2019-07-07T06:50:22.802Z</time>
      </trkpt>
      <trkpt lat="42.93914167" lon="0.212505">
        <ele>1119.0</ele>
        <time>2019-07-07T06:50:23.832Z</time>
      </trkpt>
      <trkpt lat="42.93910167" lon="0.21244667">
        <ele>1119.0</ele>
        <time>2019-07-07T06:50:24.802Z</time>
      </trkpt>
      <trkpt lat="42.93910167" lon="0.21244667">
        <ele>1119.0</ele>
        <time>2019-07-07T06:50:25.840Z</time>
      </trkpt>
      <trkpt lat="42.939065" lon="0.212385">
        <ele>1119.0</ele>
        <time>2019-07-07T06:50:26.802Z</time>
      </trkpt>
      <trkpt lat="42.939065" lon="0.212385">
        <ele>1119.0</ele>
        <time>2019-07-07T06:50:27.831Z</time>
      </trkpt>
      <trkpt lat="42.939025" lon="0.21232667">
        <ele>1119.0</ele>
        <time>2019-07-07T06:50:28.804Z</time>
      </trkpt>
      <trkpt lat="42.939025" lon="0.21232667">
        <ele>1119.0</ele>
        <time>2019-07-07T06:50:29.832Z</time>
      </trkpt>
      <trkpt lat="42.93899667" lon="0.21225167">
        <ele>1119.0</ele>
        <time>2019-07-07T06:50:30.816Z</time>
      </trkpt>
      <trkpt lat="42.93899667" lon="0.21225167">
        <ele>1119.0</ele>
        <time>2019-07-07T06:50:31.832Z</time>
      </trkpt>
      <trkpt lat="42.93895833" lon="0.2122">
        <ele>1119.0</ele>
        <time>2019-07-07T06:50:32.805Z</time>
      </trkpt>
      <trkpt lat="42.93895833" lon="0.2122">
        <ele>1119.0</ele>
        <time>2019-07-07T06:50:33.829Z</time>
      </trkpt>
      <trkpt lat="42.93892333" lon="0.21213333">
        <ele>1120.0</ele>
        <time>2019-07-07T06:50:34.803Z</time>
      </trkpt>
      <trkpt lat="42.93892333" lon="0.21213333">
        <ele>1120.0</ele>
        <time>2019-07-07T06:50:35.809Z</time>
      </trkpt>
      <trkpt lat="42.93888667" lon="0.21206667">
        <ele>1120.0</ele>
        <time>2019-07-07T06:50:36.806Z</time>
      </trkpt>
      <trkpt lat="42.93888667" lon="0.21206667">
        <ele>1120.0</ele>
        <time>2019-07-07T06:50:37.837Z</time>
      </trkpt>
      <trkpt lat="42.93885333" lon="0.21199167">
        <ele>1120.0</ele>
        <time>2019-07-07T06:50:38.804Z</time>
      </trkpt>
      <trkpt lat="42.93885333" lon="0.21199167">
        <ele>1120.0</ele>
        <time>2019-07-07T06:50:39.840Z</time>
      </trkpt>
      <trkpt lat="42.93881833" lon="0.21193">
        <ele>1120.0</ele>
        <time>2019-07-07T06:50:40.810Z</time>
      </trkpt>
      <trkpt lat="42.93881833" lon="0.21193">
        <ele>1120.0</ele>
        <time>2019-07-07T06:50:41.807Z</time>
      </trkpt>
      <trkpt lat="42.93878333" lon="0.21186333">
        <ele>1121.0</ele>
        <time>2019-07-07T06:50:42.813Z</time>
      </trkpt>
      <trkpt lat="42.93878333" lon="0.21186333">
        <ele>1121.0</ele>
        <time>2019-07-07T06:50:43.816Z</time>
      </trkpt>
      <trkpt lat="42.93875333" lon="0.21182333">
        <ele>1121.0</ele>
        <time>2019-07-07T06:50:44.833Z</time>
      </trkpt>
      <trkpt lat="42.93875333" lon="0.21182333">
        <ele>1121.0</ele>
        <time>2019-07-07T06:50:45.809Z</time>
      </trkpt>
      <trkpt lat="42.93872333" lon="0.21179167">
        <ele>1121.0</ele>
        <time>2019-07-07T06:50:46.803Z</time>
      </trkpt>
      <trkpt lat="42.93872333" lon="0.21179167">
        <ele>1121.0</ele>
        <time>2019-07-07T06:50:47.835Z</time>
      </trkpt>
      <trkpt lat="42.93871333" lon="0.21176167">
        <ele>1122.0</ele>
        <time>2019-07-07T06:50:48.804Z</time>
      </trkpt>
      <trkpt lat="42.9387" lon="0.211755">
        <ele>1122.0</ele>
        <time>2019-07-07T06:50:49.822Z</time>
      </trkpt>
      <trkpt lat="42.9387" lon="0.211755">
        <ele>1122.0</ele>
        <time>2019-07-07T06:50:50.810Z</time>
      </trkpt>
      <trkpt lat="42.93868" lon="0.21173667">
        <ele>1122.0</ele>
        <time>2019-07-07T06:50:51.833Z</time>
      </trkpt>
      <trkpt lat="42.93867" lon="0.21173667">
        <ele>1123.0</ele>
        <time>2019-07-07T06:50:52.805Z</time>
      </trkpt>
      <trkpt lat="42.93867" lon="0.21173667">
        <ele>1123.0</ele>
        <time>2019-07-07T06:50:53.833Z</time>
      </trkpt>
      <trkpt lat="42.938655" lon="0.21173167">
        <ele>1123.0</ele>
        <time>2019-07-07T06:50:54.816Z</time>
      </trkpt>
      <trkpt lat="42.938655" lon="0.21173167">
        <ele>1123.0</ele>
        <time>2019-07-07T06:50:55.841Z</time>
      </trkpt>
      <trkpt lat="42.93862333" lon="0.21171667">
        <ele>1123.0</ele>
        <time>2019-07-07T06:50:56.811Z</time>
      </trkpt>
      <trkpt lat="42.93862333" lon="0.21171667">
        <ele>1123.0</ele>
        <time>2019-07-07T06:50:57.801Z</time>
      </trkpt>
      <trkpt lat="42.93858" lon="0.21170333">
        <ele>1124.0</ele>
        <time>2019-07-07T06:50:58.814Z</time>
      </trkpt>
      <trkpt lat="42.93858" lon="0.21170333">
        <ele>1124.0</ele>
        <time>2019-07-07T06:50:59.839Z</time>
      </trkpt>
      <trkpt lat="42.938545" lon="0.21167167">
        <ele>1124.0</ele>
        <time>2019-07-07T06:51:00.804Z</time>
      </trkpt>
      <trkpt lat="42.938545" lon="0.21167167">
        <ele>1124.0</ele>
        <time>2019-07-07T06:51:01.830Z</time>
      </trkpt>
      <trkpt lat="42.938495" lon="0.21163333">
        <ele>1125.0</ele>
        <time>2019-07-07T06:51:02.814Z</time>
      </trkpt>
      <trkpt lat="42.938495" lon="0.21163333">
        <ele>1125.0</ele>
        <time>2019-07-07T06:51:03.833Z</time>
      </trkpt>
      <trkpt lat="42.93844333" lon="0.21160167">
        <ele>1125.0</ele>
        <time>2019-07-07T06:51:04.813Z</time>
      </trkpt>
      <trkpt lat="42.93844333" lon="0.21160167">
        <ele>1125.0</ele>
        <time>2019-07-07T06:51:05.802Z</time>
      </trkpt>
      <trkpt lat="42.93840833" lon="0.21157">
        <ele>1126.0</ele>
        <time>2019-07-07T06:51:06.804Z</time>
      </trkpt>
      <trkpt lat="42.93840833" lon="0.21157">
        <ele>1126.0</ele>
        <time>2019-07-07T06:51:07.833Z</time>
      </trkpt>
      <trkpt lat="42.93836667" lon="0.21154">
        <ele>1126.0</ele>
        <time>2019-07-07T06:51:08.813Z</time>
      </trkpt>
      <trkpt lat="42.93836667" lon="0.21154">
        <ele>1126.0</ele>
        <time>2019-07-07T06:51:09.801Z</time>
      </trkpt>
      <trkpt lat="42.93832833" lon="0.21151833">
        <ele>1127.0</ele>
        <time>2019-07-07T06:51:10.815Z</time>
      </trkpt>
      <trkpt lat="42.93832833" lon="0.21151833">
        <ele>1127.0</ele>
        <time>2019-07-07T06:51:11.834Z</time>
      </trkpt>
      <trkpt lat="42.93819667" lon="0.211365">
        <ele>1127.0</ele>
        <time>2019-07-07T06:51:12.804Z</time>
      </trkpt>
      <trkpt lat="42.93819667" lon="0.211365">
        <ele>1127.0</ele>
        <time>2019-07-07T06:51:13.833Z</time>
      </trkpt>
      <trkpt lat="42.938145" lon="0.21114333">
        <ele>1128.0</ele>
        <time>2019-07-07T06:51:14.813Z</time>
      </trkpt>
      <trkpt lat="42.938145" lon="0.21114333">
        <ele>1128.0</ele>
        <time>2019-07-07T06:51:15.801Z</time>
      </trkpt>
      <trkpt lat="42.93810833" lon="0.21100667">
        <ele>1128.0</ele>
        <time>2019-07-07T06:51:16.816Z</time>
      </trkpt>
      <trkpt lat="42.93810833" lon="0.21100667">
        <ele>1128.0</ele>
        <time>2019-07-07T06:51:17.802Z</time>
      </trkpt>
      <trkpt lat="42.93806" lon="0.21087167">
        <ele>1129.0</ele>
        <time>2019-07-07T06:51:18.814Z</time>
      </trkpt>
      <trkpt lat="42.93803833" lon="0.21084333">
        <ele>1129.0</ele>
        <time>2019-07-07T06:51:19.814Z</time>
      </trkpt>
      <trkpt lat="42.93803833" lon="0.21084333">
        <ele>1129.0</ele>
        <time>2019-07-07T06:51:20.834Z</time>
      </trkpt>
      <trkpt lat="42.93799" lon="0.21078333">
        <ele>1130.0</ele>
        <time>2019-07-07T06:51:21.819Z</time>
      </trkpt>
      <trkpt lat="42.93796667" lon="0.210755">
        <ele>1130.0</ele>
        <time>2019-07-07T06:51:22.813Z</time>
      </trkpt>
      <trkpt lat="42.93796667" lon="0.210755">
        <ele>1130.0</ele>
        <time>2019-07-07T06:51:23.807Z</time>
      </trkpt>
      <trkpt lat="42.93792667" lon="0.21069833">
        <ele>1131.0</ele>
        <time>2019-07-07T06:51:24.816Z</time>
      </trkpt>
      <trkpt lat="42.93792667" lon="0.21069833">
        <ele>1131.0</ele>
        <time>2019-07-07T06:51:25.802Z</time>
      </trkpt>
      <trkpt lat="42.93788333" lon="0.21064333">
        <ele>1132.0</ele>
        <time>2019-07-07T06:51:26.803Z</time>
      </trkpt>
      <trkpt lat="42.93788333" lon="0.21064333">
        <ele>1132.0</ele>
        <time>2019-07-07T06:51:27.838Z</time>
      </trkpt>
      <trkpt lat="42.937835" lon="0.21059333">
        <ele>1132.0</ele>
        <time>2019-07-07T06:51:28.809Z</time>
      </trkpt>
      <trkpt lat="42.937835" lon="0.21059333">
        <ele>1132.0</ele>
        <time>2019-07-07T06:51:29.824Z</time>
      </trkpt>
      <trkpt lat="42.93778667" lon="0.21053833">
        <ele>1133.0</ele>
        <time>2019-07-07T06:51:30.815Z</time>
      </trkpt>
      <trkpt lat="42.93778667" lon="0.21053833">
        <ele>1133.0</ele>
        <time>2019-07-07T06:51:31.810Z</time>
      </trkpt>
      <trkpt lat="42.93774333" lon="0.210485">
        <ele>1134.0</ele>
        <time>2019-07-07T06:51:32.842Z</time>
      </trkpt>
      <trkpt lat="42.93774333" lon="0.210485">
        <ele>1134.0</ele>
        <time>2019-07-07T06:51:33.801Z</time>
      </trkpt>
      <trkpt lat="42.93770167" lon="0.21043167">
        <ele>1135.0</ele>
        <time>2019-07-07T06:51:34.814Z</time>
      </trkpt>
      <trkpt lat="42.93770167" lon="0.21043167">
        <ele>1135.0</ele>
        <time>2019-07-07T06:51:35.812Z</time>
      </trkpt>
      <trkpt lat="42.93766167" lon="0.21037833">
        <ele>1136.0</ele>
        <time>2019-07-07T06:51:36.804Z</time>
      </trkpt>
      <trkpt lat="42.93766167" lon="0.21037833">
        <ele>1136.0</ele>
        <time>2019-07-07T06:51:37.810Z</time>
      </trkpt>
      <trkpt lat="42.937615" lon="0.21033333">
        <ele>1136.0</ele>
        <time>2019-07-07T06:51:38.804Z</time>
      </trkpt>
      <trkpt lat="42.93758833" lon="0.21031">
        <ele>1136.0</ele>
        <time>2019-07-07T06:51:39.812Z</time>
      </trkpt>
      <trkpt lat="42.93756667" lon="0.21027667">
        <ele>1137.0</ele>
        <time>2019-07-07T06:51:40.804Z</time>
      </trkpt>
      <trkpt lat="42.93756667" lon="0.21027667">
        <ele>1137.0</ele>
        <time>2019-07-07T06:51:41.840Z</time>
      </trkpt>
      <trkpt lat="42.93752167" lon="0.210215">
        <ele>1138.0</ele>
        <time>2019-07-07T06:51:42.811Z</time>
      </trkpt>
      <trkpt lat="42.93752167" lon="0.210215">
        <ele>1138.0</ele>
        <time>2019-07-07T06:51:43.801Z</time>
      </trkpt>
      <trkpt lat="42.93748167" lon="0.21015">
        <ele>1138.0</ele>
        <time>2019-07-07T06:51:44.805Z</time>
      </trkpt>
      <trkpt lat="42.93748167" lon="0.21015">
        <ele>1138.0</ele>
        <time>2019-07-07T06:51:45.833Z</time>
      </trkpt>
      <trkpt lat="42.93744333" lon="0.21008667">
        <ele>1139.0</ele>
        <time>2019-07-07T06:51:46.816Z</time>
      </trkpt>
      <trkpt lat="42.93744333" lon="0.21008667">
        <ele>1139.0</ele>
        <time>2019-07-07T06:51:47.804Z</time>
      </trkpt>
      <trkpt lat="42.93741333" lon="0.21001167">
        <ele>1140.0</ele>
        <time>2019-07-07T06:51:48.818Z</time>
      </trkpt>
      <trkpt lat="42.9374" lon="0.20997333">
        <ele>1140.0</ele>
        <time>2019-07-07T06:51:49.827Z</time>
      </trkpt>
      <trkpt lat="42.9374" lon="0.20997333">
        <ele>1140.0</ele>
        <time>2019-07-07T06:51:50.809Z</time>
      </trkpt>
      <trkpt lat="42.93737667" lon="0.209895">
        <ele>1140.0</ele>
        <time>2019-07-07T06:51:51.824Z</time>
      </trkpt>
      <trkpt lat="42.93737667" lon="0.209895">
        <ele>1140.0</ele>
        <time>2019-07-07T06:51:52.834Z</time>
      </trkpt>
      <trkpt lat="42.93735167" lon="0.209815">
        <ele>1140.0</ele>
        <time>2019-07-07T06:51:53.823Z</time>
      </trkpt>
      <trkpt lat="42.93733833" lon="0.20977667">
        <ele>1140.0</ele>
        <time>2019-07-07T06:51:54.804Z</time>
      </trkpt>
      <trkpt lat="42.93733833" lon="0.20977667">
        <ele>1140.0</ele>
        <time>2019-07-07T06:51:55.809Z</time>
      </trkpt>
      <trkpt lat="42.937295" lon="0.20971833">
        <ele>1140.0</ele>
        <time>2019-07-07T06:51:56.804Z</time>
      </trkpt>
      <trkpt lat="42.937295" lon="0.20971833">
        <ele>1140.0</ele>
        <time>2019-07-07T06:51:57.803Z</time>
      </trkpt>
      <trkpt lat="42.93725667" lon="0.20965667">
        <ele>1140.0</ele>
        <time>2019-07-07T06:51:58.825Z</time>
      </trkpt>
      <trkpt lat="42.93723667" lon="0.20962667">
        <ele>1140.0</ele>
        <time>2019-07-07T06:51:59.840Z</time>
      </trkpt>
      <trkpt lat="42.93723667" lon="0.20962667">
        <ele>1140.0</ele>
        <time>2019-07-07T06:52:00.835Z</time>
      </trkpt>
      <trkpt lat="42.93718667" lon="0.20958167">
        <ele>1140.0</ele>
        <time>2019-07-07T06:52:01.824Z</time>
      </trkpt>
      <trkpt lat="42.93718667" lon="0.20958167">
        <ele>1140.0</ele>
        <time>2019-07-07T06:52:02.811Z</time>
      </trkpt>
      <trkpt lat="42.93713167" lon="0.20954667">
        <ele>1140.0</ele>
        <time>2019-07-07T06:52:03.821Z</time>
      </trkpt>
      <trkpt lat="42.937105" lon="0.20953">
        <ele>1141.0</ele>
        <time>2019-07-07T06:52:04.804Z</time>
      </trkpt>
      <trkpt lat="42.937105" lon="0.20953">
        <ele>1141.0</ele>
        <time>2019-07-07T06:52:05.811Z</time>
      </trkpt>
      <trkpt lat="42.93705333" lon="0.20949667">
        <ele>1141.0</ele>
        <time>2019-07-07T06:52:06.801Z</time>
      </trkpt>
      <trkpt lat="42.93705333" lon="0.20949667">
        <ele>1141.0</ele>
        <time>2019-07-07T06:52:07.834Z</time>
      </trkpt>
      <trkpt lat="42.93699667" lon="0.20946667">
        <ele>1141.0</ele>
        <time>2019-07-07T06:52:08.819Z</time>
      </trkpt>
      <trkpt lat="42.93696667" lon="0.20945167">
        <ele>1142.0</ele>
        <time>2019-07-07T06:52:09.815Z</time>
      </trkpt>
      <trkpt lat="42.93693667" lon="0.209435">
        <ele>1143.0</ele>
        <time>2019-07-07T06:52:10.825Z</time>
      </trkpt>
      <trkpt lat="42.93693667" lon="0.209435">
        <ele>1143.0</ele>
        <time>2019-07-07T06:52:11.831Z</time>
      </trkpt>
      <trkpt lat="42.93687833" lon="0.20940667">
        <ele>1144.0</ele>
        <time>2019-07-07T06:52:12.817Z</time>
      </trkpt>
      <trkpt lat="42.93684833" lon="0.20939">
        <ele>1145.0</ele>
        <time>2019-07-07T06:52:13.815Z</time>
      </trkpt>
      <trkpt lat="42.93684833" lon="0.20939">
        <ele>1145.0</ele>
        <time>2019-07-07T06:52:14.803Z</time>
      </trkpt>
      <trkpt lat="42.93679333" lon="0.20936">
        <ele>1146.0</ele>
        <time>2019-07-07T06:52:15.822Z</time>
      </trkpt>
      <trkpt lat="42.93676667" lon="0.20934167">
        <ele>1147.0</ele>
        <time>2019-07-07T06:52:16.824Z</time>
      </trkpt>
      <trkpt lat="42.93676667" lon="0.20934167">
        <ele>1147.0</ele>
        <time>2019-07-07T06:52:17.810Z</time>
      </trkpt>
      <trkpt lat="42.93671333" lon="0.20930167">
        <ele>1148.0</ele>
        <time>2019-07-07T06:52:18.804Z</time>
      </trkpt>
      <trkpt lat="42.93671333" lon="0.20930167">
        <ele>1148.0</ele>
        <time>2019-07-07T06:52:19.835Z</time>
      </trkpt>
      <trkpt lat="42.93666167" lon="0.20926167">
        <ele>1149.0</ele>
        <time>2019-07-07T06:52:20.811Z</time>
      </trkpt>
      <trkpt lat="42.93666167" lon="0.20926167">
        <ele>1149.0</ele>
        <time>2019-07-07T06:52:21.815Z</time>
      </trkpt>
      <trkpt lat="42.93661833" lon="0.20920333">
        <ele>1150.0</ele>
        <time>2019-07-07T06:52:22.813Z</time>
      </trkpt>
      <trkpt lat="42.93661833" lon="0.20920333">
        <ele>1150.0</ele>
        <time>2019-07-07T06:52:23.803Z</time>
      </trkpt>
      <trkpt lat="42.93658333" lon="0.20913167">
        <ele>1152.0</ele>
        <time>2019-07-07T06:52:24.816Z</time>
      </trkpt>
      <trkpt lat="42.93658333" lon="0.20913167">
        <ele>1152.0</ele>
        <time>2019-07-07T06:52:25.802Z</time>
      </trkpt>
      <trkpt lat="42.936565" lon="0.20905833">
        <ele>1153.0</ele>
        <time>2019-07-07T06:52:26.811Z</time>
      </trkpt>
      <trkpt lat="42.936565" lon="0.20905833">
        <ele>1153.0</ele>
        <time>2019-07-07T06:52:27.802Z</time>
      </trkpt>
      <trkpt lat="42.93655167" lon="0.20898">
        <ele>1154.0</ele>
        <time>2019-07-07T06:52:28.816Z</time>
      </trkpt>
      <trkpt lat="42.93655167" lon="0.20898">
        <ele>1154.0</ele>
        <time>2019-07-07T06:52:29.803Z</time>
      </trkpt>
      <trkpt lat="42.936545" lon="0.2089">
        <ele>1154.0</ele>
        <time>2019-07-07T06:52:30.806Z</time>
      </trkpt>
      <trkpt lat="42.936545" lon="0.20885667">
        <ele>1154.0</ele>
        <time>2019-07-07T06:52:31.808Z</time>
      </trkpt>
      <trkpt lat="42.936545" lon="0.20885667">
        <ele>1154.0</ele>
        <time>2019-07-07T06:52:32.807Z</time>
      </trkpt>
      <trkpt lat="42.93653167" lon="0.20877">
        <ele>1155.0</ele>
        <time>2019-07-07T06:52:33.813Z</time>
      </trkpt>
      <trkpt lat="42.93652" lon="0.20873">
        <ele>1155.0</ele>
        <time>2019-07-07T06:52:34.829Z</time>
      </trkpt>
      <trkpt lat="42.93652" lon="0.20873">
        <ele>1155.0</ele>
        <time>2019-07-07T06:52:35.832Z</time>
      </trkpt>
      <trkpt lat="42.93648833" lon="0.20865833">
        <ele>1156.0</ele>
        <time>2019-07-07T06:52:36.815Z</time>
      </trkpt>
      <trkpt lat="42.93648833" lon="0.20865833">
        <ele>1156.0</ele>
        <time>2019-07-07T06:52:37.802Z</time>
      </trkpt>
      <trkpt lat="42.93644333" lon="0.208595">
        <ele>1157.0</ele>
        <time>2019-07-07T06:52:38.825Z</time>
      </trkpt>
      <trkpt lat="42.93641333" lon="0.20858">
        <ele>1157.0</ele>
        <time>2019-07-07T06:52:39.822Z</time>
      </trkpt>
      <trkpt lat="42.93638333" lon="0.20858">
        <ele>1157.0</ele>
        <time>2019-07-07T06:52:40.805Z</time>
      </trkpt>
      <trkpt lat="42.93638333" lon="0.20858">
        <ele>1157.0</ele>
        <time>2019-07-07T06:52:41.814Z</time>
      </trkpt>
      <trkpt lat="42.93632167" lon="0.20860167">
        <ele>1158.0</ele>
        <time>2019-07-07T06:52:42.801Z</time>
      </trkpt>
      <trkpt lat="42.93632167" lon="0.20860167">
        <ele>1158.0</ele>
        <time>2019-07-07T06:52:43.834Z</time>
      </trkpt>
      <trkpt lat="42.93626167" lon="0.20864333">
        <ele>1158.0</ele>
        <time>2019-07-07T06:52:44.806Z</time>
      </trkpt>
      <trkpt lat="42.93626167" lon="0.20864333">
        <ele>1158.0</ele>
        <time>2019-07-07T06:52:45.802Z</time>
      </trkpt>
      <trkpt lat="42.936205" lon="0.2087">
        <ele>1160.0</ele>
        <time>2019-07-07T06:52:46.816Z</time>
      </trkpt>
      <trkpt lat="42.936205" lon="0.2087">
        <ele>1160.0</ele>
        <time>2019-07-07T06:52:47.835Z</time>
      </trkpt>
      <trkpt lat="42.93614833" lon="0.20875">
        <ele>1162.0</ele>
        <time>2019-07-07T06:52:48.806Z</time>
      </trkpt>
      <trkpt lat="42.93612" lon="0.208775">
        <ele>1162.0</ele>
        <time>2019-07-07T06:52:49.810Z</time>
      </trkpt>
      <trkpt lat="42.93612" lon="0.208775">
        <ele>1162.0</ele>
        <time>2019-07-07T06:52:50.832Z</time>
      </trkpt>
      <trkpt lat="42.93608" lon="0.20882167">
        <ele>1164.0</ele>
        <time>2019-07-07T06:52:51.833Z</time>
      </trkpt>
      <trkpt lat="42.93608" lon="0.20882167">
        <ele>1164.0</ele>
        <time>2019-07-07T06:52:52.837Z</time>
      </trkpt>
      <trkpt lat="42.93601333" lon="0.20882667">
        <ele>1165.0</ele>
        <time>2019-07-07T06:52:53.815Z</time>
      </trkpt>
      <trkpt lat="42.93598167" lon="0.20881667">
        <ele>1166.0</ele>
        <time>2019-07-07T06:52:54.826Z</time>
      </trkpt>
      <trkpt lat="42.93598167" lon="0.20881667">
        <ele>1166.0</ele>
        <time>2019-07-07T06:52:55.811Z</time>
      </trkpt>
      <trkpt lat="42.93592667" lon="0.20876667">
        <ele>1166.0</ele>
        <time>2019-07-07T06:52:56.816Z</time>
      </trkpt>
      <trkpt lat="42.93592667" lon="0.20876667">
        <ele>1166.0</ele>
        <time>2019-07-07T06:52:57.835Z</time>
      </trkpt>
      <trkpt lat="42.93587667" lon="0.208705">
        <ele>1167.0</ele>
        <time>2019-07-07T06:52:58.829Z</time>
      </trkpt>
      <trkpt lat="42.93587667" lon="0.208705">
        <ele>1167.0</ele>
        <time>2019-07-07T06:52:59.809Z</time>
      </trkpt>
      <trkpt lat="42.93583333" lon="0.20864167">
        <ele>1167.0</ele>
        <time>2019-07-07T06:53:00.815Z</time>
      </trkpt>
      <trkpt lat="42.93580833" lon="0.20861833">
        <ele>1168.0</ele>
        <time>2019-07-07T06:53:01.824Z</time>
      </trkpt>
      <trkpt lat="42.93578667" lon="0.20859167">
        <ele>1168.0</ele>
        <time>2019-07-07T06:53:02.814Z</time>
      </trkpt>
      <trkpt lat="42.93578667" lon="0.20859167">
        <ele>1168.0</ele>
        <time>2019-07-07T06:53:03.840Z</time>
      </trkpt>
      <trkpt lat="42.93574667" lon="0.20853167">
        <ele>1169.0</ele>
        <time>2019-07-07T06:53:04.807Z</time>
      </trkpt>
      <trkpt lat="42.93574667" lon="0.20853167">
        <ele>1169.0</ele>
        <time>2019-07-07T06:53:05.809Z</time>
      </trkpt>
      <trkpt lat="42.9357" lon="0.20847833">
        <ele>1169.0</ele>
        <time>2019-07-07T06:53:06.813Z</time>
      </trkpt>
      <trkpt lat="42.9357" lon="0.20847833">
        <ele>1169.0</ele>
        <time>2019-07-07T06:53:07.803Z</time>
      </trkpt>
      <trkpt lat="42.935635" lon="0.20845">
        <ele>1170.0</ele>
        <time>2019-07-07T06:53:08.817Z</time>
      </trkpt>
      <trkpt lat="42.935635" lon="0.20845">
        <ele>1170.0</ele>
        <time>2019-07-07T06:53:09.802Z</time>
      </trkpt>
      <trkpt lat="42.93557833" lon="0.20841833">
        <ele>1171.0</ele>
        <time>2019-07-07T06:53:10.815Z</time>
      </trkpt>
      <trkpt lat="42.93555" lon="0.20840833">
        <ele>1172.0</ele>
        <time>2019-07-07T06:53:11.804Z</time>
      </trkpt>
      <trkpt lat="42.93555" lon="0.20840833">
        <ele>1172.0</ele>
        <time>2019-07-07T06:53:12.833Z</time>
      </trkpt>
      <trkpt lat="42.93549333" lon="0.20838167">
        <ele>1172.0</ele>
        <time>2019-07-07T06:53:13.836Z</time>
      </trkpt>
      <trkpt lat="42.93549333" lon="0.20838167">
        <ele>1172.0</ele>
        <time>2019-07-07T06:53:14.804Z</time>
      </trkpt>
      <trkpt lat="42.93543833" lon="0.20836333">
        <ele>1173.0</ele>
        <time>2019-07-07T06:53:15.813Z</time>
      </trkpt>
      <trkpt lat="42.93541" lon="0.20835833">
        <ele>1173.0</ele>
        <time>2019-07-07T06:53:16.823Z</time>
      </trkpt>
      <trkpt lat="42.93541" lon="0.20835833">
        <ele>1173.0</ele>
        <time>2019-07-07T06:53:17.805Z</time>
      </trkpt>
      <trkpt lat="42.93535333" lon="0.20833833">
        <ele>1174.0</ele>
        <time>2019-07-07T06:53:18.822Z</time>
      </trkpt>
      <trkpt lat="42.93535333" lon="0.20833833">
        <ele>1174.0</ele>
        <time>2019-07-07T06:53:19.803Z</time>
      </trkpt>
      <trkpt lat="42.93529833" lon="0.20830667">
        <ele>1175.0</ele>
        <time>2019-07-07T06:53:20.826Z</time>
      </trkpt>
      <trkpt lat="42.93527167" lon="0.20829">
        <ele>1175.0</ele>
        <time>2019-07-07T06:53:21.839Z</time>
      </trkpt>
      <trkpt lat="42.93527167" lon="0.20829">
        <ele>1175.0</ele>
        <time>2019-07-07T06:53:22.802Z</time>
      </trkpt>
      <trkpt lat="42.93521667" lon="0.20825667">
        <ele>1175.0</ele>
        <time>2019-07-07T06:53:23.826Z</time>
      </trkpt>
      <trkpt lat="42.93518667" lon="0.20824333">
        <ele>1176.0</ele>
        <time>2019-07-07T06:53:24.835Z</time>
      </trkpt>
      <trkpt lat="42.93518667" lon="0.20824333">
        <ele>1176.0</ele>
        <time>2019-07-07T06:53:25.834Z</time>
      </trkpt>
      <trkpt lat="42.93513333" lon="0.20821">
        <ele>1176.0</ele>
        <time>2019-07-07T06:53:26.822Z</time>
      </trkpt>
      <trkpt lat="42.93513333" lon="0.20821">
        <ele>1176.0</ele>
        <time>2019-07-07T06:53:27.834Z</time>
      </trkpt>
      <trkpt lat="42.93508333" lon="0.20817167">
        <ele>1176.0</ele>
        <time>2019-07-07T06:53:28.815Z</time>
      </trkpt>
      <trkpt lat="42.93508333" lon="0.20817167">
        <ele>1176.0</ele>
        <time>2019-07-07T06:53:29.811Z</time>
      </trkpt>
      <trkpt lat="42.93504333" lon="0.20811667">
        <ele>1177.0</ele>
        <time>2019-07-07T06:53:30.806Z</time>
      </trkpt>
      <trkpt lat="42.93504333" lon="0.20811667">
        <ele>1177.0</ele>
        <time>2019-07-07T06:53:31.812Z</time>
      </trkpt>
      <trkpt lat="42.93501167" lon="0.20805">
        <ele>1178.0</ele>
        <time>2019-07-07T06:53:32.816Z</time>
      </trkpt>
      <trkpt lat="42.93501167" lon="0.20805">
        <ele>1178.0</ele>
        <time>2019-07-07T06:53:33.834Z</time>
      </trkpt>
      <trkpt lat="42.93498333" lon="0.207975">
        <ele>1178.0</ele>
        <time>2019-07-07T06:53:34.818Z</time>
      </trkpt>
      <trkpt lat="42.93498333" lon="0.207975">
        <ele>1178.0</ele>
        <time>2019-07-07T06:53:35.835Z</time>
      </trkpt>
      <trkpt lat="42.934955" lon="0.20789833">
        <ele>1178.0</ele>
        <time>2019-07-07T06:53:36.827Z</time>
      </trkpt>
      <trkpt lat="42.934955" lon="0.20789833">
        <ele>1178.0</ele>
        <time>2019-07-07T06:53:37.810Z</time>
      </trkpt>
      <trkpt lat="42.93493" lon="0.20782833">
        <ele>1178.0</ele>
        <time>2019-07-07T06:53:38.814Z</time>
      </trkpt>
      <trkpt lat="42.93493" lon="0.20782833">
        <ele>1178.0</ele>
        <time>2019-07-07T06:53:39.816Z</time>
      </trkpt>
      <trkpt lat="42.93490333" lon="0.20776">
        <ele>1178.0</ele>
        <time>2019-07-07T06:53:40.834Z</time>
      </trkpt>
      <trkpt lat="42.93490333" lon="0.20776">
        <ele>1178.0</ele>
        <time>2019-07-07T06:53:41.838Z</time>
      </trkpt>
      <trkpt lat="42.93488167" lon="0.20768167">
        <ele>1179.0</ele>
        <time>2019-07-07T06:53:42.815Z</time>
      </trkpt>
      <trkpt lat="42.93488167" lon="0.20768167">
        <ele>1179.0</ele>
        <time>2019-07-07T06:53:43.833Z</time>
      </trkpt>
      <trkpt lat="42.93484833" lon="0.20761167">
        <ele>1179.0</ele>
        <time>2019-07-07T06:53:44.816Z</time>
      </trkpt>
      <trkpt lat="42.93483167" lon="0.20758">
        <ele>1179.0</ele>
        <time>2019-07-07T06:53:45.825Z</time>
      </trkpt>
      <trkpt lat="42.93483167" lon="0.20758">
        <ele>1179.0</ele>
        <time>2019-07-07T06:53:46.809Z</time>
      </trkpt>
      <trkpt lat="42.93479667" lon="0.207515">
        <ele>1179.0</ele>
        <time>2019-07-07T06:53:47.826Z</time>
      </trkpt>
      <trkpt lat="42.93479667" lon="0.207515">
        <ele>1179.0</ele>
        <time>2019-07-07T06:53:48.809Z</time>
      </trkpt>
      <trkpt lat="42.93476" lon="0.20744833">
        <ele>1179.0</ele>
        <time>2019-07-07T06:53:49.839Z</time>
      </trkpt>
      <trkpt lat="42.93476" lon="0.20744833">
        <ele>1179.0</ele>
        <time>2019-07-07T06:53:50.830Z</time>
      </trkpt>
      <trkpt lat="42.93473167" lon="0.20737833">
        <ele>1179.0</ele>
        <time>2019-07-07T06:53:51.837Z</time>
      </trkpt>
      <trkpt lat="42.93470667" lon="0.20735833">
        <ele>1179.0</ele>
        <time>2019-07-07T06:53:52.808Z</time>
      </trkpt>
      <trkpt lat="42.93470667" lon="0.20735833">
        <ele>1179.0</ele>
        <time>2019-07-07T06:53:53.835Z</time>
      </trkpt>
      <trkpt lat="42.93466333" lon="0.20731">
        <ele>1179.0</ele>
        <time>2019-07-07T06:53:54.825Z</time>
      </trkpt>
      <trkpt lat="42.93466333" lon="0.20731">
        <ele>1179.0</ele>
        <time>2019-07-07T06:53:55.835Z</time>
      </trkpt>
      <trkpt lat="42.934615" lon="0.20726333">
        <ele>1180.0</ele>
        <time>2019-07-07T06:53:56.816Z</time>
      </trkpt>
      <trkpt lat="42.93459333" lon="0.20723667">
        <ele>1180.0</ele>
        <time>2019-07-07T06:53:57.816Z</time>
      </trkpt>
      <trkpt lat="42.93457167" lon="0.20721">
        <ele>1180.0</ele>
        <time>2019-07-07T06:53:58.813Z</time>
      </trkpt>
      <trkpt lat="42.93455" lon="0.207185">
        <ele>1180.0</ele>
        <time>2019-07-07T06:53:59.815Z</time>
      </trkpt>
      <trkpt lat="42.93455" lon="0.207185">
        <ele>1180.0</ele>
        <time>2019-07-07T06:54:00.837Z</time>
      </trkpt>
      <trkpt lat="42.93450333" lon="0.20714">
        <ele>1180.0</ele>
        <time>2019-07-07T06:54:01.804Z</time>
      </trkpt>
      <trkpt lat="42.93448333" lon="0.20711167">
        <ele>1180.0</ele>
        <time>2019-07-07T06:54:02.829Z</time>
      </trkpt>
      <trkpt lat="42.93446167" lon="0.20708833">
        <ele>1180.0</ele>
        <time>2019-07-07T06:54:03.814Z</time>
      </trkpt>
      <trkpt lat="42.93446167" lon="0.20708833">
        <ele>1180.0</ele>
        <time>2019-07-07T06:54:04.813Z</time>
      </trkpt>
      <trkpt lat="42.93441667" lon="0.20704333">
        <ele>1181.0</ele>
        <time>2019-07-07T06:54:05.816Z</time>
      </trkpt>
      <trkpt lat="42.93441667" lon="0.20704333">
        <ele>1181.0</ele>
        <time>2019-07-07T06:54:06.808Z</time>
      </trkpt>
      <trkpt lat="42.93437167" lon="0.206995">
        <ele>1181.0</ele>
        <time>2019-07-07T06:54:07.814Z</time>
      </trkpt>
      <trkpt lat="42.93435" lon="0.20697">
        <ele>1181.0</ele>
        <time>2019-07-07T06:54:08.826Z</time>
      </trkpt>
      <trkpt lat="42.93435" lon="0.20697">
        <ele>1181.0</ele>
        <time>2019-07-07T06:54:09.828Z</time>
      </trkpt>
      <trkpt lat="42.93430167" lon="0.20692333">
        <ele>1181.0</ele>
        <time>2019-07-07T06:54:10.810Z</time>
      </trkpt>
      <trkpt lat="42.93430167" lon="0.20692333">
        <ele>1181.0</ele>
        <time>2019-07-07T06:54:11.809Z</time>
      </trkpt>
      <trkpt lat="42.934255" lon="0.20687167">
        <ele>1181.0</ele>
        <time>2019-07-07T06:54:12.815Z</time>
      </trkpt>
      <trkpt lat="42.934255" lon="0.20687167">
        <ele>1181.0</ele>
        <time>2019-07-07T06:54:13.827Z</time>
      </trkpt>
      <trkpt lat="42.93420667" lon="0.20682">
        <ele>1182.0</ele>
        <time>2019-07-07T06:54:14.816Z</time>
      </trkpt>
      <trkpt lat="42.934185" lon="0.20679333">
        <ele>1182.0</ele>
        <time>2019-07-07T06:54:15.815Z</time>
      </trkpt>
      <trkpt lat="42.934165" lon="0.206765">
        <ele>1182.0</ele>
        <time>2019-07-07T06:54:16.807Z</time>
      </trkpt>
      <trkpt lat="42.934165" lon="0.206765">
        <ele>1182.0</ele>
        <time>2019-07-07T06:54:17.840Z</time>
      </trkpt>
      <trkpt lat="42.93412667" lon="0.20670667">
        <ele>1183.0</ele>
        <time>2019-07-07T06:54:18.805Z</time>
      </trkpt>
      <trkpt lat="42.93412667" lon="0.20670667">
        <ele>1183.0</ele>
        <time>2019-07-07T06:54:19.832Z</time>
      </trkpt>
      <trkpt lat="42.93409167" lon="0.20664667">
        <ele>1184.0</ele>
        <time>2019-07-07T06:54:20.814Z</time>
      </trkpt>
      <trkpt lat="42.93409167" lon="0.20664667">
        <ele>1184.0</ele>
        <time>2019-07-07T06:54:21.812Z</time>
      </trkpt>
      <trkpt lat="42.93405833" lon="0.206585">
        <ele>1185.0</ele>
        <time>2019-07-07T06:54:22.827Z</time>
      </trkpt>
      <trkpt lat="42.93405833" lon="0.206585">
        <ele>1185.0</ele>
        <time>2019-07-07T06:54:23.837Z</time>
      </trkpt>
      <trkpt lat="42.934035" lon="0.20651167">
        <ele>1185.0</ele>
        <time>2019-07-07T06:54:24.817Z</time>
      </trkpt>
      <trkpt lat="42.934035" lon="0.20651167">
        <ele>1185.0</ele>
        <time>2019-07-07T06:54:25.830Z</time>
      </trkpt>
      <trkpt lat="42.93401667" lon="0.20644">
        <ele>1185.0</ele>
        <time>2019-07-07T06:54:26.838Z</time>
      </trkpt>
      <trkpt lat="42.93401667" lon="0.20644">
        <ele>1185.0</ele>
        <time>2019-07-07T06:54:27.815Z</time>
      </trkpt>
      <trkpt lat="42.93399167" lon="0.20636667">
        <ele>1186.0</ele>
        <time>2019-07-07T06:54:28.823Z</time>
      </trkpt>
      <trkpt lat="42.93399167" lon="0.20636667">
        <ele>1186.0</ele>
        <time>2019-07-07T06:54:29.811Z</time>
      </trkpt>
      <trkpt lat="42.93396167" lon="0.206295">
        <ele>1186.0</ele>
        <time>2019-07-07T06:54:30.823Z</time>
      </trkpt>
      <trkpt lat="42.93396167" lon="0.206295">
        <ele>1186.0</ele>
        <time>2019-07-07T06:54:31.834Z</time>
      </trkpt>
      <trkpt lat="42.93392833" lon="0.20623">
        <ele>1187.0</ele>
        <time>2019-07-07T06:54:32.813Z</time>
      </trkpt>
      <trkpt lat="42.93391" lon="0.20619667">
        <ele>1187.0</ele>
        <time>2019-07-07T06:54:33.814Z</time>
      </trkpt>
      <trkpt lat="42.93391" lon="0.20619667">
        <ele>1187.0</ele>
        <time>2019-07-07T06:54:34.838Z</time>
      </trkpt>
      <trkpt lat="42.93387667" lon="0.20613667">
        <ele>1187.0</ele>
        <time>2019-07-07T06:54:35.816Z</time>
      </trkpt>
      <trkpt lat="42.93387667" lon="0.20613667">
        <ele>1187.0</ele>
        <time>2019-07-07T06:54:36.806Z</time>
      </trkpt>
      <trkpt lat="42.93383833" lon="0.20607833">
        <ele>1187.0</ele>
        <time>2019-07-07T06:54:37.814Z</time>
      </trkpt>
      <trkpt lat="42.93381833" lon="0.20604833">
        <ele>1188.0</ele>
        <time>2019-07-07T06:54:38.833Z</time>
      </trkpt>
      <trkpt lat="42.93381833" lon="0.20604833">
        <ele>1188.0</ele>
        <time>2019-07-07T06:54:39.817Z</time>
      </trkpt>
      <trkpt lat="42.93378167" lon="0.20598667">
        <ele>1188.0</ele>
        <time>2019-07-07T06:54:40.827Z</time>
      </trkpt>
      <trkpt lat="42.93378167" lon="0.20598667">
        <ele>1188.0</ele>
        <time>2019-07-07T06:54:41.817Z</time>
      </trkpt>
      <trkpt lat="42.93374167" lon="0.20592667">
        <ele>1189.0</ele>
        <time>2019-07-07T06:54:42.816Z</time>
      </trkpt>
      <trkpt lat="42.93374167" lon="0.20592667">
        <ele>1189.0</ele>
        <time>2019-07-07T06:54:43.809Z</time>
      </trkpt>
      <trkpt lat="42.93369667" lon="0.20588167">
        <ele>1189.0</ele>
        <time>2019-07-07T06:54:44.816Z</time>
      </trkpt>
      <trkpt lat="42.93369667" lon="0.20588167">
        <ele>1189.0</ele>
        <time>2019-07-07T06:54:45.836Z</time>
      </trkpt>
      <trkpt lat="42.93365333" lon="0.205835">
        <ele>1189.0</ele>
        <time>2019-07-07T06:54:46.815Z</time>
      </trkpt>
      <trkpt lat="42.93365333" lon="0.205835">
        <ele>1189.0</ele>
        <time>2019-07-07T06:54:47.829Z</time>
      </trkpt>
      <trkpt lat="42.933605" lon="0.20579333">
        <ele>1190.0</ele>
        <time>2019-07-07T06:54:48.837Z</time>
      </trkpt>
      <trkpt lat="42.93358" lon="0.20577333">
        <ele>1190.0</ele>
        <time>2019-07-07T06:54:49.829Z</time>
      </trkpt>
      <trkpt lat="42.933555" lon="0.205755">
        <ele>1191.0</ele>
        <time>2019-07-07T06:54:50.838Z</time>
      </trkpt>
      <trkpt lat="42.933555" lon="0.205755">
        <ele>1191.0</ele>
        <time>2019-07-07T06:54:51.813Z</time>
      </trkpt>
      <trkpt lat="42.93350667" lon="0.20571333">
        <ele>1191.0</ele>
        <time>2019-07-07T06:54:52.821Z</time>
      </trkpt>
      <trkpt lat="42.93350667" lon="0.20571333">
        <ele>1191.0</ele>
        <time>2019-07-07T06:54:53.805Z</time>
      </trkpt>
      <trkpt lat="42.93345" lon="0.20567167">
        <ele>1193.0</ele>
        <time>2019-07-07T06:54:54.827Z</time>
      </trkpt>
      <trkpt lat="42.93345" lon="0.20567167">
        <ele>1193.0</ele>
        <time>2019-07-07T06:54:55.836Z</time>
      </trkpt>
      <trkpt lat="42.933395" lon="0.20563333">
        <ele>1193.0</ele>
        <time>2019-07-07T06:54:56.815Z</time>
      </trkpt>
      <trkpt lat="42.933395" lon="0.20563333">
        <ele>1193.0</ele>
        <time>2019-07-07T06:54:57.804Z</time>
      </trkpt>
      <trkpt lat="42.93335" lon="0.20559333">
        <ele>1194.0</ele>
        <time>2019-07-07T06:54:58.809Z</time>
      </trkpt>
      <trkpt lat="42.93335" lon="0.20559333">
        <ele>1194.0</ele>
        <time>2019-07-07T06:54:59.817Z</time>
      </trkpt>
      <trkpt lat="42.93330333" lon="0.20555">
        <ele>1194.0</ele>
        <time>2019-07-07T06:55:00.815Z</time>
      </trkpt>
      <trkpt lat="42.93330333" lon="0.20555">
        <ele>1194.0</ele>
        <time>2019-07-07T06:55:01.819Z</time>
      </trkpt>
      <trkpt lat="42.93326" lon="0.2055">
        <ele>1195.0</ele>
        <time>2019-07-07T06:55:02.816Z</time>
      </trkpt>
      <trkpt lat="42.93326" lon="0.2055">
        <ele>1195.0</ele>
        <time>2019-07-07T06:55:03.836Z</time>
      </trkpt>
      <trkpt lat="42.93321667" lon="0.20545667">
        <ele>1195.0</ele>
        <time>2019-07-07T06:55:04.810Z</time>
      </trkpt>
      <trkpt lat="42.93321667" lon="0.20545667">
        <ele>1195.0</ele>
        <time>2019-07-07T06:55:05.833Z</time>
      </trkpt>
      <trkpt lat="42.933175" lon="0.20540667">
        <ele>1196.0</ele>
        <time>2019-07-07T06:55:06.817Z</time>
      </trkpt>
      <trkpt lat="42.933175" lon="0.20540667">
        <ele>1196.0</ele>
        <time>2019-07-07T06:55:07.806Z</time>
      </trkpt>
      <trkpt lat="42.93313167" lon="0.20536167">
        <ele>1196.0</ele>
        <time>2019-07-07T06:55:08.816Z</time>
      </trkpt>
      <trkpt lat="42.93311" lon="0.20533833">
        <ele>1196.0</ele>
        <time>2019-07-07T06:55:09.814Z</time>
      </trkpt>
      <trkpt lat="42.93308833" lon="0.20531333">
        <ele>1197.0</ele>
        <time>2019-07-07T06:55:10.820Z</time>
      </trkpt>
      <trkpt lat="42.93308833" lon="0.20531333">
        <ele>1197.0</ele>
        <time>2019-07-07T06:55:11.826Z</time>
      </trkpt>
      <trkpt lat="42.933045" lon="0.20526667">
        <ele>1197.0</ele>
        <time>2019-07-07T06:55:12.832Z</time>
      </trkpt>
      <trkpt lat="42.93302333" lon="0.20524333">
        <ele>1198.0</ele>
        <time>2019-07-07T06:55:13.826Z</time>
      </trkpt>
      <trkpt lat="42.93302333" lon="0.20524333">
        <ele>1198.0</ele>
        <time>2019-07-07T06:55:14.833Z</time>
      </trkpt>
      <trkpt lat="42.93298" lon="0.20519667">
        <ele>1198.0</ele>
        <time>2019-07-07T06:55:15.817Z</time>
      </trkpt>
      <trkpt lat="42.93295833" lon="0.20517167">
        <ele>1199.0</ele>
        <time>2019-07-07T06:55:16.817Z</time>
      </trkpt>
      <trkpt lat="42.93295833" lon="0.20517167">
        <ele>1199.0</ele>
        <time>2019-07-07T06:55:17.812Z</time>
      </trkpt>
      <trkpt lat="42.93291333" lon="0.205125">
        <ele>1199.0</ele>
        <time>2019-07-07T06:55:18.835Z</time>
      </trkpt>
      <trkpt lat="42.93291333" lon="0.205125">
        <ele>1199.0</ele>
        <time>2019-07-07T06:55:19.824Z</time>
      </trkpt>
      <trkpt lat="42.93286833" lon="0.20507833">
        <ele>1200.0</ele>
        <time>2019-07-07T06:55:20.831Z</time>
      </trkpt>
      <trkpt lat="42.93286833" lon="0.20507833">
        <ele>1200.0</ele>
        <time>2019-07-07T06:55:21.806Z</time>
      </trkpt>
      <trkpt lat="42.932825" lon="0.20503">
        <ele>1200.0</ele>
        <time>2019-07-07T06:55:22.827Z</time>
      </trkpt>
      <trkpt lat="42.932825" lon="0.20503">
        <ele>1200.0</ele>
        <time>2019-07-07T06:55:23.834Z</time>
      </trkpt>
      <trkpt lat="42.93278" lon="0.20498">
        <ele>1201.0</ele>
        <time>2019-07-07T06:55:24.829Z</time>
      </trkpt>
      <trkpt lat="42.93278" lon="0.20498">
        <ele>1201.0</ele>
        <time>2019-07-07T06:55:25.838Z</time>
      </trkpt>
      <trkpt lat="42.93274" lon="0.20493">
        <ele>1201.0</ele>
        <time>2019-07-07T06:55:26.817Z</time>
      </trkpt>
      <trkpt lat="42.93274" lon="0.20493">
        <ele>1201.0</ele>
        <time>2019-07-07T06:55:27.837Z</time>
      </trkpt>
      <trkpt lat="42.93269667" lon="0.204885">
        <ele>1202.0</ele>
        <time>2019-07-07T06:55:28.830Z</time>
      </trkpt>
      <trkpt lat="42.93269667" lon="0.204885">
        <ele>1202.0</ele>
        <time>2019-07-07T06:55:29.836Z</time>
      </trkpt>
      <trkpt lat="42.93265667" lon="0.20483833">
        <ele>1202.0</ele>
        <time>2019-07-07T06:55:30.822Z</time>
      </trkpt>
      <trkpt lat="42.93263667" lon="0.20481667">
        <ele>1203.0</ele>
        <time>2019-07-07T06:55:31.826Z</time>
      </trkpt>
      <trkpt lat="42.93263667" lon="0.20481667">
        <ele>1203.0</ele>
        <time>2019-07-07T06:55:32.801Z</time>
      </trkpt>
      <trkpt lat="42.932595" lon="0.20477333">
        <ele>1204.0</ele>
        <time>2019-07-07T06:55:33.807Z</time>
      </trkpt>
      <trkpt lat="42.93257333" lon="0.20475333">
        <ele>1204.0</ele>
        <time>2019-07-07T06:55:34.836Z</time>
      </trkpt>
      <trkpt lat="42.93257333" lon="0.20475333">
        <ele>1204.0</ele>
        <time>2019-07-07T06:55:35.834Z</time>
      </trkpt>
      <trkpt lat="42.93252833" lon="0.20472">
        <ele>1205.0</ele>
        <time>2019-07-07T06:55:36.815Z</time>
      </trkpt>
      <trkpt lat="42.93252833" lon="0.20472">
        <ele>1205.0</ele>
        <time>2019-07-07T06:55:37.839Z</time>
      </trkpt>
      <trkpt lat="42.93248333" lon="0.204685">
        <ele>1206.0</ele>
        <time>2019-07-07T06:55:38.806Z</time>
      </trkpt>
      <trkpt lat="42.93246" lon="0.20467">
        <ele>1206.0</ele>
        <time>2019-07-07T06:55:39.829Z</time>
      </trkpt>
      <trkpt lat="42.93243667" lon="0.20465667">
        <ele>1207.0</ele>
        <time>2019-07-07T06:55:40.819Z</time>
      </trkpt>
      <trkpt lat="42.932415" lon="0.20464">
        <ele>1207.0</ele>
        <time>2019-07-07T06:55:41.813Z</time>
      </trkpt>
      <trkpt lat="42.932415" lon="0.20464">
        <ele>1207.0</ele>
        <time>2019-07-07T06:55:42.839Z</time>
      </trkpt>
      <trkpt lat="42.93237" lon="0.20460833">
        <ele>1207.0</ele>
        <time>2019-07-07T06:55:43.827Z</time>
      </trkpt>
      <trkpt lat="42.93237" lon="0.20460833">
        <ele>1207.0</ele>
        <time>2019-07-07T06:55:44.837Z</time>
      </trkpt>
      <trkpt lat="42.93232333" lon="0.20457167">
        <ele>1207.0</ele>
        <time>2019-07-07T06:55:45.815Z</time>
      </trkpt>
      <trkpt lat="42.9323" lon="0.20455167">
        <ele>1207.0</ele>
        <time>2019-07-07T06:55:46.827Z</time>
      </trkpt>
      <trkpt lat="42.9323" lon="0.20455167">
        <ele>1207.0</ele>
        <time>2019-07-07T06:55:47.829Z</time>
      </trkpt>
      <trkpt lat="42.93225" lon="0.20452333">
        <ele>1208.0</ele>
        <time>2019-07-07T06:55:48.837Z</time>
      </trkpt>
      <trkpt lat="42.932225" lon="0.20450833">
        <ele>1208.0</ele>
        <time>2019-07-07T06:55:49.804Z</time>
      </trkpt>
      <trkpt lat="42.932225" lon="0.20450833">
        <ele>1208.0</ele>
        <time>2019-07-07T06:55:50.806Z</time>
      </trkpt>
      <trkpt lat="42.93218" lon="0.20447167">
        <ele>1209.0</ele>
        <time>2019-07-07T06:55:51.812Z</time>
      </trkpt>
      <trkpt lat="42.932155" lon="0.20445667">
        <ele>1209.0</ele>
        <time>2019-07-07T06:55:52.817Z</time>
      </trkpt>
      <trkpt lat="42.932155" lon="0.20445667">
        <ele>1209.0</ele>
        <time>2019-07-07T06:55:53.813Z</time>
      </trkpt>
      <trkpt lat="42.93210333" lon="0.20442833">
        <ele>1210.0</ele>
        <time>2019-07-07T06:55:54.819Z</time>
      </trkpt>
      <trkpt lat="42.93207833" lon="0.204415">
        <ele>1210.0</ele>
        <time>2019-07-07T06:55:55.815Z</time>
      </trkpt>
      <trkpt lat="42.93207833" lon="0.204415">
        <ele>1210.0</ele>
        <time>2019-07-07T06:55:56.827Z</time>
      </trkpt>
      <trkpt lat="42.93203" lon="0.20438333">
        <ele>1211.0</ele>
        <time>2019-07-07T06:55:57.827Z</time>
      </trkpt>
      <trkpt lat="42.93200333" lon="0.20436833">
        <ele>1211.0</ele>
        <time>2019-07-07T06:55:58.835Z</time>
      </trkpt>
      <trkpt lat="42.93197667" lon="0.204355">
        <ele>1211.0</ele>
        <time>2019-07-07T06:55:59.804Z</time>
      </trkpt>
      <trkpt lat="42.93197667" lon="0.204355">
        <ele>1211.0</ele>
        <time>2019-07-07T06:56:00.813Z</time>
      </trkpt>
      <trkpt lat="42.93192833" lon="0.20432667">
        <ele>1212.0</ele>
        <time>2019-07-07T06:56:01.840Z</time>
      </trkpt>
      <trkpt lat="42.93192833" lon="0.20432667">
        <ele>1212.0</ele>
        <time>2019-07-07T06:56:02.817Z</time>
      </trkpt>
      <trkpt lat="42.93188167" lon="0.20429667">
        <ele>1213.0</ele>
        <time>2019-07-07T06:56:03.829Z</time>
      </trkpt>
      <trkpt lat="42.93185833" lon="0.20428167">
        <ele>1213.0</ele>
        <time>2019-07-07T06:56:04.815Z</time>
      </trkpt>
      <trkpt lat="42.93185833" lon="0.20428167">
        <ele>1213.0</ele>
        <time>2019-07-07T06:56:05.835Z</time>
      </trkpt>
      <trkpt lat="42.93181333" lon="0.20425167">
        <ele>1214.0</ele>
        <time>2019-07-07T06:56:06.827Z</time>
      </trkpt>
      <trkpt lat="42.93181333" lon="0.20425167">
        <ele>1214.0</ele>
        <time>2019-07-07T06:56:07.838Z</time>
      </trkpt>
      <trkpt lat="42.931765" lon="0.20422167">
        <ele>1214.0</ele>
        <time>2019-07-07T06:56:08.832Z</time>
      </trkpt>
      <trkpt lat="42.931745" lon="0.204205">
        <ele>1215.0</ele>
        <time>2019-07-07T06:56:09.806Z</time>
      </trkpt>
      <trkpt lat="42.931745" lon="0.204205">
        <ele>1215.0</ele>
        <time>2019-07-07T06:56:10.818Z</time>
      </trkpt>
      <trkpt lat="42.93169833" lon="0.204175">
        <ele>1215.0</ele>
        <time>2019-07-07T06:56:11.844Z</time>
      </trkpt>
      <trkpt lat="42.931675" lon="0.20415667">
        <ele>1215.0</ele>
        <time>2019-07-07T06:56:12.813Z</time>
      </trkpt>
      <trkpt lat="42.931675" lon="0.20415667">
        <ele>1215.0</ele>
        <time>2019-07-07T06:56:13.804Z</time>
      </trkpt>
      <trkpt lat="42.93162833" lon="0.20412">
        <ele>1216.0</ele>
        <time>2019-07-07T06:56:14.810Z</time>
      </trkpt>
      <trkpt lat="42.93160167" lon="0.20410333">
        <ele>1216.0</ele>
        <time>2019-07-07T06:56:15.816Z</time>
      </trkpt>
      <trkpt lat="42.931575" lon="0.20408833">
        <ele>1216.0</ele>
        <time>2019-07-07T06:56:16.821Z</time>
      </trkpt>
      <trkpt lat="42.931575" lon="0.20408833">
        <ele>1216.0</ele>
        <time>2019-07-07T06:56:17.827Z</time>
      </trkpt>
      <trkpt lat="42.93152333" lon="0.20406333">
        <ele>1217.0</ele>
        <time>2019-07-07T06:56:18.834Z</time>
      </trkpt>
      <trkpt lat="42.93152333" lon="0.20406333">
        <ele>1217.0</ele>
        <time>2019-07-07T06:56:19.804Z</time>
      </trkpt>
      <trkpt lat="42.93147167" lon="0.20403167">
        <ele>1218.0</ele>
        <time>2019-07-07T06:56:20.826Z</time>
      </trkpt>
      <trkpt lat="42.93144667" lon="0.20401833">
        <ele>1218.0</ele>
        <time>2019-07-07T06:56:21.819Z</time>
      </trkpt>
      <trkpt lat="42.93144667" lon="0.20401833">
        <ele>1218.0</ele>
        <time>2019-07-07T06:56:22.825Z</time>
      </trkpt>
      <trkpt lat="42.93139833" lon="0.20399">
        <ele>1219.0</ele>
        <time>2019-07-07T06:56:23.824Z</time>
      </trkpt>
      <trkpt lat="42.931375" lon="0.203975">
        <ele>1219.0</ele>
        <time>2019-07-07T06:56:24.832Z</time>
      </trkpt>
      <trkpt lat="42.93135167" lon="0.20396333">
        <ele>1220.0</ele>
        <time>2019-07-07T06:56:25.814Z</time>
      </trkpt>
      <trkpt lat="42.93135167" lon="0.20396333">
        <ele>1220.0</ele>
        <time>2019-07-07T06:56:26.830Z</time>
      </trkpt>
      <trkpt lat="42.9313" lon="0.203935">
        <ele>1221.0</ele>
        <time>2019-07-07T06:56:27.837Z</time>
      </trkpt>
      <trkpt lat="42.931275" lon="0.20392">
        <ele>1221.0</ele>
        <time>2019-07-07T06:56:28.804Z</time>
      </trkpt>
      <trkpt lat="42.931275" lon="0.20392">
        <ele>1221.0</ele>
        <time>2019-07-07T06:56:29.838Z</time>
      </trkpt>
      <trkpt lat="42.93122667" lon="0.20388667">
        <ele>1222.0</ele>
        <time>2019-07-07T06:56:30.836Z</time>
      </trkpt>
      <trkpt lat="42.93122667" lon="0.20388667">
        <ele>1222.0</ele>
        <time>2019-07-07T06:56:31.827Z</time>
      </trkpt>
      <trkpt lat="42.93118167" lon="0.20385">
        <ele>1222.0</ele>
        <time>2019-07-07T06:56:32.833Z</time>
      </trkpt>
      <trkpt lat="42.93118167" lon="0.20385">
        <ele>1222.0</ele>
        <time>2019-07-07T06:56:33.809Z</time>
      </trkpt>
      <trkpt lat="42.93114" lon="0.20381333">
        <ele>1223.0</ele>
        <time>2019-07-07T06:56:34.813Z</time>
      </trkpt>
      <trkpt lat="42.93114" lon="0.20381333">
        <ele>1223.0</ele>
        <time>2019-07-07T06:56:35.806Z</time>
      </trkpt>
      <trkpt lat="42.931095" lon="0.203765">
        <ele>1224.0</ele>
        <time>2019-07-07T06:56:36.808Z</time>
      </trkpt>
      <trkpt lat="42.931095" lon="0.203765">
        <ele>1224.0</ele>
        <time>2019-07-07T06:56:37.809Z</time>
      </trkpt>
      <trkpt lat="42.93105167" lon="0.20372">
        <ele>1225.0</ele>
        <time>2019-07-07T06:56:38.817Z</time>
      </trkpt>
      <trkpt lat="42.93103333" lon="0.20369833">
        <ele>1225.0</ele>
        <time>2019-07-07T06:56:39.816Z</time>
      </trkpt>
      <trkpt lat="42.93101167" lon="0.203675">
        <ele>1225.0</ele>
        <time>2019-07-07T06:56:40.813Z</time>
      </trkpt>
      <trkpt lat="42.93101167" lon="0.203675">
        <ele>1225.0</ele>
        <time>2019-07-07T06:56:41.835Z</time>
      </trkpt>
      <trkpt lat="42.93096833" lon="0.20363167">
        <ele>1226.0</ele>
        <time>2019-07-07T06:56:42.802Z</time>
      </trkpt>
      <trkpt lat="42.93095167" lon="0.20360167">
        <ele>1226.0</ele>
        <time>2019-07-07T06:56:43.818Z</time>
      </trkpt>
      <trkpt lat="42.93092833" lon="0.20358167">
        <ele>1227.0</ele>
        <time>2019-07-07T06:56:44.801Z</time>
      </trkpt>
      <trkpt lat="42.93091" lon="0.203555">
        <ele>1227.0</ele>
        <time>2019-07-07T06:56:45.834Z</time>
      </trkpt>
      <trkpt lat="42.93091" lon="0.203555">
        <ele>1227.0</ele>
        <time>2019-07-07T06:56:46.831Z</time>
      </trkpt>
      <trkpt lat="42.93087167" lon="0.20350667">
        <ele>1228.0</ele>
        <time>2019-07-07T06:56:47.808Z</time>
      </trkpt>
      <trkpt lat="42.93085333" lon="0.20348">
        <ele>1228.0</ele>
        <time>2019-07-07T06:56:48.820Z</time>
      </trkpt>
      <trkpt lat="42.93085333" lon="0.20348">
        <ele>1228.0</ele>
        <time>2019-07-07T06:56:49.821Z</time>
      </trkpt>
      <trkpt lat="42.93081833" lon="0.20343167">
        <ele>1229.0</ele>
        <time>2019-07-07T06:56:50.834Z</time>
      </trkpt>
      <trkpt lat="42.9308" lon="0.203405">
        <ele>1229.0</ele>
        <time>2019-07-07T06:56:51.802Z</time>
      </trkpt>
      <trkpt lat="42.930785" lon="0.20338">
        <ele>1229.0</ele>
        <time>2019-07-07T06:56:52.812Z</time>
      </trkpt>
      <trkpt lat="42.930785" lon="0.20338">
        <ele>1229.0</ele>
        <time>2019-07-07T06:56:53.816Z</time>
      </trkpt>
      <trkpt lat="42.93075333" lon="0.20332833">
        <ele>1230.0</ele>
        <time>2019-07-07T06:56:54.833Z</time>
      </trkpt>
      <trkpt lat="42.93074" lon="0.2033">
        <ele>1230.0</ele>
        <time>2019-07-07T06:56:55.823Z</time>
      </trkpt>
      <trkpt lat="42.93074" lon="0.2033">
        <ele>1230.0</ele>
        <time>2019-07-07T06:56:56.811Z</time>
      </trkpt>
      <trkpt lat="42.93070833" lon="0.203245">
        <ele>1231.0</ele>
        <time>2019-07-07T06:56:57.817Z</time>
      </trkpt>
      <trkpt lat="42.93069333" lon="0.20321667">
        <ele>1231.0</ele>
        <time>2019-07-07T06:56:58.847Z</time>
      </trkpt>
      <trkpt lat="42.93069333" lon="0.20321667">
        <ele>1231.0</ele>
        <time>2019-07-07T06:56:59.821Z</time>
      </trkpt>
      <trkpt lat="42.93066333" lon="0.20315833">
        <ele>1232.0</ele>
        <time>2019-07-07T06:57:00.829Z</time>
      </trkpt>
      <trkpt lat="42.93064833" lon="0.20313">
        <ele>1232.0</ele>
        <time>2019-07-07T06:57:01.815Z</time>
      </trkpt>
      <trkpt lat="42.93064833" lon="0.20313">
        <ele>1232.0</ele>
        <time>2019-07-07T06:57:02.831Z</time>
      </trkpt>
      <trkpt lat="42.93061667" lon="0.20307333">
        <ele>1232.0</ele>
        <time>2019-07-07T06:57:03.837Z</time>
      </trkpt>
      <trkpt lat="42.93060167" lon="0.203045">
        <ele>1233.0</ele>
        <time>2019-07-07T06:57:04.825Z</time>
      </trkpt>
      <trkpt lat="42.93060167" lon="0.203045">
        <ele>1233.0</ele>
        <time>2019-07-07T06:57:05.834Z</time>
      </trkpt>
      <trkpt lat="42.93056833" lon="0.20298333">
        <ele>1233.0</ele>
        <time>2019-07-07T06:57:06.825Z</time>
      </trkpt>
      <trkpt lat="42.93056833" lon="0.20298333">
        <ele>1233.0</ele>
        <time>2019-07-07T06:57:07.808Z</time>
      </trkpt>
      <trkpt lat="42.93054" lon="0.20292667">
        <ele>1234.0</ele>
        <time>2019-07-07T06:57:08.814Z</time>
      </trkpt>
      <trkpt lat="42.93054" lon="0.20292667">
        <ele>1234.0</ele>
        <time>2019-07-07T06:57:09.830Z</time>
      </trkpt>
      <trkpt lat="42.93050667" lon="0.20287">
        <ele>1234.0</ele>
        <time>2019-07-07T06:57:10.815Z</time>
      </trkpt>
      <trkpt lat="42.93050667" lon="0.20287">
        <ele>1234.0</ele>
        <time>2019-07-07T06:57:11.811Z</time>
      </trkpt>
      <trkpt lat="42.93047" lon="0.20281667">
        <ele>1235.0</ele>
        <time>2019-07-07T06:57:12.809Z</time>
      </trkpt>
      <trkpt lat="42.93047" lon="0.20281667">
        <ele>1235.0</ele>
        <time>2019-07-07T06:57:13.817Z</time>
      </trkpt>
      <trkpt lat="42.93043167" lon="0.20276167">
        <ele>1235.0</ele>
        <time>2019-07-07T06:57:14.827Z</time>
      </trkpt>
      <trkpt lat="42.93043167" lon="0.20276167">
        <ele>1235.0</ele>
        <time>2019-07-07T06:57:15.836Z</time>
      </trkpt>
      <trkpt lat="42.93040167" lon="0.20269167">
        <ele>1235.0</ele>
        <time>2019-07-07T06:57:16.812Z</time>
      </trkpt>
      <trkpt lat="42.93040167" lon="0.20269167">
        <ele>1235.0</ele>
        <time>2019-07-07T06:57:17.838Z</time>
      </trkpt>
      <trkpt lat="42.93036667" lon="0.20263333">
        <ele>1236.0</ele>
        <time>2019-07-07T06:57:18.804Z</time>
      </trkpt>
      <trkpt lat="42.93036667" lon="0.20263333">
        <ele>1236.0</ele>
        <time>2019-07-07T06:57:19.835Z</time>
      </trkpt>
      <trkpt lat="42.93033" lon="0.20258333">
        <ele>1236.0</ele>
        <time>2019-07-07T06:57:20.826Z</time>
      </trkpt>
      <trkpt lat="42.93033" lon="0.20258333">
        <ele>1236.0</ele>
        <time>2019-07-07T06:57:21.816Z</time>
      </trkpt>
      <trkpt lat="42.9303" lon="0.20252667">
        <ele>1236.0</ele>
        <time>2019-07-07T06:57:22.822Z</time>
      </trkpt>
      <trkpt lat="42.9303" lon="0.20252667">
        <ele>1236.0</ele>
        <time>2019-07-07T06:57:23.830Z</time>
      </trkpt>
      <trkpt lat="42.93026667" lon="0.20247667">
        <ele>1236.0</ele>
        <time>2019-07-07T06:57:24.825Z</time>
      </trkpt>
      <trkpt lat="42.93026667" lon="0.20247667">
        <ele>1236.0</ele>
        <time>2019-07-07T06:57:25.828Z</time>
      </trkpt>
      <trkpt lat="42.930235" lon="0.20242833">
        <ele>1236.0</ele>
        <time>2019-07-07T06:57:26.836Z</time>
      </trkpt>
      <trkpt lat="42.930215" lon="0.202405">
        <ele>1236.0</ele>
        <time>2019-07-07T06:57:27.808Z</time>
      </trkpt>
      <trkpt lat="42.93019667" lon="0.202385">
        <ele>1237.0</ele>
        <time>2019-07-07T06:57:28.826Z</time>
      </trkpt>
      <trkpt lat="42.93019667" lon="0.202385">
        <ele>1237.0</ele>
        <time>2019-07-07T06:57:29.838Z</time>
      </trkpt>
      <trkpt lat="42.930155" lon="0.20234167">
        <ele>1237.0</ele>
        <time>2019-07-07T06:57:30.804Z</time>
      </trkpt>
      <trkpt lat="42.930155" lon="0.20234167">
        <ele>1237.0</ele>
        <time>2019-07-07T06:57:31.810Z</time>
      </trkpt>
      <trkpt lat="42.930115" lon="0.20229833">
        <ele>1237.0</ele>
        <time>2019-07-07T06:57:32.824Z</time>
      </trkpt>
      <trkpt lat="42.930115" lon="0.20229833">
        <ele>1237.0</ele>
        <time>2019-07-07T06:57:33.818Z</time>
      </trkpt>
      <trkpt lat="42.930075" lon="0.20225833">
        <ele>1238.0</ele>
        <time>2019-07-07T06:57:34.833Z</time>
      </trkpt>
      <trkpt lat="42.930075" lon="0.20225833">
        <ele>1238.0</ele>
        <time>2019-07-07T06:57:35.808Z</time>
      </trkpt>
      <trkpt lat="42.93003333" lon="0.202225">
        <ele>1238.0</ele>
        <time>2019-07-07T06:57:36.825Z</time>
      </trkpt>
      <trkpt lat="42.93003333" lon="0.202225">
        <ele>1238.0</ele>
        <time>2019-07-07T06:57:37.818Z</time>
      </trkpt>
      <trkpt lat="42.92998833" lon="0.20218667">
        <ele>1239.0</ele>
        <time>2019-07-07T06:57:38.831Z</time>
      </trkpt>
      <trkpt lat="42.929965" lon="0.20216667">
        <ele>1239.0</ele>
        <time>2019-07-07T06:57:39.836Z</time>
      </trkpt>
      <trkpt lat="42.929945" lon="0.20214167">
        <ele>1239.0</ele>
        <time>2019-07-07T06:57:40.819Z</time>
      </trkpt>
      <trkpt lat="42.929945" lon="0.20214167">
        <ele>1239.0</ele>
        <time>2019-07-07T06:57:41.834Z</time>
      </trkpt>
      <trkpt lat="42.929905" lon="0.202105">
        <ele>1239.0</ele>
        <time>2019-07-07T06:57:42.815Z</time>
      </trkpt>
      <trkpt lat="42.929905" lon="0.202105">
        <ele>1239.0</ele>
        <time>2019-07-07T06:57:43.810Z</time>
      </trkpt>
      <trkpt lat="42.92985833" lon="0.20207333">
        <ele>1239.0</ele>
        <time>2019-07-07T06:57:44.816Z</time>
      </trkpt>
      <trkpt lat="42.92984" lon="0.20204">
        <ele>1240.0</ele>
        <time>2019-07-07T06:57:45.829Z</time>
      </trkpt>
      <trkpt lat="42.92981667" lon="0.20201833">
        <ele>1240.0</ele>
        <time>2019-07-07T06:57:46.815Z</time>
      </trkpt>
      <trkpt lat="42.92981667" lon="0.20201833">
        <ele>1240.0</ele>
        <time>2019-07-07T06:57:47.829Z</time>
      </trkpt>
      <trkpt lat="42.92977167" lon="0.20199167">
        <ele>1240.0</ele>
        <time>2019-07-07T06:57:48.837Z</time>
      </trkpt>
      <trkpt lat="42.92975" lon="0.201975">
        <ele>1240.0</ele>
        <time>2019-07-07T06:57:49.813Z</time>
      </trkpt>
      <trkpt lat="42.92975" lon="0.201975">
        <ele>1240.0</ele>
        <time>2019-07-07T06:57:50.806Z</time>
      </trkpt>
      <trkpt lat="42.92970833" lon="0.20193833">
        <ele>1241.0</ele>
        <time>2019-07-07T06:57:51.830Z</time>
      </trkpt>
      <trkpt lat="42.92968167" lon="0.20192333">
        <ele>1241.0</ele>
        <time>2019-07-07T06:57:52.807Z</time>
      </trkpt>
      <trkpt lat="42.929655" lon="0.20191">
        <ele>1241.0</ele>
        <time>2019-07-07T06:57:53.825Z</time>
      </trkpt>
      <trkpt lat="42.929655" lon="0.20191">
        <ele>1241.0</ele>
        <time>2019-07-07T06:57:54.828Z</time>
      </trkpt>
      <trkpt lat="42.92960667" lon="0.20188">
        <ele>1242.0</ele>
        <time>2019-07-07T06:57:55.835Z</time>
      </trkpt>
      <trkpt lat="42.92960667" lon="0.20188">
        <ele>1242.0</ele>
        <time>2019-07-07T06:57:56.807Z</time>
      </trkpt>
      <trkpt lat="42.92956333" lon="0.20184667">
        <ele>1242.0</ele>
        <time>2019-07-07T06:57:57.823Z</time>
      </trkpt>
      <trkpt lat="42.92954167" lon="0.20182833">
        <ele>1242.0</ele>
        <time>2019-07-07T06:57:58.831Z</time>
      </trkpt>
      <trkpt lat="42.92954167" lon="0.20182833">
        <ele>1242.0</ele>
        <time>2019-07-07T06:57:59.805Z</time>
      </trkpt>
      <trkpt lat="42.92949667" lon="0.201795">
        <ele>1243.0</ele>
        <time>2019-07-07T06:58:00.824Z</time>
      </trkpt>
      <trkpt lat="42.92949667" lon="0.201795">
        <ele>1243.0</ele>
        <time>2019-07-07T06:58:01.821Z</time>
      </trkpt>
      <trkpt lat="42.92945167" lon="0.20176667">
        <ele>1243.0</ele>
        <time>2019-07-07T06:58:02.827Z</time>
      </trkpt>
      <trkpt lat="42.92945167" lon="0.20176667">
        <ele>1243.0</ele>
        <time>2019-07-07T06:58:03.832Z</time>
      </trkpt>
      <trkpt lat="42.92940667" lon="0.20173667">
        <ele>1244.0</ele>
        <time>2019-07-07T06:58:04.829Z</time>
      </trkpt>
      <trkpt lat="42.92940667" lon="0.20173667">
        <ele>1244.0</ele>
        <time>2019-07-07T06:58:05.835Z</time>
      </trkpt>
      <trkpt lat="42.92936" lon="0.201705">
        <ele>1245.0</ele>
        <time>2019-07-07T06:58:06.815Z</time>
      </trkpt>
      <trkpt lat="42.92936" lon="0.201705">
        <ele>1245.0</ele>
        <time>2019-07-07T06:58:07.810Z</time>
      </trkpt>
      <trkpt lat="42.92931167" lon="0.20168">
        <ele>1246.0</ele>
        <time>2019-07-07T06:58:08.816Z</time>
      </trkpt>
      <trkpt lat="42.92928833" lon="0.20167">
        <ele>1246.0</ele>
        <time>2019-07-07T06:58:09.801Z</time>
      </trkpt>
      <trkpt lat="42.92926667" lon="0.201655">
        <ele>1246.0</ele>
        <time>2019-07-07T06:58:10.835Z</time>
      </trkpt>
      <trkpt lat="42.92926667" lon="0.201655">
        <ele>1246.0</ele>
        <time>2019-07-07T06:58:11.819Z</time>
      </trkpt>
      <trkpt lat="42.929215" lon="0.20163">
        <ele>1247.0</ele>
        <time>2019-07-07T06:58:12.815Z</time>
      </trkpt>
      <trkpt lat="42.92919167" lon="0.20161833">
        <ele>1248.0</ele>
        <time>2019-07-07T06:58:13.802Z</time>
      </trkpt>
      <trkpt lat="42.92919167" lon="0.20161833">
        <ele>1248.0</ele>
        <time>2019-07-07T06:58:14.830Z</time>
      </trkpt>
      <trkpt lat="42.92914667" lon="0.20159333">
        <ele>1248.0</ele>
        <time>2019-07-07T06:58:15.808Z</time>
      </trkpt>
      <trkpt lat="42.92911667" lon="0.20157167">
        <ele>1249.0</ele>
        <time>2019-07-07T06:58:16.813Z</time>
      </trkpt>
      <trkpt lat="42.92911667" lon="0.20157167">
        <ele>1249.0</ele>
        <time>2019-07-07T06:58:17.814Z</time>
      </trkpt>
      <trkpt lat="42.92905833" lon="0.20154667">
        <ele>1249.0</ele>
        <time>2019-07-07T06:58:18.820Z</time>
      </trkpt>
      <trkpt lat="42.92903167" lon="0.20152667">
        <ele>1249.0</ele>
        <time>2019-07-07T06:58:19.806Z</time>
      </trkpt>
      <trkpt lat="42.92903167" lon="0.20152667">
        <ele>1249.0</ele>
        <time>2019-07-07T06:58:20.832Z</time>
      </trkpt>
      <trkpt lat="42.92898333" lon="0.20149333">
        <ele>1250.0</ele>
        <time>2019-07-07T06:58:21.801Z</time>
      </trkpt>
      <trkpt lat="42.92896" lon="0.201475">
        <ele>1250.0</ele>
        <time>2019-07-07T06:58:22.807Z</time>
      </trkpt>
      <trkpt lat="42.92896" lon="0.201475">
        <ele>1250.0</ele>
        <time>2019-07-07T06:58:23.809Z</time>
      </trkpt>
      <trkpt lat="42.92891667" lon="0.20143667">
        <ele>1250.0</ele>
        <time>2019-07-07T06:58:24.816Z</time>
      </trkpt>
      <trkpt lat="42.92891667" lon="0.20143667">
        <ele>1250.0</ele>
        <time>2019-07-07T06:58:25.836Z</time>
      </trkpt>
      <trkpt lat="42.92887" lon="0.20139333">
        <ele>1251.0</ele>
        <time>2019-07-07T06:58:26.802Z</time>
      </trkpt>
      <trkpt lat="42.92884833" lon="0.20137167">
        <ele>1251.0</ele>
        <time>2019-07-07T06:58:27.809Z</time>
      </trkpt>
      <trkpt lat="42.92882833" lon="0.20135">
        <ele>1251.0</ele>
        <time>2019-07-07T06:58:28.803Z</time>
      </trkpt>
      <trkpt lat="42.92882833" lon="0.20135">
        <ele>1251.0</ele>
        <time>2019-07-07T06:58:29.835Z</time>
      </trkpt>
      <trkpt lat="42.928785" lon="0.20130333">
        <ele>1251.0</ele>
        <time>2019-07-07T06:58:30.801Z</time>
      </trkpt>
      <trkpt lat="42.928765" lon="0.20127833">
        <ele>1252.0</ele>
        <time>2019-07-07T06:58:31.828Z</time>
      </trkpt>
      <trkpt lat="42.928765" lon="0.20127833">
        <ele>1252.0</ele>
        <time>2019-07-07T06:58:32.832Z</time>
      </trkpt>
      <trkpt lat="42.92872167" lon="0.20123">
        <ele>1252.0</ele>
        <time>2019-07-07T06:58:33.837Z</time>
      </trkpt>
      <trkpt lat="42.92870667" lon="0.20120333">
        <ele>1253.0</ele>
        <time>2019-07-07T06:58:34.818Z</time>
      </trkpt>
      <trkpt lat="42.92870667" lon="0.20120333">
        <ele>1253.0</ele>
        <time>2019-07-07T06:58:35.817Z</time>
      </trkpt>
      <trkpt lat="42.92866667" lon="0.20115333">
        <ele>1253.0</ele>
        <time>2019-07-07T06:58:36.823Z</time>
      </trkpt>
      <trkpt lat="42.92866667" lon="0.20115333">
        <ele>1253.0</ele>
        <time>2019-07-07T06:58:37.838Z</time>
      </trkpt>
      <trkpt lat="42.928625" lon="0.2011">
        <ele>1254.0</ele>
        <time>2019-07-07T06:58:38.827Z</time>
      </trkpt>
      <trkpt lat="42.92860833" lon="0.20106833">
        <ele>1254.0</ele>
        <time>2019-07-07T06:58:39.834Z</time>
      </trkpt>
      <trkpt lat="42.92859" lon="0.20103833">
        <ele>1255.0</ele>
        <time>2019-07-07T06:58:40.816Z</time>
      </trkpt>
      <trkpt lat="42.92859" lon="0.20103833">
        <ele>1255.0</ele>
        <time>2019-07-07T06:58:41.847Z</time>
      </trkpt>
      <trkpt lat="42.92855833" lon="0.20098667">
        <ele>1255.0</ele>
        <time>2019-07-07T06:58:42.813Z</time>
      </trkpt>
      <trkpt lat="42.92855833" lon="0.20098667">
        <ele>1255.0</ele>
        <time>2019-07-07T06:58:43.839Z</time>
      </trkpt>
      <trkpt lat="42.92852333" lon="0.200935">
        <ele>1256.0</ele>
        <time>2019-07-07T06:58:44.825Z</time>
      </trkpt>
      <trkpt lat="42.92852333" lon="0.200935">
        <ele>1256.0</ele>
        <time>2019-07-07T06:58:45.826Z</time>
      </trkpt>
      <trkpt lat="42.92849333" lon="0.20088167">
        <ele>1256.0</ele>
        <time>2019-07-07T06:58:46.807Z</time>
      </trkpt>
      <trkpt lat="42.92849333" lon="0.20088167">
        <ele>1256.0</ele>
        <time>2019-07-07T06:58:47.809Z</time>
      </trkpt>
      <trkpt lat="42.92847" lon="0.20081833">
        <ele>1257.0</ele>
        <time>2019-07-07T06:58:48.825Z</time>
      </trkpt>
      <trkpt lat="42.92847" lon="0.20081833">
        <ele>1257.0</ele>
        <time>2019-07-07T06:58:49.835Z</time>
      </trkpt>
      <trkpt lat="42.92844333" lon="0.200765">
        <ele>1257.0</ele>
        <time>2019-07-07T06:58:50.801Z</time>
      </trkpt>
      <trkpt lat="42.92844333" lon="0.200765">
        <ele>1257.0</ele>
        <time>2019-07-07T06:58:51.819Z</time>
      </trkpt>
      <trkpt lat="42.92841333" lon="0.20071">
        <ele>1258.0</ele>
        <time>2019-07-07T06:58:52.822Z</time>
      </trkpt>
      <trkpt lat="42.92841333" lon="0.20071">
        <ele>1258.0</ele>
        <time>2019-07-07T06:58:53.813Z</time>
      </trkpt>
      <trkpt lat="42.92838167" lon="0.20066167">
        <ele>1259.0</ele>
        <time>2019-07-07T06:58:54.819Z</time>
      </trkpt>
      <trkpt lat="42.92836333" lon="0.20063667">
        <ele>1260.0</ele>
        <time>2019-07-07T06:58:55.815Z</time>
      </trkpt>
      <trkpt lat="42.92836333" lon="0.20063667">
        <ele>1260.0</ele>
        <time>2019-07-07T06:58:56.813Z</time>
      </trkpt>
      <trkpt lat="42.92832167" lon="0.20059">
        <ele>1260.0</ele>
        <time>2019-07-07T06:58:57.820Z</time>
      </trkpt>
      <trkpt lat="42.92832167" lon="0.20059">
        <ele>1260.0</ele>
        <time>2019-07-07T06:58:58.832Z</time>
      </trkpt>
      <trkpt lat="42.92828333" lon="0.20054167">
        <ele>1261.0</ele>
        <time>2019-07-07T06:58:59.826Z</time>
      </trkpt>
      <trkpt lat="42.92828333" lon="0.20054167">
        <ele>1261.0</ele>
        <time>2019-07-07T06:59:00.815Z</time>
      </trkpt>
      <trkpt lat="42.92824667" lon="0.200495">
        <ele>1262.0</ele>
        <time>2019-07-07T06:59:01.822Z</time>
      </trkpt>
      <trkpt lat="42.92822667" lon="0.20047">
        <ele>1262.0</ele>
        <time>2019-07-07T06:59:02.806Z</time>
      </trkpt>
      <trkpt lat="42.92821" lon="0.200445">
        <ele>1262.0</ele>
        <time>2019-07-07T06:59:03.818Z</time>
      </trkpt>
      <trkpt lat="42.92821" lon="0.200445">
        <ele>1262.0</ele>
        <time>2019-07-07T06:59:04.832Z</time>
      </trkpt>
      <trkpt lat="42.928175" lon="0.20040167">
        <ele>1263.0</ele>
        <time>2019-07-07T06:59:05.817Z</time>
      </trkpt>
      <trkpt lat="42.92815667" lon="0.20037833">
        <ele>1263.0</ele>
        <time>2019-07-07T06:59:06.815Z</time>
      </trkpt>
      <trkpt lat="42.92815667" lon="0.20037833">
        <ele>1263.0</ele>
        <time>2019-07-07T06:59:07.840Z</time>
      </trkpt>
      <trkpt lat="42.92812167" lon="0.20033">
        <ele>1264.0</ele>
        <time>2019-07-07T06:59:08.806Z</time>
      </trkpt>
      <trkpt lat="42.92810333" lon="0.20030833">
        <ele>1264.0</ele>
        <time>2019-07-07T06:59:09.812Z</time>
      </trkpt>
      <trkpt lat="42.92810333" lon="0.20030833">
        <ele>1264.0</ele>
        <time>2019-07-07T06:59:10.806Z</time>
      </trkpt>
      <trkpt lat="42.92806667" lon="0.20026667">
        <ele>1265.0</ele>
        <time>2019-07-07T06:59:11.816Z</time>
      </trkpt>
      <trkpt lat="42.92806667" lon="0.20026667">
        <ele>1265.0</ele>
        <time>2019-07-07T06:59:12.837Z</time>
      </trkpt>
      <trkpt lat="42.92803" lon="0.20022167">
        <ele>1266.0</ele>
        <time>2019-07-07T06:59:13.815Z</time>
      </trkpt>
      <trkpt lat="42.92803" lon="0.20022167">
        <ele>1266.0</ele>
        <time>2019-07-07T06:59:14.838Z</time>
      </trkpt>
      <trkpt lat="42.927995" lon="0.20017833">
        <ele>1267.0</ele>
        <time>2019-07-07T06:59:15.807Z</time>
      </trkpt>
      <trkpt lat="42.92797667" lon="0.20015833">
        <ele>1267.0</ele>
        <time>2019-07-07T06:59:16.821Z</time>
      </trkpt>
      <trkpt lat="42.92797667" lon="0.20015833">
        <ele>1267.0</ele>
        <time>2019-07-07T06:59:17.837Z</time>
      </trkpt>
      <trkpt lat="42.92793667" lon="0.20011167">
        <ele>1268.0</ele>
        <time>2019-07-07T06:59:18.824Z</time>
      </trkpt>
      <trkpt lat="42.92793667" lon="0.20011167">
        <ele>1268.0</ele>
        <time>2019-07-07T06:59:19.836Z</time>
      </trkpt>
      <trkpt lat="42.92789833" lon="0.20006333">
        <ele>1269.0</ele>
        <time>2019-07-07T06:59:20.817Z</time>
      </trkpt>
      <trkpt lat="42.92788" lon="0.20003833">
        <ele>1269.0</ele>
        <time>2019-07-07T06:59:21.818Z</time>
      </trkpt>
      <trkpt lat="42.92788" lon="0.20003833">
        <ele>1269.0</ele>
        <time>2019-07-07T06:59:22.828Z</time>
      </trkpt>
      <trkpt lat="42.92784167" lon="0.19999333">
        <ele>1270.0</ele>
        <time>2019-07-07T06:59:23.840Z</time>
      </trkpt>
      <trkpt lat="42.92784167" lon="0.19999333">
        <ele>1270.0</ele>
        <time>2019-07-07T06:59:24.830Z</time>
      </trkpt>
      <trkpt lat="42.927805" lon="0.19995">
        <ele>1270.0</ele>
        <time>2019-07-07T06:59:25.835Z</time>
      </trkpt>
      <trkpt lat="42.927805" lon="0.19995">
        <ele>1270.0</ele>
        <time>2019-07-07T06:59:26.808Z</time>
      </trkpt>
      <trkpt lat="42.927765" lon="0.19991167">
        <ele>1271.0</ele>
        <time>2019-07-07T06:59:27.823Z</time>
      </trkpt>
      <trkpt lat="42.927765" lon="0.19991167">
        <ele>1271.0</ele>
        <time>2019-07-07T06:59:28.819Z</time>
      </trkpt>
      <trkpt lat="42.92773333" lon="0.19987167">
        <ele>1272.0</ele>
        <time>2019-07-07T06:59:29.834Z</time>
      </trkpt>
      <trkpt lat="42.92773333" lon="0.19987167">
        <ele>1272.0</ele>
        <time>2019-07-07T06:59:30.839Z</time>
      </trkpt>
      <trkpt lat="42.927695" lon="0.199825">
        <ele>1272.0</ele>
        <time>2019-07-07T06:59:31.833Z</time>
      </trkpt>
      <trkpt lat="42.927695" lon="0.199825">
        <ele>1272.0</ele>
        <time>2019-07-07T06:59:32.820Z</time>
      </trkpt>
      <trkpt lat="42.92765833" lon="0.19977667">
        <ele>1272.0</ele>
        <time>2019-07-07T06:59:33.834Z</time>
      </trkpt>
      <trkpt lat="42.92764" lon="0.19975333">
        <ele>1272.0</ele>
        <time>2019-07-07T06:59:34.837Z</time>
      </trkpt>
      <trkpt lat="42.92762167" lon="0.19972833">
        <ele>1273.0</ele>
        <time>2019-07-07T06:59:35.816Z</time>
      </trkpt>
      <trkpt lat="42.92762167" lon="0.19972833">
        <ele>1273.0</ele>
        <time>2019-07-07T06:59:36.834Z</time>
      </trkpt>
      <trkpt lat="42.92758667" lon="0.199675">
        <ele>1273.0</ele>
        <time>2019-07-07T06:59:37.810Z</time>
      </trkpt>
      <trkpt lat="42.92758667" lon="0.199675">
        <ele>1273.0</ele>
        <time>2019-07-07T06:59:38.808Z</time>
      </trkpt>
      <trkpt lat="42.92755333" lon="0.19962333">
        <ele>1273.0</ele>
        <time>2019-07-07T06:59:39.813Z</time>
      </trkpt>
      <trkpt lat="42.92753833" lon="0.19959833">
        <ele>1273.0</ele>
        <time>2019-07-07T06:59:40.826Z</time>
      </trkpt>
      <trkpt lat="42.92753833" lon="0.19959833">
        <ele>1273.0</ele>
        <time>2019-07-07T06:59:41.819Z</time>
      </trkpt>
      <trkpt lat="42.9275" lon="0.19954667">
        <ele>1273.0</ele>
        <time>2019-07-07T06:59:42.834Z</time>
      </trkpt>
      <trkpt lat="42.9275" lon="0.19954667">
        <ele>1273.0</ele>
        <time>2019-07-07T06:59:43.803Z</time>
      </trkpt>
      <trkpt lat="42.92745833" lon="0.199495">
        <ele>1273.0</ele>
        <time>2019-07-07T06:59:44.815Z</time>
      </trkpt>
      <trkpt lat="42.92745833" lon="0.199495">
        <ele>1273.0</ele>
        <time>2019-07-07T06:59:45.804Z</time>
      </trkpt>
      <trkpt lat="42.92742" lon="0.19944167">
        <ele>1273.0</ele>
        <time>2019-07-07T06:59:46.810Z</time>
      </trkpt>
      <trkpt lat="42.92740333" lon="0.19941833">
        <ele>1273.0</ele>
        <time>2019-07-07T06:59:47.817Z</time>
      </trkpt>
      <trkpt lat="42.92740333" lon="0.19941833">
        <ele>1273.0</ele>
        <time>2019-07-07T06:59:48.834Z</time>
      </trkpt>
      <trkpt lat="42.927365" lon="0.19936167">
        <ele>1273.0</ele>
        <time>2019-07-07T06:59:49.840Z</time>
      </trkpt>
      <trkpt lat="42.927365" lon="0.19936167">
        <ele>1273.0</ele>
        <time>2019-07-07T06:59:50.808Z</time>
      </trkpt>
      <trkpt lat="42.92732167" lon="0.19931333">
        <ele>1273.0</ele>
        <time>2019-07-07T06:59:51.812Z</time>
      </trkpt>
      <trkpt lat="42.92732167" lon="0.19931333">
        <ele>1273.0</ele>
        <time>2019-07-07T06:59:52.838Z</time>
      </trkpt>
      <trkpt lat="42.92728" lon="0.19927">
        <ele>1274.0</ele>
        <time>2019-07-07T06:59:53.834Z</time>
      </trkpt>
      <trkpt lat="42.92728" lon="0.19927">
        <ele>1274.0</ele>
        <time>2019-07-07T06:59:54.821Z</time>
      </trkpt>
      <trkpt lat="42.92724167" lon="0.19922333">
        <ele>1274.0</ele>
        <time>2019-07-07T06:59:55.828Z</time>
      </trkpt>
      <trkpt lat="42.92722333" lon="0.19919833">
        <ele>1274.0</ele>
        <time>2019-07-07T06:59:56.823Z</time>
      </trkpt>
      <trkpt lat="42.92722333" lon="0.19919833">
        <ele>1274.0</ele>
        <time>2019-07-07T06:59:57.822Z</time>
      </trkpt>
      <trkpt lat="42.927185" lon="0.199145">
        <ele>1275.0</ele>
        <time>2019-07-07T06:59:58.828Z</time>
      </trkpt>
      <trkpt lat="42.927185" lon="0.199145">
        <ele>1275.0</ele>
        <time>2019-07-07T06:59:59.838Z</time>
      </trkpt>
      <trkpt lat="42.92715333" lon="0.19908833">
        <ele>1275.0</ele>
        <time>2019-07-07T07:00:00.827Z</time>
      </trkpt>
      <trkpt lat="42.92715333" lon="0.19908833">
        <ele>1275.0</ele>
        <time>2019-07-07T07:00:01.839Z</time>
      </trkpt>
      <trkpt lat="42.92712667" lon="0.19902667">
        <ele>1275.0</ele>
        <time>2019-07-07T07:00:02.805Z</time>
      </trkpt>
      <trkpt lat="42.92711667" lon="0.19899333">
        <ele>1276.0</ele>
        <time>2019-07-07T07:00:03.819Z</time>
      </trkpt>
      <trkpt lat="42.92710667" lon="0.19896">
        <ele>1276.0</ele>
        <time>2019-07-07T07:00:04.816Z</time>
      </trkpt>
      <trkpt lat="42.92710667" lon="0.19896">
        <ele>1276.0</ele>
        <time>2019-07-07T07:00:05.832Z</time>
      </trkpt>
      <trkpt lat="42.92709" lon="0.19889167">
        <ele>1276.0</ele>
        <time>2019-07-07T07:00:06.809Z</time>
      </trkpt>
      <trkpt lat="42.92709" lon="0.19889167">
        <ele>1276.0</ele>
        <time>2019-07-07T07:00:07.824Z</time>
      </trkpt>
      <trkpt lat="42.92707667" lon="0.19882">
        <ele>1276.0</ele>
        <time>2019-07-07T07:00:08.834Z</time>
      </trkpt>
      <trkpt lat="42.92707167" lon="0.198785">
        <ele>1277.0</ele>
        <time>2019-07-07T07:00:09.834Z</time>
      </trkpt>
      <trkpt lat="42.92707167" lon="0.198785">
        <ele>1277.0</ele>
        <time>2019-07-07T07:00:10.840Z</time>
      </trkpt>
      <trkpt lat="42.92706167" lon="0.19871333">
        <ele>1277.0</ele>
        <time>2019-07-07T07:00:11.807Z</time>
      </trkpt>
      <trkpt lat="42.92705667" lon="0.19867833">
        <ele>1277.0</ele>
        <time>2019-07-07T07:00:12.833Z</time>
      </trkpt>
      <trkpt lat="42.92705167" lon="0.19864333">
        <ele>1277.0</ele>
        <time>2019-07-07T07:00:13.818Z</time>
      </trkpt>
      <trkpt lat="42.92705167" lon="0.19864333">
        <ele>1277.0</ele>
        <time>2019-07-07T07:00:14.824Z</time>
      </trkpt>
      <trkpt lat="42.92703667" lon="0.19858">
        <ele>1278.0</ele>
        <time>2019-07-07T07:00:15.815Z</time>
      </trkpt>
      <trkpt lat="42.927025" lon="0.19855">
        <ele>1278.0</ele>
        <time>2019-07-07T07:00:16.805Z</time>
      </trkpt>
      <trkpt lat="42.927025" lon="0.19855">
        <ele>1278.0</ele>
        <time>2019-07-07T07:00:17.813Z</time>
      </trkpt>
      <trkpt lat="42.92699667" lon="0.198495">
        <ele>1278.0</ele>
        <time>2019-07-07T07:00:18.832Z</time>
      </trkpt>
      <trkpt lat="42.92697833" lon="0.19846833">
        <ele>1278.0</ele>
        <time>2019-07-07T07:00:19.823Z</time>
      </trkpt>
      <trkpt lat="42.92697833" lon="0.19846833">
        <ele>1278.0</ele>
        <time>2019-07-07T07:00:20.831Z</time>
      </trkpt>
      <trkpt lat="42.92694167" lon="0.19841833">
        <ele>1278.0</ele>
        <time>2019-07-07T07:00:21.814Z</time>
      </trkpt>
      <trkpt lat="42.92694167" lon="0.19841833">
        <ele>1278.0</ele>
        <time>2019-07-07T07:00:22.821Z</time>
      </trkpt>
      <trkpt lat="42.9269" lon="0.198375">
        <ele>1279.0</ele>
        <time>2019-07-07T07:00:23.828Z</time>
      </trkpt>
      <trkpt lat="42.92687833" lon="0.19835667">
        <ele>1278.0</ele>
        <time>2019-07-07T07:00:24.826Z</time>
      </trkpt>
      <trkpt lat="42.92687833" lon="0.19835667">
        <ele>1278.0</ele>
        <time>2019-07-07T07:00:25.834Z</time>
      </trkpt>
      <trkpt lat="42.92683667" lon="0.19832">
        <ele>1279.0</ele>
        <time>2019-07-07T07:00:26.802Z</time>
      </trkpt>
      <trkpt lat="42.926815" lon="0.19830167">
        <ele>1279.0</ele>
        <time>2019-07-07T07:00:27.837Z</time>
      </trkpt>
      <trkpt lat="42.926815" lon="0.19830167">
        <ele>1279.0</ele>
        <time>2019-07-07T07:00:28.824Z</time>
      </trkpt>
      <trkpt lat="42.926775" lon="0.198265">
        <ele>1279.0</ele>
        <time>2019-07-07T07:00:29.831Z</time>
      </trkpt>
      <trkpt lat="42.926755" lon="0.198245">
        <ele>1279.0</ele>
        <time>2019-07-07T07:00:30.817Z</time>
      </trkpt>
      <trkpt lat="42.926755" lon="0.198245">
        <ele>1279.0</ele>
        <time>2019-07-07T07:00:31.809Z</time>
      </trkpt>
      <trkpt lat="42.92671167" lon="0.198205">
        <ele>1279.0</ele>
        <time>2019-07-07T07:00:32.825Z</time>
      </trkpt>
      <trkpt lat="42.92671167" lon="0.198205">
        <ele>1279.0</ele>
        <time>2019-07-07T07:00:33.837Z</time>
      </trkpt>
      <trkpt lat="42.92667333" lon="0.198165">
        <ele>1280.0</ele>
        <time>2019-07-07T07:00:34.823Z</time>
      </trkpt>
      <trkpt lat="42.92667333" lon="0.198165">
        <ele>1280.0</ele>
        <time>2019-07-07T07:00:35.822Z</time>
      </trkpt>
      <trkpt lat="42.92663833" lon="0.19812167">
        <ele>1281.0</ele>
        <time>2019-07-07T07:00:36.831Z</time>
      </trkpt>
      <trkpt lat="42.92663833" lon="0.19812167">
        <ele>1281.0</ele>
        <time>2019-07-07T07:00:37.836Z</time>
      </trkpt>
      <trkpt lat="42.926595" lon="0.19808167">
        <ele>1281.0</ele>
        <time>2019-07-07T07:00:38.816Z</time>
      </trkpt>
      <trkpt lat="42.926595" lon="0.19808167">
        <ele>1281.0</ele>
        <time>2019-07-07T07:00:39.831Z</time>
      </trkpt>
      <trkpt lat="42.92655667" lon="0.19803667">
        <ele>1282.0</ele>
        <time>2019-07-07T07:00:40.837Z</time>
      </trkpt>
      <trkpt lat="42.92655667" lon="0.19803667">
        <ele>1282.0</ele>
        <time>2019-07-07T07:00:41.818Z</time>
      </trkpt>
      <trkpt lat="42.92651833" lon="0.197995">
        <ele>1283.0</ele>
        <time>2019-07-07T07:00:42.825Z</time>
      </trkpt>
      <trkpt lat="42.92651833" lon="0.197995">
        <ele>1283.0</ele>
        <time>2019-07-07T07:00:43.819Z</time>
      </trkpt>
      <trkpt lat="42.92647667" lon="0.19795167">
        <ele>1284.0</ele>
        <time>2019-07-07T07:00:44.834Z</time>
      </trkpt>
      <trkpt lat="42.926455" lon="0.19793167">
        <ele>1284.0</ele>
        <time>2019-07-07T07:00:45.827Z</time>
      </trkpt>
      <trkpt lat="42.926435" lon="0.19791333">
        <ele>1284.0</ele>
        <time>2019-07-07T07:00:46.811Z</time>
      </trkpt>
      <trkpt lat="42.926435" lon="0.19791333">
        <ele>1284.0</ele>
        <time>2019-07-07T07:00:47.819Z</time>
      </trkpt>
      <trkpt lat="42.92639667" lon="0.197865">
        <ele>1285.0</ele>
        <time>2019-07-07T07:00:48.828Z</time>
      </trkpt>
      <trkpt lat="42.92638333" lon="0.19783667">
        <ele>1286.0</ele>
        <time>2019-07-07T07:00:49.817Z</time>
      </trkpt>
      <trkpt lat="42.92638333" lon="0.19783667">
        <ele>1286.0</ele>
        <time>2019-07-07T07:00:50.824Z</time>
      </trkpt>
      <trkpt lat="42.92635167" lon="0.19778667">
        <ele>1287.0</ele>
        <time>2019-07-07T07:00:51.832Z</time>
      </trkpt>
      <trkpt lat="42.92633167" lon="0.197755">
        <ele>1287.0</ele>
        <time>2019-07-07T07:00:52.821Z</time>
      </trkpt>
      <trkpt lat="42.92633167" lon="0.197755">
        <ele>1287.0</ele>
        <time>2019-07-07T07:00:53.838Z</time>
      </trkpt>
      <trkpt lat="42.926295" lon="0.19768">
        <ele>1287.0</ele>
        <time>2019-07-07T07:00:54.804Z</time>
      </trkpt>
      <trkpt lat="42.92628" lon="0.19764667">
        <ele>1288.0</ele>
        <time>2019-07-07T07:00:55.827Z</time>
      </trkpt>
      <trkpt lat="42.92628" lon="0.19764667">
        <ele>1288.0</ele>
        <time>2019-07-07T07:00:56.827Z</time>
      </trkpt>
      <trkpt lat="42.92626" lon="0.19758">
        <ele>1289.0</ele>
        <time>2019-07-07T07:00:57.821Z</time>
      </trkpt>
      <trkpt lat="42.92625333" lon="0.19754333">
        <ele>1289.0</ele>
        <time>2019-07-07T07:00:58.810Z</time>
      </trkpt>
      <trkpt lat="42.92625333" lon="0.19754333">
        <ele>1289.0</ele>
        <time>2019-07-07T07:00:59.817Z</time>
      </trkpt>
      <trkpt lat="42.92623333" lon="0.197475">
        <ele>1290.0</ele>
        <time>2019-07-07T07:01:00.823Z</time>
      </trkpt>
      <trkpt lat="42.92622333" lon="0.19744333">
        <ele>1290.0</ele>
        <time>2019-07-07T07:01:01.814Z</time>
      </trkpt>
      <trkpt lat="42.92622333" lon="0.19744333">
        <ele>1290.0</ele>
        <time>2019-07-07T07:01:02.818Z</time>
      </trkpt>
      <trkpt lat="42.926195" lon="0.19738333">
        <ele>1291.0</ele>
        <time>2019-07-07T07:01:03.834Z</time>
      </trkpt>
      <trkpt lat="42.92618167" lon="0.197355">
        <ele>1291.0</ele>
        <time>2019-07-07T07:01:04.821Z</time>
      </trkpt>
      <trkpt lat="42.92618167" lon="0.197355">
        <ele>1291.0</ele>
        <time>2019-07-07T07:01:05.814Z</time>
      </trkpt>
      <trkpt lat="42.92614667" lon="0.197305">
        <ele>1292.0</ele>
        <time>2019-07-07T07:01:06.819Z</time>
      </trkpt>
      <trkpt lat="42.92613" lon="0.19728167">
        <ele>1292.0</ele>
        <time>2019-07-07T07:01:07.801Z</time>
      </trkpt>
      <trkpt lat="42.92613" lon="0.19728167">
        <ele>1292.0</ele>
        <time>2019-07-07T07:01:08.809Z</time>
      </trkpt>
      <trkpt lat="42.92609333" lon="0.19723667">
        <ele>1293.0</ele>
        <time>2019-07-07T07:01:09.815Z</time>
      </trkpt>
      <trkpt lat="42.92607167" lon="0.19721667">
        <ele>1293.0</ele>
        <time>2019-07-07T07:01:10.826Z</time>
      </trkpt>
      <trkpt lat="42.92607167" lon="0.19721667">
        <ele>1293.0</ele>
        <time>2019-07-07T07:01:11.840Z</time>
      </trkpt>
      <trkpt lat="42.92603167" lon="0.19717833">
        <ele>1294.0</ele>
        <time>2019-07-07T07:01:12.807Z</time>
      </trkpt>
      <trkpt lat="42.92600833" lon="0.19716">
        <ele>1294.0</ele>
        <time>2019-07-07T07:01:13.823Z</time>
      </trkpt>
      <trkpt lat="42.92600833" lon="0.19716">
        <ele>1294.0</ele>
        <time>2019-07-07T07:01:14.808Z</time>
      </trkpt>
      <trkpt lat="42.92595833" lon="0.19713167">
        <ele>1294.0</ele>
        <time>2019-07-07T07:01:15.823Z</time>
      </trkpt>
      <trkpt lat="42.92595833" lon="0.19713167">
        <ele>1294.0</ele>
        <time>2019-07-07T07:01:16.802Z</time>
      </trkpt>
      <trkpt lat="42.92590667" lon="0.19712167">
        <ele>1294.0</ele>
        <time>2019-07-07T07:01:17.809Z</time>
      </trkpt>
      <trkpt lat="42.92590667" lon="0.19712167">
        <ele>1294.0</ele>
        <time>2019-07-07T07:01:18.817Z</time>
      </trkpt>
      <trkpt lat="42.92584667" lon="0.197135">
        <ele>1294.0</ele>
        <time>2019-07-07T07:01:19.823Z</time>
      </trkpt>
      <trkpt lat="42.92581833" lon="0.19714833">
        <ele>1294.0</ele>
        <time>2019-07-07T07:01:20.836Z</time>
      </trkpt>
      <trkpt lat="42.92581833" lon="0.19714833">
        <ele>1294.0</ele>
        <time>2019-07-07T07:01:21.821Z</time>
      </trkpt>
      <trkpt lat="42.925765" lon="0.19718333">
        <ele>1295.0</ele>
        <time>2019-07-07T07:01:22.815Z</time>
      </trkpt>
      <trkpt lat="42.925765" lon="0.19718333">
        <ele>1295.0</ele>
        <time>2019-07-07T07:01:23.821Z</time>
      </trkpt>
      <trkpt lat="42.925725" lon="0.197225">
        <ele>1294.0</ele>
        <time>2019-07-07T07:01:24.835Z</time>
      </trkpt>
      <trkpt lat="42.925725" lon="0.197225">
        <ele>1294.0</ele>
        <time>2019-07-07T07:01:25.802Z</time>
      </trkpt>
      <trkpt lat="42.92569667" lon="0.19727667">
        <ele>1295.0</ele>
        <time>2019-07-07T07:01:26.827Z</time>
      </trkpt>
      <trkpt lat="42.92569667" lon="0.19727667">
        <ele>1295.0</ele>
        <time>2019-07-07T07:01:27.809Z</time>
      </trkpt>
      <trkpt lat="42.92566333" lon="0.19731833">
        <ele>1295.0</ele>
        <time>2019-07-07T07:01:28.816Z</time>
      </trkpt>
      <trkpt lat="42.92566333" lon="0.19731833">
        <ele>1295.0</ele>
        <time>2019-07-07T07:01:29.832Z</time>
      </trkpt>
      <trkpt lat="42.92562833" lon="0.19735833">
        <ele>1295.0</ele>
        <time>2019-07-07T07:01:30.825Z</time>
      </trkpt>
      <trkpt lat="42.92562833" lon="0.19735833">
        <ele>1295.0</ele>
        <time>2019-07-07T07:01:31.837Z</time>
      </trkpt>
      <trkpt lat="42.92558833" lon="0.19738667">
        <ele>1295.0</ele>
        <time>2019-07-07T07:01:32.803Z</time>
      </trkpt>
      <trkpt lat="42.92558833" lon="0.19738667">
        <ele>1295.0</ele>
        <time>2019-07-07T07:01:33.817Z</time>
      </trkpt>
      <trkpt lat="42.92554667" lon="0.19741833">
        <ele>1295.0</ele>
        <time>2019-07-07T07:01:34.827Z</time>
      </trkpt>
      <trkpt lat="42.92554667" lon="0.19741833">
        <ele>1295.0</ele>
        <time>2019-07-07T07:01:35.821Z</time>
      </trkpt>
      <trkpt lat="42.92550333" lon="0.19745">
        <ele>1295.0</ele>
        <time>2019-07-07T07:01:36.837Z</time>
      </trkpt>
      <trkpt lat="42.92548167" lon="0.197465">
        <ele>1295.0</ele>
        <time>2019-07-07T07:01:37.806Z</time>
      </trkpt>
      <trkpt lat="42.92546167" lon="0.19748167">
        <ele>1295.0</ele>
        <time>2019-07-07T07:01:38.824Z</time>
      </trkpt>
      <trkpt lat="42.92546167" lon="0.19748167">
        <ele>1295.0</ele>
        <time>2019-07-07T07:01:39.802Z</time>
      </trkpt>
      <trkpt lat="42.92541833" lon="0.19751333">
        <ele>1296.0</ele>
        <time>2019-07-07T07:01:40.809Z</time>
      </trkpt>
      <trkpt lat="42.92541833" lon="0.19751333">
        <ele>1296.0</ele>
        <time>2019-07-07T07:01:41.832Z</time>
      </trkpt>
      <trkpt lat="42.92537" lon="0.197545">
        <ele>1297.0</ele>
        <time>2019-07-07T07:01:42.826Z</time>
      </trkpt>
      <trkpt lat="42.92537" lon="0.197545">
        <ele>1297.0</ele>
        <time>2019-07-07T07:01:43.810Z</time>
      </trkpt>
      <trkpt lat="42.92531833" lon="0.19756833">
        <ele>1298.0</ele>
        <time>2019-07-07T07:01:44.815Z</time>
      </trkpt>
      <trkpt lat="42.92529167" lon="0.19758167">
        <ele>1298.0</ele>
        <time>2019-07-07T07:01:45.832Z</time>
      </trkpt>
      <trkpt lat="42.92529167" lon="0.19758167">
        <ele>1298.0</ele>
        <time>2019-07-07T07:01:46.801Z</time>
      </trkpt>
      <trkpt lat="42.92524167" lon="0.19760667">
        <ele>1299.0</ele>
        <time>2019-07-07T07:01:47.817Z</time>
      </trkpt>
      <trkpt lat="42.92524167" lon="0.19760667">
        <ele>1299.0</ele>
        <time>2019-07-07T07:01:48.831Z</time>
      </trkpt>
      <trkpt lat="42.92519333" lon="0.19762833">
        <ele>1300.0</ele>
        <time>2019-07-07T07:01:49.811Z</time>
      </trkpt>
      <trkpt lat="42.92519333" lon="0.19762833">
        <ele>1300.0</ele>
        <time>2019-07-07T07:01:50.834Z</time>
      </trkpt>
      <trkpt lat="42.925145" lon="0.19764333">
        <ele>1300.0</ele>
        <time>2019-07-07T07:01:51.801Z</time>
      </trkpt>
      <trkpt lat="42.92512333" lon="0.19765">
        <ele>1300.0</ele>
        <time>2019-07-07T07:01:52.810Z</time>
      </trkpt>
      <trkpt lat="42.92512333" lon="0.19765">
        <ele>1300.0</ele>
        <time>2019-07-07T07:01:53.819Z</time>
      </trkpt>
      <trkpt lat="42.92507667" lon="0.19766">
        <ele>1301.0</ele>
        <time>2019-07-07T07:01:54.825Z</time>
      </trkpt>
      <trkpt lat="42.92507667" lon="0.19766">
        <ele>1301.0</ele>
        <time>2019-07-07T07:01:55.803Z</time>
      </trkpt>
      <trkpt lat="42.925035" lon="0.19767">
        <ele>1301.0</ele>
        <time>2019-07-07T07:01:56.821Z</time>
      </trkpt>
      <trkpt lat="42.925035" lon="0.19767">
        <ele>1301.0</ele>
        <time>2019-07-07T07:01:57.831Z</time>
      </trkpt>
      <trkpt lat="42.92498167" lon="0.19767667">
        <ele>1302.0</ele>
        <time>2019-07-07T07:01:58.840Z</time>
      </trkpt>
      <trkpt lat="42.92498167" lon="0.19767667">
        <ele>1302.0</ele>
        <time>2019-07-07T07:01:59.811Z</time>
      </trkpt>
      <trkpt lat="42.92492833" lon="0.197675">
        <ele>1302.0</ele>
        <time>2019-07-07T07:02:00.818Z</time>
      </trkpt>
      <trkpt lat="42.92492833" lon="0.197675">
        <ele>1302.0</ele>
        <time>2019-07-07T07:02:01.821Z</time>
      </trkpt>
      <trkpt lat="42.92488" lon="0.19769333">
        <ele>1303.0</ele>
        <time>2019-07-07T07:02:02.836Z</time>
      </trkpt>
      <trkpt lat="42.92486167" lon="0.19769833">
        <ele>1303.0</ele>
        <time>2019-07-07T07:02:03.833Z</time>
      </trkpt>
      <trkpt lat="42.92485" lon="0.19770833">
        <ele>1304.0</ele>
        <time>2019-07-07T07:02:04.820Z</time>
      </trkpt>
      <trkpt lat="42.92485" lon="0.19770833">
        <ele>1304.0</ele>
        <time>2019-07-07T07:02:05.828Z</time>
      </trkpt>
      <trkpt lat="42.924795" lon="0.19777333">
        <ele>1304.0</ele>
        <time>2019-07-07T07:02:06.838Z</time>
      </trkpt>
      <trkpt lat="42.924795" lon="0.19777333">
        <ele>1304.0</ele>
        <time>2019-07-07T07:02:07.834Z</time>
      </trkpt>
      <trkpt lat="42.92474167" lon="0.19785333">
        <ele>1305.0</ele>
        <time>2019-07-07T07:02:08.803Z</time>
      </trkpt>
      <trkpt lat="42.92471667" lon="0.19789833">
        <ele>1305.0</ele>
        <time>2019-07-07T07:02:09.819Z</time>
      </trkpt>
      <trkpt lat="42.9247" lon="0.19794833">
        <ele>1305.0</ele>
        <time>2019-07-07T07:02:10.825Z</time>
      </trkpt>
      <trkpt lat="42.9247" lon="0.19794833">
        <ele>1305.0</ele>
        <time>2019-07-07T07:02:11.834Z</time>
      </trkpt>
      <trkpt lat="42.924685" lon="0.19803333">
        <ele>1306.0</ele>
        <time>2019-07-07T07:02:12.807Z</time>
      </trkpt>
      <trkpt lat="42.924685" lon="0.198075">
        <ele>1306.0</ele>
        <time>2019-07-07T07:02:13.810Z</time>
      </trkpt>
      <trkpt lat="42.924685" lon="0.198075">
        <ele>1306.0</ele>
        <time>2019-07-07T07:02:14.809Z</time>
      </trkpt>
      <trkpt lat="42.924685" lon="0.19816">
        <ele>1306.0</ele>
        <time>2019-07-07T07:02:15.815Z</time>
      </trkpt>
      <trkpt lat="42.924695" lon="0.19819833">
        <ele>1306.0</ele>
        <time>2019-07-07T07:02:16.818Z</time>
      </trkpt>
      <trkpt lat="42.924695" lon="0.19819833">
        <ele>1306.0</ele>
        <time>2019-07-07T07:02:17.834Z</time>
      </trkpt>
      <trkpt lat="42.92470667" lon="0.198275">
        <ele>1305.0</ele>
        <time>2019-07-07T07:02:18.802Z</time>
      </trkpt>
      <trkpt lat="42.92471167" lon="0.19831333">
        <ele>1305.0</ele>
        <time>2019-07-07T07:02:19.817Z</time>
      </trkpt>
      <trkpt lat="42.92471167" lon="0.19831333">
        <ele>1305.0</ele>
        <time>2019-07-07T07:02:20.820Z</time>
      </trkpt>
      <trkpt lat="42.92471833" lon="0.19839">
        <ele>1306.0</ele>
        <time>2019-07-07T07:02:21.830Z</time>
      </trkpt>
      <trkpt lat="42.92471833" lon="0.19843">
        <ele>1306.0</ele>
        <time>2019-07-07T07:02:22.833Z</time>
      </trkpt>
      <trkpt lat="42.92471833" lon="0.19843">
        <ele>1306.0</ele>
        <time>2019-07-07T07:02:23.835Z</time>
      </trkpt>
      <trkpt lat="42.924735" lon="0.19849833">
        <ele>1306.0</ele>
        <time>2019-07-07T07:02:24.823Z</time>
      </trkpt>
      <trkpt lat="42.92473667" lon="0.19853167">
        <ele>1306.0</ele>
        <time>2019-07-07T07:02:25.825Z</time>
      </trkpt>
      <trkpt lat="42.92473667" lon="0.19853167">
        <ele>1306.0</ele>
        <time>2019-07-07T07:02:26.821Z</time>
      </trkpt>
      <trkpt lat="42.92473667" lon="0.19860667">
        <ele>1306.0</ele>
        <time>2019-07-07T07:02:27.829Z</time>
      </trkpt>
      <trkpt lat="42.92474333" lon="0.198635">
        <ele>1306.0</ele>
        <time>2019-07-07T07:02:28.801Z</time>
      </trkpt>
      <trkpt lat="42.92474333" lon="0.198635">
        <ele>1306.0</ele>
        <time>2019-07-07T07:02:29.820Z</time>
      </trkpt>
      <trkpt lat="42.92475" lon="0.19870333">
        <ele>1306.0</ele>
        <time>2019-07-07T07:02:30.826Z</time>
      </trkpt>
      <trkpt lat="42.92475333" lon="0.19874167">
        <ele>1306.0</ele>
        <time>2019-07-07T07:02:31.807Z</time>
      </trkpt>
      <trkpt lat="42.92475333" lon="0.19874167">
        <ele>1306.0</ele>
        <time>2019-07-07T07:02:32.814Z</time>
      </trkpt>
      <trkpt lat="42.92475833" lon="0.19881333">
        <ele>1306.0</ele>
        <time>2019-07-07T07:02:33.820Z</time>
      </trkpt>
      <trkpt lat="42.92475833" lon="0.19881333">
        <ele>1306.0</ele>
        <time>2019-07-07T07:02:34.841Z</time>
      </trkpt>
      <trkpt lat="42.92475167" lon="0.19888">
        <ele>1306.0</ele>
        <time>2019-07-07T07:02:35.834Z</time>
      </trkpt>
      <trkpt lat="42.92475167" lon="0.19888">
        <ele>1306.0</ele>
        <time>2019-07-07T07:02:36.837Z</time>
      </trkpt>
      <trkpt lat="42.92475" lon="0.198945">
        <ele>1306.0</ele>
        <time>2019-07-07T07:02:37.802Z</time>
      </trkpt>
      <trkpt lat="42.92475" lon="0.198945">
        <ele>1306.0</ele>
        <time>2019-07-07T07:02:38.820Z</time>
      </trkpt>
      <trkpt lat="42.92475333" lon="0.19901167">
        <ele>1307.0</ele>
        <time>2019-07-07T07:02:39.824Z</time>
      </trkpt>
      <trkpt lat="42.92475333" lon="0.19901167">
        <ele>1307.0</ele>
        <time>2019-07-07T07:02:40.837Z</time>
      </trkpt>
      <trkpt lat="42.924745" lon="0.19908">
        <ele>1307.0</ele>
        <time>2019-07-07T07:02:41.804Z</time>
      </trkpt>
      <trkpt lat="42.924745" lon="0.19908">
        <ele>1307.0</ele>
        <time>2019-07-07T07:02:42.816Z</time>
      </trkpt>
      <trkpt lat="42.92473333" lon="0.19915167">
        <ele>1307.0</ele>
        <time>2019-07-07T07:02:43.820Z</time>
      </trkpt>
      <trkpt lat="42.92473333" lon="0.19915167">
        <ele>1307.0</ele>
        <time>2019-07-07T07:02:44.833Z</time>
      </trkpt>
      <trkpt lat="42.92473333" lon="0.19922167">
        <ele>1307.0</ele>
        <time>2019-07-07T07:02:45.804Z</time>
      </trkpt>
      <trkpt lat="42.92473833" lon="0.19925667">
        <ele>1308.0</ele>
        <time>2019-07-07T07:02:46.820Z</time>
      </trkpt>
      <trkpt lat="42.92473833" lon="0.19925667">
        <ele>1308.0</ele>
        <time>2019-07-07T07:02:47.807Z</time>
      </trkpt>
      <trkpt lat="42.92474" lon="0.19933167">
        <ele>1308.0</ele>
        <time>2019-07-07T07:02:48.816Z</time>
      </trkpt>
      <trkpt lat="42.92473667" lon="0.19936667">
        <ele>1308.0</ele>
        <time>2019-07-07T07:02:49.801Z</time>
      </trkpt>
      <trkpt lat="42.92473667" lon="0.19936667">
        <ele>1308.0</ele>
        <time>2019-07-07T07:02:50.816Z</time>
      </trkpt>
      <trkpt lat="42.92473667" lon="0.199435">
        <ele>1308.0</ele>
        <time>2019-07-07T07:02:51.822Z</time>
      </trkpt>
      <trkpt lat="42.924735" lon="0.19947">
        <ele>1308.0</ele>
        <time>2019-07-07T07:02:52.826Z</time>
      </trkpt>
      <trkpt lat="42.924735" lon="0.19947">
        <ele>1308.0</ele>
        <time>2019-07-07T07:02:53.835Z</time>
      </trkpt>
      <trkpt lat="42.924745" lon="0.19954167">
        <ele>1309.0</ele>
        <time>2019-07-07T07:02:54.802Z</time>
      </trkpt>
      <trkpt lat="42.92474667" lon="0.19957833">
        <ele>1309.0</ele>
        <time>2019-07-07T07:02:55.827Z</time>
      </trkpt>
      <trkpt lat="42.92474667" lon="0.19957833">
        <ele>1309.0</ele>
        <time>2019-07-07T07:02:56.822Z</time>
      </trkpt>
      <trkpt lat="42.92472167" lon="0.19964167">
        <ele>1309.0</ele>
        <time>2019-07-07T07:02:57.836Z</time>
      </trkpt>
      <trkpt lat="42.924715" lon="0.19967167">
        <ele>1310.0</ele>
        <time>2019-07-07T07:02:58.807Z</time>
      </trkpt>
      <trkpt lat="42.924715" lon="0.19967167">
        <ele>1310.0</ele>
        <time>2019-07-07T07:02:59.818Z</time>
      </trkpt>
      <trkpt lat="42.92471333" lon="0.19973667">
        <ele>1310.0</ele>
        <time>2019-07-07T07:03:00.824Z</time>
      </trkpt>
      <trkpt lat="42.92471167" lon="0.19977167">
        <ele>1310.0</ele>
        <time>2019-07-07T07:03:01.838Z</time>
      </trkpt>
      <trkpt lat="42.92471167" lon="0.19977167">
        <ele>1310.0</ele>
        <time>2019-07-07T07:03:02.805Z</time>
      </trkpt>
      <trkpt lat="42.92471" lon="0.19984">
        <ele>1311.0</ele>
        <time>2019-07-07T07:03:03.812Z</time>
      </trkpt>
      <trkpt lat="42.92471" lon="0.19984">
        <ele>1311.0</ele>
        <time>2019-07-07T07:03:04.840Z</time>
      </trkpt>
      <trkpt lat="42.92471" lon="0.19991667">
        <ele>1311.0</ele>
        <time>2019-07-07T07:03:05.832Z</time>
      </trkpt>
      <trkpt lat="42.92471" lon="0.19991667">
        <ele>1311.0</ele>
        <time>2019-07-07T07:03:06.832Z</time>
      </trkpt>
      <trkpt lat="42.92470333" lon="0.19998833">
        <ele>1311.0</ele>
        <time>2019-07-07T07:03:07.839Z</time>
      </trkpt>
      <trkpt lat="42.92470333" lon="0.19998833">
        <ele>1311.0</ele>
        <time>2019-07-07T07:03:08.821Z</time>
      </trkpt>
      <trkpt lat="42.924695" lon="0.20005667">
        <ele>1312.0</ele>
        <time>2019-07-07T07:03:09.827Z</time>
      </trkpt>
      <trkpt lat="42.92469333" lon="0.20009167">
        <ele>1312.0</ele>
        <time>2019-07-07T07:03:10.802Z</time>
      </trkpt>
      <trkpt lat="42.92469333" lon="0.20009167">
        <ele>1312.0</ele>
        <time>2019-07-07T07:03:11.808Z</time>
      </trkpt>
      <trkpt lat="42.92468833" lon="0.20016333">
        <ele>1312.0</ele>
        <time>2019-07-07T07:03:12.825Z</time>
      </trkpt>
      <trkpt lat="42.92469167" lon="0.2002">
        <ele>1312.0</ele>
        <time>2019-07-07T07:03:13.803Z</time>
      </trkpt>
      <trkpt lat="42.924685" lon="0.20023333">
        <ele>1312.0</ele>
        <time>2019-07-07T07:03:14.820Z</time>
      </trkpt>
      <trkpt lat="42.924685" lon="0.20023333">
        <ele>1312.0</ele>
        <time>2019-07-07T07:03:15.822Z</time>
      </trkpt>
      <trkpt lat="42.92467" lon="0.20030333">
        <ele>1313.0</ele>
        <time>2019-07-07T07:03:16.801Z</time>
      </trkpt>
      <trkpt lat="42.92467" lon="0.20030333">
        <ele>1313.0</ele>
        <time>2019-07-07T07:03:17.812Z</time>
      </trkpt>
      <trkpt lat="42.92466" lon="0.20037667">
        <ele>1313.0</ele>
        <time>2019-07-07T07:03:18.833Z</time>
      </trkpt>
      <trkpt lat="42.92466" lon="0.20037667">
        <ele>1313.0</ele>
        <time>2019-07-07T07:03:19.820Z</time>
      </trkpt>
      <trkpt lat="42.924655" lon="0.20045">
        <ele>1313.0</ele>
        <time>2019-07-07T07:03:20.826Z</time>
      </trkpt>
      <trkpt lat="42.92465333" lon="0.20048667">
        <ele>1314.0</ele>
        <time>2019-07-07T07:03:21.811Z</time>
      </trkpt>
      <trkpt lat="42.92465333" lon="0.20048667">
        <ele>1314.0</ele>
        <time>2019-07-07T07:03:22.809Z</time>
      </trkpt>
      <trkpt lat="42.92465833" lon="0.20055667">
        <ele>1314.0</ele>
        <time>2019-07-07T07:03:23.819Z</time>
      </trkpt>
      <trkpt lat="42.92465833" lon="0.20055667">
        <ele>1314.0</ele>
        <time>2019-07-07T07:03:24.801Z</time>
      </trkpt>
      <trkpt lat="42.92465167" lon="0.20062833">
        <ele>1315.0</ele>
        <time>2019-07-07T07:03:25.826Z</time>
      </trkpt>
      <trkpt lat="42.92465167" lon="0.20062833">
        <ele>1315.0</ele>
        <time>2019-07-07T07:03:26.836Z</time>
      </trkpt>
      <trkpt lat="42.924645" lon="0.20069333">
        <ele>1315.0</ele>
        <time>2019-07-07T07:03:27.808Z</time>
      </trkpt>
      <trkpt lat="42.92461833" lon="0.20072667">
        <ele>1316.0</ele>
        <time>2019-07-07T07:03:28.817Z</time>
      </trkpt>
      <trkpt lat="42.92461833" lon="0.20072667">
        <ele>1316.0</ele>
        <time>2019-07-07T07:03:29.803Z</time>
      </trkpt>
      <trkpt lat="42.92459667" lon="0.20079667">
        <ele>1316.0</ele>
        <time>2019-07-07T07:03:30.837Z</time>
      </trkpt>
      <trkpt lat="42.92459667" lon="0.20079667">
        <ele>1316.0</ele>
        <time>2019-07-07T07:03:31.802Z</time>
      </trkpt>
      <trkpt lat="42.92458667" lon="0.20087333">
        <ele>1316.0</ele>
        <time>2019-07-07T07:03:32.809Z</time>
      </trkpt>
      <trkpt lat="42.92458667" lon="0.20087333">
        <ele>1316.0</ele>
        <time>2019-07-07T07:03:33.832Z</time>
      </trkpt>
      <trkpt lat="42.92457333" lon="0.20094667">
        <ele>1317.0</ele>
        <time>2019-07-07T07:03:34.825Z</time>
      </trkpt>
      <trkpt lat="42.92457333" lon="0.20094667">
        <ele>1317.0</ele>
        <time>2019-07-07T07:03:35.835Z</time>
      </trkpt>
      <trkpt lat="42.92457167" lon="0.20101333">
        <ele>1318.0</ele>
        <time>2019-07-07T07:03:36.804Z</time>
      </trkpt>
      <trkpt lat="42.92457167" lon="0.20101333">
        <ele>1318.0</ele>
        <time>2019-07-07T07:03:37.809Z</time>
      </trkpt>
      <trkpt lat="42.92455667" lon="0.20108333">
        <ele>1319.0</ele>
        <time>2019-07-07T07:03:38.829Z</time>
      </trkpt>
      <trkpt lat="42.92455667" lon="0.20108333">
        <ele>1319.0</ele>
        <time>2019-07-07T07:03:39.809Z</time>
      </trkpt>
      <trkpt lat="42.92454" lon="0.20114667">
        <ele>1319.0</ele>
        <time>2019-07-07T07:03:40.816Z</time>
      </trkpt>
      <trkpt lat="42.92454" lon="0.20114667">
        <ele>1319.0</ele>
        <time>2019-07-07T07:03:41.836Z</time>
      </trkpt>
      <trkpt lat="42.92455333" lon="0.20121">
        <ele>1320.0</ele>
        <time>2019-07-07T07:03:42.827Z</time>
      </trkpt>
      <trkpt lat="42.92455333" lon="0.20121">
        <ele>1320.0</ele>
        <time>2019-07-07T07:03:43.812Z</time>
      </trkpt>
      <trkpt lat="42.92456" lon="0.20127667">
        <ele>1321.0</ele>
        <time>2019-07-07T07:03:44.818Z</time>
      </trkpt>
      <trkpt lat="42.92455833" lon="0.20130833">
        <ele>1322.0</ele>
        <time>2019-07-07T07:03:45.829Z</time>
      </trkpt>
      <trkpt lat="42.92455667" lon="0.20133833">
        <ele>1322.0</ele>
        <time>2019-07-07T07:03:46.829Z</time>
      </trkpt>
      <trkpt lat="42.92455667" lon="0.20133833">
        <ele>1322.0</ele>
        <time>2019-07-07T07:03:47.801Z</time>
      </trkpt>
      <trkpt lat="42.92455" lon="0.20140167">
        <ele>1323.0</ele>
        <time>2019-07-07T07:03:48.827Z</time>
      </trkpt>
      <trkpt lat="42.924545" lon="0.201435">
        <ele>1323.0</ele>
        <time>2019-07-07T07:03:49.835Z</time>
      </trkpt>
      <trkpt lat="42.924545" lon="0.201435">
        <ele>1323.0</ele>
        <time>2019-07-07T07:03:50.801Z</time>
      </trkpt>
      <trkpt lat="42.92453167" lon="0.20149833">
        <ele>1324.0</ele>
        <time>2019-07-07T07:03:51.812Z</time>
      </trkpt>
      <trkpt lat="42.924525" lon="0.201535">
        <ele>1324.0</ele>
        <time>2019-07-07T07:03:52.841Z</time>
      </trkpt>
      <trkpt lat="42.924525" lon="0.201535">
        <ele>1324.0</ele>
        <time>2019-07-07T07:03:53.818Z</time>
      </trkpt>
      <trkpt lat="42.92451" lon="0.201605">
        <ele>1325.0</ele>
        <time>2019-07-07T07:03:54.801Z</time>
      </trkpt>
      <trkpt lat="42.92451" lon="0.201605">
        <ele>1325.0</ele>
        <time>2019-07-07T07:03:55.802Z</time>
      </trkpt>
      <trkpt lat="42.92451667" lon="0.201675">
        <ele>1325.0</ele>
        <time>2019-07-07T07:03:56.808Z</time>
      </trkpt>
      <trkpt lat="42.92451667" lon="0.201675">
        <ele>1325.0</ele>
        <time>2019-07-07T07:03:57.823Z</time>
      </trkpt>
      <trkpt lat="42.924505" lon="0.20175">
        <ele>1326.0</ele>
        <time>2019-07-07T07:03:58.837Z</time>
      </trkpt>
      <trkpt lat="42.924505" lon="0.20175">
        <ele>1326.0</ele>
        <time>2019-07-07T07:03:59.836Z</time>
      </trkpt>
      <trkpt lat="42.92447333" lon="0.20182333">
        <ele>1327.0</ele>
        <time>2019-07-07T07:04:00.804Z</time>
      </trkpt>
      <trkpt lat="42.92447333" lon="0.20182333">
        <ele>1327.0</ele>
        <time>2019-07-07T07:04:01.817Z</time>
      </trkpt>
      <trkpt lat="42.92445167" lon="0.20190167">
        <ele>1327.0</ele>
        <time>2019-07-07T07:04:02.827Z</time>
      </trkpt>
      <trkpt lat="42.92445167" lon="0.20190167">
        <ele>1327.0</ele>
        <time>2019-07-07T07:04:03.821Z</time>
      </trkpt>
      <trkpt lat="42.924445" lon="0.20198">
        <ele>1328.0</ele>
        <time>2019-07-07T07:04:04.830Z</time>
      </trkpt>
      <trkpt lat="42.924445" lon="0.20198">
        <ele>1328.0</ele>
        <time>2019-07-07T07:04:05.811Z</time>
      </trkpt>
      <trkpt lat="42.92444667" lon="0.20204667">
        <ele>1328.0</ele>
        <time>2019-07-07T07:04:06.827Z</time>
      </trkpt>
      <trkpt lat="42.92444667" lon="0.20204667">
        <ele>1328.0</ele>
        <time>2019-07-07T07:04:07.808Z</time>
      </trkpt>
      <trkpt lat="42.92444833" lon="0.202115">
        <ele>1328.0</ele>
        <time>2019-07-07T07:04:08.814Z</time>
      </trkpt>
      <trkpt lat="42.92444833" lon="0.202115">
        <ele>1328.0</ele>
        <time>2019-07-07T07:04:09.803Z</time>
      </trkpt>
      <trkpt lat="42.924445" lon="0.20218333">
        <ele>1328.0</ele>
        <time>2019-07-07T07:04:10.825Z</time>
      </trkpt>
      <trkpt lat="42.924445" lon="0.20218333">
        <ele>1328.0</ele>
        <time>2019-07-07T07:04:11.822Z</time>
      </trkpt>
      <trkpt lat="42.92443833" lon="0.20225">
        <ele>1329.0</ele>
        <time>2019-07-07T07:04:12.829Z</time>
      </trkpt>
      <trkpt lat="42.92443833" lon="0.20225">
        <ele>1329.0</ele>
        <time>2019-07-07T07:04:13.839Z</time>
      </trkpt>
      <trkpt lat="42.924435" lon="0.20232333">
        <ele>1329.0</ele>
        <time>2019-07-07T07:04:14.835Z</time>
      </trkpt>
      <trkpt lat="42.924435" lon="0.20232333">
        <ele>1329.0</ele>
        <time>2019-07-07T07:04:15.802Z</time>
      </trkpt>
      <trkpt lat="42.92443" lon="0.20239333">
        <ele>1329.0</ele>
        <time>2019-07-07T07:04:16.809Z</time>
      </trkpt>
      <trkpt lat="42.92443" lon="0.20239333">
        <ele>1329.0</ele>
        <time>2019-07-07T07:04:17.822Z</time>
      </trkpt>
      <trkpt lat="42.92442" lon="0.20246">
        <ele>1330.0</ele>
        <time>2019-07-07T07:04:18.834Z</time>
      </trkpt>
      <trkpt lat="42.92442" lon="0.20246">
        <ele>1330.0</ele>
        <time>2019-07-07T07:04:19.836Z</time>
      </trkpt>
      <trkpt lat="42.924415" lon="0.202515">
        <ele>1330.0</ele>
        <time>2019-07-07T07:04:20.803Z</time>
      </trkpt>
      <trkpt lat="42.924415" lon="0.202515">
        <ele>1330.0</ele>
        <time>2019-07-07T07:04:21.833Z</time>
      </trkpt>
      <trkpt lat="42.92440667" lon="0.20257667">
        <ele>1331.0</ele>
        <time>2019-07-07T07:04:22.826Z</time>
      </trkpt>
      <trkpt lat="42.92440667" lon="0.20257667">
        <ele>1331.0</ele>
        <time>2019-07-07T07:04:23.815Z</time>
      </trkpt>
      <trkpt lat="42.9244" lon="0.20264833">
        <ele>1331.0</ele>
        <time>2019-07-07T07:04:24.823Z</time>
      </trkpt>
      <trkpt lat="42.92439833" lon="0.202685">
        <ele>1332.0</ele>
        <time>2019-07-07T07:04:25.828Z</time>
      </trkpt>
      <trkpt lat="42.92439833" lon="0.202685">
        <ele>1332.0</ele>
        <time>2019-07-07T07:04:26.840Z</time>
      </trkpt>
      <trkpt lat="42.92439167" lon="0.20274167">
        <ele>1332.0</ele>
        <time>2019-07-07T07:04:27.807Z</time>
      </trkpt>
      <trkpt lat="42.92439167" lon="0.20274167">
        <ele>1332.0</ele>
        <time>2019-07-07T07:04:28.831Z</time>
      </trkpt>
      <trkpt lat="42.92438667" lon="0.20279833">
        <ele>1333.0</ele>
        <time>2019-07-07T07:04:29.838Z</time>
      </trkpt>
      <trkpt lat="42.92437667" lon="0.20284">
        <ele>1334.0</ele>
        <time>2019-07-07T07:04:30.829Z</time>
      </trkpt>
      <trkpt lat="42.92437667" lon="0.20284">
        <ele>1334.0</ele>
        <time>2019-07-07T07:04:31.801Z</time>
      </trkpt>
      <trkpt lat="42.92432667" lon="0.20290833">
        <ele>1335.0</ele>
        <time>2019-07-07T07:04:32.808Z</time>
      </trkpt>
      <trkpt lat="42.92432667" lon="0.20290833">
        <ele>1335.0</ele>
        <time>2019-07-07T07:04:33.813Z</time>
      </trkpt>
      <trkpt lat="42.92431833" lon="0.202985">
        <ele>1336.0</ele>
        <time>2019-07-07T07:04:34.831Z</time>
      </trkpt>
      <trkpt lat="42.92431833" lon="0.202985">
        <ele>1336.0</ele>
        <time>2019-07-07T07:04:35.805Z</time>
      </trkpt>
      <trkpt lat="42.92430167" lon="0.20305667">
        <ele>1336.0</ele>
        <time>2019-07-07T07:04:36.815Z</time>
      </trkpt>
      <trkpt lat="42.92430167" lon="0.20305667">
        <ele>1336.0</ele>
        <time>2019-07-07T07:04:37.840Z</time>
      </trkpt>
      <trkpt lat="42.92428833" lon="0.203125">
        <ele>1337.0</ele>
        <time>2019-07-07T07:04:38.826Z</time>
      </trkpt>
      <trkpt lat="42.92428833" lon="0.203125">
        <ele>1337.0</ele>
        <time>2019-07-07T07:04:39.818Z</time>
      </trkpt>
      <trkpt lat="42.924275" lon="0.20318667">
        <ele>1338.0</ele>
        <time>2019-07-07T07:04:40.825Z</time>
      </trkpt>
      <trkpt lat="42.924275" lon="0.20318667">
        <ele>1338.0</ele>
        <time>2019-07-07T07:04:41.839Z</time>
      </trkpt>
      <trkpt lat="42.92425333" lon="0.20324333">
        <ele>1339.0</ele>
        <time>2019-07-07T07:04:42.825Z</time>
      </trkpt>
      <trkpt lat="42.92425333" lon="0.20324333">
        <ele>1339.0</ele>
        <time>2019-07-07T07:04:43.823Z</time>
      </trkpt>
      <trkpt lat="42.92424167" lon="0.203305">
        <ele>1339.0</ele>
        <time>2019-07-07T07:04:44.839Z</time>
      </trkpt>
      <trkpt lat="42.924235" lon="0.20333">
        <ele>1340.0</ele>
        <time>2019-07-07T07:04:45.826Z</time>
      </trkpt>
      <trkpt lat="42.924235" lon="0.20333">
        <ele>1340.0</ele>
        <time>2019-07-07T07:04:46.801Z</time>
      </trkpt>
      <trkpt lat="42.92423167" lon="0.20338">
        <ele>1340.0</ele>
        <time>2019-07-07T07:04:47.826Z</time>
      </trkpt>
      <trkpt lat="42.92421667" lon="0.203405">
        <ele>1340.0</ele>
        <time>2019-07-07T07:04:48.814Z</time>
      </trkpt>
      <trkpt lat="42.92421667" lon="0.203405">
        <ele>1340.0</ele>
        <time>2019-07-07T07:04:49.831Z</time>
      </trkpt>
      <trkpt lat="42.92418833" lon="0.20346333">
        <ele>1340.0</ele>
        <time>2019-07-07T07:04:50.839Z</time>
      </trkpt>
      <trkpt lat="42.92417167" lon="0.20349167">
        <ele>1341.0</ele>
        <time>2019-07-07T07:04:51.804Z</time>
      </trkpt>
      <trkpt lat="42.92417167" lon="0.20349167">
        <ele>1341.0</ele>
        <time>2019-07-07T07:04:52.815Z</time>
      </trkpt>
      <trkpt lat="42.92415" lon="0.203545">
        <ele>1341.0</ele>
        <time>2019-07-07T07:04:53.831Z</time>
      </trkpt>
      <trkpt lat="42.924145" lon="0.20356667">
        <ele>1341.0</ele>
        <time>2019-07-07T07:04:54.804Z</time>
      </trkpt>
      <trkpt lat="42.924145" lon="0.20356667">
        <ele>1341.0</ele>
        <time>2019-07-07T07:04:55.810Z</time>
      </trkpt>
      <trkpt lat="42.92412833" lon="0.203605">
        <ele>1342.0</ele>
        <time>2019-07-07T07:04:56.816Z</time>
      </trkpt>
      <trkpt lat="42.92412833" lon="0.203605">
        <ele>1342.0</ele>
        <time>2019-07-07T07:04:57.829Z</time>
      </trkpt>
      <trkpt lat="42.92409833" lon="0.203665">
        <ele>1342.0</ele>
        <time>2019-07-07T07:04:58.816Z</time>
      </trkpt>
      <trkpt lat="42.92409833" lon="0.203665">
        <ele>1342.0</ele>
        <time>2019-07-07T07:04:59.807Z</time>
      </trkpt>
      <trkpt lat="42.92408333" lon="0.20371833">
        <ele>1342.0</ele>
        <time>2019-07-07T07:05:00.814Z</time>
      </trkpt>
      <trkpt lat="42.92408333" lon="0.20371833">
        <ele>1342.0</ele>
        <time>2019-07-07T07:05:01.826Z</time>
      </trkpt>
      <trkpt lat="42.924045" lon="0.20377333">
        <ele>1343.0</ele>
        <time>2019-07-07T07:05:02.825Z</time>
      </trkpt>
      <trkpt lat="42.924045" lon="0.20377333">
        <ele>1343.0</ele>
        <time>2019-07-07T07:05:03.828Z</time>
      </trkpt>
      <trkpt lat="42.92401333" lon="0.20383">
        <ele>1343.0</ele>
        <time>2019-07-07T07:05:04.808Z</time>
      </trkpt>
      <trkpt lat="42.92399167" lon="0.20385833">
        <ele>1344.0</ele>
        <time>2019-07-07T07:05:05.836Z</time>
      </trkpt>
      <trkpt lat="42.92399167" lon="0.20385833">
        <ele>1344.0</ele>
        <time>2019-07-07T07:05:06.834Z</time>
      </trkpt>
      <trkpt lat="42.92395" lon="0.20392333">
        <ele>1344.0</ele>
        <time>2019-07-07T07:05:07.840Z</time>
      </trkpt>
      <trkpt lat="42.92395" lon="0.20392333">
        <ele>1344.0</ele>
        <time>2019-07-07T07:05:08.812Z</time>
      </trkpt>
      <trkpt lat="42.92392333" lon="0.20399167">
        <ele>1344.0</ele>
        <time>2019-07-07T07:05:09.826Z</time>
      </trkpt>
      <trkpt lat="42.92390333" lon="0.204025">
        <ele>1344.0</ele>
        <time>2019-07-07T07:05:10.815Z</time>
      </trkpt>
      <trkpt lat="42.92388667" lon="0.20405667">
        <ele>1344.0</ele>
        <time>2019-07-07T07:05:11.821Z</time>
      </trkpt>
      <trkpt lat="42.92388667" lon="0.20405667">
        <ele>1344.0</ele>
        <time>2019-07-07T07:05:12.826Z</time>
      </trkpt>
      <trkpt lat="42.92386167" lon="0.20412">
        <ele>1344.0</ele>
        <time>2019-07-07T07:05:13.838Z</time>
      </trkpt>
      <trkpt lat="42.92386167" lon="0.20412">
        <ele>1344.0</ele>
        <time>2019-07-07T07:05:14.807Z</time>
      </trkpt>
      <trkpt lat="42.92381833" lon="0.20418333">
        <ele>1345.0</ele>
        <time>2019-07-07T07:05:15.844Z</time>
      </trkpt>
      <trkpt lat="42.92380667" lon="0.20421333">
        <ele>1345.0</ele>
        <time>2019-07-07T07:05:16.840Z</time>
      </trkpt>
      <trkpt lat="42.92380667" lon="0.20421333">
        <ele>1345.0</ele>
        <time>2019-07-07T07:05:17.806Z</time>
      </trkpt>
      <trkpt lat="42.92377167" lon="0.20427667">
        <ele>1346.0</ele>
        <time>2019-07-07T07:05:18.824Z</time>
      </trkpt>
      <trkpt lat="42.92375667" lon="0.20431">
        <ele>1346.0</ele>
        <time>2019-07-07T07:05:19.813Z</time>
      </trkpt>
      <trkpt lat="42.92375667" lon="0.20431">
        <ele>1346.0</ele>
        <time>2019-07-07T07:05:20.821Z</time>
      </trkpt>
      <trkpt lat="42.92372667" lon="0.20437167">
        <ele>1346.0</ele>
        <time>2019-07-07T07:05:21.820Z</time>
      </trkpt>
      <trkpt lat="42.92372667" lon="0.20437167">
        <ele>1346.0</ele>
        <time>2019-07-07T07:05:22.819Z</time>
      </trkpt>
      <trkpt lat="42.92370333" lon="0.20442833">
        <ele>1347.0</ele>
        <time>2019-07-07T07:05:23.825Z</time>
      </trkpt>
      <trkpt lat="42.92370333" lon="0.20442833">
        <ele>1347.0</ele>
        <time>2019-07-07T07:05:24.804Z</time>
      </trkpt>
      <trkpt lat="42.92372667" lon="0.20448667">
        <ele>1347.0</ele>
        <time>2019-07-07T07:05:25.807Z</time>
      </trkpt>
      <trkpt lat="42.92370667" lon="0.20451333">
        <ele>1347.0</ele>
        <time>2019-07-07T07:05:26.807Z</time>
      </trkpt>
      <trkpt lat="42.92370667" lon="0.20451333">
        <ele>1347.0</ele>
        <time>2019-07-07T07:05:27.813Z</time>
      </trkpt>
      <trkpt lat="42.92366833" lon="0.20456333">
        <ele>1348.0</ele>
        <time>2019-07-07T07:05:28.826Z</time>
      </trkpt>
      <trkpt lat="42.92366833" lon="0.20456333">
        <ele>1348.0</ele>
        <time>2019-07-07T07:05:29.817Z</time>
      </trkpt>
      <trkpt lat="42.923625" lon="0.204605">
        <ele>1348.0</ele>
        <time>2019-07-07T07:05:30.825Z</time>
      </trkpt>
      <trkpt lat="42.923605" lon="0.20462667">
        <ele>1349.0</ele>
        <time>2019-07-07T07:05:31.840Z</time>
      </trkpt>
      <trkpt lat="42.923605" lon="0.20462667">
        <ele>1349.0</ele>
        <time>2019-07-07T07:05:32.808Z</time>
      </trkpt>
      <trkpt lat="42.92355833" lon="0.20468167">
        <ele>1349.0</ele>
        <time>2019-07-07T07:05:33.820Z</time>
      </trkpt>
      <trkpt lat="42.92354333" lon="0.20470333">
        <ele>1349.0</ele>
        <time>2019-07-07T07:05:34.808Z</time>
      </trkpt>
      <trkpt lat="42.92354333" lon="0.20470333">
        <ele>1349.0</ele>
        <time>2019-07-07T07:05:35.806Z</time>
      </trkpt>
      <trkpt lat="42.923505" lon="0.20474167">
        <ele>1350.0</ele>
        <time>2019-07-07T07:05:36.812Z</time>
      </trkpt>
      <trkpt lat="42.923505" lon="0.20474167">
        <ele>1350.0</ele>
        <time>2019-07-07T07:05:37.820Z</time>
      </trkpt>
      <trkpt lat="42.92348833" lon="0.20477667">
        <ele>1350.0</ele>
        <time>2019-07-07T07:05:38.827Z</time>
      </trkpt>
      <trkpt lat="42.92348833" lon="0.20477667">
        <ele>1350.0</ele>
        <time>2019-07-07T07:05:39.807Z</time>
      </trkpt>
      <trkpt lat="42.92345" lon="0.20482833">
        <ele>1351.0</ele>
        <time>2019-07-07T07:05:40.813Z</time>
      </trkpt>
      <trkpt lat="42.923435" lon="0.20484833">
        <ele>1351.0</ele>
        <time>2019-07-07T07:05:41.812Z</time>
      </trkpt>
      <trkpt lat="42.923435" lon="0.20484833">
        <ele>1351.0</ele>
        <time>2019-07-07T07:05:42.807Z</time>
      </trkpt>
      <trkpt lat="42.92340167" lon="0.20490167">
        <ele>1351.0</ele>
        <time>2019-07-07T07:05:43.813Z</time>
      </trkpt>
      <trkpt lat="42.92339333" lon="0.20492167">
        <ele>1351.0</ele>
        <time>2019-07-07T07:05:44.837Z</time>
      </trkpt>
      <trkpt lat="42.92339333" lon="0.20492167">
        <ele>1351.0</ele>
        <time>2019-07-07T07:05:45.838Z</time>
      </trkpt>
      <trkpt lat="42.923375" lon="0.20498167">
        <ele>1351.0</ele>
        <time>2019-07-07T07:05:46.806Z</time>
      </trkpt>
      <trkpt lat="42.92336667" lon="0.20501">
        <ele>1351.0</ele>
        <time>2019-07-07T07:05:47.823Z</time>
      </trkpt>
      <trkpt lat="42.92336667" lon="0.20501">
        <ele>1351.0</ele>
        <time>2019-07-07T07:05:48.812Z</time>
      </trkpt>
      <trkpt lat="42.92334" lon="0.20506333">
        <ele>1351.0</ele>
        <time>2019-07-07T07:05:49.815Z</time>
      </trkpt>
      <trkpt lat="42.92332667" lon="0.20508833">
        <ele>1351.0</ele>
        <time>2019-07-07T07:05:50.832Z</time>
      </trkpt>
      <trkpt lat="42.92331333" lon="0.205115">
        <ele>1351.0</ele>
        <time>2019-07-07T07:05:51.807Z</time>
      </trkpt>
      <trkpt lat="42.92331333" lon="0.205115">
        <ele>1351.0</ele>
        <time>2019-07-07T07:05:52.821Z</time>
      </trkpt>
      <trkpt lat="42.92328333" lon="0.20517667">
        <ele>1351.0</ele>
        <time>2019-07-07T07:05:53.827Z</time>
      </trkpt>
      <trkpt lat="42.92328333" lon="0.20517667">
        <ele>1351.0</ele>
        <time>2019-07-07T07:05:54.806Z</time>
      </trkpt>
      <trkpt lat="42.92324667" lon="0.20523333">
        <ele>1351.0</ele>
        <time>2019-07-07T07:05:55.818Z</time>
      </trkpt>
      <trkpt lat="42.92324667" lon="0.20523333">
        <ele>1351.0</ele>
        <time>2019-07-07T07:05:56.835Z</time>
      </trkpt>
      <trkpt lat="42.92320167" lon="0.205295">
        <ele>1351.0</ele>
        <time>2019-07-07T07:05:57.803Z</time>
      </trkpt>
      <trkpt lat="42.92317167" lon="0.20532">
        <ele>1351.0</ele>
        <time>2019-07-07T07:05:58.824Z</time>
      </trkpt>
      <trkpt lat="42.92317167" lon="0.20532">
        <ele>1351.0</ele>
        <time>2019-07-07T07:05:59.834Z</time>
      </trkpt>
      <trkpt lat="42.923125" lon="0.205375">
        <ele>1351.0</ele>
        <time>2019-07-07T07:06:00.841Z</time>
      </trkpt>
      <trkpt lat="42.92310667" lon="0.20540167">
        <ele>1351.0</ele>
        <time>2019-07-07T07:06:01.808Z</time>
      </trkpt>
      <trkpt lat="42.92310667" lon="0.20540167">
        <ele>1351.0</ele>
        <time>2019-07-07T07:06:02.838Z</time>
      </trkpt>
      <trkpt lat="42.92303333" lon="0.205465">
        <ele>1351.0</ele>
        <time>2019-07-07T07:06:03.804Z</time>
      </trkpt>
      <trkpt lat="42.92300667" lon="0.20549333">
        <ele>1351.0</ele>
        <time>2019-07-07T07:06:04.825Z</time>
      </trkpt>
      <trkpt lat="42.92300667" lon="0.20549333">
        <ele>1351.0</ele>
        <time>2019-07-07T07:06:05.829Z</time>
      </trkpt>
      <trkpt lat="42.92294833" lon="0.20554">
        <ele>1351.0</ele>
        <time>2019-07-07T07:06:06.840Z</time>
      </trkpt>
      <trkpt lat="42.92294833" lon="0.20554">
        <ele>1351.0</ele>
        <time>2019-07-07T07:06:07.819Z</time>
      </trkpt>
      <trkpt lat="42.92290667" lon="0.20559333">
        <ele>1352.0</ele>
        <time>2019-07-07T07:06:08.839Z</time>
      </trkpt>
      <trkpt lat="42.92290667" lon="0.20559333">
        <ele>1352.0</ele>
        <time>2019-07-07T07:06:09.829Z</time>
      </trkpt>
      <trkpt lat="42.92286667" lon="0.205645">
        <ele>1352.0</ele>
        <time>2019-07-07T07:06:10.837Z</time>
      </trkpt>
      <trkpt lat="42.92286667" lon="0.205645">
        <ele>1352.0</ele>
        <time>2019-07-07T07:06:11.804Z</time>
      </trkpt>
      <trkpt lat="42.92282167" lon="0.20568333">
        <ele>1352.0</ele>
        <time>2019-07-07T07:06:12.825Z</time>
      </trkpt>
      <trkpt lat="42.92282167" lon="0.20568333">
        <ele>1352.0</ele>
        <time>2019-07-07T07:06:13.838Z</time>
      </trkpt>
      <trkpt lat="42.922775" lon="0.20572333">
        <ele>1353.0</ele>
        <time>2019-07-07T07:06:14.807Z</time>
      </trkpt>
      <trkpt lat="42.922775" lon="0.20572333">
        <ele>1353.0</ele>
        <time>2019-07-07T07:06:15.821Z</time>
      </trkpt>
      <trkpt lat="42.922725" lon="0.20575333">
        <ele>1353.0</ele>
        <time>2019-07-07T07:06:16.825Z</time>
      </trkpt>
      <trkpt lat="42.922725" lon="0.20575333">
        <ele>1353.0</ele>
        <time>2019-07-07T07:06:17.801Z</time>
      </trkpt>
      <trkpt lat="42.92267833" lon="0.20577667">
        <ele>1354.0</ele>
        <time>2019-07-07T07:06:18.808Z</time>
      </trkpt>
      <trkpt lat="42.922655" lon="0.20578667">
        <ele>1354.0</ele>
        <time>2019-07-07T07:06:19.835Z</time>
      </trkpt>
      <trkpt lat="42.922655" lon="0.20578667">
        <ele>1354.0</ele>
        <time>2019-07-07T07:06:20.840Z</time>
      </trkpt>
      <trkpt lat="42.922605" lon="0.20580333">
        <ele>1354.0</ele>
        <time>2019-07-07T07:06:21.812Z</time>
      </trkpt>
      <trkpt lat="42.922605" lon="0.20580333">
        <ele>1354.0</ele>
        <time>2019-07-07T07:06:22.825Z</time>
      </trkpt>
      <trkpt lat="42.92256" lon="0.20581833">
        <ele>1355.0</ele>
        <time>2019-07-07T07:06:23.830Z</time>
      </trkpt>
      <trkpt lat="42.92256" lon="0.20581833">
        <ele>1355.0</ele>
        <time>2019-07-07T07:06:24.816Z</time>
      </trkpt>
      <trkpt lat="42.92251333" lon="0.20583">
        <ele>1356.0</ele>
        <time>2019-07-07T07:06:25.823Z</time>
      </trkpt>
      <trkpt lat="42.92251333" lon="0.20583">
        <ele>1356.0</ele>
        <time>2019-07-07T07:06:26.805Z</time>
      </trkpt>
      <trkpt lat="42.92246167" lon="0.205845">
        <ele>1357.0</ele>
        <time>2019-07-07T07:06:27.825Z</time>
      </trkpt>
      <trkpt lat="42.92246167" lon="0.205845">
        <ele>1357.0</ele>
        <time>2019-07-07T07:06:28.802Z</time>
      </trkpt>
      <trkpt lat="42.92241" lon="0.20586833">
        <ele>1357.0</ele>
        <time>2019-07-07T07:06:29.816Z</time>
      </trkpt>
      <trkpt lat="42.922385" lon="0.20587833">
        <ele>1358.0</ele>
        <time>2019-07-07T07:06:30.837Z</time>
      </trkpt>
      <trkpt lat="42.922385" lon="0.20587833">
        <ele>1358.0</ele>
        <time>2019-07-07T07:06:31.801Z</time>
      </trkpt>
      <trkpt lat="42.92233667" lon="0.20589667">
        <ele>1358.0</ele>
        <time>2019-07-07T07:06:32.807Z</time>
      </trkpt>
      <trkpt lat="42.92233667" lon="0.20589667">
        <ele>1358.0</ele>
        <time>2019-07-07T07:06:33.824Z</time>
      </trkpt>
      <trkpt lat="42.92228833" lon="0.20591833">
        <ele>1359.0</ele>
        <time>2019-07-07T07:06:34.837Z</time>
      </trkpt>
      <trkpt lat="42.92228833" lon="0.20591833">
        <ele>1359.0</ele>
        <time>2019-07-07T07:06:35.817Z</time>
      </trkpt>
      <trkpt lat="42.92224" lon="0.20594833">
        <ele>1359.0</ele>
        <time>2019-07-07T07:06:36.823Z</time>
      </trkpt>
      <trkpt lat="42.92221667" lon="0.20596333">
        <ele>1360.0</ele>
        <time>2019-07-07T07:06:37.837Z</time>
      </trkpt>
      <trkpt lat="42.92221667" lon="0.20596333">
        <ele>1360.0</ele>
        <time>2019-07-07T07:06:38.805Z</time>
      </trkpt>
      <trkpt lat="42.92217167" lon="0.20599667">
        <ele>1360.0</ele>
        <time>2019-07-07T07:06:39.812Z</time>
      </trkpt>
      <trkpt lat="42.92215" lon="0.20601667">
        <ele>1360.0</ele>
        <time>2019-07-07T07:06:40.837Z</time>
      </trkpt>
      <trkpt lat="42.92213" lon="0.20603667">
        <ele>1360.0</ele>
        <time>2019-07-07T07:06:41.810Z</time>
      </trkpt>
      <trkpt lat="42.92213" lon="0.20603667">
        <ele>1360.0</ele>
        <time>2019-07-07T07:06:42.816Z</time>
      </trkpt>
      <trkpt lat="42.92209" lon="0.20608167">
        <ele>1361.0</ele>
        <time>2019-07-07T07:06:43.823Z</time>
      </trkpt>
      <trkpt lat="42.92207" lon="0.20610333">
        <ele>1361.0</ele>
        <time>2019-07-07T07:06:44.821Z</time>
      </trkpt>
      <trkpt lat="42.92207" lon="0.20610333">
        <ele>1361.0</ele>
        <time>2019-07-07T07:06:45.805Z</time>
      </trkpt>
      <trkpt lat="42.92203167" lon="0.20615">
        <ele>1362.0</ele>
        <time>2019-07-07T07:06:46.817Z</time>
      </trkpt>
      <trkpt lat="42.92203167" lon="0.20615">
        <ele>1362.0</ele>
        <time>2019-07-07T07:06:47.812Z</time>
      </trkpt>
      <trkpt lat="42.92199" lon="0.206195">
        <ele>1362.0</ele>
        <time>2019-07-07T07:06:48.820Z</time>
      </trkpt>
      <trkpt lat="42.92196833" lon="0.20621833">
        <ele>1362.0</ele>
        <time>2019-07-07T07:06:49.812Z</time>
      </trkpt>
      <trkpt lat="42.92196833" lon="0.20621833">
        <ele>1362.0</ele>
        <time>2019-07-07T07:06:50.807Z</time>
      </trkpt>
      <trkpt lat="42.92192833" lon="0.20626667">
        <ele>1363.0</ele>
        <time>2019-07-07T07:06:51.836Z</time>
      </trkpt>
      <trkpt lat="42.92191" lon="0.20629167">
        <ele>1363.0</ele>
        <time>2019-07-07T07:06:52.810Z</time>
      </trkpt>
      <trkpt lat="42.92191" lon="0.20629167">
        <ele>1363.0</ele>
        <time>2019-07-07T07:06:53.816Z</time>
      </trkpt>
      <trkpt lat="42.92187667" lon="0.20633833">
        <ele>1363.0</ele>
        <time>2019-07-07T07:06:54.822Z</time>
      </trkpt>
      <trkpt lat="42.92185667" lon="0.20636">
        <ele>1363.0</ele>
        <time>2019-07-07T07:06:55.824Z</time>
      </trkpt>
      <trkpt lat="42.92185667" lon="0.20636">
        <ele>1363.0</ele>
        <time>2019-07-07T07:06:56.819Z</time>
      </trkpt>
      <trkpt lat="42.921815" lon="0.20640333">
        <ele>1364.0</ele>
        <time>2019-07-07T07:06:57.825Z</time>
      </trkpt>
      <trkpt lat="42.92179333" lon="0.20642833">
        <ele>1364.0</ele>
        <time>2019-07-07T07:06:58.812Z</time>
      </trkpt>
      <trkpt lat="42.92178333" lon="0.20645">
        <ele>1364.0</ele>
        <time>2019-07-07T07:06:59.820Z</time>
      </trkpt>
      <trkpt lat="42.92178333" lon="0.20645">
        <ele>1364.0</ele>
        <time>2019-07-07T07:07:00.837Z</time>
      </trkpt>
      <trkpt lat="42.92174167" lon="0.20649333">
        <ele>1365.0</ele>
        <time>2019-07-07T07:07:01.815Z</time>
      </trkpt>
      <trkpt lat="42.92174167" lon="0.20649333">
        <ele>1365.0</ele>
        <time>2019-07-07T07:07:02.806Z</time>
      </trkpt>
      <trkpt lat="42.921695" lon="0.20653333">
        <ele>1365.0</ele>
        <time>2019-07-07T07:07:03.826Z</time>
      </trkpt>
      <trkpt lat="42.921695" lon="0.20653333">
        <ele>1365.0</ele>
        <time>2019-07-07T07:07:04.830Z</time>
      </trkpt>
      <trkpt lat="42.92164" lon="0.20656833">
        <ele>1366.0</ele>
        <time>2019-07-07T07:07:05.801Z</time>
      </trkpt>
      <trkpt lat="42.92164" lon="0.20656833">
        <ele>1366.0</ele>
        <time>2019-07-07T07:07:06.814Z</time>
      </trkpt>
      <trkpt lat="42.92159333" lon="0.20659667">
        <ele>1366.0</ele>
        <time>2019-07-07T07:07:07.827Z</time>
      </trkpt>
      <trkpt lat="42.92159333" lon="0.20659667">
        <ele>1366.0</ele>
        <time>2019-07-07T07:07:08.814Z</time>
      </trkpt>
      <trkpt lat="42.92155" lon="0.20662833">
        <ele>1367.0</ele>
        <time>2019-07-07T07:07:09.819Z</time>
      </trkpt>
      <trkpt lat="42.921525" lon="0.20664167">
        <ele>1367.0</ele>
        <time>2019-07-07T07:07:10.833Z</time>
      </trkpt>
      <trkpt lat="42.921525" lon="0.20664167">
        <ele>1367.0</ele>
        <time>2019-07-07T07:07:11.827Z</time>
      </trkpt>
      <trkpt lat="42.92147833" lon="0.20666333">
        <ele>1367.0</ele>
        <time>2019-07-07T07:07:12.840Z</time>
      </trkpt>
      <trkpt lat="42.92147833" lon="0.20666333">
        <ele>1367.0</ele>
        <time>2019-07-07T07:07:13.805Z</time>
      </trkpt>
      <trkpt lat="42.92143833" lon="0.20668667">
        <ele>1368.0</ele>
        <time>2019-07-07T07:07:14.834Z</time>
      </trkpt>
      <trkpt lat="42.92143833" lon="0.20668667">
        <ele>1368.0</ele>
        <time>2019-07-07T07:07:15.840Z</time>
      </trkpt>
      <trkpt lat="42.9214" lon="0.20671167">
        <ele>1368.0</ele>
        <time>2019-07-07T07:07:16.810Z</time>
      </trkpt>
      <trkpt lat="42.9214" lon="0.20671167">
        <ele>1368.0</ele>
        <time>2019-07-07T07:07:17.822Z</time>
      </trkpt>
      <trkpt lat="42.92135333" lon="0.206735">
        <ele>1368.0</ele>
        <time>2019-07-07T07:07:18.827Z</time>
      </trkpt>
      <trkpt lat="42.92135333" lon="0.206735">
        <ele>1368.0</ele>
        <time>2019-07-07T07:07:19.809Z</time>
      </trkpt>
      <trkpt lat="42.92130333" lon="0.20675667">
        <ele>1369.0</ele>
        <time>2019-07-07T07:07:20.815Z</time>
      </trkpt>
      <trkpt lat="42.92127833" lon="0.20677167">
        <ele>1369.0</ele>
        <time>2019-07-07T07:07:21.826Z</time>
      </trkpt>
      <trkpt lat="42.92127833" lon="0.20677167">
        <ele>1369.0</ele>
        <time>2019-07-07T07:07:22.805Z</time>
      </trkpt>
      <trkpt lat="42.92122833" lon="0.20679667">
        <ele>1369.0</ele>
        <time>2019-07-07T07:07:23.832Z</time>
      </trkpt>
      <trkpt lat="42.92122833" lon="0.20679667">
        <ele>1369.0</ele>
        <time>2019-07-07T07:07:24.820Z</time>
      </trkpt>
      <trkpt lat="42.92117833" lon="0.20682">
        <ele>1369.0</ele>
        <time>2019-07-07T07:07:25.827Z</time>
      </trkpt>
      <trkpt lat="42.92117833" lon="0.20682">
        <ele>1369.0</ele>
        <time>2019-07-07T07:07:26.801Z</time>
      </trkpt>
      <trkpt lat="42.92113" lon="0.20685">
        <ele>1369.0</ele>
        <time>2019-07-07T07:07:27.823Z</time>
      </trkpt>
      <trkpt lat="42.92113" lon="0.20685">
        <ele>1369.0</ele>
        <time>2019-07-07T07:07:28.829Z</time>
      </trkpt>
      <trkpt lat="42.92108333" lon="0.20686333">
        <ele>1370.0</ele>
        <time>2019-07-07T07:07:29.838Z</time>
      </trkpt>
      <trkpt lat="42.92106" lon="0.206875">
        <ele>1370.0</ele>
        <time>2019-07-07T07:07:30.837Z</time>
      </trkpt>
      <trkpt lat="42.921035" lon="0.20689">
        <ele>1370.0</ele>
        <time>2019-07-07T07:07:31.835Z</time>
      </trkpt>
      <trkpt lat="42.921035" lon="0.20689">
        <ele>1370.0</ele>
        <time>2019-07-07T07:07:32.811Z</time>
      </trkpt>
      <trkpt lat="42.92099833" lon="0.20691">
        <ele>1370.0</ele>
        <time>2019-07-07T07:07:33.827Z</time>
      </trkpt>
      <trkpt lat="42.92097333" lon="0.20691667">
        <ele>1370.0</ele>
        <time>2019-07-07T07:07:34.820Z</time>
      </trkpt>
      <trkpt lat="42.92097333" lon="0.20691667">
        <ele>1370.0</ele>
        <time>2019-07-07T07:07:35.802Z</time>
      </trkpt>
      <trkpt lat="42.92093667" lon="0.20694167">
        <ele>1370.0</ele>
        <time>2019-07-07T07:07:36.837Z</time>
      </trkpt>
      <trkpt lat="42.92091833" lon="0.206955">
        <ele>1370.0</ele>
        <time>2019-07-07T07:07:37.837Z</time>
      </trkpt>
      <trkpt lat="42.92091833" lon="0.206955">
        <ele>1370.0</ele>
        <time>2019-07-07T07:07:38.806Z</time>
      </trkpt>
      <trkpt lat="42.92087667" lon="0.20697333">
        <ele>1371.0</ele>
        <time>2019-07-07T07:07:39.826Z</time>
      </trkpt>
      <trkpt lat="42.92086167" lon="0.20697667">
        <ele>1371.0</ele>
        <time>2019-07-07T07:07:40.807Z</time>
      </trkpt>
      <trkpt lat="42.92086167" lon="0.20697667">
        <ele>1371.0</ele>
        <time>2019-07-07T07:07:41.822Z</time>
      </trkpt>
      <trkpt lat="42.92082" lon="0.20701">
        <ele>1371.0</ele>
        <time>2019-07-07T07:07:42.839Z</time>
      </trkpt>
      <trkpt lat="42.92079667" lon="0.20701667">
        <ele>1371.0</ele>
        <time>2019-07-07T07:07:43.808Z</time>
      </trkpt>
      <trkpt lat="42.92079667" lon="0.20701667">
        <ele>1371.0</ele>
        <time>2019-07-07T07:07:44.817Z</time>
      </trkpt>
      <trkpt lat="42.92075" lon="0.20703667">
        <ele>1371.0</ele>
        <time>2019-07-07T07:07:45.836Z</time>
      </trkpt>
      <trkpt lat="42.92073" lon="0.20705167">
        <ele>1371.0</ele>
        <time>2019-07-07T07:07:46.815Z</time>
      </trkpt>
      <trkpt lat="42.92073" lon="0.20705167">
        <ele>1371.0</ele>
        <time>2019-07-07T07:07:47.825Z</time>
      </trkpt>
      <trkpt lat="42.92067667" lon="0.207085">
        <ele>1372.0</ele>
        <time>2019-07-07T07:07:48.839Z</time>
      </trkpt>
      <trkpt lat="42.920655" lon="0.207095">
        <ele>1372.0</ele>
        <time>2019-07-07T07:07:49.808Z</time>
      </trkpt>
      <trkpt lat="42.920655" lon="0.207095">
        <ele>1372.0</ele>
        <time>2019-07-07T07:07:50.815Z</time>
      </trkpt>
      <trkpt lat="42.92060167" lon="0.20713">
        <ele>1373.0</ele>
        <time>2019-07-07T07:07:51.825Z</time>
      </trkpt>
      <trkpt lat="42.92060167" lon="0.20713">
        <ele>1373.0</ele>
        <time>2019-07-07T07:07:52.840Z</time>
      </trkpt>
      <trkpt lat="42.920555" lon="0.20716667">
        <ele>1373.0</ele>
        <time>2019-07-07T07:07:53.807Z</time>
      </trkpt>
      <trkpt lat="42.92053667" lon="0.20718333">
        <ele>1373.0</ele>
        <time>2019-07-07T07:07:54.835Z</time>
      </trkpt>
      <trkpt lat="42.92053667" lon="0.20718333">
        <ele>1373.0</ele>
        <time>2019-07-07T07:07:55.830Z</time>
      </trkpt>
      <trkpt lat="42.92049667" lon="0.20721667">
        <ele>1373.0</ele>
        <time>2019-07-07T07:07:56.803Z</time>
      </trkpt>
      <trkpt lat="42.92049667" lon="0.20721667">
        <ele>1373.0</ele>
        <time>2019-07-07T07:07:57.811Z</time>
      </trkpt>
      <trkpt lat="42.92046833" lon="0.20725667">
        <ele>1373.0</ele>
        <time>2019-07-07T07:07:58.837Z</time>
      </trkpt>
      <trkpt lat="42.92044167" lon="0.20728">
        <ele>1373.0</ele>
        <time>2019-07-07T07:07:59.807Z</time>
      </trkpt>
      <trkpt lat="42.92044167" lon="0.20728">
        <ele>1373.0</ele>
        <time>2019-07-07T07:08:00.821Z</time>
      </trkpt>
      <trkpt lat="42.92041" lon="0.20734">
        <ele>1373.0</ele>
        <time>2019-07-07T07:08:01.837Z</time>
      </trkpt>
      <trkpt lat="42.92041" lon="0.20734">
        <ele>1373.0</ele>
        <time>2019-07-07T07:08:02.827Z</time>
      </trkpt>
      <trkpt lat="42.92036167" lon="0.20738">
        <ele>1373.0</ele>
        <time>2019-07-07T07:08:03.837Z</time>
      </trkpt>
      <trkpt lat="42.92034" lon="0.20740333">
        <ele>1373.0</ele>
        <time>2019-07-07T07:08:04.810Z</time>
      </trkpt>
      <trkpt lat="42.920325" lon="0.20741667">
        <ele>1373.0</ele>
        <time>2019-07-07T07:08:05.828Z</time>
      </trkpt>
      <trkpt lat="42.920325" lon="0.20741667">
        <ele>1373.0</ele>
        <time>2019-07-07T07:08:06.839Z</time>
      </trkpt>
      <trkpt lat="42.92027833" lon="0.20744333">
        <ele>1373.0</ele>
        <time>2019-07-07T07:08:07.822Z</time>
      </trkpt>
      <trkpt lat="42.92025667" lon="0.20745833">
        <ele>1373.0</ele>
        <time>2019-07-07T07:08:08.808Z</time>
      </trkpt>
      <trkpt lat="42.92025667" lon="0.20745833">
        <ele>1373.0</ele>
        <time>2019-07-07T07:08:09.817Z</time>
      </trkpt>
      <trkpt lat="42.92021167" lon="0.2075">
        <ele>1373.0</ele>
        <time>2019-07-07T07:08:10.807Z</time>
      </trkpt>
      <trkpt lat="42.92021167" lon="0.2075">
        <ele>1373.0</ele>
        <time>2019-07-07T07:08:11.805Z</time>
      </trkpt>
      <trkpt lat="42.920165" lon="0.20753333">
        <ele>1373.0</ele>
        <time>2019-07-07T07:08:12.811Z</time>
      </trkpt>
      <trkpt lat="42.920165" lon="0.20753333">
        <ele>1373.0</ele>
        <time>2019-07-07T07:08:13.817Z</time>
      </trkpt>
      <trkpt lat="42.92011167" lon="0.20756">
        <ele>1373.0</ele>
        <time>2019-07-07T07:08:14.836Z</time>
      </trkpt>
      <trkpt lat="42.92011167" lon="0.20756">
        <ele>1373.0</ele>
        <time>2019-07-07T07:08:15.840Z</time>
      </trkpt>
      <trkpt lat="42.92006833" lon="0.20759667">
        <ele>1373.0</ele>
        <time>2019-07-07T07:08:16.806Z</time>
      </trkpt>
      <trkpt lat="42.92004833" lon="0.20761833">
        <ele>1373.0</ele>
        <time>2019-07-07T07:08:17.823Z</time>
      </trkpt>
      <trkpt lat="42.92004833" lon="0.20761833">
        <ele>1373.0</ele>
        <time>2019-07-07T07:08:18.802Z</time>
      </trkpt>
      <trkpt lat="42.92000833" lon="0.20765333">
        <ele>1373.0</ele>
        <time>2019-07-07T07:08:19.808Z</time>
      </trkpt>
      <trkpt lat="42.92000833" lon="0.20765333">
        <ele>1373.0</ele>
        <time>2019-07-07T07:08:20.822Z</time>
      </trkpt>
      <trkpt lat="42.919965" lon="0.207685">
        <ele>1373.0</ele>
        <time>2019-07-07T07:08:21.847Z</time>
      </trkpt>
      <trkpt lat="42.919965" lon="0.207685">
        <ele>1373.0</ele>
        <time>2019-07-07T07:08:22.815Z</time>
      </trkpt>
      <trkpt lat="42.91992167" lon="0.20771833">
        <ele>1373.0</ele>
        <time>2019-07-07T07:08:23.823Z</time>
      </trkpt>
      <trkpt lat="42.919905" lon="0.20773333">
        <ele>1373.0</ele>
        <time>2019-07-07T07:08:24.825Z</time>
      </trkpt>
      <trkpt lat="42.919905" lon="0.20773333">
        <ele>1373.0</ele>
        <time>2019-07-07T07:08:25.833Z</time>
      </trkpt>
      <trkpt lat="42.919875" lon="0.20776833">
        <ele>1373.0</ele>
        <time>2019-07-07T07:08:26.803Z</time>
      </trkpt>
      <trkpt lat="42.919875" lon="0.20776833">
        <ele>1373.0</ele>
        <time>2019-07-07T07:08:27.820Z</time>
      </trkpt>
      <trkpt lat="42.91983167" lon="0.20779833">
        <ele>1373.0</ele>
        <time>2019-07-07T07:08:28.821Z</time>
      </trkpt>
      <trkpt lat="42.91983167" lon="0.20779833">
        <ele>1373.0</ele>
        <time>2019-07-07T07:08:29.802Z</time>
      </trkpt>
      <trkpt lat="42.91979333" lon="0.20783">
        <ele>1373.0</ele>
        <time>2019-07-07T07:08:30.817Z</time>
      </trkpt>
      <trkpt lat="42.91979333" lon="0.20783">
        <ele>1373.0</ele>
        <time>2019-07-07T07:08:31.823Z</time>
      </trkpt>
      <trkpt lat="42.91974667" lon="0.20785833">
        <ele>1373.0</ele>
        <time>2019-07-07T07:08:32.824Z</time>
      </trkpt>
      <trkpt lat="42.91974667" lon="0.20785833">
        <ele>1373.0</ele>
        <time>2019-07-07T07:08:33.830Z</time>
      </trkpt>
      <trkpt lat="42.91970333" lon="0.20788833">
        <ele>1374.0</ele>
        <time>2019-07-07T07:08:34.836Z</time>
      </trkpt>
      <trkpt lat="42.91970333" lon="0.20788833">
        <ele>1374.0</ele>
        <time>2019-07-07T07:08:35.814Z</time>
      </trkpt>
      <trkpt lat="42.91965667" lon="0.20792167">
        <ele>1374.0</ele>
        <time>2019-07-07T07:08:36.838Z</time>
      </trkpt>
      <trkpt lat="42.91965667" lon="0.20792167">
        <ele>1374.0</ele>
        <time>2019-07-07T07:08:37.837Z</time>
      </trkpt>
      <trkpt lat="42.91961333" lon="0.20794667">
        <ele>1374.0</ele>
        <time>2019-07-07T07:08:38.804Z</time>
      </trkpt>
      <trkpt lat="42.91961333" lon="0.20794667">
        <ele>1374.0</ele>
        <time>2019-07-07T07:08:39.818Z</time>
      </trkpt>
      <trkpt lat="42.91957333" lon="0.20797">
        <ele>1374.0</ele>
        <time>2019-07-07T07:08:40.821Z</time>
      </trkpt>
      <trkpt lat="42.91957333" lon="0.20797">
        <ele>1374.0</ele>
        <time>2019-07-07T07:08:41.824Z</time>
      </trkpt>
      <trkpt lat="42.91951667" lon="0.208005">
        <ele>1373.0</ele>
        <time>2019-07-07T07:08:42.829Z</time>
      </trkpt>
      <trkpt lat="42.91949167" lon="0.208025">
        <ele>1373.0</ele>
        <time>2019-07-07T07:08:43.803Z</time>
      </trkpt>
      <trkpt lat="42.91949167" lon="0.208025">
        <ele>1373.0</ele>
        <time>2019-07-07T07:08:44.818Z</time>
      </trkpt>
      <trkpt lat="42.91945833" lon="0.208055">
        <ele>1373.0</ele>
        <time>2019-07-07T07:08:45.826Z</time>
      </trkpt>
      <trkpt lat="42.91944" lon="0.20807333">
        <ele>1373.0</ele>
        <time>2019-07-07T07:08:46.802Z</time>
      </trkpt>
      <trkpt lat="42.91944" lon="0.20807333">
        <ele>1373.0</ele>
        <time>2019-07-07T07:08:47.829Z</time>
      </trkpt>
      <trkpt lat="42.919405" lon="0.2081">
        <ele>1374.0</ele>
        <time>2019-07-07T07:08:48.839Z</time>
      </trkpt>
      <trkpt lat="42.91939" lon="0.20811167">
        <ele>1374.0</ele>
        <time>2019-07-07T07:08:49.833Z</time>
      </trkpt>
      <trkpt lat="42.91939" lon="0.20811167">
        <ele>1374.0</ele>
        <time>2019-07-07T07:08:50.840Z</time>
      </trkpt>
      <trkpt lat="42.91935333" lon="0.20814">
        <ele>1373.0</ele>
        <time>2019-07-07T07:08:51.823Z</time>
      </trkpt>
      <trkpt lat="42.91934" lon="0.20815">
        <ele>1373.0</ele>
        <time>2019-07-07T07:08:52.837Z</time>
      </trkpt>
      <trkpt lat="42.91934" lon="0.20815">
        <ele>1373.0</ele>
        <time>2019-07-07T07:08:53.828Z</time>
      </trkpt>
      <trkpt lat="42.919315" lon="0.20816333">
        <ele>1373.0</ele>
        <time>2019-07-07T07:08:54.838Z</time>
      </trkpt>
      <trkpt lat="42.919315" lon="0.20816333">
        <ele>1373.0</ele>
        <time>2019-07-07T07:08:55.807Z</time>
      </trkpt>
      <trkpt lat="42.91929333" lon="0.20818167">
        <ele>1373.0</ele>
        <time>2019-07-07T07:08:56.805Z</time>
      </trkpt>
      <trkpt lat="42.91929333" lon="0.20818167">
        <ele>1373.0</ele>
        <time>2019-07-07T07:08:57.812Z</time>
      </trkpt>
      <trkpt lat="42.919245" lon="0.20822333">
        <ele>1372.0</ele>
        <time>2019-07-07T07:08:58.819Z</time>
      </trkpt>
      <trkpt lat="42.919245" lon="0.20822333">
        <ele>1372.0</ele>
        <time>2019-07-07T07:08:59.805Z</time>
      </trkpt>
      <trkpt lat="42.919195" lon="0.20825833">
        <ele>1372.0</ele>
        <time>2019-07-07T07:09:00.838Z</time>
      </trkpt>
      <trkpt lat="42.91916667" lon="0.20827333">
        <ele>1372.0</ele>
        <time>2019-07-07T07:09:01.820Z</time>
      </trkpt>
      <trkpt lat="42.91916667" lon="0.20827333">
        <ele>1372.0</ele>
        <time>2019-07-07T07:09:02.840Z</time>
      </trkpt>
      <trkpt lat="42.91909167" lon="0.20833167">
        <ele>1373.0</ele>
        <time>2019-07-07T07:09:03.816Z</time>
      </trkpt>
      <trkpt lat="42.91907167" lon="0.20833833">
        <ele>1373.0</ele>
        <time>2019-07-07T07:09:04.811Z</time>
      </trkpt>
      <trkpt lat="42.91907167" lon="0.20833833">
        <ele>1373.0</ele>
        <time>2019-07-07T07:09:05.818Z</time>
      </trkpt>
      <trkpt lat="42.91902333" lon="0.20836333">
        <ele>1372.0</ele>
        <time>2019-07-07T07:09:06.825Z</time>
      </trkpt>
      <trkpt lat="42.91902333" lon="0.20836333">
        <ele>1372.0</ele>
        <time>2019-07-07T07:09:07.820Z</time>
      </trkpt>
      <trkpt lat="42.91898167" lon="0.20839167">
        <ele>1371.0</ele>
        <time>2019-07-07T07:09:08.826Z</time>
      </trkpt>
      <trkpt lat="42.91895667" lon="0.20840167">
        <ele>1371.0</ele>
        <time>2019-07-07T07:09:09.839Z</time>
      </trkpt>
      <trkpt lat="42.91893333" lon="0.20840833">
        <ele>1371.0</ele>
        <time>2019-07-07T07:09:10.830Z</time>
      </trkpt>
      <trkpt lat="42.91893333" lon="0.20840833">
        <ele>1371.0</ele>
        <time>2019-07-07T07:09:11.802Z</time>
      </trkpt>
      <trkpt lat="42.91888" lon="0.20840833">
        <ele>1371.0</ele>
        <time>2019-07-07T07:09:12.809Z</time>
      </trkpt>
      <trkpt lat="42.91888" lon="0.20840833">
        <ele>1371.0</ele>
        <time>2019-07-07T07:09:13.803Z</time>
      </trkpt>
      <trkpt lat="42.91882333" lon="0.20840667">
        <ele>1370.0</ele>
        <time>2019-07-07T07:09:14.809Z</time>
      </trkpt>
      <trkpt lat="42.91882333" lon="0.20840667">
        <ele>1370.0</ele>
        <time>2019-07-07T07:09:15.819Z</time>
      </trkpt>
      <trkpt lat="42.91876" lon="0.20838667">
        <ele>1370.0</ele>
        <time>2019-07-07T07:09:16.837Z</time>
      </trkpt>
      <trkpt lat="42.91876" lon="0.20838667">
        <ele>1370.0</ele>
        <time>2019-07-07T07:09:17.840Z</time>
      </trkpt>
      <trkpt lat="42.91870667" lon="0.20837333">
        <ele>1370.0</ele>
        <time>2019-07-07T07:09:18.810Z</time>
      </trkpt>
      <trkpt lat="42.91870667" lon="0.20837333">
        <ele>1370.0</ele>
        <time>2019-07-07T07:09:19.827Z</time>
      </trkpt>
      <trkpt lat="42.91865667" lon="0.20835667">
        <ele>1369.0</ele>
        <time>2019-07-07T07:09:20.839Z</time>
      </trkpt>
      <trkpt lat="42.91863167" lon="0.20834333">
        <ele>1369.0</ele>
        <time>2019-07-07T07:09:21.840Z</time>
      </trkpt>
      <trkpt lat="42.91863167" lon="0.20834333">
        <ele>1369.0</ele>
        <time>2019-07-07T07:09:22.814Z</time>
      </trkpt>
      <trkpt lat="42.918585" lon="0.20832833">
        <ele>1369.0</ele>
        <time>2019-07-07T07:09:23.824Z</time>
      </trkpt>
      <trkpt lat="42.918585" lon="0.20832833">
        <ele>1369.0</ele>
        <time>2019-07-07T07:09:24.837Z</time>
      </trkpt>
      <trkpt lat="42.918535" lon="0.20832">
        <ele>1369.0</ele>
        <time>2019-07-07T07:09:25.803Z</time>
      </trkpt>
      <trkpt lat="42.91851" lon="0.20831667">
        <ele>1369.0</ele>
        <time>2019-07-07T07:09:26.834Z</time>
      </trkpt>
      <trkpt lat="42.91851" lon="0.20831667">
        <ele>1369.0</ele>
        <time>2019-07-07T07:09:27.813Z</time>
      </trkpt>
      <trkpt lat="42.91846167" lon="0.20831667">
        <ele>1369.0</ele>
        <time>2019-07-07T07:09:28.821Z</time>
      </trkpt>
      <trkpt lat="42.91846167" lon="0.20831667">
        <ele>1369.0</ele>
        <time>2019-07-07T07:09:29.801Z</time>
      </trkpt>
      <trkpt lat="42.91841333" lon="0.20832833">
        <ele>1369.0</ele>
        <time>2019-07-07T07:09:30.826Z</time>
      </trkpt>
      <trkpt lat="42.91841333" lon="0.20832833">
        <ele>1369.0</ele>
        <time>2019-07-07T07:09:31.829Z</time>
      </trkpt>
      <trkpt lat="42.918365" lon="0.20834833">
        <ele>1368.0</ele>
        <time>2019-07-07T07:09:32.839Z</time>
      </trkpt>
      <trkpt lat="42.918365" lon="0.20834833">
        <ele>1368.0</ele>
        <time>2019-07-07T07:09:33.821Z</time>
      </trkpt>
      <trkpt lat="42.91832333" lon="0.20835">
        <ele>1368.0</ele>
        <time>2019-07-07T07:09:34.836Z</time>
      </trkpt>
      <trkpt lat="42.91832333" lon="0.20835">
        <ele>1368.0</ele>
        <time>2019-07-07T07:09:35.839Z</time>
      </trkpt>
      <trkpt lat="42.91828167" lon="0.20839833">
        <ele>1368.0</ele>
        <time>2019-07-07T07:09:36.806Z</time>
      </trkpt>
      <trkpt lat="42.91828167" lon="0.20839833">
        <ele>1368.0</ele>
        <time>2019-07-07T07:09:37.821Z</time>
      </trkpt>
      <trkpt lat="42.918235" lon="0.20845167">
        <ele>1368.0</ele>
        <time>2019-07-07T07:09:38.801Z</time>
      </trkpt>
      <trkpt lat="42.918235" lon="0.20845167">
        <ele>1368.0</ele>
        <time>2019-07-07T07:09:39.823Z</time>
      </trkpt>
      <trkpt lat="42.91820333" lon="0.20850333">
        <ele>1368.0</ele>
        <time>2019-07-07T07:09:40.829Z</time>
      </trkpt>
      <trkpt lat="42.91820333" lon="0.20850333">
        <ele>1368.0</ele>
        <time>2019-07-07T07:09:41.805Z</time>
      </trkpt>
      <trkpt lat="42.918165" lon="0.20853833">
        <ele>1368.0</ele>
        <time>2019-07-07T07:09:42.837Z</time>
      </trkpt>
      <trkpt lat="42.918165" lon="0.20853833">
        <ele>1368.0</ele>
        <time>2019-07-07T07:09:43.817Z</time>
      </trkpt>
      <trkpt lat="42.918135" lon="0.20857833">
        <ele>1367.0</ele>
        <time>2019-07-07T07:09:44.823Z</time>
      </trkpt>
      <trkpt lat="42.918135" lon="0.20857833">
        <ele>1367.0</ele>
        <time>2019-07-07T07:09:45.801Z</time>
      </trkpt>
      <trkpt lat="42.91810333" lon="0.208615">
        <ele>1367.0</ele>
        <time>2019-07-07T07:09:46.825Z</time>
      </trkpt>
      <trkpt lat="42.91810333" lon="0.208615">
        <ele>1367.0</ele>
        <time>2019-07-07T07:09:47.817Z</time>
      </trkpt>
      <trkpt lat="42.91805833" lon="0.20866333">
        <ele>1367.0</ele>
        <time>2019-07-07T07:09:48.825Z</time>
      </trkpt>
      <trkpt lat="42.918035" lon="0.20869333">
        <ele>1367.0</ele>
        <time>2019-07-07T07:09:49.801Z</time>
      </trkpt>
      <trkpt lat="42.918035" lon="0.20869333">
        <ele>1367.0</ele>
        <time>2019-07-07T07:09:50.802Z</time>
      </trkpt>
      <trkpt lat="42.917985" lon="0.20874167">
        <ele>1367.0</ele>
        <time>2019-07-07T07:09:51.826Z</time>
      </trkpt>
      <trkpt lat="42.917985" lon="0.20874167">
        <ele>1367.0</ele>
        <time>2019-07-07T07:09:52.834Z</time>
      </trkpt>
      <trkpt lat="42.91793" lon="0.208795">
        <ele>1369.0</ele>
        <time>2019-07-07T07:09:53.827Z</time>
      </trkpt>
      <trkpt lat="42.91793" lon="0.208795">
        <ele>1369.0</ele>
        <time>2019-07-07T07:09:54.831Z</time>
      </trkpt>
      <trkpt lat="42.917865" lon="0.20887833">
        <ele>1373.0</ele>
        <time>2019-07-07T07:09:55.839Z</time>
      </trkpt>
      <trkpt lat="42.91783167" lon="0.20893833">
        <ele>1377.0</ele>
        <time>2019-07-07T07:09:56.817Z</time>
      </trkpt>
      <trkpt lat="42.91779667" lon="0.20897667">
        <ele>1380.0</ele>
        <time>2019-07-07T07:09:57.829Z</time>
      </trkpt>
      <trkpt lat="42.91779667" lon="0.20897667">
        <ele>1380.0</ele>
        <time>2019-07-07T07:09:58.807Z</time>
      </trkpt>
      <trkpt lat="42.91773" lon="0.20905167">
        <ele>1385.0</ele>
        <time>2019-07-07T07:09:59.837Z</time>
      </trkpt>
      <trkpt lat="42.91769833" lon="0.20907833">
        <ele>1387.0</ele>
        <time>2019-07-07T07:10:00.836Z</time>
      </trkpt>
      <trkpt lat="42.91769833" lon="0.20907833">
        <ele>1387.0</ele>
        <time>2019-07-07T07:10:01.802Z</time>
      </trkpt>
      <trkpt lat="42.91765" lon="0.20914">
        <ele>1391.0</ele>
        <time>2019-07-07T07:10:02.814Z</time>
      </trkpt>
      <trkpt lat="42.91765" lon="0.20914">
        <ele>1391.0</ele>
        <time>2019-07-07T07:10:03.816Z</time>
      </trkpt>
      <trkpt lat="42.91759167" lon="0.20919333">
        <ele>1393.0</ele>
        <time>2019-07-07T07:10:04.822Z</time>
      </trkpt>
      <trkpt lat="42.917555" lon="0.20921333">
        <ele>1393.0</ele>
        <time>2019-07-07T07:10:05.836Z</time>
      </trkpt>
      <trkpt lat="42.917555" lon="0.20921333">
        <ele>1393.0</ele>
        <time>2019-07-07T07:10:06.803Z</time>
      </trkpt>
      <trkpt lat="42.91750167" lon="0.20925">
        <ele>1395.0</ele>
        <time>2019-07-07T07:10:07.810Z</time>
      </trkpt>
      <trkpt lat="42.91748333" lon="0.20927">
        <ele>1395.0</ele>
        <time>2019-07-07T07:10:08.809Z</time>
      </trkpt>
      <trkpt lat="42.91748333" lon="0.20927">
        <ele>1395.0</ele>
        <time>2019-07-07T07:10:09.838Z</time>
      </trkpt>
      <trkpt lat="42.91744" lon="0.20931167">
        <ele>1397.0</ele>
        <time>2019-07-07T07:10:10.804Z</time>
      </trkpt>
      <trkpt lat="42.91742" lon="0.20933333">
        <ele>1397.0</ele>
        <time>2019-07-07T07:10:11.809Z</time>
      </trkpt>
      <trkpt lat="42.91742" lon="0.20933333">
        <ele>1397.0</ele>
        <time>2019-07-07T07:10:12.806Z</time>
      </trkpt>
      <trkpt lat="42.91738" lon="0.20938167">
        <ele>1399.0</ele>
        <time>2019-07-07T07:10:13.813Z</time>
      </trkpt>
      <trkpt lat="42.91738" lon="0.20938167">
        <ele>1399.0</ele>
        <time>2019-07-07T07:10:14.805Z</time>
      </trkpt>
      <trkpt lat="42.91733833" lon="0.20943">
        <ele>1400.0</ele>
        <time>2019-07-07T07:10:15.805Z</time>
      </trkpt>
      <trkpt lat="42.91731667" lon="0.20945167">
        <ele>1401.0</ele>
        <time>2019-07-07T07:10:16.827Z</time>
      </trkpt>
      <trkpt lat="42.91731667" lon="0.20945167">
        <ele>1401.0</ele>
        <time>2019-07-07T07:10:17.805Z</time>
      </trkpt>
      <trkpt lat="42.91727833" lon="0.20949333">
        <ele>1403.0</ele>
        <time>2019-07-07T07:10:18.823Z</time>
      </trkpt>
      <trkpt lat="42.917255" lon="0.20951167">
        <ele>1404.0</ele>
        <time>2019-07-07T07:10:19.832Z</time>
      </trkpt>
      <trkpt lat="42.917255" lon="0.20951167">
        <ele>1404.0</ele>
        <time>2019-07-07T07:10:20.803Z</time>
      </trkpt>
      <trkpt lat="42.91721333" lon="0.20954333">
        <ele>1406.0</ele>
        <time>2019-07-07T07:10:21.810Z</time>
      </trkpt>
      <trkpt lat="42.91721333" lon="0.20954333">
        <ele>1406.0</ele>
        <time>2019-07-07T07:10:22.809Z</time>
      </trkpt>
      <trkpt lat="42.91717" lon="0.20957">
        <ele>1407.0</ele>
        <time>2019-07-07T07:10:23.825Z</time>
      </trkpt>
      <trkpt lat="42.91717" lon="0.20957">
        <ele>1407.0</ele>
        <time>2019-07-07T07:10:24.802Z</time>
      </trkpt>
      <trkpt lat="42.91712167" lon="0.20957333">
        <ele>1408.0</ele>
        <time>2019-07-07T07:10:25.820Z</time>
      </trkpt>
      <trkpt lat="42.91709833" lon="0.20956833">
        <ele>1408.0</ele>
        <time>2019-07-07T07:10:26.837Z</time>
      </trkpt>
      <trkpt lat="42.91708" lon="0.20955">
        <ele>1409.0</ele>
        <time>2019-07-07T07:10:27.825Z</time>
      </trkpt>
      <trkpt lat="42.91708" lon="0.20955">
        <ele>1409.0</ele>
        <time>2019-07-07T07:10:28.805Z</time>
      </trkpt>
      <trkpt lat="42.91704667" lon="0.20950833">
        <ele>1409.0</ele>
        <time>2019-07-07T07:10:29.837Z</time>
      </trkpt>
      <trkpt lat="42.91704667" lon="0.20950833">
        <ele>1409.0</ele>
        <time>2019-07-07T07:10:30.803Z</time>
      </trkpt>
      <trkpt lat="42.91703667" lon="0.20944333">
        <ele>1410.0</ele>
        <time>2019-07-07T07:10:31.812Z</time>
      </trkpt>
      <trkpt lat="42.91703667" lon="0.20944333">
        <ele>1410.0</ele>
        <time>2019-07-07T07:10:32.821Z</time>
      </trkpt>
      <trkpt lat="42.91703833" lon="0.20937667">
        <ele>1410.0</ele>
        <time>2019-07-07T07:10:33.815Z</time>
      </trkpt>
      <trkpt lat="42.91704333" lon="0.209345">
        <ele>1410.0</ele>
        <time>2019-07-07T07:10:34.812Z</time>
      </trkpt>
      <trkpt lat="42.91704333" lon="0.209345">
        <ele>1410.0</ele>
        <time>2019-07-07T07:10:35.818Z</time>
      </trkpt>
      <trkpt lat="42.91705333" lon="0.20929333">
        <ele>1410.0</ele>
        <time>2019-07-07T07:10:36.824Z</time>
      </trkpt>
      <trkpt lat="42.91706333" lon="0.20926667">
        <ele>1411.0</ele>
        <time>2019-07-07T07:10:37.827Z</time>
      </trkpt>
      <trkpt lat="42.91706333" lon="0.20926667">
        <ele>1411.0</ele>
        <time>2019-07-07T07:10:38.806Z</time>
      </trkpt>
      <trkpt lat="42.91709667" lon="0.209215">
        <ele>1411.0</ele>
        <time>2019-07-07T07:10:39.813Z</time>
      </trkpt>
      <trkpt lat="42.91711667" lon="0.209195">
        <ele>1412.0</ele>
        <time>2019-07-07T07:10:40.837Z</time>
      </trkpt>
      <trkpt lat="42.917135" lon="0.20917167">
        <ele>1413.0</ele>
        <time>2019-07-07T07:10:41.817Z</time>
      </trkpt>
      <trkpt lat="42.917135" lon="0.20917167">
        <ele>1413.0</ele>
        <time>2019-07-07T07:10:42.822Z</time>
      </trkpt>
      <trkpt lat="42.91717167" lon="0.20912667">
        <ele>1414.0</ele>
        <time>2019-07-07T07:10:43.829Z</time>
      </trkpt>
      <trkpt lat="42.91719167" lon="0.20910333">
        <ele>1415.0</ele>
        <time>2019-07-07T07:10:44.840Z</time>
      </trkpt>
      <trkpt lat="42.91719167" lon="0.20910333">
        <ele>1415.0</ele>
        <time>2019-07-07T07:10:45.808Z</time>
      </trkpt>
      <trkpt lat="42.91723" lon="0.20905833">
        <ele>1416.0</ele>
        <time>2019-07-07T07:10:46.816Z</time>
      </trkpt>
      <trkpt lat="42.91723" lon="0.20905833">
        <ele>1416.0</ele>
        <time>2019-07-07T07:10:47.837Z</time>
      </trkpt>
      <trkpt lat="42.91726833" lon="0.20901">
        <ele>1417.0</ele>
        <time>2019-07-07T07:10:48.806Z</time>
      </trkpt>
      <trkpt lat="42.91726833" lon="0.20901">
        <ele>1417.0</ele>
        <time>2019-07-07T07:10:49.817Z</time>
      </trkpt>
      <trkpt lat="42.917305" lon="0.208965">
        <ele>1417.0</ele>
        <time>2019-07-07T07:10:50.825Z</time>
      </trkpt>
      <trkpt lat="42.917305" lon="0.208965">
        <ele>1417.0</ele>
        <time>2019-07-07T07:10:51.815Z</time>
      </trkpt>
      <trkpt lat="42.91734167" lon="0.20892333">
        <ele>1418.0</ele>
        <time>2019-07-07T07:10:52.822Z</time>
      </trkpt>
      <trkpt lat="42.91734167" lon="0.20892333">
        <ele>1418.0</ele>
        <time>2019-07-07T07:10:53.803Z</time>
      </trkpt>
      <trkpt lat="42.91737333" lon="0.208885">
        <ele>1418.0</ele>
        <time>2019-07-07T07:10:54.825Z</time>
      </trkpt>
      <trkpt lat="42.91737333" lon="0.208885">
        <ele>1418.0</ele>
        <time>2019-07-07T07:10:55.821Z</time>
      </trkpt>
      <trkpt lat="42.91741167" lon="0.20885167">
        <ele>1418.0</ele>
        <time>2019-07-07T07:10:56.833Z</time>
      </trkpt>
      <trkpt lat="42.91741167" lon="0.20885167">
        <ele>1418.0</ele>
        <time>2019-07-07T07:10:57.802Z</time>
      </trkpt>
      <trkpt lat="42.91745" lon="0.20881167">
        <ele>1419.0</ele>
        <time>2019-07-07T07:10:58.828Z</time>
      </trkpt>
      <trkpt lat="42.91745" lon="0.20881167">
        <ele>1419.0</ele>
        <time>2019-07-07T07:10:59.826Z</time>
      </trkpt>
      <trkpt lat="42.91749" lon="0.208755">
        <ele>1420.0</ele>
        <time>2019-07-07T07:11:00.833Z</time>
      </trkpt>
      <trkpt lat="42.91751167" lon="0.20873667">
        <ele>1420.0</ele>
        <time>2019-07-07T07:11:01.808Z</time>
      </trkpt>
      <trkpt lat="42.91751167" lon="0.20873667">
        <ele>1420.0</ele>
        <time>2019-07-07T07:11:02.818Z</time>
      </trkpt>
      <trkpt lat="42.917545" lon="0.208695">
        <ele>1421.0</ele>
        <time>2019-07-07T07:11:03.827Z</time>
      </trkpt>
      <trkpt lat="42.91756333" lon="0.20867833">
        <ele>1422.0</ele>
        <time>2019-07-07T07:11:04.837Z</time>
      </trkpt>
      <trkpt lat="42.91756333" lon="0.20867833">
        <ele>1422.0</ele>
        <time>2019-07-07T07:11:05.802Z</time>
      </trkpt>
      <trkpt lat="42.917605" lon="0.20863833">
        <ele>1423.0</ele>
        <time>2019-07-07T07:11:06.809Z</time>
      </trkpt>
      <trkpt lat="42.91762667" lon="0.20861833">
        <ele>1423.0</ele>
        <time>2019-07-07T07:11:07.832Z</time>
      </trkpt>
      <trkpt lat="42.91762667" lon="0.20861833">
        <ele>1423.0</ele>
        <time>2019-07-07T07:11:08.814Z</time>
      </trkpt>
      <trkpt lat="42.91766333" lon="0.208585">
        <ele>1425.0</ele>
        <time>2019-07-07T07:11:09.820Z</time>
      </trkpt>
      <trkpt lat="42.91768333" lon="0.20856167">
        <ele>1425.0</ele>
        <time>2019-07-07T07:11:10.838Z</time>
      </trkpt>
      <trkpt lat="42.91768333" lon="0.20856167">
        <ele>1425.0</ele>
        <time>2019-07-07T07:11:11.821Z</time>
      </trkpt>
      <trkpt lat="42.91772167" lon="0.208515">
        <ele>1426.0</ele>
        <time>2019-07-07T07:11:12.827Z</time>
      </trkpt>
      <trkpt lat="42.91774167" lon="0.208495">
        <ele>1427.0</ele>
        <time>2019-07-07T07:11:13.804Z</time>
      </trkpt>
      <trkpt lat="42.91776333" lon="0.20847667">
        <ele>1428.0</ele>
        <time>2019-07-07T07:11:14.827Z</time>
      </trkpt>
      <trkpt lat="42.91776333" lon="0.20847667">
        <ele>1428.0</ele>
        <time>2019-07-07T07:11:15.829Z</time>
      </trkpt>
      <trkpt lat="42.917805" lon="0.208435">
        <ele>1429.0</ele>
        <time>2019-07-07T07:11:16.835Z</time>
      </trkpt>
      <trkpt lat="42.917805" lon="0.208435">
        <ele>1429.0</ele>
        <time>2019-07-07T07:11:17.803Z</time>
      </trkpt>
      <trkpt lat="42.91784667" lon="0.208395">
        <ele>1430.0</ele>
        <time>2019-07-07T07:11:18.826Z</time>
      </trkpt>
      <trkpt lat="42.91786833" lon="0.20837667">
        <ele>1431.0</ele>
        <time>2019-07-07T07:11:19.803Z</time>
      </trkpt>
      <trkpt lat="42.91786833" lon="0.20837667">
        <ele>1431.0</ele>
        <time>2019-07-07T07:11:20.811Z</time>
      </trkpt>
      <trkpt lat="42.91791667" lon="0.20834333">
        <ele>1432.0</ele>
        <time>2019-07-07T07:11:21.816Z</time>
      </trkpt>
      <trkpt lat="42.91791667" lon="0.20834333">
        <ele>1432.0</ele>
        <time>2019-07-07T07:11:22.838Z</time>
      </trkpt>
      <trkpt lat="42.91795667" lon="0.20831167">
        <ele>1433.0</ele>
        <time>2019-07-07T07:11:23.805Z</time>
      </trkpt>
      <trkpt lat="42.91795667" lon="0.20831167">
        <ele>1433.0</ele>
        <time>2019-07-07T07:11:24.816Z</time>
      </trkpt>
      <trkpt lat="42.91799833" lon="0.208275">
        <ele>1435.0</ele>
        <time>2019-07-07T07:11:25.816Z</time>
      </trkpt>
      <trkpt lat="42.91799833" lon="0.208275">
        <ele>1435.0</ele>
        <time>2019-07-07T07:11:26.832Z</time>
      </trkpt>
      <trkpt lat="42.91803167" lon="0.20824167">
        <ele>1436.0</ele>
        <time>2019-07-07T07:11:27.839Z</time>
      </trkpt>
      <trkpt lat="42.91805333" lon="0.20822333">
        <ele>1437.0</ele>
        <time>2019-07-07T07:11:28.815Z</time>
      </trkpt>
      <trkpt lat="42.91805333" lon="0.20822333">
        <ele>1437.0</ele>
        <time>2019-07-07T07:11:29.802Z</time>
      </trkpt>
      <trkpt lat="42.91809167" lon="0.20818167">
        <ele>1438.0</ele>
        <time>2019-07-07T07:11:30.808Z</time>
      </trkpt>
      <trkpt lat="42.91811167" lon="0.208155">
        <ele>1439.0</ele>
        <time>2019-07-07T07:11:31.810Z</time>
      </trkpt>
      <trkpt lat="42.91811167" lon="0.208155">
        <ele>1439.0</ele>
        <time>2019-07-07T07:11:32.811Z</time>
      </trkpt>
      <trkpt lat="42.91816" lon="0.20811167">
        <ele>1441.0</ele>
        <time>2019-07-07T07:11:33.817Z</time>
      </trkpt>
      <trkpt lat="42.918175" lon="0.20809833">
        <ele>1442.0</ele>
        <time>2019-07-07T07:11:34.814Z</time>
      </trkpt>
      <trkpt lat="42.918175" lon="0.20809833">
        <ele>1442.0</ele>
        <time>2019-07-07T07:11:35.808Z</time>
      </trkpt>
      <trkpt lat="42.91821833" lon="0.20806833">
        <ele>1443.0</ele>
        <time>2019-07-07T07:11:36.817Z</time>
      </trkpt>
      <trkpt lat="42.91821833" lon="0.20806833">
        <ele>1443.0</ele>
        <time>2019-07-07T07:11:37.822Z</time>
      </trkpt>
      <trkpt lat="42.91826" lon="0.208035">
        <ele>1445.0</ele>
        <time>2019-07-07T07:11:38.814Z</time>
      </trkpt>
      <trkpt lat="42.91827167" lon="0.20801667">
        <ele>1445.0</ele>
        <time>2019-07-07T07:11:39.827Z</time>
      </trkpt>
      <trkpt lat="42.91828833" lon="0.20800167">
        <ele>1446.0</ele>
        <time>2019-07-07T07:11:40.812Z</time>
      </trkpt>
      <trkpt lat="42.91828833" lon="0.20800167">
        <ele>1446.0</ele>
        <time>2019-07-07T07:11:41.808Z</time>
      </trkpt>
      <trkpt lat="42.91832" lon="0.207975">
        <ele>1448.0</ele>
        <time>2019-07-07T07:11:42.814Z</time>
      </trkpt>
      <trkpt lat="42.91832" lon="0.207975">
        <ele>1448.0</ele>
        <time>2019-07-07T07:11:43.823Z</time>
      </trkpt>
      <trkpt lat="42.91836167" lon="0.20793667">
        <ele>1449.0</ele>
        <time>2019-07-07T07:11:44.838Z</time>
      </trkpt>
      <trkpt lat="42.918385" lon="0.20792167">
        <ele>1450.0</ele>
        <time>2019-07-07T07:11:45.830Z</time>
      </trkpt>
      <trkpt lat="42.918385" lon="0.20792167">
        <ele>1450.0</ele>
        <time>2019-07-07T07:11:46.814Z</time>
      </trkpt>
      <trkpt lat="42.91842333" lon="0.20788833">
        <ele>1451.0</ele>
        <time>2019-07-07T07:11:47.804Z</time>
      </trkpt>
      <trkpt lat="42.91842333" lon="0.20788833">
        <ele>1451.0</ele>
        <time>2019-07-07T07:11:48.831Z</time>
      </trkpt>
      <trkpt lat="42.91846667" lon="0.20782667">
        <ele>1452.0</ele>
        <time>2019-07-07T07:11:49.814Z</time>
      </trkpt>
      <trkpt lat="42.91846667" lon="0.20782667">
        <ele>1452.0</ele>
        <time>2019-07-07T07:11:50.825Z</time>
      </trkpt>
      <trkpt lat="42.91851167" lon="0.20777167">
        <ele>1452.0</ele>
        <time>2019-07-07T07:11:51.832Z</time>
      </trkpt>
      <trkpt lat="42.91851167" lon="0.20777167">
        <ele>1452.0</ele>
        <time>2019-07-07T07:11:52.809Z</time>
      </trkpt>
      <trkpt lat="42.91855667" lon="0.20771167">
        <ele>1452.0</ele>
        <time>2019-07-07T07:11:53.841Z</time>
      </trkpt>
      <trkpt lat="42.91855667" lon="0.20771167">
        <ele>1452.0</ele>
        <time>2019-07-07T07:11:54.824Z</time>
      </trkpt>
      <trkpt lat="42.91861167" lon="0.20766">
        <ele>1452.0</ele>
        <time>2019-07-07T07:11:55.831Z</time>
      </trkpt>
      <trkpt lat="42.918635" lon="0.20763667">
        <ele>1452.0</ele>
        <time>2019-07-07T07:11:56.802Z</time>
      </trkpt>
      <trkpt lat="42.918635" lon="0.20763667">
        <ele>1452.0</ele>
        <time>2019-07-07T07:11:57.831Z</time>
      </trkpt>
      <trkpt lat="42.91868" lon="0.20759667">
        <ele>1453.0</ele>
        <time>2019-07-07T07:11:58.839Z</time>
      </trkpt>
      <trkpt lat="42.91868" lon="0.20759667">
        <ele>1453.0</ele>
        <time>2019-07-07T07:11:59.821Z</time>
      </trkpt>
      <trkpt lat="42.91872333" lon="0.20755">
        <ele>1453.0</ele>
        <time>2019-07-07T07:12:00.834Z</time>
      </trkpt>
      <trkpt lat="42.91872333" lon="0.20755">
        <ele>1453.0</ele>
        <time>2019-07-07T07:12:01.831Z</time>
      </trkpt>
      <trkpt lat="42.91877333" lon="0.20747833">
        <ele>1453.0</ele>
        <time>2019-07-07T07:12:02.838Z</time>
      </trkpt>
      <trkpt lat="42.91877333" lon="0.20747833">
        <ele>1453.0</ele>
        <time>2019-07-07T07:12:03.818Z</time>
      </trkpt>
      <trkpt lat="42.918815" lon="0.20742667">
        <ele>1454.0</ele>
        <time>2019-07-07T07:12:04.835Z</time>
      </trkpt>
      <trkpt lat="42.918815" lon="0.20742667">
        <ele>1454.0</ele>
        <time>2019-07-07T07:12:05.802Z</time>
      </trkpt>
      <trkpt lat="42.91886" lon="0.20738">
        <ele>1456.0</ele>
        <time>2019-07-07T07:12:06.809Z</time>
      </trkpt>
      <trkpt lat="42.91886" lon="0.20738">
        <ele>1456.0</ele>
        <time>2019-07-07T07:12:07.833Z</time>
      </trkpt>
      <trkpt lat="42.91890333" lon="0.207335">
        <ele>1456.0</ele>
        <time>2019-07-07T07:12:08.829Z</time>
      </trkpt>
      <trkpt lat="42.91890333" lon="0.207335">
        <ele>1456.0</ele>
        <time>2019-07-07T07:12:09.803Z</time>
      </trkpt>
      <trkpt lat="42.918945" lon="0.207285">
        <ele>1457.0</ele>
        <time>2019-07-07T07:12:10.809Z</time>
      </trkpt>
      <trkpt lat="42.918945" lon="0.207285">
        <ele>1457.0</ele>
        <time>2019-07-07T07:12:11.802Z</time>
      </trkpt>
      <trkpt lat="42.91898167" lon="0.20723667">
        <ele>1458.0</ele>
        <time>2019-07-07T07:12:12.807Z</time>
      </trkpt>
      <trkpt lat="42.919" lon="0.20721">
        <ele>1458.0</ele>
        <time>2019-07-07T07:12:13.812Z</time>
      </trkpt>
      <trkpt lat="42.919" lon="0.20721">
        <ele>1458.0</ele>
        <time>2019-07-07T07:12:14.825Z</time>
      </trkpt>
      <trkpt lat="42.91903333" lon="0.207165">
        <ele>1458.0</ele>
        <time>2019-07-07T07:12:15.828Z</time>
      </trkpt>
      <trkpt lat="42.91904833" lon="0.20714333">
        <ele>1458.0</ele>
        <time>2019-07-07T07:12:16.830Z</time>
      </trkpt>
      <trkpt lat="42.91904833" lon="0.20714333">
        <ele>1458.0</ele>
        <time>2019-07-07T07:12:17.804Z</time>
      </trkpt>
      <trkpt lat="42.91908" lon="0.2071">
        <ele>1458.0</ele>
        <time>2019-07-07T07:12:18.811Z</time>
      </trkpt>
      <trkpt lat="42.91908" lon="0.2071">
        <ele>1458.0</ele>
        <time>2019-07-07T07:12:19.819Z</time>
      </trkpt>
      <trkpt lat="42.919115" lon="0.207055">
        <ele>1457.0</ele>
        <time>2019-07-07T07:12:20.825Z</time>
      </trkpt>
      <trkpt lat="42.919135" lon="0.20703">
        <ele>1457.0</ele>
        <time>2019-07-07T07:12:21.811Z</time>
      </trkpt>
      <trkpt lat="42.919135" lon="0.20703">
        <ele>1457.0</ele>
        <time>2019-07-07T07:12:22.831Z</time>
      </trkpt>
      <trkpt lat="42.91917333" lon="0.206985">
        <ele>1457.0</ele>
        <time>2019-07-07T07:12:23.805Z</time>
      </trkpt>
      <trkpt lat="42.91917333" lon="0.206985">
        <ele>1457.0</ele>
        <time>2019-07-07T07:12:24.809Z</time>
      </trkpt>
      <trkpt lat="42.91921333" lon="0.20693667">
        <ele>1458.0</ele>
        <time>2019-07-07T07:12:25.815Z</time>
      </trkpt>
      <trkpt lat="42.91921333" lon="0.20693667">
        <ele>1458.0</ele>
        <time>2019-07-07T07:12:26.803Z</time>
      </trkpt>
      <trkpt lat="42.91925" lon="0.20688667">
        <ele>1458.0</ele>
        <time>2019-07-07T07:12:27.834Z</time>
      </trkpt>
      <trkpt lat="42.91925" lon="0.20688667">
        <ele>1458.0</ele>
        <time>2019-07-07T07:12:28.835Z</time>
      </trkpt>
      <trkpt lat="42.91929167" lon="0.20684">
        <ele>1459.0</ele>
        <time>2019-07-07T07:12:29.804Z</time>
      </trkpt>
      <trkpt lat="42.91931167" lon="0.206815">
        <ele>1459.0</ele>
        <time>2019-07-07T07:12:30.839Z</time>
      </trkpt>
      <trkpt lat="42.91933333" lon="0.20679167">
        <ele>1460.0</ele>
        <time>2019-07-07T07:12:31.806Z</time>
      </trkpt>
      <trkpt lat="42.91933333" lon="0.20679167">
        <ele>1460.0</ele>
        <time>2019-07-07T07:12:32.819Z</time>
      </trkpt>
      <trkpt lat="42.919365" lon="0.206745">
        <ele>1460.0</ele>
        <time>2019-07-07T07:12:33.825Z</time>
      </trkpt>
      <trkpt lat="42.91938333" lon="0.20671833">
        <ele>1460.0</ele>
        <time>2019-07-07T07:12:34.818Z</time>
      </trkpt>
      <trkpt lat="42.91938333" lon="0.20671833">
        <ele>1460.0</ele>
        <time>2019-07-07T07:12:35.802Z</time>
      </trkpt>
      <trkpt lat="42.91942167" lon="0.20666833">
        <ele>1460.0</ele>
        <time>2019-07-07T07:12:36.812Z</time>
      </trkpt>
      <trkpt lat="42.91944" lon="0.20664333">
        <ele>1460.0</ele>
        <time>2019-07-07T07:12:37.838Z</time>
      </trkpt>
      <trkpt lat="42.91944" lon="0.20664333">
        <ele>1460.0</ele>
        <time>2019-07-07T07:12:38.809Z</time>
      </trkpt>
      <trkpt lat="42.91947167" lon="0.20659333">
        <ele>1461.0</ele>
        <time>2019-07-07T07:12:39.817Z</time>
      </trkpt>
      <trkpt lat="42.91949167" lon="0.20656667">
        <ele>1461.0</ele>
        <time>2019-07-07T07:12:40.839Z</time>
      </trkpt>
      <trkpt lat="42.91949167" lon="0.20656667">
        <ele>1461.0</ele>
        <time>2019-07-07T07:12:41.830Z</time>
      </trkpt>
      <trkpt lat="42.91953167" lon="0.20651833">
        <ele>1462.0</ele>
        <time>2019-07-07T07:12:42.806Z</time>
      </trkpt>
      <trkpt lat="42.91953167" lon="0.20651833">
        <ele>1462.0</ele>
        <time>2019-07-07T07:12:43.821Z</time>
      </trkpt>
      <trkpt lat="42.91957" lon="0.20646167">
        <ele>1462.0</ele>
        <time>2019-07-07T07:12:44.833Z</time>
      </trkpt>
      <trkpt lat="42.91957" lon="0.20646167">
        <ele>1462.0</ele>
        <time>2019-07-07T07:12:45.825Z</time>
      </trkpt>
      <trkpt lat="42.91959833" lon="0.20641">
        <ele>1463.0</ele>
        <time>2019-07-07T07:12:46.832Z</time>
      </trkpt>
      <trkpt lat="42.91961" lon="0.20638833">
        <ele>1463.0</ele>
        <time>2019-07-07T07:12:47.810Z</time>
      </trkpt>
      <trkpt lat="42.91962" lon="0.206365">
        <ele>1463.0</ele>
        <time>2019-07-07T07:12:48.808Z</time>
      </trkpt>
      <trkpt lat="42.91962" lon="0.206365">
        <ele>1463.0</ele>
        <time>2019-07-07T07:12:49.834Z</time>
      </trkpt>
      <trkpt lat="42.91965167" lon="0.206315">
        <ele>1463.0</ele>
        <time>2019-07-07T07:12:50.801Z</time>
      </trkpt>
      <trkpt lat="42.919665" lon="0.20629">
        <ele>1463.0</ele>
        <time>2019-07-07T07:12:51.826Z</time>
      </trkpt>
      <trkpt lat="42.919665" lon="0.20629">
        <ele>1463.0</ele>
        <time>2019-07-07T07:12:52.810Z</time>
      </trkpt>
      <trkpt lat="42.919695" lon="0.20623167">
        <ele>1464.0</ele>
        <time>2019-07-07T07:12:53.817Z</time>
      </trkpt>
      <trkpt lat="42.91971" lon="0.2062">
        <ele>1464.0</ele>
        <time>2019-07-07T07:12:54.836Z</time>
      </trkpt>
      <trkpt lat="42.91972833" lon="0.20616833">
        <ele>1464.0</ele>
        <time>2019-07-07T07:12:55.834Z</time>
      </trkpt>
      <trkpt lat="42.91972833" lon="0.20616833">
        <ele>1464.0</ele>
        <time>2019-07-07T07:12:56.827Z</time>
      </trkpt>
      <trkpt lat="42.91975833" lon="0.20610833">
        <ele>1465.0</ele>
        <time>2019-07-07T07:12:57.845Z</time>
      </trkpt>
      <trkpt lat="42.91977333" lon="0.20608167">
        <ele>1465.0</ele>
        <time>2019-07-07T07:12:58.805Z</time>
      </trkpt>
      <trkpt lat="42.91977333" lon="0.20608167">
        <ele>1465.0</ele>
        <time>2019-07-07T07:12:59.822Z</time>
      </trkpt>
      <trkpt lat="42.91979667" lon="0.20604333">
        <ele>1466.0</ele>
        <time>2019-07-07T07:13:00.829Z</time>
      </trkpt>
      <trkpt lat="42.91979667" lon="0.20604333">
        <ele>1466.0</ele>
        <time>2019-07-07T07:13:01.807Z</time>
      </trkpt>
      <trkpt lat="42.91982333" lon="0.20600667">
        <ele>1466.0</ele>
        <time>2019-07-07T07:13:02.842Z</time>
      </trkpt>
      <trkpt lat="42.91982333" lon="0.20600667">
        <ele>1466.0</ele>
        <time>2019-07-07T07:13:03.831Z</time>
      </trkpt>
      <trkpt lat="42.91985667" lon="0.20596667">
        <ele>1467.0</ele>
        <time>2019-07-07T07:13:04.806Z</time>
      </trkpt>
      <trkpt lat="42.91985667" lon="0.20596667">
        <ele>1467.0</ele>
        <time>2019-07-07T07:13:05.833Z</time>
      </trkpt>
      <trkpt lat="42.91988833" lon="0.20591">
        <ele>1468.0</ele>
        <time>2019-07-07T07:13:06.844Z</time>
      </trkpt>
      <trkpt lat="42.91988833" lon="0.20591">
        <ele>1468.0</ele>
        <time>2019-07-07T07:13:07.830Z</time>
      </trkpt>
      <trkpt lat="42.91992333" lon="0.20587">
        <ele>1469.0</ele>
        <time>2019-07-07T07:13:08.805Z</time>
      </trkpt>
      <trkpt lat="42.91993667" lon="0.20585167">
        <ele>1469.0</ele>
        <time>2019-07-07T07:13:09.813Z</time>
      </trkpt>
      <trkpt lat="42.91995333" lon="0.205825">
        <ele>1469.0</ele>
        <time>2019-07-07T07:13:10.821Z</time>
      </trkpt>
      <trkpt lat="42.91995333" lon="0.205825">
        <ele>1469.0</ele>
        <time>2019-07-07T07:13:11.833Z</time>
      </trkpt>
      <trkpt lat="42.919985" lon="0.20579667">
        <ele>1470.0</ele>
        <time>2019-07-07T07:13:12.801Z</time>
      </trkpt>
      <trkpt lat="42.919985" lon="0.20579667">
        <ele>1470.0</ele>
        <time>2019-07-07T07:13:13.830Z</time>
      </trkpt>
      <trkpt lat="42.92002167" lon="0.20575333">
        <ele>1471.0</ele>
        <time>2019-07-07T07:13:14.836Z</time>
      </trkpt>
      <trkpt lat="42.92002167" lon="0.20575333">
        <ele>1471.0</ele>
        <time>2019-07-07T07:13:15.840Z</time>
      </trkpt>
      <trkpt lat="42.92006167" lon="0.20572333">
        <ele>1472.0</ele>
        <time>2019-07-07T07:13:16.807Z</time>
      </trkpt>
      <trkpt lat="42.92006167" lon="0.20572333">
        <ele>1472.0</ele>
        <time>2019-07-07T07:13:17.817Z</time>
      </trkpt>
      <trkpt lat="42.92008833" lon="0.20571">
        <ele>1474.0</ele>
        <time>2019-07-07T07:13:18.826Z</time>
      </trkpt>
      <trkpt lat="42.92008833" lon="0.20571">
        <ele>1474.0</ele>
        <time>2019-07-07T07:13:19.839Z</time>
      </trkpt>
      <trkpt lat="42.92012833" lon="0.20569167">
        <ele>1475.0</ele>
        <time>2019-07-07T07:13:20.806Z</time>
      </trkpt>
      <trkpt lat="42.92015" lon="0.20567667">
        <ele>1475.0</ele>
        <time>2019-07-07T07:13:21.832Z</time>
      </trkpt>
      <trkpt lat="42.92015" lon="0.20567667">
        <ele>1475.0</ele>
        <time>2019-07-07T07:13:22.806Z</time>
      </trkpt>
      <trkpt lat="42.92019333" lon="0.20564167">
        <ele>1477.0</ele>
        <time>2019-07-07T07:13:23.813Z</time>
      </trkpt>
      <trkpt lat="42.92019333" lon="0.20564167">
        <ele>1477.0</ele>
        <time>2019-07-07T07:13:24.838Z</time>
      </trkpt>
      <trkpt lat="42.92024333" lon="0.2056">
        <ele>1478.0</ele>
        <time>2019-07-07T07:13:25.837Z</time>
      </trkpt>
      <trkpt lat="42.92024333" lon="0.2056">
        <ele>1478.0</ele>
        <time>2019-07-07T07:13:26.803Z</time>
      </trkpt>
      <trkpt lat="42.92028833" lon="0.205565">
        <ele>1479.0</ele>
        <time>2019-07-07T07:13:27.810Z</time>
      </trkpt>
      <trkpt lat="42.92031" lon="0.20554667">
        <ele>1479.0</ele>
        <time>2019-07-07T07:13:28.827Z</time>
      </trkpt>
      <trkpt lat="42.92031" lon="0.20554667">
        <ele>1479.0</ele>
        <time>2019-07-07T07:13:29.801Z</time>
      </trkpt>
      <trkpt lat="42.92034833" lon="0.20549833">
        <ele>1479.0</ele>
        <time>2019-07-07T07:13:30.807Z</time>
      </trkpt>
      <trkpt lat="42.92037167" lon="0.20547167">
        <ele>1480.0</ele>
        <time>2019-07-07T07:13:31.803Z</time>
      </trkpt>
      <trkpt lat="42.92037167" lon="0.20547167">
        <ele>1480.0</ele>
        <time>2019-07-07T07:13:32.811Z</time>
      </trkpt>
      <trkpt lat="42.920415" lon="0.205415">
        <ele>1480.0</ele>
        <time>2019-07-07T07:13:33.818Z</time>
      </trkpt>
      <trkpt lat="42.92044167" lon="0.20537333">
        <ele>1481.0</ele>
        <time>2019-07-07T07:13:34.833Z</time>
      </trkpt>
      <trkpt lat="42.92044167" lon="0.20537333">
        <ele>1481.0</ele>
        <time>2019-07-07T07:13:35.804Z</time>
      </trkpt>
      <trkpt lat="42.92048167" lon="0.20530167">
        <ele>1481.0</ele>
        <time>2019-07-07T07:13:36.815Z</time>
      </trkpt>
      <trkpt lat="42.92050167" lon="0.205275">
        <ele>1481.0</ele>
        <time>2019-07-07T07:13:37.811Z</time>
      </trkpt>
      <trkpt lat="42.92050167" lon="0.205275">
        <ele>1481.0</ele>
        <time>2019-07-07T07:13:38.807Z</time>
      </trkpt>
      <trkpt lat="42.92053167" lon="0.20522667">
        <ele>1481.0</ele>
        <time>2019-07-07T07:13:39.817Z</time>
      </trkpt>
      <trkpt lat="42.920545" lon="0.20519833">
        <ele>1482.0</ele>
        <time>2019-07-07T07:13:40.837Z</time>
      </trkpt>
      <trkpt lat="42.920545" lon="0.20519833">
        <ele>1482.0</ele>
        <time>2019-07-07T07:13:41.837Z</time>
      </trkpt>
      <trkpt lat="42.92059" lon="0.20516167">
        <ele>1482.0</ele>
        <time>2019-07-07T07:13:42.805Z</time>
      </trkpt>
      <trkpt lat="42.92059" lon="0.20516167">
        <ele>1482.0</ele>
        <time>2019-07-07T07:13:43.813Z</time>
      </trkpt>
      <trkpt lat="42.920625" lon="0.205115">
        <ele>1483.0</ele>
        <time>2019-07-07T07:13:44.833Z</time>
      </trkpt>
      <trkpt lat="42.920625" lon="0.205115">
        <ele>1483.0</ele>
        <time>2019-07-07T07:13:45.802Z</time>
      </trkpt>
      <trkpt lat="42.920655" lon="0.205075">
        <ele>1484.0</ele>
        <time>2019-07-07T07:13:46.809Z</time>
      </trkpt>
      <trkpt lat="42.920655" lon="0.205075">
        <ele>1484.0</ele>
        <time>2019-07-07T07:13:47.809Z</time>
      </trkpt>
      <trkpt lat="42.92069333" lon="0.20504">
        <ele>1485.0</ele>
        <time>2019-07-07T07:13:48.827Z</time>
      </trkpt>
      <trkpt lat="42.92069333" lon="0.20504">
        <ele>1485.0</ele>
        <time>2019-07-07T07:13:49.801Z</time>
      </trkpt>
      <trkpt lat="42.92073167" lon="0.20500833">
        <ele>1486.0</ele>
        <time>2019-07-07T07:13:50.808Z</time>
      </trkpt>
      <trkpt lat="42.92073167" lon="0.20500833">
        <ele>1486.0</ele>
        <time>2019-07-07T07:13:51.834Z</time>
      </trkpt>
      <trkpt lat="42.920775" lon="0.20495833">
        <ele>1486.0</ele>
        <time>2019-07-07T07:13:52.820Z</time>
      </trkpt>
      <trkpt lat="42.920775" lon="0.20495833">
        <ele>1486.0</ele>
        <time>2019-07-07T07:13:53.809Z</time>
      </trkpt>
      <trkpt lat="42.92082333" lon="0.204915">
        <ele>1487.0</ele>
        <time>2019-07-07T07:13:54.819Z</time>
      </trkpt>
      <trkpt lat="42.92084" lon="0.20489167">
        <ele>1487.0</ele>
        <time>2019-07-07T07:13:55.804Z</time>
      </trkpt>
      <trkpt lat="42.92084" lon="0.20489167">
        <ele>1487.0</ele>
        <time>2019-07-07T07:13:56.802Z</time>
      </trkpt>
      <trkpt lat="42.92088167" lon="0.204835">
        <ele>1487.0</ele>
        <time>2019-07-07T07:13:57.814Z</time>
      </trkpt>
      <trkpt lat="42.92088167" lon="0.204835">
        <ele>1487.0</ele>
        <time>2019-07-07T07:13:58.830Z</time>
      </trkpt>
      <trkpt lat="42.92092667" lon="0.20477167">
        <ele>1487.0</ele>
        <time>2019-07-07T07:13:59.835Z</time>
      </trkpt>
      <trkpt lat="42.92092667" lon="0.20477167">
        <ele>1487.0</ele>
        <time>2019-07-07T07:14:00.829Z</time>
      </trkpt>
      <trkpt lat="42.92097" lon="0.204715">
        <ele>1487.0</ele>
        <time>2019-07-07T07:14:01.809Z</time>
      </trkpt>
      <trkpt lat="42.92097" lon="0.204715">
        <ele>1487.0</ele>
        <time>2019-07-07T07:14:02.821Z</time>
      </trkpt>
      <trkpt lat="42.92101167" lon="0.20466667">
        <ele>1487.0</ele>
        <time>2019-07-07T07:14:03.801Z</time>
      </trkpt>
      <trkpt lat="42.92103333" lon="0.20464333">
        <ele>1487.0</ele>
        <time>2019-07-07T07:14:04.835Z</time>
      </trkpt>
      <trkpt lat="42.92103333" lon="0.20464333">
        <ele>1487.0</ele>
        <time>2019-07-07T07:14:05.819Z</time>
      </trkpt>
      <trkpt lat="42.92107" lon="0.20458">
        <ele>1487.0</ele>
        <time>2019-07-07T07:14:06.838Z</time>
      </trkpt>
      <trkpt lat="42.92107" lon="0.20458">
        <ele>1487.0</ele>
        <time>2019-07-07T07:14:07.808Z</time>
      </trkpt>
      <trkpt lat="42.92111167" lon="0.20451833">
        <ele>1487.0</ele>
        <time>2019-07-07T07:14:08.815Z</time>
      </trkpt>
      <trkpt lat="42.921125" lon="0.20449833">
        <ele>1487.0</ele>
        <time>2019-07-07T07:14:09.832Z</time>
      </trkpt>
      <trkpt lat="42.921125" lon="0.20449833">
        <ele>1487.0</ele>
        <time>2019-07-07T07:14:10.820Z</time>
      </trkpt>
      <trkpt lat="42.921155" lon="0.20445667">
        <ele>1487.0</ele>
        <time>2019-07-07T07:14:11.828Z</time>
      </trkpt>
      <trkpt lat="42.921155" lon="0.20445667">
        <ele>1487.0</ele>
        <time>2019-07-07T07:14:12.839Z</time>
      </trkpt>
      <trkpt lat="42.92118" lon="0.204385">
        <ele>1487.0</ele>
        <time>2019-07-07T07:14:13.807Z</time>
      </trkpt>
      <trkpt lat="42.92118" lon="0.204385">
        <ele>1487.0</ele>
        <time>2019-07-07T07:14:14.822Z</time>
      </trkpt>
      <trkpt lat="42.921215" lon="0.204325">
        <ele>1488.0</ele>
        <time>2019-07-07T07:14:15.829Z</time>
      </trkpt>
      <trkpt lat="42.92123167" lon="0.20429833">
        <ele>1488.0</ele>
        <time>2019-07-07T07:14:16.821Z</time>
      </trkpt>
      <trkpt lat="42.92123167" lon="0.20429833">
        <ele>1488.0</ele>
        <time>2019-07-07T07:14:17.807Z</time>
      </trkpt>
      <trkpt lat="42.92126333" lon="0.20423833">
        <ele>1487.0</ele>
        <time>2019-07-07T07:14:18.819Z</time>
      </trkpt>
      <trkpt lat="42.92126333" lon="0.20423833">
        <ele>1487.0</ele>
        <time>2019-07-07T07:14:19.835Z</time>
      </trkpt>
      <trkpt lat="42.92129333" lon="0.20418333">
        <ele>1488.0</ele>
        <time>2019-07-07T07:14:20.805Z</time>
      </trkpt>
      <trkpt lat="42.92129333" lon="0.20418333">
        <ele>1488.0</ele>
        <time>2019-07-07T07:14:21.814Z</time>
      </trkpt>
      <trkpt lat="42.92132667" lon="0.20414">
        <ele>1488.0</ele>
        <time>2019-07-07T07:14:22.820Z</time>
      </trkpt>
      <trkpt lat="42.92132667" lon="0.20414">
        <ele>1488.0</ele>
        <time>2019-07-07T07:14:23.805Z</time>
      </trkpt>
      <trkpt lat="42.92136" lon="0.20409333">
        <ele>1488.0</ele>
        <time>2019-07-07T07:14:24.835Z</time>
      </trkpt>
      <trkpt lat="42.92136" lon="0.20409333">
        <ele>1488.0</ele>
        <time>2019-07-07T07:14:25.827Z</time>
      </trkpt>
      <trkpt lat="42.9214" lon="0.20404833">
        <ele>1488.0</ele>
        <time>2019-07-07T07:14:26.834Z</time>
      </trkpt>
      <trkpt lat="42.92142" lon="0.20402333">
        <ele>1488.0</ele>
        <time>2019-07-07T07:14:27.820Z</time>
      </trkpt>
      <trkpt lat="42.92143833" lon="0.20400167">
        <ele>1488.0</ele>
        <time>2019-07-07T07:14:28.806Z</time>
      </trkpt>
      <trkpt lat="42.92143833" lon="0.20400167">
        <ele>1488.0</ele>
        <time>2019-07-07T07:14:29.818Z</time>
      </trkpt>
      <trkpt lat="42.92147333" lon="0.20395167">
        <ele>1487.0</ele>
        <time>2019-07-07T07:14:30.837Z</time>
      </trkpt>
      <trkpt lat="42.92149333" lon="0.203925">
        <ele>1487.0</ele>
        <time>2019-07-07T07:14:31.835Z</time>
      </trkpt>
      <trkpt lat="42.92149333" lon="0.203925">
        <ele>1487.0</ele>
        <time>2019-07-07T07:14:32.819Z</time>
      </trkpt>
      <trkpt lat="42.92153333" lon="0.20387667">
        <ele>1487.0</ele>
        <time>2019-07-07T07:14:33.827Z</time>
      </trkpt>
      <trkpt lat="42.92155167" lon="0.20385333">
        <ele>1487.0</ele>
        <time>2019-07-07T07:14:34.816Z</time>
      </trkpt>
      <trkpt lat="42.92155167" lon="0.20385333">
        <ele>1487.0</ele>
        <time>2019-07-07T07:14:35.829Z</time>
      </trkpt>
      <trkpt lat="42.921585" lon="0.20379167">
        <ele>1487.0</ele>
        <time>2019-07-07T07:14:36.836Z</time>
      </trkpt>
      <trkpt lat="42.921585" lon="0.20379167">
        <ele>1487.0</ele>
        <time>2019-07-07T07:14:37.819Z</time>
      </trkpt>
      <trkpt lat="42.92161" lon="0.20375">
        <ele>1488.0</ele>
        <time>2019-07-07T07:14:38.825Z</time>
      </trkpt>
      <trkpt lat="42.92161" lon="0.20375">
        <ele>1488.0</ele>
        <time>2019-07-07T07:14:39.809Z</time>
      </trkpt>
      <trkpt lat="42.92163833" lon="0.20369333">
        <ele>1488.0</ele>
        <time>2019-07-07T07:14:40.838Z</time>
      </trkpt>
      <trkpt lat="42.92163833" lon="0.20369333">
        <ele>1488.0</ele>
        <time>2019-07-07T07:14:41.821Z</time>
      </trkpt>
      <trkpt lat="42.92166667" lon="0.20363167">
        <ele>1489.0</ele>
        <time>2019-07-07T07:14:42.827Z</time>
      </trkpt>
      <trkpt lat="42.92166667" lon="0.20363167">
        <ele>1489.0</ele>
        <time>2019-07-07T07:14:43.811Z</time>
      </trkpt>
      <trkpt lat="42.92169167" lon="0.20357667">
        <ele>1489.0</ele>
        <time>2019-07-07T07:14:44.836Z</time>
      </trkpt>
      <trkpt lat="42.92169167" lon="0.20357667">
        <ele>1489.0</ele>
        <time>2019-07-07T07:14:45.805Z</time>
      </trkpt>
      <trkpt lat="42.92171833" lon="0.20352833">
        <ele>1490.0</ele>
        <time>2019-07-07T07:14:46.811Z</time>
      </trkpt>
      <trkpt lat="42.92171833" lon="0.20352833">
        <ele>1490.0</ele>
        <time>2019-07-07T07:14:47.829Z</time>
      </trkpt>
      <trkpt lat="42.92174333" lon="0.203475">
        <ele>1490.0</ele>
        <time>2019-07-07T07:14:48.806Z</time>
      </trkpt>
      <trkpt lat="42.92174333" lon="0.203475">
        <ele>1490.0</ele>
        <time>2019-07-07T07:14:49.825Z</time>
      </trkpt>
      <trkpt lat="42.92176333" lon="0.20341333">
        <ele>1490.0</ele>
        <time>2019-07-07T07:14:50.832Z</time>
      </trkpt>
      <trkpt lat="42.92177333" lon="0.20338167">
        <ele>1490.0</ele>
        <time>2019-07-07T07:14:51.810Z</time>
      </trkpt>
      <trkpt lat="42.92177333" lon="0.20338167">
        <ele>1490.0</ele>
        <time>2019-07-07T07:14:52.836Z</time>
      </trkpt>
      <trkpt lat="42.92179167" lon="0.20331833">
        <ele>1491.0</ele>
        <time>2019-07-07T07:14:53.813Z</time>
      </trkpt>
      <trkpt lat="42.92179833" lon="0.203285">
        <ele>1491.0</ele>
        <time>2019-07-07T07:14:54.823Z</time>
      </trkpt>
      <trkpt lat="42.921805" lon="0.20325">
        <ele>1491.0</ele>
        <time>2019-07-07T07:14:55.808Z</time>
      </trkpt>
      <trkpt lat="42.921805" lon="0.20325">
        <ele>1491.0</ele>
        <time>2019-07-07T07:14:56.826Z</time>
      </trkpt>
      <trkpt lat="42.921815" lon="0.20319">
        <ele>1491.0</ele>
        <time>2019-07-07T07:14:57.833Z</time>
      </trkpt>
      <trkpt lat="42.92182" lon="0.20316167">
        <ele>1492.0</ele>
        <time>2019-07-07T07:14:58.818Z</time>
      </trkpt>
      <trkpt lat="42.92182333" lon="0.20313">
        <ele>1492.0</ele>
        <time>2019-07-07T07:14:59.808Z</time>
      </trkpt>
      <trkpt lat="42.92182333" lon="0.20313">
        <ele>1492.0</ele>
        <time>2019-07-07T07:15:00.832Z</time>
      </trkpt>
      <trkpt lat="42.92183667" lon="0.20306667">
        <ele>1492.0</ele>
        <time>2019-07-07T07:15:01.822Z</time>
      </trkpt>
      <trkpt lat="42.92183667" lon="0.20306667">
        <ele>1492.0</ele>
        <time>2019-07-07T07:15:02.805Z</time>
      </trkpt>
      <trkpt lat="42.92185333" lon="0.20300333">
        <ele>1493.0</ele>
        <time>2019-07-07T07:15:03.817Z</time>
      </trkpt>
      <trkpt lat="42.92186" lon="0.20297167">
        <ele>1493.0</ele>
        <time>2019-07-07T07:15:04.803Z</time>
      </trkpt>
      <trkpt lat="42.92186" lon="0.20297167">
        <ele>1493.0</ele>
        <time>2019-07-07T07:15:05.806Z</time>
      </trkpt>
      <trkpt lat="42.92188" lon="0.20291">
        <ele>1494.0</ele>
        <time>2019-07-07T07:15:06.821Z</time>
      </trkpt>
      <trkpt lat="42.92188" lon="0.20291">
        <ele>1494.0</ele>
        <time>2019-07-07T07:15:07.831Z</time>
      </trkpt>
      <trkpt lat="42.92189333" lon="0.202845">
        <ele>1494.0</ele>
        <time>2019-07-07T07:15:08.813Z</time>
      </trkpt>
      <trkpt lat="42.92190333" lon="0.20281167">
        <ele>1494.0</ele>
        <time>2019-07-07T07:15:09.820Z</time>
      </trkpt>
      <trkpt lat="42.92190333" lon="0.20281167">
        <ele>1494.0</ele>
        <time>2019-07-07T07:15:10.806Z</time>
      </trkpt>
      <trkpt lat="42.92192667" lon="0.202745">
        <ele>1495.0</ele>
        <time>2019-07-07T07:15:11.813Z</time>
      </trkpt>
      <trkpt lat="42.92193833" lon="0.20271667">
        <ele>1495.0</ele>
        <time>2019-07-07T07:15:12.811Z</time>
      </trkpt>
      <trkpt lat="42.92194667" lon="0.202685">
        <ele>1495.0</ele>
        <time>2019-07-07T07:15:13.829Z</time>
      </trkpt>
      <trkpt lat="42.92194667" lon="0.202685">
        <ele>1495.0</ele>
        <time>2019-07-07T07:15:14.806Z</time>
      </trkpt>
      <trkpt lat="42.92196833" lon="0.202625">
        <ele>1496.0</ele>
        <time>2019-07-07T07:15:15.815Z</time>
      </trkpt>
      <trkpt lat="42.92197667" lon="0.2026">
        <ele>1497.0</ele>
        <time>2019-07-07T07:15:16.819Z</time>
      </trkpt>
      <trkpt lat="42.92197667" lon="0.2026">
        <ele>1497.0</ele>
        <time>2019-07-07T07:15:17.809Z</time>
      </trkpt>
      <trkpt lat="42.922" lon="0.20255">
        <ele>1498.0</ele>
        <time>2019-07-07T07:15:18.815Z</time>
      </trkpt>
      <trkpt lat="42.922" lon="0.20255">
        <ele>1498.0</ele>
        <time>2019-07-07T07:15:19.801Z</time>
      </trkpt>
      <trkpt lat="42.92201167" lon="0.20249833">
        <ele>1498.0</ele>
        <time>2019-07-07T07:15:20.814Z</time>
      </trkpt>
      <trkpt lat="42.92201167" lon="0.20249833">
        <ele>1498.0</ele>
        <time>2019-07-07T07:15:21.824Z</time>
      </trkpt>
      <trkpt lat="42.92202167" lon="0.20244167">
        <ele>1499.0</ele>
        <time>2019-07-07T07:15:22.829Z</time>
      </trkpt>
      <trkpt lat="42.92202167" lon="0.20244167">
        <ele>1499.0</ele>
        <time>2019-07-07T07:15:23.805Z</time>
      </trkpt>
      <trkpt lat="42.92204833" lon="0.202385">
        <ele>1500.0</ele>
        <time>2019-07-07T07:15:24.838Z</time>
      </trkpt>
      <trkpt lat="42.92204833" lon="0.202385">
        <ele>1500.0</ele>
        <time>2019-07-07T07:15:25.833Z</time>
      </trkpt>
      <trkpt lat="42.922075" lon="0.20232833">
        <ele>1500.0</ele>
        <time>2019-07-07T07:15:26.806Z</time>
      </trkpt>
      <trkpt lat="42.922075" lon="0.20232833">
        <ele>1500.0</ele>
        <time>2019-07-07T07:15:27.831Z</time>
      </trkpt>
      <trkpt lat="42.9221" lon="0.20226333">
        <ele>1501.0</ele>
        <time>2019-07-07T07:15:28.835Z</time>
      </trkpt>
      <trkpt lat="42.9221" lon="0.20226333">
        <ele>1501.0</ele>
        <time>2019-07-07T07:15:29.831Z</time>
      </trkpt>
      <trkpt lat="42.92211167" lon="0.20220167">
        <ele>1502.0</ele>
        <time>2019-07-07T07:15:30.801Z</time>
      </trkpt>
      <trkpt lat="42.92211833" lon="0.20217167">
        <ele>1502.0</ele>
        <time>2019-07-07T07:15:31.825Z</time>
      </trkpt>
      <trkpt lat="42.92211833" lon="0.20217167">
        <ele>1502.0</ele>
        <time>2019-07-07T07:15:32.837Z</time>
      </trkpt>
      <trkpt lat="42.92214167" lon="0.20211667">
        <ele>1503.0</ele>
        <time>2019-07-07T07:15:33.805Z</time>
      </trkpt>
      <trkpt lat="42.92215333" lon="0.20209167">
        <ele>1503.0</ele>
        <time>2019-07-07T07:15:34.831Z</time>
      </trkpt>
      <trkpt lat="42.92215333" lon="0.20209167">
        <ele>1503.0</ele>
        <time>2019-07-07T07:15:35.825Z</time>
      </trkpt>
      <trkpt lat="42.922175" lon="0.20202833">
        <ele>1504.0</ele>
        <time>2019-07-07T07:15:36.833Z</time>
      </trkpt>
      <trkpt lat="42.922185" lon="0.20199833">
        <ele>1504.0</ele>
        <time>2019-07-07T07:15:37.814Z</time>
      </trkpt>
      <trkpt lat="42.922185" lon="0.20199833">
        <ele>1504.0</ele>
        <time>2019-07-07T07:15:38.809Z</time>
      </trkpt>
      <trkpt lat="42.92220333" lon="0.20192167">
        <ele>1505.0</ele>
        <time>2019-07-07T07:15:39.834Z</time>
      </trkpt>
      <trkpt lat="42.92221167" lon="0.20188667">
        <ele>1506.0</ele>
        <time>2019-07-07T07:15:40.833Z</time>
      </trkpt>
      <trkpt lat="42.92221167" lon="0.20188667">
        <ele>1506.0</ele>
        <time>2019-07-07T07:15:41.811Z</time>
      </trkpt>
      <trkpt lat="42.92224667" lon="0.20182167">
        <ele>1506.0</ele>
        <time>2019-07-07T07:15:42.824Z</time>
      </trkpt>
      <trkpt lat="42.92224667" lon="0.20182167">
        <ele>1506.0</ele>
        <time>2019-07-07T07:15:43.822Z</time>
      </trkpt>
      <trkpt lat="42.922275" lon="0.20175833">
        <ele>1507.0</ele>
        <time>2019-07-07T07:15:44.829Z</time>
      </trkpt>
      <trkpt lat="42.922275" lon="0.20175833">
        <ele>1507.0</ele>
        <time>2019-07-07T07:15:45.804Z</time>
      </trkpt>
      <trkpt lat="42.92230167" lon="0.20170167">
        <ele>1507.0</ele>
        <time>2019-07-07T07:15:46.826Z</time>
      </trkpt>
      <trkpt lat="42.92230167" lon="0.20170167">
        <ele>1507.0</ele>
        <time>2019-07-07T07:15:47.804Z</time>
      </trkpt>
      <trkpt lat="42.92232" lon="0.20163">
        <ele>1508.0</ele>
        <time>2019-07-07T07:15:48.815Z</time>
      </trkpt>
      <trkpt lat="42.92233" lon="0.201595">
        <ele>1508.0</ele>
        <time>2019-07-07T07:15:49.832Z</time>
      </trkpt>
      <trkpt lat="42.92233" lon="0.201595">
        <ele>1508.0</ele>
        <time>2019-07-07T07:15:50.801Z</time>
      </trkpt>
      <trkpt lat="42.92235167" lon="0.20152833">
        <ele>1509.0</ele>
        <time>2019-07-07T07:15:51.822Z</time>
      </trkpt>
      <trkpt lat="42.92235167" lon="0.20152833">
        <ele>1509.0</ele>
        <time>2019-07-07T07:15:52.807Z</time>
      </trkpt>
      <trkpt lat="42.922375" lon="0.20146">
        <ele>1509.0</ele>
        <time>2019-07-07T07:15:53.815Z</time>
      </trkpt>
      <trkpt lat="42.922375" lon="0.20146">
        <ele>1509.0</ele>
        <time>2019-07-07T07:15:54.821Z</time>
      </trkpt>
      <trkpt lat="42.92239333" lon="0.20139667">
        <ele>1510.0</ele>
        <time>2019-07-07T07:15:55.835Z</time>
      </trkpt>
      <trkpt lat="42.92239333" lon="0.20139667">
        <ele>1510.0</ele>
        <time>2019-07-07T07:15:56.829Z</time>
      </trkpt>
      <trkpt lat="42.92241167" lon="0.20133667">
        <ele>1510.0</ele>
        <time>2019-07-07T07:15:57.835Z</time>
      </trkpt>
      <trkpt lat="42.92242333" lon="0.20130333">
        <ele>1510.0</ele>
        <time>2019-07-07T07:15:58.820Z</time>
      </trkpt>
      <trkpt lat="42.92242333" lon="0.20130333">
        <ele>1510.0</ele>
        <time>2019-07-07T07:15:59.822Z</time>
      </trkpt>
      <trkpt lat="42.92243667" lon="0.20124333">
        <ele>1511.0</ele>
        <time>2019-07-07T07:16:00.835Z</time>
      </trkpt>
      <trkpt lat="42.92244" lon="0.20121167">
        <ele>1511.0</ele>
        <time>2019-07-07T07:16:01.821Z</time>
      </trkpt>
      <trkpt lat="42.92244" lon="0.20121167">
        <ele>1511.0</ele>
        <time>2019-07-07T07:16:02.840Z</time>
      </trkpt>
      <trkpt lat="42.92244833" lon="0.20114833">
        <ele>1512.0</ele>
        <time>2019-07-07T07:16:03.806Z</time>
      </trkpt>
      <trkpt lat="42.92245" lon="0.20111667">
        <ele>1512.0</ele>
        <time>2019-07-07T07:16:04.822Z</time>
      </trkpt>
      <trkpt lat="42.92245" lon="0.20111667">
        <ele>1512.0</ele>
        <time>2019-07-07T07:16:05.807Z</time>
      </trkpt>
      <trkpt lat="42.92245" lon="0.20105">
        <ele>1513.0</ele>
        <time>2019-07-07T07:16:06.816Z</time>
      </trkpt>
      <trkpt lat="42.92245" lon="0.20105">
        <ele>1513.0</ele>
        <time>2019-07-07T07:16:07.823Z</time>
      </trkpt>
      <trkpt lat="42.92244667" lon="0.20099">
        <ele>1513.0</ele>
        <time>2019-07-07T07:16:08.829Z</time>
      </trkpt>
      <trkpt lat="42.92244167" lon="0.20096">
        <ele>1514.0</ele>
        <time>2019-07-07T07:16:09.818Z</time>
      </trkpt>
      <trkpt lat="42.92243833" lon="0.20092667">
        <ele>1514.0</ele>
        <time>2019-07-07T07:16:10.815Z</time>
      </trkpt>
      <trkpt lat="42.92243333" lon="0.20089167">
        <ele>1514.0</ele>
        <time>2019-07-07T07:16:11.818Z</time>
      </trkpt>
      <trkpt lat="42.92243333" lon="0.20089167">
        <ele>1514.0</ele>
        <time>2019-07-07T07:16:12.834Z</time>
      </trkpt>
      <trkpt lat="42.92241667" lon="0.20082167">
        <ele>1515.0</ele>
        <time>2019-07-07T07:16:13.823Z</time>
      </trkpt>
      <trkpt lat="42.92241667" lon="0.20082167">
        <ele>1515.0</ele>
        <time>2019-07-07T07:16:14.806Z</time>
      </trkpt>
      <trkpt lat="42.92240667" lon="0.20076667">
        <ele>1515.0</ele>
        <time>2019-07-07T07:16:15.840Z</time>
      </trkpt>
      <trkpt lat="42.92240333" lon="0.20074">
        <ele>1515.0</ele>
        <time>2019-07-07T07:16:16.832Z</time>
      </trkpt>
      <trkpt lat="42.92240333" lon="0.20074">
        <ele>1515.0</ele>
        <time>2019-07-07T07:16:17.805Z</time>
      </trkpt>
      <trkpt lat="42.92239667" lon="0.20067">
        <ele>1516.0</ele>
        <time>2019-07-07T07:16:18.827Z</time>
      </trkpt>
      <trkpt lat="42.92239167" lon="0.20063">
        <ele>1516.0</ele>
        <time>2019-07-07T07:16:19.831Z</time>
      </trkpt>
      <trkpt lat="42.92239167" lon="0.20063">
        <ele>1516.0</ele>
        <time>2019-07-07T07:16:20.816Z</time>
      </trkpt>
      <trkpt lat="42.92238167" lon="0.20055667">
        <ele>1516.0</ele>
        <time>2019-07-07T07:16:21.840Z</time>
      </trkpt>
      <trkpt lat="42.92238167" lon="0.20055667">
        <ele>1516.0</ele>
        <time>2019-07-07T07:16:22.826Z</time>
      </trkpt>
      <trkpt lat="42.92236667" lon="0.20048833">
        <ele>1516.0</ele>
        <time>2019-07-07T07:16:23.833Z</time>
      </trkpt>
      <trkpt lat="42.92236667" lon="0.20048833">
        <ele>1516.0</ele>
        <time>2019-07-07T07:16:24.815Z</time>
      </trkpt>
      <trkpt lat="42.92234667" lon="0.20041833">
        <ele>1516.0</ele>
        <time>2019-07-07T07:16:25.837Z</time>
      </trkpt>
      <trkpt lat="42.92234667" lon="0.20041833">
        <ele>1516.0</ele>
        <time>2019-07-07T07:16:26.809Z</time>
      </trkpt>
      <trkpt lat="42.92233" lon="0.20035333">
        <ele>1516.0</ele>
        <time>2019-07-07T07:16:27.815Z</time>
      </trkpt>
      <trkpt lat="42.92231833" lon="0.20032333">
        <ele>1516.0</ele>
        <time>2019-07-07T07:16:28.803Z</time>
      </trkpt>
      <trkpt lat="42.92231833" lon="0.20032333">
        <ele>1516.0</ele>
        <time>2019-07-07T07:16:29.825Z</time>
      </trkpt>
      <trkpt lat="42.92229833" lon="0.200265">
        <ele>1516.0</ele>
        <time>2019-07-07T07:16:30.835Z</time>
      </trkpt>
      <trkpt lat="42.92229833" lon="0.200265">
        <ele>1516.0</ele>
        <time>2019-07-07T07:16:31.840Z</time>
      </trkpt>
      <trkpt lat="42.92228" lon="0.20019667">
        <ele>1517.0</ele>
        <time>2019-07-07T07:16:32.830Z</time>
      </trkpt>
      <trkpt lat="42.92228" lon="0.20019667">
        <ele>1517.0</ele>
        <time>2019-07-07T07:16:33.806Z</time>
      </trkpt>
      <trkpt lat="42.92226333" lon="0.20013167">
        <ele>1516.0</ele>
        <time>2019-07-07T07:16:34.807Z</time>
      </trkpt>
      <trkpt lat="42.92226333" lon="0.20013167">
        <ele>1516.0</ele>
        <time>2019-07-07T07:16:35.821Z</time>
      </trkpt>
      <trkpt lat="42.92223833" lon="0.20007167">
        <ele>1517.0</ele>
        <time>2019-07-07T07:16:36.828Z</time>
      </trkpt>
      <trkpt lat="42.92222667" lon="0.20004167">
        <ele>1517.0</ele>
        <time>2019-07-07T07:16:37.807Z</time>
      </trkpt>
      <trkpt lat="42.92222667" lon="0.20004167">
        <ele>1517.0</ele>
        <time>2019-07-07T07:16:38.822Z</time>
      </trkpt>
      <trkpt lat="42.92219833" lon="0.199985">
        <ele>1517.0</ele>
        <time>2019-07-07T07:16:39.837Z</time>
      </trkpt>
      <trkpt lat="42.92219833" lon="0.199985">
        <ele>1517.0</ele>
        <time>2019-07-07T07:16:40.830Z</time>
      </trkpt>
      <trkpt lat="42.922165" lon="0.19993167">
        <ele>1518.0</ele>
        <time>2019-07-07T07:16:41.823Z</time>
      </trkpt>
      <trkpt lat="42.922155" lon="0.19990333">
        <ele>1518.0</ele>
        <time>2019-07-07T07:16:42.820Z</time>
      </trkpt>
      <trkpt lat="42.92214667" lon="0.19987167">
        <ele>1518.0</ele>
        <time>2019-07-07T07:16:43.827Z</time>
      </trkpt>
      <trkpt lat="42.92214667" lon="0.19987167">
        <ele>1518.0</ele>
        <time>2019-07-07T07:16:44.811Z</time>
      </trkpt>
      <trkpt lat="42.922125" lon="0.19981167">
        <ele>1518.0</ele>
        <time>2019-07-07T07:16:45.824Z</time>
      </trkpt>
      <trkpt lat="42.92211" lon="0.19978167">
        <ele>1518.0</ele>
        <time>2019-07-07T07:16:46.824Z</time>
      </trkpt>
      <trkpt lat="42.92211" lon="0.19978167">
        <ele>1518.0</ele>
        <time>2019-07-07T07:16:47.806Z</time>
      </trkpt>
      <trkpt lat="42.92209167" lon="0.19972167">
        <ele>1518.0</ele>
        <time>2019-07-07T07:16:48.813Z</time>
      </trkpt>
      <trkpt lat="42.92208333" lon="0.19969167">
        <ele>1519.0</ele>
        <time>2019-07-07T07:16:49.806Z</time>
      </trkpt>
      <trkpt lat="42.92208333" lon="0.19969167">
        <ele>1519.0</ele>
        <time>2019-07-07T07:16:50.822Z</time>
      </trkpt>
      <trkpt lat="42.92206833" lon="0.19963667">
        <ele>1519.0</ele>
        <time>2019-07-07T07:16:51.831Z</time>
      </trkpt>
      <trkpt lat="42.92206833" lon="0.19963667">
        <ele>1519.0</ele>
        <time>2019-07-07T07:16:52.839Z</time>
      </trkpt>
      <trkpt lat="42.92204333" lon="0.19958333">
        <ele>1519.0</ele>
        <time>2019-07-07T07:16:53.806Z</time>
      </trkpt>
      <trkpt lat="42.92204333" lon="0.19958333">
        <ele>1519.0</ele>
        <time>2019-07-07T07:16:54.804Z</time>
      </trkpt>
      <trkpt lat="42.92201833" lon="0.19952333">
        <ele>1520.0</ele>
        <time>2019-07-07T07:16:55.810Z</time>
      </trkpt>
      <trkpt lat="42.92201833" lon="0.19952333">
        <ele>1520.0</ele>
        <time>2019-07-07T07:16:56.836Z</time>
      </trkpt>
      <trkpt lat="42.92199833" lon="0.19946333">
        <ele>1521.0</ele>
        <time>2019-07-07T07:16:57.811Z</time>
      </trkpt>
      <trkpt lat="42.92198833" lon="0.19943167">
        <ele>1521.0</ele>
        <time>2019-07-07T07:16:58.823Z</time>
      </trkpt>
      <trkpt lat="42.92198833" lon="0.19943167">
        <ele>1521.0</ele>
        <time>2019-07-07T07:16:59.807Z</time>
      </trkpt>
      <trkpt lat="42.92197167" lon="0.19936833">
        <ele>1521.0</ele>
        <time>2019-07-07T07:17:00.805Z</time>
      </trkpt>
      <trkpt lat="42.92196167" lon="0.19934">
        <ele>1521.0</ele>
        <time>2019-07-07T07:17:01.829Z</time>
      </trkpt>
      <trkpt lat="42.92196167" lon="0.19934">
        <ele>1521.0</ele>
        <time>2019-07-07T07:17:02.814Z</time>
      </trkpt>
      <trkpt lat="42.92194667" lon="0.199275">
        <ele>1522.0</ele>
        <time>2019-07-07T07:17:03.827Z</time>
      </trkpt>
      <trkpt lat="42.92193333" lon="0.199245">
        <ele>1522.0</ele>
        <time>2019-07-07T07:17:04.828Z</time>
      </trkpt>
      <trkpt lat="42.92193333" lon="0.199245">
        <ele>1522.0</ele>
        <time>2019-07-07T07:17:05.815Z</time>
      </trkpt>
      <trkpt lat="42.921905" lon="0.19918833">
        <ele>1523.0</ele>
        <time>2019-07-07T07:17:06.827Z</time>
      </trkpt>
      <trkpt lat="42.921905" lon="0.19918833">
        <ele>1523.0</ele>
        <time>2019-07-07T07:17:07.806Z</time>
      </trkpt>
      <trkpt lat="42.92188" lon="0.19913167">
        <ele>1523.0</ele>
        <time>2019-07-07T07:17:08.812Z</time>
      </trkpt>
      <trkpt lat="42.92187" lon="0.1991">
        <ele>1523.0</ele>
        <time>2019-07-07T07:17:09.837Z</time>
      </trkpt>
      <trkpt lat="42.92185667" lon="0.19907">
        <ele>1523.0</ele>
        <time>2019-07-07T07:17:10.834Z</time>
      </trkpt>
      <trkpt lat="42.92185667" lon="0.19907">
        <ele>1523.0</ele>
        <time>2019-07-07T07:17:11.818Z</time>
      </trkpt>
      <trkpt lat="42.92181667" lon="0.19901">
        <ele>1523.0</ele>
        <time>2019-07-07T07:17:12.827Z</time>
      </trkpt>
      <trkpt lat="42.92180167" lon="0.19897833">
        <ele>1523.0</ele>
        <time>2019-07-07T07:17:13.839Z</time>
      </trkpt>
      <trkpt lat="42.92180167" lon="0.19897833">
        <ele>1523.0</ele>
        <time>2019-07-07T07:17:14.818Z</time>
      </trkpt>
      <trkpt lat="42.921775" lon="0.19892167">
        <ele>1523.0</ele>
        <time>2019-07-07T07:17:15.824Z</time>
      </trkpt>
      <trkpt lat="42.92176667" lon="0.19889">
        <ele>1522.0</ele>
        <time>2019-07-07T07:17:16.836Z</time>
      </trkpt>
      <trkpt lat="42.92176667" lon="0.19889">
        <ele>1522.0</ele>
        <time>2019-07-07T07:17:17.806Z</time>
      </trkpt>
      <trkpt lat="42.92174667" lon="0.19882667">
        <ele>1522.0</ele>
        <time>2019-07-07T07:17:18.813Z</time>
      </trkpt>
      <trkpt lat="42.921735" lon="0.19879667">
        <ele>1522.0</ele>
        <time>2019-07-07T07:17:19.812Z</time>
      </trkpt>
      <trkpt lat="42.921735" lon="0.19879667">
        <ele>1522.0</ele>
        <time>2019-07-07T07:17:20.831Z</time>
      </trkpt>
      <trkpt lat="42.92170833" lon="0.19874167">
        <ele>1522.0</ele>
        <time>2019-07-07T07:17:21.808Z</time>
      </trkpt>
      <trkpt lat="42.921695" lon="0.198715">
        <ele>1523.0</ele>
        <time>2019-07-07T07:17:22.837Z</time>
      </trkpt>
      <trkpt lat="42.921695" lon="0.198715">
        <ele>1523.0</ele>
        <time>2019-07-07T07:17:23.823Z</time>
      </trkpt>
      <trkpt lat="42.92167" lon="0.19866167">
        <ele>1523.0</ele>
        <time>2019-07-07T07:17:24.830Z</time>
      </trkpt>
      <trkpt lat="42.92165833" lon="0.19863">
        <ele>1523.0</ele>
        <time>2019-07-07T07:17:25.835Z</time>
      </trkpt>
      <trkpt lat="42.92164667" lon="0.19860167">
        <ele>1523.0</ele>
        <time>2019-07-07T07:17:26.802Z</time>
      </trkpt>
      <trkpt lat="42.92164667" lon="0.19860167">
        <ele>1523.0</ele>
        <time>2019-07-07T07:17:27.826Z</time>
      </trkpt>
      <trkpt lat="42.92162" lon="0.19855167">
        <ele>1523.0</ele>
        <time>2019-07-07T07:17:28.834Z</time>
      </trkpt>
      <trkpt lat="42.92162" lon="0.19855167">
        <ele>1523.0</ele>
        <time>2019-07-07T07:17:29.824Z</time>
      </trkpt>
      <trkpt lat="42.92159833" lon="0.19850167">
        <ele>1524.0</ele>
        <time>2019-07-07T07:17:30.803Z</time>
      </trkpt>
      <trkpt lat="42.92158833" lon="0.198475">
        <ele>1524.0</ele>
        <time>2019-07-07T07:17:31.823Z</time>
      </trkpt>
      <trkpt lat="42.92158833" lon="0.198475">
        <ele>1524.0</ele>
        <time>2019-07-07T07:17:32.809Z</time>
      </trkpt>
      <trkpt lat="42.92155833" lon="0.19841833">
        <ele>1525.0</ele>
        <time>2019-07-07T07:17:33.816Z</time>
      </trkpt>
      <trkpt lat="42.92154" lon="0.19838833">
        <ele>1526.0</ele>
        <time>2019-07-07T07:17:34.804Z</time>
      </trkpt>
      <trkpt lat="42.92154" lon="0.19838833">
        <ele>1526.0</ele>
        <time>2019-07-07T07:17:35.828Z</time>
      </trkpt>
      <trkpt lat="42.92150167" lon="0.19833333">
        <ele>1526.0</ele>
        <time>2019-07-07T07:17:36.805Z</time>
      </trkpt>
      <trkpt lat="42.921485" lon="0.19830333">
        <ele>1526.0</ele>
        <time>2019-07-07T07:17:37.818Z</time>
      </trkpt>
      <trkpt lat="42.921485" lon="0.19830333">
        <ele>1526.0</ele>
        <time>2019-07-07T07:17:38.824Z</time>
      </trkpt>
      <trkpt lat="42.92145833" lon="0.19824333">
        <ele>1527.0</ele>
        <time>2019-07-07T07:17:39.807Z</time>
      </trkpt>
      <trkpt lat="42.921445" lon="0.198215">
        <ele>1527.0</ele>
        <time>2019-07-07T07:17:40.823Z</time>
      </trkpt>
      <trkpt lat="42.92143" lon="0.19818667">
        <ele>1527.0</ele>
        <time>2019-07-07T07:17:41.817Z</time>
      </trkpt>
      <trkpt lat="42.92143" lon="0.19818667">
        <ele>1527.0</ele>
        <time>2019-07-07T07:17:42.805Z</time>
      </trkpt>
      <trkpt lat="42.92139167" lon="0.19812667">
        <ele>1528.0</ele>
        <time>2019-07-07T07:17:43.811Z</time>
      </trkpt>
      <trkpt lat="42.92137833" lon="0.1981">
        <ele>1528.0</ele>
        <time>2019-07-07T07:17:44.829Z</time>
      </trkpt>
      <trkpt lat="42.92137833" lon="0.1981">
        <ele>1528.0</ele>
        <time>2019-07-07T07:17:45.837Z</time>
      </trkpt>
      <trkpt lat="42.92135" lon="0.19804333">
        <ele>1528.0</ele>
        <time>2019-07-07T07:17:46.803Z</time>
      </trkpt>
      <trkpt lat="42.92135" lon="0.19804333">
        <ele>1528.0</ele>
        <time>2019-07-07T07:17:47.820Z</time>
      </trkpt>
      <trkpt lat="42.92132" lon="0.19798667">
        <ele>1529.0</ele>
        <time>2019-07-07T07:17:48.825Z</time>
      </trkpt>
      <trkpt lat="42.921305" lon="0.19795833">
        <ele>1530.0</ele>
        <time>2019-07-07T07:17:49.823Z</time>
      </trkpt>
      <trkpt lat="42.921305" lon="0.19795833">
        <ele>1530.0</ele>
        <time>2019-07-07T07:17:50.839Z</time>
      </trkpt>
      <trkpt lat="42.92127667" lon="0.19791167">
        <ele>1530.0</ele>
        <time>2019-07-07T07:17:51.811Z</time>
      </trkpt>
      <trkpt lat="42.92126333" lon="0.197885">
        <ele>1531.0</ele>
        <time>2019-07-07T07:17:52.823Z</time>
      </trkpt>
      <trkpt lat="42.92126333" lon="0.197885">
        <ele>1531.0</ele>
        <time>2019-07-07T07:17:53.809Z</time>
      </trkpt>
      <trkpt lat="42.92123667" lon="0.19783333">
        <ele>1531.0</ele>
        <time>2019-07-07T07:17:54.826Z</time>
      </trkpt>
      <trkpt lat="42.92123667" lon="0.19783333">
        <ele>1531.0</ele>
        <time>2019-07-07T07:17:55.814Z</time>
      </trkpt>
      <trkpt lat="42.92121" lon="0.19778167">
        <ele>1532.0</ele>
        <time>2019-07-07T07:17:56.822Z</time>
      </trkpt>
      <trkpt lat="42.92119833" lon="0.197755">
        <ele>1532.0</ele>
        <time>2019-07-07T07:17:57.825Z</time>
      </trkpt>
      <trkpt lat="42.92119833" lon="0.197755">
        <ele>1532.0</ele>
        <time>2019-07-07T07:17:58.806Z</time>
      </trkpt>
      <trkpt lat="42.92117833" lon="0.19770333">
        <ele>1532.0</ele>
        <time>2019-07-07T07:17:59.812Z</time>
      </trkpt>
      <trkpt lat="42.92117833" lon="0.19770333">
        <ele>1532.0</ele>
        <time>2019-07-07T07:18:00.825Z</time>
      </trkpt>
      <trkpt lat="42.921155" lon="0.19764833">
        <ele>1532.0</ele>
        <time>2019-07-07T07:18:01.819Z</time>
      </trkpt>
      <trkpt lat="42.921155" lon="0.19764833">
        <ele>1532.0</ele>
        <time>2019-07-07T07:18:02.833Z</time>
      </trkpt>
      <trkpt lat="42.92112833" lon="0.1976">
        <ele>1532.0</ele>
        <time>2019-07-07T07:18:03.808Z</time>
      </trkpt>
      <trkpt lat="42.92111833" lon="0.197575">
        <ele>1532.0</ele>
        <time>2019-07-07T07:18:04.824Z</time>
      </trkpt>
      <trkpt lat="42.92111833" lon="0.197575">
        <ele>1532.0</ele>
        <time>2019-07-07T07:18:05.809Z</time>
      </trkpt>
      <trkpt lat="42.92109167" lon="0.19752167">
        <ele>1532.0</ele>
        <time>2019-07-07T07:18:06.815Z</time>
      </trkpt>
      <trkpt lat="42.92109167" lon="0.19752167">
        <ele>1532.0</ele>
        <time>2019-07-07T07:18:07.834Z</time>
      </trkpt>
      <trkpt lat="42.92106667" lon="0.19747167">
        <ele>1533.0</ele>
        <time>2019-07-07T07:18:08.806Z</time>
      </trkpt>
      <trkpt lat="42.92106667" lon="0.19747167">
        <ele>1533.0</ele>
        <time>2019-07-07T07:18:09.819Z</time>
      </trkpt>
      <trkpt lat="42.92104167" lon="0.19742">
        <ele>1533.0</ele>
        <time>2019-07-07T07:18:10.826Z</time>
      </trkpt>
      <trkpt lat="42.92104167" lon="0.19742">
        <ele>1533.0</ele>
        <time>2019-07-07T07:18:11.804Z</time>
      </trkpt>
      <trkpt lat="42.92101833" lon="0.19736333">
        <ele>1533.0</ele>
        <time>2019-07-07T07:18:12.826Z</time>
      </trkpt>
      <trkpt lat="42.92101833" lon="0.19736333">
        <ele>1533.0</ele>
        <time>2019-07-07T07:18:13.810Z</time>
      </trkpt>
      <trkpt lat="42.920985" lon="0.197295">
        <ele>1533.0</ele>
        <time>2019-07-07T07:18:14.816Z</time>
      </trkpt>
      <trkpt lat="42.92097167" lon="0.19726333">
        <ele>1533.0</ele>
        <time>2019-07-07T07:18:15.833Z</time>
      </trkpt>
      <trkpt lat="42.92096167" lon="0.197235">
        <ele>1534.0</ele>
        <time>2019-07-07T07:18:16.827Z</time>
      </trkpt>
      <trkpt lat="42.92096167" lon="0.197235">
        <ele>1534.0</ele>
        <time>2019-07-07T07:18:17.810Z</time>
      </trkpt>
      <trkpt lat="42.920935" lon="0.19718667">
        <ele>1534.0</ele>
        <time>2019-07-07T07:18:18.818Z</time>
      </trkpt>
      <trkpt lat="42.92092" lon="0.19715833">
        <ele>1535.0</ele>
        <time>2019-07-07T07:18:19.837Z</time>
      </trkpt>
      <trkpt lat="42.92092" lon="0.19715833">
        <ele>1535.0</ele>
        <time>2019-07-07T07:18:20.811Z</time>
      </trkpt>
      <trkpt lat="42.92089" lon="0.19710333">
        <ele>1535.0</ele>
        <time>2019-07-07T07:18:21.821Z</time>
      </trkpt>
      <trkpt lat="42.92089" lon="0.19710333">
        <ele>1535.0</ele>
        <time>2019-07-07T07:18:22.809Z</time>
      </trkpt>
      <trkpt lat="42.92086" lon="0.19704833">
        <ele>1536.0</ele>
        <time>2019-07-07T07:18:23.815Z</time>
      </trkpt>
      <trkpt lat="42.92086" lon="0.19704833">
        <ele>1536.0</ele>
        <time>2019-07-07T07:18:24.828Z</time>
      </trkpt>
      <trkpt lat="42.92082833" lon="0.19699833">
        <ele>1538.0</ele>
        <time>2019-07-07T07:18:25.836Z</time>
      </trkpt>
      <trkpt lat="42.92082833" lon="0.19699833">
        <ele>1538.0</ele>
        <time>2019-07-07T07:18:26.807Z</time>
      </trkpt>
      <trkpt lat="42.9208" lon="0.19694667">
        <ele>1539.0</ele>
        <time>2019-07-07T07:18:27.817Z</time>
      </trkpt>
      <trkpt lat="42.92078667" lon="0.19691833">
        <ele>1539.0</ele>
        <time>2019-07-07T07:18:28.841Z</time>
      </trkpt>
      <trkpt lat="42.92078667" lon="0.19691833">
        <ele>1539.0</ele>
        <time>2019-07-07T07:18:29.807Z</time>
      </trkpt>
      <trkpt lat="42.92076" lon="0.19686333">
        <ele>1540.0</ele>
        <time>2019-07-07T07:18:30.815Z</time>
      </trkpt>
      <trkpt lat="42.92074667" lon="0.196835">
        <ele>1540.0</ele>
        <time>2019-07-07T07:18:31.837Z</time>
      </trkpt>
      <trkpt lat="42.92074667" lon="0.196835">
        <ele>1540.0</ele>
        <time>2019-07-07T07:18:32.829Z</time>
      </trkpt>
      <trkpt lat="42.92071833" lon="0.19678">
        <ele>1541.0</ele>
        <time>2019-07-07T07:18:33.834Z</time>
      </trkpt>
      <trkpt lat="42.92071833" lon="0.19678">
        <ele>1541.0</ele>
        <time>2019-07-07T07:18:34.835Z</time>
      </trkpt>
      <trkpt lat="42.92069167" lon="0.19672667">
        <ele>1542.0</ele>
        <time>2019-07-07T07:18:35.803Z</time>
      </trkpt>
      <trkpt lat="42.92068" lon="0.1967">
        <ele>1542.0</ele>
        <time>2019-07-07T07:18:36.810Z</time>
      </trkpt>
      <trkpt lat="42.92068" lon="0.1967">
        <ele>1542.0</ele>
        <time>2019-07-07T07:18:37.824Z</time>
      </trkpt>
      <trkpt lat="42.920655" lon="0.19664333">
        <ele>1543.0</ele>
        <time>2019-07-07T07:18:38.830Z</time>
      </trkpt>
      <trkpt lat="42.920655" lon="0.19664333">
        <ele>1543.0</ele>
        <time>2019-07-07T07:18:39.815Z</time>
      </trkpt>
      <trkpt lat="42.92063167" lon="0.19658667">
        <ele>1544.0</ele>
        <time>2019-07-07T07:18:40.805Z</time>
      </trkpt>
      <trkpt lat="42.92062" lon="0.19655833">
        <ele>1544.0</ele>
        <time>2019-07-07T07:18:41.840Z</time>
      </trkpt>
      <trkpt lat="42.92062" lon="0.19655833">
        <ele>1544.0</ele>
        <time>2019-07-07T07:18:42.825Z</time>
      </trkpt>
      <trkpt lat="42.92059833" lon="0.19649333">
        <ele>1544.0</ele>
        <time>2019-07-07T07:18:43.827Z</time>
      </trkpt>
      <trkpt lat="42.92058667" lon="0.196465">
        <ele>1545.0</ele>
        <time>2019-07-07T07:18:44.810Z</time>
      </trkpt>
      <trkpt lat="42.92058667" lon="0.196465">
        <ele>1545.0</ele>
        <time>2019-07-07T07:18:45.823Z</time>
      </trkpt>
      <trkpt lat="42.92056" lon="0.19640667">
        <ele>1545.0</ele>
        <time>2019-07-07T07:18:46.833Z</time>
      </trkpt>
      <trkpt lat="42.92056" lon="0.19640667">
        <ele>1545.0</ele>
        <time>2019-07-07T07:18:47.819Z</time>
      </trkpt>
      <trkpt lat="42.920535" lon="0.19634">
        <ele>1545.0</ele>
        <time>2019-07-07T07:18:48.827Z</time>
      </trkpt>
      <trkpt lat="42.920525" lon="0.19630667">
        <ele>1546.0</ele>
        <time>2019-07-07T07:18:49.814Z</time>
      </trkpt>
      <trkpt lat="42.920525" lon="0.19630667">
        <ele>1546.0</ele>
        <time>2019-07-07T07:18:50.830Z</time>
      </trkpt>
      <trkpt lat="42.92050333" lon="0.19624667">
        <ele>1546.0</ele>
        <time>2019-07-07T07:18:51.837Z</time>
      </trkpt>
      <trkpt lat="42.92050333" lon="0.19624667">
        <ele>1546.0</ele>
        <time>2019-07-07T07:18:52.820Z</time>
      </trkpt>
      <trkpt lat="42.92048333" lon="0.19618167">
        <ele>1546.0</ele>
        <time>2019-07-07T07:18:53.826Z</time>
      </trkpt>
      <trkpt lat="42.92047667" lon="0.19615">
        <ele>1546.0</ele>
        <time>2019-07-07T07:18:54.814Z</time>
      </trkpt>
      <trkpt lat="42.92047667" lon="0.19615">
        <ele>1546.0</ele>
        <time>2019-07-07T07:18:55.820Z</time>
      </trkpt>
      <trkpt lat="42.92045667" lon="0.19609333">
        <ele>1547.0</ele>
        <time>2019-07-07T07:18:56.826Z</time>
      </trkpt>
      <trkpt lat="42.92045667" lon="0.19609333">
        <ele>1547.0</ele>
        <time>2019-07-07T07:18:57.810Z</time>
      </trkpt>
      <trkpt lat="42.92044333" lon="0.19603833">
        <ele>1547.0</ele>
        <time>2019-07-07T07:18:58.860Z</time>
      </trkpt>
      <trkpt lat="42.92044333" lon="0.19603833">
        <ele>1547.0</ele>
        <time>2019-07-07T07:18:59.808Z</time>
      </trkpt>
      <trkpt lat="42.92042667" lon="0.19598">
        <ele>1547.0</ele>
        <time>2019-07-07T07:19:00.813Z</time>
      </trkpt>
      <trkpt lat="42.92041833" lon="0.19594833">
        <ele>1548.0</ele>
        <time>2019-07-07T07:19:01.834Z</time>
      </trkpt>
      <trkpt lat="42.92041833" lon="0.19594833">
        <ele>1548.0</ele>
        <time>2019-07-07T07:19:02.830Z</time>
      </trkpt>
      <trkpt lat="42.9204" lon="0.19588833">
        <ele>1548.0</ele>
        <time>2019-07-07T07:19:03.836Z</time>
      </trkpt>
      <trkpt lat="42.92039" lon="0.19585667">
        <ele>1548.0</ele>
        <time>2019-07-07T07:19:04.836Z</time>
      </trkpt>
      <trkpt lat="42.92039" lon="0.19585667">
        <ele>1548.0</ele>
        <time>2019-07-07T07:19:05.839Z</time>
      </trkpt>
      <trkpt lat="42.92037167" lon="0.1958">
        <ele>1549.0</ele>
        <time>2019-07-07T07:19:06.806Z</time>
      </trkpt>
      <trkpt lat="42.92037167" lon="0.1958">
        <ele>1549.0</ele>
        <time>2019-07-07T07:19:07.823Z</time>
      </trkpt>
      <trkpt lat="42.92035667" lon="0.19574167">
        <ele>1549.0</ele>
        <time>2019-07-07T07:19:08.837Z</time>
      </trkpt>
      <trkpt lat="42.92035667" lon="0.19574167">
        <ele>1549.0</ele>
        <time>2019-07-07T07:19:09.819Z</time>
      </trkpt>
      <trkpt lat="42.920335" lon="0.19568167">
        <ele>1550.0</ele>
        <time>2019-07-07T07:19:10.825Z</time>
      </trkpt>
      <trkpt lat="42.920335" lon="0.19568167">
        <ele>1550.0</ele>
        <time>2019-07-07T07:19:11.812Z</time>
      </trkpt>
      <trkpt lat="42.92032" lon="0.19561667">
        <ele>1550.0</ele>
        <time>2019-07-07T07:19:12.827Z</time>
      </trkpt>
      <trkpt lat="42.92030833" lon="0.19558167">
        <ele>1551.0</ele>
        <time>2019-07-07T07:19:13.815Z</time>
      </trkpt>
      <trkpt lat="42.92030833" lon="0.19558167">
        <ele>1551.0</ele>
        <time>2019-07-07T07:19:14.833Z</time>
      </trkpt>
      <trkpt lat="42.92028" lon="0.195525">
        <ele>1552.0</ele>
        <time>2019-07-07T07:19:15.806Z</time>
      </trkpt>
      <trkpt lat="42.92027167" lon="0.19549833">
        <ele>1552.0</ele>
        <time>2019-07-07T07:19:16.824Z</time>
      </trkpt>
      <trkpt lat="42.92027167" lon="0.19549833">
        <ele>1552.0</ele>
        <time>2019-07-07T07:19:17.809Z</time>
      </trkpt>
      <trkpt lat="42.92025167" lon="0.19544">
        <ele>1553.0</ele>
        <time>2019-07-07T07:19:18.817Z</time>
      </trkpt>
      <trkpt lat="42.92024167" lon="0.19541167">
        <ele>1553.0</ele>
        <time>2019-07-07T07:19:19.808Z</time>
      </trkpt>
      <trkpt lat="42.92024167" lon="0.19541167">
        <ele>1553.0</ele>
        <time>2019-07-07T07:19:20.832Z</time>
      </trkpt>
      <trkpt lat="42.920215" lon="0.195365">
        <ele>1554.0</ele>
        <time>2019-07-07T07:19:21.808Z</time>
      </trkpt>
      <trkpt lat="42.92020333" lon="0.19533667">
        <ele>1554.0</ele>
        <time>2019-07-07T07:19:22.814Z</time>
      </trkpt>
      <trkpt lat="42.92020333" lon="0.19533667">
        <ele>1554.0</ele>
        <time>2019-07-07T07:19:23.829Z</time>
      </trkpt>
      <trkpt lat="42.92018167" lon="0.19527333">
        <ele>1554.0</ele>
        <time>2019-07-07T07:19:24.816Z</time>
      </trkpt>
      <trkpt lat="42.92018167" lon="0.19527333">
        <ele>1554.0</ele>
        <time>2019-07-07T07:19:25.809Z</time>
      </trkpt>
      <trkpt lat="42.920165" lon="0.19521167">
        <ele>1555.0</ele>
        <time>2019-07-07T07:19:26.833Z</time>
      </trkpt>
      <trkpt lat="42.92015667" lon="0.19518167">
        <ele>1555.0</ele>
        <time>2019-07-07T07:19:27.816Z</time>
      </trkpt>
      <trkpt lat="42.92014667" lon="0.195155">
        <ele>1555.0</ele>
        <time>2019-07-07T07:19:28.830Z</time>
      </trkpt>
      <trkpt lat="42.92014667" lon="0.195155">
        <ele>1555.0</ele>
        <time>2019-07-07T07:19:29.816Z</time>
      </trkpt>
      <trkpt lat="42.92013167" lon="0.19509333">
        <ele>1556.0</ele>
        <time>2019-07-07T07:19:30.838Z</time>
      </trkpt>
      <trkpt lat="42.92012167" lon="0.195065">
        <ele>1556.0</ele>
        <time>2019-07-07T07:19:31.835Z</time>
      </trkpt>
      <trkpt lat="42.92012167" lon="0.195065">
        <ele>1556.0</ele>
        <time>2019-07-07T07:19:32.809Z</time>
      </trkpt>
      <trkpt lat="42.92009833" lon="0.19500667">
        <ele>1557.0</ele>
        <time>2019-07-07T07:19:33.821Z</time>
      </trkpt>
      <trkpt lat="42.92008667" lon="0.19497667">
        <ele>1557.0</ele>
        <time>2019-07-07T07:19:34.811Z</time>
      </trkpt>
      <trkpt lat="42.92008667" lon="0.19497667">
        <ele>1557.0</ele>
        <time>2019-07-07T07:19:35.819Z</time>
      </trkpt>
      <trkpt lat="42.920065" lon="0.19492">
        <ele>1558.0</ele>
        <time>2019-07-07T07:19:36.824Z</time>
      </trkpt>
      <trkpt lat="42.920065" lon="0.19492">
        <ele>1558.0</ele>
        <time>2019-07-07T07:19:37.837Z</time>
      </trkpt>
      <trkpt lat="42.920045" lon="0.19486167">
        <ele>1558.0</ele>
        <time>2019-07-07T07:19:38.812Z</time>
      </trkpt>
      <trkpt lat="42.920045" lon="0.19486167">
        <ele>1558.0</ele>
        <time>2019-07-07T07:19:39.819Z</time>
      </trkpt>
      <trkpt lat="42.92002333" lon="0.19480167">
        <ele>1559.0</ele>
        <time>2019-07-07T07:19:40.807Z</time>
      </trkpt>
      <trkpt lat="42.92001167" lon="0.194775">
        <ele>1559.0</ele>
        <time>2019-07-07T07:19:41.826Z</time>
      </trkpt>
      <trkpt lat="42.92001167" lon="0.194775">
        <ele>1559.0</ele>
        <time>2019-07-07T07:19:42.806Z</time>
      </trkpt>
      <trkpt lat="42.919995" lon="0.194715">
        <ele>1560.0</ele>
        <time>2019-07-07T07:19:43.818Z</time>
      </trkpt>
      <trkpt lat="42.919995" lon="0.194715">
        <ele>1560.0</ele>
        <time>2019-07-07T07:19:44.808Z</time>
      </trkpt>
      <trkpt lat="42.91997833" lon="0.194655">
        <ele>1561.0</ele>
        <time>2019-07-07T07:19:45.814Z</time>
      </trkpt>
      <trkpt lat="42.91995833" lon="0.19463">
        <ele>1561.0</ele>
        <time>2019-07-07T07:19:46.837Z</time>
      </trkpt>
      <trkpt lat="42.91995833" lon="0.19463">
        <ele>1561.0</ele>
        <time>2019-07-07T07:19:47.819Z</time>
      </trkpt>
      <trkpt lat="42.919935" lon="0.19456667">
        <ele>1561.0</ele>
        <time>2019-07-07T07:19:48.810Z</time>
      </trkpt>
      <trkpt lat="42.91992333" lon="0.194535">
        <ele>1562.0</ele>
        <time>2019-07-07T07:19:49.836Z</time>
      </trkpt>
      <trkpt lat="42.91992333" lon="0.194535">
        <ele>1562.0</ele>
        <time>2019-07-07T07:19:50.823Z</time>
      </trkpt>
      <trkpt lat="42.91990667" lon="0.19447167">
        <ele>1562.0</ele>
        <time>2019-07-07T07:19:51.830Z</time>
      </trkpt>
      <trkpt lat="42.91990167" lon="0.19444167">
        <ele>1562.0</ele>
        <time>2019-07-07T07:19:52.820Z</time>
      </trkpt>
      <trkpt lat="42.91990167" lon="0.19444167">
        <ele>1562.0</ele>
        <time>2019-07-07T07:19:53.825Z</time>
      </trkpt>
      <trkpt lat="42.919885" lon="0.19438333">
        <ele>1563.0</ele>
        <time>2019-07-07T07:19:54.804Z</time>
      </trkpt>
      <trkpt lat="42.91987667" lon="0.19435333">
        <ele>1563.0</ele>
        <time>2019-07-07T07:19:55.808Z</time>
      </trkpt>
      <trkpt lat="42.91987" lon="0.19432">
        <ele>1563.0</ele>
        <time>2019-07-07T07:19:56.825Z</time>
      </trkpt>
      <trkpt lat="42.91987" lon="0.19432">
        <ele>1563.0</ele>
        <time>2019-07-07T07:19:57.811Z</time>
      </trkpt>
      <trkpt lat="42.91985167" lon="0.19425667">
        <ele>1563.0</ele>
        <time>2019-07-07T07:19:58.817Z</time>
      </trkpt>
      <trkpt lat="42.91985167" lon="0.19425667">
        <ele>1563.0</ele>
        <time>2019-07-07T07:19:59.834Z</time>
      </trkpt>
      <trkpt lat="42.919835" lon="0.1942">
        <ele>1564.0</ele>
        <time>2019-07-07T07:20:00.815Z</time>
      </trkpt>
      <trkpt lat="42.91982833" lon="0.19417167">
        <ele>1564.0</ele>
        <time>2019-07-07T07:20:01.820Z</time>
      </trkpt>
      <trkpt lat="42.91982833" lon="0.19417167">
        <ele>1564.0</ele>
        <time>2019-07-07T07:20:02.829Z</time>
      </trkpt>
      <trkpt lat="42.91981333" lon="0.19411667">
        <ele>1565.0</ele>
        <time>2019-07-07T07:20:03.837Z</time>
      </trkpt>
      <trkpt lat="42.919805" lon="0.19408667">
        <ele>1565.0</ele>
        <time>2019-07-07T07:20:04.812Z</time>
      </trkpt>
      <trkpt lat="42.919805" lon="0.19408667">
        <ele>1565.0</ele>
        <time>2019-07-07T07:20:05.836Z</time>
      </trkpt>
      <trkpt lat="42.91978833" lon="0.19402667">
        <ele>1565.0</ele>
        <time>2019-07-07T07:20:06.817Z</time>
      </trkpt>
      <trkpt lat="42.91978833" lon="0.19402667">
        <ele>1565.0</ele>
        <time>2019-07-07T07:20:07.812Z</time>
      </trkpt>
      <trkpt lat="42.919775" lon="0.19396333">
        <ele>1565.0</ele>
        <time>2019-07-07T07:20:08.818Z</time>
      </trkpt>
      <trkpt lat="42.91977" lon="0.19393167">
        <ele>1566.0</ele>
        <time>2019-07-07T07:20:09.835Z</time>
      </trkpt>
      <trkpt lat="42.919765" lon="0.19389833">
        <ele>1566.0</ele>
        <time>2019-07-07T07:20:10.826Z</time>
      </trkpt>
      <trkpt lat="42.91975833" lon="0.193865">
        <ele>1566.0</ele>
        <time>2019-07-07T07:20:11.824Z</time>
      </trkpt>
      <trkpt lat="42.91975833" lon="0.193865">
        <ele>1566.0</ele>
        <time>2019-07-07T07:20:12.836Z</time>
      </trkpt>
      <trkpt lat="42.91975333" lon="0.1938">
        <ele>1567.0</ele>
        <time>2019-07-07T07:20:13.810Z</time>
      </trkpt>
      <trkpt lat="42.91975333" lon="0.1938">
        <ele>1567.0</ele>
        <time>2019-07-07T07:20:14.834Z</time>
      </trkpt>
      <trkpt lat="42.91974833" lon="0.193735">
        <ele>1567.0</ele>
        <time>2019-07-07T07:20:15.834Z</time>
      </trkpt>
      <trkpt lat="42.91974833" lon="0.193735">
        <ele>1567.0</ele>
        <time>2019-07-07T07:20:16.808Z</time>
      </trkpt>
      <trkpt lat="42.91971833" lon="0.19367">
        <ele>1568.0</ele>
        <time>2019-07-07T07:20:17.814Z</time>
      </trkpt>
      <trkpt lat="42.91971833" lon="0.19367">
        <ele>1568.0</ele>
        <time>2019-07-07T07:20:18.830Z</time>
      </trkpt>
      <trkpt lat="42.91971" lon="0.19360333">
        <ele>1568.0</ele>
        <time>2019-07-07T07:20:19.837Z</time>
      </trkpt>
      <trkpt lat="42.91971167" lon="0.19357333">
        <ele>1569.0</ele>
        <time>2019-07-07T07:20:20.837Z</time>
      </trkpt>
      <trkpt lat="42.91971167" lon="0.19357333">
        <ele>1569.0</ele>
        <time>2019-07-07T07:20:21.822Z</time>
      </trkpt>
      <trkpt lat="42.91972167" lon="0.193515">
        <ele>1570.0</ele>
        <time>2019-07-07T07:20:22.804Z</time>
      </trkpt>
      <trkpt lat="42.91972167" lon="0.193515">
        <ele>1570.0</ele>
        <time>2019-07-07T07:20:23.809Z</time>
      </trkpt>
      <trkpt lat="42.91973" lon="0.19345333">
        <ele>1571.0</ele>
        <time>2019-07-07T07:20:24.825Z</time>
      </trkpt>
      <trkpt lat="42.91972333" lon="0.19342167">
        <ele>1571.0</ele>
        <time>2019-07-07T07:20:25.810Z</time>
      </trkpt>
      <trkpt lat="42.91972333" lon="0.19339">
        <ele>1571.0</ele>
        <time>2019-07-07T07:20:26.839Z</time>
      </trkpt>
      <trkpt lat="42.91972333" lon="0.19339">
        <ele>1571.0</ele>
        <time>2019-07-07T07:20:27.811Z</time>
      </trkpt>
      <trkpt lat="42.91972333" lon="0.19333">
        <ele>1571.0</ele>
        <time>2019-07-07T07:20:28.818Z</time>
      </trkpt>
      <trkpt lat="42.91972333" lon="0.19333">
        <ele>1571.0</ele>
        <time>2019-07-07T07:20:29.810Z</time>
      </trkpt>
      <trkpt lat="42.91972333" lon="0.193265">
        <ele>1572.0</ele>
        <time>2019-07-07T07:20:30.816Z</time>
      </trkpt>
      <trkpt lat="42.91972333" lon="0.193265">
        <ele>1572.0</ele>
        <time>2019-07-07T07:20:31.840Z</time>
      </trkpt>
      <trkpt lat="42.91971833" lon="0.19319833">
        <ele>1572.0</ele>
        <time>2019-07-07T07:20:32.836Z</time>
      </trkpt>
      <trkpt lat="42.91971833" lon="0.19319833">
        <ele>1572.0</ele>
        <time>2019-07-07T07:20:33.819Z</time>
      </trkpt>
      <trkpt lat="42.91971167" lon="0.19313167">
        <ele>1572.0</ele>
        <time>2019-07-07T07:20:34.826Z</time>
      </trkpt>
      <trkpt lat="42.91971167" lon="0.19309833">
        <ele>1572.0</ele>
        <time>2019-07-07T07:20:35.837Z</time>
      </trkpt>
      <trkpt lat="42.91971167" lon="0.19309833">
        <ele>1572.0</ele>
        <time>2019-07-07T07:20:36.822Z</time>
      </trkpt>
      <trkpt lat="42.91970833" lon="0.19303667">
        <ele>1572.0</ele>
        <time>2019-07-07T07:20:37.829Z</time>
      </trkpt>
      <trkpt lat="42.91970833" lon="0.193005">
        <ele>1573.0</ele>
        <time>2019-07-07T07:20:38.824Z</time>
      </trkpt>
      <trkpt lat="42.91971" lon="0.19297833">
        <ele>1573.0</ele>
        <time>2019-07-07T07:20:39.810Z</time>
      </trkpt>
      <trkpt lat="42.91971" lon="0.19297833">
        <ele>1573.0</ele>
        <time>2019-07-07T07:20:40.840Z</time>
      </trkpt>
      <trkpt lat="42.91971167" lon="0.19292">
        <ele>1573.0</ele>
        <time>2019-07-07T07:20:41.807Z</time>
      </trkpt>
      <trkpt lat="42.91971333" lon="0.19288667">
        <ele>1574.0</ele>
        <time>2019-07-07T07:20:42.832Z</time>
      </trkpt>
      <trkpt lat="42.919715" lon="0.192855">
        <ele>1574.0</ele>
        <time>2019-07-07T07:20:43.812Z</time>
      </trkpt>
      <trkpt lat="42.919715" lon="0.192855">
        <ele>1574.0</ele>
        <time>2019-07-07T07:20:44.838Z</time>
      </trkpt>
      <trkpt lat="42.91971333" lon="0.19279">
        <ele>1574.0</ele>
        <time>2019-07-07T07:20:45.805Z</time>
      </trkpt>
      <trkpt lat="42.91971333" lon="0.19279">
        <ele>1574.0</ele>
        <time>2019-07-07T07:20:46.831Z</time>
      </trkpt>
      <trkpt lat="42.91971667" lon="0.19272833">
        <ele>1575.0</ele>
        <time>2019-07-07T07:20:47.836Z</time>
      </trkpt>
      <trkpt lat="42.91971667" lon="0.19272833">
        <ele>1575.0</ele>
        <time>2019-07-07T07:20:48.840Z</time>
      </trkpt>
      <trkpt lat="42.91971167" lon="0.19267">
        <ele>1575.0</ele>
        <time>2019-07-07T07:20:49.807Z</time>
      </trkpt>
      <trkpt lat="42.91971167" lon="0.19267">
        <ele>1575.0</ele>
        <time>2019-07-07T07:20:50.826Z</time>
      </trkpt>
      <trkpt lat="42.919705" lon="0.1926">
        <ele>1576.0</ele>
        <time>2019-07-07T07:20:51.823Z</time>
      </trkpt>
      <trkpt lat="42.919705" lon="0.1926">
        <ele>1576.0</ele>
        <time>2019-07-07T07:20:52.835Z</time>
      </trkpt>
      <trkpt lat="42.91970333" lon="0.19253167">
        <ele>1576.0</ele>
        <time>2019-07-07T07:20:53.802Z</time>
      </trkpt>
      <trkpt lat="42.91970333" lon="0.19249667">
        <ele>1577.0</ele>
        <time>2019-07-07T07:20:54.826Z</time>
      </trkpt>
      <trkpt lat="42.91970333" lon="0.19249667">
        <ele>1577.0</ele>
        <time>2019-07-07T07:20:55.824Z</time>
      </trkpt>
      <trkpt lat="42.9197" lon="0.19243">
        <ele>1577.0</ele>
        <time>2019-07-07T07:20:56.832Z</time>
      </trkpt>
      <trkpt lat="42.9197" lon="0.19243">
        <ele>1577.0</ele>
        <time>2019-07-07T07:20:57.817Z</time>
      </trkpt>
      <trkpt lat="42.91969333" lon="0.19236167">
        <ele>1578.0</ele>
        <time>2019-07-07T07:20:58.803Z</time>
      </trkpt>
      <trkpt lat="42.91969333" lon="0.19236167">
        <ele>1578.0</ele>
        <time>2019-07-07T07:20:59.824Z</time>
      </trkpt>
      <trkpt lat="42.919685" lon="0.19229667">
        <ele>1578.0</ele>
        <time>2019-07-07T07:21:00.830Z</time>
      </trkpt>
      <trkpt lat="42.91968" lon="0.19226333">
        <ele>1578.0</ele>
        <time>2019-07-07T07:21:01.820Z</time>
      </trkpt>
      <trkpt lat="42.91968" lon="0.19226333">
        <ele>1578.0</ele>
        <time>2019-07-07T07:21:02.810Z</time>
      </trkpt>
      <trkpt lat="42.91967" lon="0.19219833">
        <ele>1579.0</ele>
        <time>2019-07-07T07:21:03.817Z</time>
      </trkpt>
      <trkpt lat="42.919665" lon="0.19216333">
        <ele>1579.0</ele>
        <time>2019-07-07T07:21:04.838Z</time>
      </trkpt>
      <trkpt lat="42.919665" lon="0.19216333">
        <ele>1579.0</ele>
        <time>2019-07-07T07:21:05.839Z</time>
      </trkpt>
      <trkpt lat="42.91965333" lon="0.19209833">
        <ele>1579.0</ele>
        <time>2019-07-07T07:21:06.809Z</time>
      </trkpt>
      <trkpt lat="42.91965333" lon="0.19209833">
        <ele>1579.0</ele>
        <time>2019-07-07T07:21:07.827Z</time>
      </trkpt>
      <trkpt lat="42.91964167" lon="0.19204">
        <ele>1580.0</ele>
        <time>2019-07-07T07:21:08.836Z</time>
      </trkpt>
      <trkpt lat="42.91964167" lon="0.19204">
        <ele>1580.0</ele>
        <time>2019-07-07T07:21:09.840Z</time>
      </trkpt>
      <trkpt lat="42.91963167" lon="0.19197667">
        <ele>1581.0</ele>
        <time>2019-07-07T07:21:10.806Z</time>
      </trkpt>
      <trkpt lat="42.91962833" lon="0.191945">
        <ele>1581.0</ele>
        <time>2019-07-07T07:21:11.820Z</time>
      </trkpt>
      <trkpt lat="42.91962833" lon="0.191945">
        <ele>1581.0</ele>
        <time>2019-07-07T07:21:12.829Z</time>
      </trkpt>
      <trkpt lat="42.91961833" lon="0.19188333">
        <ele>1581.0</ele>
        <time>2019-07-07T07:21:13.835Z</time>
      </trkpt>
      <trkpt lat="42.91961167" lon="0.19185333">
        <ele>1582.0</ele>
        <time>2019-07-07T07:21:14.812Z</time>
      </trkpt>
      <trkpt lat="42.91961167" lon="0.19185333">
        <ele>1582.0</ele>
        <time>2019-07-07T07:21:15.810Z</time>
      </trkpt>
      <trkpt lat="42.9196" lon="0.19179333">
        <ele>1582.0</ele>
        <time>2019-07-07T07:21:16.818Z</time>
      </trkpt>
      <trkpt lat="42.9196" lon="0.19179333">
        <ele>1582.0</ele>
        <time>2019-07-07T07:21:17.803Z</time>
      </trkpt>
      <trkpt lat="42.919585" lon="0.191735">
        <ele>1583.0</ele>
        <time>2019-07-07T07:21:18.826Z</time>
      </trkpt>
      <trkpt lat="42.91958" lon="0.19170333">
        <ele>1583.0</ele>
        <time>2019-07-07T07:21:19.811Z</time>
      </trkpt>
      <trkpt lat="42.91958" lon="0.19170333">
        <ele>1583.0</ele>
        <time>2019-07-07T07:21:20.827Z</time>
      </trkpt>
      <trkpt lat="42.91957" lon="0.19164167">
        <ele>1583.0</ele>
        <time>2019-07-07T07:21:21.837Z</time>
      </trkpt>
      <trkpt lat="42.91956167" lon="0.19161167">
        <ele>1583.0</ele>
        <time>2019-07-07T07:21:22.811Z</time>
      </trkpt>
      <trkpt lat="42.91956167" lon="0.19161167">
        <ele>1583.0</ele>
        <time>2019-07-07T07:21:23.835Z</time>
      </trkpt>
      <trkpt lat="42.91954667" lon="0.19155333">
        <ele>1584.0</ele>
        <time>2019-07-07T07:21:24.809Z</time>
      </trkpt>
      <trkpt lat="42.91953667" lon="0.19152333">
        <ele>1584.0</ele>
        <time>2019-07-07T07:21:25.834Z</time>
      </trkpt>
      <trkpt lat="42.91953667" lon="0.19152333">
        <ele>1584.0</ele>
        <time>2019-07-07T07:21:26.820Z</time>
      </trkpt>
      <trkpt lat="42.91951667" lon="0.19147167">
        <ele>1585.0</ele>
        <time>2019-07-07T07:21:27.827Z</time>
      </trkpt>
      <trkpt lat="42.91951667" lon="0.19147167">
        <ele>1585.0</ele>
        <time>2019-07-07T07:21:28.812Z</time>
      </trkpt>
      <trkpt lat="42.919495" lon="0.191415">
        <ele>1585.0</ele>
        <time>2019-07-07T07:21:29.819Z</time>
      </trkpt>
      <trkpt lat="42.919495" lon="0.191415">
        <ele>1585.0</ele>
        <time>2019-07-07T07:21:30.834Z</time>
      </trkpt>
      <trkpt lat="42.919475" lon="0.19136">
        <ele>1586.0</ele>
        <time>2019-07-07T07:21:31.819Z</time>
      </trkpt>
      <trkpt lat="42.919475" lon="0.19136">
        <ele>1586.0</ele>
        <time>2019-07-07T07:21:32.840Z</time>
      </trkpt>
      <trkpt lat="42.91945333" lon="0.19130333">
        <ele>1586.0</ele>
        <time>2019-07-07T07:21:33.809Z</time>
      </trkpt>
      <trkpt lat="42.91944" lon="0.19128167">
        <ele>1586.0</ele>
        <time>2019-07-07T07:21:34.832Z</time>
      </trkpt>
      <trkpt lat="42.91944" lon="0.19128167">
        <ele>1586.0</ele>
        <time>2019-07-07T07:21:35.811Z</time>
      </trkpt>
      <trkpt lat="42.919415" lon="0.19123333">
        <ele>1587.0</ele>
        <time>2019-07-07T07:21:36.816Z</time>
      </trkpt>
      <trkpt lat="42.9194" lon="0.19121167">
        <ele>1587.0</ele>
        <time>2019-07-07T07:21:37.840Z</time>
      </trkpt>
      <trkpt lat="42.9194" lon="0.19121167">
        <ele>1587.0</ele>
        <time>2019-07-07T07:21:38.836Z</time>
      </trkpt>
      <trkpt lat="42.91937" lon="0.19116333">
        <ele>1587.0</ele>
        <time>2019-07-07T07:21:39.807Z</time>
      </trkpt>
      <trkpt lat="42.91935667" lon="0.19113833">
        <ele>1588.0</ele>
        <time>2019-07-07T07:21:40.819Z</time>
      </trkpt>
      <trkpt lat="42.91935667" lon="0.19113833">
        <ele>1588.0</ele>
        <time>2019-07-07T07:21:41.814Z</time>
      </trkpt>
      <trkpt lat="42.91932667" lon="0.19109167">
        <ele>1588.0</ele>
        <time>2019-07-07T07:21:42.826Z</time>
      </trkpt>
      <trkpt lat="42.91932667" lon="0.19109167">
        <ele>1588.0</ele>
        <time>2019-07-07T07:21:43.840Z</time>
      </trkpt>
      <trkpt lat="42.91929333" lon="0.19104833">
        <ele>1589.0</ele>
        <time>2019-07-07T07:21:44.815Z</time>
      </trkpt>
      <trkpt lat="42.91929333" lon="0.19104833">
        <ele>1589.0</ele>
        <time>2019-07-07T07:21:45.815Z</time>
      </trkpt>
      <trkpt lat="42.91926" lon="0.19101">
        <ele>1589.0</ele>
        <time>2019-07-07T07:21:46.836Z</time>
      </trkpt>
      <trkpt lat="42.91926" lon="0.19101">
        <ele>1589.0</ele>
        <time>2019-07-07T07:21:47.831Z</time>
      </trkpt>
      <trkpt lat="42.919225" lon="0.19096667">
        <ele>1589.0</ele>
        <time>2019-07-07T07:21:48.809Z</time>
      </trkpt>
      <trkpt lat="42.91920833" lon="0.19094667">
        <ele>1590.0</ele>
        <time>2019-07-07T07:21:49.806Z</time>
      </trkpt>
      <trkpt lat="42.91920833" lon="0.19094667">
        <ele>1590.0</ele>
        <time>2019-07-07T07:21:50.827Z</time>
      </trkpt>
      <trkpt lat="42.91917333" lon="0.19090667">
        <ele>1590.0</ele>
        <time>2019-07-07T07:21:51.835Z</time>
      </trkpt>
      <trkpt lat="42.91917333" lon="0.19090667">
        <ele>1590.0</ele>
        <time>2019-07-07T07:21:52.820Z</time>
      </trkpt>
      <trkpt lat="42.91913667" lon="0.19087">
        <ele>1590.0</ele>
        <time>2019-07-07T07:21:53.826Z</time>
      </trkpt>
      <trkpt lat="42.919115" lon="0.19085333">
        <ele>1591.0</ele>
        <time>2019-07-07T07:21:54.825Z</time>
      </trkpt>
      <trkpt lat="42.919115" lon="0.19085333">
        <ele>1591.0</ele>
        <time>2019-07-07T07:21:55.831Z</time>
      </trkpt>
      <trkpt lat="42.91908" lon="0.190815">
        <ele>1591.0</ele>
        <time>2019-07-07T07:21:56.839Z</time>
      </trkpt>
      <trkpt lat="42.91905333" lon="0.190795">
        <ele>1591.0</ele>
        <time>2019-07-07T07:21:57.839Z</time>
      </trkpt>
      <trkpt lat="42.91905333" lon="0.190795">
        <ele>1591.0</ele>
        <time>2019-07-07T07:21:58.819Z</time>
      </trkpt>
      <trkpt lat="42.91901667" lon="0.19076167">
        <ele>1592.0</ele>
        <time>2019-07-07T07:21:59.836Z</time>
      </trkpt>
      <trkpt lat="42.91901667" lon="0.19076167">
        <ele>1592.0</ele>
        <time>2019-07-07T07:22:00.802Z</time>
      </trkpt>
      <trkpt lat="42.91897667" lon="0.190725">
        <ele>1592.0</ele>
        <time>2019-07-07T07:22:01.809Z</time>
      </trkpt>
      <trkpt lat="42.91897667" lon="0.190725">
        <ele>1592.0</ele>
        <time>2019-07-07T07:22:02.819Z</time>
      </trkpt>
      <trkpt lat="42.91894167" lon="0.19068333">
        <ele>1593.0</ele>
        <time>2019-07-07T07:22:03.805Z</time>
      </trkpt>
      <trkpt lat="42.91892333" lon="0.19066">
        <ele>1593.0</ele>
        <time>2019-07-07T07:22:04.829Z</time>
      </trkpt>
      <trkpt lat="42.91892333" lon="0.19066">
        <ele>1593.0</ele>
        <time>2019-07-07T07:22:05.835Z</time>
      </trkpt>
      <trkpt lat="42.91889" lon="0.190615">
        <ele>1594.0</ele>
        <time>2019-07-07T07:22:06.804Z</time>
      </trkpt>
      <trkpt lat="42.91889" lon="0.190615">
        <ele>1594.0</ele>
        <time>2019-07-07T07:22:07.840Z</time>
      </trkpt>
      <trkpt lat="42.91885167" lon="0.19058">
        <ele>1595.0</ele>
        <time>2019-07-07T07:22:08.816Z</time>
      </trkpt>
      <trkpt lat="42.918835" lon="0.19056">
        <ele>1595.0</ele>
        <time>2019-07-07T07:22:09.801Z</time>
      </trkpt>
      <trkpt lat="42.918835" lon="0.19056">
        <ele>1595.0</ele>
        <time>2019-07-07T07:22:10.820Z</time>
      </trkpt>
      <trkpt lat="42.91879667" lon="0.19052667">
        <ele>1595.0</ele>
        <time>2019-07-07T07:22:11.828Z</time>
      </trkpt>
      <trkpt lat="42.91879667" lon="0.19052667">
        <ele>1595.0</ele>
        <time>2019-07-07T07:22:12.803Z</time>
      </trkpt>
      <trkpt lat="42.91875667" lon="0.19048667">
        <ele>1596.0</ele>
        <time>2019-07-07T07:22:13.806Z</time>
      </trkpt>
      <trkpt lat="42.91875667" lon="0.19048667">
        <ele>1596.0</ele>
        <time>2019-07-07T07:22:14.834Z</time>
      </trkpt>
      <trkpt lat="42.91872167" lon="0.19044333">
        <ele>1596.0</ele>
        <time>2019-07-07T07:22:15.801Z</time>
      </trkpt>
      <trkpt lat="42.91870167" lon="0.19041667">
        <ele>1597.0</ele>
        <time>2019-07-07T07:22:16.832Z</time>
      </trkpt>
      <trkpt lat="42.91870167" lon="0.19041667">
        <ele>1597.0</ele>
        <time>2019-07-07T07:22:17.801Z</time>
      </trkpt>
      <trkpt lat="42.918665" lon="0.19036833">
        <ele>1597.0</ele>
        <time>2019-07-07T07:22:18.812Z</time>
      </trkpt>
      <trkpt lat="42.918665" lon="0.19036833">
        <ele>1597.0</ele>
        <time>2019-07-07T07:22:19.818Z</time>
      </trkpt>
      <trkpt lat="42.91862667" lon="0.190325">
        <ele>1597.0</ele>
        <time>2019-07-07T07:22:20.836Z</time>
      </trkpt>
      <trkpt lat="42.91860833" lon="0.190305">
        <ele>1598.0</ele>
        <time>2019-07-07T07:22:21.833Z</time>
      </trkpt>
      <trkpt lat="42.91860833" lon="0.190305">
        <ele>1598.0</ele>
        <time>2019-07-07T07:22:22.807Z</time>
      </trkpt>
      <trkpt lat="42.918575" lon="0.19026833">
        <ele>1598.0</ele>
        <time>2019-07-07T07:22:23.813Z</time>
      </trkpt>
      <trkpt lat="42.918575" lon="0.19026833">
        <ele>1598.0</ele>
        <time>2019-07-07T07:22:24.830Z</time>
      </trkpt>
      <trkpt lat="42.91853833" lon="0.19023833">
        <ele>1599.0</ele>
        <time>2019-07-07T07:22:25.837Z</time>
      </trkpt>
      <trkpt lat="42.91851833" lon="0.19022">
        <ele>1599.0</ele>
        <time>2019-07-07T07:22:26.813Z</time>
      </trkpt>
      <trkpt lat="42.91851833" lon="0.19022">
        <ele>1599.0</ele>
        <time>2019-07-07T07:22:27.839Z</time>
      </trkpt>
      <trkpt lat="42.91848833" lon="0.19019">
        <ele>1600.0</ele>
        <time>2019-07-07T07:22:28.815Z</time>
      </trkpt>
      <trkpt lat="42.91847" lon="0.19017167">
        <ele>1600.0</ele>
        <time>2019-07-07T07:22:29.830Z</time>
      </trkpt>
      <trkpt lat="42.91847" lon="0.19017167">
        <ele>1600.0</ele>
        <time>2019-07-07T07:22:30.839Z</time>
      </trkpt>
      <trkpt lat="42.918425" lon="0.190135">
        <ele>1600.0</ele>
        <time>2019-07-07T07:22:31.818Z</time>
      </trkpt>
      <trkpt lat="42.918425" lon="0.190135">
        <ele>1600.0</ele>
        <time>2019-07-07T07:22:32.807Z</time>
      </trkpt>
      <trkpt lat="42.918385" lon="0.19009333">
        <ele>1601.0</ele>
        <time>2019-07-07T07:22:33.819Z</time>
      </trkpt>
      <trkpt lat="42.918385" lon="0.19009333">
        <ele>1601.0</ele>
        <time>2019-07-07T07:22:34.840Z</time>
      </trkpt>
      <trkpt lat="42.918355" lon="0.190055">
        <ele>1601.0</ele>
        <time>2019-07-07T07:22:35.807Z</time>
      </trkpt>
      <trkpt lat="42.91833667" lon="0.19004">
        <ele>1602.0</ele>
        <time>2019-07-07T07:22:36.831Z</time>
      </trkpt>
      <trkpt lat="42.91833667" lon="0.19004">
        <ele>1602.0</ele>
        <time>2019-07-07T07:22:37.816Z</time>
      </trkpt>
      <trkpt lat="42.9183" lon="0.19000667">
        <ele>1603.0</ele>
        <time>2019-07-07T07:22:38.822Z</time>
      </trkpt>
      <trkpt lat="42.9183" lon="0.19000667">
        <ele>1603.0</ele>
        <time>2019-07-07T07:22:39.807Z</time>
      </trkpt>
      <trkpt lat="42.91826" lon="0.18997">
        <ele>1603.0</ele>
        <time>2019-07-07T07:22:40.807Z</time>
      </trkpt>
      <trkpt lat="42.91826" lon="0.18997">
        <ele>1603.0</ele>
        <time>2019-07-07T07:22:41.805Z</time>
      </trkpt>
      <trkpt lat="42.91822" lon="0.18993167">
        <ele>1604.0</ele>
        <time>2019-07-07T07:22:42.821Z</time>
      </trkpt>
      <trkpt lat="42.91822" lon="0.18993167">
        <ele>1604.0</ele>
        <time>2019-07-07T07:22:43.809Z</time>
      </trkpt>
      <trkpt lat="42.91818" lon="0.189895">
        <ele>1604.0</ele>
        <time>2019-07-07T07:22:44.826Z</time>
      </trkpt>
      <trkpt lat="42.918155" lon="0.18987667">
        <ele>1604.0</ele>
        <time>2019-07-07T07:22:45.827Z</time>
      </trkpt>
      <trkpt lat="42.918155" lon="0.18987667">
        <ele>1604.0</ele>
        <time>2019-07-07T07:22:46.809Z</time>
      </trkpt>
      <trkpt lat="42.91811833" lon="0.18983833">
        <ele>1605.0</ele>
        <time>2019-07-07T07:22:47.828Z</time>
      </trkpt>
      <trkpt lat="42.91811833" lon="0.18983833">
        <ele>1605.0</ele>
        <time>2019-07-07T07:22:48.831Z</time>
      </trkpt>
      <trkpt lat="42.918085" lon="0.18979667">
        <ele>1605.0</ele>
        <time>2019-07-07T07:22:49.824Z</time>
      </trkpt>
      <trkpt lat="42.918085" lon="0.18979667">
        <ele>1605.0</ele>
        <time>2019-07-07T07:22:50.828Z</time>
      </trkpt>
      <trkpt lat="42.91805" lon="0.18975333">
        <ele>1606.0</ele>
        <time>2019-07-07T07:22:51.834Z</time>
      </trkpt>
      <trkpt lat="42.91803167" lon="0.18973167">
        <ele>1606.0</ele>
        <time>2019-07-07T07:22:52.819Z</time>
      </trkpt>
      <trkpt lat="42.91803167" lon="0.18973167">
        <ele>1606.0</ele>
        <time>2019-07-07T07:22:53.808Z</time>
      </trkpt>
      <trkpt lat="42.91799667" lon="0.18969333">
        <ele>1607.0</ele>
        <time>2019-07-07T07:22:54.818Z</time>
      </trkpt>
      <trkpt lat="42.91798" lon="0.189675">
        <ele>1607.0</ele>
        <time>2019-07-07T07:22:55.837Z</time>
      </trkpt>
      <trkpt lat="42.91798" lon="0.189675">
        <ele>1607.0</ele>
        <time>2019-07-07T07:22:56.830Z</time>
      </trkpt>
      <trkpt lat="42.91795" lon="0.18963333">
        <ele>1608.0</ele>
        <time>2019-07-07T07:22:57.836Z</time>
      </trkpt>
      <trkpt lat="42.917935" lon="0.18961167">
        <ele>1608.0</ele>
        <time>2019-07-07T07:22:58.825Z</time>
      </trkpt>
      <trkpt lat="42.917935" lon="0.18961167">
        <ele>1608.0</ele>
        <time>2019-07-07T07:22:59.831Z</time>
      </trkpt>
      <trkpt lat="42.91789833" lon="0.18956833">
        <ele>1608.0</ele>
        <time>2019-07-07T07:23:00.838Z</time>
      </trkpt>
      <trkpt lat="42.91788" lon="0.18954667">
        <ele>1608.0</ele>
        <time>2019-07-07T07:23:01.830Z</time>
      </trkpt>
      <trkpt lat="42.91788" lon="0.18954667">
        <ele>1608.0</ele>
        <time>2019-07-07T07:23:02.829Z</time>
      </trkpt>
      <trkpt lat="42.917845" lon="0.189505">
        <ele>1609.0</ele>
        <time>2019-07-07T07:23:03.835Z</time>
      </trkpt>
      <trkpt lat="42.917845" lon="0.189505">
        <ele>1609.0</ele>
        <time>2019-07-07T07:23:04.815Z</time>
      </trkpt>
      <trkpt lat="42.91781" lon="0.18946667">
        <ele>1609.0</ele>
        <time>2019-07-07T07:23:05.837Z</time>
      </trkpt>
      <trkpt lat="42.91781" lon="0.18946667">
        <ele>1609.0</ele>
        <time>2019-07-07T07:23:06.812Z</time>
      </trkpt>
      <trkpt lat="42.91777833" lon="0.18942333">
        <ele>1609.0</ele>
        <time>2019-07-07T07:23:07.817Z</time>
      </trkpt>
      <trkpt lat="42.91777833" lon="0.18942333">
        <ele>1609.0</ele>
        <time>2019-07-07T07:23:08.831Z</time>
      </trkpt>
      <trkpt lat="42.91774333" lon="0.189375">
        <ele>1610.0</ele>
        <time>2019-07-07T07:23:09.803Z</time>
      </trkpt>
      <trkpt lat="42.91774333" lon="0.189375">
        <ele>1610.0</ele>
        <time>2019-07-07T07:23:10.813Z</time>
      </trkpt>
      <trkpt lat="42.91771" lon="0.18933">
        <ele>1610.0</ele>
        <time>2019-07-07T07:23:11.837Z</time>
      </trkpt>
      <trkpt lat="42.91771" lon="0.18933">
        <ele>1610.0</ele>
        <time>2019-07-07T07:23:12.828Z</time>
      </trkpt>
      <trkpt lat="42.91768" lon="0.18928833">
        <ele>1610.0</ele>
        <time>2019-07-07T07:23:13.804Z</time>
      </trkpt>
      <trkpt lat="42.91768" lon="0.18928833">
        <ele>1610.0</ele>
        <time>2019-07-07T07:23:14.819Z</time>
      </trkpt>
      <trkpt lat="42.91765167" lon="0.18924333">
        <ele>1611.0</ele>
        <time>2019-07-07T07:23:15.815Z</time>
      </trkpt>
      <trkpt lat="42.91763667" lon="0.18922">
        <ele>1612.0</ele>
        <time>2019-07-07T07:23:16.822Z</time>
      </trkpt>
      <trkpt lat="42.91763667" lon="0.18922">
        <ele>1612.0</ele>
        <time>2019-07-07T07:23:17.812Z</time>
      </trkpt>
      <trkpt lat="42.91760667" lon="0.18917667">
        <ele>1612.0</ele>
        <time>2019-07-07T07:23:18.819Z</time>
      </trkpt>
      <trkpt lat="42.91758667" lon="0.189155">
        <ele>1612.0</ele>
        <time>2019-07-07T07:23:19.827Z</time>
      </trkpt>
      <trkpt lat="42.91758667" lon="0.189155">
        <ele>1612.0</ele>
        <time>2019-07-07T07:23:20.840Z</time>
      </trkpt>
      <trkpt lat="42.91755" lon="0.18911333">
        <ele>1613.0</ele>
        <time>2019-07-07T07:23:21.805Z</time>
      </trkpt>
      <trkpt lat="42.91755" lon="0.18911333">
        <ele>1613.0</ele>
        <time>2019-07-07T07:23:22.833Z</time>
      </trkpt>
      <trkpt lat="42.91751333" lon="0.18907167">
        <ele>1614.0</ele>
        <time>2019-07-07T07:23:23.840Z</time>
      </trkpt>
      <trkpt lat="42.91751333" lon="0.18907167">
        <ele>1614.0</ele>
        <time>2019-07-07T07:23:24.824Z</time>
      </trkpt>
      <trkpt lat="42.91747833" lon="0.18903167">
        <ele>1615.0</ele>
        <time>2019-07-07T07:23:25.841Z</time>
      </trkpt>
      <trkpt lat="42.91747833" lon="0.18903167">
        <ele>1615.0</ele>
        <time>2019-07-07T07:23:26.821Z</time>
      </trkpt>
      <trkpt lat="42.91744" lon="0.18898833">
        <ele>1615.0</ele>
        <time>2019-07-07T07:23:27.827Z</time>
      </trkpt>
      <trkpt lat="42.91742" lon="0.18897">
        <ele>1615.0</ele>
        <time>2019-07-07T07:23:28.814Z</time>
      </trkpt>
      <trkpt lat="42.91742" lon="0.18897">
        <ele>1615.0</ele>
        <time>2019-07-07T07:23:29.826Z</time>
      </trkpt>
      <trkpt lat="42.917375" lon="0.18893833">
        <ele>1616.0</ele>
        <time>2019-07-07T07:23:30.833Z</time>
      </trkpt>
      <trkpt lat="42.917355" lon="0.18892167">
        <ele>1616.0</ele>
        <time>2019-07-07T07:23:31.830Z</time>
      </trkpt>
      <trkpt lat="42.917355" lon="0.18892167">
        <ele>1616.0</ele>
        <time>2019-07-07T07:23:32.819Z</time>
      </trkpt>
      <trkpt lat="42.91731667" lon="0.18888833">
        <ele>1617.0</ele>
        <time>2019-07-07T07:23:33.827Z</time>
      </trkpt>
      <trkpt lat="42.917295" lon="0.18886667">
        <ele>1617.0</ele>
        <time>2019-07-07T07:23:34.804Z</time>
      </trkpt>
      <trkpt lat="42.917275" lon="0.18884833">
        <ele>1617.0</ele>
        <time>2019-07-07T07:23:35.837Z</time>
      </trkpt>
      <trkpt lat="42.917275" lon="0.18884833">
        <ele>1617.0</ele>
        <time>2019-07-07T07:23:36.822Z</time>
      </trkpt>
      <trkpt lat="42.91723333" lon="0.18881333">
        <ele>1618.0</ele>
        <time>2019-07-07T07:23:37.828Z</time>
      </trkpt>
      <trkpt lat="42.91723333" lon="0.18881333">
        <ele>1618.0</ele>
        <time>2019-07-07T07:23:38.820Z</time>
      </trkpt>
      <trkpt lat="42.91718833" lon="0.18878333">
        <ele>1618.0</ele>
        <time>2019-07-07T07:23:39.834Z</time>
      </trkpt>
      <trkpt lat="42.91716833" lon="0.18876667">
        <ele>1618.0</ele>
        <time>2019-07-07T07:23:40.824Z</time>
      </trkpt>
      <trkpt lat="42.91714667" lon="0.18875167">
        <ele>1619.0</ele>
        <time>2019-07-07T07:23:41.820Z</time>
      </trkpt>
      <trkpt lat="42.91714667" lon="0.18875167">
        <ele>1619.0</ele>
        <time>2019-07-07T07:23:42.820Z</time>
      </trkpt>
      <trkpt lat="42.91710333" lon="0.18872">
        <ele>1619.0</ele>
        <time>2019-07-07T07:23:43.828Z</time>
      </trkpt>
      <trkpt lat="42.91710333" lon="0.18872">
        <ele>1619.0</ele>
        <time>2019-07-07T07:23:44.813Z</time>
      </trkpt>
      <trkpt lat="42.91706667" lon="0.188685">
        <ele>1620.0</ele>
        <time>2019-07-07T07:23:45.805Z</time>
      </trkpt>
      <trkpt lat="42.91704833" lon="0.18866667">
        <ele>1620.0</ele>
        <time>2019-07-07T07:23:46.828Z</time>
      </trkpt>
      <trkpt lat="42.91704833" lon="0.18866667">
        <ele>1620.0</ele>
        <time>2019-07-07T07:23:47.819Z</time>
      </trkpt>
      <trkpt lat="42.91701333" lon="0.18862833">
        <ele>1621.0</ele>
        <time>2019-07-07T07:23:48.807Z</time>
      </trkpt>
      <trkpt lat="42.91699333" lon="0.18861167">
        <ele>1621.0</ele>
        <time>2019-07-07T07:23:49.824Z</time>
      </trkpt>
      <trkpt lat="42.91697167" lon="0.188595">
        <ele>1621.0</ele>
        <time>2019-07-07T07:23:50.814Z</time>
      </trkpt>
      <trkpt lat="42.91695" lon="0.18858">
        <ele>1621.0</ele>
        <time>2019-07-07T07:23:51.840Z</time>
      </trkpt>
      <trkpt lat="42.91695" lon="0.18858">
        <ele>1621.0</ele>
        <time>2019-07-07T07:23:52.814Z</time>
      </trkpt>
      <trkpt lat="42.91691667" lon="0.18854333">
        <ele>1622.0</ele>
        <time>2019-07-07T07:23:53.823Z</time>
      </trkpt>
      <trkpt lat="42.91691667" lon="0.18854333">
        <ele>1622.0</ele>
        <time>2019-07-07T07:23:54.831Z</time>
      </trkpt>
      <trkpt lat="42.91688833" lon="0.18850833">
        <ele>1622.0</ele>
        <time>2019-07-07T07:23:55.837Z</time>
      </trkpt>
      <trkpt lat="42.91687333" lon="0.18849">
        <ele>1622.0</ele>
        <time>2019-07-07T07:23:56.834Z</time>
      </trkpt>
      <trkpt lat="42.91687333" lon="0.18849">
        <ele>1622.0</ele>
        <time>2019-07-07T07:23:57.840Z</time>
      </trkpt>
      <trkpt lat="42.91684" lon="0.18845167">
        <ele>1623.0</ele>
        <time>2019-07-07T07:23:58.812Z</time>
      </trkpt>
      <trkpt lat="42.91684" lon="0.18845167">
        <ele>1623.0</ele>
        <time>2019-07-07T07:23:59.838Z</time>
      </trkpt>
      <trkpt lat="42.916805" lon="0.188415">
        <ele>1623.0</ele>
        <time>2019-07-07T07:24:00.823Z</time>
      </trkpt>
      <trkpt lat="42.91678167" lon="0.1884">
        <ele>1624.0</ele>
        <time>2019-07-07T07:24:01.820Z</time>
      </trkpt>
      <trkpt lat="42.91678167" lon="0.1884">
        <ele>1624.0</ele>
        <time>2019-07-07T07:24:02.813Z</time>
      </trkpt>
      <trkpt lat="42.91674" lon="0.18837333">
        <ele>1624.0</ele>
        <time>2019-07-07T07:24:03.821Z</time>
      </trkpt>
      <trkpt lat="42.91672167" lon="0.18836333">
        <ele>1624.0</ele>
        <time>2019-07-07T07:24:04.832Z</time>
      </trkpt>
      <trkpt lat="42.91672167" lon="0.18836333">
        <ele>1624.0</ele>
        <time>2019-07-07T07:24:05.819Z</time>
      </trkpt>
      <trkpt lat="42.91668333" lon="0.188335">
        <ele>1625.0</ele>
        <time>2019-07-07T07:24:06.828Z</time>
      </trkpt>
      <trkpt lat="42.916665" lon="0.18832">
        <ele>1625.0</ele>
        <time>2019-07-07T07:24:07.815Z</time>
      </trkpt>
      <trkpt lat="42.916665" lon="0.18832">
        <ele>1625.0</ele>
        <time>2019-07-07T07:24:08.840Z</time>
      </trkpt>
      <trkpt lat="42.916635" lon="0.188285">
        <ele>1625.0</ele>
        <time>2019-07-07T07:24:09.837Z</time>
      </trkpt>
      <trkpt lat="42.91662" lon="0.18827">
        <ele>1625.0</ele>
        <time>2019-07-07T07:24:10.803Z</time>
      </trkpt>
      <trkpt lat="42.91662" lon="0.18827">
        <ele>1625.0</ele>
        <time>2019-07-07T07:24:11.828Z</time>
      </trkpt>
      <trkpt lat="42.916585" lon="0.188235">
        <ele>1624.0</ele>
        <time>2019-07-07T07:24:12.839Z</time>
      </trkpt>
      <trkpt lat="42.916585" lon="0.188235">
        <ele>1624.0</ele>
        <time>2019-07-07T07:24:13.822Z</time>
      </trkpt>
      <trkpt lat="42.916545" lon="0.18819667">
        <ele>1624.0</ele>
        <time>2019-07-07T07:24:14.829Z</time>
      </trkpt>
      <trkpt lat="42.91652333" lon="0.18818">
        <ele>1624.0</ele>
        <time>2019-07-07T07:24:15.839Z</time>
      </trkpt>
      <trkpt lat="42.91652333" lon="0.18818">
        <ele>1624.0</ele>
        <time>2019-07-07T07:24:16.810Z</time>
      </trkpt>
      <trkpt lat="42.91647667" lon="0.18815667">
        <ele>1624.0</ele>
        <time>2019-07-07T07:24:17.817Z</time>
      </trkpt>
      <trkpt lat="42.91647667" lon="0.18815667">
        <ele>1624.0</ele>
        <time>2019-07-07T07:24:18.803Z</time>
      </trkpt>
      <trkpt lat="42.916435" lon="0.188135">
        <ele>1624.0</ele>
        <time>2019-07-07T07:24:19.804Z</time>
      </trkpt>
      <trkpt lat="42.91641167" lon="0.18812333">
        <ele>1624.0</ele>
        <time>2019-07-07T07:24:20.840Z</time>
      </trkpt>
      <trkpt lat="42.91639167" lon="0.18811333">
        <ele>1624.0</ele>
        <time>2019-07-07T07:24:21.832Z</time>
      </trkpt>
      <trkpt lat="42.91639167" lon="0.18811333">
        <ele>1624.0</ele>
        <time>2019-07-07T07:24:22.818Z</time>
      </trkpt>
      <trkpt lat="42.91635333" lon="0.188085">
        <ele>1624.0</ele>
        <time>2019-07-07T07:24:23.830Z</time>
      </trkpt>
      <trkpt lat="42.91635333" lon="0.188085">
        <ele>1624.0</ele>
        <time>2019-07-07T07:24:24.818Z</time>
      </trkpt>
      <trkpt lat="42.91630667" lon="0.18804667">
        <ele>1625.0</ele>
        <time>2019-07-07T07:24:25.811Z</time>
      </trkpt>
      <trkpt lat="42.91630667" lon="0.18804667">
        <ele>1625.0</ele>
        <time>2019-07-07T07:24:26.812Z</time>
      </trkpt>
      <trkpt lat="42.91627167" lon="0.18799667">
        <ele>1625.0</ele>
        <time>2019-07-07T07:24:27.818Z</time>
      </trkpt>
      <trkpt lat="42.91627167" lon="0.18799667">
        <ele>1625.0</ele>
        <time>2019-07-07T07:24:28.831Z</time>
      </trkpt>
      <trkpt lat="42.916245" lon="0.18793833">
        <ele>1625.0</ele>
        <time>2019-07-07T07:24:29.804Z</time>
      </trkpt>
      <trkpt lat="42.916245" lon="0.18793833">
        <ele>1625.0</ele>
        <time>2019-07-07T07:24:30.827Z</time>
      </trkpt>
      <trkpt lat="42.916215" lon="0.18787667">
        <ele>1625.0</ele>
        <time>2019-07-07T07:24:31.832Z</time>
      </trkpt>
      <trkpt lat="42.916215" lon="0.18787667">
        <ele>1625.0</ele>
        <time>2019-07-07T07:24:32.814Z</time>
      </trkpt>
      <trkpt lat="42.91619" lon="0.18781">
        <ele>1626.0</ele>
        <time>2019-07-07T07:24:33.807Z</time>
      </trkpt>
      <trkpt lat="42.91619" lon="0.18781">
        <ele>1626.0</ele>
        <time>2019-07-07T07:24:34.812Z</time>
      </trkpt>
      <trkpt lat="42.91617333" lon="0.18774667">
        <ele>1626.0</ele>
        <time>2019-07-07T07:24:35.819Z</time>
      </trkpt>
      <trkpt lat="42.91617333" lon="0.18774667">
        <ele>1626.0</ele>
        <time>2019-07-07T07:24:36.801Z</time>
      </trkpt>
      <trkpt lat="42.91612333" lon="0.18766333">
        <ele>1626.0</ele>
        <time>2019-07-07T07:24:37.804Z</time>
      </trkpt>
      <trkpt lat="42.91612333" lon="0.18766333">
        <ele>1626.0</ele>
        <time>2019-07-07T07:24:38.837Z</time>
      </trkpt>
      <trkpt lat="42.916125" lon="0.187595">
        <ele>1626.0</ele>
        <time>2019-07-07T07:24:39.803Z</time>
      </trkpt>
      <trkpt lat="42.916115" lon="0.18757167">
        <ele>1627.0</ele>
        <time>2019-07-07T07:24:40.807Z</time>
      </trkpt>
      <trkpt lat="42.91610167" lon="0.18754333">
        <ele>1627.0</ele>
        <time>2019-07-07T07:24:41.818Z</time>
      </trkpt>
      <trkpt lat="42.91610167" lon="0.18754333">
        <ele>1627.0</ele>
        <time>2019-07-07T07:24:42.837Z</time>
      </trkpt>
      <trkpt lat="42.91606833" lon="0.18750333">
        <ele>1628.0</ele>
        <time>2019-07-07T07:24:43.809Z</time>
      </trkpt>
      <trkpt lat="42.91606833" lon="0.18750333">
        <ele>1628.0</ele>
        <time>2019-07-07T07:24:44.836Z</time>
      </trkpt>
      <trkpt lat="42.91604667" lon="0.18745667">
        <ele>1629.0</ele>
        <time>2019-07-07T07:24:45.803Z</time>
      </trkpt>
      <trkpt lat="42.916035" lon="0.18743">
        <ele>1629.0</ele>
        <time>2019-07-07T07:24:46.822Z</time>
      </trkpt>
      <trkpt lat="42.91602167" lon="0.18740667">
        <ele>1630.0</ele>
        <time>2019-07-07T07:24:47.827Z</time>
      </trkpt>
      <trkpt lat="42.91602167" lon="0.18740667">
        <ele>1630.0</ele>
        <time>2019-07-07T07:24:48.811Z</time>
      </trkpt>
      <trkpt lat="42.916" lon="0.18735">
        <ele>1631.0</ele>
        <time>2019-07-07T07:24:49.820Z</time>
      </trkpt>
      <trkpt lat="42.915985" lon="0.187325">
        <ele>1631.0</ele>
        <time>2019-07-07T07:24:50.815Z</time>
      </trkpt>
      <trkpt lat="42.91597" lon="0.1873">
        <ele>1631.0</ele>
        <time>2019-07-07T07:24:51.822Z</time>
      </trkpt>
      <trkpt lat="42.91597" lon="0.1873">
        <ele>1631.0</ele>
        <time>2019-07-07T07:24:52.829Z</time>
      </trkpt>
      <trkpt lat="42.915945" lon="0.18725167">
        <ele>1632.0</ele>
        <time>2019-07-07T07:24:53.834Z</time>
      </trkpt>
      <trkpt lat="42.91593" lon="0.18723">
        <ele>1633.0</ele>
        <time>2019-07-07T07:24:54.838Z</time>
      </trkpt>
      <trkpt lat="42.91593" lon="0.18723">
        <ele>1633.0</ele>
        <time>2019-07-07T07:24:55.802Z</time>
      </trkpt>
      <trkpt lat="42.91589333" lon="0.18719167">
        <ele>1634.0</ele>
        <time>2019-07-07T07:24:56.817Z</time>
      </trkpt>
      <trkpt lat="42.91589333" lon="0.18719167">
        <ele>1634.0</ele>
        <time>2019-07-07T07:24:57.834Z</time>
      </trkpt>
      <trkpt lat="42.91585167" lon="0.18715833">
        <ele>1635.0</ele>
        <time>2019-07-07T07:24:58.808Z</time>
      </trkpt>
      <trkpt lat="42.91585167" lon="0.18715833">
        <ele>1635.0</ele>
        <time>2019-07-07T07:24:59.822Z</time>
      </trkpt>
      <trkpt lat="42.915815" lon="0.18712333">
        <ele>1635.0</ele>
        <time>2019-07-07T07:25:00.829Z</time>
      </trkpt>
      <trkpt lat="42.91579333" lon="0.18711">
        <ele>1636.0</ele>
        <time>2019-07-07T07:25:01.823Z</time>
      </trkpt>
      <trkpt lat="42.91579333" lon="0.18711">
        <ele>1636.0</ele>
        <time>2019-07-07T07:25:02.829Z</time>
      </trkpt>
      <trkpt lat="42.91574667" lon="0.18708167">
        <ele>1637.0</ele>
        <time>2019-07-07T07:25:03.834Z</time>
      </trkpt>
      <trkpt lat="42.91572167" lon="0.18707167">
        <ele>1637.0</ele>
        <time>2019-07-07T07:25:04.826Z</time>
      </trkpt>
      <trkpt lat="42.91572167" lon="0.18707167">
        <ele>1637.0</ele>
        <time>2019-07-07T07:25:05.841Z</time>
      </trkpt>
      <trkpt lat="42.91567167" lon="0.18705667">
        <ele>1638.0</ele>
        <time>2019-07-07T07:25:06.808Z</time>
      </trkpt>
      <trkpt lat="42.91564667" lon="0.18705333">
        <ele>1638.0</ele>
        <time>2019-07-07T07:25:07.837Z</time>
      </trkpt>
      <trkpt lat="42.91564667" lon="0.18705333">
        <ele>1638.0</ele>
        <time>2019-07-07T07:25:08.840Z</time>
      </trkpt>
      <trkpt lat="42.91559333" lon="0.18705167">
        <ele>1639.0</ele>
        <time>2019-07-07T07:25:09.805Z</time>
      </trkpt>
      <trkpt lat="42.91556667" lon="0.18705167">
        <ele>1639.0</ele>
        <time>2019-07-07T07:25:10.804Z</time>
      </trkpt>
      <trkpt lat="42.91554333" lon="0.18705333">
        <ele>1640.0</ele>
        <time>2019-07-07T07:25:11.803Z</time>
      </trkpt>
      <trkpt lat="42.91554333" lon="0.18705333">
        <ele>1640.0</ele>
        <time>2019-07-07T07:25:12.817Z</time>
      </trkpt>
      <trkpt lat="42.91549333" lon="0.187065">
        <ele>1641.0</ele>
        <time>2019-07-07T07:25:13.825Z</time>
      </trkpt>
      <trkpt lat="42.91547" lon="0.18706833">
        <ele>1641.0</ele>
        <time>2019-07-07T07:25:14.817Z</time>
      </trkpt>
      <trkpt lat="42.91547" lon="0.18706833">
        <ele>1641.0</ele>
        <time>2019-07-07T07:25:15.835Z</time>
      </trkpt>
      <trkpt lat="42.91542667" lon="0.18708333">
        <ele>1642.0</ele>
        <time>2019-07-07T07:25:16.812Z</time>
      </trkpt>
      <trkpt lat="42.91542667" lon="0.18708333">
        <ele>1642.0</ele>
        <time>2019-07-07T07:25:17.820Z</time>
      </trkpt>
      <trkpt lat="42.91538" lon="0.18709833">
        <ele>1643.0</ele>
        <time>2019-07-07T07:25:18.826Z</time>
      </trkpt>
      <trkpt lat="42.915355" lon="0.187105">
        <ele>1643.0</ele>
        <time>2019-07-07T07:25:19.808Z</time>
      </trkpt>
      <trkpt lat="42.915355" lon="0.187105">
        <ele>1643.0</ele>
        <time>2019-07-07T07:25:20.830Z</time>
      </trkpt>
      <trkpt lat="42.91531333" lon="0.18712333">
        <ele>1644.0</ele>
        <time>2019-07-07T07:25:21.836Z</time>
      </trkpt>
      <trkpt lat="42.91529" lon="0.18713">
        <ele>1644.0</ele>
        <time>2019-07-07T07:25:22.809Z</time>
      </trkpt>
      <trkpt lat="42.91529" lon="0.18713">
        <ele>1644.0</ele>
        <time>2019-07-07T07:25:23.814Z</time>
      </trkpt>
      <trkpt lat="42.91524333" lon="0.18714">
        <ele>1644.0</ele>
        <time>2019-07-07T07:25:24.821Z</time>
      </trkpt>
      <trkpt lat="42.91524333" lon="0.18714">
        <ele>1644.0</ele>
        <time>2019-07-07T07:25:25.811Z</time>
      </trkpt>
      <trkpt lat="42.91519667" lon="0.18715">
        <ele>1645.0</ele>
        <time>2019-07-07T07:25:26.823Z</time>
      </trkpt>
      <trkpt lat="42.91517667" lon="0.187155">
        <ele>1645.0</ele>
        <time>2019-07-07T07:25:27.811Z</time>
      </trkpt>
      <trkpt lat="42.91517667" lon="0.187155">
        <ele>1645.0</ele>
        <time>2019-07-07T07:25:28.831Z</time>
      </trkpt>
      <trkpt lat="42.915135" lon="0.18715833">
        <ele>1645.0</ele>
        <time>2019-07-07T07:25:29.844Z</time>
      </trkpt>
      <trkpt lat="42.915135" lon="0.18715833">
        <ele>1645.0</ele>
        <time>2019-07-07T07:25:30.802Z</time>
      </trkpt>
      <trkpt lat="42.91509" lon="0.18715667">
        <ele>1646.0</ele>
        <time>2019-07-07T07:25:31.808Z</time>
      </trkpt>
      <trkpt lat="42.91509" lon="0.18715667">
        <ele>1646.0</ele>
        <time>2019-07-07T07:25:32.831Z</time>
      </trkpt>
      <trkpt lat="42.91505333" lon="0.18713333">
        <ele>1646.0</ele>
        <time>2019-07-07T07:25:33.807Z</time>
      </trkpt>
      <trkpt lat="42.91503667" lon="0.187125">
        <ele>1646.0</ele>
        <time>2019-07-07T07:25:34.818Z</time>
      </trkpt>
      <trkpt lat="42.91501833" lon="0.187115">
        <ele>1647.0</ele>
        <time>2019-07-07T07:25:35.804Z</time>
      </trkpt>
      <trkpt lat="42.91501833" lon="0.187115">
        <ele>1647.0</ele>
        <time>2019-07-07T07:25:36.814Z</time>
      </trkpt>
      <trkpt lat="42.91497" lon="0.18709833">
        <ele>1647.0</ele>
        <time>2019-07-07T07:25:37.825Z</time>
      </trkpt>
      <trkpt lat="42.91497" lon="0.18709833">
        <ele>1647.0</ele>
        <time>2019-07-07T07:25:38.803Z</time>
      </trkpt>
      <trkpt lat="42.91492833" lon="0.18708">
        <ele>1647.0</ele>
        <time>2019-07-07T07:25:39.804Z</time>
      </trkpt>
      <trkpt lat="42.91492833" lon="0.18708">
        <ele>1647.0</ele>
        <time>2019-07-07T07:25:40.837Z</time>
      </trkpt>
      <trkpt lat="42.91489833" lon="0.18705667">
        <ele>1648.0</ele>
        <time>2019-07-07T07:25:41.805Z</time>
      </trkpt>
      <trkpt lat="42.91489833" lon="0.18705667">
        <ele>1648.0</ele>
        <time>2019-07-07T07:25:42.816Z</time>
      </trkpt>
      <trkpt lat="42.91485833" lon="0.18702667">
        <ele>1648.0</ele>
        <time>2019-07-07T07:25:43.834Z</time>
      </trkpt>
      <trkpt lat="42.91484" lon="0.18701333">
        <ele>1648.0</ele>
        <time>2019-07-07T07:25:44.803Z</time>
      </trkpt>
      <trkpt lat="42.91482167" lon="0.186995">
        <ele>1648.0</ele>
        <time>2019-07-07T07:25:45.819Z</time>
      </trkpt>
      <trkpt lat="42.9148" lon="0.186975">
        <ele>1648.0</ele>
        <time>2019-07-07T07:25:46.826Z</time>
      </trkpt>
      <trkpt lat="42.9148" lon="0.186975">
        <ele>1648.0</ele>
        <time>2019-07-07T07:25:47.830Z</time>
      </trkpt>
      <trkpt lat="42.91475833" lon="0.18693667">
        <ele>1649.0</ele>
        <time>2019-07-07T07:25:48.804Z</time>
      </trkpt>
      <trkpt lat="42.91475833" lon="0.18693667">
        <ele>1649.0</ele>
        <time>2019-07-07T07:25:49.832Z</time>
      </trkpt>
      <trkpt lat="42.91471333" lon="0.18689167">
        <ele>1649.0</ele>
        <time>2019-07-07T07:25:50.838Z</time>
      </trkpt>
      <trkpt lat="42.91469167" lon="0.18687">
        <ele>1649.0</ele>
        <time>2019-07-07T07:25:51.824Z</time>
      </trkpt>
      <trkpt lat="42.91469167" lon="0.18687">
        <ele>1649.0</ele>
        <time>2019-07-07T07:25:52.839Z</time>
      </trkpt>
      <trkpt lat="42.91463833" lon="0.186835">
        <ele>1649.0</ele>
        <time>2019-07-07T07:25:53.805Z</time>
      </trkpt>
      <trkpt lat="42.91463833" lon="0.186835">
        <ele>1649.0</ele>
        <time>2019-07-07T07:25:54.830Z</time>
      </trkpt>
      <trkpt lat="42.91456667" lon="0.18679833">
        <ele>1649.0</ele>
        <time>2019-07-07T07:25:55.836Z</time>
      </trkpt>
      <trkpt lat="42.91454" lon="0.18677667">
        <ele>1649.0</ele>
        <time>2019-07-07T07:25:56.837Z</time>
      </trkpt>
      <trkpt lat="42.91454" lon="0.18677667">
        <ele>1649.0</ele>
        <time>2019-07-07T07:25:57.838Z</time>
      </trkpt>
      <trkpt lat="42.9145" lon="0.18674">
        <ele>1650.0</ele>
        <time>2019-07-07T07:25:58.806Z</time>
      </trkpt>
      <trkpt lat="42.9145" lon="0.18674">
        <ele>1650.0</ele>
        <time>2019-07-07T07:25:59.830Z</time>
      </trkpt>
      <trkpt lat="42.914455" lon="0.18672333">
        <ele>1650.0</ele>
        <time>2019-07-07T07:26:00.811Z</time>
      </trkpt>
      <trkpt lat="42.914455" lon="0.18672333">
        <ele>1650.0</ele>
        <time>2019-07-07T07:26:01.837Z</time>
      </trkpt>
      <trkpt lat="42.9144" lon="0.18671667">
        <ele>1650.0</ele>
        <time>2019-07-07T07:26:02.804Z</time>
      </trkpt>
      <trkpt lat="42.91437667" lon="0.18671">
        <ele>1650.0</ele>
        <time>2019-07-07T07:26:03.816Z</time>
      </trkpt>
      <trkpt lat="42.91435167" lon="0.18669833">
        <ele>1650.0</ele>
        <time>2019-07-07T07:26:04.806Z</time>
      </trkpt>
      <trkpt lat="42.91435167" lon="0.18669833">
        <ele>1650.0</ele>
        <time>2019-07-07T07:26:05.829Z</time>
      </trkpt>
      <trkpt lat="42.91430667" lon="0.18666667">
        <ele>1650.0</ele>
        <time>2019-07-07T07:26:06.838Z</time>
      </trkpt>
      <trkpt lat="42.91430667" lon="0.18666667">
        <ele>1650.0</ele>
        <time>2019-07-07T07:26:07.838Z</time>
      </trkpt>
      <trkpt lat="42.91426167" lon="0.18660667">
        <ele>1651.0</ele>
        <time>2019-07-07T07:26:08.804Z</time>
      </trkpt>
      <trkpt lat="42.91423833" lon="0.1866">
        <ele>1652.0</ele>
        <time>2019-07-07T07:26:09.817Z</time>
      </trkpt>
      <trkpt lat="42.91421667" lon="0.18659333">
        <ele>1652.0</ele>
        <time>2019-07-07T07:26:10.830Z</time>
      </trkpt>
      <trkpt lat="42.91419333" lon="0.18658833">
        <ele>1652.0</ele>
        <time>2019-07-07T07:26:11.802Z</time>
      </trkpt>
      <trkpt lat="42.91419333" lon="0.18658833">
        <ele>1652.0</ele>
        <time>2019-07-07T07:26:12.830Z</time>
      </trkpt>
      <trkpt lat="42.91412667" lon="0.18658333">
        <ele>1655.0</ele>
        <time>2019-07-07T07:26:13.836Z</time>
      </trkpt>
      <trkpt lat="42.91412667" lon="0.18658333">
        <ele>1655.0</ele>
        <time>2019-07-07T07:26:14.814Z</time>
      </trkpt>
      <trkpt lat="42.91407" lon="0.18658167">
        <ele>1656.0</ele>
        <time>2019-07-07T07:26:15.828Z</time>
      </trkpt>
      <trkpt lat="42.91404167" lon="0.18658">
        <ele>1656.0</ele>
        <time>2019-07-07T07:26:16.828Z</time>
      </trkpt>
      <trkpt lat="42.91404167" lon="0.18658">
        <ele>1656.0</ele>
        <time>2019-07-07T07:26:17.803Z</time>
      </trkpt>
      <trkpt lat="42.913995" lon="0.18657667">
        <ele>1657.0</ele>
        <time>2019-07-07T07:26:18.813Z</time>
      </trkpt>
      <trkpt lat="42.913995" lon="0.18657667">
        <ele>1657.0</ele>
        <time>2019-07-07T07:26:19.823Z</time>
      </trkpt>
      <trkpt lat="42.913955" lon="0.18658167">
        <ele>1658.0</ele>
        <time>2019-07-07T07:26:20.830Z</time>
      </trkpt>
      <trkpt lat="42.91393833" lon="0.18658333">
        <ele>1658.0</ele>
        <time>2019-07-07T07:26:21.801Z</time>
      </trkpt>
      <trkpt lat="42.91393833" lon="0.18658333">
        <ele>1658.0</ele>
        <time>2019-07-07T07:26:22.826Z</time>
      </trkpt>
      <trkpt lat="42.91390333" lon="0.18658667">
        <ele>1659.0</ele>
        <time>2019-07-07T07:26:23.832Z</time>
      </trkpt>
      <trkpt lat="42.913885" lon="0.186595">
        <ele>1659.0</ele>
        <time>2019-07-07T07:26:24.840Z</time>
      </trkpt>
      <trkpt lat="42.913885" lon="0.186595">
        <ele>1659.0</ele>
        <time>2019-07-07T07:26:25.831Z</time>
      </trkpt>
      <trkpt lat="42.91384833" lon="0.18662333">
        <ele>1659.0</ele>
        <time>2019-07-07T07:26:26.841Z</time>
      </trkpt>
      <trkpt lat="42.91384833" lon="0.18662333">
        <ele>1659.0</ele>
        <time>2019-07-07T07:26:27.839Z</time>
      </trkpt>
      <trkpt lat="42.91380333" lon="0.186635">
        <ele>1660.0</ele>
        <time>2019-07-07T07:26:28.805Z</time>
      </trkpt>
      <trkpt lat="42.91380333" lon="0.186635">
        <ele>1660.0</ele>
        <time>2019-07-07T07:26:29.831Z</time>
      </trkpt>
      <trkpt lat="42.91376" lon="0.18663">
        <ele>1660.0</ele>
        <time>2019-07-07T07:26:30.839Z</time>
      </trkpt>
      <trkpt lat="42.91376" lon="0.18663">
        <ele>1660.0</ele>
        <time>2019-07-07T07:26:31.801Z</time>
      </trkpt>
      <trkpt lat="42.91371167" lon="0.18661">
        <ele>1660.0</ele>
        <time>2019-07-07T07:26:32.807Z</time>
      </trkpt>
      <trkpt lat="42.91371167" lon="0.18661">
        <ele>1660.0</ele>
        <time>2019-07-07T07:26:33.821Z</time>
      </trkpt>
      <trkpt lat="42.91367333" lon="0.18660833">
        <ele>1661.0</ele>
        <time>2019-07-07T07:26:34.804Z</time>
      </trkpt>
      <trkpt lat="42.91367333" lon="0.18660833">
        <ele>1661.0</ele>
        <time>2019-07-07T07:26:35.838Z</time>
      </trkpt>
      <trkpt lat="42.91362333" lon="0.18659167">
        <ele>1661.0</ele>
        <time>2019-07-07T07:26:36.805Z</time>
      </trkpt>
      <trkpt lat="42.91362333" lon="0.18659167">
        <ele>1661.0</ele>
        <time>2019-07-07T07:26:37.829Z</time>
      </trkpt>
      <trkpt lat="42.913575" lon="0.18656333">
        <ele>1661.0</ele>
        <time>2019-07-07T07:26:38.805Z</time>
      </trkpt>
      <trkpt lat="42.91355333" lon="0.18655">
        <ele>1662.0</ele>
        <time>2019-07-07T07:26:39.834Z</time>
      </trkpt>
      <trkpt lat="42.91355333" lon="0.18655">
        <ele>1662.0</ele>
        <time>2019-07-07T07:26:40.822Z</time>
      </trkpt>
      <trkpt lat="42.913525" lon="0.18652">
        <ele>1662.0</ele>
        <time>2019-07-07T07:26:41.806Z</time>
      </trkpt>
      <trkpt lat="42.91351833" lon="0.18651167">
        <ele>1662.0</ele>
        <time>2019-07-07T07:26:42.827Z</time>
      </trkpt>
      <trkpt lat="42.91351833" lon="0.18651167">
        <ele>1662.0</ele>
        <time>2019-07-07T07:26:43.816Z</time>
      </trkpt>
      <trkpt lat="42.91346667" lon="0.18637667">
        <ele>1664.0</ele>
        <time>2019-07-07T07:26:44.804Z</time>
      </trkpt>
      <trkpt lat="42.91344333" lon="0.186325">
        <ele>1664.0</ele>
        <time>2019-07-07T07:26:45.805Z</time>
      </trkpt>
      <trkpt lat="42.91344333" lon="0.186325">
        <ele>1664.0</ele>
        <time>2019-07-07T07:26:46.831Z</time>
      </trkpt>
      <trkpt lat="42.91342" lon="0.18624833">
        <ele>1665.0</ele>
        <time>2019-07-07T07:26:47.853Z</time>
      </trkpt>
      <trkpt lat="42.91342" lon="0.18624833">
        <ele>1665.0</ele>
        <time>2019-07-07T07:26:48.836Z</time>
      </trkpt>
      <trkpt lat="42.913395" lon="0.18618">
        <ele>1666.0</ele>
        <time>2019-07-07T07:26:49.841Z</time>
      </trkpt>
      <trkpt lat="42.913395" lon="0.18618">
        <ele>1666.0</ele>
        <time>2019-07-07T07:26:50.824Z</time>
      </trkpt>
      <trkpt lat="42.91339333" lon="0.18611167">
        <ele>1667.0</ele>
        <time>2019-07-07T07:26:51.830Z</time>
      </trkpt>
      <trkpt lat="42.91338667" lon="0.18607833">
        <ele>1668.0</ele>
        <time>2019-07-07T07:26:52.821Z</time>
      </trkpt>
      <trkpt lat="42.91338667" lon="0.18607833">
        <ele>1668.0</ele>
        <time>2019-07-07T07:26:53.829Z</time>
      </trkpt>
      <trkpt lat="42.913365" lon="0.18601167">
        <ele>1668.0</ele>
        <time>2019-07-07T07:26:54.836Z</time>
      </trkpt>
      <trkpt lat="42.91335333" lon="0.18599">
        <ele>1668.0</ele>
        <time>2019-07-07T07:26:55.805Z</time>
      </trkpt>
      <trkpt lat="42.91335333" lon="0.18599">
        <ele>1668.0</ele>
        <time>2019-07-07T07:26:56.837Z</time>
      </trkpt>
      <trkpt lat="42.91332667" lon="0.18594833">
        <ele>1669.0</ele>
        <time>2019-07-07T07:26:57.804Z</time>
      </trkpt>
      <trkpt lat="42.91332667" lon="0.18594833">
        <ele>1669.0</ele>
        <time>2019-07-07T07:26:58.822Z</time>
      </trkpt>
      <trkpt lat="42.91330167" lon="0.185895">
        <ele>1670.0</ele>
        <time>2019-07-07T07:26:59.804Z</time>
      </trkpt>
      <trkpt lat="42.91330167" lon="0.185895">
        <ele>1670.0</ele>
        <time>2019-07-07T07:27:00.840Z</time>
      </trkpt>
      <trkpt lat="42.913285" lon="0.18583833">
        <ele>1670.0</ele>
        <time>2019-07-07T07:27:01.808Z</time>
      </trkpt>
      <trkpt lat="42.913285" lon="0.18583833">
        <ele>1670.0</ele>
        <time>2019-07-07T07:27:02.814Z</time>
      </trkpt>
      <trkpt lat="42.91327" lon="0.18577333">
        <ele>1671.0</ele>
        <time>2019-07-07T07:27:03.808Z</time>
      </trkpt>
      <trkpt lat="42.91326167" lon="0.18574167">
        <ele>1672.0</ele>
        <time>2019-07-07T07:27:04.827Z</time>
      </trkpt>
      <trkpt lat="42.91326167" lon="0.18574167">
        <ele>1672.0</ele>
        <time>2019-07-07T07:27:05.803Z</time>
      </trkpt>
      <trkpt lat="42.91323833" lon="0.18568333">
        <ele>1672.0</ele>
        <time>2019-07-07T07:27:06.814Z</time>
      </trkpt>
      <trkpt lat="42.91322833" lon="0.185655">
        <ele>1672.0</ele>
        <time>2019-07-07T07:27:07.839Z</time>
      </trkpt>
      <trkpt lat="42.91322833" lon="0.185655">
        <ele>1672.0</ele>
        <time>2019-07-07T07:27:08.823Z</time>
      </trkpt>
      <trkpt lat="42.91320167" lon="0.18559833">
        <ele>1673.0</ele>
        <time>2019-07-07T07:27:09.803Z</time>
      </trkpt>
      <trkpt lat="42.91319167" lon="0.18557">
        <ele>1673.0</ele>
        <time>2019-07-07T07:27:10.801Z</time>
      </trkpt>
      <trkpt lat="42.91318333" lon="0.18554">
        <ele>1674.0</ele>
        <time>2019-07-07T07:27:11.828Z</time>
      </trkpt>
      <trkpt lat="42.91318333" lon="0.18554">
        <ele>1674.0</ele>
        <time>2019-07-07T07:27:12.804Z</time>
      </trkpt>
      <trkpt lat="42.913165" lon="0.18548167">
        <ele>1674.0</ele>
        <time>2019-07-07T07:27:13.811Z</time>
      </trkpt>
      <trkpt lat="42.913165" lon="0.18548167">
        <ele>1674.0</ele>
        <time>2019-07-07T07:27:14.823Z</time>
      </trkpt>
      <trkpt lat="42.91314833" lon="0.185425">
        <ele>1675.0</ele>
        <time>2019-07-07T07:27:15.801Z</time>
      </trkpt>
      <trkpt lat="42.91313833" lon="0.18539667">
        <ele>1675.0</ele>
        <time>2019-07-07T07:27:16.839Z</time>
      </trkpt>
      <trkpt lat="42.91313833" lon="0.18539667">
        <ele>1675.0</ele>
        <time>2019-07-07T07:27:17.816Z</time>
      </trkpt>
      <trkpt lat="42.91311833" lon="0.185345">
        <ele>1676.0</ele>
        <time>2019-07-07T07:27:18.822Z</time>
      </trkpt>
      <trkpt lat="42.91310833" lon="0.18531667">
        <ele>1676.0</ele>
        <time>2019-07-07T07:27:19.839Z</time>
      </trkpt>
      <trkpt lat="42.91310833" lon="0.18531667">
        <ele>1676.0</ele>
        <time>2019-07-07T07:27:20.824Z</time>
      </trkpt>
      <trkpt lat="42.91308667" lon="0.18525833">
        <ele>1677.0</ele>
        <time>2019-07-07T07:27:21.836Z</time>
      </trkpt>
      <trkpt lat="42.91308667" lon="0.18525833">
        <ele>1677.0</ele>
        <time>2019-07-07T07:27:22.810Z</time>
      </trkpt>
      <trkpt lat="42.91306667" lon="0.18520167">
        <ele>1677.0</ele>
        <time>2019-07-07T07:27:23.817Z</time>
      </trkpt>
      <trkpt lat="42.91306667" lon="0.18520167">
        <ele>1677.0</ele>
        <time>2019-07-07T07:27:24.832Z</time>
      </trkpt>
      <trkpt lat="42.91304333" lon="0.185145">
        <ele>1678.0</ele>
        <time>2019-07-07T07:27:25.801Z</time>
      </trkpt>
      <trkpt lat="42.91304333" lon="0.185145">
        <ele>1678.0</ele>
        <time>2019-07-07T07:27:26.819Z</time>
      </trkpt>
      <trkpt lat="42.91301667" lon="0.185085">
        <ele>1679.0</ele>
        <time>2019-07-07T07:27:27.826Z</time>
      </trkpt>
      <trkpt lat="42.913005" lon="0.18506167">
        <ele>1679.0</ele>
        <time>2019-07-07T07:27:28.801Z</time>
      </trkpt>
      <trkpt lat="42.913005" lon="0.18506167">
        <ele>1679.0</ele>
        <time>2019-07-07T07:27:29.811Z</time>
      </trkpt>
      <trkpt lat="42.91298" lon="0.18500667">
        <ele>1679.0</ele>
        <time>2019-07-07T07:27:30.818Z</time>
      </trkpt>
      <trkpt lat="42.91296833" lon="0.18497667">
        <ele>1679.0</ele>
        <time>2019-07-07T07:27:31.837Z</time>
      </trkpt>
      <trkpt lat="42.91296833" lon="0.18497667">
        <ele>1679.0</ele>
        <time>2019-07-07T07:27:32.801Z</time>
      </trkpt>
      <trkpt lat="42.91294667" lon="0.18492333">
        <ele>1680.0</ele>
        <time>2019-07-07T07:27:33.807Z</time>
      </trkpt>
      <trkpt lat="42.91293333" lon="0.184895">
        <ele>1681.0</ele>
        <time>2019-07-07T07:27:34.801Z</time>
      </trkpt>
      <trkpt lat="42.91293333" lon="0.184895">
        <ele>1681.0</ele>
        <time>2019-07-07T07:27:35.807Z</time>
      </trkpt>
      <trkpt lat="42.91290833" lon="0.18483333">
        <ele>1681.0</ele>
        <time>2019-07-07T07:27:36.819Z</time>
      </trkpt>
      <trkpt lat="42.91289667" lon="0.18480333">
        <ele>1681.0</ele>
        <time>2019-07-07T07:27:37.803Z</time>
      </trkpt>
      <trkpt lat="42.91289667" lon="0.18480333">
        <ele>1681.0</ele>
        <time>2019-07-07T07:27:38.827Z</time>
      </trkpt>
      <trkpt lat="42.91287" lon="0.18474167">
        <ele>1682.0</ele>
        <time>2019-07-07T07:27:39.833Z</time>
      </trkpt>
      <trkpt lat="42.91285333" lon="0.184715">
        <ele>1682.0</ele>
        <time>2019-07-07T07:27:40.803Z</time>
      </trkpt>
      <trkpt lat="42.912835" lon="0.18469">
        <ele>1682.0</ele>
        <time>2019-07-07T07:27:41.813Z</time>
      </trkpt>
      <trkpt lat="42.912835" lon="0.18469">
        <ele>1682.0</ele>
        <time>2019-07-07T07:27:42.822Z</time>
      </trkpt>
      <trkpt lat="42.91279667" lon="0.18464167">
        <ele>1682.0</ele>
        <time>2019-07-07T07:27:43.832Z</time>
      </trkpt>
      <trkpt lat="42.91277667" lon="0.18461833">
        <ele>1683.0</ele>
        <time>2019-07-07T07:27:44.817Z</time>
      </trkpt>
      <trkpt lat="42.91277667" lon="0.18461833">
        <ele>1683.0</ele>
        <time>2019-07-07T07:27:45.835Z</time>
      </trkpt>
      <trkpt lat="42.91273833" lon="0.18457333">
        <ele>1683.0</ele>
        <time>2019-07-07T07:27:46.817Z</time>
      </trkpt>
      <trkpt lat="42.91273833" lon="0.18457333">
        <ele>1683.0</ele>
        <time>2019-07-07T07:27:47.819Z</time>
      </trkpt>
      <trkpt lat="42.91269833" lon="0.18452833">
        <ele>1683.0</ele>
        <time>2019-07-07T07:27:48.831Z</time>
      </trkpt>
      <trkpt lat="42.91269833" lon="0.18452833">
        <ele>1683.0</ele>
        <time>2019-07-07T07:27:49.812Z</time>
      </trkpt>
      <trkpt lat="42.91265833" lon="0.184485">
        <ele>1684.0</ele>
        <time>2019-07-07T07:27:50.819Z</time>
      </trkpt>
      <trkpt lat="42.91265833" lon="0.184485">
        <ele>1684.0</ele>
        <time>2019-07-07T07:27:51.805Z</time>
      </trkpt>
      <trkpt lat="42.91261833" lon="0.184445">
        <ele>1684.0</ele>
        <time>2019-07-07T07:27:52.816Z</time>
      </trkpt>
      <trkpt lat="42.91261833" lon="0.184445">
        <ele>1684.0</ele>
        <time>2019-07-07T07:27:53.819Z</time>
      </trkpt>
      <trkpt lat="42.91257833" lon="0.18440167">
        <ele>1685.0</ele>
        <time>2019-07-07T07:27:54.826Z</time>
      </trkpt>
      <trkpt lat="42.91257833" lon="0.18440167">
        <ele>1685.0</ele>
        <time>2019-07-07T07:27:55.824Z</time>
      </trkpt>
      <trkpt lat="42.91253667" lon="0.18436667">
        <ele>1685.0</ele>
        <time>2019-07-07T07:27:56.802Z</time>
      </trkpt>
      <trkpt lat="42.91253667" lon="0.18436667">
        <ele>1685.0</ele>
        <time>2019-07-07T07:27:57.826Z</time>
      </trkpt>
      <trkpt lat="42.91249167" lon="0.18433167">
        <ele>1686.0</ele>
        <time>2019-07-07T07:27:58.833Z</time>
      </trkpt>
      <trkpt lat="42.91246833" lon="0.18431833">
        <ele>1686.0</ele>
        <time>2019-07-07T07:27:59.827Z</time>
      </trkpt>
      <trkpt lat="42.91246833" lon="0.18431833">
        <ele>1686.0</ele>
        <time>2019-07-07T07:28:00.825Z</time>
      </trkpt>
      <trkpt lat="42.912425" lon="0.18429">
        <ele>1686.0</ele>
        <time>2019-07-07T07:28:01.832Z</time>
      </trkpt>
      <trkpt lat="42.912425" lon="0.18429">
        <ele>1686.0</ele>
        <time>2019-07-07T07:28:02.814Z</time>
      </trkpt>
      <trkpt lat="42.91238" lon="0.18426">
        <ele>1687.0</ele>
        <time>2019-07-07T07:28:03.816Z</time>
      </trkpt>
      <trkpt lat="42.91235667" lon="0.18424833">
        <ele>1687.0</ele>
        <time>2019-07-07T07:28:04.811Z</time>
      </trkpt>
      <trkpt lat="42.91235667" lon="0.18424833">
        <ele>1687.0</ele>
        <time>2019-07-07T07:28:05.826Z</time>
      </trkpt>
      <trkpt lat="42.91230833" lon="0.18422833">
        <ele>1687.0</ele>
        <time>2019-07-07T07:28:06.832Z</time>
      </trkpt>
      <trkpt lat="42.91230833" lon="0.18422833">
        <ele>1687.0</ele>
        <time>2019-07-07T07:28:07.838Z</time>
      </trkpt>
      <trkpt lat="42.91225667" lon="0.184215">
        <ele>1688.0</ele>
        <time>2019-07-07T07:28:08.804Z</time>
      </trkpt>
      <trkpt lat="42.91223167" lon="0.18420833">
        <ele>1688.0</ele>
        <time>2019-07-07T07:28:09.829Z</time>
      </trkpt>
      <trkpt lat="42.912205" lon="0.18420333">
        <ele>1688.0</ele>
        <time>2019-07-07T07:28:10.831Z</time>
      </trkpt>
      <trkpt lat="42.912205" lon="0.18420333">
        <ele>1688.0</ele>
        <time>2019-07-07T07:28:11.806Z</time>
      </trkpt>
      <trkpt lat="42.912155" lon="0.18419167">
        <ele>1689.0</ele>
        <time>2019-07-07T07:28:12.819Z</time>
      </trkpt>
      <trkpt lat="42.912155" lon="0.18419167">
        <ele>1689.0</ele>
        <time>2019-07-07T07:28:13.826Z</time>
      </trkpt>
      <trkpt lat="42.91210333" lon="0.18418667">
        <ele>1689.0</ele>
        <time>2019-07-07T07:28:14.835Z</time>
      </trkpt>
      <trkpt lat="42.91208" lon="0.18418333">
        <ele>1690.0</ele>
        <time>2019-07-07T07:28:15.803Z</time>
      </trkpt>
      <trkpt lat="42.912055" lon="0.18418333">
        <ele>1690.0</ele>
        <time>2019-07-07T07:28:16.816Z</time>
      </trkpt>
      <trkpt lat="42.912055" lon="0.18418333">
        <ele>1690.0</ele>
        <time>2019-07-07T07:28:17.831Z</time>
      </trkpt>
      <trkpt lat="42.91200667" lon="0.18417833">
        <ele>1690.0</ele>
        <time>2019-07-07T07:28:18.839Z</time>
      </trkpt>
      <trkpt lat="42.91198333" lon="0.18417667">
        <ele>1691.0</ele>
        <time>2019-07-07T07:28:19.812Z</time>
      </trkpt>
      <trkpt lat="42.91198333" lon="0.18417667">
        <ele>1691.0</ele>
        <time>2019-07-07T07:28:20.824Z</time>
      </trkpt>
      <trkpt lat="42.91193667" lon="0.18416333">
        <ele>1692.0</ele>
        <time>2019-07-07T07:28:21.831Z</time>
      </trkpt>
      <trkpt lat="42.91193667" lon="0.18416333">
        <ele>1692.0</ele>
        <time>2019-07-07T07:28:22.824Z</time>
      </trkpt>
      <trkpt lat="42.91188833" lon="0.18414667">
        <ele>1693.0</ele>
        <time>2019-07-07T07:28:23.804Z</time>
      </trkpt>
      <trkpt lat="42.91188833" lon="0.18414667">
        <ele>1693.0</ele>
        <time>2019-07-07T07:28:24.814Z</time>
      </trkpt>
      <trkpt lat="42.91184167" lon="0.18413333">
        <ele>1694.0</ele>
        <time>2019-07-07T07:28:25.821Z</time>
      </trkpt>
      <trkpt lat="42.91184167" lon="0.18413333">
        <ele>1694.0</ele>
        <time>2019-07-07T07:28:26.813Z</time>
      </trkpt>
      <trkpt lat="42.911795" lon="0.18411833">
        <ele>1694.0</ele>
        <time>2019-07-07T07:28:27.805Z</time>
      </trkpt>
      <trkpt lat="42.911795" lon="0.18411833">
        <ele>1694.0</ele>
        <time>2019-07-07T07:28:28.816Z</time>
      </trkpt>
      <trkpt lat="42.911745" lon="0.18409333">
        <ele>1695.0</ele>
        <time>2019-07-07T07:28:29.823Z</time>
      </trkpt>
      <trkpt lat="42.911725" lon="0.18407667">
        <ele>1695.0</ele>
        <time>2019-07-07T07:28:30.804Z</time>
      </trkpt>
      <trkpt lat="42.911725" lon="0.18407667">
        <ele>1695.0</ele>
        <time>2019-07-07T07:28:31.819Z</time>
      </trkpt>
      <trkpt lat="42.91169167" lon="0.18403667">
        <ele>1696.0</ele>
        <time>2019-07-07T07:28:32.825Z</time>
      </trkpt>
      <trkpt lat="42.91167167" lon="0.184015">
        <ele>1696.0</ele>
        <time>2019-07-07T07:28:33.810Z</time>
      </trkpt>
      <trkpt lat="42.91167167" lon="0.184015">
        <ele>1696.0</ele>
        <time>2019-07-07T07:28:34.836Z</time>
      </trkpt>
      <trkpt lat="42.911645" lon="0.18397">
        <ele>1696.0</ele>
        <time>2019-07-07T07:28:35.802Z</time>
      </trkpt>
      <trkpt lat="42.91162833" lon="0.18395333">
        <ele>1697.0</ele>
        <time>2019-07-07T07:28:36.801Z</time>
      </trkpt>
      <trkpt lat="42.91162833" lon="0.18395333">
        <ele>1697.0</ele>
        <time>2019-07-07T07:28:37.806Z</time>
      </trkpt>
      <trkpt lat="42.91159667" lon="0.18391">
        <ele>1697.0</ele>
        <time>2019-07-07T07:28:38.814Z</time>
      </trkpt>
      <trkpt lat="42.91159667" lon="0.18391">
        <ele>1697.0</ele>
        <time>2019-07-07T07:28:39.832Z</time>
      </trkpt>
      <trkpt lat="42.91156333" lon="0.183865">
        <ele>1698.0</ele>
        <time>2019-07-07T07:28:40.841Z</time>
      </trkpt>
      <trkpt lat="42.91156333" lon="0.183865">
        <ele>1698.0</ele>
        <time>2019-07-07T07:28:41.801Z</time>
      </trkpt>
      <trkpt lat="42.91154167" lon="0.18382333">
        <ele>1698.0</ele>
        <time>2019-07-07T07:28:42.807Z</time>
      </trkpt>
      <trkpt lat="42.91152667" lon="0.183805">
        <ele>1699.0</ele>
        <time>2019-07-07T07:28:43.830Z</time>
      </trkpt>
      <trkpt lat="42.91152667" lon="0.183805">
        <ele>1699.0</ele>
        <time>2019-07-07T07:28:44.818Z</time>
      </trkpt>
      <trkpt lat="42.91149667" lon="0.18376667">
        <ele>1699.0</ele>
        <time>2019-07-07T07:28:45.824Z</time>
      </trkpt>
      <trkpt lat="42.91149667" lon="0.18376667">
        <ele>1699.0</ele>
        <time>2019-07-07T07:28:46.840Z</time>
      </trkpt>
      <trkpt lat="42.91146" lon="0.18372833">
        <ele>1700.0</ele>
        <time>2019-07-07T07:28:47.854Z</time>
      </trkpt>
      <trkpt lat="42.91144" lon="0.18370833">
        <ele>1700.0</ele>
        <time>2019-07-07T07:28:48.831Z</time>
      </trkpt>
      <trkpt lat="42.91142167" lon="0.18368833">
        <ele>1701.0</ele>
        <time>2019-07-07T07:28:49.803Z</time>
      </trkpt>
      <trkpt lat="42.91142167" lon="0.18368833">
        <ele>1701.0</ele>
        <time>2019-07-07T07:28:50.829Z</time>
      </trkpt>
      <trkpt lat="42.911385" lon="0.18364333">
        <ele>1701.0</ele>
        <time>2019-07-07T07:28:51.839Z</time>
      </trkpt>
      <trkpt lat="42.911385" lon="0.18364333">
        <ele>1701.0</ele>
        <time>2019-07-07T07:28:52.804Z</time>
      </trkpt>
      <trkpt lat="42.91134667" lon="0.18359667">
        <ele>1701.0</ele>
        <time>2019-07-07T07:28:53.817Z</time>
      </trkpt>
      <trkpt lat="42.91134667" lon="0.18359667">
        <ele>1701.0</ele>
        <time>2019-07-07T07:28:54.813Z</time>
      </trkpt>
      <trkpt lat="42.91131333" lon="0.18354833">
        <ele>1702.0</ele>
        <time>2019-07-07T07:28:55.819Z</time>
      </trkpt>
      <trkpt lat="42.91129833" lon="0.18352333">
        <ele>1702.0</ele>
        <time>2019-07-07T07:28:56.826Z</time>
      </trkpt>
      <trkpt lat="42.91129833" lon="0.18352333">
        <ele>1702.0</ele>
        <time>2019-07-07T07:28:57.802Z</time>
      </trkpt>
      <trkpt lat="42.911275" lon="0.18347333">
        <ele>1703.0</ele>
        <time>2019-07-07T07:28:58.808Z</time>
      </trkpt>
      <trkpt lat="42.911275" lon="0.18347333">
        <ele>1703.0</ele>
        <time>2019-07-07T07:28:59.833Z</time>
      </trkpt>
      <trkpt lat="42.91125833" lon="0.183415">
        <ele>1704.0</ele>
        <time>2019-07-07T07:29:00.804Z</time>
      </trkpt>
      <trkpt lat="42.911245" lon="0.183385">
        <ele>1704.0</ele>
        <time>2019-07-07T07:29:01.827Z</time>
      </trkpt>
      <trkpt lat="42.911245" lon="0.183385">
        <ele>1704.0</ele>
        <time>2019-07-07T07:29:02.803Z</time>
      </trkpt>
      <trkpt lat="42.91122167" lon="0.18332833">
        <ele>1705.0</ele>
        <time>2019-07-07T07:29:03.808Z</time>
      </trkpt>
      <trkpt lat="42.91121333" lon="0.1833">
        <ele>1705.0</ele>
        <time>2019-07-07T07:29:04.820Z</time>
      </trkpt>
      <trkpt lat="42.91121333" lon="0.1833">
        <ele>1705.0</ele>
        <time>2019-07-07T07:29:05.838Z</time>
      </trkpt>
      <trkpt lat="42.91119667" lon="0.183245">
        <ele>1705.0</ele>
        <time>2019-07-07T07:29:06.804Z</time>
      </trkpt>
      <trkpt lat="42.91119667" lon="0.183245">
        <ele>1705.0</ele>
        <time>2019-07-07T07:29:07.830Z</time>
      </trkpt>
      <trkpt lat="42.91118" lon="0.18319">
        <ele>1706.0</ele>
        <time>2019-07-07T07:29:08.836Z</time>
      </trkpt>
      <trkpt lat="42.91117167" lon="0.18316">
        <ele>1706.0</ele>
        <time>2019-07-07T07:29:09.820Z</time>
      </trkpt>
      <trkpt lat="42.91117167" lon="0.18316">
        <ele>1706.0</ele>
        <time>2019-07-07T07:29:10.835Z</time>
      </trkpt>
      <trkpt lat="42.91115167" lon="0.18309333">
        <ele>1706.0</ele>
        <time>2019-07-07T07:29:11.807Z</time>
      </trkpt>
      <trkpt lat="42.91115167" lon="0.18309333">
        <ele>1706.0</ele>
        <time>2019-07-07T07:29:12.815Z</time>
      </trkpt>
      <trkpt lat="42.91113167" lon="0.18303167">
        <ele>1706.0</ele>
        <time>2019-07-07T07:29:13.835Z</time>
      </trkpt>
      <trkpt lat="42.91112" lon="0.18300333">
        <ele>1707.0</ele>
        <time>2019-07-07T07:29:14.821Z</time>
      </trkpt>
      <trkpt lat="42.91112" lon="0.18300333">
        <ele>1707.0</ele>
        <time>2019-07-07T07:29:15.806Z</time>
      </trkpt>
      <trkpt lat="42.9111" lon="0.182945">
        <ele>1707.0</ele>
        <time>2019-07-07T07:29:16.812Z</time>
      </trkpt>
      <trkpt lat="42.9111" lon="0.182945">
        <ele>1707.0</ele>
        <time>2019-07-07T07:29:17.803Z</time>
      </trkpt>
      <trkpt lat="42.91108167" lon="0.182885">
        <ele>1708.0</ele>
        <time>2019-07-07T07:29:18.804Z</time>
      </trkpt>
      <trkpt lat="42.91108167" lon="0.182885">
        <ele>1708.0</ele>
        <time>2019-07-07T07:29:19.819Z</time>
      </trkpt>
      <trkpt lat="42.91106333" lon="0.18282667">
        <ele>1708.0</ele>
        <time>2019-07-07T07:29:20.825Z</time>
      </trkpt>
      <trkpt lat="42.911055" lon="0.18279667">
        <ele>1709.0</ele>
        <time>2019-07-07T07:29:21.831Z</time>
      </trkpt>
      <trkpt lat="42.91104667" lon="0.18276833">
        <ele>1709.0</ele>
        <time>2019-07-07T07:29:22.809Z</time>
      </trkpt>
      <trkpt lat="42.91104667" lon="0.18276833">
        <ele>1709.0</ele>
        <time>2019-07-07T07:29:23.823Z</time>
      </trkpt>
      <trkpt lat="42.91103333" lon="0.18271">
        <ele>1710.0</ele>
        <time>2019-07-07T07:29:24.835Z</time>
      </trkpt>
      <trkpt lat="42.91102667" lon="0.18268">
        <ele>1710.0</ele>
        <time>2019-07-07T07:29:25.824Z</time>
      </trkpt>
      <trkpt lat="42.91102667" lon="0.18268">
        <ele>1710.0</ele>
        <time>2019-07-07T07:29:26.829Z</time>
      </trkpt>
      <trkpt lat="42.91101667" lon="0.18262167">
        <ele>1711.0</ele>
        <time>2019-07-07T07:29:27.839Z</time>
      </trkpt>
      <trkpt lat="42.91101667" lon="0.18262167">
        <ele>1711.0</ele>
        <time>2019-07-07T07:29:28.805Z</time>
      </trkpt>
      <trkpt lat="42.911" lon="0.182565">
        <ele>1711.0</ele>
        <time>2019-07-07T07:29:29.819Z</time>
      </trkpt>
      <trkpt lat="42.911" lon="0.182565">
        <ele>1711.0</ele>
        <time>2019-07-07T07:29:30.803Z</time>
      </trkpt>
      <trkpt lat="42.91097833" lon="0.18251833">
        <ele>1711.0</ele>
        <time>2019-07-07T07:29:31.827Z</time>
      </trkpt>
      <trkpt lat="42.91097833" lon="0.18251833">
        <ele>1711.0</ele>
        <time>2019-07-07T07:29:32.828Z</time>
      </trkpt>
      <trkpt lat="42.91094667" lon="0.18248333">
        <ele>1712.0</ele>
        <time>2019-07-07T07:29:33.834Z</time>
      </trkpt>
      <trkpt lat="42.910935" lon="0.18246167">
        <ele>1712.0</ele>
        <time>2019-07-07T07:29:34.843Z</time>
      </trkpt>
      <trkpt lat="42.910935" lon="0.18246167">
        <ele>1712.0</ele>
        <time>2019-07-07T07:29:35.819Z</time>
      </trkpt>
      <trkpt lat="42.91091167" lon="0.18241">
        <ele>1712.0</ele>
        <time>2019-07-07T07:29:36.825Z</time>
      </trkpt>
      <trkpt lat="42.91091167" lon="0.18241">
        <ele>1712.0</ele>
        <time>2019-07-07T07:29:37.807Z</time>
      </trkpt>
      <trkpt lat="42.91088833" lon="0.18235333">
        <ele>1713.0</ele>
        <time>2019-07-07T07:29:38.801Z</time>
      </trkpt>
      <trkpt lat="42.91088833" lon="0.18235333">
        <ele>1713.0</ele>
        <time>2019-07-07T07:29:39.817Z</time>
      </trkpt>
      <trkpt lat="42.91086333" lon="0.18229833">
        <ele>1714.0</ele>
        <time>2019-07-07T07:29:40.834Z</time>
      </trkpt>
      <trkpt lat="42.91084833" lon="0.18227167">
        <ele>1714.0</ele>
        <time>2019-07-07T07:29:41.804Z</time>
      </trkpt>
      <trkpt lat="42.91084833" lon="0.18227167">
        <ele>1714.0</ele>
        <time>2019-07-07T07:29:42.820Z</time>
      </trkpt>
      <trkpt lat="42.91082" lon="0.18221833">
        <ele>1714.0</ele>
        <time>2019-07-07T07:29:43.827Z</time>
      </trkpt>
      <trkpt lat="42.910805" lon="0.18219333">
        <ele>1715.0</ele>
        <time>2019-07-07T07:29:44.832Z</time>
      </trkpt>
      <trkpt lat="42.910805" lon="0.18219333">
        <ele>1715.0</ele>
        <time>2019-07-07T07:29:45.820Z</time>
      </trkpt>
      <trkpt lat="42.91077333" lon="0.18214667">
        <ele>1715.0</ele>
        <time>2019-07-07T07:29:46.826Z</time>
      </trkpt>
      <trkpt lat="42.91077333" lon="0.18214667">
        <ele>1715.0</ele>
        <time>2019-07-07T07:29:47.860Z</time>
      </trkpt>
      <trkpt lat="42.91074333" lon="0.1821">
        <ele>1715.0</ele>
        <time>2019-07-07T07:29:48.832Z</time>
      </trkpt>
      <trkpt lat="42.91074333" lon="0.1821">
        <ele>1715.0</ele>
        <time>2019-07-07T07:29:49.820Z</time>
      </trkpt>
      <trkpt lat="42.91071333" lon="0.182055">
        <ele>1715.0</ele>
        <time>2019-07-07T07:29:50.826Z</time>
      </trkpt>
      <trkpt lat="42.91069833" lon="0.18203167">
        <ele>1716.0</ele>
        <time>2019-07-07T07:29:51.802Z</time>
      </trkpt>
      <trkpt lat="42.91069833" lon="0.18203167">
        <ele>1716.0</ele>
        <time>2019-07-07T07:29:52.827Z</time>
      </trkpt>
      <trkpt lat="42.91067167" lon="0.18198333">
        <ele>1716.0</ele>
        <time>2019-07-07T07:29:53.815Z</time>
      </trkpt>
      <trkpt lat="42.91067167" lon="0.18198333">
        <ele>1716.0</ele>
        <time>2019-07-07T07:29:54.806Z</time>
      </trkpt>
      <trkpt lat="42.91064167" lon="0.18193167">
        <ele>1717.0</ele>
        <time>2019-07-07T07:29:55.821Z</time>
      </trkpt>
      <trkpt lat="42.91062667" lon="0.181905">
        <ele>1717.0</ele>
        <time>2019-07-07T07:29:56.805Z</time>
      </trkpt>
      <trkpt lat="42.91062667" lon="0.181905">
        <ele>1717.0</ele>
        <time>2019-07-07T07:29:57.834Z</time>
      </trkpt>
      <trkpt lat="42.91059667" lon="0.18185167">
        <ele>1717.0</ele>
        <time>2019-07-07T07:29:58.812Z</time>
      </trkpt>
      <trkpt lat="42.91059667" lon="0.18185167">
        <ele>1717.0</ele>
        <time>2019-07-07T07:29:59.825Z</time>
      </trkpt>
      <trkpt lat="42.91056667" lon="0.1818">
        <ele>1717.0</ele>
        <time>2019-07-07T07:30:00.833Z</time>
      </trkpt>
      <trkpt lat="42.91056667" lon="0.1818">
        <ele>1717.0</ele>
        <time>2019-07-07T07:30:01.838Z</time>
      </trkpt>
      <trkpt lat="42.91054" lon="0.18174833">
        <ele>1718.0</ele>
        <time>2019-07-07T07:30:02.803Z</time>
      </trkpt>
      <trkpt lat="42.91052333" lon="0.18172333">
        <ele>1718.0</ele>
        <time>2019-07-07T07:30:03.819Z</time>
      </trkpt>
      <trkpt lat="42.91052333" lon="0.18172333">
        <ele>1718.0</ele>
        <time>2019-07-07T07:30:04.818Z</time>
      </trkpt>
      <trkpt lat="42.91049833" lon="0.18167333">
        <ele>1718.0</ele>
        <time>2019-07-07T07:30:05.833Z</time>
      </trkpt>
      <trkpt lat="42.91049833" lon="0.18167333">
        <ele>1718.0</ele>
        <time>2019-07-07T07:30:06.827Z</time>
      </trkpt>
      <trkpt lat="42.91047333" lon="0.181615">
        <ele>1718.0</ele>
        <time>2019-07-07T07:30:07.837Z</time>
      </trkpt>
      <trkpt lat="42.91047333" lon="0.181615">
        <ele>1718.0</ele>
        <time>2019-07-07T07:30:08.834Z</time>
      </trkpt>
      <trkpt lat="42.91045" lon="0.18155667">
        <ele>1719.0</ele>
        <time>2019-07-07T07:30:09.805Z</time>
      </trkpt>
      <trkpt lat="42.91045" lon="0.18155667">
        <ele>1719.0</ele>
        <time>2019-07-07T07:30:10.809Z</time>
      </trkpt>
      <trkpt lat="42.91042833" lon="0.1815">
        <ele>1719.0</ele>
        <time>2019-07-07T07:30:11.833Z</time>
      </trkpt>
      <trkpt lat="42.91041667" lon="0.18147">
        <ele>1719.0</ele>
        <time>2019-07-07T07:30:12.819Z</time>
      </trkpt>
      <trkpt lat="42.910405" lon="0.18144333">
        <ele>1720.0</ele>
        <time>2019-07-07T07:30:13.820Z</time>
      </trkpt>
      <trkpt lat="42.910405" lon="0.18144333">
        <ele>1720.0</ele>
        <time>2019-07-07T07:30:14.806Z</time>
      </trkpt>
      <trkpt lat="42.91038333" lon="0.181385">
        <ele>1720.0</ele>
        <time>2019-07-07T07:30:15.824Z</time>
      </trkpt>
      <trkpt lat="42.91037333" lon="0.18135667">
        <ele>1721.0</ele>
        <time>2019-07-07T07:30:16.839Z</time>
      </trkpt>
      <trkpt lat="42.91037333" lon="0.18135667">
        <ele>1721.0</ele>
        <time>2019-07-07T07:30:17.822Z</time>
      </trkpt>
      <trkpt lat="42.91035" lon="0.1813">
        <ele>1721.0</ele>
        <time>2019-07-07T07:30:18.815Z</time>
      </trkpt>
      <trkpt lat="42.91034" lon="0.18127167">
        <ele>1721.0</ele>
        <time>2019-07-07T07:30:19.803Z</time>
      </trkpt>
      <trkpt lat="42.91034" lon="0.18127167">
        <ele>1721.0</ele>
        <time>2019-07-07T07:30:20.827Z</time>
      </trkpt>
      <trkpt lat="42.91032" lon="0.18122">
        <ele>1722.0</ele>
        <time>2019-07-07T07:30:21.833Z</time>
      </trkpt>
      <trkpt lat="42.91032" lon="0.18122">
        <ele>1722.0</ele>
        <time>2019-07-07T07:30:22.827Z</time>
      </trkpt>
      <trkpt lat="42.91029667" lon="0.18116667">
        <ele>1722.0</ele>
        <time>2019-07-07T07:30:23.834Z</time>
      </trkpt>
      <trkpt lat="42.91029667" lon="0.18116667">
        <ele>1722.0</ele>
        <time>2019-07-07T07:30:24.817Z</time>
      </trkpt>
      <trkpt lat="42.91027667" lon="0.18110667">
        <ele>1723.0</ele>
        <time>2019-07-07T07:30:25.829Z</time>
      </trkpt>
      <trkpt lat="42.91026667" lon="0.18107833">
        <ele>1723.0</ele>
        <time>2019-07-07T07:30:26.823Z</time>
      </trkpt>
      <trkpt lat="42.91026667" lon="0.18107833">
        <ele>1723.0</ele>
        <time>2019-07-07T07:30:27.809Z</time>
      </trkpt>
      <trkpt lat="42.91024833" lon="0.181015">
        <ele>1723.0</ele>
        <time>2019-07-07T07:30:28.824Z</time>
      </trkpt>
      <trkpt lat="42.91024833" lon="0.181015">
        <ele>1723.0</ele>
        <time>2019-07-07T07:30:29.811Z</time>
      </trkpt>
      <trkpt lat="42.91023167" lon="0.18094833">
        <ele>1724.0</ele>
        <time>2019-07-07T07:30:30.819Z</time>
      </trkpt>
      <trkpt lat="42.91023167" lon="0.18094833">
        <ele>1724.0</ele>
        <time>2019-07-07T07:30:31.838Z</time>
      </trkpt>
      <trkpt lat="42.91022333" lon="0.18088833">
        <ele>1724.0</ele>
        <time>2019-07-07T07:30:32.803Z</time>
      </trkpt>
      <trkpt lat="42.91022333" lon="0.18088833">
        <ele>1724.0</ele>
        <time>2019-07-07T07:30:33.815Z</time>
      </trkpt>
      <trkpt lat="42.91021167" lon="0.18082833">
        <ele>1724.0</ele>
        <time>2019-07-07T07:30:34.822Z</time>
      </trkpt>
      <trkpt lat="42.91021167" lon="0.18082833">
        <ele>1724.0</ele>
        <time>2019-07-07T07:30:35.838Z</time>
      </trkpt>
      <trkpt lat="42.91019667" lon="0.18077">
        <ele>1724.0</ele>
        <time>2019-07-07T07:30:36.820Z</time>
      </trkpt>
      <trkpt lat="42.91019667" lon="0.18077">
        <ele>1724.0</ele>
        <time>2019-07-07T07:30:37.819Z</time>
      </trkpt>
      <trkpt lat="42.910185" lon="0.18071">
        <ele>1724.0</ele>
        <time>2019-07-07T07:30:38.825Z</time>
      </trkpt>
      <trkpt lat="42.91017833" lon="0.18068">
        <ele>1725.0</ele>
        <time>2019-07-07T07:30:39.810Z</time>
      </trkpt>
      <trkpt lat="42.91016667" lon="0.18064833">
        <ele>1725.0</ele>
        <time>2019-07-07T07:30:40.837Z</time>
      </trkpt>
      <trkpt lat="42.91015833" lon="0.18061333">
        <ele>1725.0</ele>
        <time>2019-07-07T07:30:41.830Z</time>
      </trkpt>
      <trkpt lat="42.91015833" lon="0.18061333">
        <ele>1725.0</ele>
        <time>2019-07-07T07:30:42.817Z</time>
      </trkpt>
      <trkpt lat="42.910145" lon="0.18055">
        <ele>1726.0</ele>
        <time>2019-07-07T07:30:43.834Z</time>
      </trkpt>
      <trkpt lat="42.91013833" lon="0.18051667">
        <ele>1726.0</ele>
        <time>2019-07-07T07:30:44.837Z</time>
      </trkpt>
      <trkpt lat="42.91013833" lon="0.18051667">
        <ele>1726.0</ele>
        <time>2019-07-07T07:30:45.805Z</time>
      </trkpt>
      <trkpt lat="42.91012833" lon="0.18045833">
        <ele>1726.0</ele>
        <time>2019-07-07T07:30:46.822Z</time>
      </trkpt>
      <trkpt lat="42.91012833" lon="0.18045833">
        <ele>1726.0</ele>
        <time>2019-07-07T07:30:47.809Z</time>
      </trkpt>
      <trkpt lat="42.910115" lon="0.180395">
        <ele>1726.0</ele>
        <time>2019-07-07T07:30:48.824Z</time>
      </trkpt>
      <trkpt lat="42.910115" lon="0.180395">
        <ele>1726.0</ele>
        <time>2019-07-07T07:30:49.813Z</time>
      </trkpt>
      <trkpt lat="42.91010333" lon="0.18033667">
        <ele>1727.0</ele>
        <time>2019-07-07T07:30:50.810Z</time>
      </trkpt>
      <trkpt lat="42.91010333" lon="0.18033667">
        <ele>1727.0</ele>
        <time>2019-07-07T07:30:51.803Z</time>
      </trkpt>
      <trkpt lat="42.91009167" lon="0.18028">
        <ele>1727.0</ele>
        <time>2019-07-07T07:30:52.810Z</time>
      </trkpt>
      <trkpt lat="42.91009167" lon="0.18028">
        <ele>1727.0</ele>
        <time>2019-07-07T07:30:53.824Z</time>
      </trkpt>
      <trkpt lat="42.91008167" lon="0.180215">
        <ele>1727.0</ele>
        <time>2019-07-07T07:30:54.807Z</time>
      </trkpt>
      <trkpt lat="42.91008167" lon="0.180215">
        <ele>1727.0</ele>
        <time>2019-07-07T07:30:55.824Z</time>
      </trkpt>
      <trkpt lat="42.91006833" lon="0.18015333">
        <ele>1728.0</ele>
        <time>2019-07-07T07:30:56.831Z</time>
      </trkpt>
      <trkpt lat="42.91006833" lon="0.18015333">
        <ele>1728.0</ele>
        <time>2019-07-07T07:30:57.815Z</time>
      </trkpt>
      <trkpt lat="42.910065" lon="0.18008833">
        <ele>1728.0</ele>
        <time>2019-07-07T07:30:58.816Z</time>
      </trkpt>
      <trkpt lat="42.91006" lon="0.18006167">
        <ele>1728.0</ele>
        <time>2019-07-07T07:30:59.829Z</time>
      </trkpt>
      <trkpt lat="42.91006" lon="0.18006167">
        <ele>1728.0</ele>
        <time>2019-07-07T07:31:00.818Z</time>
      </trkpt>
      <trkpt lat="42.910055" lon="0.18">
        <ele>1729.0</ele>
        <time>2019-07-07T07:31:01.836Z</time>
      </trkpt>
      <trkpt lat="42.910055" lon="0.18">
        <ele>1729.0</ele>
        <time>2019-07-07T07:31:02.825Z</time>
      </trkpt>
      <trkpt lat="42.91005167" lon="0.17993333">
        <ele>1729.0</ele>
        <time>2019-07-07T07:31:03.815Z</time>
      </trkpt>
      <trkpt lat="42.91005" lon="0.179905">
        <ele>1729.0</ele>
        <time>2019-07-07T07:31:04.807Z</time>
      </trkpt>
      <trkpt lat="42.91005" lon="0.179905">
        <ele>1729.0</ele>
        <time>2019-07-07T07:31:05.832Z</time>
      </trkpt>
      <trkpt lat="42.91004833" lon="0.17983833">
        <ele>1730.0</ele>
        <time>2019-07-07T07:31:06.805Z</time>
      </trkpt>
      <trkpt lat="42.91004667" lon="0.17980667">
        <ele>1730.0</ele>
        <time>2019-07-07T07:31:07.828Z</time>
      </trkpt>
      <trkpt lat="42.91004667" lon="0.17980667">
        <ele>1730.0</ele>
        <time>2019-07-07T07:31:08.815Z</time>
      </trkpt>
      <trkpt lat="42.910045" lon="0.17973333">
        <ele>1731.0</ele>
        <time>2019-07-07T07:31:09.830Z</time>
      </trkpt>
      <trkpt lat="42.91005" lon="0.179695">
        <ele>1731.0</ele>
        <time>2019-07-07T07:31:10.827Z</time>
      </trkpt>
      <trkpt lat="42.91005" lon="0.179695">
        <ele>1731.0</ele>
        <time>2019-07-07T07:31:11.821Z</time>
      </trkpt>
      <trkpt lat="42.91005833" lon="0.17961667">
        <ele>1731.0</ele>
        <time>2019-07-07T07:31:12.828Z</time>
      </trkpt>
      <trkpt lat="42.91005833" lon="0.17961667">
        <ele>1731.0</ele>
        <time>2019-07-07T07:31:13.839Z</time>
      </trkpt>
      <trkpt lat="42.91007833" lon="0.17955">
        <ele>1732.0</ele>
        <time>2019-07-07T07:31:14.805Z</time>
      </trkpt>
      <trkpt lat="42.91009333" lon="0.17951667">
        <ele>1732.0</ele>
        <time>2019-07-07T07:31:15.835Z</time>
      </trkpt>
      <trkpt lat="42.91009333" lon="0.17951667">
        <ele>1732.0</ele>
        <time>2019-07-07T07:31:16.805Z</time>
      </trkpt>
      <trkpt lat="42.91011833" lon="0.179455">
        <ele>1732.0</ele>
        <time>2019-07-07T07:31:17.812Z</time>
      </trkpt>
      <trkpt lat="42.91011833" lon="0.179455">
        <ele>1732.0</ele>
        <time>2019-07-07T07:31:18.839Z</time>
      </trkpt>
      <trkpt lat="42.910145" lon="0.179405">
        <ele>1733.0</ele>
        <time>2019-07-07T07:31:19.819Z</time>
      </trkpt>
      <trkpt lat="42.91016167" lon="0.17938167">
        <ele>1733.0</ele>
        <time>2019-07-07T07:31:20.837Z</time>
      </trkpt>
      <trkpt lat="42.91016167" lon="0.17938167">
        <ele>1733.0</ele>
        <time>2019-07-07T07:31:21.815Z</time>
      </trkpt>
      <trkpt lat="42.91019333" lon="0.17933833">
        <ele>1733.0</ele>
        <time>2019-07-07T07:31:22.824Z</time>
      </trkpt>
      <trkpt lat="42.91021167" lon="0.17932">
        <ele>1733.0</ele>
        <time>2019-07-07T07:31:23.801Z</time>
      </trkpt>
      <trkpt lat="42.91021167" lon="0.17932">
        <ele>1733.0</ele>
        <time>2019-07-07T07:31:24.818Z</time>
      </trkpt>
      <trkpt lat="42.91025667" lon="0.17929167">
        <ele>1733.0</ele>
        <time>2019-07-07T07:31:25.825Z</time>
      </trkpt>
      <trkpt lat="42.91025667" lon="0.17929167">
        <ele>1733.0</ele>
        <time>2019-07-07T07:31:26.810Z</time>
      </trkpt>
      <trkpt lat="42.91030333" lon="0.17927">
        <ele>1734.0</ele>
        <time>2019-07-07T07:31:27.817Z</time>
      </trkpt>
      <trkpt lat="42.91030333" lon="0.17927">
        <ele>1734.0</ele>
        <time>2019-07-07T07:31:28.802Z</time>
      </trkpt>
      <trkpt lat="42.91035" lon="0.179255">
        <ele>1734.0</ele>
        <time>2019-07-07T07:31:29.805Z</time>
      </trkpt>
      <trkpt lat="42.91035" lon="0.179255">
        <ele>1734.0</ele>
        <time>2019-07-07T07:31:30.829Z</time>
      </trkpt>
      <trkpt lat="42.91039667" lon="0.17923333">
        <ele>1735.0</ele>
        <time>2019-07-07T07:31:31.837Z</time>
      </trkpt>
      <trkpt lat="42.91042" lon="0.17921667">
        <ele>1735.0</ele>
        <time>2019-07-07T07:31:32.810Z</time>
      </trkpt>
      <trkpt lat="42.91042" lon="0.17921667">
        <ele>1735.0</ele>
        <time>2019-07-07T07:31:33.823Z</time>
      </trkpt>
      <trkpt lat="42.91047167" lon="0.17917667">
        <ele>1736.0</ele>
        <time>2019-07-07T07:31:34.834Z</time>
      </trkpt>
      <trkpt lat="42.91047167" lon="0.17917667">
        <ele>1736.0</ele>
        <time>2019-07-07T07:31:35.825Z</time>
      </trkpt>
      <trkpt lat="42.91051833" lon="0.17912833">
        <ele>1737.0</ele>
        <time>2019-07-07T07:31:36.826Z</time>
      </trkpt>
      <trkpt lat="42.91051833" lon="0.17912833">
        <ele>1737.0</ele>
        <time>2019-07-07T07:31:37.831Z</time>
      </trkpt>
      <trkpt lat="42.91057333" lon="0.1791">
        <ele>1738.0</ele>
        <time>2019-07-07T07:31:38.839Z</time>
      </trkpt>
      <trkpt lat="42.91060167" lon="0.17909167">
        <ele>1738.0</ele>
        <time>2019-07-07T07:31:39.824Z</time>
      </trkpt>
      <trkpt lat="42.91063" lon="0.17908667">
        <ele>1739.0</ele>
        <time>2019-07-07T07:31:40.810Z</time>
      </trkpt>
      <trkpt lat="42.91065833" lon="0.17908">
        <ele>1739.0</ele>
        <time>2019-07-07T07:31:41.835Z</time>
      </trkpt>
      <trkpt lat="42.91065833" lon="0.17908">
        <ele>1739.0</ele>
        <time>2019-07-07T07:31:42.819Z</time>
      </trkpt>
      <trkpt lat="42.91070833" lon="0.17906333">
        <ele>1739.0</ele>
        <time>2019-07-07T07:31:43.825Z</time>
      </trkpt>
      <trkpt lat="42.91070833" lon="0.17906333">
        <ele>1739.0</ele>
        <time>2019-07-07T07:31:44.812Z</time>
      </trkpt>
      <trkpt lat="42.91075333" lon="0.17903833">
        <ele>1740.0</ele>
        <time>2019-07-07T07:31:45.816Z</time>
      </trkpt>
      <trkpt lat="42.91075333" lon="0.17903833">
        <ele>1740.0</ele>
        <time>2019-07-07T07:31:46.828Z</time>
      </trkpt>
      <trkpt lat="42.91079833" lon="0.17901167">
        <ele>1740.0</ele>
        <time>2019-07-07T07:31:47.851Z</time>
      </trkpt>
      <trkpt lat="42.91079833" lon="0.17901167">
        <ele>1740.0</ele>
        <time>2019-07-07T07:31:48.813Z</time>
      </trkpt>
      <trkpt lat="42.91084167" lon="0.17898">
        <ele>1741.0</ele>
        <time>2019-07-07T07:31:49.822Z</time>
      </trkpt>
      <trkpt lat="42.91084167" lon="0.17898">
        <ele>1741.0</ele>
        <time>2019-07-07T07:31:50.804Z</time>
      </trkpt>
      <trkpt lat="42.91088167" lon="0.17894167">
        <ele>1741.0</ele>
        <time>2019-07-07T07:31:51.840Z</time>
      </trkpt>
      <trkpt lat="42.91088167" lon="0.17894167">
        <ele>1741.0</ele>
        <time>2019-07-07T07:31:52.809Z</time>
      </trkpt>
      <trkpt lat="42.91092167" lon="0.17890167">
        <ele>1742.0</ele>
        <time>2019-07-07T07:31:53.815Z</time>
      </trkpt>
      <trkpt lat="42.91094" lon="0.17888">
        <ele>1742.0</ele>
        <time>2019-07-07T07:31:54.803Z</time>
      </trkpt>
      <trkpt lat="42.91094" lon="0.17888">
        <ele>1742.0</ele>
        <time>2019-07-07T07:31:55.803Z</time>
      </trkpt>
      <trkpt lat="42.91097" lon="0.17883333">
        <ele>1743.0</ele>
        <time>2019-07-07T07:31:56.809Z</time>
      </trkpt>
      <trkpt lat="42.910985" lon="0.178805">
        <ele>1743.0</ele>
        <time>2019-07-07T07:31:57.824Z</time>
      </trkpt>
      <trkpt lat="42.910985" lon="0.178805">
        <ele>1743.0</ele>
        <time>2019-07-07T07:31:58.831Z</time>
      </trkpt>
      <trkpt lat="42.911015" lon="0.17874833">
        <ele>1743.0</ele>
        <time>2019-07-07T07:31:59.840Z</time>
      </trkpt>
      <trkpt lat="42.91102833" lon="0.178715">
        <ele>1744.0</ele>
        <time>2019-07-07T07:32:00.813Z</time>
      </trkpt>
      <trkpt lat="42.91104" lon="0.17867167">
        <ele>1745.0</ele>
        <time>2019-07-07T07:32:01.836Z</time>
      </trkpt>
      <trkpt lat="42.91104" lon="0.17867167">
        <ele>1745.0</ele>
        <time>2019-07-07T07:32:02.808Z</time>
      </trkpt>
      <trkpt lat="42.91105667" lon="0.17860333">
        <ele>1746.0</ele>
        <time>2019-07-07T07:32:03.822Z</time>
      </trkpt>
      <trkpt lat="42.91106333" lon="0.17857167">
        <ele>1746.0</ele>
        <time>2019-07-07T07:32:04.815Z</time>
      </trkpt>
      <trkpt lat="42.91106333" lon="0.17857167">
        <ele>1746.0</ele>
        <time>2019-07-07T07:32:05.805Z</time>
      </trkpt>
      <trkpt lat="42.91106667" lon="0.17850667">
        <ele>1747.0</ele>
        <time>2019-07-07T07:32:06.821Z</time>
      </trkpt>
      <trkpt lat="42.91106667" lon="0.17850667">
        <ele>1747.0</ele>
        <time>2019-07-07T07:32:07.805Z</time>
      </trkpt>
      <trkpt lat="42.91105667" lon="0.17845">
        <ele>1747.0</ele>
        <time>2019-07-07T07:32:08.827Z</time>
      </trkpt>
      <trkpt lat="42.911055" lon="0.17842">
        <ele>1747.0</ele>
        <time>2019-07-07T07:32:09.804Z</time>
      </trkpt>
      <trkpt lat="42.911055" lon="0.17838833">
        <ele>1748.0</ele>
        <time>2019-07-07T07:32:10.828Z</time>
      </trkpt>
      <trkpt lat="42.911055" lon="0.17835">
        <ele>1748.0</ele>
        <time>2019-07-07T07:32:11.809Z</time>
      </trkpt>
      <trkpt lat="42.911055" lon="0.17835">
        <ele>1748.0</ele>
        <time>2019-07-07T07:32:12.835Z</time>
      </trkpt>
      <trkpt lat="42.91106" lon="0.17827833">
        <ele>1748.0</ele>
        <time>2019-07-07T07:32:13.840Z</time>
      </trkpt>
      <trkpt lat="42.91106" lon="0.17827833">
        <ele>1748.0</ele>
        <time>2019-07-07T07:32:14.831Z</time>
      </trkpt>
      <trkpt lat="42.91106667" lon="0.17821167">
        <ele>1749.0</ele>
        <time>2019-07-07T07:32:15.838Z</time>
      </trkpt>
      <trkpt lat="42.91106833" lon="0.17818167">
        <ele>1749.0</ele>
        <time>2019-07-07T07:32:16.825Z</time>
      </trkpt>
      <trkpt lat="42.91106833" lon="0.17818167">
        <ele>1749.0</ele>
        <time>2019-07-07T07:32:17.819Z</time>
      </trkpt>
      <trkpt lat="42.911065" lon="0.17813333">
        <ele>1750.0</ele>
        <time>2019-07-07T07:32:18.834Z</time>
      </trkpt>
      <trkpt lat="42.911065" lon="0.17813333">
        <ele>1750.0</ele>
        <time>2019-07-07T07:32:19.827Z</time>
      </trkpt>
      <trkpt lat="42.91106167" lon="0.17807667">
        <ele>1750.0</ele>
        <time>2019-07-07T07:32:20.807Z</time>
      </trkpt>
      <trkpt lat="42.91106167" lon="0.17807667">
        <ele>1750.0</ele>
        <time>2019-07-07T07:32:21.820Z</time>
      </trkpt>
      <trkpt lat="42.911055" lon="0.17802">
        <ele>1751.0</ele>
        <time>2019-07-07T07:32:22.828Z</time>
      </trkpt>
      <trkpt lat="42.911055" lon="0.17802">
        <ele>1751.0</ele>
        <time>2019-07-07T07:32:23.817Z</time>
      </trkpt>
      <trkpt lat="42.91106167" lon="0.17796">
        <ele>1751.0</ele>
        <time>2019-07-07T07:32:24.813Z</time>
      </trkpt>
      <trkpt lat="42.91106167" lon="0.17796">
        <ele>1751.0</ele>
        <time>2019-07-07T07:32:25.819Z</time>
      </trkpt>
      <trkpt lat="42.91106333" lon="0.17789333">
        <ele>1752.0</ele>
        <time>2019-07-07T07:32:26.825Z</time>
      </trkpt>
      <trkpt lat="42.91105167" lon="0.17785833">
        <ele>1752.0</ele>
        <time>2019-07-07T07:32:27.812Z</time>
      </trkpt>
      <trkpt lat="42.91105167" lon="0.17785833">
        <ele>1752.0</ele>
        <time>2019-07-07T07:32:28.828Z</time>
      </trkpt>
      <trkpt lat="42.91104167" lon="0.17778667">
        <ele>1752.0</ele>
        <time>2019-07-07T07:32:29.805Z</time>
      </trkpt>
      <trkpt lat="42.91104167" lon="0.17778667">
        <ele>1752.0</ele>
        <time>2019-07-07T07:32:30.823Z</time>
      </trkpt>
      <trkpt lat="42.91103333" lon="0.17772333">
        <ele>1752.0</ele>
        <time>2019-07-07T07:32:31.831Z</time>
      </trkpt>
      <trkpt lat="42.91103333" lon="0.17772333">
        <ele>1752.0</ele>
        <time>2019-07-07T07:32:32.819Z</time>
      </trkpt>
      <trkpt lat="42.91102167" lon="0.177655">
        <ele>1753.0</ele>
        <time>2019-07-07T07:32:33.830Z</time>
      </trkpt>
      <trkpt lat="42.91102167" lon="0.17762167">
        <ele>1753.0</ele>
        <time>2019-07-07T07:32:34.826Z</time>
      </trkpt>
      <trkpt lat="42.91102167" lon="0.17762167">
        <ele>1753.0</ele>
        <time>2019-07-07T07:32:35.810Z</time>
      </trkpt>
      <trkpt lat="42.91101" lon="0.177555">
        <ele>1754.0</ele>
        <time>2019-07-07T07:32:36.815Z</time>
      </trkpt>
      <trkpt lat="42.91101" lon="0.177555">
        <ele>1754.0</ele>
        <time>2019-07-07T07:32:37.821Z</time>
      </trkpt>
      <trkpt lat="42.91100833" lon="0.17749333">
        <ele>1754.0</ele>
        <time>2019-07-07T07:32:38.828Z</time>
      </trkpt>
      <trkpt lat="42.91100167" lon="0.17745333">
        <ele>1755.0</ele>
        <time>2019-07-07T07:32:39.816Z</time>
      </trkpt>
      <trkpt lat="42.91099833" lon="0.17741">
        <ele>1755.0</ele>
        <time>2019-07-07T07:32:40.840Z</time>
      </trkpt>
      <trkpt lat="42.91099833" lon="0.17741">
        <ele>1755.0</ele>
        <time>2019-07-07T07:32:41.817Z</time>
      </trkpt>
      <trkpt lat="42.91098167" lon="0.17733667">
        <ele>1756.0</ele>
        <time>2019-07-07T07:32:42.822Z</time>
      </trkpt>
      <trkpt lat="42.91098167" lon="0.17733667">
        <ele>1756.0</ele>
        <time>2019-07-07T07:32:43.809Z</time>
      </trkpt>
      <trkpt lat="42.91095333" lon="0.177275">
        <ele>1757.0</ele>
        <time>2019-07-07T07:32:44.821Z</time>
      </trkpt>
      <trkpt lat="42.91093833" lon="0.17724333">
        <ele>1757.0</ele>
        <time>2019-07-07T07:32:45.818Z</time>
      </trkpt>
      <trkpt lat="42.91094333" lon="0.17719833">
        <ele>1757.0</ele>
        <time>2019-07-07T07:32:46.825Z</time>
      </trkpt>
      <trkpt lat="42.91094333" lon="0.17719833">
        <ele>1757.0</ele>
        <time>2019-07-07T07:32:47.894Z</time>
      </trkpt>
      <trkpt lat="42.91093833" lon="0.17712167">
        <ele>1757.0</ele>
        <time>2019-07-07T07:32:48.823Z</time>
      </trkpt>
      <trkpt lat="42.91092833" lon="0.17709">
        <ele>1758.0</ele>
        <time>2019-07-07T07:32:49.807Z</time>
      </trkpt>
      <trkpt lat="42.91092833" lon="0.17709">
        <ele>1758.0</ele>
        <time>2019-07-07T07:32:50.832Z</time>
      </trkpt>
      <trkpt lat="42.91090667" lon="0.177025">
        <ele>1758.0</ele>
        <time>2019-07-07T07:32:51.810Z</time>
      </trkpt>
      <trkpt lat="42.91090667" lon="0.177025">
        <ele>1758.0</ele>
        <time>2019-07-07T07:32:52.835Z</time>
      </trkpt>
      <trkpt lat="42.91086833" lon="0.17697667">
        <ele>1758.0</ele>
        <time>2019-07-07T07:32:53.803Z</time>
      </trkpt>
      <trkpt lat="42.91086833" lon="0.17697667">
        <ele>1758.0</ele>
        <time>2019-07-07T07:32:54.820Z</time>
      </trkpt>
      <trkpt lat="42.910835" lon="0.17692833">
        <ele>1759.0</ele>
        <time>2019-07-07T07:32:55.827Z</time>
      </trkpt>
      <trkpt lat="42.910835" lon="0.17692833">
        <ele>1759.0</ele>
        <time>2019-07-07T07:32:56.809Z</time>
      </trkpt>
      <trkpt lat="42.91080833" lon="0.17686833">
        <ele>1759.0</ele>
        <time>2019-07-07T07:32:57.804Z</time>
      </trkpt>
      <trkpt lat="42.910795" lon="0.17683833">
        <ele>1760.0</ele>
        <time>2019-07-07T07:32:58.839Z</time>
      </trkpt>
      <trkpt lat="42.910795" lon="0.17683833">
        <ele>1760.0</ele>
        <time>2019-07-07T07:32:59.818Z</time>
      </trkpt>
      <trkpt lat="42.91077333" lon="0.17678">
        <ele>1760.0</ele>
        <time>2019-07-07T07:33:00.838Z</time>
      </trkpt>
      <trkpt lat="42.91076333" lon="0.17675167">
        <ele>1760.0</ele>
        <time>2019-07-07T07:33:01.804Z</time>
      </trkpt>
      <trkpt lat="42.91076333" lon="0.17675167">
        <ele>1760.0</ele>
        <time>2019-07-07T07:33:02.830Z</time>
      </trkpt>
      <trkpt lat="42.91074" lon="0.17669333">
        <ele>1761.0</ele>
        <time>2019-07-07T07:33:03.844Z</time>
      </trkpt>
      <trkpt lat="42.91073" lon="0.176665">
        <ele>1761.0</ele>
        <time>2019-07-07T07:33:04.802Z</time>
      </trkpt>
      <trkpt lat="42.91073" lon="0.176665">
        <ele>1761.0</ele>
        <time>2019-07-07T07:33:05.823Z</time>
      </trkpt>
      <trkpt lat="42.91070667" lon="0.17661167">
        <ele>1761.0</ele>
        <time>2019-07-07T07:33:06.803Z</time>
      </trkpt>
      <trkpt lat="42.910695" lon="0.176585">
        <ele>1762.0</ele>
        <time>2019-07-07T07:33:07.822Z</time>
      </trkpt>
      <trkpt lat="42.910695" lon="0.176585">
        <ele>1762.0</ele>
        <time>2019-07-07T07:33:08.807Z</time>
      </trkpt>
      <trkpt lat="42.91066833" lon="0.176535">
        <ele>1762.0</ele>
        <time>2019-07-07T07:33:09.839Z</time>
      </trkpt>
      <trkpt lat="42.91065833" lon="0.17650667">
        <ele>1762.0</ele>
        <time>2019-07-07T07:33:10.834Z</time>
      </trkpt>
      <trkpt lat="42.91065833" lon="0.17650667">
        <ele>1762.0</ele>
        <time>2019-07-07T07:33:11.823Z</time>
      </trkpt>
      <trkpt lat="42.91064" lon="0.17645">
        <ele>1763.0</ele>
        <time>2019-07-07T07:33:12.841Z</time>
      </trkpt>
      <trkpt lat="42.91062833" lon="0.17642333">
        <ele>1763.0</ele>
        <time>2019-07-07T07:33:13.814Z</time>
      </trkpt>
      <trkpt lat="42.91062833" lon="0.17642333">
        <ele>1763.0</ele>
        <time>2019-07-07T07:33:14.818Z</time>
      </trkpt>
      <trkpt lat="42.91060167" lon="0.17637833">
        <ele>1764.0</ele>
        <time>2019-07-07T07:33:15.824Z</time>
      </trkpt>
      <trkpt lat="42.91060167" lon="0.17637833">
        <ele>1764.0</ele>
        <time>2019-07-07T07:33:16.840Z</time>
      </trkpt>
      <trkpt lat="42.910585" lon="0.17631333">
        <ele>1765.0</ele>
        <time>2019-07-07T07:33:17.806Z</time>
      </trkpt>
      <trkpt lat="42.91057667" lon="0.17627833">
        <ele>1765.0</ele>
        <time>2019-07-07T07:33:18.817Z</time>
      </trkpt>
      <trkpt lat="42.91057667" lon="0.17627833">
        <ele>1765.0</ele>
        <time>2019-07-07T07:33:19.803Z</time>
      </trkpt>
      <trkpt lat="42.91056667" lon="0.17621167">
        <ele>1766.0</ele>
        <time>2019-07-07T07:33:20.809Z</time>
      </trkpt>
      <trkpt lat="42.91057333" lon="0.17616667">
        <ele>1767.0</ele>
        <time>2019-07-07T07:33:21.808Z</time>
      </trkpt>
      <trkpt lat="42.91057333" lon="0.17616667">
        <ele>1767.0</ele>
        <time>2019-07-07T07:33:22.840Z</time>
      </trkpt>
      <trkpt lat="42.910585" lon="0.17607833">
        <ele>1769.0</ele>
        <time>2019-07-07T07:33:23.806Z</time>
      </trkpt>
      <trkpt lat="42.910585" lon="0.17607833">
        <ele>1769.0</ele>
        <time>2019-07-07T07:33:24.820Z</time>
      </trkpt>
      <trkpt lat="42.91058667" lon="0.17600667">
        <ele>1770.0</ele>
        <time>2019-07-07T07:33:25.805Z</time>
      </trkpt>
      <trkpt lat="42.91058667" lon="0.17600667">
        <ele>1770.0</ele>
        <time>2019-07-07T07:33:26.840Z</time>
      </trkpt>
      <trkpt lat="42.91058333" lon="0.17593833">
        <ele>1771.0</ele>
        <time>2019-07-07T07:33:27.806Z</time>
      </trkpt>
      <trkpt lat="42.91058333" lon="0.17593833">
        <ele>1771.0</ele>
        <time>2019-07-07T07:33:28.828Z</time>
      </trkpt>
      <trkpt lat="42.91057833" lon="0.17587667">
        <ele>1772.0</ele>
        <time>2019-07-07T07:33:29.833Z</time>
      </trkpt>
      <trkpt lat="42.91057833" lon="0.17587667">
        <ele>1772.0</ele>
        <time>2019-07-07T07:33:30.811Z</time>
      </trkpt>
      <trkpt lat="42.91057333" lon="0.17580833">
        <ele>1772.0</ele>
        <time>2019-07-07T07:33:31.823Z</time>
      </trkpt>
      <trkpt lat="42.91057167" lon="0.17577167">
        <ele>1772.0</ele>
        <time>2019-07-07T07:33:32.803Z</time>
      </trkpt>
      <trkpt lat="42.91057167" lon="0.17577167">
        <ele>1772.0</ele>
        <time>2019-07-07T07:33:33.809Z</time>
      </trkpt>
      <trkpt lat="42.91056667" lon="0.1757">
        <ele>1772.0</ele>
        <time>2019-07-07T07:33:34.824Z</time>
      </trkpt>
      <trkpt lat="42.91057" lon="0.175665">
        <ele>1773.0</ele>
        <time>2019-07-07T07:33:35.802Z</time>
      </trkpt>
      <trkpt lat="42.91057" lon="0.175665">
        <ele>1773.0</ele>
        <time>2019-07-07T07:33:36.829Z</time>
      </trkpt>
      <trkpt lat="42.91057667" lon="0.1756">
        <ele>1773.0</ele>
        <time>2019-07-07T07:33:37.836Z</time>
      </trkpt>
      <trkpt lat="42.91057667" lon="0.1756">
        <ele>1773.0</ele>
        <time>2019-07-07T07:33:38.807Z</time>
      </trkpt>
      <trkpt lat="42.91058167" lon="0.17553333">
        <ele>1773.0</ele>
        <time>2019-07-07T07:33:39.816Z</time>
      </trkpt>
      <trkpt lat="42.91058167" lon="0.17553333">
        <ele>1773.0</ele>
        <time>2019-07-07T07:33:40.822Z</time>
      </trkpt>
      <trkpt lat="42.910585" lon="0.17546333">
        <ele>1774.0</ele>
        <time>2019-07-07T07:33:41.829Z</time>
      </trkpt>
      <trkpt lat="42.910585" lon="0.17546333">
        <ele>1774.0</ele>
        <time>2019-07-07T07:33:42.814Z</time>
      </trkpt>
      <trkpt lat="42.91058167" lon="0.17539333">
        <ele>1774.0</ele>
        <time>2019-07-07T07:33:43.811Z</time>
      </trkpt>
      <trkpt lat="42.91058167" lon="0.17536167">
        <ele>1774.0</ele>
        <time>2019-07-07T07:33:44.811Z</time>
      </trkpt>
      <trkpt lat="42.91058167" lon="0.17536167">
        <ele>1774.0</ele>
        <time>2019-07-07T07:33:45.840Z</time>
      </trkpt>
      <trkpt lat="42.91058667" lon="0.175295">
        <ele>1774.0</ele>
        <time>2019-07-07T07:33:46.833Z</time>
      </trkpt>
      <trkpt lat="42.91058667" lon="0.175295">
        <ele>1774.0</ele>
        <time>2019-07-07T07:33:47.856Z</time>
      </trkpt>
      <trkpt lat="42.91059333" lon="0.17522667">
        <ele>1775.0</ele>
        <time>2019-07-07T07:33:48.829Z</time>
      </trkpt>
      <trkpt lat="42.91059333" lon="0.17519">
        <ele>1775.0</ele>
        <time>2019-07-07T07:33:49.825Z</time>
      </trkpt>
      <trkpt lat="42.91059333" lon="0.17519">
        <ele>1775.0</ele>
        <time>2019-07-07T07:33:50.838Z</time>
      </trkpt>
      <trkpt lat="42.9106" lon="0.17512167">
        <ele>1775.0</ele>
        <time>2019-07-07T07:33:51.803Z</time>
      </trkpt>
      <trkpt lat="42.910605" lon="0.17508667">
        <ele>1775.0</ele>
        <time>2019-07-07T07:33:52.823Z</time>
      </trkpt>
      <trkpt lat="42.910605" lon="0.17508667">
        <ele>1775.0</ele>
        <time>2019-07-07T07:33:53.802Z</time>
      </trkpt>
      <trkpt lat="42.91060667" lon="0.17501833">
        <ele>1775.0</ele>
        <time>2019-07-07T07:33:54.820Z</time>
      </trkpt>
      <trkpt lat="42.91060667" lon="0.174985">
        <ele>1776.0</ele>
        <time>2019-07-07T07:33:55.812Z</time>
      </trkpt>
      <trkpt lat="42.91060667" lon="0.174985">
        <ele>1776.0</ele>
        <time>2019-07-07T07:33:56.837Z</time>
      </trkpt>
      <trkpt lat="42.910605" lon="0.174915">
        <ele>1776.0</ele>
        <time>2019-07-07T07:33:57.803Z</time>
      </trkpt>
      <trkpt lat="42.91060333" lon="0.17488167">
        <ele>1776.0</ele>
        <time>2019-07-07T07:33:58.832Z</time>
      </trkpt>
      <trkpt lat="42.91060167" lon="0.17484833">
        <ele>1776.0</ele>
        <time>2019-07-07T07:33:59.838Z</time>
      </trkpt>
      <trkpt lat="42.91060167" lon="0.17484833">
        <ele>1776.0</ele>
        <time>2019-07-07T07:34:00.809Z</time>
      </trkpt>
      <trkpt lat="42.91059667" lon="0.17478">
        <ele>1777.0</ele>
        <time>2019-07-07T07:34:01.819Z</time>
      </trkpt>
      <trkpt lat="42.91059667" lon="0.17478">
        <ele>1777.0</ele>
        <time>2019-07-07T07:34:02.821Z</time>
      </trkpt>
      <trkpt lat="42.91059667" lon="0.174715">
        <ele>1777.0</ele>
        <time>2019-07-07T07:34:03.828Z</time>
      </trkpt>
      <trkpt lat="42.9106" lon="0.17468333">
        <ele>1777.0</ele>
        <time>2019-07-07T07:34:04.810Z</time>
      </trkpt>
      <trkpt lat="42.9106" lon="0.17468333">
        <ele>1777.0</ele>
        <time>2019-07-07T07:34:05.808Z</time>
      </trkpt>
      <trkpt lat="42.9106" lon="0.17461833">
        <ele>1777.0</ele>
        <time>2019-07-07T07:34:06.818Z</time>
      </trkpt>
      <trkpt lat="42.9106" lon="0.17458333">
        <ele>1778.0</ele>
        <time>2019-07-07T07:34:07.802Z</time>
      </trkpt>
      <trkpt lat="42.9106" lon="0.17458333">
        <ele>1778.0</ele>
        <time>2019-07-07T07:34:08.802Z</time>
      </trkpt>
      <trkpt lat="42.910595" lon="0.17451667">
        <ele>1778.0</ele>
        <time>2019-07-07T07:34:09.813Z</time>
      </trkpt>
      <trkpt lat="42.910595" lon="0.17451667">
        <ele>1778.0</ele>
        <time>2019-07-07T07:34:10.814Z</time>
      </trkpt>
      <trkpt lat="42.91059" lon="0.174445">
        <ele>1778.0</ele>
        <time>2019-07-07T07:34:11.827Z</time>
      </trkpt>
      <trkpt lat="42.91059167" lon="0.17441333">
        <ele>1779.0</ele>
        <time>2019-07-07T07:34:12.812Z</time>
      </trkpt>
      <trkpt lat="42.91059167" lon="0.17441333">
        <ele>1779.0</ele>
        <time>2019-07-07T07:34:13.818Z</time>
      </trkpt>
      <trkpt lat="42.91058833" lon="0.17434667">
        <ele>1779.0</ele>
        <time>2019-07-07T07:34:14.824Z</time>
      </trkpt>
      <trkpt lat="42.91058833" lon="0.17434667">
        <ele>1779.0</ele>
        <time>2019-07-07T07:34:15.803Z</time>
      </trkpt>
      <trkpt lat="42.91058167" lon="0.17428333">
        <ele>1779.0</ele>
        <time>2019-07-07T07:34:16.817Z</time>
      </trkpt>
      <trkpt lat="42.91058167" lon="0.17428333">
        <ele>1779.0</ele>
        <time>2019-07-07T07:34:17.822Z</time>
      </trkpt>
      <trkpt lat="42.910575" lon="0.17421833">
        <ele>1780.0</ele>
        <time>2019-07-07T07:34:18.838Z</time>
      </trkpt>
      <trkpt lat="42.910575" lon="0.17421833">
        <ele>1780.0</ele>
        <time>2019-07-07T07:34:19.812Z</time>
      </trkpt>
      <trkpt lat="42.91056167" lon="0.17414833">
        <ele>1780.0</ele>
        <time>2019-07-07T07:34:20.837Z</time>
      </trkpt>
      <trkpt lat="42.910555" lon="0.17411167">
        <ele>1780.0</ele>
        <time>2019-07-07T07:34:21.812Z</time>
      </trkpt>
      <trkpt lat="42.910555" lon="0.17411167">
        <ele>1780.0</ele>
        <time>2019-07-07T07:34:22.827Z</time>
      </trkpt>
      <trkpt lat="42.910545" lon="0.174045">
        <ele>1780.0</ele>
        <time>2019-07-07T07:34:23.807Z</time>
      </trkpt>
      <trkpt lat="42.910545" lon="0.174045">
        <ele>1780.0</ele>
        <time>2019-07-07T07:34:24.823Z</time>
      </trkpt>
      <trkpt lat="42.91053" lon="0.17397667">
        <ele>1780.0</ele>
        <time>2019-07-07T07:34:25.829Z</time>
      </trkpt>
      <trkpt lat="42.91053" lon="0.17397667">
        <ele>1780.0</ele>
        <time>2019-07-07T07:34:26.819Z</time>
      </trkpt>
      <trkpt lat="42.91051667" lon="0.17391333">
        <ele>1780.0</ele>
        <time>2019-07-07T07:34:27.802Z</time>
      </trkpt>
      <trkpt lat="42.91050833" lon="0.173885">
        <ele>1781.0</ele>
        <time>2019-07-07T07:34:28.823Z</time>
      </trkpt>
      <trkpt lat="42.91050833" lon="0.173885">
        <ele>1781.0</ele>
        <time>2019-07-07T07:34:29.804Z</time>
      </trkpt>
      <trkpt lat="42.91049833" lon="0.17381667">
        <ele>1781.0</ele>
        <time>2019-07-07T07:34:30.817Z</time>
      </trkpt>
      <trkpt lat="42.91049333" lon="0.17378167">
        <ele>1781.0</ele>
        <time>2019-07-07T07:34:31.814Z</time>
      </trkpt>
      <trkpt lat="42.91049333" lon="0.17378167">
        <ele>1781.0</ele>
        <time>2019-07-07T07:34:32.839Z</time>
      </trkpt>
      <trkpt lat="42.91047833" lon="0.17371333">
        <ele>1781.0</ele>
        <time>2019-07-07T07:34:33.813Z</time>
      </trkpt>
      <trkpt lat="42.91046833" lon="0.17368167">
        <ele>1782.0</ele>
        <time>2019-07-07T07:34:34.836Z</time>
      </trkpt>
      <trkpt lat="42.91046833" lon="0.17368167">
        <ele>1782.0</ele>
        <time>2019-07-07T07:34:35.822Z</time>
      </trkpt>
      <trkpt lat="42.91045" lon="0.17362167">
        <ele>1782.0</ele>
        <time>2019-07-07T07:34:36.814Z</time>
      </trkpt>
      <trkpt lat="42.91043833" lon="0.17359167">
        <ele>1782.0</ele>
        <time>2019-07-07T07:34:37.830Z</time>
      </trkpt>
      <trkpt lat="42.91043833" lon="0.17359167">
        <ele>1782.0</ele>
        <time>2019-07-07T07:34:38.815Z</time>
      </trkpt>
      <trkpt lat="42.91041667" lon="0.17353167">
        <ele>1783.0</ele>
        <time>2019-07-07T07:34:39.806Z</time>
      </trkpt>
      <trkpt lat="42.910405" lon="0.17350333">
        <ele>1783.0</ele>
        <time>2019-07-07T07:34:40.810Z</time>
      </trkpt>
      <trkpt lat="42.910405" lon="0.17350333">
        <ele>1783.0</ele>
        <time>2019-07-07T07:34:41.828Z</time>
      </trkpt>
      <trkpt lat="42.910385" lon="0.173445">
        <ele>1783.0</ele>
        <time>2019-07-07T07:34:42.807Z</time>
      </trkpt>
      <trkpt lat="42.910385" lon="0.173445">
        <ele>1783.0</ele>
        <time>2019-07-07T07:34:43.805Z</time>
      </trkpt>
      <trkpt lat="42.91036167" lon="0.17338333">
        <ele>1784.0</ele>
        <time>2019-07-07T07:34:44.812Z</time>
      </trkpt>
      <trkpt lat="42.91035167" lon="0.17335167">
        <ele>1784.0</ele>
        <time>2019-07-07T07:34:45.836Z</time>
      </trkpt>
      <trkpt lat="42.91034167" lon="0.17332">
        <ele>1784.0</ele>
        <time>2019-07-07T07:34:46.802Z</time>
      </trkpt>
      <trkpt lat="42.91034167" lon="0.17332">
        <ele>1784.0</ele>
        <time>2019-07-07T07:34:47.819Z</time>
      </trkpt>
      <trkpt lat="42.91032833" lon="0.17325">
        <ele>1785.0</ele>
        <time>2019-07-07T07:34:48.838Z</time>
      </trkpt>
      <trkpt lat="42.91032333" lon="0.17321667">
        <ele>1785.0</ele>
        <time>2019-07-07T07:34:49.827Z</time>
      </trkpt>
      <trkpt lat="42.91032333" lon="0.17321667">
        <ele>1785.0</ele>
        <time>2019-07-07T07:34:50.840Z</time>
      </trkpt>
      <trkpt lat="42.91031667" lon="0.17314667">
        <ele>1786.0</ele>
        <time>2019-07-07T07:34:51.810Z</time>
      </trkpt>
      <trkpt lat="42.91031667" lon="0.17314667">
        <ele>1786.0</ele>
        <time>2019-07-07T07:34:52.836Z</time>
      </trkpt>
      <trkpt lat="42.91030833" lon="0.17308167">
        <ele>1787.0</ele>
        <time>2019-07-07T07:34:53.830Z</time>
      </trkpt>
      <trkpt lat="42.910305" lon="0.17304833">
        <ele>1787.0</ele>
        <time>2019-07-07T07:34:54.837Z</time>
      </trkpt>
      <trkpt lat="42.910305" lon="0.17304833">
        <ele>1787.0</ele>
        <time>2019-07-07T07:34:55.822Z</time>
      </trkpt>
      <trkpt lat="42.91030333" lon="0.17298167">
        <ele>1788.0</ele>
        <time>2019-07-07T07:34:56.816Z</time>
      </trkpt>
      <trkpt lat="42.91030333" lon="0.17294833">
        <ele>1788.0</ele>
        <time>2019-07-07T07:34:57.820Z</time>
      </trkpt>
      <trkpt lat="42.91030333" lon="0.17294833">
        <ele>1788.0</ele>
        <time>2019-07-07T07:34:58.833Z</time>
      </trkpt>
      <trkpt lat="42.91030167" lon="0.17288167">
        <ele>1789.0</ele>
        <time>2019-07-07T07:34:59.826Z</time>
      </trkpt>
      <trkpt lat="42.91030167" lon="0.17288167">
        <ele>1789.0</ele>
        <time>2019-07-07T07:35:00.829Z</time>
      </trkpt>
      <trkpt lat="42.9103" lon="0.172815">
        <ele>1790.0</ele>
        <time>2019-07-07T07:35:01.836Z</time>
      </trkpt>
      <trkpt lat="42.9103" lon="0.172815">
        <ele>1790.0</ele>
        <time>2019-07-07T07:35:02.812Z</time>
      </trkpt>
      <trkpt lat="42.91029833" lon="0.17274833">
        <ele>1790.0</ele>
        <time>2019-07-07T07:35:03.820Z</time>
      </trkpt>
      <trkpt lat="42.91029833" lon="0.17274833">
        <ele>1790.0</ele>
        <time>2019-07-07T07:35:04.807Z</time>
      </trkpt>
      <trkpt lat="42.9103" lon="0.17268167">
        <ele>1791.0</ele>
        <time>2019-07-07T07:35:05.814Z</time>
      </trkpt>
      <trkpt lat="42.9103" lon="0.17268167">
        <ele>1791.0</ele>
        <time>2019-07-07T07:35:06.828Z</time>
      </trkpt>
      <trkpt lat="42.91030167" lon="0.172615">
        <ele>1792.0</ele>
        <time>2019-07-07T07:35:07.818Z</time>
      </trkpt>
      <trkpt lat="42.91030167" lon="0.17258">
        <ele>1792.0</ele>
        <time>2019-07-07T07:35:08.810Z</time>
      </trkpt>
      <trkpt lat="42.91030167" lon="0.17258">
        <ele>1792.0</ele>
        <time>2019-07-07T07:35:09.834Z</time>
      </trkpt>
      <trkpt lat="42.91030167" lon="0.17250833">
        <ele>1792.0</ele>
        <time>2019-07-07T07:35:10.834Z</time>
      </trkpt>
      <trkpt lat="42.91030333" lon="0.17247333">
        <ele>1793.0</ele>
        <time>2019-07-07T07:35:11.835Z</time>
      </trkpt>
      <trkpt lat="42.91030667" lon="0.17243833">
        <ele>1793.0</ele>
        <time>2019-07-07T07:35:12.825Z</time>
      </trkpt>
      <trkpt lat="42.91030667" lon="0.17243833">
        <ele>1793.0</ele>
        <time>2019-07-07T07:35:13.809Z</time>
      </trkpt>
      <trkpt lat="42.91031167" lon="0.17237">
        <ele>1793.0</ele>
        <time>2019-07-07T07:35:14.815Z</time>
      </trkpt>
      <trkpt lat="42.91031167" lon="0.17237">
        <ele>1793.0</ele>
        <time>2019-07-07T07:35:15.830Z</time>
      </trkpt>
      <trkpt lat="42.910315" lon="0.17230167">
        <ele>1794.0</ele>
        <time>2019-07-07T07:35:16.822Z</time>
      </trkpt>
      <trkpt lat="42.910315" lon="0.17230167">
        <ele>1794.0</ele>
        <time>2019-07-07T07:35:17.825Z</time>
      </trkpt>
      <trkpt lat="42.91031833" lon="0.17223167">
        <ele>1794.0</ele>
        <time>2019-07-07T07:35:18.840Z</time>
      </trkpt>
      <trkpt lat="42.91032167" lon="0.17219833">
        <ele>1794.0</ele>
        <time>2019-07-07T07:35:19.827Z</time>
      </trkpt>
      <trkpt lat="42.91032167" lon="0.17219833">
        <ele>1794.0</ele>
        <time>2019-07-07T07:35:20.801Z</time>
      </trkpt>
      <trkpt lat="42.910325" lon="0.172125">
        <ele>1795.0</ele>
        <time>2019-07-07T07:35:21.816Z</time>
      </trkpt>
      <trkpt lat="42.910325" lon="0.172125">
        <ele>1795.0</ele>
        <time>2019-07-07T07:35:22.814Z</time>
      </trkpt>
      <trkpt lat="42.91033" lon="0.172055">
        <ele>1795.0</ele>
        <time>2019-07-07T07:35:23.827Z</time>
      </trkpt>
      <trkpt lat="42.91033167" lon="0.17202">
        <ele>1795.0</ele>
        <time>2019-07-07T07:35:24.817Z</time>
      </trkpt>
      <trkpt lat="42.91033167" lon="0.17202">
        <ele>1795.0</ele>
        <time>2019-07-07T07:35:25.829Z</time>
      </trkpt>
      <trkpt lat="42.91033667" lon="0.17195">
        <ele>1795.0</ele>
        <time>2019-07-07T07:35:26.837Z</time>
      </trkpt>
      <trkpt lat="42.91033833" lon="0.17191667">
        <ele>1795.0</ele>
        <time>2019-07-07T07:35:27.828Z</time>
      </trkpt>
      <trkpt lat="42.91033833" lon="0.17188333">
        <ele>1796.0</ele>
        <time>2019-07-07T07:35:28.806Z</time>
      </trkpt>
      <trkpt lat="42.91033833" lon="0.17188333">
        <ele>1796.0</ele>
        <time>2019-07-07T07:35:29.830Z</time>
      </trkpt>
      <trkpt lat="42.91033833" lon="0.171815">
        <ele>1796.0</ele>
        <time>2019-07-07T07:35:30.827Z</time>
      </trkpt>
      <trkpt lat="42.91033833" lon="0.171815">
        <ele>1796.0</ele>
        <time>2019-07-07T07:35:31.812Z</time>
      </trkpt>
      <trkpt lat="42.91034167" lon="0.171745">
        <ele>1796.0</ele>
        <time>2019-07-07T07:35:32.821Z</time>
      </trkpt>
      <trkpt lat="42.91034167" lon="0.171745">
        <ele>1796.0</ele>
        <time>2019-07-07T07:35:33.803Z</time>
      </trkpt>
      <trkpt lat="42.910345" lon="0.17167833">
        <ele>1797.0</ele>
        <time>2019-07-07T07:35:34.810Z</time>
      </trkpt>
      <trkpt lat="42.910345" lon="0.17167833">
        <ele>1797.0</ele>
        <time>2019-07-07T07:35:35.840Z</time>
      </trkpt>
      <trkpt lat="42.91034167" lon="0.17161">
        <ele>1797.0</ele>
        <time>2019-07-07T07:35:36.806Z</time>
      </trkpt>
      <trkpt lat="42.91034333" lon="0.17157833">
        <ele>1797.0</ele>
        <time>2019-07-07T07:35:37.825Z</time>
      </trkpt>
      <trkpt lat="42.91034333" lon="0.17157833">
        <ele>1797.0</ele>
        <time>2019-07-07T07:35:38.825Z</time>
      </trkpt>
      <trkpt lat="42.910345" lon="0.17151333">
        <ele>1798.0</ele>
        <time>2019-07-07T07:35:39.831Z</time>
      </trkpt>
      <trkpt lat="42.910345" lon="0.17148167">
        <ele>1798.0</ele>
        <time>2019-07-07T07:35:40.801Z</time>
      </trkpt>
      <trkpt lat="42.910345" lon="0.17144833">
        <ele>1798.0</ele>
        <time>2019-07-07T07:35:41.803Z</time>
      </trkpt>
      <trkpt lat="42.910345" lon="0.17144833">
        <ele>1798.0</ele>
        <time>2019-07-07T07:35:42.828Z</time>
      </trkpt>
      <trkpt lat="42.91034667" lon="0.17138333">
        <ele>1799.0</ele>
        <time>2019-07-07T07:35:43.840Z</time>
      </trkpt>
      <trkpt lat="42.91034667" lon="0.17135167">
        <ele>1799.0</ele>
        <time>2019-07-07T07:35:44.804Z</time>
      </trkpt>
      <trkpt lat="42.91034667" lon="0.17135167">
        <ele>1799.0</ele>
        <time>2019-07-07T07:35:45.829Z</time>
      </trkpt>
      <trkpt lat="42.91034667" lon="0.17128333">
        <ele>1800.0</ele>
        <time>2019-07-07T07:35:46.839Z</time>
      </trkpt>
      <trkpt lat="42.91034667" lon="0.17128333">
        <ele>1800.0</ele>
        <time>2019-07-07T07:35:47.836Z</time>
      </trkpt>
      <trkpt lat="42.91034333" lon="0.171215">
        <ele>1801.0</ele>
        <time>2019-07-07T07:35:48.823Z</time>
      </trkpt>
      <trkpt lat="42.910345" lon="0.17118333">
        <ele>1801.0</ele>
        <time>2019-07-07T07:35:49.801Z</time>
      </trkpt>
      <trkpt lat="42.91034667" lon="0.17115">
        <ele>1801.0</ele>
        <time>2019-07-07T07:35:50.827Z</time>
      </trkpt>
      <trkpt lat="42.91034667" lon="0.17115">
        <ele>1801.0</ele>
        <time>2019-07-07T07:35:51.819Z</time>
      </trkpt>
      <trkpt lat="42.910345" lon="0.171085">
        <ele>1802.0</ele>
        <time>2019-07-07T07:35:52.825Z</time>
      </trkpt>
      <trkpt lat="42.910345" lon="0.171085">
        <ele>1802.0</ele>
        <time>2019-07-07T07:35:53.840Z</time>
      </trkpt>
      <trkpt lat="42.91034833" lon="0.17101833">
        <ele>1802.0</ele>
        <time>2019-07-07T07:35:54.813Z</time>
      </trkpt>
      <trkpt lat="42.91034833" lon="0.17101833">
        <ele>1802.0</ele>
        <time>2019-07-07T07:35:55.840Z</time>
      </trkpt>
      <trkpt lat="42.91035167" lon="0.17095333">
        <ele>1803.0</ele>
        <time>2019-07-07T07:35:56.806Z</time>
      </trkpt>
      <trkpt lat="42.91035333" lon="0.17092167">
        <ele>1803.0</ele>
        <time>2019-07-07T07:35:57.840Z</time>
      </trkpt>
      <trkpt lat="42.91035333" lon="0.17092167">
        <ele>1803.0</ele>
        <time>2019-07-07T07:35:58.823Z</time>
      </trkpt>
      <trkpt lat="42.91035333" lon="0.17083667">
        <ele>1804.0</ele>
        <time>2019-07-07T07:35:59.835Z</time>
      </trkpt>
      <trkpt lat="42.910345" lon="0.17079833">
        <ele>1804.0</ele>
        <time>2019-07-07T07:36:00.817Z</time>
      </trkpt>
      <trkpt lat="42.910345" lon="0.17079833">
        <ele>1804.0</ele>
        <time>2019-07-07T07:36:01.835Z</time>
      </trkpt>
      <trkpt lat="42.91033333" lon="0.17072833">
        <ele>1805.0</ele>
        <time>2019-07-07T07:36:02.801Z</time>
      </trkpt>
      <trkpt lat="42.91033" lon="0.17069667">
        <ele>1805.0</ele>
        <time>2019-07-07T07:36:03.837Z</time>
      </trkpt>
      <trkpt lat="42.91033" lon="0.17069667">
        <ele>1805.0</ele>
        <time>2019-07-07T07:36:04.838Z</time>
      </trkpt>
      <trkpt lat="42.91032333" lon="0.170625">
        <ele>1806.0</ele>
        <time>2019-07-07T07:36:05.805Z</time>
      </trkpt>
      <trkpt lat="42.91032333" lon="0.170625">
        <ele>1806.0</ele>
        <time>2019-07-07T07:36:06.831Z</time>
      </trkpt>
      <trkpt lat="42.910315" lon="0.170555">
        <ele>1807.0</ele>
        <time>2019-07-07T07:36:07.813Z</time>
      </trkpt>
      <trkpt lat="42.910315" lon="0.170555">
        <ele>1807.0</ele>
        <time>2019-07-07T07:36:08.813Z</time>
      </trkpt>
      <trkpt lat="42.91030167" lon="0.17049333">
        <ele>1808.0</ele>
        <time>2019-07-07T07:36:09.824Z</time>
      </trkpt>
      <trkpt lat="42.91029833" lon="0.17046167">
        <ele>1809.0</ele>
        <time>2019-07-07T07:36:10.822Z</time>
      </trkpt>
      <trkpt lat="42.91029833" lon="0.17046167">
        <ele>1809.0</ele>
        <time>2019-07-07T07:36:11.831Z</time>
      </trkpt>
      <trkpt lat="42.91029333" lon="0.170395">
        <ele>1810.0</ele>
        <time>2019-07-07T07:36:12.837Z</time>
      </trkpt>
      <trkpt lat="42.91029333" lon="0.170395">
        <ele>1810.0</ele>
        <time>2019-07-07T07:36:13.811Z</time>
      </trkpt>
      <trkpt lat="42.91029" lon="0.17032667">
        <ele>1810.0</ele>
        <time>2019-07-07T07:36:14.817Z</time>
      </trkpt>
      <trkpt lat="42.91029" lon="0.17032667">
        <ele>1810.0</ele>
        <time>2019-07-07T07:36:15.828Z</time>
      </trkpt>
      <trkpt lat="42.91028667" lon="0.17025667">
        <ele>1811.0</ele>
        <time>2019-07-07T07:36:16.803Z</time>
      </trkpt>
      <trkpt lat="42.91028667" lon="0.17025667">
        <ele>1811.0</ele>
        <time>2019-07-07T07:36:17.835Z</time>
      </trkpt>
      <trkpt lat="42.910285" lon="0.17018667">
        <ele>1811.0</ele>
        <time>2019-07-07T07:36:18.833Z</time>
      </trkpt>
      <trkpt lat="42.910285" lon="0.17018667">
        <ele>1811.0</ele>
        <time>2019-07-07T07:36:19.829Z</time>
      </trkpt>
      <trkpt lat="42.91028167" lon="0.17012333">
        <ele>1812.0</ele>
        <time>2019-07-07T07:36:20.836Z</time>
      </trkpt>
      <trkpt lat="42.91028167" lon="0.17012333">
        <ele>1812.0</ele>
        <time>2019-07-07T07:36:21.825Z</time>
      </trkpt>
      <trkpt lat="42.91028333" lon="0.17006333">
        <ele>1812.0</ele>
        <time>2019-07-07T07:36:22.814Z</time>
      </trkpt>
      <trkpt lat="42.91028333" lon="0.17006333">
        <ele>1812.0</ele>
        <time>2019-07-07T07:36:23.836Z</time>
      </trkpt>
      <trkpt lat="42.91028" lon="0.17000167">
        <ele>1813.0</ele>
        <time>2019-07-07T07:36:24.802Z</time>
      </trkpt>
      <trkpt lat="42.91027667" lon="0.16996667">
        <ele>1813.0</ele>
        <time>2019-07-07T07:36:25.814Z</time>
      </trkpt>
      <trkpt lat="42.91027667" lon="0.16996667">
        <ele>1813.0</ele>
        <time>2019-07-07T07:36:26.835Z</time>
      </trkpt>
      <trkpt lat="42.910275" lon="0.1699">
        <ele>1813.0</ele>
        <time>2019-07-07T07:36:27.808Z</time>
      </trkpt>
      <trkpt lat="42.910275" lon="0.16986833">
        <ele>1814.0</ele>
        <time>2019-07-07T07:36:28.827Z</time>
      </trkpt>
      <trkpt lat="42.910275" lon="0.16986833">
        <ele>1814.0</ele>
        <time>2019-07-07T07:36:29.827Z</time>
      </trkpt>
      <trkpt lat="42.91027167" lon="0.1698">
        <ele>1814.0</ele>
        <time>2019-07-07T07:36:30.833Z</time>
      </trkpt>
      <trkpt lat="42.91027167" lon="0.1698">
        <ele>1814.0</ele>
        <time>2019-07-07T07:36:31.808Z</time>
      </trkpt>
      <trkpt lat="42.910275" lon="0.16973667">
        <ele>1814.0</ele>
        <time>2019-07-07T07:36:32.807Z</time>
      </trkpt>
      <trkpt lat="42.910275" lon="0.16973667">
        <ele>1814.0</ele>
        <time>2019-07-07T07:36:33.836Z</time>
      </trkpt>
      <trkpt lat="42.91027667" lon="0.169675">
        <ele>1814.0</ele>
        <time>2019-07-07T07:36:34.802Z</time>
      </trkpt>
      <trkpt lat="42.91027667" lon="0.16964">
        <ele>1814.0</ele>
        <time>2019-07-07T07:36:35.814Z</time>
      </trkpt>
      <trkpt lat="42.91027667" lon="0.16964">
        <ele>1814.0</ele>
        <time>2019-07-07T07:36:36.839Z</time>
      </trkpt>
      <trkpt lat="42.91027" lon="0.16957167">
        <ele>1814.0</ele>
        <time>2019-07-07T07:36:37.805Z</time>
      </trkpt>
      <trkpt lat="42.91027" lon="0.16957167">
        <ele>1814.0</ele>
        <time>2019-07-07T07:36:38.827Z</time>
      </trkpt>
      <trkpt lat="42.91026" lon="0.16950667">
        <ele>1814.0</ele>
        <time>2019-07-07T07:36:39.825Z</time>
      </trkpt>
      <trkpt lat="42.91026" lon="0.16950667">
        <ele>1814.0</ele>
        <time>2019-07-07T07:36:40.802Z</time>
      </trkpt>
      <trkpt lat="42.910245" lon="0.16944167">
        <ele>1815.0</ele>
        <time>2019-07-07T07:36:41.808Z</time>
      </trkpt>
      <trkpt lat="42.91023833" lon="0.16940833">
        <ele>1815.0</ele>
        <time>2019-07-07T07:36:42.826Z</time>
      </trkpt>
      <trkpt lat="42.91023833" lon="0.16940833">
        <ele>1815.0</ele>
        <time>2019-07-07T07:36:43.826Z</time>
      </trkpt>
      <trkpt lat="42.910225" lon="0.169345">
        <ele>1815.0</ele>
        <time>2019-07-07T07:36:44.833Z</time>
      </trkpt>
      <trkpt lat="42.910215" lon="0.169315">
        <ele>1815.0</ele>
        <time>2019-07-07T07:36:45.809Z</time>
      </trkpt>
      <trkpt lat="42.91020333" lon="0.16928667">
        <ele>1815.0</ele>
        <time>2019-07-07T07:36:46.840Z</time>
      </trkpt>
      <trkpt lat="42.91020333" lon="0.16928667">
        <ele>1815.0</ele>
        <time>2019-07-07T07:36:47.836Z</time>
      </trkpt>
      <trkpt lat="42.91018" lon="0.169225">
        <ele>1815.0</ele>
        <time>2019-07-07T07:36:48.812Z</time>
      </trkpt>
      <trkpt lat="42.91016833" lon="0.169195">
        <ele>1816.0</ele>
        <time>2019-07-07T07:36:49.815Z</time>
      </trkpt>
      <trkpt lat="42.91016833" lon="0.169195">
        <ele>1816.0</ele>
        <time>2019-07-07T07:36:50.840Z</time>
      </trkpt>
      <trkpt lat="42.91014833" lon="0.16913333">
        <ele>1816.0</ele>
        <time>2019-07-07T07:36:51.832Z</time>
      </trkpt>
      <trkpt lat="42.91013833" lon="0.16910167">
        <ele>1816.0</ele>
        <time>2019-07-07T07:36:52.814Z</time>
      </trkpt>
      <trkpt lat="42.91013833" lon="0.16910167">
        <ele>1816.0</ele>
        <time>2019-07-07T07:36:53.838Z</time>
      </trkpt>
      <trkpt lat="42.91011667" lon="0.16904">
        <ele>1816.0</ele>
        <time>2019-07-07T07:36:54.814Z</time>
      </trkpt>
      <trkpt lat="42.91011667" lon="0.16904">
        <ele>1816.0</ele>
        <time>2019-07-07T07:36:55.809Z</time>
      </trkpt>
      <trkpt lat="42.91009333" lon="0.168985">
        <ele>1817.0</ele>
        <time>2019-07-07T07:36:56.820Z</time>
      </trkpt>
      <trkpt lat="42.91007833" lon="0.16895667">
        <ele>1817.0</ele>
        <time>2019-07-07T07:36:57.804Z</time>
      </trkpt>
      <trkpt lat="42.910065" lon="0.16892667">
        <ele>1817.0</ele>
        <time>2019-07-07T07:36:58.814Z</time>
      </trkpt>
      <trkpt lat="42.910065" lon="0.16892667">
        <ele>1817.0</ele>
        <time>2019-07-07T07:36:59.807Z</time>
      </trkpt>
      <trkpt lat="42.91003333" lon="0.16886">
        <ele>1818.0</ele>
        <time>2019-07-07T07:37:00.813Z</time>
      </trkpt>
      <trkpt lat="42.91003333" lon="0.16886">
        <ele>1818.0</ele>
        <time>2019-07-07T07:37:01.826Z</time>
      </trkpt>
      <trkpt lat="42.91000833" lon="0.16879833">
        <ele>1818.0</ele>
        <time>2019-07-07T07:37:02.824Z</time>
      </trkpt>
      <trkpt lat="42.91000833" lon="0.16879833">
        <ele>1818.0</ele>
        <time>2019-07-07T07:37:03.812Z</time>
      </trkpt>
      <trkpt lat="42.90998167" lon="0.16873833">
        <ele>1819.0</ele>
        <time>2019-07-07T07:37:04.826Z</time>
      </trkpt>
      <trkpt lat="42.90998167" lon="0.16873833">
        <ele>1819.0</ele>
        <time>2019-07-07T07:37:05.811Z</time>
      </trkpt>
      <trkpt lat="42.90996" lon="0.168675">
        <ele>1819.0</ele>
        <time>2019-07-07T07:37:06.816Z</time>
      </trkpt>
      <trkpt lat="42.90996" lon="0.168675">
        <ele>1819.0</ele>
        <time>2019-07-07T07:37:07.826Z</time>
      </trkpt>
      <trkpt lat="42.90994" lon="0.16861167">
        <ele>1820.0</ele>
        <time>2019-07-07T07:37:08.833Z</time>
      </trkpt>
      <trkpt lat="42.90993167" lon="0.16858">
        <ele>1820.0</ele>
        <time>2019-07-07T07:37:09.819Z</time>
      </trkpt>
      <trkpt lat="42.90992" lon="0.16854833">
        <ele>1820.0</ele>
        <time>2019-07-07T07:37:10.826Z</time>
      </trkpt>
      <trkpt lat="42.90992" lon="0.16854833">
        <ele>1820.0</ele>
        <time>2019-07-07T07:37:11.810Z</time>
      </trkpt>
      <trkpt lat="42.909905" lon="0.16848667">
        <ele>1821.0</ele>
        <time>2019-07-07T07:37:12.815Z</time>
      </trkpt>
      <trkpt lat="42.909905" lon="0.16848667">
        <ele>1821.0</ele>
        <time>2019-07-07T07:37:13.823Z</time>
      </trkpt>
      <trkpt lat="42.90989333" lon="0.16842167">
        <ele>1821.0</ele>
        <time>2019-07-07T07:37:14.829Z</time>
      </trkpt>
      <trkpt lat="42.90989333" lon="0.16842167">
        <ele>1821.0</ele>
        <time>2019-07-07T07:37:15.805Z</time>
      </trkpt>
      <trkpt lat="42.90988333" lon="0.16836167">
        <ele>1822.0</ele>
        <time>2019-07-07T07:37:16.826Z</time>
      </trkpt>
      <trkpt lat="42.90988333" lon="0.16836167">
        <ele>1822.0</ele>
        <time>2019-07-07T07:37:17.829Z</time>
      </trkpt>
      <trkpt lat="42.90987667" lon="0.16830167">
        <ele>1822.0</ele>
        <time>2019-07-07T07:37:18.836Z</time>
      </trkpt>
      <trkpt lat="42.90987667" lon="0.16830167">
        <ele>1822.0</ele>
        <time>2019-07-07T07:37:19.805Z</time>
      </trkpt>
      <trkpt lat="42.90985833" lon="0.16824333">
        <ele>1823.0</ele>
        <time>2019-07-07T07:37:20.820Z</time>
      </trkpt>
      <trkpt lat="42.90985833" lon="0.16824333">
        <ele>1823.0</ele>
        <time>2019-07-07T07:37:21.812Z</time>
      </trkpt>
      <trkpt lat="42.90984" lon="0.16817833">
        <ele>1823.0</ele>
        <time>2019-07-07T07:37:22.817Z</time>
      </trkpt>
      <trkpt lat="42.90984" lon="0.16817833">
        <ele>1823.0</ele>
        <time>2019-07-07T07:37:23.840Z</time>
      </trkpt>
      <trkpt lat="42.90981667" lon="0.16811">
        <ele>1824.0</ele>
        <time>2019-07-07T07:37:24.812Z</time>
      </trkpt>
      <trkpt lat="42.90981667" lon="0.16811">
        <ele>1824.0</ele>
        <time>2019-07-07T07:37:25.815Z</time>
      </trkpt>
      <trkpt lat="42.90979167" lon="0.16804833">
        <ele>1825.0</ele>
        <time>2019-07-07T07:37:26.824Z</time>
      </trkpt>
      <trkpt lat="42.90979167" lon="0.16804833">
        <ele>1825.0</ele>
        <time>2019-07-07T07:37:27.809Z</time>
      </trkpt>
      <trkpt lat="42.90976" lon="0.16799333">
        <ele>1825.0</ele>
        <time>2019-07-07T07:37:28.813Z</time>
      </trkpt>
      <trkpt lat="42.90976" lon="0.16799333">
        <ele>1825.0</ele>
        <time>2019-07-07T07:37:29.831Z</time>
      </trkpt>
      <trkpt lat="42.90972667" lon="0.16794">
        <ele>1825.0</ele>
        <time>2019-07-07T07:37:30.840Z</time>
      </trkpt>
      <trkpt lat="42.90971333" lon="0.16790833">
        <ele>1825.0</ele>
        <time>2019-07-07T07:37:31.837Z</time>
      </trkpt>
      <trkpt lat="42.90971333" lon="0.16790833">
        <ele>1825.0</ele>
        <time>2019-07-07T07:37:32.826Z</time>
      </trkpt>
      <trkpt lat="42.90968333" lon="0.16785">
        <ele>1826.0</ele>
        <time>2019-07-07T07:37:33.834Z</time>
      </trkpt>
      <trkpt lat="42.90968333" lon="0.16785">
        <ele>1826.0</ele>
        <time>2019-07-07T07:37:34.815Z</time>
      </trkpt>
      <trkpt lat="42.90965" lon="0.16779167">
        <ele>1826.0</ele>
        <time>2019-07-07T07:37:35.814Z</time>
      </trkpt>
      <trkpt lat="42.90965" lon="0.16779167">
        <ele>1826.0</ele>
        <time>2019-07-07T07:37:36.811Z</time>
      </trkpt>
      <trkpt lat="42.909625" lon="0.167735">
        <ele>1826.0</ele>
        <time>2019-07-07T07:37:37.825Z</time>
      </trkpt>
      <trkpt lat="42.909625" lon="0.167735">
        <ele>1826.0</ele>
        <time>2019-07-07T07:37:38.803Z</time>
      </trkpt>
      <trkpt lat="42.909595" lon="0.16768">
        <ele>1826.0</ele>
        <time>2019-07-07T07:37:39.814Z</time>
      </trkpt>
      <trkpt lat="42.909595" lon="0.16768">
        <ele>1826.0</ele>
        <time>2019-07-07T07:37:40.835Z</time>
      </trkpt>
      <trkpt lat="42.90957" lon="0.16762333">
        <ele>1827.0</ele>
        <time>2019-07-07T07:37:41.805Z</time>
      </trkpt>
      <trkpt lat="42.90955833" lon="0.16759333">
        <ele>1827.0</ele>
        <time>2019-07-07T07:37:42.830Z</time>
      </trkpt>
      <trkpt lat="42.90955833" lon="0.16759333">
        <ele>1827.0</ele>
        <time>2019-07-07T07:37:43.836Z</time>
      </trkpt>
      <trkpt lat="42.90953" lon="0.16753667">
        <ele>1827.0</ele>
        <time>2019-07-07T07:37:44.801Z</time>
      </trkpt>
      <trkpt lat="42.90952" lon="0.16750833">
        <ele>1827.0</ele>
        <time>2019-07-07T07:37:45.817Z</time>
      </trkpt>
      <trkpt lat="42.90951" lon="0.16747667">
        <ele>1827.0</ele>
        <time>2019-07-07T07:37:46.830Z</time>
      </trkpt>
      <trkpt lat="42.90951" lon="0.16747667">
        <ele>1827.0</ele>
        <time>2019-07-07T07:37:47.805Z</time>
      </trkpt>
      <trkpt lat="42.90949833" lon="0.16741333">
        <ele>1827.0</ele>
        <time>2019-07-07T07:37:48.816Z</time>
      </trkpt>
      <trkpt lat="42.90949833" lon="0.16741333">
        <ele>1827.0</ele>
        <time>2019-07-07T07:37:49.831Z</time>
      </trkpt>
      <trkpt lat="42.90949833" lon="0.16734667">
        <ele>1828.0</ele>
        <time>2019-07-07T07:37:50.803Z</time>
      </trkpt>
      <trkpt lat="42.909495" lon="0.167315">
        <ele>1828.0</ele>
        <time>2019-07-07T07:37:51.835Z</time>
      </trkpt>
      <trkpt lat="42.909495" lon="0.167315">
        <ele>1828.0</ele>
        <time>2019-07-07T07:37:52.817Z</time>
      </trkpt>
      <trkpt lat="42.90948833" lon="0.16725333">
        <ele>1828.0</ele>
        <time>2019-07-07T07:37:53.827Z</time>
      </trkpt>
      <trkpt lat="42.90948333" lon="0.16722">
        <ele>1828.0</ele>
        <time>2019-07-07T07:37:54.811Z</time>
      </trkpt>
      <trkpt lat="42.90948333" lon="0.16722">
        <ele>1828.0</ele>
        <time>2019-07-07T07:37:55.821Z</time>
      </trkpt>
      <trkpt lat="42.90947667" lon="0.16714833">
        <ele>1828.0</ele>
        <time>2019-07-07T07:37:56.837Z</time>
      </trkpt>
      <trkpt lat="42.90947667" lon="0.16714833">
        <ele>1828.0</ele>
        <time>2019-07-07T07:37:57.825Z</time>
      </trkpt>
      <trkpt lat="42.90947333" lon="0.16708167">
        <ele>1829.0</ele>
        <time>2019-07-07T07:37:58.814Z</time>
      </trkpt>
      <trkpt lat="42.90947333" lon="0.16708167">
        <ele>1829.0</ele>
        <time>2019-07-07T07:37:59.829Z</time>
      </trkpt>
      <trkpt lat="42.90946" lon="0.16701667">
        <ele>1829.0</ele>
        <time>2019-07-07T07:38:00.836Z</time>
      </trkpt>
      <trkpt lat="42.90946" lon="0.16701667">
        <ele>1829.0</ele>
        <time>2019-07-07T07:38:01.825Z</time>
      </trkpt>
      <trkpt lat="42.909435" lon="0.16695">
        <ele>1829.0</ele>
        <time>2019-07-07T07:38:02.814Z</time>
      </trkpt>
      <trkpt lat="42.909435" lon="0.16695">
        <ele>1829.0</ele>
        <time>2019-07-07T07:38:03.806Z</time>
      </trkpt>
      <trkpt lat="42.90943" lon="0.16688333">
        <ele>1830.0</ele>
        <time>2019-07-07T07:38:04.812Z</time>
      </trkpt>
      <trkpt lat="42.90943" lon="0.16688333">
        <ele>1830.0</ele>
        <time>2019-07-07T07:38:05.832Z</time>
      </trkpt>
      <trkpt lat="42.90942333" lon="0.16681833">
        <ele>1830.0</ele>
        <time>2019-07-07T07:38:06.816Z</time>
      </trkpt>
      <trkpt lat="42.90942333" lon="0.16681833">
        <ele>1830.0</ele>
        <time>2019-07-07T07:38:07.810Z</time>
      </trkpt>
      <trkpt lat="42.90941833" lon="0.166755">
        <ele>1830.0</ele>
        <time>2019-07-07T07:38:08.816Z</time>
      </trkpt>
      <trkpt lat="42.90942" lon="0.166725">
        <ele>1830.0</ele>
        <time>2019-07-07T07:38:09.821Z</time>
      </trkpt>
      <trkpt lat="42.90942" lon="0.166725">
        <ele>1830.0</ele>
        <time>2019-07-07T07:38:10.834Z</time>
      </trkpt>
      <trkpt lat="42.90941333" lon="0.16665833">
        <ele>1831.0</ele>
        <time>2019-07-07T07:38:11.802Z</time>
      </trkpt>
      <trkpt lat="42.90941333" lon="0.16665833">
        <ele>1831.0</ele>
        <time>2019-07-07T07:38:12.830Z</time>
      </trkpt>
      <trkpt lat="42.90940833" lon="0.16659333">
        <ele>1831.0</ele>
        <time>2019-07-07T07:38:13.814Z</time>
      </trkpt>
      <trkpt lat="42.90940833" lon="0.16659333">
        <ele>1831.0</ele>
        <time>2019-07-07T07:38:14.817Z</time>
      </trkpt>
      <trkpt lat="42.90941333" lon="0.16653">
        <ele>1831.0</ele>
        <time>2019-07-07T07:38:15.824Z</time>
      </trkpt>
      <trkpt lat="42.90941833" lon="0.16649833">
        <ele>1832.0</ele>
        <time>2019-07-07T07:38:16.812Z</time>
      </trkpt>
      <trkpt lat="42.90941833" lon="0.16649833">
        <ele>1832.0</ele>
        <time>2019-07-07T07:38:17.823Z</time>
      </trkpt>
      <trkpt lat="42.90941833" lon="0.16643">
        <ele>1832.0</ele>
        <time>2019-07-07T07:38:18.837Z</time>
      </trkpt>
      <trkpt lat="42.90941833" lon="0.16643">
        <ele>1832.0</ele>
        <time>2019-07-07T07:38:19.809Z</time>
      </trkpt>
      <trkpt lat="42.90941667" lon="0.16636167">
        <ele>1833.0</ele>
        <time>2019-07-07T07:38:20.814Z</time>
      </trkpt>
      <trkpt lat="42.909415" lon="0.16633">
        <ele>1833.0</ele>
        <time>2019-07-07T07:38:21.833Z</time>
      </trkpt>
      <trkpt lat="42.909415" lon="0.16633">
        <ele>1833.0</ele>
        <time>2019-07-07T07:38:22.812Z</time>
      </trkpt>
      <trkpt lat="42.90941333" lon="0.16626">
        <ele>1833.0</ele>
        <time>2019-07-07T07:38:23.832Z</time>
      </trkpt>
      <trkpt lat="42.909415" lon="0.16622667">
        <ele>1833.0</ele>
        <time>2019-07-07T07:38:24.831Z</time>
      </trkpt>
      <trkpt lat="42.909415" lon="0.16622667">
        <ele>1833.0</ele>
        <time>2019-07-07T07:38:25.820Z</time>
      </trkpt>
      <trkpt lat="42.90942333" lon="0.16615833">
        <ele>1834.0</ele>
        <time>2019-07-07T07:38:26.815Z</time>
      </trkpt>
      <trkpt lat="42.90942333" lon="0.16615833">
        <ele>1834.0</ele>
        <time>2019-07-07T07:38:27.820Z</time>
      </trkpt>
      <trkpt lat="42.90942667" lon="0.16609333">
        <ele>1834.0</ele>
        <time>2019-07-07T07:38:28.827Z</time>
      </trkpt>
      <trkpt lat="42.90942667" lon="0.16609333">
        <ele>1834.0</ele>
        <time>2019-07-07T07:38:29.801Z</time>
      </trkpt>
      <trkpt lat="42.90943333" lon="0.16603167">
        <ele>1835.0</ele>
        <time>2019-07-07T07:38:30.816Z</time>
      </trkpt>
      <trkpt lat="42.90943333" lon="0.16603167">
        <ele>1835.0</ele>
        <time>2019-07-07T07:38:31.833Z</time>
      </trkpt>
      <trkpt lat="42.90944" lon="0.16596667">
        <ele>1835.0</ele>
        <time>2019-07-07T07:38:32.840Z</time>
      </trkpt>
      <trkpt lat="42.909445" lon="0.16593333">
        <ele>1835.0</ele>
        <time>2019-07-07T07:38:33.817Z</time>
      </trkpt>
      <trkpt lat="42.90944833" lon="0.16590167">
        <ele>1835.0</ele>
        <time>2019-07-07T07:38:34.830Z</time>
      </trkpt>
      <trkpt lat="42.90944833" lon="0.16590167">
        <ele>1835.0</ele>
        <time>2019-07-07T07:38:35.806Z</time>
      </trkpt>
      <trkpt lat="42.90945833" lon="0.165835">
        <ele>1836.0</ele>
        <time>2019-07-07T07:38:36.818Z</time>
      </trkpt>
      <trkpt lat="42.90946167" lon="0.16580333">
        <ele>1836.0</ele>
        <time>2019-07-07T07:38:37.823Z</time>
      </trkpt>
      <trkpt lat="42.90946167" lon="0.16580333">
        <ele>1836.0</ele>
        <time>2019-07-07T07:38:38.836Z</time>
      </trkpt>
      <trkpt lat="42.90947333" lon="0.16573833">
        <ele>1836.0</ele>
        <time>2019-07-07T07:38:39.824Z</time>
      </trkpt>
      <trkpt lat="42.90948" lon="0.16570667">
        <ele>1836.0</ele>
        <time>2019-07-07T07:38:40.830Z</time>
      </trkpt>
      <trkpt lat="42.90948" lon="0.16570667">
        <ele>1836.0</ele>
        <time>2019-07-07T07:38:41.816Z</time>
      </trkpt>
      <trkpt lat="42.90948833" lon="0.16564333">
        <ele>1837.0</ele>
        <time>2019-07-07T07:38:42.812Z</time>
      </trkpt>
      <trkpt lat="42.909495" lon="0.16561333">
        <ele>1837.0</ele>
        <time>2019-07-07T07:38:43.810Z</time>
      </trkpt>
      <trkpt lat="42.909495" lon="0.16561333">
        <ele>1837.0</ele>
        <time>2019-07-07T07:38:44.831Z</time>
      </trkpt>
      <trkpt lat="42.90951" lon="0.16555">
        <ele>1837.0</ele>
        <time>2019-07-07T07:38:45.804Z</time>
      </trkpt>
      <trkpt lat="42.909515" lon="0.16551833">
        <ele>1838.0</ele>
        <time>2019-07-07T07:38:46.803Z</time>
      </trkpt>
      <trkpt lat="42.909515" lon="0.16551833">
        <ele>1838.0</ele>
        <time>2019-07-07T07:38:47.823Z</time>
      </trkpt>
      <trkpt lat="42.90953" lon="0.165455">
        <ele>1838.0</ele>
        <time>2019-07-07T07:38:48.832Z</time>
      </trkpt>
      <trkpt lat="42.909535" lon="0.16542167">
        <ele>1839.0</ele>
        <time>2019-07-07T07:38:49.817Z</time>
      </trkpt>
      <trkpt lat="42.909535" lon="0.16542167">
        <ele>1839.0</ele>
        <time>2019-07-07T07:38:50.835Z</time>
      </trkpt>
      <trkpt lat="42.909545" lon="0.16535333">
        <ele>1839.0</ele>
        <time>2019-07-07T07:38:51.805Z</time>
      </trkpt>
      <trkpt lat="42.909545" lon="0.16535333">
        <ele>1839.0</ele>
        <time>2019-07-07T07:38:52.829Z</time>
      </trkpt>
      <trkpt lat="42.909555" lon="0.16528667">
        <ele>1839.0</ele>
        <time>2019-07-07T07:38:53.804Z</time>
      </trkpt>
      <trkpt lat="42.90955833" lon="0.16525167">
        <ele>1839.0</ele>
        <time>2019-07-07T07:38:54.802Z</time>
      </trkpt>
      <trkpt lat="42.90955833" lon="0.16525167">
        <ele>1839.0</ele>
        <time>2019-07-07T07:38:55.816Z</time>
      </trkpt>
      <trkpt lat="42.90956167" lon="0.16518333">
        <ele>1840.0</ele>
        <time>2019-07-07T07:38:56.814Z</time>
      </trkpt>
      <trkpt lat="42.90956167" lon="0.16518333">
        <ele>1840.0</ele>
        <time>2019-07-07T07:38:57.805Z</time>
      </trkpt>
      <trkpt lat="42.90956333" lon="0.16511667">
        <ele>1840.0</ele>
        <time>2019-07-07T07:38:58.811Z</time>
      </trkpt>
      <trkpt lat="42.90956333" lon="0.16511667">
        <ele>1840.0</ele>
        <time>2019-07-07T07:38:59.822Z</time>
      </trkpt>
      <trkpt lat="42.90956667" lon="0.16505">
        <ele>1840.0</ele>
        <time>2019-07-07T07:39:00.815Z</time>
      </trkpt>
      <trkpt lat="42.90956833" lon="0.16501667">
        <ele>1840.0</ele>
        <time>2019-07-07T07:39:01.840Z</time>
      </trkpt>
      <trkpt lat="42.90956833" lon="0.16501667">
        <ele>1840.0</ele>
        <time>2019-07-07T07:39:02.826Z</time>
      </trkpt>
      <trkpt lat="42.90957333" lon="0.16495167">
        <ele>1841.0</ele>
        <time>2019-07-07T07:39:03.802Z</time>
      </trkpt>
      <trkpt lat="42.909575" lon="0.164915">
        <ele>1841.0</ele>
        <time>2019-07-07T07:39:04.815Z</time>
      </trkpt>
      <trkpt lat="42.909575" lon="0.164915">
        <ele>1841.0</ele>
        <time>2019-07-07T07:39:05.834Z</time>
      </trkpt>
      <trkpt lat="42.90958167" lon="0.16485">
        <ele>1842.0</ele>
        <time>2019-07-07T07:39:06.823Z</time>
      </trkpt>
      <trkpt lat="42.90958167" lon="0.16485">
        <ele>1842.0</ele>
        <time>2019-07-07T07:39:07.805Z</time>
      </trkpt>
      <trkpt lat="42.90959" lon="0.16478167">
        <ele>1842.0</ele>
        <time>2019-07-07T07:39:08.814Z</time>
      </trkpt>
      <trkpt lat="42.90959667" lon="0.16474833">
        <ele>1842.0</ele>
        <time>2019-07-07T07:39:09.808Z</time>
      </trkpt>
      <trkpt lat="42.90960167" lon="0.164715">
        <ele>1843.0</ele>
        <time>2019-07-07T07:39:10.816Z</time>
      </trkpt>
      <trkpt lat="42.90960167" lon="0.164715">
        <ele>1843.0</ele>
        <time>2019-07-07T07:39:11.839Z</time>
      </trkpt>
      <trkpt lat="42.909615" lon="0.16464833">
        <ele>1843.0</ele>
        <time>2019-07-07T07:39:12.831Z</time>
      </trkpt>
      <trkpt lat="42.909615" lon="0.16464833">
        <ele>1843.0</ele>
        <time>2019-07-07T07:39:13.829Z</time>
      </trkpt>
      <trkpt lat="42.909625" lon="0.16457833">
        <ele>1843.0</ele>
        <time>2019-07-07T07:39:14.808Z</time>
      </trkpt>
      <trkpt lat="42.90963" lon="0.16454333">
        <ele>1844.0</ele>
        <time>2019-07-07T07:39:15.809Z</time>
      </trkpt>
      <trkpt lat="42.909635" lon="0.16451">
        <ele>1844.0</ele>
        <time>2019-07-07T07:39:16.838Z</time>
      </trkpt>
      <trkpt lat="42.909635" lon="0.16451">
        <ele>1844.0</ele>
        <time>2019-07-07T07:39:17.827Z</time>
      </trkpt>
      <trkpt lat="42.90963667" lon="0.16444167">
        <ele>1844.0</ele>
        <time>2019-07-07T07:39:18.833Z</time>
      </trkpt>
      <trkpt lat="42.90963833" lon="0.16440833">
        <ele>1845.0</ele>
        <time>2019-07-07T07:39:19.809Z</time>
      </trkpt>
      <trkpt lat="42.90963833" lon="0.16440833">
        <ele>1845.0</ele>
        <time>2019-07-07T07:39:20.834Z</time>
      </trkpt>
      <trkpt lat="42.90963833" lon="0.16433833">
        <ele>1845.0</ele>
        <time>2019-07-07T07:39:21.840Z</time>
      </trkpt>
      <trkpt lat="42.90963833" lon="0.16430333">
        <ele>1845.0</ele>
        <time>2019-07-07T07:39:22.832Z</time>
      </trkpt>
      <trkpt lat="42.90963833" lon="0.16430333">
        <ele>1845.0</ele>
        <time>2019-07-07T07:39:23.841Z</time>
      </trkpt>
      <trkpt lat="42.90963333" lon="0.16423833">
        <ele>1846.0</ele>
        <time>2019-07-07T07:39:24.814Z</time>
      </trkpt>
      <trkpt lat="42.90962833" lon="0.16420667">
        <ele>1846.0</ele>
        <time>2019-07-07T07:39:25.816Z</time>
      </trkpt>
      <trkpt lat="42.90962333" lon="0.16417333">
        <ele>1847.0</ele>
        <time>2019-07-07T07:39:26.805Z</time>
      </trkpt>
      <trkpt lat="42.90962333" lon="0.16417333">
        <ele>1847.0</ele>
        <time>2019-07-07T07:39:27.828Z</time>
      </trkpt>
      <trkpt lat="42.90961" lon="0.16410667">
        <ele>1847.0</ele>
        <time>2019-07-07T07:39:28.839Z</time>
      </trkpt>
      <trkpt lat="42.90960167" lon="0.164075">
        <ele>1848.0</ele>
        <time>2019-07-07T07:39:29.807Z</time>
      </trkpt>
      <trkpt lat="42.90960167" lon="0.164075">
        <ele>1848.0</ele>
        <time>2019-07-07T07:39:30.826Z</time>
      </trkpt>
      <trkpt lat="42.90958167" lon="0.16401167">
        <ele>1848.0</ele>
        <time>2019-07-07T07:39:31.836Z</time>
      </trkpt>
      <trkpt lat="42.90957333" lon="0.16397833">
        <ele>1849.0</ele>
        <time>2019-07-07T07:39:32.831Z</time>
      </trkpt>
      <trkpt lat="42.90957333" lon="0.16397833">
        <ele>1849.0</ele>
        <time>2019-07-07T07:39:33.837Z</time>
      </trkpt>
      <trkpt lat="42.90955667" lon="0.16390833">
        <ele>1849.0</ele>
        <time>2019-07-07T07:39:34.832Z</time>
      </trkpt>
      <trkpt lat="42.90954833" lon="0.16387167">
        <ele>1849.0</ele>
        <time>2019-07-07T07:39:35.817Z</time>
      </trkpt>
      <trkpt lat="42.90954833" lon="0.16387167">
        <ele>1849.0</ele>
        <time>2019-07-07T07:39:36.840Z</time>
      </trkpt>
      <trkpt lat="42.909535" lon="0.16380833">
        <ele>1850.0</ele>
        <time>2019-07-07T07:39:37.808Z</time>
      </trkpt>
      <trkpt lat="42.909535" lon="0.16380833">
        <ele>1850.0</ele>
        <time>2019-07-07T07:39:38.816Z</time>
      </trkpt>
      <trkpt lat="42.90952333" lon="0.163745">
        <ele>1851.0</ele>
        <time>2019-07-07T07:39:39.824Z</time>
      </trkpt>
      <trkpt lat="42.90951833" lon="0.16371167">
        <ele>1851.0</ele>
        <time>2019-07-07T07:39:40.815Z</time>
      </trkpt>
      <trkpt lat="42.90951833" lon="0.16371167">
        <ele>1851.0</ele>
        <time>2019-07-07T07:39:41.840Z</time>
      </trkpt>
      <trkpt lat="42.90950833" lon="0.16364833">
        <ele>1852.0</ele>
        <time>2019-07-07T07:39:42.806Z</time>
      </trkpt>
      <trkpt lat="42.90950333" lon="0.16361333">
        <ele>1852.0</ele>
        <time>2019-07-07T07:39:43.841Z</time>
      </trkpt>
      <trkpt lat="42.90949833" lon="0.16357667">
        <ele>1852.0</ele>
        <time>2019-07-07T07:39:44.829Z</time>
      </trkpt>
      <trkpt lat="42.90949833" lon="0.16357667">
        <ele>1852.0</ele>
        <time>2019-07-07T07:39:45.814Z</time>
      </trkpt>
      <trkpt lat="42.90948833" lon="0.16350667">
        <ele>1852.0</ele>
        <time>2019-07-07T07:39:46.839Z</time>
      </trkpt>
      <trkpt lat="42.90948833" lon="0.16350667">
        <ele>1852.0</ele>
        <time>2019-07-07T07:39:47.801Z</time>
      </trkpt>
      <trkpt lat="42.90948" lon="0.16345333">
        <ele>1853.0</ele>
        <time>2019-07-07T07:39:48.810Z</time>
      </trkpt>
      <trkpt lat="42.90948" lon="0.16345333">
        <ele>1853.0</ele>
        <time>2019-07-07T07:39:49.833Z</time>
      </trkpt>
      <trkpt lat="42.90946" lon="0.16337833">
        <ele>1853.0</ele>
        <time>2019-07-07T07:39:50.801Z</time>
      </trkpt>
      <trkpt lat="42.90945" lon="0.16333833">
        <ele>1854.0</ele>
        <time>2019-07-07T07:39:51.814Z</time>
      </trkpt>
      <trkpt lat="42.90945" lon="0.16333833">
        <ele>1854.0</ele>
        <time>2019-07-07T07:39:52.814Z</time>
      </trkpt>
      <trkpt lat="42.90943667" lon="0.16327167">
        <ele>1854.0</ele>
        <time>2019-07-07T07:39:53.815Z</time>
      </trkpt>
      <trkpt lat="42.90943667" lon="0.16327167">
        <ele>1854.0</ele>
        <time>2019-07-07T07:39:54.830Z</time>
      </trkpt>
      <trkpt lat="42.90942833" lon="0.1632">
        <ele>1855.0</ele>
        <time>2019-07-07T07:39:55.838Z</time>
      </trkpt>
      <trkpt lat="42.90942833" lon="0.1632">
        <ele>1855.0</ele>
        <time>2019-07-07T07:39:56.807Z</time>
      </trkpt>
      <trkpt lat="42.90941333" lon="0.16312167">
        <ele>1855.0</ele>
        <time>2019-07-07T07:39:57.815Z</time>
      </trkpt>
      <trkpt lat="42.90941333" lon="0.16312167">
        <ele>1855.0</ele>
        <time>2019-07-07T07:39:58.813Z</time>
      </trkpt>
      <trkpt lat="42.909405" lon="0.16305833">
        <ele>1856.0</ele>
        <time>2019-07-07T07:39:59.829Z</time>
      </trkpt>
      <trkpt lat="42.909405" lon="0.16305833">
        <ele>1856.0</ele>
        <time>2019-07-07T07:40:00.815Z</time>
      </trkpt>
      <trkpt lat="42.909395" lon="0.16299667">
        <ele>1857.0</ele>
        <time>2019-07-07T07:40:01.834Z</time>
      </trkpt>
      <trkpt lat="42.909395" lon="0.16299667">
        <ele>1857.0</ele>
        <time>2019-07-07T07:40:02.829Z</time>
      </trkpt>
      <trkpt lat="42.90938167" lon="0.16293667">
        <ele>1857.0</ele>
        <time>2019-07-07T07:40:03.836Z</time>
      </trkpt>
      <trkpt lat="42.90938167" lon="0.16293667">
        <ele>1857.0</ele>
        <time>2019-07-07T07:40:04.823Z</time>
      </trkpt>
      <trkpt lat="42.90936667" lon="0.16288">
        <ele>1858.0</ele>
        <time>2019-07-07T07:40:05.815Z</time>
      </trkpt>
      <trkpt lat="42.90936667" lon="0.16288">
        <ele>1858.0</ele>
        <time>2019-07-07T07:40:06.813Z</time>
      </trkpt>
      <trkpt lat="42.90934" lon="0.16282667">
        <ele>1858.0</ele>
        <time>2019-07-07T07:40:07.830Z</time>
      </trkpt>
      <trkpt lat="42.90934" lon="0.16282667">
        <ele>1858.0</ele>
        <time>2019-07-07T07:40:08.815Z</time>
      </trkpt>
      <trkpt lat="42.909315" lon="0.16277">
        <ele>1859.0</ele>
        <time>2019-07-07T07:40:09.814Z</time>
      </trkpt>
      <trkpt lat="42.90930167" lon="0.16274167">
        <ele>1859.0</ele>
        <time>2019-07-07T07:40:10.803Z</time>
      </trkpt>
      <trkpt lat="42.90929333" lon="0.16271667">
        <ele>1860.0</ele>
        <time>2019-07-07T07:40:11.812Z</time>
      </trkpt>
      <trkpt lat="42.90929333" lon="0.16271667">
        <ele>1860.0</ele>
        <time>2019-07-07T07:40:12.836Z</time>
      </trkpt>
      <trkpt lat="42.90927333" lon="0.16266167">
        <ele>1860.0</ele>
        <time>2019-07-07T07:40:13.802Z</time>
      </trkpt>
      <trkpt lat="42.90926167" lon="0.16263333">
        <ele>1861.0</ele>
        <time>2019-07-07T07:40:14.833Z</time>
      </trkpt>
      <trkpt lat="42.90926167" lon="0.16263333">
        <ele>1861.0</ele>
        <time>2019-07-07T07:40:15.826Z</time>
      </trkpt>
      <trkpt lat="42.90923167" lon="0.16258167">
        <ele>1861.0</ele>
        <time>2019-07-07T07:40:16.832Z</time>
      </trkpt>
      <trkpt lat="42.90923167" lon="0.16258167">
        <ele>1861.0</ele>
        <time>2019-07-07T07:40:17.807Z</time>
      </trkpt>
      <trkpt lat="42.90920833" lon="0.16252667">
        <ele>1862.0</ele>
        <time>2019-07-07T07:40:18.814Z</time>
      </trkpt>
      <trkpt lat="42.90920833" lon="0.16252667">
        <ele>1862.0</ele>
        <time>2019-07-07T07:40:19.829Z</time>
      </trkpt>
      <trkpt lat="42.90919" lon="0.16248">
        <ele>1863.0</ele>
        <time>2019-07-07T07:40:20.836Z</time>
      </trkpt>
      <trkpt lat="42.90919" lon="0.16248">
        <ele>1863.0</ele>
        <time>2019-07-07T07:40:21.827Z</time>
      </trkpt>
      <trkpt lat="42.90916167" lon="0.162425">
        <ele>1863.0</ele>
        <time>2019-07-07T07:40:22.815Z</time>
      </trkpt>
      <trkpt lat="42.90916167" lon="0.162425">
        <ele>1863.0</ele>
        <time>2019-07-07T07:40:23.824Z</time>
      </trkpt>
      <trkpt lat="42.909135" lon="0.16236333">
        <ele>1864.0</ele>
        <time>2019-07-07T07:40:24.831Z</time>
      </trkpt>
      <trkpt lat="42.909135" lon="0.16236333">
        <ele>1864.0</ele>
        <time>2019-07-07T07:40:25.835Z</time>
      </trkpt>
      <trkpt lat="42.90910833" lon="0.16230167">
        <ele>1865.0</ele>
        <time>2019-07-07T07:40:26.811Z</time>
      </trkpt>
      <trkpt lat="42.90909667" lon="0.16227333">
        <ele>1865.0</ele>
        <time>2019-07-07T07:40:27.817Z</time>
      </trkpt>
      <trkpt lat="42.90909667" lon="0.16227333">
        <ele>1865.0</ele>
        <time>2019-07-07T07:40:28.803Z</time>
      </trkpt>
      <trkpt lat="42.909075" lon="0.16221333">
        <ele>1865.0</ele>
        <time>2019-07-07T07:40:29.834Z</time>
      </trkpt>
      <trkpt lat="42.909075" lon="0.16221333">
        <ele>1865.0</ele>
        <time>2019-07-07T07:40:30.809Z</time>
      </trkpt>
      <trkpt lat="42.90906333" lon="0.162155">
        <ele>1866.0</ele>
        <time>2019-07-07T07:40:31.815Z</time>
      </trkpt>
      <trkpt lat="42.90906333" lon="0.162155">
        <ele>1866.0</ele>
        <time>2019-07-07T07:40:32.831Z</time>
      </trkpt>
      <trkpt lat="42.90904667" lon="0.16209333">
        <ele>1866.0</ele>
        <time>2019-07-07T07:40:33.826Z</time>
      </trkpt>
      <trkpt lat="42.90904167" lon="0.16206333">
        <ele>1867.0</ele>
        <time>2019-07-07T07:40:34.814Z</time>
      </trkpt>
      <trkpt lat="42.90904167" lon="0.16206333">
        <ele>1867.0</ele>
        <time>2019-07-07T07:40:35.840Z</time>
      </trkpt>
      <trkpt lat="42.90903333" lon="0.16200167">
        <ele>1867.0</ele>
        <time>2019-07-07T07:40:36.826Z</time>
      </trkpt>
      <trkpt lat="42.909025" lon="0.16197">
        <ele>1867.0</ele>
        <time>2019-07-07T07:40:37.838Z</time>
      </trkpt>
      <trkpt lat="42.909015" lon="0.16193833">
        <ele>1867.0</ele>
        <time>2019-07-07T07:40:38.812Z</time>
      </trkpt>
      <trkpt lat="42.909015" lon="0.16193833">
        <ele>1867.0</ele>
        <time>2019-07-07T07:40:39.828Z</time>
      </trkpt>
      <trkpt lat="42.908995" lon="0.16187833">
        <ele>1868.0</ele>
        <time>2019-07-07T07:40:40.837Z</time>
      </trkpt>
      <trkpt lat="42.908995" lon="0.16187833">
        <ele>1868.0</ele>
        <time>2019-07-07T07:40:41.824Z</time>
      </trkpt>
      <trkpt lat="42.90898" lon="0.16181667">
        <ele>1868.0</ele>
        <time>2019-07-07T07:40:42.834Z</time>
      </trkpt>
      <trkpt lat="42.90898" lon="0.16181667">
        <ele>1868.0</ele>
        <time>2019-07-07T07:40:43.820Z</time>
      </trkpt>
      <trkpt lat="42.90896333" lon="0.16175667">
        <ele>1869.0</ele>
        <time>2019-07-07T07:40:44.826Z</time>
      </trkpt>
      <trkpt lat="42.90895333" lon="0.161725">
        <ele>1869.0</ele>
        <time>2019-07-07T07:40:45.817Z</time>
      </trkpt>
      <trkpt lat="42.90894667" lon="0.16169333">
        <ele>1869.0</ele>
        <time>2019-07-07T07:40:46.816Z</time>
      </trkpt>
      <trkpt lat="42.90894667" lon="0.16169333">
        <ele>1869.0</ele>
        <time>2019-07-07T07:40:47.809Z</time>
      </trkpt>
      <trkpt lat="42.90893167" lon="0.16163">
        <ele>1870.0</ele>
        <time>2019-07-07T07:40:48.822Z</time>
      </trkpt>
      <trkpt lat="42.90893167" lon="0.16163">
        <ele>1870.0</ele>
        <time>2019-07-07T07:40:49.825Z</time>
      </trkpt>
      <trkpt lat="42.90890333" lon="0.16156833">
        <ele>1870.0</ele>
        <time>2019-07-07T07:40:50.834Z</time>
      </trkpt>
      <trkpt lat="42.90890333" lon="0.16156833">
        <ele>1870.0</ele>
        <time>2019-07-07T07:40:51.806Z</time>
      </trkpt>
      <trkpt lat="42.90888333" lon="0.161505">
        <ele>1871.0</ele>
        <time>2019-07-07T07:40:52.815Z</time>
      </trkpt>
      <trkpt lat="42.90888333" lon="0.161505">
        <ele>1871.0</ele>
        <time>2019-07-07T07:40:53.830Z</time>
      </trkpt>
      <trkpt lat="42.908865" lon="0.16143333">
        <ele>1872.0</ele>
        <time>2019-07-07T07:40:54.827Z</time>
      </trkpt>
      <trkpt lat="42.908865" lon="0.16143333">
        <ele>1872.0</ele>
        <time>2019-07-07T07:40:55.838Z</time>
      </trkpt>
      <trkpt lat="42.90885333" lon="0.16136">
        <ele>1872.0</ele>
        <time>2019-07-07T07:40:56.807Z</time>
      </trkpt>
      <trkpt lat="42.90885333" lon="0.16136">
        <ele>1872.0</ele>
        <time>2019-07-07T07:40:57.832Z</time>
      </trkpt>
      <trkpt lat="42.90884167" lon="0.161295">
        <ele>1873.0</ele>
        <time>2019-07-07T07:40:58.814Z</time>
      </trkpt>
      <trkpt lat="42.90884167" lon="0.161295">
        <ele>1873.0</ele>
        <time>2019-07-07T07:40:59.838Z</time>
      </trkpt>
      <trkpt lat="42.908825" lon="0.16122667">
        <ele>1873.0</ele>
        <time>2019-07-07T07:41:00.812Z</time>
      </trkpt>
      <trkpt lat="42.90882167" lon="0.16119333">
        <ele>1873.0</ele>
        <time>2019-07-07T07:41:01.834Z</time>
      </trkpt>
      <trkpt lat="42.90882167" lon="0.16119333">
        <ele>1873.0</ele>
        <time>2019-07-07T07:41:02.814Z</time>
      </trkpt>
      <trkpt lat="42.90880833" lon="0.16112833">
        <ele>1874.0</ele>
        <time>2019-07-07T07:41:03.828Z</time>
      </trkpt>
      <trkpt lat="42.9088" lon="0.16109667">
        <ele>1874.0</ele>
        <time>2019-07-07T07:41:04.818Z</time>
      </trkpt>
      <trkpt lat="42.9088" lon="0.16109667">
        <ele>1874.0</ele>
        <time>2019-07-07T07:41:05.812Z</time>
      </trkpt>
      <trkpt lat="42.908785" lon="0.16102667">
        <ele>1875.0</ele>
        <time>2019-07-07T07:41:06.819Z</time>
      </trkpt>
      <trkpt lat="42.908785" lon="0.16102667">
        <ele>1875.0</ele>
        <time>2019-07-07T07:41:07.808Z</time>
      </trkpt>
      <trkpt lat="42.90877333" lon="0.16095667">
        <ele>1876.0</ele>
        <time>2019-07-07T07:41:08.826Z</time>
      </trkpt>
      <trkpt lat="42.90877333" lon="0.16095667">
        <ele>1876.0</ele>
        <time>2019-07-07T07:41:09.809Z</time>
      </trkpt>
      <trkpt lat="42.90876167" lon="0.16088667">
        <ele>1877.0</ele>
        <time>2019-07-07T07:41:10.817Z</time>
      </trkpt>
      <trkpt lat="42.90876167" lon="0.16088667">
        <ele>1877.0</ele>
        <time>2019-07-07T07:41:11.807Z</time>
      </trkpt>
      <trkpt lat="42.90875" lon="0.16081667">
        <ele>1877.0</ele>
        <time>2019-07-07T07:41:12.826Z</time>
      </trkpt>
      <trkpt lat="42.90875" lon="0.16081667">
        <ele>1877.0</ele>
        <time>2019-07-07T07:41:13.805Z</time>
      </trkpt>
      <trkpt lat="42.90874167" lon="0.16075167">
        <ele>1878.0</ele>
        <time>2019-07-07T07:41:14.812Z</time>
      </trkpt>
      <trkpt lat="42.908735" lon="0.16072">
        <ele>1878.0</ele>
        <time>2019-07-07T07:41:15.808Z</time>
      </trkpt>
      <trkpt lat="42.908735" lon="0.16072">
        <ele>1878.0</ele>
        <time>2019-07-07T07:41:16.838Z</time>
      </trkpt>
      <trkpt lat="42.90872333" lon="0.16065667">
        <ele>1879.0</ele>
        <time>2019-07-07T07:41:17.813Z</time>
      </trkpt>
      <trkpt lat="42.90871833" lon="0.160625">
        <ele>1879.0</ele>
        <time>2019-07-07T07:41:18.804Z</time>
      </trkpt>
      <trkpt lat="42.90871833" lon="0.160625">
        <ele>1879.0</ele>
        <time>2019-07-07T07:41:19.830Z</time>
      </trkpt>
      <trkpt lat="42.908705" lon="0.16056333">
        <ele>1880.0</ele>
        <time>2019-07-07T07:41:20.838Z</time>
      </trkpt>
      <trkpt lat="42.9087" lon="0.16053">
        <ele>1880.0</ele>
        <time>2019-07-07T07:41:21.837Z</time>
      </trkpt>
      <trkpt lat="42.908695" lon="0.16050167">
        <ele>1880.0</ele>
        <time>2019-07-07T07:41:22.832Z</time>
      </trkpt>
      <trkpt lat="42.908695" lon="0.16050167">
        <ele>1880.0</ele>
        <time>2019-07-07T07:41:23.807Z</time>
      </trkpt>
      <trkpt lat="42.90868667" lon="0.16044167">
        <ele>1880.0</ele>
        <time>2019-07-07T07:41:24.825Z</time>
      </trkpt>
      <trkpt lat="42.90868167" lon="0.16041333">
        <ele>1881.0</ele>
        <time>2019-07-07T07:41:25.829Z</time>
      </trkpt>
      <trkpt lat="42.90868167" lon="0.16041333">
        <ele>1881.0</ele>
        <time>2019-07-07T07:41:26.807Z</time>
      </trkpt>
      <trkpt lat="42.90867167" lon="0.16034667">
        <ele>1881.0</ele>
        <time>2019-07-07T07:41:27.814Z</time>
      </trkpt>
      <trkpt lat="42.90866333" lon="0.16030667">
        <ele>1881.0</ele>
        <time>2019-07-07T07:41:28.831Z</time>
      </trkpt>
      <trkpt lat="42.90866333" lon="0.16030667">
        <ele>1881.0</ele>
        <time>2019-07-07T07:41:29.837Z</time>
      </trkpt>
      <trkpt lat="42.90865" lon="0.16023667">
        <ele>1882.0</ele>
        <time>2019-07-07T07:41:30.815Z</time>
      </trkpt>
      <trkpt lat="42.90864167" lon="0.16020833">
        <ele>1882.0</ele>
        <time>2019-07-07T07:41:31.833Z</time>
      </trkpt>
      <trkpt lat="42.90863333" lon="0.16017667">
        <ele>1882.0</ele>
        <time>2019-07-07T07:41:32.819Z</time>
      </trkpt>
      <trkpt lat="42.90863333" lon="0.16017667">
        <ele>1882.0</ele>
        <time>2019-07-07T07:41:33.807Z</time>
      </trkpt>
      <trkpt lat="42.90862667" lon="0.16011">
        <ele>1883.0</ele>
        <time>2019-07-07T07:41:34.813Z</time>
      </trkpt>
      <trkpt lat="42.90862667" lon="0.16011">
        <ele>1883.0</ele>
        <time>2019-07-07T07:41:35.812Z</time>
      </trkpt>
      <trkpt lat="42.90862333" lon="0.16004333">
        <ele>1883.0</ele>
        <time>2019-07-07T07:41:36.813Z</time>
      </trkpt>
      <trkpt lat="42.90862333" lon="0.16004333">
        <ele>1883.0</ele>
        <time>2019-07-07T07:41:37.839Z</time>
      </trkpt>
      <trkpt lat="42.908615" lon="0.15998">
        <ele>1884.0</ele>
        <time>2019-07-07T07:41:38.806Z</time>
      </trkpt>
      <trkpt lat="42.908615" lon="0.15998">
        <ele>1884.0</ele>
        <time>2019-07-07T07:41:39.836Z</time>
      </trkpt>
      <trkpt lat="42.9086" lon="0.15991833">
        <ele>1884.0</ele>
        <time>2019-07-07T07:41:40.826Z</time>
      </trkpt>
      <trkpt lat="42.9086" lon="0.15991833">
        <ele>1884.0</ele>
        <time>2019-07-07T07:41:41.817Z</time>
      </trkpt>
      <trkpt lat="42.90858" lon="0.159855">
        <ele>1885.0</ele>
        <time>2019-07-07T07:41:42.822Z</time>
      </trkpt>
      <trkpt lat="42.90858" lon="0.159855">
        <ele>1885.0</ele>
        <time>2019-07-07T07:41:43.807Z</time>
      </trkpt>
      <trkpt lat="42.908565" lon="0.15978833">
        <ele>1885.0</ele>
        <time>2019-07-07T07:41:44.815Z</time>
      </trkpt>
      <trkpt lat="42.908565" lon="0.15978833">
        <ele>1885.0</ele>
        <time>2019-07-07T07:41:45.801Z</time>
      </trkpt>
      <trkpt lat="42.90855333" lon="0.15972333">
        <ele>1886.0</ele>
        <time>2019-07-07T07:41:46.807Z</time>
      </trkpt>
      <trkpt lat="42.90855333" lon="0.15972333">
        <ele>1886.0</ele>
        <time>2019-07-07T07:41:47.829Z</time>
      </trkpt>
      <trkpt lat="42.90855" lon="0.15966">
        <ele>1887.0</ele>
        <time>2019-07-07T07:41:48.840Z</time>
      </trkpt>
      <trkpt lat="42.90854167" lon="0.15963">
        <ele>1887.0</ele>
        <time>2019-07-07T07:41:49.818Z</time>
      </trkpt>
      <trkpt lat="42.90854167" lon="0.15963">
        <ele>1887.0</ele>
        <time>2019-07-07T07:41:50.839Z</time>
      </trkpt>
      <trkpt lat="42.90852" lon="0.15957333">
        <ele>1888.0</ele>
        <time>2019-07-07T07:41:51.807Z</time>
      </trkpt>
      <trkpt lat="42.908505" lon="0.15954167">
        <ele>1888.0</ele>
        <time>2019-07-07T07:41:52.801Z</time>
      </trkpt>
      <trkpt lat="42.908505" lon="0.15954167">
        <ele>1888.0</ele>
        <time>2019-07-07T07:41:53.834Z</time>
      </trkpt>
      <trkpt lat="42.90848833" lon="0.15948167">
        <ele>1889.0</ele>
        <time>2019-07-07T07:41:54.802Z</time>
      </trkpt>
      <trkpt lat="42.90848167" lon="0.15945167">
        <ele>1889.0</ele>
        <time>2019-07-07T07:41:55.814Z</time>
      </trkpt>
      <trkpt lat="42.90848167" lon="0.15945167">
        <ele>1889.0</ele>
        <time>2019-07-07T07:41:56.828Z</time>
      </trkpt>
      <trkpt lat="42.90845833" lon="0.15939167">
        <ele>1890.0</ele>
        <time>2019-07-07T07:41:57.836Z</time>
      </trkpt>
      <trkpt lat="42.908445" lon="0.15936">
        <ele>1890.0</ele>
        <time>2019-07-07T07:41:58.834Z</time>
      </trkpt>
      <trkpt lat="42.908445" lon="0.15936">
        <ele>1890.0</ele>
        <time>2019-07-07T07:41:59.839Z</time>
      </trkpt>
      <trkpt lat="42.90842333" lon="0.15930167">
        <ele>1891.0</ele>
        <time>2019-07-07T07:42:00.806Z</time>
      </trkpt>
      <trkpt lat="42.90841" lon="0.15927167">
        <ele>1891.0</ele>
        <time>2019-07-07T07:42:01.838Z</time>
      </trkpt>
      <trkpt lat="42.90841" lon="0.15927167">
        <ele>1891.0</ele>
        <time>2019-07-07T07:42:02.817Z</time>
      </trkpt>
      <trkpt lat="42.90838167" lon="0.15921833">
        <ele>1892.0</ele>
        <time>2019-07-07T07:42:03.824Z</time>
      </trkpt>
      <trkpt lat="42.90836833" lon="0.15919333">
        <ele>1892.0</ele>
        <time>2019-07-07T07:42:04.814Z</time>
      </trkpt>
      <trkpt lat="42.90836833" lon="0.15919333">
        <ele>1892.0</ele>
        <time>2019-07-07T07:42:05.802Z</time>
      </trkpt>
      <trkpt lat="42.90834167" lon="0.15913833">
        <ele>1893.0</ele>
        <time>2019-07-07T07:42:06.809Z</time>
      </trkpt>
      <trkpt lat="42.90832833" lon="0.15911167">
        <ele>1893.0</ele>
        <time>2019-07-07T07:42:07.830Z</time>
      </trkpt>
      <trkpt lat="42.90832833" lon="0.15911167">
        <ele>1893.0</ele>
        <time>2019-07-07T07:42:08.810Z</time>
      </trkpt>
      <trkpt lat="42.90829833" lon="0.15906167">
        <ele>1893.0</ele>
        <time>2019-07-07T07:42:09.816Z</time>
      </trkpt>
      <trkpt lat="42.90828167" lon="0.15903833">
        <ele>1894.0</ele>
        <time>2019-07-07T07:42:10.816Z</time>
      </trkpt>
      <trkpt lat="42.90828167" lon="0.15903833">
        <ele>1894.0</ele>
        <time>2019-07-07T07:42:11.808Z</time>
      </trkpt>
      <trkpt lat="42.90824333" lon="0.159">
        <ele>1894.0</ele>
        <time>2019-07-07T07:42:12.815Z</time>
      </trkpt>
      <trkpt lat="42.90824333" lon="0.159">
        <ele>1894.0</ele>
        <time>2019-07-07T07:42:13.840Z</time>
      </trkpt>
      <trkpt lat="42.90820833" lon="0.15895833">
        <ele>1895.0</ele>
        <time>2019-07-07T07:42:14.815Z</time>
      </trkpt>
      <trkpt lat="42.90819" lon="0.15893667">
        <ele>1895.0</ele>
        <time>2019-07-07T07:42:15.808Z</time>
      </trkpt>
      <trkpt lat="42.90817167" lon="0.15891667">
        <ele>1895.0</ele>
        <time>2019-07-07T07:42:16.834Z</time>
      </trkpt>
      <trkpt lat="42.90815333" lon="0.158895">
        <ele>1896.0</ele>
        <time>2019-07-07T07:42:17.819Z</time>
      </trkpt>
      <trkpt lat="42.90815333" lon="0.158895">
        <ele>1896.0</ele>
        <time>2019-07-07T07:42:18.839Z</time>
      </trkpt>
      <trkpt lat="42.908115" lon="0.15885">
        <ele>1896.0</ele>
        <time>2019-07-07T07:42:19.805Z</time>
      </trkpt>
      <trkpt lat="42.908115" lon="0.15885">
        <ele>1896.0</ele>
        <time>2019-07-07T07:42:20.833Z</time>
      </trkpt>
      <trkpt lat="42.90807833" lon="0.15880333">
        <ele>1897.0</ele>
        <time>2019-07-07T07:42:21.838Z</time>
      </trkpt>
      <trkpt lat="42.90807833" lon="0.15880333">
        <ele>1897.0</ele>
        <time>2019-07-07T07:42:22.835Z</time>
      </trkpt>
      <trkpt lat="42.908035" lon="0.158755">
        <ele>1897.0</ele>
        <time>2019-07-07T07:42:23.803Z</time>
      </trkpt>
      <trkpt lat="42.908015" lon="0.158735">
        <ele>1897.0</ele>
        <time>2019-07-07T07:42:24.816Z</time>
      </trkpt>
      <trkpt lat="42.908015" lon="0.158735">
        <ele>1897.0</ele>
        <time>2019-07-07T07:42:25.808Z</time>
      </trkpt>
      <trkpt lat="42.90797333" lon="0.15869">
        <ele>1898.0</ele>
        <time>2019-07-07T07:42:26.814Z</time>
      </trkpt>
      <trkpt lat="42.907955" lon="0.15866833">
        <ele>1898.0</ele>
        <time>2019-07-07T07:42:27.829Z</time>
      </trkpt>
      <trkpt lat="42.907955" lon="0.15866833">
        <ele>1898.0</ele>
        <time>2019-07-07T07:42:28.808Z</time>
      </trkpt>
      <trkpt lat="42.90792167" lon="0.15862333">
        <ele>1898.0</ele>
        <time>2019-07-07T07:42:29.815Z</time>
      </trkpt>
      <trkpt lat="42.90792167" lon="0.15862333">
        <ele>1898.0</ele>
        <time>2019-07-07T07:42:30.807Z</time>
      </trkpt>
      <trkpt lat="42.90788667" lon="0.158575">
        <ele>1899.0</ele>
        <time>2019-07-07T07:42:31.814Z</time>
      </trkpt>
      <trkpt lat="42.90788667" lon="0.158575">
        <ele>1899.0</ele>
        <time>2019-07-07T07:42:32.837Z</time>
      </trkpt>
      <trkpt lat="42.90785333" lon="0.15852833">
        <ele>1899.0</ele>
        <time>2019-07-07T07:42:33.826Z</time>
      </trkpt>
      <trkpt lat="42.90785333" lon="0.15852833">
        <ele>1899.0</ele>
        <time>2019-07-07T07:42:34.806Z</time>
      </trkpt>
      <trkpt lat="42.90782167" lon="0.15848167">
        <ele>1900.0</ele>
        <time>2019-07-07T07:42:35.815Z</time>
      </trkpt>
      <trkpt lat="42.90780833" lon="0.15845667">
        <ele>1900.0</ele>
        <time>2019-07-07T07:42:36.830Z</time>
      </trkpt>
      <trkpt lat="42.90780833" lon="0.15845667">
        <ele>1900.0</ele>
        <time>2019-07-07T07:42:37.814Z</time>
      </trkpt>
      <trkpt lat="42.90777833" lon="0.158405">
        <ele>1900.0</ele>
        <time>2019-07-07T07:42:38.821Z</time>
      </trkpt>
      <trkpt lat="42.90776333" lon="0.15838">
        <ele>1900.0</ele>
        <time>2019-07-07T07:42:39.802Z</time>
      </trkpt>
      <trkpt lat="42.90775" lon="0.158355">
        <ele>1900.0</ele>
        <time>2019-07-07T07:42:40.829Z</time>
      </trkpt>
      <trkpt lat="42.90775" lon="0.158355">
        <ele>1900.0</ele>
        <time>2019-07-07T07:42:41.815Z</time>
      </trkpt>
      <trkpt lat="42.90771833" lon="0.15830667">
        <ele>1901.0</ele>
        <time>2019-07-07T07:42:42.823Z</time>
      </trkpt>
      <trkpt lat="42.90771833" lon="0.15830667">
        <ele>1901.0</ele>
        <time>2019-07-07T07:42:43.819Z</time>
      </trkpt>
      <trkpt lat="42.90769167" lon="0.158255">
        <ele>1901.0</ele>
        <time>2019-07-07T07:42:44.826Z</time>
      </trkpt>
      <trkpt lat="42.90769167" lon="0.158255">
        <ele>1901.0</ele>
        <time>2019-07-07T07:42:45.827Z</time>
      </trkpt>
      <trkpt lat="42.90766333" lon="0.1582">
        <ele>1902.0</ele>
        <time>2019-07-07T07:42:46.815Z</time>
      </trkpt>
      <trkpt lat="42.90766333" lon="0.1582">
        <ele>1902.0</ele>
        <time>2019-07-07T07:42:47.811Z</time>
      </trkpt>
      <trkpt lat="42.90763167" lon="0.15815">
        <ele>1902.0</ele>
        <time>2019-07-07T07:42:48.824Z</time>
      </trkpt>
      <trkpt lat="42.907615" lon="0.15812167">
        <ele>1902.0</ele>
        <time>2019-07-07T07:42:49.836Z</time>
      </trkpt>
      <trkpt lat="42.907615" lon="0.15812167">
        <ele>1902.0</ele>
        <time>2019-07-07T07:42:50.821Z</time>
      </trkpt>
      <trkpt lat="42.90757833" lon="0.15806667">
        <ele>1903.0</ele>
        <time>2019-07-07T07:42:51.831Z</time>
      </trkpt>
      <trkpt lat="42.90757833" lon="0.15806667">
        <ele>1903.0</ele>
        <time>2019-07-07T07:42:52.837Z</time>
      </trkpt>
      <trkpt lat="42.90753833" lon="0.15801667">
        <ele>1903.0</ele>
        <time>2019-07-07T07:42:53.806Z</time>
      </trkpt>
      <trkpt lat="42.90753833" lon="0.15801667">
        <ele>1903.0</ele>
        <time>2019-07-07T07:42:54.833Z</time>
      </trkpt>
      <trkpt lat="42.90749333" lon="0.157965">
        <ele>1904.0</ele>
        <time>2019-07-07T07:42:55.815Z</time>
      </trkpt>
      <trkpt lat="42.907475" lon="0.15794">
        <ele>1904.0</ele>
        <time>2019-07-07T07:42:56.837Z</time>
      </trkpt>
      <trkpt lat="42.907475" lon="0.15794">
        <ele>1904.0</ele>
        <time>2019-07-07T07:42:57.807Z</time>
      </trkpt>
      <trkpt lat="42.90744833" lon="0.15789">
        <ele>1905.0</ele>
        <time>2019-07-07T07:42:58.817Z</time>
      </trkpt>
      <trkpt lat="42.90744833" lon="0.15789">
        <ele>1905.0</ele>
        <time>2019-07-07T07:42:59.815Z</time>
      </trkpt>
      <trkpt lat="42.90741667" lon="0.157835">
        <ele>1905.0</ele>
        <time>2019-07-07T07:43:00.828Z</time>
      </trkpt>
      <trkpt lat="42.90741667" lon="0.157835">
        <ele>1905.0</ele>
        <time>2019-07-07T07:43:01.810Z</time>
      </trkpt>
      <trkpt lat="42.90738833" lon="0.15777333">
        <ele>1906.0</ele>
        <time>2019-07-07T07:43:02.826Z</time>
      </trkpt>
      <trkpt lat="42.90738833" lon="0.15777333">
        <ele>1906.0</ele>
        <time>2019-07-07T07:43:03.807Z</time>
      </trkpt>
      <trkpt lat="42.90737" lon="0.15771167">
        <ele>1906.0</ele>
        <time>2019-07-07T07:43:04.814Z</time>
      </trkpt>
      <trkpt lat="42.907355" lon="0.15768">
        <ele>1907.0</ele>
        <time>2019-07-07T07:43:05.836Z</time>
      </trkpt>
      <trkpt lat="42.907355" lon="0.15768">
        <ele>1907.0</ele>
        <time>2019-07-07T07:43:06.810Z</time>
      </trkpt>
      <trkpt lat="42.90732833" lon="0.15761833">
        <ele>1907.0</ele>
        <time>2019-07-07T07:43:07.818Z</time>
      </trkpt>
      <trkpt lat="42.90732833" lon="0.15761833">
        <ele>1907.0</ele>
        <time>2019-07-07T07:43:08.833Z</time>
      </trkpt>
      <trkpt lat="42.90731333" lon="0.15755167">
        <ele>1908.0</ele>
        <time>2019-07-07T07:43:09.824Z</time>
      </trkpt>
      <trkpt lat="42.90730333" lon="0.15752">
        <ele>1908.0</ele>
        <time>2019-07-07T07:43:10.816Z</time>
      </trkpt>
      <trkpt lat="42.90730333" lon="0.15752">
        <ele>1908.0</ele>
        <time>2019-07-07T07:43:11.839Z</time>
      </trkpt>
      <trkpt lat="42.90728" lon="0.15745833">
        <ele>1908.0</ele>
        <time>2019-07-07T07:43:12.806Z</time>
      </trkpt>
      <trkpt lat="42.90726833" lon="0.157425">
        <ele>1908.0</ele>
        <time>2019-07-07T07:43:13.818Z</time>
      </trkpt>
      <trkpt lat="42.90726833" lon="0.157425">
        <ele>1908.0</ele>
        <time>2019-07-07T07:43:14.801Z</time>
      </trkpt>
      <trkpt lat="42.90724" lon="0.15736667">
        <ele>1909.0</ele>
        <time>2019-07-07T07:43:15.807Z</time>
      </trkpt>
      <trkpt lat="42.90724" lon="0.15736667">
        <ele>1909.0</ele>
        <time>2019-07-07T07:43:16.833Z</time>
      </trkpt>
      <trkpt lat="42.90720333" lon="0.157315">
        <ele>1909.0</ele>
        <time>2019-07-07T07:43:17.813Z</time>
      </trkpt>
      <trkpt lat="42.90720333" lon="0.157315">
        <ele>1909.0</ele>
        <time>2019-07-07T07:43:18.823Z</time>
      </trkpt>
      <trkpt lat="42.90717167" lon="0.15725833">
        <ele>1909.0</ele>
        <time>2019-07-07T07:43:19.834Z</time>
      </trkpt>
      <trkpt lat="42.90715333" lon="0.15723167">
        <ele>1910.0</ele>
        <time>2019-07-07T07:43:20.816Z</time>
      </trkpt>
      <trkpt lat="42.90715333" lon="0.15723167">
        <ele>1910.0</ele>
        <time>2019-07-07T07:43:21.820Z</time>
      </trkpt>
      <trkpt lat="42.90711667" lon="0.15717833">
        <ele>1910.0</ele>
        <time>2019-07-07T07:43:22.832Z</time>
      </trkpt>
      <trkpt lat="42.90711667" lon="0.15717833">
        <ele>1910.0</ele>
        <time>2019-07-07T07:43:23.816Z</time>
      </trkpt>
      <trkpt lat="42.907085" lon="0.15712">
        <ele>1910.0</ele>
        <time>2019-07-07T07:43:24.824Z</time>
      </trkpt>
      <trkpt lat="42.907085" lon="0.15712">
        <ele>1910.0</ele>
        <time>2019-07-07T07:43:25.839Z</time>
      </trkpt>
      <trkpt lat="42.90705667" lon="0.157065">
        <ele>1911.0</ele>
        <time>2019-07-07T07:43:26.805Z</time>
      </trkpt>
      <trkpt lat="42.90704333" lon="0.15703833">
        <ele>1911.0</ele>
        <time>2019-07-07T07:43:27.830Z</time>
      </trkpt>
      <trkpt lat="42.90703" lon="0.15700833">
        <ele>1911.0</ele>
        <time>2019-07-07T07:43:28.817Z</time>
      </trkpt>
      <trkpt lat="42.90703" lon="0.15700833">
        <ele>1911.0</ele>
        <time>2019-07-07T07:43:29.819Z</time>
      </trkpt>
      <trkpt lat="42.90700833" lon="0.15695167">
        <ele>1911.0</ele>
        <time>2019-07-07T07:43:30.830Z</time>
      </trkpt>
      <trkpt lat="42.90700833" lon="0.15695167">
        <ele>1911.0</ele>
        <time>2019-07-07T07:43:31.814Z</time>
      </trkpt>
      <trkpt lat="42.90699" lon="0.156895">
        <ele>1911.0</ele>
        <time>2019-07-07T07:43:32.823Z</time>
      </trkpt>
      <trkpt lat="42.90698333" lon="0.15686667">
        <ele>1911.0</ele>
        <time>2019-07-07T07:43:33.823Z</time>
      </trkpt>
      <trkpt lat="42.90698333" lon="0.15686667">
        <ele>1911.0</ele>
        <time>2019-07-07T07:43:34.827Z</time>
      </trkpt>
      <trkpt lat="42.90696167" lon="0.156805">
        <ele>1912.0</ele>
        <time>2019-07-07T07:43:35.833Z</time>
      </trkpt>
      <trkpt lat="42.90696167" lon="0.156805">
        <ele>1912.0</ele>
        <time>2019-07-07T07:43:36.809Z</time>
      </trkpt>
      <trkpt lat="42.90694" lon="0.15674333">
        <ele>1912.0</ele>
        <time>2019-07-07T07:43:37.816Z</time>
      </trkpt>
      <trkpt lat="42.90694" lon="0.15674333">
        <ele>1912.0</ele>
        <time>2019-07-07T07:43:38.831Z</time>
      </trkpt>
      <trkpt lat="42.90691667" lon="0.15667833">
        <ele>1912.0</ele>
        <time>2019-07-07T07:43:39.819Z</time>
      </trkpt>
      <trkpt lat="42.90690667" lon="0.15664833">
        <ele>1912.0</ele>
        <time>2019-07-07T07:43:40.828Z</time>
      </trkpt>
      <trkpt lat="42.90690667" lon="0.15664833">
        <ele>1912.0</ele>
        <time>2019-07-07T07:43:41.819Z</time>
      </trkpt>
      <trkpt lat="42.906885" lon="0.156585">
        <ele>1913.0</ele>
        <time>2019-07-07T07:43:42.829Z</time>
      </trkpt>
      <trkpt lat="42.90687333" lon="0.15655333">
        <ele>1913.0</ele>
        <time>2019-07-07T07:43:43.819Z</time>
      </trkpt>
      <trkpt lat="42.906865" lon="0.15652">
        <ele>1913.0</ele>
        <time>2019-07-07T07:43:44.837Z</time>
      </trkpt>
      <trkpt lat="42.906865" lon="0.15652">
        <ele>1913.0</ele>
        <time>2019-07-07T07:43:45.820Z</time>
      </trkpt>
      <trkpt lat="42.90684167" lon="0.15646">
        <ele>1913.0</ele>
        <time>2019-07-07T07:43:46.832Z</time>
      </trkpt>
      <trkpt lat="42.90684167" lon="0.15646">
        <ele>1913.0</ele>
        <time>2019-07-07T07:43:47.807Z</time>
      </trkpt>
      <trkpt lat="42.90681833" lon="0.1564">
        <ele>1914.0</ele>
        <time>2019-07-07T07:43:48.816Z</time>
      </trkpt>
      <trkpt lat="42.90681833" lon="0.1564">
        <ele>1914.0</ele>
        <time>2019-07-07T07:43:49.824Z</time>
      </trkpt>
      <trkpt lat="42.90679667" lon="0.15633833">
        <ele>1915.0</ele>
        <time>2019-07-07T07:43:50.831Z</time>
      </trkpt>
      <trkpt lat="42.90678667" lon="0.15630833">
        <ele>1915.0</ele>
        <time>2019-07-07T07:43:51.801Z</time>
      </trkpt>
      <trkpt lat="42.90678667" lon="0.15630833">
        <ele>1915.0</ele>
        <time>2019-07-07T07:43:52.822Z</time>
      </trkpt>
      <trkpt lat="42.90676833" lon="0.156245">
        <ele>1916.0</ele>
        <time>2019-07-07T07:43:53.831Z</time>
      </trkpt>
      <trkpt lat="42.90675833" lon="0.15621333">
        <ele>1916.0</ele>
        <time>2019-07-07T07:43:54.818Z</time>
      </trkpt>
      <trkpt lat="42.90675833" lon="0.15621333">
        <ele>1916.0</ele>
        <time>2019-07-07T07:43:55.816Z</time>
      </trkpt>
      <trkpt lat="42.906745" lon="0.15615333">
        <ele>1917.0</ele>
        <time>2019-07-07T07:43:56.831Z</time>
      </trkpt>
      <trkpt lat="42.906735" lon="0.15612167">
        <ele>1917.0</ele>
        <time>2019-07-07T07:43:57.816Z</time>
      </trkpt>
      <trkpt lat="42.906735" lon="0.15612167">
        <ele>1917.0</ele>
        <time>2019-07-07T07:43:58.810Z</time>
      </trkpt>
      <trkpt lat="42.90672" lon="0.15605667">
        <ele>1918.0</ele>
        <time>2019-07-07T07:43:59.818Z</time>
      </trkpt>
      <trkpt lat="42.90672" lon="0.15605667">
        <ele>1918.0</ele>
        <time>2019-07-07T07:44:00.835Z</time>
      </trkpt>
      <trkpt lat="42.90670833" lon="0.15599167">
        <ele>1918.0</ele>
        <time>2019-07-07T07:44:01.815Z</time>
      </trkpt>
      <trkpt lat="42.90670833" lon="0.15599167">
        <ele>1918.0</ele>
        <time>2019-07-07T07:44:02.807Z</time>
      </trkpt>
      <trkpt lat="42.90670333" lon="0.15593">
        <ele>1919.0</ele>
        <time>2019-07-07T07:44:03.814Z</time>
      </trkpt>
      <trkpt lat="42.90669667" lon="0.15589667">
        <ele>1920.0</ele>
        <time>2019-07-07T07:44:04.839Z</time>
      </trkpt>
      <trkpt lat="42.90669667" lon="0.15589667">
        <ele>1920.0</ele>
        <time>2019-07-07T07:44:05.808Z</time>
      </trkpt>
      <trkpt lat="42.90669333" lon="0.15583167">
        <ele>1920.0</ele>
        <time>2019-07-07T07:44:06.815Z</time>
      </trkpt>
      <trkpt lat="42.90669333" lon="0.15583167">
        <ele>1920.0</ele>
        <time>2019-07-07T07:44:07.840Z</time>
      </trkpt>
      <trkpt lat="42.90668667" lon="0.15577167">
        <ele>1921.0</ele>
        <time>2019-07-07T07:44:08.822Z</time>
      </trkpt>
      <trkpt lat="42.90668" lon="0.15574167">
        <ele>1921.0</ele>
        <time>2019-07-07T07:44:09.807Z</time>
      </trkpt>
      <trkpt lat="42.90668" lon="0.15574167">
        <ele>1921.0</ele>
        <time>2019-07-07T07:44:10.834Z</time>
      </trkpt>
      <trkpt lat="42.90666" lon="0.15568">
        <ele>1921.0</ele>
        <time>2019-07-07T07:44:11.807Z</time>
      </trkpt>
      <trkpt lat="42.90665667" lon="0.15565">
        <ele>1922.0</ele>
        <time>2019-07-07T07:44:12.833Z</time>
      </trkpt>
      <trkpt lat="42.90665667" lon="0.15565">
        <ele>1922.0</ele>
        <time>2019-07-07T07:44:13.803Z</time>
      </trkpt>
      <trkpt lat="42.90665" lon="0.15558333">
        <ele>1922.0</ele>
        <time>2019-07-07T07:44:14.827Z</time>
      </trkpt>
      <trkpt lat="42.90665" lon="0.15558333">
        <ele>1922.0</ele>
        <time>2019-07-07T07:44:15.827Z</time>
      </trkpt>
      <trkpt lat="42.90663833" lon="0.15551667">
        <ele>1923.0</ele>
        <time>2019-07-07T07:44:16.833Z</time>
      </trkpt>
      <trkpt lat="42.90663833" lon="0.15551667">
        <ele>1923.0</ele>
        <time>2019-07-07T07:44:17.818Z</time>
      </trkpt>
      <trkpt lat="42.90662167" lon="0.15545167">
        <ele>1923.0</ele>
        <time>2019-07-07T07:44:18.834Z</time>
      </trkpt>
      <trkpt lat="42.90661333" lon="0.15542">
        <ele>1924.0</ele>
        <time>2019-07-07T07:44:19.819Z</time>
      </trkpt>
      <trkpt lat="42.90661333" lon="0.15542">
        <ele>1924.0</ele>
        <time>2019-07-07T07:44:20.803Z</time>
      </trkpt>
      <trkpt lat="42.90659167" lon="0.15536">
        <ele>1924.0</ele>
        <time>2019-07-07T07:44:21.815Z</time>
      </trkpt>
      <trkpt lat="42.90658333" lon="0.15532833">
        <ele>1924.0</ele>
        <time>2019-07-07T07:44:22.801Z</time>
      </trkpt>
      <trkpt lat="42.90658333" lon="0.15532833">
        <ele>1924.0</ele>
        <time>2019-07-07T07:44:23.818Z</time>
      </trkpt>
      <trkpt lat="42.90657" lon="0.15526167">
        <ele>1925.0</ele>
        <time>2019-07-07T07:44:24.803Z</time>
      </trkpt>
      <trkpt lat="42.906565" lon="0.15523167">
        <ele>1925.0</ele>
        <time>2019-07-07T07:44:25.830Z</time>
      </trkpt>
      <trkpt lat="42.906565" lon="0.15523167">
        <ele>1925.0</ele>
        <time>2019-07-07T07:44:26.809Z</time>
      </trkpt>
      <trkpt lat="42.90655" lon="0.15517167">
        <ele>1926.0</ele>
        <time>2019-07-07T07:44:27.814Z</time>
      </trkpt>
      <trkpt lat="42.90655" lon="0.15517167">
        <ele>1926.0</ele>
        <time>2019-07-07T07:44:28.828Z</time>
      </trkpt>
      <trkpt lat="42.906535" lon="0.15511167">
        <ele>1926.0</ele>
        <time>2019-07-07T07:44:29.837Z</time>
      </trkpt>
      <trkpt lat="42.906535" lon="0.15511167">
        <ele>1926.0</ele>
        <time>2019-07-07T07:44:30.824Z</time>
      </trkpt>
      <trkpt lat="42.90652333" lon="0.15504167">
        <ele>1927.0</ele>
        <time>2019-07-07T07:44:31.839Z</time>
      </trkpt>
      <trkpt lat="42.90652333" lon="0.15504167">
        <ele>1927.0</ele>
        <time>2019-07-07T07:44:32.813Z</time>
      </trkpt>
      <trkpt lat="42.90651667" lon="0.154965">
        <ele>1927.0</ele>
        <time>2019-07-07T07:44:33.819Z</time>
      </trkpt>
      <trkpt lat="42.90651667" lon="0.154965">
        <ele>1927.0</ele>
        <time>2019-07-07T07:44:34.836Z</time>
      </trkpt>
      <trkpt lat="42.90651167" lon="0.15489667">
        <ele>1928.0</ele>
        <time>2019-07-07T07:44:35.821Z</time>
      </trkpt>
      <trkpt lat="42.90651167" lon="0.15489667">
        <ele>1928.0</ele>
        <time>2019-07-07T07:44:36.814Z</time>
      </trkpt>
      <trkpt lat="42.90651" lon="0.15483">
        <ele>1928.0</ele>
        <time>2019-07-07T07:44:37.822Z</time>
      </trkpt>
      <trkpt lat="42.90651" lon="0.15483">
        <ele>1928.0</ele>
        <time>2019-07-07T07:44:38.838Z</time>
      </trkpt>
      <trkpt lat="42.90650667" lon="0.15476167">
        <ele>1928.0</ele>
        <time>2019-07-07T07:44:39.826Z</time>
      </trkpt>
      <trkpt lat="42.90650667" lon="0.15472833">
        <ele>1928.0</ele>
        <time>2019-07-07T07:44:40.833Z</time>
      </trkpt>
      <trkpt lat="42.90650667" lon="0.15472833">
        <ele>1928.0</ele>
        <time>2019-07-07T07:44:41.818Z</time>
      </trkpt>
      <trkpt lat="42.90650833" lon="0.15466333">
        <ele>1928.0</ele>
        <time>2019-07-07T07:44:42.828Z</time>
      </trkpt>
      <trkpt lat="42.90651167" lon="0.15462833">
        <ele>1928.0</ele>
        <time>2019-07-07T07:44:43.839Z</time>
      </trkpt>
      <trkpt lat="42.90651167" lon="0.15462833">
        <ele>1928.0</ele>
        <time>2019-07-07T07:44:44.820Z</time>
      </trkpt>
      <trkpt lat="42.90651333" lon="0.15456">
        <ele>1928.0</ele>
        <time>2019-07-07T07:44:45.835Z</time>
      </trkpt>
      <trkpt lat="42.90651333" lon="0.15452833">
        <ele>1928.0</ele>
        <time>2019-07-07T07:44:46.833Z</time>
      </trkpt>
      <trkpt lat="42.90651333" lon="0.15452833">
        <ele>1928.0</ele>
        <time>2019-07-07T07:44:47.809Z</time>
      </trkpt>
      <trkpt lat="42.90651667" lon="0.15445667">
        <ele>1929.0</ele>
        <time>2019-07-07T07:44:48.819Z</time>
      </trkpt>
      <trkpt lat="42.90652" lon="0.15441833">
        <ele>1929.0</ele>
        <time>2019-07-07T07:44:49.805Z</time>
      </trkpt>
      <trkpt lat="42.90652" lon="0.15438167">
        <ele>1929.0</ele>
        <time>2019-07-07T07:44:50.815Z</time>
      </trkpt>
      <trkpt lat="42.90652" lon="0.15434833">
        <ele>1929.0</ele>
        <time>2019-07-07T07:44:51.807Z</time>
      </trkpt>
      <trkpt lat="42.90652" lon="0.15434833">
        <ele>1929.0</ele>
        <time>2019-07-07T07:44:52.822Z</time>
      </trkpt>
      <trkpt lat="42.90652333" lon="0.15428">
        <ele>1930.0</ele>
        <time>2019-07-07T07:44:53.828Z</time>
      </trkpt>
      <trkpt lat="42.90652333" lon="0.15428">
        <ele>1930.0</ele>
        <time>2019-07-07T07:44:54.804Z</time>
      </trkpt>
      <trkpt lat="42.90652667" lon="0.154215">
        <ele>1930.0</ele>
        <time>2019-07-07T07:44:55.810Z</time>
      </trkpt>
      <trkpt lat="42.90652833" lon="0.15418167">
        <ele>1930.0</ele>
        <time>2019-07-07T07:44:56.835Z</time>
      </trkpt>
      <trkpt lat="42.90652833" lon="0.15418167">
        <ele>1930.0</ele>
        <time>2019-07-07T07:44:57.810Z</time>
      </trkpt>
      <trkpt lat="42.90653833" lon="0.15411667">
        <ele>1931.0</ele>
        <time>2019-07-07T07:44:58.817Z</time>
      </trkpt>
      <trkpt lat="42.90653833" lon="0.15411667">
        <ele>1931.0</ele>
        <time>2019-07-07T07:44:59.838Z</time>
      </trkpt>
      <trkpt lat="42.90655667" lon="0.15404833">
        <ele>1931.0</ele>
        <time>2019-07-07T07:45:00.813Z</time>
      </trkpt>
      <trkpt lat="42.90655667" lon="0.15404833">
        <ele>1931.0</ele>
        <time>2019-07-07T07:45:01.810Z</time>
      </trkpt>
      <trkpt lat="42.906585" lon="0.153995">
        <ele>1931.0</ele>
        <time>2019-07-07T07:45:02.816Z</time>
      </trkpt>
      <trkpt lat="42.906585" lon="0.153995">
        <ele>1931.0</ele>
        <time>2019-07-07T07:45:03.828Z</time>
      </trkpt>
      <trkpt lat="42.90662167" lon="0.15396333">
        <ele>1932.0</ele>
        <time>2019-07-07T07:45:04.835Z</time>
      </trkpt>
      <trkpt lat="42.90662167" lon="0.15396333">
        <ele>1932.0</ele>
        <time>2019-07-07T07:45:05.829Z</time>
      </trkpt>
      <trkpt lat="42.906665" lon="0.153945">
        <ele>1932.0</ele>
        <time>2019-07-07T07:45:06.836Z</time>
      </trkpt>
      <trkpt lat="42.90668833" lon="0.15394333">
        <ele>1933.0</ele>
        <time>2019-07-07T07:45:07.812Z</time>
      </trkpt>
      <trkpt lat="42.90668833" lon="0.15394333">
        <ele>1933.0</ele>
        <time>2019-07-07T07:45:08.829Z</time>
      </trkpt>
      <trkpt lat="42.90672667" lon="0.15396667">
        <ele>1933.0</ele>
        <time>2019-07-07T07:45:09.840Z</time>
      </trkpt>
      <trkpt lat="42.90674" lon="0.15399">
        <ele>1933.0</ele>
        <time>2019-07-07T07:45:10.825Z</time>
      </trkpt>
      <trkpt lat="42.90674" lon="0.15399">
        <ele>1933.0</ele>
        <time>2019-07-07T07:45:11.834Z</time>
      </trkpt>
      <trkpt lat="42.90675833" lon="0.15404">
        <ele>1934.0</ele>
        <time>2019-07-07T07:45:12.841Z</time>
      </trkpt>
      <trkpt lat="42.90675833" lon="0.15404">
        <ele>1934.0</ele>
        <time>2019-07-07T07:45:13.828Z</time>
      </trkpt>
      <trkpt lat="42.90676333" lon="0.15410167">
        <ele>1935.0</ele>
        <time>2019-07-07T07:45:14.814Z</time>
      </trkpt>
      <trkpt lat="42.90676333" lon="0.15410167">
        <ele>1935.0</ele>
        <time>2019-07-07T07:45:15.807Z</time>
      </trkpt>
      <trkpt lat="42.906765" lon="0.154165">
        <ele>1936.0</ele>
        <time>2019-07-07T07:45:16.813Z</time>
      </trkpt>
      <trkpt lat="42.906765" lon="0.154165">
        <ele>1936.0</ele>
        <time>2019-07-07T07:45:17.833Z</time>
      </trkpt>
      <trkpt lat="42.90675667" lon="0.15423333">
        <ele>1936.0</ele>
        <time>2019-07-07T07:45:18.814Z</time>
      </trkpt>
      <trkpt lat="42.90675667" lon="0.15423333">
        <ele>1936.0</ele>
        <time>2019-07-07T07:45:19.801Z</time>
      </trkpt>
      <trkpt lat="42.906755" lon="0.154305">
        <ele>1937.0</ele>
        <time>2019-07-07T07:45:20.807Z</time>
      </trkpt>
      <trkpt lat="42.906755" lon="0.154305">
        <ele>1937.0</ele>
        <time>2019-07-07T07:45:21.836Z</time>
      </trkpt>
      <trkpt lat="42.90675" lon="0.15437833">
        <ele>1938.0</ele>
        <time>2019-07-07T07:45:22.810Z</time>
      </trkpt>
      <trkpt lat="42.90675" lon="0.15437833">
        <ele>1938.0</ele>
        <time>2019-07-07T07:45:23.812Z</time>
      </trkpt>
      <trkpt lat="42.90674333" lon="0.15444833">
        <ele>1938.0</ele>
        <time>2019-07-07T07:45:24.818Z</time>
      </trkpt>
      <trkpt lat="42.90673833" lon="0.154485">
        <ele>1938.0</ele>
        <time>2019-07-07T07:45:25.801Z</time>
      </trkpt>
      <trkpt lat="42.90673833" lon="0.154485">
        <ele>1938.0</ele>
        <time>2019-07-07T07:45:26.833Z</time>
      </trkpt>
      <trkpt lat="42.90673333" lon="0.15455667">
        <ele>1939.0</ele>
        <time>2019-07-07T07:45:27.840Z</time>
      </trkpt>
      <trkpt lat="42.90673333" lon="0.15455667">
        <ele>1939.0</ele>
        <time>2019-07-07T07:45:28.825Z</time>
      </trkpt>
      <trkpt lat="42.906735" lon="0.15463">
        <ele>1939.0</ele>
        <time>2019-07-07T07:45:29.816Z</time>
      </trkpt>
      <trkpt lat="42.906735" lon="0.15463">
        <ele>1939.0</ele>
        <time>2019-07-07T07:45:30.830Z</time>
      </trkpt>
      <trkpt lat="42.90674333" lon="0.1547">
        <ele>1939.0</ele>
        <time>2019-07-07T07:45:31.802Z</time>
      </trkpt>
      <trkpt lat="42.90675167" lon="0.15473333">
        <ele>1939.0</ele>
        <time>2019-07-07T07:45:32.830Z</time>
      </trkpt>
      <trkpt lat="42.90675167" lon="0.15473333">
        <ele>1939.0</ele>
        <time>2019-07-07T07:45:33.806Z</time>
      </trkpt>
      <trkpt lat="42.90677167" lon="0.15479833">
        <ele>1939.0</ele>
        <time>2019-07-07T07:45:34.819Z</time>
      </trkpt>
      <trkpt lat="42.90677167" lon="0.15479833">
        <ele>1939.0</ele>
        <time>2019-07-07T07:45:35.802Z</time>
      </trkpt>
      <trkpt lat="42.9068" lon="0.15485667">
        <ele>1940.0</ele>
        <time>2019-07-07T07:45:36.810Z</time>
      </trkpt>
      <trkpt lat="42.906815" lon="0.15488667">
        <ele>1940.0</ele>
        <time>2019-07-07T07:45:37.829Z</time>
      </trkpt>
      <trkpt lat="42.906815" lon="0.15488667">
        <ele>1940.0</ele>
        <time>2019-07-07T07:45:38.813Z</time>
      </trkpt>
      <trkpt lat="42.90684667" lon="0.15494167">
        <ele>1940.0</ele>
        <time>2019-07-07T07:45:39.819Z</time>
      </trkpt>
      <trkpt lat="42.906865" lon="0.15496833">
        <ele>1941.0</ele>
        <time>2019-07-07T07:45:40.825Z</time>
      </trkpt>
      <trkpt lat="42.90688333" lon="0.15499">
        <ele>1941.0</ele>
        <time>2019-07-07T07:45:41.807Z</time>
      </trkpt>
      <trkpt lat="42.90688333" lon="0.15499">
        <ele>1941.0</ele>
        <time>2019-07-07T07:45:42.831Z</time>
      </trkpt>
      <trkpt lat="42.90692167" lon="0.15503833">
        <ele>1941.0</ele>
        <time>2019-07-07T07:45:43.837Z</time>
      </trkpt>
      <trkpt lat="42.90694" lon="0.15506167">
        <ele>1941.0</ele>
        <time>2019-07-07T07:45:44.835Z</time>
      </trkpt>
      <trkpt lat="42.90694" lon="0.15506167">
        <ele>1941.0</ele>
        <time>2019-07-07T07:45:45.822Z</time>
      </trkpt>
      <trkpt lat="42.90697833" lon="0.15510833">
        <ele>1942.0</ele>
        <time>2019-07-07T07:45:46.830Z</time>
      </trkpt>
      <trkpt lat="42.90697833" lon="0.15510833">
        <ele>1942.0</ele>
        <time>2019-07-07T07:45:47.807Z</time>
      </trkpt>
      <trkpt lat="42.90701833" lon="0.15515">
        <ele>1943.0</ele>
        <time>2019-07-07T07:45:48.802Z</time>
      </trkpt>
      <trkpt lat="42.90703833" lon="0.15517167">
        <ele>1943.0</ele>
        <time>2019-07-07T07:45:49.836Z</time>
      </trkpt>
      <trkpt lat="42.90703833" lon="0.15517167">
        <ele>1943.0</ele>
        <time>2019-07-07T07:45:50.833Z</time>
      </trkpt>
      <trkpt lat="42.90707667" lon="0.15521833">
        <ele>1944.0</ele>
        <time>2019-07-07T07:45:51.806Z</time>
      </trkpt>
      <trkpt lat="42.907095" lon="0.15524">
        <ele>1944.0</ele>
        <time>2019-07-07T07:45:52.829Z</time>
      </trkpt>
      <trkpt lat="42.907095" lon="0.15524">
        <ele>1944.0</ele>
        <time>2019-07-07T07:45:53.806Z</time>
      </trkpt>
      <trkpt lat="42.90713" lon="0.15529">
        <ele>1945.0</ele>
        <time>2019-07-07T07:45:54.812Z</time>
      </trkpt>
      <trkpt lat="42.90714833" lon="0.15531667">
        <ele>1946.0</ele>
        <time>2019-07-07T07:45:55.838Z</time>
      </trkpt>
      <trkpt lat="42.90714833" lon="0.15531667">
        <ele>1946.0</ele>
        <time>2019-07-07T07:45:56.806Z</time>
      </trkpt>
      <trkpt lat="42.90718167" lon="0.15536833">
        <ele>1946.0</ele>
        <time>2019-07-07T07:45:57.812Z</time>
      </trkpt>
      <trkpt lat="42.90719833" lon="0.15539333">
        <ele>1947.0</ele>
        <time>2019-07-07T07:45:58.818Z</time>
      </trkpt>
      <trkpt lat="42.90719833" lon="0.15539333">
        <ele>1947.0</ele>
        <time>2019-07-07T07:45:59.835Z</time>
      </trkpt>
      <trkpt lat="42.90722667" lon="0.155445">
        <ele>1947.0</ele>
        <time>2019-07-07T07:46:00.802Z</time>
      </trkpt>
      <trkpt lat="42.90724333" lon="0.15547167">
        <ele>1948.0</ele>
        <time>2019-07-07T07:46:01.811Z</time>
      </trkpt>
      <trkpt lat="42.90724333" lon="0.15547167">
        <ele>1948.0</ele>
        <time>2019-07-07T07:46:02.832Z</time>
      </trkpt>
      <trkpt lat="42.90727333" lon="0.15552333">
        <ele>1949.0</ele>
        <time>2019-07-07T07:46:03.838Z</time>
      </trkpt>
      <trkpt lat="42.90727333" lon="0.15552333">
        <ele>1949.0</ele>
        <time>2019-07-07T07:46:04.837Z</time>
      </trkpt>
      <trkpt lat="42.90730667" lon="0.15557">
        <ele>1950.0</ele>
        <time>2019-07-07T07:46:05.821Z</time>
      </trkpt>
      <trkpt lat="42.90730667" lon="0.15557">
        <ele>1950.0</ele>
        <time>2019-07-07T07:46:06.836Z</time>
      </trkpt>
      <trkpt lat="42.90735167" lon="0.155605">
        <ele>1951.0</ele>
        <time>2019-07-07T07:46:07.803Z</time>
      </trkpt>
      <trkpt lat="42.907375" lon="0.15562">
        <ele>1951.0</ele>
        <time>2019-07-07T07:46:08.815Z</time>
      </trkpt>
      <trkpt lat="42.907375" lon="0.15562">
        <ele>1951.0</ele>
        <time>2019-07-07T07:46:09.832Z</time>
      </trkpt>
      <trkpt lat="42.90742333" lon="0.155635">
        <ele>1952.0</ele>
        <time>2019-07-07T07:46:10.841Z</time>
      </trkpt>
      <trkpt lat="42.90742333" lon="0.155635">
        <ele>1952.0</ele>
        <time>2019-07-07T07:46:11.824Z</time>
      </trkpt>
      <trkpt lat="42.907475" lon="0.15564333">
        <ele>1952.0</ele>
        <time>2019-07-07T07:46:12.816Z</time>
      </trkpt>
      <trkpt lat="42.907475" lon="0.15564333">
        <ele>1952.0</ele>
        <time>2019-07-07T07:46:13.835Z</time>
      </trkpt>
      <trkpt lat="42.90752667" lon="0.15565667">
        <ele>1953.0</ele>
        <time>2019-07-07T07:46:14.802Z</time>
      </trkpt>
      <trkpt lat="42.90755333" lon="0.15566833">
        <ele>1953.0</ele>
        <time>2019-07-07T07:46:15.827Z</time>
      </trkpt>
      <trkpt lat="42.90757833" lon="0.15568333">
        <ele>1953.0</ele>
        <time>2019-07-07T07:46:16.824Z</time>
      </trkpt>
      <trkpt lat="42.90757833" lon="0.15568333">
        <ele>1953.0</ele>
        <time>2019-07-07T07:46:17.817Z</time>
      </trkpt>
      <trkpt lat="42.90762667" lon="0.15571333">
        <ele>1954.0</ele>
        <time>2019-07-07T07:46:18.836Z</time>
      </trkpt>
      <trkpt lat="42.90762667" lon="0.15571333">
        <ele>1954.0</ele>
        <time>2019-07-07T07:46:19.820Z</time>
      </trkpt>
      <trkpt lat="42.90766833" lon="0.15575333">
        <ele>1955.0</ele>
        <time>2019-07-07T07:46:20.833Z</time>
      </trkpt>
      <trkpt lat="42.90766833" lon="0.15575333">
        <ele>1955.0</ele>
        <time>2019-07-07T07:46:21.804Z</time>
      </trkpt>
      <trkpt lat="42.90771167" lon="0.155795">
        <ele>1955.0</ele>
        <time>2019-07-07T07:46:22.809Z</time>
      </trkpt>
      <trkpt lat="42.90771167" lon="0.155795">
        <ele>1955.0</ele>
        <time>2019-07-07T07:46:23.835Z</time>
      </trkpt>
      <trkpt lat="42.90775" lon="0.15583833">
        <ele>1956.0</ele>
        <time>2019-07-07T07:46:24.813Z</time>
      </trkpt>
      <trkpt lat="42.90776833" lon="0.15586167">
        <ele>1956.0</ele>
        <time>2019-07-07T07:46:25.824Z</time>
      </trkpt>
      <trkpt lat="42.90776833" lon="0.15586167">
        <ele>1956.0</ele>
        <time>2019-07-07T07:46:26.811Z</time>
      </trkpt>
      <trkpt lat="42.90780667" lon="0.15591">
        <ele>1956.0</ele>
        <time>2019-07-07T07:46:27.817Z</time>
      </trkpt>
      <trkpt lat="42.90782667" lon="0.155935">
        <ele>1956.0</ele>
        <time>2019-07-07T07:46:28.837Z</time>
      </trkpt>
      <trkpt lat="42.90782667" lon="0.155935">
        <ele>1956.0</ele>
        <time>2019-07-07T07:46:29.822Z</time>
      </trkpt>
      <trkpt lat="42.907865" lon="0.15598333">
        <ele>1957.0</ele>
        <time>2019-07-07T07:46:30.828Z</time>
      </trkpt>
      <trkpt lat="42.90788167" lon="0.15601">
        <ele>1957.0</ele>
        <time>2019-07-07T07:46:31.801Z</time>
      </trkpt>
      <trkpt lat="42.90788167" lon="0.15601">
        <ele>1957.0</ele>
        <time>2019-07-07T07:46:32.832Z</time>
      </trkpt>
      <trkpt lat="42.907915" lon="0.15605833">
        <ele>1957.0</ele>
        <time>2019-07-07T07:46:33.838Z</time>
      </trkpt>
      <trkpt lat="42.90793" lon="0.156085">
        <ele>1957.0</ele>
        <time>2019-07-07T07:46:34.809Z</time>
      </trkpt>
      <trkpt lat="42.90793" lon="0.156085">
        <ele>1957.0</ele>
        <time>2019-07-07T07:46:35.819Z</time>
      </trkpt>
      <trkpt lat="42.90796167" lon="0.15613667">
        <ele>1958.0</ele>
        <time>2019-07-07T07:46:36.837Z</time>
      </trkpt>
      <trkpt lat="42.90797667" lon="0.15616333">
        <ele>1958.0</ele>
        <time>2019-07-07T07:46:37.808Z</time>
      </trkpt>
      <trkpt lat="42.90797667" lon="0.15616333">
        <ele>1958.0</ele>
        <time>2019-07-07T07:46:38.834Z</time>
      </trkpt>
      <trkpt lat="42.90800833" lon="0.15621">
        <ele>1958.0</ele>
        <time>2019-07-07T07:46:39.828Z</time>
      </trkpt>
      <trkpt lat="42.908025" lon="0.15623333">
        <ele>1958.0</ele>
        <time>2019-07-07T07:46:40.818Z</time>
      </trkpt>
      <trkpt lat="42.90804333" lon="0.15625667">
        <ele>1958.0</ele>
        <time>2019-07-07T07:46:41.805Z</time>
      </trkpt>
      <trkpt lat="42.90804333" lon="0.15625667">
        <ele>1958.0</ele>
        <time>2019-07-07T07:46:42.831Z</time>
      </trkpt>
      <trkpt lat="42.90808167" lon="0.15629167">
        <ele>1959.0</ele>
        <time>2019-07-07T07:46:43.838Z</time>
      </trkpt>
      <trkpt lat="42.90808167" lon="0.15629167">
        <ele>1959.0</ele>
        <time>2019-07-07T07:46:44.824Z</time>
      </trkpt>
      <trkpt lat="42.90813167" lon="0.15629333">
        <ele>1962.0</ele>
        <time>2019-07-07T07:46:45.801Z</time>
      </trkpt>
      <trkpt lat="42.90813167" lon="0.15629333">
        <ele>1962.0</ele>
        <time>2019-07-07T07:46:46.810Z</time>
      </trkpt>
      <trkpt lat="42.90817833" lon="0.15629">
        <ele>1963.0</ele>
        <time>2019-07-07T07:46:47.831Z</time>
      </trkpt>
      <trkpt lat="42.90817833" lon="0.15629">
        <ele>1963.0</ele>
        <time>2019-07-07T07:46:48.838Z</time>
      </trkpt>
      <trkpt lat="42.90822333" lon="0.15626667">
        <ele>1963.0</ele>
        <time>2019-07-07T07:46:49.805Z</time>
      </trkpt>
      <trkpt lat="42.90824667" lon="0.156255">
        <ele>1963.0</ele>
        <time>2019-07-07T07:46:50.827Z</time>
      </trkpt>
      <trkpt lat="42.90827" lon="0.15624333">
        <ele>1963.0</ele>
        <time>2019-07-07T07:46:51.810Z</time>
      </trkpt>
      <trkpt lat="42.90827" lon="0.15624333">
        <ele>1963.0</ele>
        <time>2019-07-07T07:46:52.835Z</time>
      </trkpt>
      <trkpt lat="42.90832" lon="0.15622667">
        <ele>1963.0</ele>
        <time>2019-07-07T07:46:53.807Z</time>
      </trkpt>
      <trkpt lat="42.90832" lon="0.15622667">
        <ele>1963.0</ele>
        <time>2019-07-07T07:46:54.811Z</time>
      </trkpt>
      <trkpt lat="42.90837" lon="0.15623167">
        <ele>1963.0</ele>
        <time>2019-07-07T07:46:55.817Z</time>
      </trkpt>
      <trkpt lat="42.90837" lon="0.15623167">
        <ele>1963.0</ele>
        <time>2019-07-07T07:46:56.840Z</time>
      </trkpt>
      <trkpt lat="42.90842" lon="0.15625333">
        <ele>1964.0</ele>
        <time>2019-07-07T07:46:57.811Z</time>
      </trkpt>
      <trkpt lat="42.908445" lon="0.15626667">
        <ele>1964.0</ele>
        <time>2019-07-07T07:46:58.815Z</time>
      </trkpt>
      <trkpt lat="42.908445" lon="0.15626667">
        <ele>1964.0</ele>
        <time>2019-07-07T07:46:59.835Z</time>
      </trkpt>
      <trkpt lat="42.90849" lon="0.15629333">
        <ele>1965.0</ele>
        <time>2019-07-07T07:47:00.834Z</time>
      </trkpt>
      <trkpt lat="42.90851167" lon="0.15630833">
        <ele>1965.0</ele>
        <time>2019-07-07T07:47:01.831Z</time>
      </trkpt>
      <trkpt lat="42.90851167" lon="0.15630833">
        <ele>1965.0</ele>
        <time>2019-07-07T07:47:02.837Z</time>
      </trkpt>
      <trkpt lat="42.90855667" lon="0.15633667">
        <ele>1966.0</ele>
        <time>2019-07-07T07:47:03.803Z</time>
      </trkpt>
      <trkpt lat="42.90858" lon="0.15635167">
        <ele>1966.0</ele>
        <time>2019-07-07T07:47:04.815Z</time>
      </trkpt>
      <trkpt lat="42.90858" lon="0.15635167">
        <ele>1966.0</ele>
        <time>2019-07-07T07:47:05.840Z</time>
      </trkpt>
      <trkpt lat="42.90862833" lon="0.15638">
        <ele>1966.0</ele>
        <time>2019-07-07T07:47:06.806Z</time>
      </trkpt>
      <trkpt lat="42.90865167" lon="0.15639167">
        <ele>1967.0</ele>
        <time>2019-07-07T07:47:07.832Z</time>
      </trkpt>
      <trkpt lat="42.90865167" lon="0.15639167">
        <ele>1967.0</ele>
        <time>2019-07-07T07:47:08.816Z</time>
      </trkpt>
      <trkpt lat="42.90870167" lon="0.15640667">
        <ele>1967.0</ele>
        <time>2019-07-07T07:47:09.829Z</time>
      </trkpt>
      <trkpt lat="42.90872667" lon="0.15641333">
        <ele>1967.0</ele>
        <time>2019-07-07T07:47:10.818Z</time>
      </trkpt>
      <trkpt lat="42.90872667" lon="0.15641333">
        <ele>1967.0</ele>
        <time>2019-07-07T07:47:11.805Z</time>
      </trkpt>
      <trkpt lat="42.908775" lon="0.15642833">
        <ele>1968.0</ele>
        <time>2019-07-07T07:47:12.816Z</time>
      </trkpt>
      <trkpt lat="42.908775" lon="0.15642833">
        <ele>1968.0</ele>
        <time>2019-07-07T07:47:13.816Z</time>
      </trkpt>
      <trkpt lat="42.908825" lon="0.15644">
        <ele>1968.0</ele>
        <time>2019-07-07T07:47:14.823Z</time>
      </trkpt>
      <trkpt lat="42.90884833" lon="0.15644667">
        <ele>1968.0</ele>
        <time>2019-07-07T07:47:15.806Z</time>
      </trkpt>
      <trkpt lat="42.90887333" lon="0.15645167">
        <ele>1968.0</ele>
        <time>2019-07-07T07:47:16.822Z</time>
      </trkpt>
      <trkpt lat="42.90887333" lon="0.15645167">
        <ele>1968.0</ele>
        <time>2019-07-07T07:47:17.835Z</time>
      </trkpt>
      <trkpt lat="42.90892333" lon="0.15645833">
        <ele>1969.0</ele>
        <time>2019-07-07T07:47:18.809Z</time>
      </trkpt>
      <trkpt lat="42.90892333" lon="0.15645833">
        <ele>1969.0</ele>
        <time>2019-07-07T07:47:19.831Z</time>
      </trkpt>
      <trkpt lat="42.90897167" lon="0.15644333">
        <ele>1969.0</ele>
        <time>2019-07-07T07:47:20.837Z</time>
      </trkpt>
      <trkpt lat="42.90897167" lon="0.15644333">
        <ele>1969.0</ele>
        <time>2019-07-07T07:47:21.807Z</time>
      </trkpt>
      <trkpt lat="42.90901833" lon="0.156415">
        <ele>1970.0</ele>
        <time>2019-07-07T07:47:22.826Z</time>
      </trkpt>
      <trkpt lat="42.90901833" lon="0.156415">
        <ele>1970.0</ele>
        <time>2019-07-07T07:47:23.838Z</time>
      </trkpt>
      <trkpt lat="42.909065" lon="0.15637833">
        <ele>1970.0</ele>
        <time>2019-07-07T07:47:24.808Z</time>
      </trkpt>
      <trkpt lat="42.909085" lon="0.15635833">
        <ele>1971.0</ele>
        <time>2019-07-07T07:47:25.822Z</time>
      </trkpt>
      <trkpt lat="42.909085" lon="0.15635833">
        <ele>1971.0</ele>
        <time>2019-07-07T07:47:26.822Z</time>
      </trkpt>
      <trkpt lat="42.90912667" lon="0.15632">
        <ele>1971.0</ele>
        <time>2019-07-07T07:47:27.830Z</time>
      </trkpt>
      <trkpt lat="42.90914833" lon="0.15630167">
        <ele>1971.0</ele>
        <time>2019-07-07T07:47:28.807Z</time>
      </trkpt>
      <trkpt lat="42.90914833" lon="0.15630167">
        <ele>1971.0</ele>
        <time>2019-07-07T07:47:29.820Z</time>
      </trkpt>
      <trkpt lat="42.90918833" lon="0.15626667">
        <ele>1971.0</ele>
        <time>2019-07-07T07:47:30.828Z</time>
      </trkpt>
      <trkpt lat="42.90918833" lon="0.15626667">
        <ele>1971.0</ele>
        <time>2019-07-07T07:47:31.801Z</time>
      </trkpt>
      <trkpt lat="42.90922833" lon="0.15623">
        <ele>1972.0</ele>
        <time>2019-07-07T07:47:32.806Z</time>
      </trkpt>
      <trkpt lat="42.90924" lon="0.15621667">
        <ele>1972.0</ele>
        <time>2019-07-07T07:47:33.801Z</time>
      </trkpt>
      <trkpt lat="42.90924" lon="0.15621667">
        <ele>1972.0</ele>
        <time>2019-07-07T07:47:34.830Z</time>
      </trkpt>
      <trkpt lat="42.90927667" lon="0.15618833">
        <ele>1972.0</ele>
        <time>2019-07-07T07:47:35.826Z</time>
      </trkpt>
      <trkpt lat="42.90927667" lon="0.15618833">
        <ele>1972.0</ele>
        <time>2019-07-07T07:47:36.820Z</time>
      </trkpt>
      <trkpt lat="42.90931333" lon="0.15615167">
        <ele>1972.0</ele>
        <time>2019-07-07T07:47:37.834Z</time>
      </trkpt>
      <trkpt lat="42.90933333" lon="0.15613667">
        <ele>1973.0</ele>
        <time>2019-07-07T07:47:38.817Z</time>
      </trkpt>
      <trkpt lat="42.90935333" lon="0.15612167">
        <ele>1973.0</ele>
        <time>2019-07-07T07:47:39.839Z</time>
      </trkpt>
      <trkpt lat="42.90935333" lon="0.15612167">
        <ele>1973.0</ele>
        <time>2019-07-07T07:47:40.828Z</time>
      </trkpt>
      <trkpt lat="42.90939833" lon="0.15609167">
        <ele>1974.0</ele>
        <time>2019-07-07T07:47:41.839Z</time>
      </trkpt>
      <trkpt lat="42.90942167" lon="0.156075">
        <ele>1974.0</ele>
        <time>2019-07-07T07:47:42.810Z</time>
      </trkpt>
      <trkpt lat="42.90942167" lon="0.156075">
        <ele>1974.0</ele>
        <time>2019-07-07T07:47:43.836Z</time>
      </trkpt>
      <trkpt lat="42.90947167" lon="0.15605">
        <ele>1975.0</ele>
        <time>2019-07-07T07:47:44.827Z</time>
      </trkpt>
      <trkpt lat="42.90947167" lon="0.15605">
        <ele>1975.0</ele>
        <time>2019-07-07T07:47:45.817Z</time>
      </trkpt>
      <trkpt lat="42.90952333" lon="0.15602667">
        <ele>1976.0</ele>
        <time>2019-07-07T07:47:46.824Z</time>
      </trkpt>
      <trkpt lat="42.90952333" lon="0.15602667">
        <ele>1976.0</ele>
        <time>2019-07-07T07:47:47.807Z</time>
      </trkpt>
      <trkpt lat="42.90958" lon="0.15601167">
        <ele>1977.0</ele>
        <time>2019-07-07T07:47:48.817Z</time>
      </trkpt>
      <trkpt lat="42.90958" lon="0.15601167">
        <ele>1977.0</ele>
        <time>2019-07-07T07:47:49.833Z</time>
      </trkpt>
      <trkpt lat="42.90963667" lon="0.15601667">
        <ele>1978.0</ele>
        <time>2019-07-07T07:47:50.801Z</time>
      </trkpt>
      <trkpt lat="42.909665" lon="0.15602833">
        <ele>1978.0</ele>
        <time>2019-07-07T07:47:51.837Z</time>
      </trkpt>
      <trkpt lat="42.909665" lon="0.15602833">
        <ele>1978.0</ele>
        <time>2019-07-07T07:47:52.809Z</time>
      </trkpt>
      <trkpt lat="42.90971333" lon="0.15605833">
        <ele>1979.0</ele>
        <time>2019-07-07T07:47:53.817Z</time>
      </trkpt>
      <trkpt lat="42.909735" lon="0.15607667">
        <ele>1979.0</ele>
        <time>2019-07-07T07:47:54.825Z</time>
      </trkpt>
      <trkpt lat="42.909735" lon="0.15607667">
        <ele>1979.0</ele>
        <time>2019-07-07T07:47:55.807Z</time>
      </trkpt>
      <trkpt lat="42.909775" lon="0.15611833">
        <ele>1979.0</ele>
        <time>2019-07-07T07:47:56.813Z</time>
      </trkpt>
      <trkpt lat="42.909775" lon="0.15611833">
        <ele>1979.0</ele>
        <time>2019-07-07T07:47:57.802Z</time>
      </trkpt>
      <trkpt lat="42.909815" lon="0.15616667">
        <ele>1980.0</ele>
        <time>2019-07-07T07:47:58.813Z</time>
      </trkpt>
      <trkpt lat="42.909815" lon="0.15616667">
        <ele>1980.0</ele>
        <time>2019-07-07T07:47:59.832Z</time>
      </trkpt>
      <trkpt lat="42.90985833" lon="0.156215">
        <ele>1980.0</ele>
        <time>2019-07-07T07:48:00.840Z</time>
      </trkpt>
      <trkpt lat="42.90988333" lon="0.156235">
        <ele>1981.0</ele>
        <time>2019-07-07T07:48:01.835Z</time>
      </trkpt>
      <trkpt lat="42.90988333" lon="0.156235">
        <ele>1981.0</ele>
        <time>2019-07-07T07:48:02.816Z</time>
      </trkpt>
      <trkpt lat="42.90993333" lon="0.15626833">
        <ele>1981.0</ele>
        <time>2019-07-07T07:48:03.822Z</time>
      </trkpt>
      <trkpt lat="42.90995833" lon="0.15628167">
        <ele>1981.0</ele>
        <time>2019-07-07T07:48:04.810Z</time>
      </trkpt>
      <trkpt lat="42.90995833" lon="0.15628167">
        <ele>1981.0</ele>
        <time>2019-07-07T07:48:05.832Z</time>
      </trkpt>
      <trkpt lat="42.91001333" lon="0.15629">
        <ele>1982.0</ele>
        <time>2019-07-07T07:48:06.801Z</time>
      </trkpt>
      <trkpt lat="42.91003833" lon="0.156285">
        <ele>1982.0</ele>
        <time>2019-07-07T07:48:07.822Z</time>
      </trkpt>
      <trkpt lat="42.910065" lon="0.15627667">
        <ele>1983.0</ele>
        <time>2019-07-07T07:48:08.839Z</time>
      </trkpt>
      <trkpt lat="42.910065" lon="0.15627667">
        <ele>1983.0</ele>
        <time>2019-07-07T07:48:09.820Z</time>
      </trkpt>
      <trkpt lat="42.91011167" lon="0.15624667">
        <ele>1983.0</ele>
        <time>2019-07-07T07:48:10.803Z</time>
      </trkpt>
      <trkpt lat="42.910135" lon="0.156225">
        <ele>1983.0</ele>
        <time>2019-07-07T07:48:11.834Z</time>
      </trkpt>
      <trkpt lat="42.910135" lon="0.156225">
        <ele>1983.0</ele>
        <time>2019-07-07T07:48:12.812Z</time>
      </trkpt>
      <trkpt lat="42.91017" lon="0.15617833">
        <ele>1984.0</ele>
        <time>2019-07-07T07:48:13.807Z</time>
      </trkpt>
      <trkpt lat="42.910185" lon="0.15614667">
        <ele>1984.0</ele>
        <time>2019-07-07T07:48:14.819Z</time>
      </trkpt>
      <trkpt lat="42.910185" lon="0.15614667">
        <ele>1984.0</ele>
        <time>2019-07-07T07:48:15.803Z</time>
      </trkpt>
      <trkpt lat="42.91020667" lon="0.15608">
        <ele>1984.0</ele>
        <time>2019-07-07T07:48:16.826Z</time>
      </trkpt>
      <trkpt lat="42.91020667" lon="0.15608">
        <ele>1984.0</ele>
        <time>2019-07-07T07:48:17.802Z</time>
      </trkpt>
      <trkpt lat="42.910215" lon="0.15600333">
        <ele>1984.0</ele>
        <time>2019-07-07T07:48:18.816Z</time>
      </trkpt>
      <trkpt lat="42.910215" lon="0.15600333">
        <ele>1984.0</ele>
        <time>2019-07-07T07:48:19.838Z</time>
      </trkpt>
      <trkpt lat="42.91020333" lon="0.15593">
        <ele>1985.0</ele>
        <time>2019-07-07T07:48:20.818Z</time>
      </trkpt>
      <trkpt lat="42.91020333" lon="0.15593">
        <ele>1985.0</ele>
        <time>2019-07-07T07:48:21.823Z</time>
      </trkpt>
      <trkpt lat="42.91017667" lon="0.155865">
        <ele>1985.0</ele>
        <time>2019-07-07T07:48:22.836Z</time>
      </trkpt>
      <trkpt lat="42.91016167" lon="0.15583333">
        <ele>1985.0</ele>
        <time>2019-07-07T07:48:23.809Z</time>
      </trkpt>
      <trkpt lat="42.91016167" lon="0.15583333">
        <ele>1985.0</ele>
        <time>2019-07-07T07:48:24.816Z</time>
      </trkpt>
      <trkpt lat="42.91012833" lon="0.15577333">
        <ele>1986.0</ele>
        <time>2019-07-07T07:48:25.822Z</time>
      </trkpt>
      <trkpt lat="42.91011" lon="0.15574333">
        <ele>1986.0</ele>
        <time>2019-07-07T07:48:26.806Z</time>
      </trkpt>
      <trkpt lat="42.91009167" lon="0.15571167">
        <ele>1986.0</ele>
        <time>2019-07-07T07:48:27.818Z</time>
      </trkpt>
      <trkpt lat="42.91007167" lon="0.15568333">
        <ele>1986.0</ele>
        <time>2019-07-07T07:48:28.809Z</time>
      </trkpt>
      <trkpt lat="42.91007167" lon="0.15568333">
        <ele>1986.0</ele>
        <time>2019-07-07T07:48:29.838Z</time>
      </trkpt>
      <trkpt lat="42.91003167" lon="0.15563">
        <ele>1986.0</ele>
        <time>2019-07-07T07:48:30.808Z</time>
      </trkpt>
      <trkpt lat="42.91001167" lon="0.155605">
        <ele>1987.0</ele>
        <time>2019-07-07T07:48:31.830Z</time>
      </trkpt>
      <trkpt lat="42.91001167" lon="0.155605">
        <ele>1987.0</ele>
        <time>2019-07-07T07:48:32.803Z</time>
      </trkpt>
      <trkpt lat="42.90997" lon="0.15556">
        <ele>1987.0</ele>
        <time>2019-07-07T07:48:33.809Z</time>
      </trkpt>
      <trkpt lat="42.90994833" lon="0.15554167">
        <ele>1987.0</ele>
        <time>2019-07-07T07:48:34.836Z</time>
      </trkpt>
      <trkpt lat="42.909925" lon="0.15552333">
        <ele>1987.0</ele>
        <time>2019-07-07T07:48:35.820Z</time>
      </trkpt>
      <trkpt lat="42.909925" lon="0.15552333">
        <ele>1987.0</ele>
        <time>2019-07-07T07:48:36.806Z</time>
      </trkpt>
      <trkpt lat="42.90987833" lon="0.15548833">
        <ele>1988.0</ele>
        <time>2019-07-07T07:48:37.812Z</time>
      </trkpt>
      <trkpt lat="42.909855" lon="0.15547333">
        <ele>1988.0</ele>
        <time>2019-07-07T07:48:38.808Z</time>
      </trkpt>
      <trkpt lat="42.90983167" lon="0.15546">
        <ele>1988.0</ele>
        <time>2019-07-07T07:48:39.837Z</time>
      </trkpt>
      <trkpt lat="42.90983167" lon="0.15546">
        <ele>1988.0</ele>
        <time>2019-07-07T07:48:40.807Z</time>
      </trkpt>
      <trkpt lat="42.90978333" lon="0.15543333">
        <ele>1988.0</ele>
        <time>2019-07-07T07:48:41.818Z</time>
      </trkpt>
      <trkpt lat="42.90978333" lon="0.15543333">
        <ele>1988.0</ele>
        <time>2019-07-07T07:48:42.803Z</time>
      </trkpt>
      <trkpt lat="42.90973833" lon="0.15540667">
        <ele>1988.0</ele>
        <time>2019-07-07T07:48:43.809Z</time>
      </trkpt>
      <trkpt lat="42.90971667" lon="0.15539">
        <ele>1989.0</ele>
        <time>2019-07-07T07:48:44.827Z</time>
      </trkpt>
      <trkpt lat="42.90971667" lon="0.15539">
        <ele>1989.0</ele>
        <time>2019-07-07T07:48:45.837Z</time>
      </trkpt>
      <trkpt lat="42.90967333" lon="0.15535333">
        <ele>1989.0</ele>
        <time>2019-07-07T07:48:46.804Z</time>
      </trkpt>
      <trkpt lat="42.90967333" lon="0.15535333">
        <ele>1989.0</ele>
        <time>2019-07-07T07:48:47.834Z</time>
      </trkpt>
      <trkpt lat="42.909635" lon="0.15531">
        <ele>1990.0</ele>
        <time>2019-07-07T07:48:48.804Z</time>
      </trkpt>
      <trkpt lat="42.90961333" lon="0.155285">
        <ele>1990.0</ele>
        <time>2019-07-07T07:48:49.838Z</time>
      </trkpt>
      <trkpt lat="42.90961333" lon="0.155285">
        <ele>1990.0</ele>
        <time>2019-07-07T07:48:50.817Z</time>
      </trkpt>
      <trkpt lat="42.90957333" lon="0.15523667">
        <ele>1990.0</ele>
        <time>2019-07-07T07:48:51.823Z</time>
      </trkpt>
      <trkpt lat="42.909555" lon="0.15521333">
        <ele>1990.0</ele>
        <time>2019-07-07T07:48:52.804Z</time>
      </trkpt>
      <trkpt lat="42.909555" lon="0.15521333">
        <ele>1990.0</ele>
        <time>2019-07-07T07:48:53.818Z</time>
      </trkpt>
      <trkpt lat="42.90952167" lon="0.15516333">
        <ele>1990.0</ele>
        <time>2019-07-07T07:48:54.836Z</time>
      </trkpt>
      <trkpt lat="42.90952167" lon="0.15516333">
        <ele>1990.0</ele>
        <time>2019-07-07T07:48:55.809Z</time>
      </trkpt>
      <trkpt lat="42.90949167" lon="0.15510833">
        <ele>1991.0</ele>
        <time>2019-07-07T07:48:56.815Z</time>
      </trkpt>
      <trkpt lat="42.90949167" lon="0.15510833">
        <ele>1991.0</ele>
        <time>2019-07-07T07:48:57.834Z</time>
      </trkpt>
      <trkpt lat="42.90945667" lon="0.15505667">
        <ele>1991.0</ele>
        <time>2019-07-07T07:48:58.838Z</time>
      </trkpt>
      <trkpt lat="42.90945667" lon="0.15505667">
        <ele>1991.0</ele>
        <time>2019-07-07T07:48:59.819Z</time>
      </trkpt>
      <trkpt lat="42.909425" lon="0.155005">
        <ele>1991.0</ele>
        <time>2019-07-07T07:49:00.825Z</time>
      </trkpt>
      <trkpt lat="42.90940833" lon="0.15498">
        <ele>1991.0</ele>
        <time>2019-07-07T07:49:01.812Z</time>
      </trkpt>
      <trkpt lat="42.90940833" lon="0.15498">
        <ele>1991.0</ele>
        <time>2019-07-07T07:49:02.834Z</time>
      </trkpt>
      <trkpt lat="42.909375" lon="0.15493">
        <ele>1991.0</ele>
        <time>2019-07-07T07:49:03.802Z</time>
      </trkpt>
      <trkpt lat="42.90936" lon="0.15490333">
        <ele>1991.0</ele>
        <time>2019-07-07T07:49:04.819Z</time>
      </trkpt>
      <trkpt lat="42.90936" lon="0.15490333">
        <ele>1991.0</ele>
        <time>2019-07-07T07:49:05.830Z</time>
      </trkpt>
      <trkpt lat="42.90932667" lon="0.15485333">
        <ele>1992.0</ele>
        <time>2019-07-07T07:49:06.837Z</time>
      </trkpt>
      <trkpt lat="42.90932667" lon="0.15485333">
        <ele>1992.0</ele>
        <time>2019-07-07T07:49:07.811Z</time>
      </trkpt>
      <trkpt lat="42.90929333" lon="0.154805">
        <ele>1992.0</ele>
        <time>2019-07-07T07:49:08.830Z</time>
      </trkpt>
      <trkpt lat="42.90929333" lon="0.154805">
        <ele>1992.0</ele>
        <time>2019-07-07T07:49:09.819Z</time>
      </trkpt>
      <trkpt lat="42.90926167" lon="0.15475833">
        <ele>1993.0</ele>
        <time>2019-07-07T07:49:10.826Z</time>
      </trkpt>
      <trkpt lat="42.909245" lon="0.15473667">
        <ele>1993.0</ele>
        <time>2019-07-07T07:49:11.822Z</time>
      </trkpt>
      <trkpt lat="42.909245" lon="0.15473667">
        <ele>1993.0</ele>
        <time>2019-07-07T07:49:12.841Z</time>
      </trkpt>
      <trkpt lat="42.909205" lon="0.154695">
        <ele>1994.0</ele>
        <time>2019-07-07T07:49:13.809Z</time>
      </trkpt>
      <trkpt lat="42.90918333" lon="0.15467667">
        <ele>1994.0</ele>
        <time>2019-07-07T07:49:14.837Z</time>
      </trkpt>
      <trkpt lat="42.90918333" lon="0.15467667">
        <ele>1994.0</ele>
        <time>2019-07-07T07:49:15.806Z</time>
      </trkpt>
      <trkpt lat="42.90913833" lon="0.15464667">
        <ele>1994.0</ele>
        <time>2019-07-07T07:49:16.813Z</time>
      </trkpt>
      <trkpt lat="42.90913833" lon="0.15464667">
        <ele>1994.0</ele>
        <time>2019-07-07T07:49:17.834Z</time>
      </trkpt>
      <trkpt lat="42.90909167" lon="0.15462667">
        <ele>1995.0</ele>
        <time>2019-07-07T07:49:18.825Z</time>
      </trkpt>
      <trkpt lat="42.90909167" lon="0.15462667">
        <ele>1995.0</ele>
        <time>2019-07-07T07:49:19.830Z</time>
      </trkpt>
      <trkpt lat="42.909045" lon="0.15461667">
        <ele>1996.0</ele>
        <time>2019-07-07T07:49:20.836Z</time>
      </trkpt>
      <trkpt lat="42.909045" lon="0.15461667">
        <ele>1996.0</ele>
        <time>2019-07-07T07:49:21.810Z</time>
      </trkpt>
      <trkpt lat="42.90899167" lon="0.15460833">
        <ele>1996.0</ele>
        <time>2019-07-07T07:49:22.815Z</time>
      </trkpt>
      <trkpt lat="42.90899167" lon="0.15460833">
        <ele>1996.0</ele>
        <time>2019-07-07T07:49:23.838Z</time>
      </trkpt>
      <trkpt lat="42.90894167" lon="0.15460333">
        <ele>1997.0</ele>
        <time>2019-07-07T07:49:24.805Z</time>
      </trkpt>
      <trkpt lat="42.90894167" lon="0.15460333">
        <ele>1997.0</ele>
        <time>2019-07-07T07:49:25.822Z</time>
      </trkpt>
      <trkpt lat="42.90889167" lon="0.15459167">
        <ele>1997.0</ele>
        <time>2019-07-07T07:49:26.804Z</time>
      </trkpt>
      <trkpt lat="42.908865" lon="0.15458667">
        <ele>1997.0</ele>
        <time>2019-07-07T07:49:27.804Z</time>
      </trkpt>
      <trkpt lat="42.908865" lon="0.15458667">
        <ele>1997.0</ele>
        <time>2019-07-07T07:49:28.835Z</time>
      </trkpt>
      <trkpt lat="42.90881833" lon="0.15456333">
        <ele>1997.0</ele>
        <time>2019-07-07T07:49:29.835Z</time>
      </trkpt>
      <trkpt lat="42.90881833" lon="0.15456333">
        <ele>1997.0</ele>
        <time>2019-07-07T07:49:30.801Z</time>
      </trkpt>
      <trkpt lat="42.90877333" lon="0.154525">
        <ele>1997.0</ele>
        <time>2019-07-07T07:49:31.822Z</time>
      </trkpt>
      <trkpt lat="42.90877333" lon="0.154525">
        <ele>1997.0</ele>
        <time>2019-07-07T07:49:32.835Z</time>
      </trkpt>
      <trkpt lat="42.90874" lon="0.154485">
        <ele>1998.0</ele>
        <time>2019-07-07T07:49:33.817Z</time>
      </trkpt>
      <trkpt lat="42.90874" lon="0.154485">
        <ele>1998.0</ele>
        <time>2019-07-07T07:49:34.836Z</time>
      </trkpt>
      <trkpt lat="42.90871667" lon="0.15443">
        <ele>1999.0</ele>
        <time>2019-07-07T07:49:35.802Z</time>
      </trkpt>
      <trkpt lat="42.90870833" lon="0.15439833">
        <ele>1999.0</ele>
        <time>2019-07-07T07:49:36.814Z</time>
      </trkpt>
      <trkpt lat="42.90870833" lon="0.15439833">
        <ele>1999.0</ele>
        <time>2019-07-07T07:49:37.840Z</time>
      </trkpt>
      <trkpt lat="42.908685" lon="0.15433667">
        <ele>1999.0</ele>
        <time>2019-07-07T07:49:38.809Z</time>
      </trkpt>
      <trkpt lat="42.908685" lon="0.15433667">
        <ele>1999.0</ele>
        <time>2019-07-07T07:49:39.834Z</time>
      </trkpt>
      <trkpt lat="42.90866167" lon="0.15427667">
        <ele>2000.0</ele>
        <time>2019-07-07T07:49:40.834Z</time>
      </trkpt>
      <trkpt lat="42.90865" lon="0.15424833">
        <ele>2000.0</ele>
        <time>2019-07-07T07:49:41.820Z</time>
      </trkpt>
      <trkpt lat="42.90865" lon="0.15424833">
        <ele>2000.0</ele>
        <time>2019-07-07T07:49:42.804Z</time>
      </trkpt>
      <trkpt lat="42.90863" lon="0.15418833">
        <ele>2001.0</ele>
        <time>2019-07-07T07:49:43.817Z</time>
      </trkpt>
      <trkpt lat="42.90863" lon="0.15418833">
        <ele>2001.0</ele>
        <time>2019-07-07T07:49:44.823Z</time>
      </trkpt>
      <trkpt lat="42.908605" lon="0.15413167">
        <ele>2001.0</ele>
        <time>2019-07-07T07:49:45.836Z</time>
      </trkpt>
      <trkpt lat="42.90859" lon="0.15410333">
        <ele>2001.0</ele>
        <time>2019-07-07T07:49:46.827Z</time>
      </trkpt>
      <trkpt lat="42.90859" lon="0.15410333">
        <ele>2001.0</ele>
        <time>2019-07-07T07:49:47.807Z</time>
      </trkpt>
      <trkpt lat="42.90856667" lon="0.15404833">
        <ele>2002.0</ele>
        <time>2019-07-07T07:49:48.831Z</time>
      </trkpt>
      <trkpt lat="42.908555" lon="0.15402">
        <ele>2002.0</ele>
        <time>2019-07-07T07:49:49.816Z</time>
      </trkpt>
      <trkpt lat="42.908555" lon="0.15402">
        <ele>2002.0</ele>
        <time>2019-07-07T07:49:50.801Z</time>
      </trkpt>
      <trkpt lat="42.90853" lon="0.15396333">
        <ele>2002.0</ele>
        <time>2019-07-07T07:49:51.810Z</time>
      </trkpt>
      <trkpt lat="42.90853" lon="0.15396333">
        <ele>2002.0</ele>
        <time>2019-07-07T07:49:52.820Z</time>
      </trkpt>
      <trkpt lat="42.90851" lon="0.15390333">
        <ele>2003.0</ele>
        <time>2019-07-07T07:49:53.826Z</time>
      </trkpt>
      <trkpt lat="42.9085" lon="0.15387167">
        <ele>2003.0</ele>
        <time>2019-07-07T07:49:54.810Z</time>
      </trkpt>
      <trkpt lat="42.9085" lon="0.15387167">
        <ele>2003.0</ele>
        <time>2019-07-07T07:49:55.832Z</time>
      </trkpt>
      <trkpt lat="42.90848" lon="0.15381167">
        <ele>2003.0</ele>
        <time>2019-07-07T07:49:56.840Z</time>
      </trkpt>
      <trkpt lat="42.90848" lon="0.15381167">
        <ele>2003.0</ele>
        <time>2019-07-07T07:49:57.806Z</time>
      </trkpt>
      <trkpt lat="42.908465" lon="0.15375">
        <ele>2004.0</ele>
        <time>2019-07-07T07:49:58.826Z</time>
      </trkpt>
      <trkpt lat="42.908465" lon="0.15375">
        <ele>2004.0</ele>
        <time>2019-07-07T07:49:59.838Z</time>
      </trkpt>
      <trkpt lat="42.90845333" lon="0.153685">
        <ele>2004.0</ele>
        <time>2019-07-07T07:50:00.805Z</time>
      </trkpt>
      <trkpt lat="42.90845" lon="0.15365167">
        <ele>2005.0</ele>
        <time>2019-07-07T07:50:01.821Z</time>
      </trkpt>
      <trkpt lat="42.90845" lon="0.15365167">
        <ele>2005.0</ele>
        <time>2019-07-07T07:50:02.806Z</time>
      </trkpt>
      <trkpt lat="42.90844" lon="0.153585">
        <ele>2005.0</ele>
        <time>2019-07-07T07:50:03.818Z</time>
      </trkpt>
      <trkpt lat="42.90843833" lon="0.15355">
        <ele>2005.0</ele>
        <time>2019-07-07T07:50:04.825Z</time>
      </trkpt>
      <trkpt lat="42.90843833" lon="0.15355">
        <ele>2005.0</ele>
        <time>2019-07-07T07:50:05.803Z</time>
      </trkpt>
      <trkpt lat="42.908435" lon="0.153485">
        <ele>2006.0</ele>
        <time>2019-07-07T07:50:06.809Z</time>
      </trkpt>
      <trkpt lat="42.908435" lon="0.153485">
        <ele>2006.0</ele>
        <time>2019-07-07T07:50:07.835Z</time>
      </trkpt>
      <trkpt lat="42.90843833" lon="0.15341833">
        <ele>2006.0</ele>
        <time>2019-07-07T07:50:08.801Z</time>
      </trkpt>
      <trkpt lat="42.90843833" lon="0.15341833">
        <ele>2006.0</ele>
        <time>2019-07-07T07:50:09.824Z</time>
      </trkpt>
      <trkpt lat="42.90844833" lon="0.15335167">
        <ele>2007.0</ele>
        <time>2019-07-07T07:50:10.827Z</time>
      </trkpt>
      <trkpt lat="42.90844833" lon="0.15335167">
        <ele>2007.0</ele>
        <time>2019-07-07T07:50:11.818Z</time>
      </trkpt>
      <trkpt lat="42.908465" lon="0.15329">
        <ele>2008.0</ele>
        <time>2019-07-07T07:50:12.823Z</time>
      </trkpt>
      <trkpt lat="42.908465" lon="0.15329">
        <ele>2008.0</ele>
        <time>2019-07-07T07:50:13.807Z</time>
      </trkpt>
      <trkpt lat="42.908485" lon="0.15322833">
        <ele>2008.0</ele>
        <time>2019-07-07T07:50:14.825Z</time>
      </trkpt>
      <trkpt lat="42.908485" lon="0.15322833">
        <ele>2008.0</ele>
        <time>2019-07-07T07:50:15.815Z</time>
      </trkpt>
      <trkpt lat="42.90850833" lon="0.15317167">
        <ele>2009.0</ele>
        <time>2019-07-07T07:50:16.821Z</time>
      </trkpt>
      <trkpt lat="42.90850833" lon="0.15317167">
        <ele>2009.0</ele>
        <time>2019-07-07T07:50:17.805Z</time>
      </trkpt>
      <trkpt lat="42.90853" lon="0.15311167">
        <ele>2009.0</ele>
        <time>2019-07-07T07:50:18.824Z</time>
      </trkpt>
      <trkpt lat="42.90853" lon="0.15311167">
        <ele>2009.0</ele>
        <time>2019-07-07T07:50:19.804Z</time>
      </trkpt>
      <trkpt lat="42.90855333" lon="0.15305167">
        <ele>2010.0</ele>
        <time>2019-07-07T07:50:20.809Z</time>
      </trkpt>
      <trkpt lat="42.908565" lon="0.15302167">
        <ele>2010.0</ele>
        <time>2019-07-07T07:50:21.812Z</time>
      </trkpt>
      <trkpt lat="42.908565" lon="0.15302167">
        <ele>2010.0</ele>
        <time>2019-07-07T07:50:22.835Z</time>
      </trkpt>
      <trkpt lat="42.90858667" lon="0.152965">
        <ele>2010.0</ele>
        <time>2019-07-07T07:50:23.804Z</time>
      </trkpt>
      <trkpt lat="42.90859667" lon="0.15293667">
        <ele>2011.0</ele>
        <time>2019-07-07T07:50:24.831Z</time>
      </trkpt>
      <trkpt lat="42.90859667" lon="0.15293667">
        <ele>2011.0</ele>
        <time>2019-07-07T07:50:25.838Z</time>
      </trkpt>
      <trkpt lat="42.90861833" lon="0.15287833">
        <ele>2011.0</ele>
        <time>2019-07-07T07:50:26.805Z</time>
      </trkpt>
      <trkpt lat="42.90861833" lon="0.15287833">
        <ele>2011.0</ele>
        <time>2019-07-07T07:50:27.824Z</time>
      </trkpt>
      <trkpt lat="42.90863833" lon="0.15281667">
        <ele>2012.0</ele>
        <time>2019-07-07T07:50:28.826Z</time>
      </trkpt>
      <trkpt lat="42.90863833" lon="0.15281667">
        <ele>2012.0</ele>
        <time>2019-07-07T07:50:29.839Z</time>
      </trkpt>
      <trkpt lat="42.908665" lon="0.15275833">
        <ele>2012.0</ele>
        <time>2019-07-07T07:50:30.806Z</time>
      </trkpt>
      <trkpt lat="42.90867667" lon="0.15272833">
        <ele>2012.0</ele>
        <time>2019-07-07T07:50:31.840Z</time>
      </trkpt>
      <trkpt lat="42.90867667" lon="0.15272833">
        <ele>2012.0</ele>
        <time>2019-07-07T07:50:32.817Z</time>
      </trkpt>
      <trkpt lat="42.90869833" lon="0.15267">
        <ele>2013.0</ele>
        <time>2019-07-07T07:50:33.826Z</time>
      </trkpt>
      <trkpt lat="42.90871167" lon="0.15264">
        <ele>2013.0</ele>
        <time>2019-07-07T07:50:34.807Z</time>
      </trkpt>
      <trkpt lat="42.90871167" lon="0.15264">
        <ele>2013.0</ele>
        <time>2019-07-07T07:50:35.820Z</time>
      </trkpt>
      <trkpt lat="42.90873333" lon="0.15258333">
        <ele>2013.0</ele>
        <time>2019-07-07T07:50:36.826Z</time>
      </trkpt>
      <trkpt lat="42.90873333" lon="0.15258333">
        <ele>2013.0</ele>
        <time>2019-07-07T07:50:37.811Z</time>
      </trkpt>
      <trkpt lat="42.90875333" lon="0.15252667">
        <ele>2014.0</ele>
        <time>2019-07-07T07:50:38.842Z</time>
      </trkpt>
      <trkpt lat="42.908765" lon="0.15249667">
        <ele>2014.0</ele>
        <time>2019-07-07T07:50:39.801Z</time>
      </trkpt>
      <trkpt lat="42.908765" lon="0.15249667">
        <ele>2014.0</ele>
        <time>2019-07-07T07:50:40.815Z</time>
      </trkpt>
      <trkpt lat="42.90878667" lon="0.15243667">
        <ele>2014.0</ele>
        <time>2019-07-07T07:50:41.833Z</time>
      </trkpt>
      <trkpt lat="42.90878667" lon="0.15243667">
        <ele>2014.0</ele>
        <time>2019-07-07T07:50:42.821Z</time>
      </trkpt>
      <trkpt lat="42.908805" lon="0.15237333">
        <ele>2015.0</ele>
        <time>2019-07-07T07:50:43.827Z</time>
      </trkpt>
      <trkpt lat="42.90881167" lon="0.15234167">
        <ele>2015.0</ele>
        <time>2019-07-07T07:50:44.837Z</time>
      </trkpt>
      <trkpt lat="42.90881167" lon="0.15234167">
        <ele>2015.0</ele>
        <time>2019-07-07T07:50:45.809Z</time>
      </trkpt>
      <trkpt lat="42.90882167" lon="0.152275">
        <ele>2015.0</ele>
        <time>2019-07-07T07:50:46.815Z</time>
      </trkpt>
      <trkpt lat="42.90882167" lon="0.152275">
        <ele>2015.0</ele>
        <time>2019-07-07T07:50:47.839Z</time>
      </trkpt>
      <trkpt lat="42.90883" lon="0.15221167">
        <ele>2015.0</ele>
        <time>2019-07-07T07:50:48.834Z</time>
      </trkpt>
      <trkpt lat="42.908835" lon="0.15218">
        <ele>2016.0</ele>
        <time>2019-07-07T07:50:49.807Z</time>
      </trkpt>
      <trkpt lat="42.90884" lon="0.15214833">
        <ele>2016.0</ele>
        <time>2019-07-07T07:50:50.822Z</time>
      </trkpt>
      <trkpt lat="42.908845" lon="0.15211667">
        <ele>2016.0</ele>
        <time>2019-07-07T07:50:51.815Z</time>
      </trkpt>
      <trkpt lat="42.908845" lon="0.15211667">
        <ele>2016.0</ele>
        <time>2019-07-07T07:50:52.839Z</time>
      </trkpt>
      <trkpt lat="42.90885167" lon="0.15205667">
        <ele>2016.0</ele>
        <time>2019-07-07T07:50:53.807Z</time>
      </trkpt>
      <trkpt lat="42.90885667" lon="0.15202833">
        <ele>2017.0</ele>
        <time>2019-07-07T07:50:54.823Z</time>
      </trkpt>
      <trkpt lat="42.90885667" lon="0.15202833">
        <ele>2017.0</ele>
        <time>2019-07-07T07:50:55.833Z</time>
      </trkpt>
      <trkpt lat="42.90887" lon="0.15196667">
        <ele>2017.0</ele>
        <time>2019-07-07T07:50:56.840Z</time>
      </trkpt>
      <trkpt lat="42.90887" lon="0.15196667">
        <ele>2017.0</ele>
        <time>2019-07-07T07:50:57.825Z</time>
      </trkpt>
      <trkpt lat="42.90888333" lon="0.15190333">
        <ele>2018.0</ele>
        <time>2019-07-07T07:50:58.803Z</time>
      </trkpt>
      <trkpt lat="42.90889" lon="0.15187167">
        <ele>2018.0</ele>
        <time>2019-07-07T07:50:59.811Z</time>
      </trkpt>
      <trkpt lat="42.90889" lon="0.15187167">
        <ele>2018.0</ele>
        <time>2019-07-07T07:51:00.834Z</time>
      </trkpt>
      <trkpt lat="42.908905" lon="0.15181">
        <ele>2018.0</ele>
        <time>2019-07-07T07:51:01.823Z</time>
      </trkpt>
      <trkpt lat="42.908905" lon="0.15181">
        <ele>2018.0</ele>
        <time>2019-07-07T07:51:02.836Z</time>
      </trkpt>
      <trkpt lat="42.90892167" lon="0.15174833">
        <ele>2019.0</ele>
        <time>2019-07-07T07:51:03.802Z</time>
      </trkpt>
      <trkpt lat="42.90892167" lon="0.15174833">
        <ele>2019.0</ele>
        <time>2019-07-07T07:51:04.827Z</time>
      </trkpt>
      <trkpt lat="42.90893833" lon="0.15168667">
        <ele>2019.0</ele>
        <time>2019-07-07T07:51:05.831Z</time>
      </trkpt>
      <trkpt lat="42.90893833" lon="0.15168667">
        <ele>2019.0</ele>
        <time>2019-07-07T07:51:06.820Z</time>
      </trkpt>
      <trkpt lat="42.908955" lon="0.151625">
        <ele>2020.0</ele>
        <time>2019-07-07T07:51:07.826Z</time>
      </trkpt>
      <trkpt lat="42.90896167" lon="0.151595">
        <ele>2020.0</ele>
        <time>2019-07-07T07:51:08.801Z</time>
      </trkpt>
      <trkpt lat="42.90897167" lon="0.151565">
        <ele>2020.0</ele>
        <time>2019-07-07T07:51:09.808Z</time>
      </trkpt>
      <trkpt lat="42.90897167" lon="0.151565">
        <ele>2020.0</ele>
        <time>2019-07-07T07:51:10.833Z</time>
      </trkpt>
      <trkpt lat="42.90899" lon="0.15150667">
        <ele>2021.0</ele>
        <time>2019-07-07T07:51:11.812Z</time>
      </trkpt>
      <trkpt lat="42.90899" lon="0.15150667">
        <ele>2021.0</ele>
        <time>2019-07-07T07:51:12.808Z</time>
      </trkpt>
      <trkpt lat="42.90900833" lon="0.15144833">
        <ele>2021.0</ele>
        <time>2019-07-07T07:51:13.816Z</time>
      </trkpt>
      <trkpt lat="42.90900833" lon="0.15144833">
        <ele>2021.0</ele>
        <time>2019-07-07T07:51:14.818Z</time>
      </trkpt>
      <trkpt lat="42.90902667" lon="0.15138833">
        <ele>2022.0</ele>
        <time>2019-07-07T07:51:15.827Z</time>
      </trkpt>
      <trkpt lat="42.90902667" lon="0.15138833">
        <ele>2022.0</ele>
        <time>2019-07-07T07:51:16.804Z</time>
      </trkpt>
      <trkpt lat="42.90904333" lon="0.15132333">
        <ele>2022.0</ele>
        <time>2019-07-07T07:51:17.820Z</time>
      </trkpt>
      <trkpt lat="42.90904333" lon="0.15132333">
        <ele>2022.0</ele>
        <time>2019-07-07T07:51:18.840Z</time>
      </trkpt>
      <trkpt lat="42.90904833" lon="0.15125833">
        <ele>2023.0</ele>
        <time>2019-07-07T07:51:19.807Z</time>
      </trkpt>
      <trkpt lat="42.90904833" lon="0.15125833">
        <ele>2023.0</ele>
        <time>2019-07-07T07:51:20.821Z</time>
      </trkpt>
      <trkpt lat="42.90904833" lon="0.15119167">
        <ele>2024.0</ele>
        <time>2019-07-07T07:51:21.803Z</time>
      </trkpt>
      <trkpt lat="42.90904833" lon="0.15119167">
        <ele>2024.0</ele>
        <time>2019-07-07T07:51:22.838Z</time>
      </trkpt>
      <trkpt lat="42.90904" lon="0.15112833">
        <ele>2025.0</ele>
        <time>2019-07-07T07:51:23.805Z</time>
      </trkpt>
      <trkpt lat="42.90904" lon="0.15112833">
        <ele>2025.0</ele>
        <time>2019-07-07T07:51:24.834Z</time>
      </trkpt>
      <trkpt lat="42.90903167" lon="0.151065">
        <ele>2025.0</ele>
        <time>2019-07-07T07:51:25.825Z</time>
      </trkpt>
      <trkpt lat="42.909025" lon="0.15103167">
        <ele>2025.0</ele>
        <time>2019-07-07T07:51:26.831Z</time>
      </trkpt>
      <trkpt lat="42.909025" lon="0.15103167">
        <ele>2025.0</ele>
        <time>2019-07-07T07:51:27.816Z</time>
      </trkpt>
      <trkpt lat="42.90901167" lon="0.150965">
        <ele>2026.0</ele>
        <time>2019-07-07T07:51:28.809Z</time>
      </trkpt>
      <trkpt lat="42.909005" lon="0.15093">
        <ele>2026.0</ele>
        <time>2019-07-07T07:51:29.819Z</time>
      </trkpt>
      <trkpt lat="42.90899667" lon="0.15089667">
        <ele>2026.0</ele>
        <time>2019-07-07T07:51:30.805Z</time>
      </trkpt>
      <trkpt lat="42.90899667" lon="0.15089667">
        <ele>2026.0</ele>
        <time>2019-07-07T07:51:31.812Z</time>
      </trkpt>
      <trkpt lat="42.90897833" lon="0.15083333">
        <ele>2027.0</ele>
        <time>2019-07-07T07:51:32.819Z</time>
      </trkpt>
      <trkpt lat="42.90896833" lon="0.1508">
        <ele>2027.0</ele>
        <time>2019-07-07T07:51:33.804Z</time>
      </trkpt>
      <trkpt lat="42.90896833" lon="0.1508">
        <ele>2027.0</ele>
        <time>2019-07-07T07:51:34.826Z</time>
      </trkpt>
      <trkpt lat="42.90895167" lon="0.15073333">
        <ele>2027.0</ele>
        <time>2019-07-07T07:51:35.833Z</time>
      </trkpt>
      <trkpt lat="42.90895167" lon="0.15073333">
        <ele>2027.0</ele>
        <time>2019-07-07T07:51:36.819Z</time>
      </trkpt>
      <trkpt lat="42.90893333" lon="0.15066833">
        <ele>2028.0</ele>
        <time>2019-07-07T07:51:37.829Z</time>
      </trkpt>
      <trkpt lat="42.90893333" lon="0.15066833">
        <ele>2028.0</ele>
        <time>2019-07-07T07:51:38.838Z</time>
      </trkpt>
      <trkpt lat="42.90891333" lon="0.15060667">
        <ele>2029.0</ele>
        <time>2019-07-07T07:51:39.804Z</time>
      </trkpt>
      <trkpt lat="42.90890333" lon="0.15057333">
        <ele>2029.0</ele>
        <time>2019-07-07T07:51:40.811Z</time>
      </trkpt>
      <trkpt lat="42.90889333" lon="0.15054167">
        <ele>2030.0</ele>
        <time>2019-07-07T07:51:41.834Z</time>
      </trkpt>
      <trkpt lat="42.90889333" lon="0.15054167">
        <ele>2030.0</ele>
        <time>2019-07-07T07:51:42.812Z</time>
      </trkpt>
      <trkpt lat="42.908875" lon="0.15048167">
        <ele>2030.0</ele>
        <time>2019-07-07T07:51:43.818Z</time>
      </trkpt>
      <trkpt lat="42.908865" lon="0.15045">
        <ele>2030.0</ele>
        <time>2019-07-07T07:51:44.804Z</time>
      </trkpt>
      <trkpt lat="42.908865" lon="0.15045">
        <ele>2030.0</ele>
        <time>2019-07-07T07:51:45.828Z</time>
      </trkpt>
      <trkpt lat="42.90884" lon="0.15039167">
        <ele>2031.0</ele>
        <time>2019-07-07T07:51:46.833Z</time>
      </trkpt>
      <trkpt lat="42.90884" lon="0.15039167">
        <ele>2031.0</ele>
        <time>2019-07-07T07:51:47.832Z</time>
      </trkpt>
      <trkpt lat="42.908815" lon="0.150335">
        <ele>2031.0</ele>
        <time>2019-07-07T07:51:48.805Z</time>
      </trkpt>
      <trkpt lat="42.908815" lon="0.150335">
        <ele>2031.0</ele>
        <time>2019-07-07T07:51:49.814Z</time>
      </trkpt>
      <trkpt lat="42.90878833" lon="0.15027333">
        <ele>2031.0</ele>
        <time>2019-07-07T07:51:50.820Z</time>
      </trkpt>
      <trkpt lat="42.90877167" lon="0.15024833">
        <ele>2032.0</ele>
        <time>2019-07-07T07:51:51.809Z</time>
      </trkpt>
      <trkpt lat="42.90877167" lon="0.15024833">
        <ele>2032.0</ele>
        <time>2019-07-07T07:51:52.820Z</time>
      </trkpt>
      <trkpt lat="42.90873667" lon="0.1502">
        <ele>2032.0</ele>
        <time>2019-07-07T07:51:53.826Z</time>
      </trkpt>
      <trkpt lat="42.90873667" lon="0.1502">
        <ele>2032.0</ele>
        <time>2019-07-07T07:51:54.812Z</time>
      </trkpt>
      <trkpt lat="42.90871167" lon="0.15015667">
        <ele>2033.0</ele>
        <time>2019-07-07T07:51:55.825Z</time>
      </trkpt>
      <trkpt lat="42.90871167" lon="0.15015667">
        <ele>2033.0</ele>
        <time>2019-07-07T07:51:56.802Z</time>
      </trkpt>
      <trkpt lat="42.90868833" lon="0.1501">
        <ele>2033.0</ele>
        <time>2019-07-07T07:51:57.809Z</time>
      </trkpt>
      <trkpt lat="42.90868333" lon="0.15007">
        <ele>2034.0</ele>
        <time>2019-07-07T07:51:58.840Z</time>
      </trkpt>
      <trkpt lat="42.90868333" lon="0.15007">
        <ele>2034.0</ele>
        <time>2019-07-07T07:51:59.825Z</time>
      </trkpt>
      <trkpt lat="42.90867" lon="0.15001167">
        <ele>2034.0</ele>
        <time>2019-07-07T07:52:00.831Z</time>
      </trkpt>
      <trkpt lat="42.90866333" lon="0.14998">
        <ele>2035.0</ele>
        <time>2019-07-07T07:52:01.833Z</time>
      </trkpt>
      <trkpt lat="42.90866333" lon="0.14998">
        <ele>2035.0</ele>
        <time>2019-07-07T07:52:02.826Z</time>
      </trkpt>
      <trkpt lat="42.90865333" lon="0.14992333">
        <ele>2036.0</ele>
        <time>2019-07-07T07:52:03.836Z</time>
      </trkpt>
      <trkpt lat="42.90865" lon="0.14989333">
        <ele>2036.0</ele>
        <time>2019-07-07T07:52:04.825Z</time>
      </trkpt>
      <trkpt lat="42.90865" lon="0.14989333">
        <ele>2036.0</ele>
        <time>2019-07-07T07:52:05.822Z</time>
      </trkpt>
      <trkpt lat="42.90864" lon="0.149835">
        <ele>2037.0</ele>
        <time>2019-07-07T07:52:06.830Z</time>
      </trkpt>
      <trkpt lat="42.90864" lon="0.149835">
        <ele>2037.0</ele>
        <time>2019-07-07T07:52:07.816Z</time>
      </trkpt>
      <trkpt lat="42.90863" lon="0.14977333">
        <ele>2037.0</ele>
        <time>2019-07-07T07:52:08.826Z</time>
      </trkpt>
      <trkpt lat="42.90863" lon="0.14977333">
        <ele>2037.0</ele>
        <time>2019-07-07T07:52:09.837Z</time>
      </trkpt>
      <trkpt lat="42.90862833" lon="0.14970333">
        <ele>2038.0</ele>
        <time>2019-07-07T07:52:10.803Z</time>
      </trkpt>
      <trkpt lat="42.90863" lon="0.14966833">
        <ele>2038.0</ele>
        <time>2019-07-07T07:52:11.838Z</time>
      </trkpt>
      <trkpt lat="42.90863" lon="0.14966833">
        <ele>2038.0</ele>
        <time>2019-07-07T07:52:12.822Z</time>
      </trkpt>
      <trkpt lat="42.90863667" lon="0.14960167">
        <ele>2038.0</ele>
        <time>2019-07-07T07:52:13.831Z</time>
      </trkpt>
      <trkpt lat="42.90863667" lon="0.14960167">
        <ele>2038.0</ele>
        <time>2019-07-07T07:52:14.812Z</time>
      </trkpt>
      <trkpt lat="42.908645" lon="0.14954167">
        <ele>2040.0</ele>
        <time>2019-07-07T07:52:15.824Z</time>
      </trkpt>
      <trkpt lat="42.90865167" lon="0.14951167">
        <ele>2040.0</ele>
        <time>2019-07-07T07:52:16.802Z</time>
      </trkpt>
      <trkpt lat="42.90865167" lon="0.14951167">
        <ele>2040.0</ele>
        <time>2019-07-07T07:52:17.820Z</time>
      </trkpt>
      <trkpt lat="42.908665" lon="0.14944833">
        <ele>2040.0</ele>
        <time>2019-07-07T07:52:18.833Z</time>
      </trkpt>
      <trkpt lat="42.90867167" lon="0.14941667">
        <ele>2041.0</ele>
        <time>2019-07-07T07:52:19.806Z</time>
      </trkpt>
      <trkpt lat="42.90867167" lon="0.14941667">
        <ele>2041.0</ele>
        <time>2019-07-07T07:52:20.834Z</time>
      </trkpt>
      <trkpt lat="42.90868667" lon="0.14935667">
        <ele>2042.0</ele>
        <time>2019-07-07T07:52:21.806Z</time>
      </trkpt>
      <trkpt lat="42.90868667" lon="0.14935667">
        <ele>2042.0</ele>
        <time>2019-07-07T07:52:22.835Z</time>
      </trkpt>
      <trkpt lat="42.90869833" lon="0.149295">
        <ele>2042.0</ele>
        <time>2019-07-07T07:52:23.802Z</time>
      </trkpt>
      <trkpt lat="42.90869833" lon="0.149295">
        <ele>2042.0</ele>
        <time>2019-07-07T07:52:24.826Z</time>
      </trkpt>
      <trkpt lat="42.90870833" lon="0.14922667">
        <ele>2043.0</ele>
        <time>2019-07-07T07:52:25.825Z</time>
      </trkpt>
      <trkpt lat="42.90871333" lon="0.149195">
        <ele>2043.0</ele>
        <time>2019-07-07T07:52:26.801Z</time>
      </trkpt>
      <trkpt lat="42.90871333" lon="0.149195">
        <ele>2043.0</ele>
        <time>2019-07-07T07:52:27.825Z</time>
      </trkpt>
      <trkpt lat="42.908715" lon="0.14913">
        <ele>2044.0</ele>
        <time>2019-07-07T07:52:28.838Z</time>
      </trkpt>
      <trkpt lat="42.908715" lon="0.14913">
        <ele>2044.0</ele>
        <time>2019-07-07T07:52:29.809Z</time>
      </trkpt>
      <trkpt lat="42.90871333" lon="0.14905667">
        <ele>2044.0</ele>
        <time>2019-07-07T07:52:30.815Z</time>
      </trkpt>
      <trkpt lat="42.90870833" lon="0.14902333">
        <ele>2044.0</ele>
        <time>2019-07-07T07:52:31.802Z</time>
      </trkpt>
      <trkpt lat="42.90870833" lon="0.14902333">
        <ele>2044.0</ele>
        <time>2019-07-07T07:52:32.827Z</time>
      </trkpt>
      <trkpt lat="42.90869167" lon="0.14895333">
        <ele>2044.0</ele>
        <time>2019-07-07T07:52:33.835Z</time>
      </trkpt>
      <trkpt lat="42.90867333" lon="0.14892833">
        <ele>2044.0</ele>
        <time>2019-07-07T07:52:34.813Z</time>
      </trkpt>
      <trkpt lat="42.90865" lon="0.14891">
        <ele>2045.0</ele>
        <time>2019-07-07T07:52:35.811Z</time>
      </trkpt>
      <trkpt lat="42.90865" lon="0.14891">
        <ele>2045.0</ele>
        <time>2019-07-07T07:52:36.826Z</time>
      </trkpt>
      <trkpt lat="42.90860167" lon="0.14888333">
        <ele>2045.0</ele>
        <time>2019-07-07T07:52:37.837Z</time>
      </trkpt>
      <trkpt lat="42.90860167" lon="0.14888333">
        <ele>2045.0</ele>
        <time>2019-07-07T07:52:38.822Z</time>
      </trkpt>
      <trkpt lat="42.90855167" lon="0.14887">
        <ele>2045.0</ele>
        <time>2019-07-07T07:52:39.835Z</time>
      </trkpt>
      <trkpt lat="42.90852667" lon="0.148865">
        <ele>2046.0</ele>
        <time>2019-07-07T07:52:40.803Z</time>
      </trkpt>
      <trkpt lat="42.90849833" lon="0.148865">
        <ele>2046.0</ele>
        <time>2019-07-07T07:52:41.807Z</time>
      </trkpt>
      <trkpt lat="42.90849833" lon="0.148865">
        <ele>2046.0</ele>
        <time>2019-07-07T07:52:42.838Z</time>
      </trkpt>
      <trkpt lat="42.908445" lon="0.14886167">
        <ele>2046.0</ele>
        <time>2019-07-07T07:52:43.805Z</time>
      </trkpt>
      <trkpt lat="42.908445" lon="0.14886167">
        <ele>2046.0</ele>
        <time>2019-07-07T07:52:44.815Z</time>
      </trkpt>
      <trkpt lat="42.90839" lon="0.14886">
        <ele>2046.0</ele>
        <time>2019-07-07T07:52:45.827Z</time>
      </trkpt>
      <trkpt lat="42.90836333" lon="0.14886">
        <ele>2046.0</ele>
        <time>2019-07-07T07:52:46.804Z</time>
      </trkpt>
      <trkpt lat="42.90836333" lon="0.14886">
        <ele>2046.0</ele>
        <time>2019-07-07T07:52:47.836Z</time>
      </trkpt>
      <trkpt lat="42.90831" lon="0.148865">
        <ele>2047.0</ele>
        <time>2019-07-07T07:52:48.805Z</time>
      </trkpt>
      <trkpt lat="42.90828167" lon="0.14886667">
        <ele>2047.0</ele>
        <time>2019-07-07T07:52:49.831Z</time>
      </trkpt>
      <trkpt lat="42.90828167" lon="0.14886667">
        <ele>2047.0</ele>
        <time>2019-07-07T07:52:50.817Z</time>
      </trkpt>
      <trkpt lat="42.90822833" lon="0.14887167">
        <ele>2047.0</ele>
        <time>2019-07-07T07:52:51.823Z</time>
      </trkpt>
      <trkpt lat="42.90822833" lon="0.14887167">
        <ele>2047.0</ele>
        <time>2019-07-07T07:52:52.807Z</time>
      </trkpt>
      <trkpt lat="42.90817667" lon="0.14887333">
        <ele>2048.0</ele>
        <time>2019-07-07T07:52:53.821Z</time>
      </trkpt>
      <trkpt lat="42.90817667" lon="0.14887333">
        <ele>2048.0</ele>
        <time>2019-07-07T07:52:54.835Z</time>
      </trkpt>
      <trkpt lat="42.90812667" lon="0.14886833">
        <ele>2048.0</ele>
        <time>2019-07-07T07:52:55.801Z</time>
      </trkpt>
      <trkpt lat="42.90810167" lon="0.148865">
        <ele>2048.0</ele>
        <time>2019-07-07T07:52:56.833Z</time>
      </trkpt>
      <trkpt lat="42.90810167" lon="0.148865">
        <ele>2048.0</ele>
        <time>2019-07-07T07:52:57.820Z</time>
      </trkpt>
      <trkpt lat="42.90805333" lon="0.14885167">
        <ele>2049.0</ele>
        <time>2019-07-07T07:52:58.826Z</time>
      </trkpt>
      <trkpt lat="42.90805333" lon="0.14885167">
        <ele>2049.0</ele>
        <time>2019-07-07T07:52:59.813Z</time>
      </trkpt>
      <trkpt lat="42.908005" lon="0.14883167">
        <ele>2049.0</ele>
        <time>2019-07-07T07:53:00.826Z</time>
      </trkpt>
      <trkpt lat="42.90798167" lon="0.14882">
        <ele>2049.0</ele>
        <time>2019-07-07T07:53:01.822Z</time>
      </trkpt>
      <trkpt lat="42.90798167" lon="0.14882">
        <ele>2049.0</ele>
        <time>2019-07-07T07:53:02.808Z</time>
      </trkpt>
      <trkpt lat="42.90793667" lon="0.148795">
        <ele>2050.0</ele>
        <time>2019-07-07T07:53:03.818Z</time>
      </trkpt>
      <trkpt lat="42.90791333" lon="0.14878">
        <ele>2050.0</ele>
        <time>2019-07-07T07:53:04.808Z</time>
      </trkpt>
      <trkpt lat="42.90791333" lon="0.14878">
        <ele>2050.0</ele>
        <time>2019-07-07T07:53:05.801Z</time>
      </trkpt>
      <trkpt lat="42.90786667" lon="0.14875833">
        <ele>2050.0</ele>
        <time>2019-07-07T07:53:06.825Z</time>
      </trkpt>
      <trkpt lat="42.90786667" lon="0.14875833">
        <ele>2050.0</ele>
        <time>2019-07-07T07:53:07.818Z</time>
      </trkpt>
      <trkpt lat="42.90782167" lon="0.14873667">
        <ele>2051.0</ele>
        <time>2019-07-07T07:53:08.833Z</time>
      </trkpt>
      <trkpt lat="42.90782167" lon="0.14873667">
        <ele>2051.0</ele>
        <time>2019-07-07T07:53:09.812Z</time>
      </trkpt>
      <trkpt lat="42.90777667" lon="0.148715">
        <ele>2051.0</ele>
        <time>2019-07-07T07:53:10.839Z</time>
      </trkpt>
      <trkpt lat="42.90775333" lon="0.14870667">
        <ele>2052.0</ele>
        <time>2019-07-07T07:53:11.812Z</time>
      </trkpt>
      <trkpt lat="42.90775333" lon="0.14870667">
        <ele>2052.0</ele>
        <time>2019-07-07T07:53:12.828Z</time>
      </trkpt>
      <trkpt lat="42.90770833" lon="0.14869333">
        <ele>2052.0</ele>
        <time>2019-07-07T07:53:13.831Z</time>
      </trkpt>
      <trkpt lat="42.90768333" lon="0.14869">
        <ele>2053.0</ele>
        <time>2019-07-07T07:53:14.813Z</time>
      </trkpt>
      <trkpt lat="42.90768333" lon="0.14869">
        <ele>2053.0</ele>
        <time>2019-07-07T07:53:15.828Z</time>
      </trkpt>
      <trkpt lat="42.907635" lon="0.148695">
        <ele>2053.0</ele>
        <time>2019-07-07T07:53:16.801Z</time>
      </trkpt>
      <trkpt lat="42.907635" lon="0.148695">
        <ele>2053.0</ele>
        <time>2019-07-07T07:53:17.838Z</time>
      </trkpt>
      <trkpt lat="42.90758667" lon="0.14870333">
        <ele>2053.0</ele>
        <time>2019-07-07T07:53:18.818Z</time>
      </trkpt>
      <trkpt lat="42.90758667" lon="0.14870333">
        <ele>2053.0</ele>
        <time>2019-07-07T07:53:19.801Z</time>
      </trkpt>
      <trkpt lat="42.90753667" lon="0.14871">
        <ele>2053.0</ele>
        <time>2019-07-07T07:53:20.826Z</time>
      </trkpt>
      <trkpt lat="42.90751167" lon="0.14871333">
        <ele>2053.0</ele>
        <time>2019-07-07T07:53:21.829Z</time>
      </trkpt>
      <trkpt lat="42.90751167" lon="0.14871333">
        <ele>2053.0</ele>
        <time>2019-07-07T07:53:22.813Z</time>
      </trkpt>
      <trkpt lat="42.90746333" lon="0.14871167">
        <ele>2054.0</ele>
        <time>2019-07-07T07:53:23.820Z</time>
      </trkpt>
      <trkpt lat="42.90746333" lon="0.14871167">
        <ele>2054.0</ele>
        <time>2019-07-07T07:53:24.803Z</time>
      </trkpt>
      <trkpt lat="42.90741333" lon="0.14870333">
        <ele>2054.0</ele>
        <time>2019-07-07T07:53:25.812Z</time>
      </trkpt>
      <trkpt lat="42.90741333" lon="0.14870333">
        <ele>2054.0</ele>
        <time>2019-07-07T07:53:26.837Z</time>
      </trkpt>
      <trkpt lat="42.90736833" lon="0.14868667">
        <ele>2055.0</ele>
        <time>2019-07-07T07:53:27.825Z</time>
      </trkpt>
      <trkpt lat="42.90734667" lon="0.148675">
        <ele>2055.0</ele>
        <time>2019-07-07T07:53:28.817Z</time>
      </trkpt>
      <trkpt lat="42.90734667" lon="0.148675">
        <ele>2055.0</ele>
        <time>2019-07-07T07:53:29.805Z</time>
      </trkpt>
      <trkpt lat="42.90730667" lon="0.148645">
        <ele>2055.0</ele>
        <time>2019-07-07T07:53:30.835Z</time>
      </trkpt>
      <trkpt lat="42.90728667" lon="0.14863">
        <ele>2056.0</ele>
        <time>2019-07-07T07:53:31.814Z</time>
      </trkpt>
      <trkpt lat="42.90728667" lon="0.14863">
        <ele>2056.0</ele>
        <time>2019-07-07T07:53:32.829Z</time>
      </trkpt>
      <trkpt lat="42.90724833" lon="0.14859667">
        <ele>2056.0</ele>
        <time>2019-07-07T07:53:33.837Z</time>
      </trkpt>
      <trkpt lat="42.90722833" lon="0.14858167">
        <ele>2056.0</ele>
        <time>2019-07-07T07:53:34.839Z</time>
      </trkpt>
      <trkpt lat="42.90721" lon="0.148565">
        <ele>2057.0</ele>
        <time>2019-07-07T07:53:35.823Z</time>
      </trkpt>
      <trkpt lat="42.90721" lon="0.148565">
        <ele>2057.0</ele>
        <time>2019-07-07T07:53:36.805Z</time>
      </trkpt>
      <trkpt lat="42.90717" lon="0.14853">
        <ele>2057.0</ele>
        <time>2019-07-07T07:53:37.812Z</time>
      </trkpt>
      <trkpt lat="42.90717" lon="0.14853">
        <ele>2057.0</ele>
        <time>2019-07-07T07:53:38.831Z</time>
      </trkpt>
      <trkpt lat="42.90712833" lon="0.148495">
        <ele>2057.0</ele>
        <time>2019-07-07T07:53:39.820Z</time>
      </trkpt>
      <trkpt lat="42.90710833" lon="0.14847833">
        <ele>2058.0</ele>
        <time>2019-07-07T07:53:40.830Z</time>
      </trkpt>
      <trkpt lat="42.90708833" lon="0.14846167">
        <ele>2058.0</ele>
        <time>2019-07-07T07:53:41.821Z</time>
      </trkpt>
      <trkpt lat="42.90708833" lon="0.14846167">
        <ele>2058.0</ele>
        <time>2019-07-07T07:53:42.838Z</time>
      </trkpt>
      <trkpt lat="42.90704667" lon="0.14842667">
        <ele>2058.0</ele>
        <time>2019-07-07T07:53:43.804Z</time>
      </trkpt>
      <trkpt lat="42.907025" lon="0.14841">
        <ele>2058.0</ele>
        <time>2019-07-07T07:53:44.815Z</time>
      </trkpt>
      <trkpt lat="42.907025" lon="0.14841">
        <ele>2058.0</ele>
        <time>2019-07-07T07:53:45.803Z</time>
      </trkpt>
      <trkpt lat="42.90698333" lon="0.14837667">
        <ele>2059.0</ele>
        <time>2019-07-07T07:53:46.826Z</time>
      </trkpt>
      <trkpt lat="42.90698333" lon="0.14837667">
        <ele>2059.0</ele>
        <time>2019-07-07T07:53:47.910Z</time>
      </trkpt>
      <trkpt lat="42.90694333" lon="0.14834833">
        <ele>2059.0</ele>
        <time>2019-07-07T07:53:48.813Z</time>
      </trkpt>
      <trkpt lat="42.90692167" lon="0.14833333">
        <ele>2060.0</ele>
        <time>2019-07-07T07:53:49.845Z</time>
      </trkpt>
      <trkpt lat="42.90690167" lon="0.14831833">
        <ele>2060.0</ele>
        <time>2019-07-07T07:53:50.811Z</time>
      </trkpt>
      <trkpt lat="42.90688167" lon="0.148305">
        <ele>2060.0</ele>
        <time>2019-07-07T07:53:51.828Z</time>
      </trkpt>
      <trkpt lat="42.90688167" lon="0.148305">
        <ele>2060.0</ele>
        <time>2019-07-07T07:53:52.802Z</time>
      </trkpt>
      <trkpt lat="42.90683833" lon="0.14827667">
        <ele>2060.0</ele>
        <time>2019-07-07T07:53:53.808Z</time>
      </trkpt>
      <trkpt lat="42.906815" lon="0.14826333">
        <ele>2061.0</ele>
        <time>2019-07-07T07:53:54.834Z</time>
      </trkpt>
      <trkpt lat="42.906815" lon="0.14826333">
        <ele>2061.0</ele>
        <time>2019-07-07T07:53:55.814Z</time>
      </trkpt>
      <trkpt lat="42.90677167" lon="0.14824">
        <ele>2061.0</ele>
        <time>2019-07-07T07:53:56.819Z</time>
      </trkpt>
      <trkpt lat="42.90677167" lon="0.14824">
        <ele>2061.0</ele>
        <time>2019-07-07T07:53:57.804Z</time>
      </trkpt>
      <trkpt lat="42.90672667" lon="0.14821833">
        <ele>2062.0</ele>
        <time>2019-07-07T07:53:58.812Z</time>
      </trkpt>
      <trkpt lat="42.90672667" lon="0.14821833">
        <ele>2062.0</ele>
        <time>2019-07-07T07:53:59.835Z</time>
      </trkpt>
      <trkpt lat="42.90668167" lon="0.14820333">
        <ele>2062.0</ele>
        <time>2019-07-07T07:54:00.802Z</time>
      </trkpt>
      <trkpt lat="42.90666" lon="0.14819667">
        <ele>2063.0</ele>
        <time>2019-07-07T07:54:01.823Z</time>
      </trkpt>
      <trkpt lat="42.90666" lon="0.14819667">
        <ele>2063.0</ele>
        <time>2019-07-07T07:54:02.807Z</time>
      </trkpt>
      <trkpt lat="42.90661667" lon="0.14818167">
        <ele>2063.0</ele>
        <time>2019-07-07T07:54:03.813Z</time>
      </trkpt>
      <trkpt lat="42.90659333" lon="0.148175">
        <ele>2063.0</ele>
        <time>2019-07-07T07:54:04.826Z</time>
      </trkpt>
      <trkpt lat="42.90657" lon="0.14816833">
        <ele>2063.0</ele>
        <time>2019-07-07T07:54:05.812Z</time>
      </trkpt>
      <trkpt lat="42.90657" lon="0.14816833">
        <ele>2063.0</ele>
        <time>2019-07-07T07:54:06.825Z</time>
      </trkpt>
      <trkpt lat="42.90652" lon="0.14816167">
        <ele>2064.0</ele>
        <time>2019-07-07T07:54:07.840Z</time>
      </trkpt>
      <trkpt lat="42.906495" lon="0.14816167">
        <ele>2064.0</ele>
        <time>2019-07-07T07:54:08.810Z</time>
      </trkpt>
      <trkpt lat="42.906495" lon="0.14816167">
        <ele>2064.0</ele>
        <time>2019-07-07T07:54:09.836Z</time>
      </trkpt>
      <trkpt lat="42.90644833" lon="0.14816833">
        <ele>2064.0</ele>
        <time>2019-07-07T07:54:10.825Z</time>
      </trkpt>
      <trkpt lat="42.90642333" lon="0.148175">
        <ele>2064.0</ele>
        <time>2019-07-07T07:54:11.814Z</time>
      </trkpt>
      <trkpt lat="42.90642333" lon="0.148175">
        <ele>2064.0</ele>
        <time>2019-07-07T07:54:12.809Z</time>
      </trkpt>
      <trkpt lat="42.906375" lon="0.14818833">
        <ele>2064.0</ele>
        <time>2019-07-07T07:54:13.816Z</time>
      </trkpt>
      <trkpt lat="42.906375" lon="0.14818833">
        <ele>2064.0</ele>
        <time>2019-07-07T07:54:14.835Z</time>
      </trkpt>
      <trkpt lat="42.90632667" lon="0.14821">
        <ele>2064.0</ele>
        <time>2019-07-07T07:54:15.801Z</time>
      </trkpt>
      <trkpt lat="42.90630167" lon="0.14822333">
        <ele>2065.0</ele>
        <time>2019-07-07T07:54:16.822Z</time>
      </trkpt>
      <trkpt lat="42.90630167" lon="0.14822333">
        <ele>2065.0</ele>
        <time>2019-07-07T07:54:17.827Z</time>
      </trkpt>
      <trkpt lat="42.90625333" lon="0.14825167">
        <ele>2065.0</ele>
        <time>2019-07-07T07:54:18.836Z</time>
      </trkpt>
      <trkpt lat="42.90622833" lon="0.14826333">
        <ele>2065.0</ele>
        <time>2019-07-07T07:54:19.823Z</time>
      </trkpt>
      <trkpt lat="42.906205" lon="0.14827333">
        <ele>2065.0</ele>
        <time>2019-07-07T07:54:20.802Z</time>
      </trkpt>
      <trkpt lat="42.906205" lon="0.14827333">
        <ele>2065.0</ele>
        <time>2019-07-07T07:54:21.812Z</time>
      </trkpt>
      <trkpt lat="42.90615667" lon="0.14828667">
        <ele>2066.0</ele>
        <time>2019-07-07T07:54:22.818Z</time>
      </trkpt>
      <trkpt lat="42.90615667" lon="0.14828667">
        <ele>2066.0</ele>
        <time>2019-07-07T07:54:23.828Z</time>
      </trkpt>
      <trkpt lat="42.90611667" lon="0.14828167">
        <ele>2066.0</ele>
        <time>2019-07-07T07:54:24.807Z</time>
      </trkpt>
      <trkpt lat="42.90611667" lon="0.14828167">
        <ele>2066.0</ele>
        <time>2019-07-07T07:54:25.829Z</time>
      </trkpt>
      <trkpt lat="42.906085" lon="0.14825333">
        <ele>2066.0</ele>
        <time>2019-07-07T07:54:26.838Z</time>
      </trkpt>
      <trkpt lat="42.90607333" lon="0.148235">
        <ele>2067.0</ele>
        <time>2019-07-07T07:54:27.823Z</time>
      </trkpt>
      <trkpt lat="42.90606833" lon="0.14821">
        <ele>2067.0</ele>
        <time>2019-07-07T07:54:28.809Z</time>
      </trkpt>
      <trkpt lat="42.90606833" lon="0.14821">
        <ele>2067.0</ele>
        <time>2019-07-07T07:54:29.816Z</time>
      </trkpt>
      <trkpt lat="42.906065" lon="0.14815333">
        <ele>2067.0</ele>
        <time>2019-07-07T07:54:30.832Z</time>
      </trkpt>
      <trkpt lat="42.906065" lon="0.14815333">
        <ele>2067.0</ele>
        <time>2019-07-07T07:54:31.830Z</time>
      </trkpt>
      <trkpt lat="42.90607667" lon="0.14810167">
        <ele>2068.0</ele>
        <time>2019-07-07T07:54:32.836Z</time>
      </trkpt>
      <trkpt lat="42.90608833" lon="0.14808167">
        <ele>2068.0</ele>
        <time>2019-07-07T07:54:33.814Z</time>
      </trkpt>
      <trkpt lat="42.90610333" lon="0.14806">
        <ele>2068.0</ele>
        <time>2019-07-07T07:54:34.801Z</time>
      </trkpt>
      <trkpt lat="42.90610333" lon="0.14806">
        <ele>2068.0</ele>
        <time>2019-07-07T07:54:35.826Z</time>
      </trkpt>
      <trkpt lat="42.90613333" lon="0.148025">
        <ele>2069.0</ele>
        <time>2019-07-07T07:54:36.835Z</time>
      </trkpt>
      <trkpt lat="42.90615" lon="0.14801167">
        <ele>2069.0</ele>
        <time>2019-07-07T07:54:37.825Z</time>
      </trkpt>
      <trkpt lat="42.90615" lon="0.14801167">
        <ele>2069.0</ele>
        <time>2019-07-07T07:54:38.808Z</time>
      </trkpt>
      <trkpt lat="42.90619167" lon="0.14798833">
        <ele>2069.0</ele>
        <time>2019-07-07T07:54:39.832Z</time>
      </trkpt>
      <trkpt lat="42.90619167" lon="0.14798833">
        <ele>2069.0</ele>
        <time>2019-07-07T07:54:40.837Z</time>
      </trkpt>
      <trkpt lat="42.90623667" lon="0.14796833">
        <ele>2070.0</ele>
        <time>2019-07-07T07:54:41.814Z</time>
      </trkpt>
      <trkpt lat="42.90623667" lon="0.14796833">
        <ele>2070.0</ele>
        <time>2019-07-07T07:54:42.807Z</time>
      </trkpt>
      <trkpt lat="42.90628167" lon="0.14795167">
        <ele>2070.0</ele>
        <time>2019-07-07T07:54:43.825Z</time>
      </trkpt>
      <trkpt lat="42.906305" lon="0.14794333">
        <ele>2070.0</ele>
        <time>2019-07-07T07:54:44.829Z</time>
      </trkpt>
      <trkpt lat="42.906305" lon="0.14794333">
        <ele>2070.0</ele>
        <time>2019-07-07T07:54:45.814Z</time>
      </trkpt>
      <trkpt lat="42.90635167" lon="0.147925">
        <ele>2071.0</ele>
        <time>2019-07-07T07:54:46.820Z</time>
      </trkpt>
      <trkpt lat="42.90635167" lon="0.147925">
        <ele>2071.0</ele>
        <time>2019-07-07T07:54:47.806Z</time>
      </trkpt>
      <trkpt lat="42.90639667" lon="0.14790833">
        <ele>2071.0</ele>
        <time>2019-07-07T07:54:48.802Z</time>
      </trkpt>
      <trkpt lat="42.90642" lon="0.14790333">
        <ele>2071.0</ele>
        <time>2019-07-07T07:54:49.829Z</time>
      </trkpt>
      <trkpt lat="42.90642" lon="0.14790333">
        <ele>2071.0</ele>
        <time>2019-07-07T07:54:50.839Z</time>
      </trkpt>
      <trkpt lat="42.906465" lon="0.14789">
        <ele>2072.0</ele>
        <time>2019-07-07T07:54:51.819Z</time>
      </trkpt>
      <trkpt lat="42.906465" lon="0.14789">
        <ele>2072.0</ele>
        <time>2019-07-07T07:54:52.826Z</time>
      </trkpt>
      <trkpt lat="42.90650667" lon="0.14788">
        <ele>2073.0</ele>
        <time>2019-07-07T07:54:53.834Z</time>
      </trkpt>
      <trkpt lat="42.90650667" lon="0.14788">
        <ele>2073.0</ele>
        <time>2019-07-07T07:54:54.840Z</time>
      </trkpt>
      <trkpt lat="42.90655333" lon="0.14786833">
        <ele>2073.0</ele>
        <time>2019-07-07T07:54:55.805Z</time>
      </trkpt>
      <trkpt lat="42.90657667" lon="0.14786333">
        <ele>2074.0</ele>
        <time>2019-07-07T07:54:56.835Z</time>
      </trkpt>
      <trkpt lat="42.90657667" lon="0.14786333">
        <ele>2074.0</ele>
        <time>2019-07-07T07:54:57.826Z</time>
      </trkpt>
      <trkpt lat="42.90661833" lon="0.14785167">
        <ele>2074.0</ele>
        <time>2019-07-07T07:54:58.833Z</time>
      </trkpt>
      <trkpt lat="42.90661833" lon="0.14785167">
        <ele>2074.0</ele>
        <time>2019-07-07T07:54:59.817Z</time>
      </trkpt>
      <trkpt lat="42.90666667" lon="0.14784">
        <ele>2075.0</ele>
        <time>2019-07-07T07:55:00.836Z</time>
      </trkpt>
      <trkpt lat="42.90669167" lon="0.147835">
        <ele>2075.0</ele>
        <time>2019-07-07T07:55:01.825Z</time>
      </trkpt>
      <trkpt lat="42.90669167" lon="0.147835">
        <ele>2075.0</ele>
        <time>2019-07-07T07:55:02.810Z</time>
      </trkpt>
      <trkpt lat="42.90674" lon="0.147825">
        <ele>2076.0</ele>
        <time>2019-07-07T07:55:03.816Z</time>
      </trkpt>
      <trkpt lat="42.906765" lon="0.14781833">
        <ele>2076.0</ele>
        <time>2019-07-07T07:55:04.804Z</time>
      </trkpt>
      <trkpt lat="42.906765" lon="0.14781833">
        <ele>2076.0</ele>
        <time>2019-07-07T07:55:05.828Z</time>
      </trkpt>
      <trkpt lat="42.90681667" lon="0.147805">
        <ele>2077.0</ele>
        <time>2019-07-07T07:55:06.805Z</time>
      </trkpt>
      <trkpt lat="42.90684167" lon="0.14780167">
        <ele>2078.0</ele>
        <time>2019-07-07T07:55:07.811Z</time>
      </trkpt>
      <trkpt lat="42.90684167" lon="0.14780167">
        <ele>2078.0</ele>
        <time>2019-07-07T07:55:08.820Z</time>
      </trkpt>
      <trkpt lat="42.90689167" lon="0.14778333">
        <ele>2079.0</ele>
        <time>2019-07-07T07:55:09.840Z</time>
      </trkpt>
      <trkpt lat="42.90691667" lon="0.14777333">
        <ele>2079.0</ele>
        <time>2019-07-07T07:55:10.802Z</time>
      </trkpt>
      <trkpt lat="42.90691667" lon="0.14777333">
        <ele>2079.0</ele>
        <time>2019-07-07T07:55:11.824Z</time>
      </trkpt>
      <trkpt lat="42.90696667" lon="0.14776">
        <ele>2081.0</ele>
        <time>2019-07-07T07:55:12.822Z</time>
      </trkpt>
      <trkpt lat="42.90696667" lon="0.14776">
        <ele>2081.0</ele>
        <time>2019-07-07T07:55:13.803Z</time>
      </trkpt>
      <trkpt lat="42.90701667" lon="0.147745">
        <ele>2081.0</ele>
        <time>2019-07-07T07:55:14.821Z</time>
      </trkpt>
      <trkpt lat="42.90703833" lon="0.147735">
        <ele>2082.0</ele>
        <time>2019-07-07T07:55:15.813Z</time>
      </trkpt>
      <trkpt lat="42.90706167" lon="0.14772167">
        <ele>2082.0</ele>
        <time>2019-07-07T07:55:16.840Z</time>
      </trkpt>
      <trkpt lat="42.90706167" lon="0.14772167">
        <ele>2082.0</ele>
        <time>2019-07-07T07:55:17.839Z</time>
      </trkpt>
      <trkpt lat="42.90711" lon="0.147705">
        <ele>2084.0</ele>
        <time>2019-07-07T07:55:18.816Z</time>
      </trkpt>
      <trkpt lat="42.90713667" lon="0.14769833">
        <ele>2084.0</ele>
        <time>2019-07-07T07:55:19.803Z</time>
      </trkpt>
      <trkpt lat="42.90713667" lon="0.14769833">
        <ele>2084.0</ele>
        <time>2019-07-07T07:55:20.829Z</time>
      </trkpt>
      <trkpt lat="42.90719" lon="0.14768833">
        <ele>2085.0</ele>
        <time>2019-07-07T07:55:21.812Z</time>
      </trkpt>
      <trkpt lat="42.90719" lon="0.14768833">
        <ele>2085.0</ele>
        <time>2019-07-07T07:55:22.819Z</time>
      </trkpt>
      <trkpt lat="42.90724167" lon="0.14767333">
        <ele>2086.0</ele>
        <time>2019-07-07T07:55:23.825Z</time>
      </trkpt>
      <trkpt lat="42.90724167" lon="0.14767333">
        <ele>2086.0</ele>
        <time>2019-07-07T07:55:24.801Z</time>
      </trkpt>
      <trkpt lat="42.90728833" lon="0.14765667">
        <ele>2087.0</ele>
        <time>2019-07-07T07:55:25.833Z</time>
      </trkpt>
      <trkpt lat="42.90731167" lon="0.14764667">
        <ele>2087.0</ele>
        <time>2019-07-07T07:55:26.837Z</time>
      </trkpt>
      <trkpt lat="42.90731167" lon="0.14764667">
        <ele>2087.0</ele>
        <time>2019-07-07T07:55:27.823Z</time>
      </trkpt>
      <trkpt lat="42.90736167" lon="0.147625">
        <ele>2088.0</ele>
        <time>2019-07-07T07:55:28.829Z</time>
      </trkpt>
      <trkpt lat="42.90736167" lon="0.147625">
        <ele>2088.0</ele>
        <time>2019-07-07T07:55:29.812Z</time>
      </trkpt>
      <trkpt lat="42.90740333" lon="0.14759">
        <ele>2089.0</ele>
        <time>2019-07-07T07:55:30.819Z</time>
      </trkpt>
      <trkpt lat="42.90742667" lon="0.147575">
        <ele>2089.0</ele>
        <time>2019-07-07T07:55:31.820Z</time>
      </trkpt>
      <trkpt lat="42.90742667" lon="0.147575">
        <ele>2089.0</ele>
        <time>2019-07-07T07:55:32.840Z</time>
      </trkpt>
      <trkpt lat="42.90746667" lon="0.14753833">
        <ele>2090.0</ele>
        <time>2019-07-07T07:55:33.806Z</time>
      </trkpt>
      <trkpt lat="42.90748667" lon="0.14752167">
        <ele>2090.0</ele>
        <time>2019-07-07T07:55:34.836Z</time>
      </trkpt>
      <trkpt lat="42.90748667" lon="0.14752167">
        <ele>2090.0</ele>
        <time>2019-07-07T07:55:35.814Z</time>
      </trkpt>
      <trkpt lat="42.907525" lon="0.14748">
        <ele>2090.0</ele>
        <time>2019-07-07T07:55:36.821Z</time>
      </trkpt>
      <trkpt lat="42.90754333" lon="0.14745833">
        <ele>2091.0</ele>
        <time>2019-07-07T07:55:37.808Z</time>
      </trkpt>
      <trkpt lat="42.90754333" lon="0.14745833">
        <ele>2091.0</ele>
        <time>2019-07-07T07:55:38.817Z</time>
      </trkpt>
      <trkpt lat="42.90758" lon="0.147415">
        <ele>2091.0</ele>
        <time>2019-07-07T07:55:39.831Z</time>
      </trkpt>
      <trkpt lat="42.90758" lon="0.147415">
        <ele>2091.0</ele>
        <time>2019-07-07T07:55:40.809Z</time>
      </trkpt>
      <trkpt lat="42.90761833" lon="0.14737667">
        <ele>2092.0</ele>
        <time>2019-07-07T07:55:41.817Z</time>
      </trkpt>
      <trkpt lat="42.90761833" lon="0.14737667">
        <ele>2092.0</ele>
        <time>2019-07-07T07:55:42.840Z</time>
      </trkpt>
      <trkpt lat="42.90765333" lon="0.147335">
        <ele>2093.0</ele>
        <time>2019-07-07T07:55:43.834Z</time>
      </trkpt>
      <trkpt lat="42.90767167" lon="0.147315">
        <ele>2093.0</ele>
        <time>2019-07-07T07:55:44.806Z</time>
      </trkpt>
      <trkpt lat="42.90767167" lon="0.147315">
        <ele>2093.0</ele>
        <time>2019-07-07T07:55:45.829Z</time>
      </trkpt>
      <trkpt lat="42.90770667" lon="0.14727167">
        <ele>2094.0</ele>
        <time>2019-07-07T07:55:46.818Z</time>
      </trkpt>
      <trkpt lat="42.90772167" lon="0.147245">
        <ele>2094.0</ele>
        <time>2019-07-07T07:55:47.819Z</time>
      </trkpt>
      <trkpt lat="42.90772167" lon="0.147245">
        <ele>2094.0</ele>
        <time>2019-07-07T07:55:48.840Z</time>
      </trkpt>
      <trkpt lat="42.907755" lon="0.14720167">
        <ele>2095.0</ele>
        <time>2019-07-07T07:55:49.807Z</time>
      </trkpt>
      <trkpt lat="42.90777167" lon="0.14718167">
        <ele>2095.0</ele>
        <time>2019-07-07T07:55:50.834Z</time>
      </trkpt>
      <trkpt lat="42.907785" lon="0.14716">
        <ele>2096.0</ele>
        <time>2019-07-07T07:55:51.822Z</time>
      </trkpt>
      <trkpt lat="42.907785" lon="0.14716">
        <ele>2096.0</ele>
        <time>2019-07-07T07:55:52.806Z</time>
      </trkpt>
      <trkpt lat="42.90781667" lon="0.14712333">
        <ele>2096.0</ele>
        <time>2019-07-07T07:55:53.814Z</time>
      </trkpt>
      <trkpt lat="42.90781667" lon="0.14712333">
        <ele>2096.0</ele>
        <time>2019-07-07T07:55:54.830Z</time>
      </trkpt>
      <trkpt lat="42.907845" lon="0.14707333">
        <ele>2097.0</ele>
        <time>2019-07-07T07:55:55.802Z</time>
      </trkpt>
      <trkpt lat="42.907845" lon="0.14707333">
        <ele>2097.0</ele>
        <time>2019-07-07T07:55:56.815Z</time>
      </trkpt>
      <trkpt lat="42.907875" lon="0.147025">
        <ele>2098.0</ele>
        <time>2019-07-07T07:55:57.822Z</time>
      </trkpt>
      <trkpt lat="42.907875" lon="0.147025">
        <ele>2098.0</ele>
        <time>2019-07-07T07:55:58.802Z</time>
      </trkpt>
      <trkpt lat="42.90791167" lon="0.14698667">
        <ele>2098.0</ele>
        <time>2019-07-07T07:55:59.814Z</time>
      </trkpt>
      <trkpt lat="42.90791167" lon="0.14698667">
        <ele>2098.0</ele>
        <time>2019-07-07T07:56:00.822Z</time>
      </trkpt>
      <trkpt lat="42.90794833" lon="0.14693833">
        <ele>2098.0</ele>
        <time>2019-07-07T07:56:01.829Z</time>
      </trkpt>
      <trkpt lat="42.90794833" lon="0.14693833">
        <ele>2098.0</ele>
        <time>2019-07-07T07:56:02.813Z</time>
      </trkpt>
      <trkpt lat="42.90798167" lon="0.14689167">
        <ele>2099.0</ele>
        <time>2019-07-07T07:56:03.830Z</time>
      </trkpt>
      <trkpt lat="42.90799833" lon="0.14686667">
        <ele>2099.0</ele>
        <time>2019-07-07T07:56:04.808Z</time>
      </trkpt>
      <trkpt lat="42.90799833" lon="0.14686667">
        <ele>2099.0</ele>
        <time>2019-07-07T07:56:05.832Z</time>
      </trkpt>
      <trkpt lat="42.90803333" lon="0.146825">
        <ele>2100.0</ele>
        <time>2019-07-07T07:56:06.805Z</time>
      </trkpt>
      <trkpt lat="42.90803333" lon="0.146825">
        <ele>2100.0</ele>
        <time>2019-07-07T07:56:07.824Z</time>
      </trkpt>
      <trkpt lat="42.90807" lon="0.14678167">
        <ele>2100.0</ele>
        <time>2019-07-07T07:56:08.832Z</time>
      </trkpt>
      <trkpt lat="42.90808667" lon="0.14676">
        <ele>2100.0</ele>
        <time>2019-07-07T07:56:09.816Z</time>
      </trkpt>
      <trkpt lat="42.90808667" lon="0.14676">
        <ele>2100.0</ele>
        <time>2019-07-07T07:56:10.812Z</time>
      </trkpt>
      <trkpt lat="42.90812167" lon="0.14672">
        <ele>2101.0</ele>
        <time>2019-07-07T07:56:11.818Z</time>
      </trkpt>
      <trkpt lat="42.90812167" lon="0.14672">
        <ele>2101.0</ele>
        <time>2019-07-07T07:56:12.817Z</time>
      </trkpt>
      <trkpt lat="42.90815667" lon="0.14667833">
        <ele>2101.0</ele>
        <time>2019-07-07T07:56:13.827Z</time>
      </trkpt>
      <trkpt lat="42.90817333" lon="0.14665667">
        <ele>2102.0</ele>
        <time>2019-07-07T07:56:14.810Z</time>
      </trkpt>
      <trkpt lat="42.90817333" lon="0.14665667">
        <ele>2102.0</ele>
        <time>2019-07-07T07:56:15.826Z</time>
      </trkpt>
      <trkpt lat="42.90820667" lon="0.146615">
        <ele>2102.0</ele>
        <time>2019-07-07T07:56:16.832Z</time>
      </trkpt>
      <trkpt lat="42.90820667" lon="0.146615">
        <ele>2102.0</ele>
        <time>2019-07-07T07:56:17.819Z</time>
      </trkpt>
      <trkpt lat="42.908245" lon="0.14658">
        <ele>2103.0</ele>
        <time>2019-07-07T07:56:18.825Z</time>
      </trkpt>
      <trkpt lat="42.908245" lon="0.14658">
        <ele>2103.0</ele>
        <time>2019-07-07T07:56:19.811Z</time>
      </trkpt>
      <trkpt lat="42.90827833" lon="0.14654167">
        <ele>2103.0</ele>
        <time>2019-07-07T07:56:20.816Z</time>
      </trkpt>
      <trkpt lat="42.90829333" lon="0.14652">
        <ele>2103.0</ele>
        <time>2019-07-07T07:56:21.825Z</time>
      </trkpt>
      <trkpt lat="42.90829333" lon="0.14652">
        <ele>2103.0</ele>
        <time>2019-07-07T07:56:22.839Z</time>
      </trkpt>
      <trkpt lat="42.90832667" lon="0.14648">
        <ele>2104.0</ele>
        <time>2019-07-07T07:56:23.806Z</time>
      </trkpt>
      <trkpt lat="42.90834333" lon="0.14645833">
        <ele>2104.0</ele>
        <time>2019-07-07T07:56:24.830Z</time>
      </trkpt>
      <trkpt lat="42.90834333" lon="0.14645833">
        <ele>2104.0</ele>
        <time>2019-07-07T07:56:25.812Z</time>
      </trkpt>
      <trkpt lat="42.908375" lon="0.14642">
        <ele>2105.0</ele>
        <time>2019-07-07T07:56:26.818Z</time>
      </trkpt>
      <trkpt lat="42.90838833" lon="0.1464">
        <ele>2105.0</ele>
        <time>2019-07-07T07:56:27.838Z</time>
      </trkpt>
      <trkpt lat="42.90838833" lon="0.1464">
        <ele>2105.0</ele>
        <time>2019-07-07T07:56:28.817Z</time>
      </trkpt>
      <trkpt lat="42.90842333" lon="0.14636333">
        <ele>2106.0</ele>
        <time>2019-07-07T07:56:29.826Z</time>
      </trkpt>
      <trkpt lat="42.90842333" lon="0.14636333">
        <ele>2106.0</ele>
        <time>2019-07-07T07:56:30.840Z</time>
      </trkpt>
      <trkpt lat="42.90845833" lon="0.146325">
        <ele>2106.0</ele>
        <time>2019-07-07T07:56:31.814Z</time>
      </trkpt>
      <trkpt lat="42.90845833" lon="0.146325">
        <ele>2106.0</ele>
        <time>2019-07-07T07:56:32.806Z</time>
      </trkpt>
      <trkpt lat="42.908485" lon="0.14628333">
        <ele>2106.0</ele>
        <time>2019-07-07T07:56:33.836Z</time>
      </trkpt>
      <trkpt lat="42.908485" lon="0.14628333">
        <ele>2106.0</ele>
        <time>2019-07-07T07:56:34.809Z</time>
      </trkpt>
      <trkpt lat="42.90851167" lon="0.14624">
        <ele>2107.0</ele>
        <time>2019-07-07T07:56:35.815Z</time>
      </trkpt>
      <trkpt lat="42.90851167" lon="0.14624">
        <ele>2107.0</ele>
        <time>2019-07-07T07:56:36.807Z</time>
      </trkpt>
      <trkpt lat="42.90854333" lon="0.14619667">
        <ele>2107.0</ele>
        <time>2019-07-07T07:56:37.824Z</time>
      </trkpt>
      <trkpt lat="42.90854333" lon="0.14619667">
        <ele>2107.0</ele>
        <time>2019-07-07T07:56:38.806Z</time>
      </trkpt>
      <trkpt lat="42.90857" lon="0.14614667">
        <ele>2108.0</ele>
        <time>2019-07-07T07:56:39.812Z</time>
      </trkpt>
      <trkpt lat="42.90858167" lon="0.14612167">
        <ele>2108.0</ele>
        <time>2019-07-07T07:56:40.802Z</time>
      </trkpt>
      <trkpt lat="42.908595" lon="0.146095">
        <ele>2108.0</ele>
        <time>2019-07-07T07:56:41.835Z</time>
      </trkpt>
      <trkpt lat="42.908595" lon="0.146095">
        <ele>2108.0</ele>
        <time>2019-07-07T07:56:42.812Z</time>
      </trkpt>
      <trkpt lat="42.90861833" lon="0.14604167">
        <ele>2109.0</ele>
        <time>2019-07-07T07:56:43.819Z</time>
      </trkpt>
      <trkpt lat="42.90862833" lon="0.14601333">
        <ele>2109.0</ele>
        <time>2019-07-07T07:56:44.838Z</time>
      </trkpt>
      <trkpt lat="42.90862833" lon="0.14601333">
        <ele>2109.0</ele>
        <time>2019-07-07T07:56:45.805Z</time>
      </trkpt>
      <trkpt lat="42.90864667" lon="0.14595333">
        <ele>2110.0</ele>
        <time>2019-07-07T07:56:46.834Z</time>
      </trkpt>
      <trkpt lat="42.90864667" lon="0.14595333">
        <ele>2110.0</ele>
        <time>2019-07-07T07:56:47.819Z</time>
      </trkpt>
      <trkpt lat="42.90865333" lon="0.14589167">
        <ele>2110.0</ele>
        <time>2019-07-07T07:56:48.838Z</time>
      </trkpt>
      <trkpt lat="42.90865333" lon="0.14586667">
        <ele>2111.0</ele>
        <time>2019-07-07T07:56:49.823Z</time>
      </trkpt>
      <trkpt lat="42.90865333" lon="0.14586667">
        <ele>2111.0</ele>
        <time>2019-07-07T07:56:50.806Z</time>
      </trkpt>
      <trkpt lat="42.90864833" lon="0.145815">
        <ele>2111.0</ele>
        <time>2019-07-07T07:56:51.815Z</time>
      </trkpt>
      <trkpt lat="42.90864" lon="0.14578833">
        <ele>2111.0</ele>
        <time>2019-07-07T07:56:52.829Z</time>
      </trkpt>
      <trkpt lat="42.90864" lon="0.14578833">
        <ele>2111.0</ele>
        <time>2019-07-07T07:56:53.810Z</time>
      </trkpt>
      <trkpt lat="42.90862167" lon="0.14573833">
        <ele>2111.0</ele>
        <time>2019-07-07T07:56:54.816Z</time>
      </trkpt>
      <trkpt lat="42.90861167" lon="0.14570833">
        <ele>2112.0</ele>
        <time>2019-07-07T07:56:55.837Z</time>
      </trkpt>
      <trkpt lat="42.90861167" lon="0.14570833">
        <ele>2112.0</ele>
        <time>2019-07-07T07:56:56.802Z</time>
      </trkpt>
      <trkpt lat="42.90858833" lon="0.14565167">
        <ele>2112.0</ele>
        <time>2019-07-07T07:56:57.808Z</time>
      </trkpt>
      <trkpt lat="42.90858" lon="0.14562">
        <ele>2113.0</ele>
        <time>2019-07-07T07:56:58.836Z</time>
      </trkpt>
      <trkpt lat="42.90858" lon="0.14562">
        <ele>2113.0</ele>
        <time>2019-07-07T07:56:59.816Z</time>
      </trkpt>
      <trkpt lat="42.90855333" lon="0.14556167">
        <ele>2113.0</ele>
        <time>2019-07-07T07:57:00.822Z</time>
      </trkpt>
      <trkpt lat="42.90853833" lon="0.145535">
        <ele>2113.0</ele>
        <time>2019-07-07T07:57:01.807Z</time>
      </trkpt>
      <trkpt lat="42.90853833" lon="0.145535">
        <ele>2113.0</ele>
        <time>2019-07-07T07:57:02.819Z</time>
      </trkpt>
      <trkpt lat="42.90851167" lon="0.14548167">
        <ele>2113.0</ele>
        <time>2019-07-07T07:57:03.826Z</time>
      </trkpt>
      <trkpt lat="42.90849833" lon="0.145455">
        <ele>2113.0</ele>
        <time>2019-07-07T07:57:04.817Z</time>
      </trkpt>
      <trkpt lat="42.90849833" lon="0.145455">
        <ele>2113.0</ele>
        <time>2019-07-07T07:57:05.824Z</time>
      </trkpt>
      <trkpt lat="42.90846833" lon="0.14541">
        <ele>2113.0</ele>
        <time>2019-07-07T07:57:06.830Z</time>
      </trkpt>
      <trkpt lat="42.908455" lon="0.14539">
        <ele>2113.0</ele>
        <time>2019-07-07T07:57:07.815Z</time>
      </trkpt>
      <trkpt lat="42.908455" lon="0.14539">
        <ele>2113.0</ele>
        <time>2019-07-07T07:57:08.816Z</time>
      </trkpt>
      <trkpt lat="42.90842833" lon="0.14535833">
        <ele>2114.0</ele>
        <time>2019-07-07T07:57:09.823Z</time>
      </trkpt>
      <trkpt lat="42.90842833" lon="0.14535833">
        <ele>2114.0</ele>
        <time>2019-07-07T07:57:10.838Z</time>
      </trkpt>
      <trkpt lat="42.908405" lon="0.145335">
        <ele>2114.0</ele>
        <time>2019-07-07T07:57:11.814Z</time>
      </trkpt>
      <trkpt lat="42.908405" lon="0.145335">
        <ele>2114.0</ele>
        <time>2019-07-07T07:57:12.826Z</time>
      </trkpt>
      <trkpt lat="42.90838833" lon="0.14531167">
        <ele>2114.0</ele>
        <time>2019-07-07T07:57:13.837Z</time>
      </trkpt>
      <trkpt lat="42.90837833" lon="0.145305">
        <ele>2114.0</ele>
        <time>2019-07-07T07:57:14.829Z</time>
      </trkpt>
      <trkpt lat="42.90837333" lon="0.1453">
        <ele>2114.0</ele>
        <time>2019-07-07T07:57:15.804Z</time>
      </trkpt>
      <trkpt lat="42.90837333" lon="0.1453">
        <ele>2114.0</ele>
        <time>2019-07-07T07:57:16.836Z</time>
      </trkpt>
      <trkpt lat="42.90836333" lon="0.14529333">
        <ele>2114.0</ele>
        <time>2019-07-07T07:57:17.802Z</time>
      </trkpt>
      <trkpt lat="42.90836333" lon="0.14529333">
        <ele>2114.0</ele>
        <time>2019-07-07T07:57:18.827Z</time>
      </trkpt>
      <trkpt lat="42.90836333" lon="0.14529333">
        <ele>2114.0</ele>
        <time>2019-07-07T07:57:19.831Z</time>
      </trkpt>
      <trkpt lat="42.90836333" lon="0.14529333">
        <ele>2114.0</ele>
        <time>2019-07-07T07:57:20.818Z</time>
      </trkpt>
      <trkpt lat="42.908235" lon="0.14509167">
        <ele>2110.0</ele>
        <time>2019-07-07T07:57:21.820Z</time>
      </trkpt>
      <trkpt lat="42.908205" lon="0.14508333">
        <ele>2109.0</ele>
        <time>2019-07-07T07:57:22.840Z</time>
      </trkpt>
      <trkpt lat="42.908205" lon="0.14508333">
        <ele>2109.0</ele>
        <time>2019-07-07T07:57:23.811Z</time>
      </trkpt>
      <trkpt lat="42.90814333" lon="0.14508">
        <ele>2109.0</ele>
        <time>2019-07-07T07:57:24.829Z</time>
      </trkpt>
      <trkpt lat="42.90812167" lon="0.145085">
        <ele>2109.0</ele>
        <time>2019-07-07T07:57:25.835Z</time>
      </trkpt>
      <trkpt lat="42.90812167" lon="0.145085">
        <ele>2109.0</ele>
        <time>2019-07-07T07:57:26.820Z</time>
      </trkpt>
      <trkpt lat="42.908075" lon="0.14511">
        <ele>2108.0</ele>
        <time>2019-07-07T07:57:27.839Z</time>
      </trkpt>
      <trkpt lat="42.908075" lon="0.14511">
        <ele>2108.0</ele>
        <time>2019-07-07T07:57:28.821Z</time>
      </trkpt>
      <trkpt lat="42.90801667" lon="0.14513667">
        <ele>2108.0</ele>
        <time>2019-07-07T07:57:29.832Z</time>
      </trkpt>
      <trkpt lat="42.90801667" lon="0.14513667">
        <ele>2108.0</ele>
        <time>2019-07-07T07:57:30.813Z</time>
      </trkpt>
      <trkpt lat="42.90796167" lon="0.145175">
        <ele>2108.0</ele>
        <time>2019-07-07T07:57:31.816Z</time>
      </trkpt>
      <trkpt lat="42.90796167" lon="0.145175">
        <ele>2108.0</ele>
        <time>2019-07-07T07:57:32.827Z</time>
      </trkpt>
      <trkpt lat="42.90791333" lon="0.1452">
        <ele>2108.0</ele>
        <time>2019-07-07T07:57:33.833Z</time>
      </trkpt>
      <trkpt lat="42.90789167" lon="0.14520333">
        <ele>2108.0</ele>
        <time>2019-07-07T07:57:34.840Z</time>
      </trkpt>
      <trkpt lat="42.90789167" lon="0.14520333">
        <ele>2108.0</ele>
        <time>2019-07-07T07:57:35.823Z</time>
      </trkpt>
      <trkpt lat="42.90785" lon="0.14520333">
        <ele>2108.0</ele>
        <time>2019-07-07T07:57:36.829Z</time>
      </trkpt>
      <trkpt lat="42.90785" lon="0.14520333">
        <ele>2108.0</ele>
        <time>2019-07-07T07:57:37.824Z</time>
      </trkpt>
      <trkpt lat="42.90781167" lon="0.14520167">
        <ele>2108.0</ele>
        <time>2019-07-07T07:57:38.823Z</time>
      </trkpt>
      <trkpt lat="42.90781167" lon="0.14520167">
        <ele>2108.0</ele>
        <time>2019-07-07T07:57:39.821Z</time>
      </trkpt>
      <trkpt lat="42.907765" lon="0.145195">
        <ele>2107.0</ele>
        <time>2019-07-07T07:57:40.827Z</time>
      </trkpt>
      <trkpt lat="42.907765" lon="0.145195">
        <ele>2107.0</ele>
        <time>2019-07-07T07:57:41.811Z</time>
      </trkpt>
      <trkpt lat="42.90771333" lon="0.14518167">
        <ele>2107.0</ele>
        <time>2019-07-07T07:57:42.815Z</time>
      </trkpt>
      <trkpt lat="42.90771333" lon="0.14518167">
        <ele>2107.0</ele>
        <time>2019-07-07T07:57:43.839Z</time>
      </trkpt>
      <trkpt lat="42.90765667" lon="0.14516">
        <ele>2106.0</ele>
        <time>2019-07-07T07:57:44.809Z</time>
      </trkpt>
      <trkpt lat="42.907625" lon="0.14514833">
        <ele>2105.0</ele>
        <time>2019-07-07T07:57:45.824Z</time>
      </trkpt>
      <trkpt lat="42.907625" lon="0.14514833">
        <ele>2105.0</ele>
        <time>2019-07-07T07:57:46.812Z</time>
      </trkpt>
      <trkpt lat="42.90755333" lon="0.14512667">
        <ele>2104.0</ele>
        <time>2019-07-07T07:57:47.833Z</time>
      </trkpt>
      <trkpt lat="42.90755333" lon="0.14512667">
        <ele>2104.0</ele>
        <time>2019-07-07T07:57:48.823Z</time>
      </trkpt>
      <trkpt lat="42.90747" lon="0.14511">
        <ele>2103.0</ele>
        <time>2019-07-07T07:57:49.831Z</time>
      </trkpt>
      <trkpt lat="42.90747" lon="0.14511">
        <ele>2103.0</ele>
        <time>2019-07-07T07:57:50.837Z</time>
      </trkpt>
      <trkpt lat="42.90738167" lon="0.14510667">
        <ele>2102.0</ele>
        <time>2019-07-07T07:57:51.813Z</time>
      </trkpt>
      <trkpt lat="42.90733667" lon="0.14511">
        <ele>2102.0</ele>
        <time>2019-07-07T07:57:52.807Z</time>
      </trkpt>
      <trkpt lat="42.90733667" lon="0.14511">
        <ele>2102.0</ele>
        <time>2019-07-07T07:57:53.831Z</time>
      </trkpt>
      <trkpt lat="42.90724167" lon="0.14513333">
        <ele>2100.0</ele>
        <time>2019-07-07T07:57:54.838Z</time>
      </trkpt>
      <trkpt lat="42.90724167" lon="0.14513333">
        <ele>2100.0</ele>
        <time>2019-07-07T07:57:55.811Z</time>
      </trkpt>
      <trkpt lat="42.90713" lon="0.145155">
        <ele>2099.0</ele>
        <time>2019-07-07T07:57:56.811Z</time>
      </trkpt>
      <trkpt lat="42.90713" lon="0.145155">
        <ele>2099.0</ele>
        <time>2019-07-07T07:57:57.834Z</time>
      </trkpt>
      <trkpt lat="42.90702333" lon="0.14517667">
        <ele>2098.0</ele>
        <time>2019-07-07T07:57:58.840Z</time>
      </trkpt>
      <trkpt lat="42.90702333" lon="0.14517667">
        <ele>2098.0</ele>
        <time>2019-07-07T07:57:59.816Z</time>
      </trkpt>
      <trkpt lat="42.90691667" lon="0.14521667">
        <ele>2096.0</ele>
        <time>2019-07-07T07:58:00.801Z</time>
      </trkpt>
      <trkpt lat="42.90691667" lon="0.14521667">
        <ele>2096.0</ele>
        <time>2019-07-07T07:58:01.811Z</time>
      </trkpt>
      <trkpt lat="42.90681667" lon="0.14533">
        <ele>2095.0</ele>
        <time>2019-07-07T07:58:02.820Z</time>
      </trkpt>
      <trkpt lat="42.90681667" lon="0.14533">
        <ele>2095.0</ele>
        <time>2019-07-07T07:58:03.834Z</time>
      </trkpt>
      <trkpt lat="42.90673" lon="0.14547167">
        <ele>2093.0</ele>
        <time>2019-07-07T07:58:04.811Z</time>
      </trkpt>
      <trkpt lat="42.90668333" lon="0.14553667">
        <ele>2093.0</ele>
        <time>2019-07-07T07:58:05.838Z</time>
      </trkpt>
      <trkpt lat="42.90668333" lon="0.14553667">
        <ele>2093.0</ele>
        <time>2019-07-07T07:58:06.821Z</time>
      </trkpt>
      <trkpt lat="42.90657333" lon="0.145645">
        <ele>2091.0</ele>
        <time>2019-07-07T07:58:07.829Z</time>
      </trkpt>
      <trkpt lat="42.90651167" lon="0.14569167">
        <ele>2091.0</ele>
        <time>2019-07-07T07:58:08.836Z</time>
      </trkpt>
      <trkpt lat="42.90651167" lon="0.14569167">
        <ele>2091.0</ele>
        <time>2019-07-07T07:58:09.805Z</time>
      </trkpt>
      <trkpt lat="42.90639" lon="0.14577833">
        <ele>2089.0</ele>
        <time>2019-07-07T07:58:10.837Z</time>
      </trkpt>
      <trkpt lat="42.90639" lon="0.14577833">
        <ele>2089.0</ele>
        <time>2019-07-07T07:58:11.816Z</time>
      </trkpt>
      <trkpt lat="42.90625333" lon="0.14588333">
        <ele>2088.0</ele>
        <time>2019-07-07T07:58:12.827Z</time>
      </trkpt>
      <trkpt lat="42.90618667" lon="0.14594667">
        <ele>2087.0</ele>
        <time>2019-07-07T07:58:13.830Z</time>
      </trkpt>
      <trkpt lat="42.90618667" lon="0.14594667">
        <ele>2087.0</ele>
        <time>2019-07-07T07:58:14.814Z</time>
      </trkpt>
      <trkpt lat="42.90606167" lon="0.146075">
        <ele>2086.0</ele>
        <time>2019-07-07T07:58:15.821Z</time>
      </trkpt>
      <trkpt lat="42.90606167" lon="0.146075">
        <ele>2086.0</ele>
        <time>2019-07-07T07:58:16.837Z</time>
      </trkpt>
      <trkpt lat="42.90593833" lon="0.14621833">
        <ele>2084.0</ele>
        <time>2019-07-07T07:58:17.810Z</time>
      </trkpt>
      <trkpt lat="42.90593833" lon="0.14621833">
        <ele>2084.0</ele>
        <time>2019-07-07T07:58:18.839Z</time>
      </trkpt>
      <trkpt lat="42.90583667" lon="0.14636167">
        <ele>2083.0</ele>
        <time>2019-07-07T07:58:19.810Z</time>
      </trkpt>
      <trkpt lat="42.90578333" lon="0.14642667">
        <ele>2082.0</ele>
        <time>2019-07-07T07:58:20.839Z</time>
      </trkpt>
      <trkpt lat="42.90578333" lon="0.14642667">
        <ele>2082.0</ele>
        <time>2019-07-07T07:58:21.823Z</time>
      </trkpt>
      <trkpt lat="42.90565333" lon="0.14653667">
        <ele>2081.0</ele>
        <time>2019-07-07T07:58:22.830Z</time>
      </trkpt>
      <trkpt lat="42.90565333" lon="0.14653667">
        <ele>2081.0</ele>
        <time>2019-07-07T07:58:23.829Z</time>
      </trkpt>
      <trkpt lat="42.90553" lon="0.14659667">
        <ele>2079.0</ele>
        <time>2019-07-07T07:58:24.827Z</time>
      </trkpt>
      <trkpt lat="42.90553" lon="0.14659667">
        <ele>2079.0</ele>
        <time>2019-07-07T07:58:25.802Z</time>
      </trkpt>
      <trkpt lat="42.905425" lon="0.14663667">
        <ele>2078.0</ele>
        <time>2019-07-07T07:58:26.808Z</time>
      </trkpt>
      <trkpt lat="42.905425" lon="0.14663667">
        <ele>2078.0</ele>
        <time>2019-07-07T07:58:27.818Z</time>
      </trkpt>
      <trkpt lat="42.90533833" lon="0.146675">
        <ele>2078.0</ele>
        <time>2019-07-07T07:58:28.816Z</time>
      </trkpt>
      <trkpt lat="42.90533833" lon="0.146675">
        <ele>2078.0</ele>
        <time>2019-07-07T07:58:29.812Z</time>
      </trkpt>
      <trkpt lat="42.90525667" lon="0.146705">
        <ele>2077.0</ele>
        <time>2019-07-07T07:58:30.827Z</time>
      </trkpt>
      <trkpt lat="42.90525667" lon="0.146705">
        <ele>2077.0</ele>
        <time>2019-07-07T07:58:31.814Z</time>
      </trkpt>
      <trkpt lat="42.90520833" lon="0.14665833">
        <ele>2076.0</ele>
        <time>2019-07-07T07:58:32.820Z</time>
      </trkpt>
      <trkpt lat="42.90521333" lon="0.14661333">
        <ele>2075.0</ele>
        <time>2019-07-07T07:58:33.836Z</time>
      </trkpt>
      <trkpt lat="42.90521333" lon="0.14661333">
        <ele>2075.0</ele>
        <time>2019-07-07T07:58:34.818Z</time>
      </trkpt>
      <trkpt lat="42.90529333" lon="0.14652667">
        <ele>2075.0</ele>
        <time>2019-07-07T07:58:35.834Z</time>
      </trkpt>
      <trkpt lat="42.90535" lon="0.146495">
        <ele>2074.0</ele>
        <time>2019-07-07T07:58:36.821Z</time>
      </trkpt>
      <trkpt lat="42.90535" lon="0.146495">
        <ele>2074.0</ele>
        <time>2019-07-07T07:58:37.831Z</time>
      </trkpt>
      <trkpt lat="42.905475" lon="0.14644">
        <ele>2074.0</ele>
        <time>2019-07-07T07:58:38.820Z</time>
      </trkpt>
      <trkpt lat="42.905475" lon="0.14644">
        <ele>2074.0</ele>
        <time>2019-07-07T07:58:39.812Z</time>
      </trkpt>
      <trkpt lat="42.9056" lon="0.14633833">
        <ele>2073.0</ele>
        <time>2019-07-07T07:58:40.819Z</time>
      </trkpt>
      <trkpt lat="42.9056" lon="0.14633833">
        <ele>2073.0</ele>
        <time>2019-07-07T07:58:41.835Z</time>
      </trkpt>
      <trkpt lat="42.905715" lon="0.146185">
        <ele>2072.0</ele>
        <time>2019-07-07T07:58:42.815Z</time>
      </trkpt>
      <trkpt lat="42.905715" lon="0.146185">
        <ele>2072.0</ele>
        <time>2019-07-07T07:58:43.826Z</time>
      </trkpt>
      <trkpt lat="42.90582" lon="0.14600833">
        <ele>2070.0</ele>
        <time>2019-07-07T07:58:44.832Z</time>
      </trkpt>
      <trkpt lat="42.90587" lon="0.14591667">
        <ele>2070.0</ele>
        <time>2019-07-07T07:58:45.807Z</time>
      </trkpt>
      <trkpt lat="42.90587" lon="0.14591667">
        <ele>2070.0</ele>
        <time>2019-07-07T07:58:46.814Z</time>
      </trkpt>
      <trkpt lat="42.90595833" lon="0.14571">
        <ele>2068.0</ele>
        <time>2019-07-07T07:58:47.818Z</time>
      </trkpt>
      <trkpt lat="42.90595833" lon="0.14571">
        <ele>2068.0</ele>
        <time>2019-07-07T07:58:48.806Z</time>
      </trkpt>
      <trkpt lat="42.90602833" lon="0.14546833">
        <ele>2066.0</ele>
        <time>2019-07-07T07:58:49.812Z</time>
      </trkpt>
      <trkpt lat="42.90602833" lon="0.14546833">
        <ele>2066.0</ele>
        <time>2019-07-07T07:58:50.835Z</time>
      </trkpt>
      <trkpt lat="42.90609333" lon="0.14522833">
        <ele>2065.0</ele>
        <time>2019-07-07T07:58:51.809Z</time>
      </trkpt>
      <trkpt lat="42.90613167" lon="0.14512333">
        <ele>2064.0</ele>
        <time>2019-07-07T07:58:52.821Z</time>
      </trkpt>
      <trkpt lat="42.90613167" lon="0.14512333">
        <ele>2064.0</ele>
        <time>2019-07-07T07:58:53.806Z</time>
      </trkpt>
      <trkpt lat="42.906205" lon="0.14492667">
        <ele>2062.0</ele>
        <time>2019-07-07T07:58:54.803Z</time>
      </trkpt>
      <trkpt lat="42.906205" lon="0.14492667">
        <ele>2062.0</ele>
        <time>2019-07-07T07:58:55.815Z</time>
      </trkpt>
      <trkpt lat="42.906285" lon="0.144735">
        <ele>2061.0</ele>
        <time>2019-07-07T07:58:56.830Z</time>
      </trkpt>
      <trkpt lat="42.906285" lon="0.144735">
        <ele>2061.0</ele>
        <time>2019-07-07T07:58:57.802Z</time>
      </trkpt>
      <trkpt lat="42.906405" lon="0.14457333">
        <ele>2061.0</ele>
        <time>2019-07-07T07:58:58.835Z</time>
      </trkpt>
      <trkpt lat="42.906405" lon="0.14457333">
        <ele>2061.0</ele>
        <time>2019-07-07T07:58:59.817Z</time>
      </trkpt>
      <trkpt lat="42.90657" lon="0.14446833">
        <ele>2060.0</ele>
        <time>2019-07-07T07:59:00.825Z</time>
      </trkpt>
      <trkpt lat="42.90665833" lon="0.14441667">
        <ele>2059.0</ele>
        <time>2019-07-07T07:59:01.815Z</time>
      </trkpt>
      <trkpt lat="42.90665833" lon="0.14441667">
        <ele>2059.0</ele>
        <time>2019-07-07T07:59:02.816Z</time>
      </trkpt>
      <trkpt lat="42.90683833" lon="0.14431833">
        <ele>2057.0</ele>
        <time>2019-07-07T07:59:03.822Z</time>
      </trkpt>
      <trkpt lat="42.90692333" lon="0.14426833">
        <ele>2057.0</ele>
        <time>2019-07-07T07:59:04.817Z</time>
      </trkpt>
      <trkpt lat="42.907" lon="0.14421667">
        <ele>2056.0</ele>
        <time>2019-07-07T07:59:05.803Z</time>
      </trkpt>
      <trkpt lat="42.907" lon="0.14421667">
        <ele>2056.0</ele>
        <time>2019-07-07T07:59:06.826Z</time>
      </trkpt>
      <trkpt lat="42.907135" lon="0.1441">
        <ele>2054.0</ele>
        <time>2019-07-07T07:59:07.801Z</time>
      </trkpt>
      <trkpt lat="42.907135" lon="0.1441">
        <ele>2054.0</ele>
        <time>2019-07-07T07:59:08.825Z</time>
      </trkpt>
      <trkpt lat="42.907275" lon="0.14398">
        <ele>2053.0</ele>
        <time>2019-07-07T07:59:09.831Z</time>
      </trkpt>
      <trkpt lat="42.90734833" lon="0.14392333">
        <ele>2053.0</ele>
        <time>2019-07-07T07:59:10.838Z</time>
      </trkpt>
      <trkpt lat="42.90734833" lon="0.14392333">
        <ele>2053.0</ele>
        <time>2019-07-07T07:59:11.833Z</time>
      </trkpt>
      <trkpt lat="42.907465" lon="0.14376167">
        <ele>2051.0</ele>
        <time>2019-07-07T07:59:12.839Z</time>
      </trkpt>
      <trkpt lat="42.907495" lon="0.14365167">
        <ele>2050.0</ele>
        <time>2019-07-07T07:59:13.831Z</time>
      </trkpt>
      <trkpt lat="42.907495" lon="0.14365167">
        <ele>2050.0</ele>
        <time>2019-07-07T07:59:14.828Z</time>
      </trkpt>
      <trkpt lat="42.90749833" lon="0.14342">
        <ele>2048.0</ele>
        <time>2019-07-07T07:59:15.837Z</time>
      </trkpt>
      <trkpt lat="42.90749833" lon="0.14342">
        <ele>2048.0</ele>
        <time>2019-07-07T07:59:16.814Z</time>
      </trkpt>
      <trkpt lat="42.90746167" lon="0.14318333">
        <ele>2046.0</ele>
        <time>2019-07-07T07:59:17.801Z</time>
      </trkpt>
      <trkpt lat="42.90743167" lon="0.14307">
        <ele>2045.0</ele>
        <time>2019-07-07T07:59:18.806Z</time>
      </trkpt>
      <trkpt lat="42.90743167" lon="0.14307">
        <ele>2045.0</ele>
        <time>2019-07-07T07:59:19.811Z</time>
      </trkpt>
      <trkpt lat="42.907345" lon="0.142855">
        <ele>2042.0</ele>
        <time>2019-07-07T07:59:20.822Z</time>
      </trkpt>
      <trkpt lat="42.907295" lon="0.14274833">
        <ele>2041.0</ele>
        <time>2019-07-07T07:59:21.824Z</time>
      </trkpt>
      <trkpt lat="42.907295" lon="0.14274833">
        <ele>2041.0</ele>
        <time>2019-07-07T07:59:22.831Z</time>
      </trkpt>
      <trkpt lat="42.90720667" lon="0.14252833">
        <ele>2039.0</ele>
        <time>2019-07-07T07:59:23.805Z</time>
      </trkpt>
      <trkpt lat="42.90720667" lon="0.14252833">
        <ele>2039.0</ele>
        <time>2019-07-07T07:59:24.828Z</time>
      </trkpt>
      <trkpt lat="42.907195" lon="0.14230833">
        <ele>2037.0</ele>
        <time>2019-07-07T07:59:25.826Z</time>
      </trkpt>
      <trkpt lat="42.907195" lon="0.14230833">
        <ele>2037.0</ele>
        <time>2019-07-07T07:59:26.812Z</time>
      </trkpt>
      <trkpt lat="42.907225" lon="0.14206333">
        <ele>2036.0</ele>
        <time>2019-07-07T07:59:27.822Z</time>
      </trkpt>
      <trkpt lat="42.90725167" lon="0.141935">
        <ele>2034.0</ele>
        <time>2019-07-07T07:59:28.818Z</time>
      </trkpt>
      <trkpt lat="42.90725167" lon="0.141935">
        <ele>2034.0</ele>
        <time>2019-07-07T07:59:29.838Z</time>
      </trkpt>
      <trkpt lat="42.90731833" lon="0.14166833">
        <ele>2032.0</ele>
        <time>2019-07-07T07:59:30.806Z</time>
      </trkpt>
      <trkpt lat="42.90731833" lon="0.14166833">
        <ele>2032.0</ele>
        <time>2019-07-07T07:59:31.828Z</time>
      </trkpt>
      <trkpt lat="42.90738333" lon="0.14142667">
        <ele>2030.0</ele>
        <time>2019-07-07T07:59:32.801Z</time>
      </trkpt>
      <trkpt lat="42.907425" lon="0.141315">
        <ele>2030.0</ele>
        <time>2019-07-07T07:59:33.829Z</time>
      </trkpt>
      <trkpt lat="42.90747667" lon="0.14120667">
        <ele>2029.0</ele>
        <time>2019-07-07T07:59:34.810Z</time>
      </trkpt>
      <trkpt lat="42.90747667" lon="0.14120667">
        <ele>2029.0</ele>
        <time>2019-07-07T07:59:35.817Z</time>
      </trkpt>
      <trkpt lat="42.90759833" lon="0.14101333">
        <ele>2028.0</ele>
        <time>2019-07-07T07:59:36.827Z</time>
      </trkpt>
      <trkpt lat="42.90759833" lon="0.14101333">
        <ele>2028.0</ele>
        <time>2019-07-07T07:59:37.802Z</time>
      </trkpt>
      <trkpt lat="42.90771833" lon="0.14084">
        <ele>2026.0</ele>
        <time>2019-07-07T07:59:38.820Z</time>
      </trkpt>
      <trkpt lat="42.90778667" lon="0.14075333">
        <ele>2025.0</ele>
        <time>2019-07-07T07:59:39.812Z</time>
      </trkpt>
      <trkpt lat="42.90778667" lon="0.14075333">
        <ele>2025.0</ele>
        <time>2019-07-07T07:59:40.835Z</time>
      </trkpt>
      <trkpt lat="42.90791333" lon="0.14059333">
        <ele>2023.0</ele>
        <time>2019-07-07T07:59:41.802Z</time>
      </trkpt>
      <trkpt lat="42.907965" lon="0.14050833">
        <ele>2023.0</ele>
        <time>2019-07-07T07:59:42.808Z</time>
      </trkpt>
      <trkpt lat="42.907965" lon="0.14050833">
        <ele>2023.0</ele>
        <time>2019-07-07T07:59:43.836Z</time>
      </trkpt>
      <trkpt lat="42.90807667" lon="0.14033833">
        <ele>2021.0</ele>
        <time>2019-07-07T07:59:44.810Z</time>
      </trkpt>
      <trkpt lat="42.90814667" lon="0.14026333">
        <ele>2021.0</ele>
        <time>2019-07-07T07:59:45.812Z</time>
      </trkpt>
      <trkpt lat="42.90814667" lon="0.14026333">
        <ele>2021.0</ele>
        <time>2019-07-07T07:59:46.826Z</time>
      </trkpt>
      <trkpt lat="42.90830667" lon="0.14014333">
        <ele>2019.0</ele>
        <time>2019-07-07T07:59:47.815Z</time>
      </trkpt>
      <trkpt lat="42.90830667" lon="0.14014333">
        <ele>2019.0</ele>
        <time>2019-07-07T07:59:48.835Z</time>
      </trkpt>
      <trkpt lat="42.908455" lon="0.14001333">
        <ele>2018.0</ele>
        <time>2019-07-07T07:59:49.802Z</time>
      </trkpt>
      <trkpt lat="42.908455" lon="0.14001333">
        <ele>2018.0</ele>
        <time>2019-07-07T07:59:50.829Z</time>
      </trkpt>
      <trkpt lat="42.90859667" lon="0.13983833">
        <ele>2015.0</ele>
        <time>2019-07-07T07:59:51.810Z</time>
      </trkpt>
      <trkpt lat="42.90859667" lon="0.13983833">
        <ele>2015.0</ele>
        <time>2019-07-07T07:59:52.826Z</time>
      </trkpt>
      <trkpt lat="42.90873" lon="0.13966667">
        <ele>2014.0</ele>
        <time>2019-07-07T07:59:53.832Z</time>
      </trkpt>
      <trkpt lat="42.90880333" lon="0.13959">
        <ele>2013.0</ele>
        <time>2019-07-07T07:59:54.840Z</time>
      </trkpt>
      <trkpt lat="42.90888333" lon="0.13952">
        <ele>2012.0</ele>
        <time>2019-07-07T07:59:55.830Z</time>
      </trkpt>
      <trkpt lat="42.90888333" lon="0.13952">
        <ele>2012.0</ele>
        <time>2019-07-07T07:59:56.814Z</time>
      </trkpt>
      <trkpt lat="42.90905167" lon="0.13940667">
        <ele>2010.0</ele>
        <time>2019-07-07T07:59:57.830Z</time>
      </trkpt>
      <trkpt lat="42.90914167" lon="0.13936667">
        <ele>2009.0</ele>
        <time>2019-07-07T07:59:58.815Z</time>
      </trkpt>
      <trkpt lat="42.90923667" lon="0.13933833">
        <ele>2008.0</ele>
        <time>2019-07-07T07:59:59.838Z</time>
      </trkpt>
      <trkpt lat="42.90923667" lon="0.13933833">
        <ele>2008.0</ele>
        <time>2019-07-07T08:00:00.821Z</time>
      </trkpt>
      <trkpt lat="42.90943" lon="0.13930667">
        <ele>2007.0</ele>
        <time>2019-07-07T08:00:01.827Z</time>
      </trkpt>
      <trkpt lat="42.90952833" lon="0.13930667">
        <ele>2006.0</ele>
        <time>2019-07-07T08:00:02.807Z</time>
      </trkpt>
      <trkpt lat="42.90952833" lon="0.13930667">
        <ele>2006.0</ele>
        <time>2019-07-07T08:00:03.830Z</time>
      </trkpt>
      <trkpt lat="42.909725" lon="0.139335">
        <ele>2004.0</ele>
        <time>2019-07-07T08:00:04.836Z</time>
      </trkpt>
      <trkpt lat="42.90982333" lon="0.13934">
        <ele>2002.0</ele>
        <time>2019-07-07T08:00:05.823Z</time>
      </trkpt>
      <trkpt lat="42.90982333" lon="0.13934">
        <ele>2002.0</ele>
        <time>2019-07-07T08:00:06.812Z</time>
      </trkpt>
      <trkpt lat="42.91001833" lon="0.13931833">
        <ele>2000.0</ele>
        <time>2019-07-07T08:00:07.818Z</time>
      </trkpt>
      <trkpt lat="42.91001833" lon="0.13931833">
        <ele>2000.0</ele>
        <time>2019-07-07T08:00:08.802Z</time>
      </trkpt>
      <trkpt lat="42.91022" lon="0.139315">
        <ele>1999.0</ele>
        <time>2019-07-07T08:00:09.812Z</time>
      </trkpt>
      <trkpt lat="42.91022" lon="0.139315">
        <ele>1999.0</ele>
        <time>2019-07-07T08:00:10.835Z</time>
      </trkpt>
      <trkpt lat="42.910415" lon="0.13933833">
        <ele>1996.0</ele>
        <time>2019-07-07T08:00:11.820Z</time>
      </trkpt>
      <trkpt lat="42.910415" lon="0.13933833">
        <ele>1996.0</ele>
        <time>2019-07-07T08:00:12.809Z</time>
      </trkpt>
      <trkpt lat="42.91060167" lon="0.13937333">
        <ele>1994.0</ele>
        <time>2019-07-07T08:00:13.817Z</time>
      </trkpt>
      <trkpt lat="42.91060167" lon="0.13937333">
        <ele>1994.0</ele>
        <time>2019-07-07T08:00:14.803Z</time>
      </trkpt>
      <trkpt lat="42.91079167" lon="0.13943">
        <ele>1992.0</ele>
        <time>2019-07-07T08:00:15.835Z</time>
      </trkpt>
      <trkpt lat="42.91079167" lon="0.13943">
        <ele>1992.0</ele>
        <time>2019-07-07T08:00:16.812Z</time>
      </trkpt>
      <trkpt lat="42.910965" lon="0.13946333">
        <ele>1991.0</ele>
        <time>2019-07-07T08:00:17.830Z</time>
      </trkpt>
      <trkpt lat="42.91104" lon="0.139475">
        <ele>1991.0</ele>
        <time>2019-07-07T08:00:18.814Z</time>
      </trkpt>
      <trkpt lat="42.91111" lon="0.139485">
        <ele>1990.0</ele>
        <time>2019-07-07T08:00:19.838Z</time>
      </trkpt>
      <trkpt lat="42.91111" lon="0.139485">
        <ele>1990.0</ele>
        <time>2019-07-07T08:00:20.820Z</time>
      </trkpt>
      <trkpt lat="42.91121833" lon="0.13944667">
        <ele>1989.0</ele>
        <time>2019-07-07T08:00:21.827Z</time>
      </trkpt>
      <trkpt lat="42.91126333" lon="0.139395">
        <ele>1988.0</ele>
        <time>2019-07-07T08:00:22.835Z</time>
      </trkpt>
      <trkpt lat="42.91126333" lon="0.139395">
        <ele>1988.0</ele>
        <time>2019-07-07T08:00:23.816Z</time>
      </trkpt>
      <trkpt lat="42.91133167" lon="0.13925167">
        <ele>1986.0</ele>
        <time>2019-07-07T08:00:24.822Z</time>
      </trkpt>
      <trkpt lat="42.91133167" lon="0.13925167">
        <ele>1986.0</ele>
        <time>2019-07-07T08:00:25.810Z</time>
      </trkpt>
      <trkpt lat="42.9114" lon="0.13907167">
        <ele>1984.0</ele>
        <time>2019-07-07T08:00:26.839Z</time>
      </trkpt>
      <trkpt lat="42.9114" lon="0.13907167">
        <ele>1984.0</ele>
        <time>2019-07-07T08:00:27.817Z</time>
      </trkpt>
      <trkpt lat="42.91149167" lon="0.13888333">
        <ele>1982.0</ele>
        <time>2019-07-07T08:00:28.823Z</time>
      </trkpt>
      <trkpt lat="42.91153833" lon="0.138795">
        <ele>1981.0</ele>
        <time>2019-07-07T08:00:29.830Z</time>
      </trkpt>
      <trkpt lat="42.91153833" lon="0.138795">
        <ele>1981.0</ele>
        <time>2019-07-07T08:00:30.810Z</time>
      </trkpt>
      <trkpt lat="42.91161333" lon="0.13863">
        <ele>1980.0</ele>
        <time>2019-07-07T08:00:31.817Z</time>
      </trkpt>
      <trkpt lat="42.91161333" lon="0.13863">
        <ele>1980.0</ele>
        <time>2019-07-07T08:00:32.833Z</time>
      </trkpt>
      <trkpt lat="42.91169833" lon="0.13849167">
        <ele>1979.0</ele>
        <time>2019-07-07T08:00:33.816Z</time>
      </trkpt>
      <trkpt lat="42.91175833" lon="0.138435">
        <ele>1979.0</ele>
        <time>2019-07-07T08:00:34.832Z</time>
      </trkpt>
      <trkpt lat="42.91175833" lon="0.138435">
        <ele>1979.0</ele>
        <time>2019-07-07T08:00:35.818Z</time>
      </trkpt>
      <trkpt lat="42.91189833" lon="0.13835167">
        <ele>1977.0</ele>
        <time>2019-07-07T08:00:36.840Z</time>
      </trkpt>
      <trkpt lat="42.91189833" lon="0.13835167">
        <ele>1977.0</ele>
        <time>2019-07-07T08:00:37.812Z</time>
      </trkpt>
      <trkpt lat="42.91206667" lon="0.1383">
        <ele>1976.0</ele>
        <time>2019-07-07T08:00:38.832Z</time>
      </trkpt>
      <trkpt lat="42.91206667" lon="0.1383">
        <ele>1976.0</ele>
        <time>2019-07-07T08:00:39.817Z</time>
      </trkpt>
      <trkpt lat="42.912255" lon="0.13823">
        <ele>1973.0</ele>
        <time>2019-07-07T08:00:40.820Z</time>
      </trkpt>
      <trkpt lat="42.912255" lon="0.13823">
        <ele>1973.0</ele>
        <time>2019-07-07T08:00:41.813Z</time>
      </trkpt>
      <trkpt lat="42.91244667" lon="0.13810833">
        <ele>1971.0</ele>
        <time>2019-07-07T08:00:42.819Z</time>
      </trkpt>
      <trkpt lat="42.912535" lon="0.13802333">
        <ele>1970.0</ele>
        <time>2019-07-07T08:00:43.807Z</time>
      </trkpt>
      <trkpt lat="42.912535" lon="0.13802333">
        <ele>1970.0</ele>
        <time>2019-07-07T08:00:44.830Z</time>
      </trkpt>
      <trkpt lat="42.91267833" lon="0.13783">
        <ele>1968.0</ele>
        <time>2019-07-07T08:00:45.836Z</time>
      </trkpt>
      <trkpt lat="42.91267833" lon="0.13783">
        <ele>1968.0</ele>
        <time>2019-07-07T08:00:46.818Z</time>
      </trkpt>
      <trkpt lat="42.91278667" lon="0.137635">
        <ele>1966.0</ele>
        <time>2019-07-07T08:00:47.819Z</time>
      </trkpt>
      <trkpt lat="42.91283667" lon="0.13754167">
        <ele>1965.0</ele>
        <time>2019-07-07T08:00:48.804Z</time>
      </trkpt>
      <trkpt lat="42.91288333" lon="0.13745333">
        <ele>1965.0</ele>
        <time>2019-07-07T08:00:49.821Z</time>
      </trkpt>
      <trkpt lat="42.91293667" lon="0.13738167">
        <ele>1964.0</ele>
        <time>2019-07-07T08:00:50.809Z</time>
      </trkpt>
      <trkpt lat="42.91293667" lon="0.13738167">
        <ele>1964.0</ele>
        <time>2019-07-07T08:00:51.824Z</time>
      </trkpt>
      <trkpt lat="42.913065" lon="0.13728833">
        <ele>1962.0</ele>
        <time>2019-07-07T08:00:52.832Z</time>
      </trkpt>
      <trkpt lat="42.913065" lon="0.13728833">
        <ele>1962.0</ele>
        <time>2019-07-07T08:00:53.837Z</time>
      </trkpt>
      <trkpt lat="42.913175" lon="0.13722167">
        <ele>1962.0</ele>
        <time>2019-07-07T08:00:54.834Z</time>
      </trkpt>
      <trkpt lat="42.913225" lon="0.13719333">
        <ele>1961.0</ele>
        <time>2019-07-07T08:00:55.810Z</time>
      </trkpt>
      <trkpt lat="42.913225" lon="0.13719333">
        <ele>1961.0</ele>
        <time>2019-07-07T08:00:56.825Z</time>
      </trkpt>
      <trkpt lat="42.913325" lon="0.13712833">
        <ele>1961.0</ele>
        <time>2019-07-07T08:00:57.840Z</time>
      </trkpt>
      <trkpt lat="42.913325" lon="0.13712833">
        <ele>1961.0</ele>
        <time>2019-07-07T08:00:58.826Z</time>
      </trkpt>
      <trkpt lat="42.91338" lon="0.13702">
        <ele>1959.0</ele>
        <time>2019-07-07T08:00:59.833Z</time>
      </trkpt>
      <trkpt lat="42.913385" lon="0.136965">
        <ele>1959.0</ele>
        <time>2019-07-07T08:01:00.836Z</time>
      </trkpt>
      <trkpt lat="42.913385" lon="0.136965">
        <ele>1959.0</ele>
        <time>2019-07-07T08:01:01.814Z</time>
      </trkpt>
      <trkpt lat="42.91337" lon="0.13687333">
        <ele>1958.0</ele>
        <time>2019-07-07T08:01:02.821Z</time>
      </trkpt>
      <trkpt lat="42.91335333" lon="0.13683">
        <ele>1957.0</ele>
        <time>2019-07-07T08:01:03.815Z</time>
      </trkpt>
      <trkpt lat="42.91333167" lon="0.13678667">
        <ele>1957.0</ele>
        <time>2019-07-07T08:01:04.817Z</time>
      </trkpt>
      <trkpt lat="42.91330333" lon="0.13674667">
        <ele>1956.0</ele>
        <time>2019-07-07T08:01:05.801Z</time>
      </trkpt>
      <trkpt lat="42.91330333" lon="0.13674667">
        <ele>1956.0</ele>
        <time>2019-07-07T08:01:06.824Z</time>
      </trkpt>
      <trkpt lat="42.91324" lon="0.13669">
        <ele>1955.0</ele>
        <time>2019-07-07T08:01:07.834Z</time>
      </trkpt>
      <trkpt lat="42.91320333" lon="0.13668">
        <ele>1954.0</ele>
        <time>2019-07-07T08:01:08.820Z</time>
      </trkpt>
      <trkpt lat="42.91320333" lon="0.13668">
        <ele>1954.0</ele>
        <time>2019-07-07T08:01:09.838Z</time>
      </trkpt>
      <trkpt lat="42.91313" lon="0.13668833">
        <ele>1953.0</ele>
        <time>2019-07-07T08:01:10.815Z</time>
      </trkpt>
      <trkpt lat="42.91313" lon="0.13668833">
        <ele>1953.0</ele>
        <time>2019-07-07T08:01:11.829Z</time>
      </trkpt>
      <trkpt lat="42.91305833" lon="0.13673167">
        <ele>1953.0</ele>
        <time>2019-07-07T08:01:12.840Z</time>
      </trkpt>
      <trkpt lat="42.91305833" lon="0.13673167">
        <ele>1953.0</ele>
        <time>2019-07-07T08:01:13.816Z</time>
      </trkpt>
      <trkpt lat="42.91298" lon="0.13679833">
        <ele>1952.0</ele>
        <time>2019-07-07T08:01:14.828Z</time>
      </trkpt>
      <trkpt lat="42.91298" lon="0.13679833">
        <ele>1952.0</ele>
        <time>2019-07-07T08:01:15.819Z</time>
      </trkpt>
      <trkpt lat="42.912905" lon="0.13689167">
        <ele>1952.0</ele>
        <time>2019-07-07T08:01:16.818Z</time>
      </trkpt>
      <trkpt lat="42.912905" lon="0.13689167">
        <ele>1952.0</ele>
        <time>2019-07-07T08:01:17.802Z</time>
      </trkpt>
      <trkpt lat="42.91284" lon="0.13700833">
        <ele>1951.0</ele>
        <time>2019-07-07T08:01:18.830Z</time>
      </trkpt>
      <trkpt lat="42.91281" lon="0.13707">
        <ele>1951.0</ele>
        <time>2019-07-07T08:01:19.815Z</time>
      </trkpt>
      <trkpt lat="42.91278" lon="0.13713667">
        <ele>1950.0</ele>
        <time>2019-07-07T08:01:20.825Z</time>
      </trkpt>
      <trkpt lat="42.91278" lon="0.13713667">
        <ele>1950.0</ele>
        <time>2019-07-07T08:01:21.808Z</time>
      </trkpt>
      <trkpt lat="42.91272333" lon="0.13727667">
        <ele>1950.0</ele>
        <time>2019-07-07T08:01:22.823Z</time>
      </trkpt>
      <trkpt lat="42.91272333" lon="0.13727667">
        <ele>1950.0</ele>
        <time>2019-07-07T08:01:23.808Z</time>
      </trkpt>
      <trkpt lat="42.91265833" lon="0.13741667">
        <ele>1949.0</ele>
        <time>2019-07-07T08:01:24.817Z</time>
      </trkpt>
      <trkpt lat="42.91261833" lon="0.13747833">
        <ele>1949.0</ele>
        <time>2019-07-07T08:01:25.828Z</time>
      </trkpt>
      <trkpt lat="42.91261833" lon="0.13747833">
        <ele>1949.0</ele>
        <time>2019-07-07T08:01:26.813Z</time>
      </trkpt>
      <trkpt lat="42.91252333" lon="0.13759">
        <ele>1949.0</ele>
        <time>2019-07-07T08:01:27.820Z</time>
      </trkpt>
      <trkpt lat="42.91252333" lon="0.13759">
        <ele>1949.0</ele>
        <time>2019-07-07T08:01:28.807Z</time>
      </trkpt>
      <trkpt lat="42.91241667" lon="0.13767833">
        <ele>1949.0</ele>
        <time>2019-07-07T08:01:29.836Z</time>
      </trkpt>
      <trkpt lat="42.91241667" lon="0.13767833">
        <ele>1949.0</ele>
        <time>2019-07-07T08:01:30.833Z</time>
      </trkpt>
      <trkpt lat="42.91229667" lon="0.13774">
        <ele>1948.0</ele>
        <time>2019-07-07T08:01:31.839Z</time>
      </trkpt>
      <trkpt lat="42.91229667" lon="0.13774">
        <ele>1948.0</ele>
        <time>2019-07-07T08:01:32.821Z</time>
      </trkpt>
      <trkpt lat="42.91216833" lon="0.13778333">
        <ele>1948.0</ele>
        <time>2019-07-07T08:01:33.814Z</time>
      </trkpt>
      <trkpt lat="42.91216833" lon="0.13778333">
        <ele>1948.0</ele>
        <time>2019-07-07T08:01:34.837Z</time>
      </trkpt>
      <trkpt lat="42.912035" lon="0.13780667">
        <ele>1947.0</ele>
        <time>2019-07-07T08:01:35.808Z</time>
      </trkpt>
      <trkpt lat="42.91196333" lon="0.13780667">
        <ele>1947.0</ele>
        <time>2019-07-07T08:01:36.814Z</time>
      </trkpt>
      <trkpt lat="42.91196333" lon="0.13780667">
        <ele>1947.0</ele>
        <time>2019-07-07T08:01:37.820Z</time>
      </trkpt>
      <trkpt lat="42.91182333" lon="0.137795">
        <ele>1948.0</ele>
        <time>2019-07-07T08:01:38.840Z</time>
      </trkpt>
      <trkpt lat="42.91182333" lon="0.137795">
        <ele>1948.0</ele>
        <time>2019-07-07T08:01:39.813Z</time>
      </trkpt>
      <trkpt lat="42.91169333" lon="0.13779667">
        <ele>1948.0</ele>
        <time>2019-07-07T08:01:40.820Z</time>
      </trkpt>
      <trkpt lat="42.91169333" lon="0.13779667">
        <ele>1948.0</ele>
        <time>2019-07-07T08:01:41.802Z</time>
      </trkpt>
      <trkpt lat="42.91157167" lon="0.137825">
        <ele>1948.0</ele>
        <time>2019-07-07T08:01:42.801Z</time>
      </trkpt>
      <trkpt lat="42.91151" lon="0.13785833">
        <ele>1948.0</ele>
        <time>2019-07-07T08:01:43.823Z</time>
      </trkpt>
      <trkpt lat="42.91145167" lon="0.13790833">
        <ele>1948.0</ele>
        <time>2019-07-07T08:01:44.808Z</time>
      </trkpt>
      <trkpt lat="42.91145167" lon="0.13790833">
        <ele>1948.0</ele>
        <time>2019-07-07T08:01:45.831Z</time>
      </trkpt>
      <trkpt lat="42.91134167" lon="0.138035">
        <ele>1948.0</ele>
        <time>2019-07-07T08:01:46.804Z</time>
      </trkpt>
      <trkpt lat="42.91134167" lon="0.138035">
        <ele>1948.0</ele>
        <time>2019-07-07T08:01:47.814Z</time>
      </trkpt>
      <trkpt lat="42.91124333" lon="0.13816">
        <ele>1948.0</ele>
        <time>2019-07-07T08:01:48.809Z</time>
      </trkpt>
      <trkpt lat="42.91119667" lon="0.13822">
        <ele>1948.0</ele>
        <time>2019-07-07T08:01:49.815Z</time>
      </trkpt>
      <trkpt lat="42.91119667" lon="0.13822">
        <ele>1948.0</ele>
        <time>2019-07-07T08:01:50.825Z</time>
      </trkpt>
      <trkpt lat="42.91111667" lon="0.13833667">
        <ele>1948.0</ele>
        <time>2019-07-07T08:01:51.831Z</time>
      </trkpt>
      <trkpt lat="42.91108167" lon="0.13838833">
        <ele>1948.0</ele>
        <time>2019-07-07T08:01:52.826Z</time>
      </trkpt>
      <trkpt lat="42.91108167" lon="0.13838833">
        <ele>1948.0</ele>
        <time>2019-07-07T08:01:53.812Z</time>
      </trkpt>
      <trkpt lat="42.91101" lon="0.13847">
        <ele>1948.0</ele>
        <time>2019-07-07T08:01:54.818Z</time>
      </trkpt>
      <trkpt lat="42.91101" lon="0.13847">
        <ele>1948.0</ele>
        <time>2019-07-07T08:01:55.801Z</time>
      </trkpt>
      <trkpt lat="42.91092167" lon="0.13848">
        <ele>1948.0</ele>
        <time>2019-07-07T08:01:56.814Z</time>
      </trkpt>
      <trkpt lat="42.91087833" lon="0.13844">
        <ele>1947.0</ele>
        <time>2019-07-07T08:01:57.802Z</time>
      </trkpt>
      <trkpt lat="42.91087833" lon="0.13844">
        <ele>1947.0</ele>
        <time>2019-07-07T08:01:58.825Z</time>
      </trkpt>
      <trkpt lat="42.910805" lon="0.138305">
        <ele>1947.0</ele>
        <time>2019-07-07T08:01:59.814Z</time>
      </trkpt>
      <trkpt lat="42.910805" lon="0.138305">
        <ele>1947.0</ele>
        <time>2019-07-07T08:02:00.823Z</time>
      </trkpt>
      <trkpt lat="42.910735" lon="0.13817833">
        <ele>1947.0</ele>
        <time>2019-07-07T08:02:01.829Z</time>
      </trkpt>
      <trkpt lat="42.910735" lon="0.13817833">
        <ele>1947.0</ele>
        <time>2019-07-07T08:02:02.822Z</time>
      </trkpt>
      <trkpt lat="42.91066833" lon="0.13806333">
        <ele>1946.0</ele>
        <time>2019-07-07T08:02:03.805Z</time>
      </trkpt>
      <trkpt lat="42.91066833" lon="0.13806333">
        <ele>1946.0</ele>
        <time>2019-07-07T08:02:04.831Z</time>
      </trkpt>
      <trkpt lat="42.91057333" lon="0.13797">
        <ele>1946.0</ele>
        <time>2019-07-07T08:02:05.837Z</time>
      </trkpt>
      <trkpt lat="42.91057333" lon="0.13797">
        <ele>1946.0</ele>
        <time>2019-07-07T08:02:06.821Z</time>
      </trkpt>
      <trkpt lat="42.91043167" lon="0.137945">
        <ele>1946.0</ele>
        <time>2019-07-07T08:02:07.822Z</time>
      </trkpt>
      <trkpt lat="42.91043167" lon="0.137945">
        <ele>1946.0</ele>
        <time>2019-07-07T08:02:08.805Z</time>
      </trkpt>
      <trkpt lat="42.91026667" lon="0.13795167">
        <ele>1945.0</ele>
        <time>2019-07-07T08:02:09.815Z</time>
      </trkpt>
      <trkpt lat="42.91018167" lon="0.13795667">
        <ele>1945.0</ele>
        <time>2019-07-07T08:02:10.810Z</time>
      </trkpt>
      <trkpt lat="42.91018167" lon="0.13795667">
        <ele>1945.0</ele>
        <time>2019-07-07T08:02:11.818Z</time>
      </trkpt>
      <trkpt lat="42.91" lon="0.137945">
        <ele>1944.0</ele>
        <time>2019-07-07T08:02:12.805Z</time>
      </trkpt>
      <trkpt lat="42.91" lon="0.137945">
        <ele>1944.0</ele>
        <time>2019-07-07T08:02:13.826Z</time>
      </trkpt>
      <trkpt lat="42.90983333" lon="0.13792">
        <ele>1943.0</ele>
        <time>2019-07-07T08:02:14.834Z</time>
      </trkpt>
      <trkpt lat="42.90983333" lon="0.13792">
        <ele>1943.0</ele>
        <time>2019-07-07T08:02:15.819Z</time>
      </trkpt>
      <trkpt lat="42.90966667" lon="0.13790167">
        <ele>1942.0</ele>
        <time>2019-07-07T08:02:16.809Z</time>
      </trkpt>
      <trkpt lat="42.90966667" lon="0.13790167">
        <ele>1942.0</ele>
        <time>2019-07-07T08:02:17.823Z</time>
      </trkpt>
      <trkpt lat="42.909505" lon="0.13789167">
        <ele>1941.0</ele>
        <time>2019-07-07T08:02:18.830Z</time>
      </trkpt>
      <trkpt lat="42.90943333" lon="0.13788667">
        <ele>1940.0</ele>
        <time>2019-07-07T08:02:19.816Z</time>
      </trkpt>
      <trkpt lat="42.909365" lon="0.13787667">
        <ele>1939.0</ele>
        <time>2019-07-07T08:02:20.815Z</time>
      </trkpt>
      <trkpt lat="42.909365" lon="0.13787667">
        <ele>1939.0</ele>
        <time>2019-07-07T08:02:21.837Z</time>
      </trkpt>
      <trkpt lat="42.909225" lon="0.137845">
        <ele>1939.0</ele>
        <time>2019-07-07T08:02:22.819Z</time>
      </trkpt>
      <trkpt lat="42.90915333" lon="0.13782333">
        <ele>1938.0</ele>
        <time>2019-07-07T08:02:23.837Z</time>
      </trkpt>
      <trkpt lat="42.90915333" lon="0.13782333">
        <ele>1938.0</ele>
        <time>2019-07-07T08:02:24.821Z</time>
      </trkpt>
      <trkpt lat="42.90899833" lon="0.13776667">
        <ele>1937.0</ele>
        <time>2019-07-07T08:02:25.804Z</time>
      </trkpt>
      <trkpt lat="42.90899833" lon="0.13776667">
        <ele>1937.0</ele>
        <time>2019-07-07T08:02:26.819Z</time>
      </trkpt>
      <trkpt lat="42.90883667" lon="0.13771833">
        <ele>1936.0</ele>
        <time>2019-07-07T08:02:27.829Z</time>
      </trkpt>
      <trkpt lat="42.90883667" lon="0.13771833">
        <ele>1936.0</ele>
        <time>2019-07-07T08:02:28.814Z</time>
      </trkpt>
      <trkpt lat="42.90867833" lon="0.1377">
        <ele>1934.0</ele>
        <time>2019-07-07T08:02:29.812Z</time>
      </trkpt>
      <trkpt lat="42.90867833" lon="0.1377">
        <ele>1934.0</ele>
        <time>2019-07-07T08:02:30.803Z</time>
      </trkpt>
      <trkpt lat="42.90852833" lon="0.13769167">
        <ele>1933.0</ele>
        <time>2019-07-07T08:02:31.812Z</time>
      </trkpt>
      <trkpt lat="42.90852833" lon="0.13769167">
        <ele>1933.0</ele>
        <time>2019-07-07T08:02:32.834Z</time>
      </trkpt>
      <trkpt lat="42.908385" lon="0.13769167">
        <ele>1932.0</ele>
        <time>2019-07-07T08:02:33.826Z</time>
      </trkpt>
      <trkpt lat="42.908385" lon="0.13769167">
        <ele>1932.0</ele>
        <time>2019-07-07T08:02:34.809Z</time>
      </trkpt>
      <trkpt lat="42.90822667" lon="0.13774167">
        <ele>1931.0</ele>
        <time>2019-07-07T08:02:35.823Z</time>
      </trkpt>
      <trkpt lat="42.90822667" lon="0.13774167">
        <ele>1931.0</ele>
        <time>2019-07-07T08:02:36.834Z</time>
      </trkpt>
      <trkpt lat="42.908065" lon="0.13783333">
        <ele>1929.0</ele>
        <time>2019-07-07T08:02:37.830Z</time>
      </trkpt>
      <trkpt lat="42.90798833" lon="0.13787333">
        <ele>1929.0</ele>
        <time>2019-07-07T08:02:38.827Z</time>
      </trkpt>
      <trkpt lat="42.90798833" lon="0.13787333">
        <ele>1929.0</ele>
        <time>2019-07-07T08:02:39.812Z</time>
      </trkpt>
      <trkpt lat="42.90783667" lon="0.13797">
        <ele>1927.0</ele>
        <time>2019-07-07T08:02:40.818Z</time>
      </trkpt>
      <trkpt lat="42.90783667" lon="0.13797">
        <ele>1927.0</ele>
        <time>2019-07-07T08:02:41.801Z</time>
      </trkpt>
      <trkpt lat="42.90769" lon="0.13813667">
        <ele>1926.0</ele>
        <time>2019-07-07T08:02:42.810Z</time>
      </trkpt>
      <trkpt lat="42.90761833" lon="0.13823333">
        <ele>1925.0</ele>
        <time>2019-07-07T08:02:43.828Z</time>
      </trkpt>
      <trkpt lat="42.90761833" lon="0.13823333">
        <ele>1925.0</ele>
        <time>2019-07-07T08:02:44.803Z</time>
      </trkpt>
      <trkpt lat="42.90746833" lon="0.13840333">
        <ele>1923.0</ele>
        <time>2019-07-07T08:02:45.809Z</time>
      </trkpt>
      <trkpt lat="42.90746833" lon="0.13840333">
        <ele>1923.0</ele>
        <time>2019-07-07T08:02:46.817Z</time>
      </trkpt>
      <trkpt lat="42.90728" lon="0.13848667">
        <ele>1922.0</ele>
        <time>2019-07-07T08:02:47.833Z</time>
      </trkpt>
      <trkpt lat="42.90717167" lon="0.13848333">
        <ele>1921.0</ele>
        <time>2019-07-07T08:02:48.822Z</time>
      </trkpt>
      <trkpt lat="42.90717167" lon="0.13848333">
        <ele>1921.0</ele>
        <time>2019-07-07T08:02:49.804Z</time>
      </trkpt>
      <trkpt lat="42.90694333" lon="0.13847667">
        <ele>1919.0</ele>
        <time>2019-07-07T08:02:50.811Z</time>
      </trkpt>
      <trkpt lat="42.90694333" lon="0.13847667">
        <ele>1919.0</ele>
        <time>2019-07-07T08:02:51.835Z</time>
      </trkpt>
      <trkpt lat="42.90671" lon="0.13853667">
        <ele>1918.0</ele>
        <time>2019-07-07T08:02:52.824Z</time>
      </trkpt>
      <trkpt lat="42.90659167" lon="0.138565">
        <ele>1917.0</ele>
        <time>2019-07-07T08:02:53.830Z</time>
      </trkpt>
      <trkpt lat="42.90659167" lon="0.138565">
        <ele>1917.0</ele>
        <time>2019-07-07T08:02:54.815Z</time>
      </trkpt>
      <trkpt lat="42.90635" lon="0.13854833">
        <ele>1915.0</ele>
        <time>2019-07-07T08:02:55.828Z</time>
      </trkpt>
      <trkpt lat="42.90623" lon="0.138495">
        <ele>1914.0</ele>
        <time>2019-07-07T08:02:56.802Z</time>
      </trkpt>
      <trkpt lat="42.90623" lon="0.138495">
        <ele>1914.0</ele>
        <time>2019-07-07T08:02:57.814Z</time>
      </trkpt>
      <trkpt lat="42.90601833" lon="0.13833667">
        <ele>1910.0</ele>
        <time>2019-07-07T08:02:58.820Z</time>
      </trkpt>
      <trkpt lat="42.90601833" lon="0.13833667">
        <ele>1910.0</ele>
        <time>2019-07-07T08:02:59.803Z</time>
      </trkpt>
      <trkpt lat="42.90581167" lon="0.138225">
        <ele>1906.0</ele>
        <time>2019-07-07T08:03:00.818Z</time>
      </trkpt>
      <trkpt lat="42.90571" lon="0.13817167">
        <ele>1905.0</ele>
        <time>2019-07-07T08:03:01.839Z</time>
      </trkpt>
      <trkpt lat="42.90571" lon="0.13817167">
        <ele>1905.0</ele>
        <time>2019-07-07T08:03:02.816Z</time>
      </trkpt>
      <trkpt lat="42.90552333" lon="0.13802667">
        <ele>1902.0</ele>
        <time>2019-07-07T08:03:03.830Z</time>
      </trkpt>
      <trkpt lat="42.90543833" lon="0.13794167">
        <ele>1901.0</ele>
        <time>2019-07-07T08:03:04.812Z</time>
      </trkpt>
      <trkpt lat="42.90543833" lon="0.13794167">
        <ele>1901.0</ele>
        <time>2019-07-07T08:03:05.824Z</time>
      </trkpt>
      <trkpt lat="42.90528833" lon="0.13774">
        <ele>1897.0</ele>
        <time>2019-07-07T08:03:06.831Z</time>
      </trkpt>
      <trkpt lat="42.90528833" lon="0.13774">
        <ele>1897.0</ele>
        <time>2019-07-07T08:03:07.809Z</time>
      </trkpt>
      <trkpt lat="42.90516333" lon="0.137495">
        <ele>1894.0</ele>
        <time>2019-07-07T08:03:08.830Z</time>
      </trkpt>
      <trkpt lat="42.90516333" lon="0.137495">
        <ele>1894.0</ele>
        <time>2019-07-07T08:03:09.804Z</time>
      </trkpt>
      <trkpt lat="42.905025" lon="0.13729333">
        <ele>1891.0</ele>
        <time>2019-07-07T08:03:10.811Z</time>
      </trkpt>
      <trkpt lat="42.905025" lon="0.13729333">
        <ele>1891.0</ele>
        <time>2019-07-07T08:03:11.834Z</time>
      </trkpt>
      <trkpt lat="42.90487667" lon="0.13714167">
        <ele>1887.0</ele>
        <time>2019-07-07T08:03:12.833Z</time>
      </trkpt>
      <trkpt lat="42.90487667" lon="0.13714167">
        <ele>1887.0</ele>
        <time>2019-07-07T08:03:13.840Z</time>
      </trkpt>
      <trkpt lat="42.90469333" lon="0.137075">
        <ele>1884.0</ele>
        <time>2019-07-07T08:03:14.807Z</time>
      </trkpt>
      <trkpt lat="42.90469333" lon="0.137075">
        <ele>1884.0</ele>
        <time>2019-07-07T08:03:15.820Z</time>
      </trkpt>
      <trkpt lat="42.90447667" lon="0.13709167">
        <ele>1881.0</ele>
        <time>2019-07-07T08:03:16.820Z</time>
      </trkpt>
      <trkpt lat="42.90447667" lon="0.13709167">
        <ele>1881.0</ele>
        <time>2019-07-07T08:03:17.802Z</time>
      </trkpt>
      <trkpt lat="42.90425833" lon="0.13710167">
        <ele>1878.0</ele>
        <time>2019-07-07T08:03:18.816Z</time>
      </trkpt>
      <trkpt lat="42.90415" lon="0.13708333">
        <ele>1876.0</ele>
        <time>2019-07-07T08:03:19.820Z</time>
      </trkpt>
      <trkpt lat="42.90415" lon="0.13708333">
        <ele>1876.0</ele>
        <time>2019-07-07T08:03:20.802Z</time>
      </trkpt>
      <trkpt lat="42.90394333" lon="0.13700667">
        <ele>1873.0</ele>
        <time>2019-07-07T08:03:21.810Z</time>
      </trkpt>
      <trkpt lat="42.90384833" lon="0.13695833">
        <ele>1872.0</ele>
        <time>2019-07-07T08:03:22.821Z</time>
      </trkpt>
      <trkpt lat="42.90384833" lon="0.13695833">
        <ele>1872.0</ele>
        <time>2019-07-07T08:03:23.804Z</time>
      </trkpt>
      <trkpt lat="42.90369" lon="0.13680667">
        <ele>1870.0</ele>
        <time>2019-07-07T08:03:24.815Z</time>
      </trkpt>
      <trkpt lat="42.90362167" lon="0.13670167">
        <ele>1869.0</ele>
        <time>2019-07-07T08:03:25.839Z</time>
      </trkpt>
      <trkpt lat="42.90362167" lon="0.13670167">
        <ele>1869.0</ele>
        <time>2019-07-07T08:03:26.824Z</time>
      </trkpt>
      <trkpt lat="42.903525" lon="0.13647167">
        <ele>1867.0</ele>
        <time>2019-07-07T08:03:27.831Z</time>
      </trkpt>
      <trkpt lat="42.903525" lon="0.13647167">
        <ele>1867.0</ele>
        <time>2019-07-07T08:03:28.819Z</time>
      </trkpt>
      <trkpt lat="42.90339" lon="0.13628167">
        <ele>1865.0</ele>
        <time>2019-07-07T08:03:29.838Z</time>
      </trkpt>
      <trkpt lat="42.90339" lon="0.13628167">
        <ele>1865.0</ele>
        <time>2019-07-07T08:03:30.823Z</time>
      </trkpt>
      <trkpt lat="42.90322667" lon="0.13615833">
        <ele>1863.0</ele>
        <time>2019-07-07T08:03:31.830Z</time>
      </trkpt>
      <trkpt lat="42.90322667" lon="0.13615833">
        <ele>1863.0</ele>
        <time>2019-07-07T08:03:32.819Z</time>
      </trkpt>
      <trkpt lat="42.90305667" lon="0.136105">
        <ele>1860.0</ele>
        <time>2019-07-07T08:03:33.824Z</time>
      </trkpt>
      <trkpt lat="42.90297333" lon="0.13607833">
        <ele>1859.0</ele>
        <time>2019-07-07T08:03:34.809Z</time>
      </trkpt>
      <trkpt lat="42.90297333" lon="0.13607833">
        <ele>1859.0</ele>
        <time>2019-07-07T08:03:35.831Z</time>
      </trkpt>
      <trkpt lat="42.90285" lon="0.13595">
        <ele>1857.0</ele>
        <time>2019-07-07T08:03:36.812Z</time>
      </trkpt>
      <trkpt lat="42.90285" lon="0.13595">
        <ele>1857.0</ele>
        <time>2019-07-07T08:03:37.816Z</time>
      </trkpt>
      <trkpt lat="42.90280833" lon="0.13572333">
        <ele>1855.0</ele>
        <time>2019-07-07T08:03:38.823Z</time>
      </trkpt>
      <trkpt lat="42.90280833" lon="0.13572333">
        <ele>1855.0</ele>
        <time>2019-07-07T08:03:39.820Z</time>
      </trkpt>
      <trkpt lat="42.90275667" lon="0.13546167">
        <ele>1853.0</ele>
        <time>2019-07-07T08:03:40.823Z</time>
      </trkpt>
      <trkpt lat="42.90275667" lon="0.13546167">
        <ele>1853.0</ele>
        <time>2019-07-07T08:03:41.804Z</time>
      </trkpt>
      <trkpt lat="42.90271333" lon="0.13518333">
        <ele>1851.0</ele>
        <time>2019-07-07T08:03:42.812Z</time>
      </trkpt>
      <trkpt lat="42.90273167" lon="0.135035">
        <ele>1850.0</ele>
        <time>2019-07-07T08:03:43.820Z</time>
      </trkpt>
      <trkpt lat="42.90273167" lon="0.135035">
        <ele>1850.0</ele>
        <time>2019-07-07T08:03:44.803Z</time>
      </trkpt>
      <trkpt lat="42.90277333" lon="0.13477333">
        <ele>1848.0</ele>
        <time>2019-07-07T08:03:45.836Z</time>
      </trkpt>
      <trkpt lat="42.90277333" lon="0.13477333">
        <ele>1848.0</ele>
        <time>2019-07-07T08:03:46.820Z</time>
      </trkpt>
      <trkpt lat="42.90274333" lon="0.13451833">
        <ele>1846.0</ele>
        <time>2019-07-07T08:03:47.803Z</time>
      </trkpt>
      <trkpt lat="42.90274333" lon="0.13451833">
        <ele>1846.0</ele>
        <time>2019-07-07T08:03:48.823Z</time>
      </trkpt>
      <trkpt lat="42.90266" lon="0.13426667">
        <ele>1843.0</ele>
        <time>2019-07-07T08:03:49.830Z</time>
      </trkpt>
      <trkpt lat="42.9026" lon="0.13416667">
        <ele>1842.0</ele>
        <time>2019-07-07T08:03:50.807Z</time>
      </trkpt>
      <trkpt lat="42.9026" lon="0.13416667">
        <ele>1842.0</ele>
        <time>2019-07-07T08:03:51.821Z</time>
      </trkpt>
      <trkpt lat="42.90242167" lon="0.13404333">
        <ele>1840.0</ele>
        <time>2019-07-07T08:03:52.828Z</time>
      </trkpt>
      <trkpt lat="42.90242167" lon="0.13404333">
        <ele>1840.0</ele>
        <time>2019-07-07T08:03:53.821Z</time>
      </trkpt>
      <trkpt lat="42.90227833" lon="0.13389333">
        <ele>1838.0</ele>
        <time>2019-07-07T08:03:54.826Z</time>
      </trkpt>
      <trkpt lat="42.90225" lon="0.13377333">
        <ele>1837.0</ele>
        <time>2019-07-07T08:03:55.801Z</time>
      </trkpt>
      <trkpt lat="42.90225" lon="0.13377333">
        <ele>1837.0</ele>
        <time>2019-07-07T08:03:56.815Z</time>
      </trkpt>
      <trkpt lat="42.902225" lon="0.13350333">
        <ele>1835.0</ele>
        <time>2019-07-07T08:03:57.840Z</time>
      </trkpt>
      <trkpt lat="42.90219833" lon="0.13336667">
        <ele>1834.0</ele>
        <time>2019-07-07T08:03:58.836Z</time>
      </trkpt>
      <trkpt lat="42.90219833" lon="0.13336667">
        <ele>1834.0</ele>
        <time>2019-07-07T08:03:59.819Z</time>
      </trkpt>
      <trkpt lat="42.90211" lon="0.13310833">
        <ele>1832.0</ele>
        <time>2019-07-07T08:04:00.840Z</time>
      </trkpt>
      <trkpt lat="42.90211" lon="0.13310833">
        <ele>1832.0</ele>
        <time>2019-07-07T08:04:01.807Z</time>
      </trkpt>
      <trkpt lat="42.90201333" lon="0.13289">
        <ele>1830.0</ele>
        <time>2019-07-07T08:04:02.814Z</time>
      </trkpt>
      <trkpt lat="42.90201333" lon="0.13289">
        <ele>1830.0</ele>
        <time>2019-07-07T08:04:03.830Z</time>
      </trkpt>
      <trkpt lat="42.901955" lon="0.13270333">
        <ele>1828.0</ele>
        <time>2019-07-07T08:04:04.820Z</time>
      </trkpt>
      <trkpt lat="42.901955" lon="0.13270333">
        <ele>1828.0</ele>
        <time>2019-07-07T08:04:05.830Z</time>
      </trkpt>
      <trkpt lat="42.90197667" lon="0.13251833">
        <ele>1826.0</ele>
        <time>2019-07-07T08:04:06.836Z</time>
      </trkpt>
      <trkpt lat="42.90197667" lon="0.13251833">
        <ele>1826.0</ele>
        <time>2019-07-07T08:04:07.821Z</time>
      </trkpt>
      <trkpt lat="42.902065" lon="0.13239333">
        <ele>1825.0</ele>
        <time>2019-07-07T08:04:08.819Z</time>
      </trkpt>
      <trkpt lat="42.902065" lon="0.13239333">
        <ele>1825.0</ele>
        <time>2019-07-07T08:04:09.806Z</time>
      </trkpt>
      <trkpt lat="42.902215" lon="0.13237667">
        <ele>1823.0</ele>
        <time>2019-07-07T08:04:10.814Z</time>
      </trkpt>
      <trkpt lat="42.902215" lon="0.13237667">
        <ele>1823.0</ele>
        <time>2019-07-07T08:04:11.820Z</time>
      </trkpt>
      <trkpt lat="42.902355" lon="0.13236833">
        <ele>1821.0</ele>
        <time>2019-07-07T08:04:12.840Z</time>
      </trkpt>
      <trkpt lat="42.902355" lon="0.13236833">
        <ele>1821.0</ele>
        <time>2019-07-07T08:04:13.807Z</time>
      </trkpt>
      <trkpt lat="42.90249667" lon="0.13232167">
        <ele>1819.0</ele>
        <time>2019-07-07T08:04:14.818Z</time>
      </trkpt>
      <trkpt lat="42.90257167" lon="0.13229667">
        <ele>1818.0</ele>
        <time>2019-07-07T08:04:15.808Z</time>
      </trkpt>
      <trkpt lat="42.90257167" lon="0.13229667">
        <ele>1818.0</ele>
        <time>2019-07-07T08:04:16.832Z</time>
      </trkpt>
      <trkpt lat="42.90271833" lon="0.13224167">
        <ele>1817.0</ele>
        <time>2019-07-07T08:04:17.838Z</time>
      </trkpt>
      <trkpt lat="42.90271833" lon="0.13224167">
        <ele>1817.0</ele>
        <time>2019-07-07T08:04:18.804Z</time>
      </trkpt>
      <trkpt lat="42.90285" lon="0.13211167">
        <ele>1815.0</ele>
        <time>2019-07-07T08:04:19.833Z</time>
      </trkpt>
      <trkpt lat="42.90290667" lon="0.13201833">
        <ele>1814.0</ele>
        <time>2019-07-07T08:04:20.806Z</time>
      </trkpt>
      <trkpt lat="42.90290667" lon="0.13201833">
        <ele>1814.0</ele>
        <time>2019-07-07T08:04:21.830Z</time>
      </trkpt>
      <trkpt lat="42.90302667" lon="0.13181833">
        <ele>1812.0</ele>
        <time>2019-07-07T08:04:22.823Z</time>
      </trkpt>
      <trkpt lat="42.9031" lon="0.13172667">
        <ele>1812.0</ele>
        <time>2019-07-07T08:04:23.836Z</time>
      </trkpt>
      <trkpt lat="42.9031" lon="0.13172667">
        <ele>1812.0</ele>
        <time>2019-07-07T08:04:24.818Z</time>
      </trkpt>
      <trkpt lat="42.903255" lon="0.13156167">
        <ele>1810.0</ele>
        <time>2019-07-07T08:04:25.828Z</time>
      </trkpt>
      <trkpt lat="42.903255" lon="0.13156167">
        <ele>1810.0</ele>
        <time>2019-07-07T08:04:26.806Z</time>
      </trkpt>
      <trkpt lat="42.90336667" lon="0.13138667">
        <ele>1809.0</ele>
        <time>2019-07-07T08:04:27.819Z</time>
      </trkpt>
      <trkpt lat="42.90336667" lon="0.13138667">
        <ele>1809.0</ele>
        <time>2019-07-07T08:04:28.827Z</time>
      </trkpt>
      <trkpt lat="42.90341333" lon="0.131175">
        <ele>1808.0</ele>
        <time>2019-07-07T08:04:29.818Z</time>
      </trkpt>
      <trkpt lat="42.90340667" lon="0.13105167">
        <ele>1807.0</ele>
        <time>2019-07-07T08:04:30.825Z</time>
      </trkpt>
      <trkpt lat="42.90340667" lon="0.13105167">
        <ele>1807.0</ele>
        <time>2019-07-07T08:04:31.801Z</time>
      </trkpt>
      <trkpt lat="42.90339667" lon="0.13076333">
        <ele>1805.0</ele>
        <time>2019-07-07T08:04:32.828Z</time>
      </trkpt>
      <trkpt lat="42.90339667" lon="0.13076333">
        <ele>1805.0</ele>
        <time>2019-07-07T08:04:33.838Z</time>
      </trkpt>
      <trkpt lat="42.903455" lon="0.13045833">
        <ele>1803.0</ele>
        <time>2019-07-07T08:04:34.804Z</time>
      </trkpt>
      <trkpt lat="42.903455" lon="0.13045833">
        <ele>1803.0</ele>
        <time>2019-07-07T08:04:35.822Z</time>
      </trkpt>
      <trkpt lat="42.90353167" lon="0.13016333">
        <ele>1801.0</ele>
        <time>2019-07-07T08:04:36.816Z</time>
      </trkpt>
      <trkpt lat="42.90353167" lon="0.13016333">
        <ele>1801.0</ele>
        <time>2019-07-07T08:04:37.832Z</time>
      </trkpt>
      <trkpt lat="42.90361333" lon="0.129875">
        <ele>1800.0</ele>
        <time>2019-07-07T08:04:38.839Z</time>
      </trkpt>
      <trkpt lat="42.90366" lon="0.129735">
        <ele>1799.0</ele>
        <time>2019-07-07T08:04:39.826Z</time>
      </trkpt>
      <trkpt lat="42.90370167" lon="0.129605">
        <ele>1798.0</ele>
        <time>2019-07-07T08:04:40.809Z</time>
      </trkpt>
      <trkpt lat="42.90370167" lon="0.129605">
        <ele>1798.0</ele>
        <time>2019-07-07T08:04:41.830Z</time>
      </trkpt>
      <trkpt lat="42.90378333" lon="0.12933167">
        <ele>1796.0</ele>
        <time>2019-07-07T08:04:42.837Z</time>
      </trkpt>
      <trkpt lat="42.903805" lon="0.12918667">
        <ele>1795.0</ele>
        <time>2019-07-07T08:04:43.822Z</time>
      </trkpt>
      <trkpt lat="42.903805" lon="0.12918667">
        <ele>1795.0</ele>
        <time>2019-07-07T08:04:44.833Z</time>
      </trkpt>
      <trkpt lat="42.90381833" lon="0.128895">
        <ele>1793.0</ele>
        <time>2019-07-07T08:04:45.820Z</time>
      </trkpt>
      <trkpt lat="42.90381833" lon="0.128895">
        <ele>1793.0</ele>
        <time>2019-07-07T08:04:46.838Z</time>
      </trkpt>
      <trkpt lat="42.90376" lon="0.12860167">
        <ele>1791.0</ele>
        <time>2019-07-07T08:04:47.834Z</time>
      </trkpt>
      <trkpt lat="42.90376" lon="0.12860167">
        <ele>1791.0</ele>
        <time>2019-07-07T08:04:48.810Z</time>
      </trkpt>
      <trkpt lat="42.903675" lon="0.128315">
        <ele>1789.0</ele>
        <time>2019-07-07T08:04:49.821Z</time>
      </trkpt>
      <trkpt lat="42.903675" lon="0.128315">
        <ele>1789.0</ele>
        <time>2019-07-07T08:04:50.802Z</time>
      </trkpt>
      <trkpt lat="42.90361333" lon="0.128045">
        <ele>1787.0</ele>
        <time>2019-07-07T08:04:51.820Z</time>
      </trkpt>
      <trkpt lat="42.90361833" lon="0.1279">
        <ele>1785.0</ele>
        <time>2019-07-07T08:04:52.801Z</time>
      </trkpt>
      <trkpt lat="42.90361833" lon="0.1279">
        <ele>1785.0</ele>
        <time>2019-07-07T08:04:53.818Z</time>
      </trkpt>
      <trkpt lat="42.903695" lon="0.12761333">
        <ele>1784.0</ele>
        <time>2019-07-07T08:04:54.824Z</time>
      </trkpt>
      <trkpt lat="42.90373" lon="0.12747167">
        <ele>1783.0</ele>
        <time>2019-07-07T08:04:55.808Z</time>
      </trkpt>
      <trkpt lat="42.90373" lon="0.12747167">
        <ele>1783.0</ele>
        <time>2019-07-07T08:04:56.831Z</time>
      </trkpt>
      <trkpt lat="42.90374333" lon="0.12719">
        <ele>1780.0</ele>
        <time>2019-07-07T08:04:57.837Z</time>
      </trkpt>
      <trkpt lat="42.90374167" lon="0.127055">
        <ele>1779.0</ele>
        <time>2019-07-07T08:04:58.821Z</time>
      </trkpt>
      <trkpt lat="42.90374167" lon="0.127055">
        <ele>1779.0</ele>
        <time>2019-07-07T08:04:59.836Z</time>
      </trkpt>
      <trkpt lat="42.903755" lon="0.12680167">
        <ele>1777.0</ele>
        <time>2019-07-07T08:05:00.834Z</time>
      </trkpt>
      <trkpt lat="42.903755" lon="0.12680167">
        <ele>1777.0</ele>
        <time>2019-07-07T08:05:01.817Z</time>
      </trkpt>
      <trkpt lat="42.90383333" lon="0.126595">
        <ele>1775.0</ele>
        <time>2019-07-07T08:05:02.834Z</time>
      </trkpt>
      <trkpt lat="42.90388833" lon="0.12652833">
        <ele>1774.0</ele>
        <time>2019-07-07T08:05:03.825Z</time>
      </trkpt>
      <trkpt lat="42.903945" lon="0.126495">
        <ele>1774.0</ele>
        <time>2019-07-07T08:05:04.816Z</time>
      </trkpt>
      <trkpt lat="42.90400333" lon="0.12649833">
        <ele>1773.0</ele>
        <time>2019-07-07T08:05:05.840Z</time>
      </trkpt>
      <trkpt lat="42.90400333" lon="0.12649833">
        <ele>1773.0</ele>
        <time>2019-07-07T08:05:06.824Z</time>
      </trkpt>
      <trkpt lat="42.90410333" lon="0.12661">
        <ele>1772.0</ele>
        <time>2019-07-07T08:05:07.831Z</time>
      </trkpt>
      <trkpt lat="42.90410333" lon="0.12661">
        <ele>1772.0</ele>
        <time>2019-07-07T08:05:08.814Z</time>
      </trkpt>
      <trkpt lat="42.90410833" lon="0.12682">
        <ele>1769.0</ele>
        <time>2019-07-07T08:05:09.822Z</time>
      </trkpt>
      <trkpt lat="42.90409833" lon="0.12695333">
        <ele>1768.0</ele>
        <time>2019-07-07T08:05:10.829Z</time>
      </trkpt>
      <trkpt lat="42.90409833" lon="0.12695333">
        <ele>1768.0</ele>
        <time>2019-07-07T08:05:11.837Z</time>
      </trkpt>
      <trkpt lat="42.90411167" lon="0.12723833">
        <ele>1766.0</ele>
        <time>2019-07-07T08:05:12.804Z</time>
      </trkpt>
      <trkpt lat="42.90411167" lon="0.12723833">
        <ele>1766.0</ele>
        <time>2019-07-07T08:05:13.816Z</time>
      </trkpt>
      <trkpt lat="42.90417333" lon="0.127525">
        <ele>1765.0</ele>
        <time>2019-07-07T08:05:14.822Z</time>
      </trkpt>
      <trkpt lat="42.90417333" lon="0.127525">
        <ele>1765.0</ele>
        <time>2019-07-07T08:05:15.835Z</time>
      </trkpt>
      <trkpt lat="42.90421667" lon="0.12783167">
        <ele>1763.0</ele>
        <time>2019-07-07T08:05:16.809Z</time>
      </trkpt>
      <trkpt lat="42.90421667" lon="0.12783167">
        <ele>1763.0</ele>
        <time>2019-07-07T08:05:17.833Z</time>
      </trkpt>
      <trkpt lat="42.90424167" lon="0.12815">
        <ele>1762.0</ele>
        <time>2019-07-07T08:05:18.808Z</time>
      </trkpt>
      <trkpt lat="42.90424167" lon="0.12815">
        <ele>1762.0</ele>
        <time>2019-07-07T08:05:19.831Z</time>
      </trkpt>
      <trkpt lat="42.904285" lon="0.12847167">
        <ele>1761.0</ele>
        <time>2019-07-07T08:05:20.805Z</time>
      </trkpt>
      <trkpt lat="42.904285" lon="0.12847167">
        <ele>1761.0</ele>
        <time>2019-07-07T08:05:21.804Z</time>
      </trkpt>
      <trkpt lat="42.90433" lon="0.128795">
        <ele>1760.0</ele>
        <time>2019-07-07T08:05:22.827Z</time>
      </trkpt>
      <trkpt lat="42.90433" lon="0.128795">
        <ele>1760.0</ele>
        <time>2019-07-07T08:05:23.832Z</time>
      </trkpt>
      <trkpt lat="42.90439" lon="0.12911333">
        <ele>1759.0</ele>
        <time>2019-07-07T08:05:24.839Z</time>
      </trkpt>
      <trkpt lat="42.90439" lon="0.12911333">
        <ele>1759.0</ele>
        <time>2019-07-07T08:05:25.824Z</time>
      </trkpt>
      <trkpt lat="42.90445833" lon="0.12943167">
        <ele>1757.0</ele>
        <time>2019-07-07T08:05:26.816Z</time>
      </trkpt>
      <trkpt lat="42.90445833" lon="0.12943167">
        <ele>1757.0</ele>
        <time>2019-07-07T08:05:27.836Z</time>
      </trkpt>
      <trkpt lat="42.904575" lon="0.12973167">
        <ele>1754.0</ele>
        <time>2019-07-07T08:05:28.802Z</time>
      </trkpt>
      <trkpt lat="42.904575" lon="0.12973167">
        <ele>1754.0</ele>
        <time>2019-07-07T08:05:29.839Z</time>
      </trkpt>
      <trkpt lat="42.904775" lon="0.12997">
        <ele>1753.0</ele>
        <time>2019-07-07T08:05:30.824Z</time>
      </trkpt>
      <trkpt lat="42.904775" lon="0.12997">
        <ele>1753.0</ele>
        <time>2019-07-07T08:05:31.829Z</time>
      </trkpt>
      <trkpt lat="42.904995" lon="0.13013333">
        <ele>1751.0</ele>
        <time>2019-07-07T08:05:32.837Z</time>
      </trkpt>
      <trkpt lat="42.904995" lon="0.13013333">
        <ele>1751.0</ele>
        <time>2019-07-07T08:05:33.839Z</time>
      </trkpt>
      <trkpt lat="42.90520667" lon="0.13029667">
        <ele>1748.0</ele>
        <time>2019-07-07T08:05:34.840Z</time>
      </trkpt>
      <trkpt lat="42.90520667" lon="0.13029667">
        <ele>1748.0</ele>
        <time>2019-07-07T08:05:35.822Z</time>
      </trkpt>
      <trkpt lat="42.90538333" lon="0.13053833">
        <ele>1746.0</ele>
        <time>2019-07-07T08:05:36.829Z</time>
      </trkpt>
      <trkpt lat="42.90538333" lon="0.13053833">
        <ele>1746.0</ele>
        <time>2019-07-07T08:05:37.838Z</time>
      </trkpt>
      <trkpt lat="42.90553" lon="0.13082167">
        <ele>1743.0</ele>
        <time>2019-07-07T08:05:38.840Z</time>
      </trkpt>
      <trkpt lat="42.90553" lon="0.13082167">
        <ele>1743.0</ele>
        <time>2019-07-07T08:05:39.836Z</time>
      </trkpt>
      <trkpt lat="42.90561667" lon="0.13111667">
        <ele>1741.0</ele>
        <time>2019-07-07T08:05:40.802Z</time>
      </trkpt>
      <trkpt lat="42.90561667" lon="0.13111667">
        <ele>1741.0</ele>
        <time>2019-07-07T08:05:41.815Z</time>
      </trkpt>
      <trkpt lat="42.90568333" lon="0.131395">
        <ele>1740.0</ele>
        <time>2019-07-07T08:05:42.820Z</time>
      </trkpt>
      <trkpt lat="42.90568333" lon="0.131395">
        <ele>1740.0</ele>
        <time>2019-07-07T08:05:43.823Z</time>
      </trkpt>
      <trkpt lat="42.90583167" lon="0.13157">
        <ele>1739.0</ele>
        <time>2019-07-07T08:05:44.835Z</time>
      </trkpt>
      <trkpt lat="42.90592167" lon="0.13161">
        <ele>1738.0</ele>
        <time>2019-07-07T08:05:45.812Z</time>
      </trkpt>
      <trkpt lat="42.90592167" lon="0.13161">
        <ele>1738.0</ele>
        <time>2019-07-07T08:05:46.835Z</time>
      </trkpt>
      <trkpt lat="42.90612" lon="0.13160833">
        <ele>1736.0</ele>
        <time>2019-07-07T08:05:47.821Z</time>
      </trkpt>
      <trkpt lat="42.90612" lon="0.13160833">
        <ele>1736.0</ele>
        <time>2019-07-07T08:05:48.827Z</time>
      </trkpt>
      <trkpt lat="42.90631667" lon="0.13152667">
        <ele>1735.0</ele>
        <time>2019-07-07T08:05:49.833Z</time>
      </trkpt>
      <trkpt lat="42.90641" lon="0.131455">
        <ele>1734.0</ele>
        <time>2019-07-07T08:05:50.813Z</time>
      </trkpt>
      <trkpt lat="42.90641" lon="0.131455">
        <ele>1734.0</ele>
        <time>2019-07-07T08:05:51.827Z</time>
      </trkpt>
      <trkpt lat="42.90655667" lon="0.13124167">
        <ele>1734.0</ele>
        <time>2019-07-07T08:05:52.808Z</time>
      </trkpt>
      <trkpt lat="42.90655667" lon="0.13124167">
        <ele>1734.0</ele>
        <time>2019-07-07T08:05:53.831Z</time>
      </trkpt>
      <trkpt lat="42.90664167" lon="0.13098167">
        <ele>1734.0</ele>
        <time>2019-07-07T08:05:54.824Z</time>
      </trkpt>
      <trkpt lat="42.90664167" lon="0.13098167">
        <ele>1734.0</ele>
        <time>2019-07-07T08:05:55.803Z</time>
      </trkpt>
      <trkpt lat="42.90670167" lon="0.13071167">
        <ele>1734.0</ele>
        <time>2019-07-07T08:05:56.809Z</time>
      </trkpt>
      <trkpt lat="42.90670167" lon="0.13071167">
        <ele>1734.0</ele>
        <time>2019-07-07T08:05:57.833Z</time>
      </trkpt>
      <trkpt lat="42.90675833" lon="0.13043833">
        <ele>1733.0</ele>
        <time>2019-07-07T08:05:58.834Z</time>
      </trkpt>
      <trkpt lat="42.90675833" lon="0.13043833">
        <ele>1733.0</ele>
        <time>2019-07-07T08:05:59.833Z</time>
      </trkpt>
      <trkpt lat="42.90683167" lon="0.13016333">
        <ele>1732.0</ele>
        <time>2019-07-07T08:06:00.839Z</time>
      </trkpt>
      <trkpt lat="42.90687" lon="0.130025">
        <ele>1732.0</ele>
        <time>2019-07-07T08:06:01.840Z</time>
      </trkpt>
      <trkpt lat="42.90687" lon="0.130025">
        <ele>1732.0</ele>
        <time>2019-07-07T08:06:02.823Z</time>
      </trkpt>
      <trkpt lat="42.90693667" lon="0.12973">
        <ele>1731.0</ele>
        <time>2019-07-07T08:06:03.830Z</time>
      </trkpt>
      <trkpt lat="42.90695" lon="0.12957667">
        <ele>1730.0</ele>
        <time>2019-07-07T08:06:04.836Z</time>
      </trkpt>
      <trkpt lat="42.906955" lon="0.12941833">
        <ele>1730.0</ele>
        <time>2019-07-07T08:06:05.802Z</time>
      </trkpt>
      <trkpt lat="42.906955" lon="0.12941833">
        <ele>1730.0</ele>
        <time>2019-07-07T08:06:06.825Z</time>
      </trkpt>
      <trkpt lat="42.90695167" lon="0.129085">
        <ele>1728.0</ele>
        <time>2019-07-07T08:06:07.801Z</time>
      </trkpt>
      <trkpt lat="42.90695167" lon="0.129085">
        <ele>1728.0</ele>
        <time>2019-07-07T08:06:08.825Z</time>
      </trkpt>
      <trkpt lat="42.90696" lon="0.12873">
        <ele>1726.0</ele>
        <time>2019-07-07T08:06:09.831Z</time>
      </trkpt>
      <trkpt lat="42.90696" lon="0.12873">
        <ele>1726.0</ele>
        <time>2019-07-07T08:06:10.803Z</time>
      </trkpt>
      <trkpt lat="42.90697167" lon="0.12835833">
        <ele>1723.0</ele>
        <time>2019-07-07T08:06:11.830Z</time>
      </trkpt>
      <trkpt lat="42.90697167" lon="0.12835833">
        <ele>1723.0</ele>
        <time>2019-07-07T08:06:12.828Z</time>
      </trkpt>
      <trkpt lat="42.90699167" lon="0.12797667">
        <ele>1720.0</ele>
        <time>2019-07-07T08:06:13.836Z</time>
      </trkpt>
      <trkpt lat="42.90700333" lon="0.12778333">
        <ele>1719.0</ele>
        <time>2019-07-07T08:06:14.833Z</time>
      </trkpt>
      <trkpt lat="42.90701667" lon="0.12759">
        <ele>1717.0</ele>
        <time>2019-07-07T08:06:15.817Z</time>
      </trkpt>
      <trkpt lat="42.90701667" lon="0.12759">
        <ele>1717.0</ele>
        <time>2019-07-07T08:06:16.801Z</time>
      </trkpt>
      <trkpt lat="42.90705167" lon="0.12720667">
        <ele>1715.0</ele>
        <time>2019-07-07T08:06:17.821Z</time>
      </trkpt>
      <trkpt lat="42.90706667" lon="0.12701333">
        <ele>1714.0</ele>
        <time>2019-07-07T08:06:18.834Z</time>
      </trkpt>
      <trkpt lat="42.90707833" lon="0.12682">
        <ele>1712.0</ele>
        <time>2019-07-07T08:06:19.820Z</time>
      </trkpt>
      <trkpt lat="42.90707833" lon="0.12682">
        <ele>1712.0</ele>
        <time>2019-07-07T08:06:20.829Z</time>
      </trkpt>
      <trkpt lat="42.90710167" lon="0.12642167">
        <ele>1710.0</ele>
        <time>2019-07-07T08:06:21.835Z</time>
      </trkpt>
      <trkpt lat="42.90711333" lon="0.12622">
        <ele>1708.0</ele>
        <time>2019-07-07T08:06:22.837Z</time>
      </trkpt>
      <trkpt lat="42.90711333" lon="0.12622">
        <ele>1708.0</ele>
        <time>2019-07-07T08:06:23.821Z</time>
      </trkpt>
      <trkpt lat="42.907125" lon="0.125815">
        <ele>1705.0</ele>
        <time>2019-07-07T08:06:24.828Z</time>
      </trkpt>
      <trkpt lat="42.907125" lon="0.125815">
        <ele>1705.0</ele>
        <time>2019-07-07T08:06:25.809Z</time>
      </trkpt>
      <trkpt lat="42.907105" lon="0.12542167">
        <ele>1703.0</ele>
        <time>2019-07-07T08:06:26.830Z</time>
      </trkpt>
      <trkpt lat="42.90709167" lon="0.12522667">
        <ele>1701.0</ele>
        <time>2019-07-07T08:06:27.826Z</time>
      </trkpt>
      <trkpt lat="42.90709167" lon="0.12522667">
        <ele>1701.0</ele>
        <time>2019-07-07T08:06:28.810Z</time>
      </trkpt>
      <trkpt lat="42.90706667" lon="0.12483">
        <ele>1698.0</ele>
        <time>2019-07-07T08:06:29.830Z</time>
      </trkpt>
      <trkpt lat="42.90706667" lon="0.12483">
        <ele>1698.0</ele>
        <time>2019-07-07T08:06:30.815Z</time>
      </trkpt>
      <trkpt lat="42.90704833" lon="0.12443">
        <ele>1696.0</ele>
        <time>2019-07-07T08:06:31.821Z</time>
      </trkpt>
      <trkpt lat="42.90704333" lon="0.12422833">
        <ele>1695.0</ele>
        <time>2019-07-07T08:06:32.809Z</time>
      </trkpt>
      <trkpt lat="42.907045" lon="0.12402167">
        <ele>1693.0</ele>
        <time>2019-07-07T08:06:33.805Z</time>
      </trkpt>
      <trkpt lat="42.90705167" lon="0.12381">
        <ele>1691.0</ele>
        <time>2019-07-07T08:06:34.832Z</time>
      </trkpt>
      <trkpt lat="42.90705167" lon="0.12381">
        <ele>1691.0</ele>
        <time>2019-07-07T08:06:35.821Z</time>
      </trkpt>
      <trkpt lat="42.90706833" lon="0.12339333">
        <ele>1688.0</ele>
        <time>2019-07-07T08:06:36.833Z</time>
      </trkpt>
      <trkpt lat="42.90706833" lon="0.12339333">
        <ele>1688.0</ele>
        <time>2019-07-07T08:06:37.805Z</time>
      </trkpt>
      <trkpt lat="42.90707333" lon="0.12298333">
        <ele>1686.0</ele>
        <time>2019-07-07T08:06:38.834Z</time>
      </trkpt>
      <trkpt lat="42.90707333" lon="0.12298333">
        <ele>1686.0</ele>
        <time>2019-07-07T08:06:39.802Z</time>
      </trkpt>
      <trkpt lat="42.90706667" lon="0.12257667">
        <ele>1684.0</ele>
        <time>2019-07-07T08:06:40.810Z</time>
      </trkpt>
      <trkpt lat="42.90706667" lon="0.12257667">
        <ele>1684.0</ele>
        <time>2019-07-07T08:06:41.833Z</time>
      </trkpt>
      <trkpt lat="42.90706333" lon="0.12216667">
        <ele>1682.0</ele>
        <time>2019-07-07T08:06:42.823Z</time>
      </trkpt>
      <trkpt lat="42.90706167" lon="0.12196333">
        <ele>1681.0</ele>
        <time>2019-07-07T08:06:43.806Z</time>
      </trkpt>
      <trkpt lat="42.90706333" lon="0.12175833">
        <ele>1679.0</ele>
        <time>2019-07-07T08:06:44.834Z</time>
      </trkpt>
      <trkpt lat="42.90706" lon="0.12155833">
        <ele>1678.0</ele>
        <time>2019-07-07T08:06:45.832Z</time>
      </trkpt>
      <trkpt lat="42.90706" lon="0.12155833">
        <ele>1678.0</ele>
        <time>2019-07-07T08:06:46.806Z</time>
      </trkpt>
      <trkpt lat="42.90706167" lon="0.12115667">
        <ele>1675.0</ele>
        <time>2019-07-07T08:06:47.827Z</time>
      </trkpt>
      <trkpt lat="42.90706833" lon="0.12095833">
        <ele>1674.0</ele>
        <time>2019-07-07T08:06:48.830Z</time>
      </trkpt>
      <trkpt lat="42.90706833" lon="0.12095833">
        <ele>1674.0</ele>
        <time>2019-07-07T08:06:49.806Z</time>
      </trkpt>
      <trkpt lat="42.90708667" lon="0.12056833">
        <ele>1670.0</ele>
        <time>2019-07-07T08:06:50.827Z</time>
      </trkpt>
      <trkpt lat="42.90708667" lon="0.12056833">
        <ele>1670.0</ele>
        <time>2019-07-07T08:06:51.809Z</time>
      </trkpt>
      <trkpt lat="42.90712333" lon="0.12017">
        <ele>1667.0</ele>
        <time>2019-07-07T08:06:52.817Z</time>
      </trkpt>
      <trkpt lat="42.90712333" lon="0.12017">
        <ele>1667.0</ele>
        <time>2019-07-07T08:06:53.802Z</time>
      </trkpt>
      <trkpt lat="42.90715833" lon="0.11976">
        <ele>1665.0</ele>
        <time>2019-07-07T08:06:54.808Z</time>
      </trkpt>
      <trkpt lat="42.907175" lon="0.11955333">
        <ele>1663.0</ele>
        <time>2019-07-07T08:06:55.818Z</time>
      </trkpt>
      <trkpt lat="42.907175" lon="0.11955333">
        <ele>1663.0</ele>
        <time>2019-07-07T08:06:56.802Z</time>
      </trkpt>
      <trkpt lat="42.90721167" lon="0.11914667">
        <ele>1660.0</ele>
        <time>2019-07-07T08:06:57.808Z</time>
      </trkpt>
      <trkpt lat="42.90723" lon="0.11895667">
        <ele>1659.0</ele>
        <time>2019-07-07T08:06:58.801Z</time>
      </trkpt>
      <trkpt lat="42.90723" lon="0.11895667">
        <ele>1659.0</ele>
        <time>2019-07-07T08:06:59.823Z</time>
      </trkpt>
      <trkpt lat="42.907275" lon="0.118575">
        <ele>1656.0</ele>
        <time>2019-07-07T08:07:00.841Z</time>
      </trkpt>
      <trkpt lat="42.907275" lon="0.118575">
        <ele>1656.0</ele>
        <time>2019-07-07T08:07:01.818Z</time>
      </trkpt>
      <trkpt lat="42.907325" lon="0.118195">
        <ele>1653.0</ele>
        <time>2019-07-07T08:07:02.840Z</time>
      </trkpt>
      <trkpt lat="42.907325" lon="0.118195">
        <ele>1653.0</ele>
        <time>2019-07-07T08:07:03.816Z</time>
      </trkpt>
      <trkpt lat="42.90738333" lon="0.11781333">
        <ele>1650.0</ele>
        <time>2019-07-07T08:07:04.824Z</time>
      </trkpt>
      <trkpt lat="42.90738333" lon="0.11781333">
        <ele>1650.0</ele>
        <time>2019-07-07T08:07:05.806Z</time>
      </trkpt>
      <trkpt lat="42.90745167" lon="0.11743">
        <ele>1647.0</ele>
        <time>2019-07-07T08:07:06.833Z</time>
      </trkpt>
      <trkpt lat="42.90745167" lon="0.11743">
        <ele>1647.0</ele>
        <time>2019-07-07T08:07:07.822Z</time>
      </trkpt>
      <trkpt lat="42.907545" lon="0.11706">
        <ele>1645.0</ele>
        <time>2019-07-07T08:07:08.830Z</time>
      </trkpt>
      <trkpt lat="42.90760167" lon="0.11688667">
        <ele>1643.0</ele>
        <time>2019-07-07T08:07:09.832Z</time>
      </trkpt>
      <trkpt lat="42.90760167" lon="0.11688667">
        <ele>1643.0</ele>
        <time>2019-07-07T08:07:10.835Z</time>
      </trkpt>
      <trkpt lat="42.90772833" lon="0.11655667">
        <ele>1641.0</ele>
        <time>2019-07-07T08:07:11.801Z</time>
      </trkpt>
      <trkpt lat="42.90779333" lon="0.11640333">
        <ele>1640.0</ele>
        <time>2019-07-07T08:07:12.813Z</time>
      </trkpt>
      <trkpt lat="42.90779333" lon="0.11640333">
        <ele>1640.0</ele>
        <time>2019-07-07T08:07:13.813Z</time>
      </trkpt>
      <trkpt lat="42.90793167" lon="0.11612833">
        <ele>1638.0</ele>
        <time>2019-07-07T08:07:14.821Z</time>
      </trkpt>
      <trkpt lat="42.90800167" lon="0.11601333">
        <ele>1637.0</ele>
        <time>2019-07-07T08:07:15.834Z</time>
      </trkpt>
      <trkpt lat="42.90800167" lon="0.11601333">
        <ele>1637.0</ele>
        <time>2019-07-07T08:07:16.802Z</time>
      </trkpt>
      <trkpt lat="42.90811833" lon="0.11581167">
        <ele>1635.0</ele>
        <time>2019-07-07T08:07:17.810Z</time>
      </trkpt>
      <trkpt lat="42.90814833" lon="0.11571">
        <ele>1634.0</ele>
        <time>2019-07-07T08:07:18.810Z</time>
      </trkpt>
      <trkpt lat="42.90814833" lon="0.11571">
        <ele>1634.0</ele>
        <time>2019-07-07T08:07:19.833Z</time>
      </trkpt>
      <trkpt lat="42.90810833" lon="0.115545">
        <ele>1633.0</ele>
        <time>2019-07-07T08:07:20.840Z</time>
      </trkpt>
      <trkpt lat="42.90810833" lon="0.115545">
        <ele>1633.0</ele>
        <time>2019-07-07T08:07:21.832Z</time>
      </trkpt>
      <trkpt lat="42.90798333" lon="0.11550667">
        <ele>1631.0</ele>
        <time>2019-07-07T08:07:22.839Z</time>
      </trkpt>
      <trkpt lat="42.90798333" lon="0.11550667">
        <ele>1631.0</ele>
        <time>2019-07-07T08:07:23.804Z</time>
      </trkpt>
      <trkpt lat="42.90785167" lon="0.11561167">
        <ele>1629.0</ele>
        <time>2019-07-07T08:07:24.823Z</time>
      </trkpt>
      <trkpt lat="42.907775" lon="0.11569">
        <ele>1628.0</ele>
        <time>2019-07-07T08:07:25.804Z</time>
      </trkpt>
      <trkpt lat="42.907775" lon="0.11569">
        <ele>1628.0</ele>
        <time>2019-07-07T08:07:26.827Z</time>
      </trkpt>
      <trkpt lat="42.90761" lon="0.11585667">
        <ele>1626.0</ele>
        <time>2019-07-07T08:07:27.834Z</time>
      </trkpt>
      <trkpt lat="42.90753" lon="0.115955">
        <ele>1625.0</ele>
        <time>2019-07-07T08:07:28.816Z</time>
      </trkpt>
      <trkpt lat="42.90753" lon="0.115955">
        <ele>1625.0</ele>
        <time>2019-07-07T08:07:29.832Z</time>
      </trkpt>
      <trkpt lat="42.907395" lon="0.116145">
        <ele>1624.0</ele>
        <time>2019-07-07T08:07:30.832Z</time>
      </trkpt>
      <trkpt lat="42.90732833" lon="0.11622333">
        <ele>1623.0</ele>
        <time>2019-07-07T08:07:31.821Z</time>
      </trkpt>
      <trkpt lat="42.907265" lon="0.11627333">
        <ele>1623.0</ele>
        <time>2019-07-07T08:07:32.832Z</time>
      </trkpt>
      <trkpt lat="42.907265" lon="0.11627333">
        <ele>1623.0</ele>
        <time>2019-07-07T08:07:33.819Z</time>
      </trkpt>
      <trkpt lat="42.90714167" lon="0.11625333">
        <ele>1621.0</ele>
        <time>2019-07-07T08:07:34.840Z</time>
      </trkpt>
      <trkpt lat="42.90714167" lon="0.11625333">
        <ele>1621.0</ele>
        <time>2019-07-07T08:07:35.801Z</time>
      </trkpt>
      <trkpt lat="42.90710667" lon="0.11609">
        <ele>1620.0</ele>
        <time>2019-07-07T08:07:36.807Z</time>
      </trkpt>
      <trkpt lat="42.90710667" lon="0.11609">
        <ele>1620.0</ele>
        <time>2019-07-07T08:07:37.829Z</time>
      </trkpt>
      <trkpt lat="42.90716833" lon="0.11586333">
        <ele>1618.0</ele>
        <time>2019-07-07T08:07:38.840Z</time>
      </trkpt>
      <trkpt lat="42.90716833" lon="0.11586333">
        <ele>1618.0</ele>
        <time>2019-07-07T08:07:39.809Z</time>
      </trkpt>
      <trkpt lat="42.90723" lon="0.11560167">
        <ele>1617.0</ele>
        <time>2019-07-07T08:07:40.820Z</time>
      </trkpt>
      <trkpt lat="42.90723" lon="0.11560167">
        <ele>1617.0</ele>
        <time>2019-07-07T08:07:41.801Z</time>
      </trkpt>
      <trkpt lat="42.907285" lon="0.11530667">
        <ele>1615.0</ele>
        <time>2019-07-07T08:07:42.840Z</time>
      </trkpt>
      <trkpt lat="42.907285" lon="0.11530667">
        <ele>1615.0</ele>
        <time>2019-07-07T08:07:43.806Z</time>
      </trkpt>
      <trkpt lat="42.90732167" lon="0.11499167">
        <ele>1614.0</ele>
        <time>2019-07-07T08:07:44.812Z</time>
      </trkpt>
      <trkpt lat="42.90733" lon="0.11482333">
        <ele>1613.0</ele>
        <time>2019-07-07T08:07:45.815Z</time>
      </trkpt>
      <trkpt lat="42.90733" lon="0.11482333">
        <ele>1613.0</ele>
        <time>2019-07-07T08:07:46.822Z</time>
      </trkpt>
      <trkpt lat="42.907325" lon="0.11447167">
        <ele>1612.0</ele>
        <time>2019-07-07T08:07:47.805Z</time>
      </trkpt>
      <trkpt lat="42.90731333" lon="0.11429">
        <ele>1611.0</ele>
        <time>2019-07-07T08:07:48.820Z</time>
      </trkpt>
      <trkpt lat="42.90731333" lon="0.11429">
        <ele>1611.0</ele>
        <time>2019-07-07T08:07:49.841Z</time>
      </trkpt>
      <trkpt lat="42.90727833" lon="0.11392333">
        <ele>1609.0</ele>
        <time>2019-07-07T08:07:50.824Z</time>
      </trkpt>
      <trkpt lat="42.90727833" lon="0.11392333">
        <ele>1609.0</ele>
        <time>2019-07-07T08:07:51.807Z</time>
      </trkpt>
      <trkpt lat="42.90723333" lon="0.113545">
        <ele>1607.0</ele>
        <time>2019-07-07T08:07:52.825Z</time>
      </trkpt>
      <trkpt lat="42.90723333" lon="0.113545">
        <ele>1607.0</ele>
        <time>2019-07-07T08:07:53.804Z</time>
      </trkpt>
      <trkpt lat="42.90720833" lon="0.113155">
        <ele>1605.0</ele>
        <time>2019-07-07T08:07:54.829Z</time>
      </trkpt>
      <trkpt lat="42.90720833" lon="0.113155">
        <ele>1605.0</ele>
        <time>2019-07-07T08:07:55.822Z</time>
      </trkpt>
      <trkpt lat="42.90720667" lon="0.11275">
        <ele>1603.0</ele>
        <time>2019-07-07T08:07:56.835Z</time>
      </trkpt>
      <trkpt lat="42.90720667" lon="0.11254333">
        <ele>1602.0</ele>
        <time>2019-07-07T08:07:57.820Z</time>
      </trkpt>
      <trkpt lat="42.90720667" lon="0.11254333">
        <ele>1602.0</ele>
        <time>2019-07-07T08:07:58.803Z</time>
      </trkpt>
      <trkpt lat="42.90717833" lon="0.11213167">
        <ele>1599.0</ele>
        <time>2019-07-07T08:07:59.809Z</time>
      </trkpt>
      <trkpt lat="42.90714333" lon="0.11192667">
        <ele>1598.0</ele>
        <time>2019-07-07T08:08:00.826Z</time>
      </trkpt>
      <trkpt lat="42.90714333" lon="0.11192667">
        <ele>1598.0</ele>
        <time>2019-07-07T08:08:01.807Z</time>
      </trkpt>
      <trkpt lat="42.90704667" lon="0.11152833">
        <ele>1595.0</ele>
        <time>2019-07-07T08:08:02.817Z</time>
      </trkpt>
      <trkpt lat="42.90704667" lon="0.11152833">
        <ele>1595.0</ele>
        <time>2019-07-07T08:08:03.839Z</time>
      </trkpt>
      <trkpt lat="42.90694833" lon="0.11113">
        <ele>1592.0</ele>
        <time>2019-07-07T08:08:04.826Z</time>
      </trkpt>
      <trkpt lat="42.9069" lon="0.11092667">
        <ele>1591.0</ele>
        <time>2019-07-07T08:08:05.812Z</time>
      </trkpt>
      <trkpt lat="42.9069" lon="0.11092667">
        <ele>1591.0</ele>
        <time>2019-07-07T08:08:06.824Z</time>
      </trkpt>
      <trkpt lat="42.9068" lon="0.11053333">
        <ele>1588.0</ele>
        <time>2019-07-07T08:08:07.840Z</time>
      </trkpt>
      <trkpt lat="42.906745" lon="0.11034333">
        <ele>1587.0</ele>
        <time>2019-07-07T08:08:08.835Z</time>
      </trkpt>
      <trkpt lat="42.906745" lon="0.11034333">
        <ele>1587.0</ele>
        <time>2019-07-07T08:08:09.812Z</time>
      </trkpt>
      <trkpt lat="42.90662833" lon="0.10996333">
        <ele>1584.0</ele>
        <time>2019-07-07T08:08:10.838Z</time>
      </trkpt>
      <trkpt lat="42.90662833" lon="0.10996333">
        <ele>1584.0</ele>
        <time>2019-07-07T08:08:11.823Z</time>
      </trkpt>
      <trkpt lat="42.90652667" lon="0.109575">
        <ele>1581.0</ele>
        <time>2019-07-07T08:08:12.807Z</time>
      </trkpt>
      <trkpt lat="42.90649167" lon="0.10937333">
        <ele>1579.0</ele>
        <time>2019-07-07T08:08:13.824Z</time>
      </trkpt>
      <trkpt lat="42.906465" lon="0.10917">
        <ele>1577.0</ele>
        <time>2019-07-07T08:08:14.809Z</time>
      </trkpt>
      <trkpt lat="42.90644667" lon="0.10896333">
        <ele>1575.0</ele>
        <time>2019-07-07T08:08:15.833Z</time>
      </trkpt>
      <trkpt lat="42.90644667" lon="0.10896333">
        <ele>1575.0</ele>
        <time>2019-07-07T08:08:16.820Z</time>
      </trkpt>
      <trkpt lat="42.90639833" lon="0.10855167">
        <ele>1572.0</ele>
        <time>2019-07-07T08:08:17.826Z</time>
      </trkpt>
      <trkpt lat="42.90639833" lon="0.10855167">
        <ele>1572.0</ele>
        <time>2019-07-07T08:08:18.809Z</time>
      </trkpt>
      <trkpt lat="42.906365" lon="0.10813">
        <ele>1569.0</ele>
        <time>2019-07-07T08:08:19.820Z</time>
      </trkpt>
      <trkpt lat="42.906355" lon="0.10791667">
        <ele>1567.0</ele>
        <time>2019-07-07T08:08:20.810Z</time>
      </trkpt>
      <trkpt lat="42.906355" lon="0.10791667">
        <ele>1567.0</ele>
        <time>2019-07-07T08:08:21.831Z</time>
      </trkpt>
      <trkpt lat="42.90634667" lon="0.10749333">
        <ele>1564.0</ele>
        <time>2019-07-07T08:08:22.838Z</time>
      </trkpt>
      <trkpt lat="42.90634667" lon="0.10749333">
        <ele>1564.0</ele>
        <time>2019-07-07T08:08:23.832Z</time>
      </trkpt>
      <trkpt lat="42.90633167" lon="0.10709">
        <ele>1560.0</ele>
        <time>2019-07-07T08:08:24.810Z</time>
      </trkpt>
      <trkpt lat="42.90630667" lon="0.10689">
        <ele>1559.0</ele>
        <time>2019-07-07T08:08:25.813Z</time>
      </trkpt>
      <trkpt lat="42.90630667" lon="0.10689">
        <ele>1559.0</ele>
        <time>2019-07-07T08:08:26.836Z</time>
      </trkpt>
      <trkpt lat="42.90623667" lon="0.106505">
        <ele>1556.0</ele>
        <time>2019-07-07T08:08:27.805Z</time>
      </trkpt>
      <trkpt lat="42.90620167" lon="0.106325">
        <ele>1554.0</ele>
        <time>2019-07-07T08:08:28.822Z</time>
      </trkpt>
      <trkpt lat="42.90620167" lon="0.106325">
        <ele>1554.0</ele>
        <time>2019-07-07T08:08:29.839Z</time>
      </trkpt>
      <trkpt lat="42.90615833" lon="0.10598833">
        <ele>1552.0</ele>
        <time>2019-07-07T08:08:30.818Z</time>
      </trkpt>
      <trkpt lat="42.90615833" lon="0.10598833">
        <ele>1552.0</ele>
        <time>2019-07-07T08:08:31.833Z</time>
      </trkpt>
      <trkpt lat="42.90619833" lon="0.10567167">
        <ele>1549.0</ele>
        <time>2019-07-07T08:08:32.840Z</time>
      </trkpt>
      <trkpt lat="42.90623667" lon="0.10551833">
        <ele>1548.0</ele>
        <time>2019-07-07T08:08:33.808Z</time>
      </trkpt>
      <trkpt lat="42.90627" lon="0.10535667">
        <ele>1546.0</ele>
        <time>2019-07-07T08:08:34.821Z</time>
      </trkpt>
      <trkpt lat="42.90628667" lon="0.10518667">
        <ele>1545.0</ele>
        <time>2019-07-07T08:08:35.840Z</time>
      </trkpt>
      <trkpt lat="42.90628667" lon="0.10518667">
        <ele>1545.0</ele>
        <time>2019-07-07T08:08:36.823Z</time>
      </trkpt>
      <trkpt lat="42.906295" lon="0.10482833">
        <ele>1543.0</ele>
        <time>2019-07-07T08:08:37.830Z</time>
      </trkpt>
      <trkpt lat="42.90630333" lon="0.104645">
        <ele>1542.0</ele>
        <time>2019-07-07T08:08:38.819Z</time>
      </trkpt>
      <trkpt lat="42.90630333" lon="0.104645">
        <ele>1542.0</ele>
        <time>2019-07-07T08:08:39.802Z</time>
      </trkpt>
      <trkpt lat="42.906335" lon="0.10427833">
        <ele>1539.0</ele>
        <time>2019-07-07T08:08:40.808Z</time>
      </trkpt>
      <trkpt lat="42.906335" lon="0.10427833">
        <ele>1539.0</ele>
        <time>2019-07-07T08:08:41.830Z</time>
      </trkpt>
      <trkpt lat="42.906375" lon="0.10390167">
        <ele>1537.0</ele>
        <time>2019-07-07T08:08:42.874Z</time>
      </trkpt>
      <trkpt lat="42.906375" lon="0.10390167">
        <ele>1537.0</ele>
        <time>2019-07-07T08:08:43.821Z</time>
      </trkpt>
      <trkpt lat="42.906415" lon="0.10352">
        <ele>1534.0</ele>
        <time>2019-07-07T08:08:44.828Z</time>
      </trkpt>
      <trkpt lat="42.90643333" lon="0.10332833">
        <ele>1533.0</ele>
        <time>2019-07-07T08:08:45.801Z</time>
      </trkpt>
      <trkpt lat="42.90643333" lon="0.10332833">
        <ele>1533.0</ele>
        <time>2019-07-07T08:08:46.826Z</time>
      </trkpt>
      <trkpt lat="42.90648" lon="0.10295">
        <ele>1531.0</ele>
        <time>2019-07-07T08:08:47.807Z</time>
      </trkpt>
      <trkpt lat="42.90648" lon="0.10295">
        <ele>1531.0</ele>
        <time>2019-07-07T08:08:48.818Z</time>
      </trkpt>
      <trkpt lat="42.90652" lon="0.10261">
        <ele>1529.0</ele>
        <time>2019-07-07T08:08:49.824Z</time>
      </trkpt>
      <trkpt lat="42.90652" lon="0.10261">
        <ele>1529.0</ele>
        <time>2019-07-07T08:08:50.831Z</time>
      </trkpt>
      <trkpt lat="42.906565" lon="0.10232833">
        <ele>1527.0</ele>
        <time>2019-07-07T08:08:51.812Z</time>
      </trkpt>
      <trkpt lat="42.90658667" lon="0.102205">
        <ele>1527.0</ele>
        <time>2019-07-07T08:08:52.823Z</time>
      </trkpt>
      <trkpt lat="42.90658667" lon="0.102205">
        <ele>1527.0</ele>
        <time>2019-07-07T08:08:53.828Z</time>
      </trkpt>
      <trkpt lat="42.90658667" lon="0.10198167">
        <ele>1528.0</ele>
        <time>2019-07-07T08:08:54.835Z</time>
      </trkpt>
      <trkpt lat="42.90658667" lon="0.10198167">
        <ele>1528.0</ele>
        <time>2019-07-07T08:08:55.833Z</time>
      </trkpt>
      <trkpt lat="42.90653" lon="0.101855">
        <ele>1524.0</ele>
        <time>2019-07-07T08:08:56.841Z</time>
      </trkpt>
      <trkpt lat="42.90653" lon="0.101855">
        <ele>1524.0</ele>
        <time>2019-07-07T08:08:57.825Z</time>
      </trkpt>
      <trkpt lat="42.90643333" lon="0.10188333">
        <ele>1521.0</ele>
        <time>2019-07-07T08:08:58.826Z</time>
      </trkpt>
      <trkpt lat="42.90643333" lon="0.10188333">
        <ele>1521.0</ele>
        <time>2019-07-07T08:08:59.809Z</time>
      </trkpt>
      <trkpt lat="42.90637667" lon="0.102065">
        <ele>1519.0</ele>
        <time>2019-07-07T08:09:00.822Z</time>
      </trkpt>
      <trkpt lat="42.90637333" lon="0.102175">
        <ele>1519.0</ele>
        <time>2019-07-07T08:09:01.840Z</time>
      </trkpt>
      <trkpt lat="42.90637333" lon="0.102175">
        <ele>1519.0</ele>
        <time>2019-07-07T08:09:02.811Z</time>
      </trkpt>
      <trkpt lat="42.90635667" lon="0.10241167">
        <ele>1518.0</ele>
        <time>2019-07-07T08:09:03.840Z</time>
      </trkpt>
      <trkpt lat="42.90633833" lon="0.10253167">
        <ele>1518.0</ele>
        <time>2019-07-07T08:09:04.838Z</time>
      </trkpt>
      <trkpt lat="42.90633833" lon="0.10253167">
        <ele>1518.0</ele>
        <time>2019-07-07T08:09:05.801Z</time>
      </trkpt>
      <trkpt lat="42.90625333" lon="0.10277667">
        <ele>1518.0</ele>
        <time>2019-07-07T08:09:06.813Z</time>
      </trkpt>
      <trkpt lat="42.90619667" lon="0.10289667">
        <ele>1517.0</ele>
        <time>2019-07-07T08:09:07.818Z</time>
      </trkpt>
      <trkpt lat="42.90619667" lon="0.10289667">
        <ele>1517.0</ele>
        <time>2019-07-07T08:09:08.802Z</time>
      </trkpt>
      <trkpt lat="42.90609667" lon="0.103155">
        <ele>1516.0</ele>
        <time>2019-07-07T08:09:09.834Z</time>
      </trkpt>
      <trkpt lat="42.90605667" lon="0.10329333">
        <ele>1515.0</ele>
        <time>2019-07-07T08:09:10.837Z</time>
      </trkpt>
      <trkpt lat="42.90605667" lon="0.10329333">
        <ele>1515.0</ele>
        <time>2019-07-07T08:09:11.820Z</time>
      </trkpt>
      <trkpt lat="42.90597" lon="0.10357667">
        <ele>1514.0</ele>
        <time>2019-07-07T08:09:12.840Z</time>
      </trkpt>
      <trkpt lat="42.90597" lon="0.10357667">
        <ele>1514.0</ele>
        <time>2019-07-07T08:09:13.819Z</time>
      </trkpt>
      <trkpt lat="42.90585" lon="0.10386167">
        <ele>1512.0</ele>
        <time>2019-07-07T08:09:14.825Z</time>
      </trkpt>
      <trkpt lat="42.90578333" lon="0.104">
        <ele>1511.0</ele>
        <time>2019-07-07T08:09:15.809Z</time>
      </trkpt>
      <trkpt lat="42.90578333" lon="0.104">
        <ele>1511.0</ele>
        <time>2019-07-07T08:09:16.834Z</time>
      </trkpt>
      <trkpt lat="42.90566833" lon="0.104245">
        <ele>1509.0</ele>
        <time>2019-07-07T08:09:17.804Z</time>
      </trkpt>
      <trkpt lat="42.90566833" lon="0.104245">
        <ele>1509.0</ele>
        <time>2019-07-07T08:09:18.827Z</time>
      </trkpt>
      <trkpt lat="42.90556833" lon="0.10444">
        <ele>1507.0</ele>
        <time>2019-07-07T08:09:19.834Z</time>
      </trkpt>
      <trkpt lat="42.90556833" lon="0.10444">
        <ele>1507.0</ele>
        <time>2019-07-07T08:09:20.820Z</time>
      </trkpt>
      <trkpt lat="42.90543167" lon="0.104585">
        <ele>1506.0</ele>
        <time>2019-07-07T08:09:21.804Z</time>
      </trkpt>
      <trkpt lat="42.90543167" lon="0.104585">
        <ele>1506.0</ele>
        <time>2019-07-07T08:09:22.827Z</time>
      </trkpt>
      <trkpt lat="42.90529833" lon="0.10460333">
        <ele>1505.0</ele>
        <time>2019-07-07T08:09:23.834Z</time>
      </trkpt>
      <trkpt lat="42.90524833" lon="0.104565">
        <ele>1504.0</ele>
        <time>2019-07-07T08:09:24.830Z</time>
      </trkpt>
      <trkpt lat="42.90522333" lon="0.10449333">
        <ele>1503.0</ele>
        <time>2019-07-07T08:09:25.809Z</time>
      </trkpt>
      <trkpt lat="42.90522333" lon="0.10449333">
        <ele>1503.0</ele>
        <time>2019-07-07T08:09:26.832Z</time>
      </trkpt>
      <trkpt lat="42.90528667" lon="0.10433333">
        <ele>1502.0</ele>
        <time>2019-07-07T08:09:27.838Z</time>
      </trkpt>
      <trkpt lat="42.90528667" lon="0.10433333">
        <ele>1502.0</ele>
        <time>2019-07-07T08:09:28.821Z</time>
      </trkpt>
      <trkpt lat="42.905395" lon="0.10417167">
        <ele>1501.0</ele>
        <time>2019-07-07T08:09:29.828Z</time>
      </trkpt>
      <trkpt lat="42.905395" lon="0.10417167">
        <ele>1501.0</ele>
        <time>2019-07-07T08:09:30.802Z</time>
      </trkpt>
      <trkpt lat="42.905485" lon="0.10396833">
        <ele>1500.0</ele>
        <time>2019-07-07T08:09:31.808Z</time>
      </trkpt>
      <trkpt lat="42.905485" lon="0.10396833">
        <ele>1500.0</ele>
        <time>2019-07-07T08:09:32.833Z</time>
      </trkpt>
      <trkpt lat="42.90554667" lon="0.10372833">
        <ele>1499.0</ele>
        <time>2019-07-07T08:09:33.820Z</time>
      </trkpt>
      <trkpt lat="42.90554667" lon="0.10372833">
        <ele>1499.0</ele>
        <time>2019-07-07T08:09:34.822Z</time>
      </trkpt>
      <trkpt lat="42.90559333" lon="0.10345833">
        <ele>1498.0</ele>
        <time>2019-07-07T08:09:35.832Z</time>
      </trkpt>
      <trkpt lat="42.90561667" lon="0.10332">
        <ele>1496.0</ele>
        <time>2019-07-07T08:09:36.815Z</time>
      </trkpt>
      <trkpt lat="42.90561667" lon="0.10332">
        <ele>1496.0</ele>
        <time>2019-07-07T08:09:37.835Z</time>
      </trkpt>
      <trkpt lat="42.90564833" lon="0.10303">
        <ele>1495.0</ele>
        <time>2019-07-07T08:09:38.802Z</time>
      </trkpt>
      <trkpt lat="42.90564833" lon="0.10303">
        <ele>1495.0</ele>
        <time>2019-07-07T08:09:39.827Z</time>
      </trkpt>
      <trkpt lat="42.90566833" lon="0.10273">
        <ele>1493.0</ele>
        <time>2019-07-07T08:09:40.823Z</time>
      </trkpt>
      <trkpt lat="42.90566833" lon="0.10273">
        <ele>1493.0</ele>
        <time>2019-07-07T08:09:41.834Z</time>
      </trkpt>
      <trkpt lat="42.90567833" lon="0.10243167">
        <ele>1492.0</ele>
        <time>2019-07-07T08:09:42.801Z</time>
      </trkpt>
      <trkpt lat="42.90567667" lon="0.10229">
        <ele>1491.0</ele>
        <time>2019-07-07T08:09:43.825Z</time>
      </trkpt>
      <trkpt lat="42.90567667" lon="0.10229">
        <ele>1491.0</ele>
        <time>2019-07-07T08:09:44.840Z</time>
      </trkpt>
      <trkpt lat="42.90565667" lon="0.10201667">
        <ele>1490.0</ele>
        <time>2019-07-07T08:09:45.817Z</time>
      </trkpt>
      <trkpt lat="42.90565667" lon="0.10201667">
        <ele>1490.0</ele>
        <time>2019-07-07T08:09:46.840Z</time>
      </trkpt>
      <trkpt lat="42.9056" lon="0.10177667">
        <ele>1489.0</ele>
        <time>2019-07-07T08:09:47.821Z</time>
      </trkpt>
      <trkpt lat="42.905565" lon="0.101675">
        <ele>1488.0</ele>
        <time>2019-07-07T08:09:48.829Z</time>
      </trkpt>
      <trkpt lat="42.905565" lon="0.101675">
        <ele>1488.0</ele>
        <time>2019-07-07T08:09:49.811Z</time>
      </trkpt>
      <trkpt lat="42.90547667" lon="0.10155">
        <ele>1485.0</ele>
        <time>2019-07-07T08:09:50.820Z</time>
      </trkpt>
      <trkpt lat="42.90547667" lon="0.10155">
        <ele>1485.0</ele>
        <time>2019-07-07T08:09:51.834Z</time>
      </trkpt>
      <trkpt lat="42.90535333" lon="0.1016">
        <ele>1483.0</ele>
        <time>2019-07-07T08:09:52.802Z</time>
      </trkpt>
      <trkpt lat="42.90535333" lon="0.1016">
        <ele>1483.0</ele>
        <time>2019-07-07T08:09:53.826Z</time>
      </trkpt>
      <trkpt lat="42.90527333" lon="0.10177667">
        <ele>1481.0</ele>
        <time>2019-07-07T08:09:54.833Z</time>
      </trkpt>
      <trkpt lat="42.90527333" lon="0.10177667">
        <ele>1481.0</ele>
        <time>2019-07-07T08:09:55.827Z</time>
      </trkpt>
      <trkpt lat="42.90526167" lon="0.10199833">
        <ele>1480.0</ele>
        <time>2019-07-07T08:09:56.832Z</time>
      </trkpt>
      <trkpt lat="42.90526167" lon="0.10199833">
        <ele>1480.0</ele>
        <time>2019-07-07T08:09:57.806Z</time>
      </trkpt>
      <trkpt lat="42.90525833" lon="0.10225">
        <ele>1478.0</ele>
        <time>2019-07-07T08:09:58.817Z</time>
      </trkpt>
      <trkpt lat="42.90525833" lon="0.10225">
        <ele>1478.0</ele>
        <time>2019-07-07T08:09:59.826Z</time>
      </trkpt>
      <trkpt lat="42.90519833" lon="0.10251333">
        <ele>1476.0</ele>
        <time>2019-07-07T08:10:00.813Z</time>
      </trkpt>
      <trkpt lat="42.90519833" lon="0.10251333">
        <ele>1476.0</ele>
        <time>2019-07-07T08:10:01.838Z</time>
      </trkpt>
      <trkpt lat="42.90507167" lon="0.102745">
        <ele>1475.0</ele>
        <time>2019-07-07T08:10:02.804Z</time>
      </trkpt>
      <trkpt lat="42.90507167" lon="0.102745">
        <ele>1475.0</ele>
        <time>2019-07-07T08:10:03.828Z</time>
      </trkpt>
      <trkpt lat="42.904895" lon="0.10295833">
        <ele>1473.0</ele>
        <time>2019-07-07T08:10:04.835Z</time>
      </trkpt>
      <trkpt lat="42.904895" lon="0.10295833">
        <ele>1473.0</ele>
        <time>2019-07-07T08:10:05.812Z</time>
      </trkpt>
      <trkpt lat="42.90471167" lon="0.10317167">
        <ele>1471.0</ele>
        <time>2019-07-07T08:10:06.823Z</time>
      </trkpt>
      <trkpt lat="42.90471167" lon="0.10317167">
        <ele>1471.0</ele>
        <time>2019-07-07T08:10:07.806Z</time>
      </trkpt>
      <trkpt lat="42.90454167" lon="0.103385">
        <ele>1469.0</ele>
        <time>2019-07-07T08:10:08.813Z</time>
      </trkpt>
      <trkpt lat="42.90446667" lon="0.10348">
        <ele>1469.0</ele>
        <time>2019-07-07T08:10:09.826Z</time>
      </trkpt>
      <trkpt lat="42.90439167" lon="0.10356">
        <ele>1468.0</ele>
        <time>2019-07-07T08:10:10.806Z</time>
      </trkpt>
      <trkpt lat="42.90439167" lon="0.10356">
        <ele>1468.0</ele>
        <time>2019-07-07T08:10:11.830Z</time>
      </trkpt>
      <trkpt lat="42.90424333" lon="0.10365833">
        <ele>1467.0</ele>
        <time>2019-07-07T08:10:12.838Z</time>
      </trkpt>
      <trkpt lat="42.90424333" lon="0.10365833">
        <ele>1467.0</ele>
        <time>2019-07-07T08:10:13.825Z</time>
      </trkpt>
      <trkpt lat="42.90410833" lon="0.10368667">
        <ele>1466.0</ele>
        <time>2019-07-07T08:10:14.832Z</time>
      </trkpt>
      <trkpt lat="42.90410833" lon="0.10368667">
        <ele>1466.0</ele>
        <time>2019-07-07T08:10:15.819Z</time>
      </trkpt>
      <trkpt lat="42.90398167" lon="0.103645">
        <ele>1466.0</ele>
        <time>2019-07-07T08:10:16.828Z</time>
      </trkpt>
      <trkpt lat="42.90398167" lon="0.103645">
        <ele>1466.0</ele>
        <time>2019-07-07T08:10:17.804Z</time>
      </trkpt>
      <trkpt lat="42.90389667" lon="0.10353833">
        <ele>1465.0</ele>
        <time>2019-07-07T08:10:18.833Z</time>
      </trkpt>
      <trkpt lat="42.90389667" lon="0.10353833">
        <ele>1465.0</ele>
        <time>2019-07-07T08:10:19.805Z</time>
      </trkpt>
      <trkpt lat="42.90382167" lon="0.10342833">
        <ele>1464.0</ele>
        <time>2019-07-07T08:10:20.812Z</time>
      </trkpt>
      <trkpt lat="42.90378667" lon="0.103375">
        <ele>1463.0</ele>
        <time>2019-07-07T08:10:21.836Z</time>
      </trkpt>
      <trkpt lat="42.903755" lon="0.10331833">
        <ele>1463.0</ele>
        <time>2019-07-07T08:10:22.821Z</time>
      </trkpt>
      <trkpt lat="42.903755" lon="0.10331833">
        <ele>1463.0</ele>
        <time>2019-07-07T08:10:23.837Z</time>
      </trkpt>
      <trkpt lat="42.90369" lon="0.1032">
        <ele>1462.0</ele>
        <time>2019-07-07T08:10:24.827Z</time>
      </trkpt>
      <trkpt lat="42.90366667" lon="0.103145">
        <ele>1462.0</ele>
        <time>2019-07-07T08:10:25.813Z</time>
      </trkpt>
      <trkpt lat="42.90366667" lon="0.103145">
        <ele>1462.0</ele>
        <time>2019-07-07T08:10:26.835Z</time>
      </trkpt>
      <trkpt lat="42.90362" lon="0.103045">
        <ele>1461.0</ele>
        <time>2019-07-07T08:10:27.810Z</time>
      </trkpt>
      <trkpt lat="42.90359333" lon="0.10299333">
        <ele>1461.0</ele>
        <time>2019-07-07T08:10:28.826Z</time>
      </trkpt>
      <trkpt lat="42.90359333" lon="0.10299333">
        <ele>1461.0</ele>
        <time>2019-07-07T08:10:29.803Z</time>
      </trkpt>
      <trkpt lat="42.903545" lon="0.10290167">
        <ele>1460.0</ele>
        <time>2019-07-07T08:10:30.810Z</time>
      </trkpt>
      <trkpt lat="42.90352333" lon="0.10285">
        <ele>1460.0</ele>
        <time>2019-07-07T08:10:31.833Z</time>
      </trkpt>
      <trkpt lat="42.90350333" lon="0.10279167">
        <ele>1460.0</ele>
        <time>2019-07-07T08:10:32.808Z</time>
      </trkpt>
      <trkpt lat="42.90350333" lon="0.10279167">
        <ele>1460.0</ele>
        <time>2019-07-07T08:10:33.826Z</time>
      </trkpt>
      <trkpt lat="42.903475" lon="0.10267833">
        <ele>1459.0</ele>
        <time>2019-07-07T08:10:34.834Z</time>
      </trkpt>
      <trkpt lat="42.90346667" lon="0.102635">
        <ele>1459.0</ele>
        <time>2019-07-07T08:10:35.810Z</time>
      </trkpt>
      <trkpt lat="42.90346667" lon="0.102635">
        <ele>1459.0</ele>
        <time>2019-07-07T08:10:36.831Z</time>
      </trkpt>
      <trkpt lat="42.90345333" lon="0.10256833">
        <ele>1459.0</ele>
        <time>2019-07-07T08:10:37.838Z</time>
      </trkpt>
      <trkpt lat="42.90345333" lon="0.10256833">
        <ele>1459.0</ele>
        <time>2019-07-07T08:10:38.822Z</time>
      </trkpt>
      <trkpt lat="42.90342333" lon="0.10252333">
        <ele>1458.0</ele>
        <time>2019-07-07T08:10:39.810Z</time>
      </trkpt>
      <trkpt lat="42.9034" lon="0.10251167">
        <ele>1458.0</ele>
        <time>2019-07-07T08:10:40.836Z</time>
      </trkpt>
      <trkpt lat="42.9034" lon="0.10251167">
        <ele>1458.0</ele>
        <time>2019-07-07T08:10:41.803Z</time>
      </trkpt>
      <trkpt lat="42.90337167" lon="0.102545">
        <ele>1458.0</ele>
        <time>2019-07-07T08:10:42.801Z</time>
      </trkpt>
      <trkpt lat="42.90336833" lon="0.10257167">
        <ele>1458.0</ele>
        <time>2019-07-07T08:10:43.830Z</time>
      </trkpt>
      <trkpt lat="42.90336833" lon="0.10257167">
        <ele>1458.0</ele>
        <time>2019-07-07T08:10:44.813Z</time>
      </trkpt>
      <trkpt lat="42.90337" lon="0.102595">
        <ele>1458.0</ele>
        <time>2019-07-07T08:10:45.829Z</time>
      </trkpt>
      <trkpt lat="42.90337167" lon="0.10259667">
        <ele>1458.0</ele>
        <time>2019-07-07T08:10:46.815Z</time>
      </trkpt>
      <trkpt lat="42.90335667" lon="0.101995">
        <ele>1461.0</ele>
        <time>2019-07-07T08:10:47.826Z</time>
      </trkpt>
      <trkpt lat="42.90335667" lon="0.101995">
        <ele>1461.0</ele>
        <time>2019-07-07T08:10:48.809Z</time>
      </trkpt>
      <trkpt lat="42.90333667" lon="0.10186333">
        <ele>1461.0</ele>
        <time>2019-07-07T08:10:49.815Z</time>
      </trkpt>
      <trkpt lat="42.90333" lon="0.10179333">
        <ele>1461.0</ele>
        <time>2019-07-07T08:10:50.840Z</time>
      </trkpt>
      <trkpt lat="42.90333" lon="0.10179333">
        <ele>1461.0</ele>
        <time>2019-07-07T08:10:51.825Z</time>
      </trkpt>
      <trkpt lat="42.90331833" lon="0.10163667">
        <ele>1461.0</ele>
        <time>2019-07-07T08:10:52.832Z</time>
      </trkpt>
      <trkpt lat="42.90331833" lon="0.10163667">
        <ele>1461.0</ele>
        <time>2019-07-07T08:10:53.806Z</time>
      </trkpt>
      <trkpt lat="42.90329" lon="0.10146833">
        <ele>1461.0</ele>
        <time>2019-07-07T08:10:54.812Z</time>
      </trkpt>
      <trkpt lat="42.90329" lon="0.10146833">
        <ele>1461.0</ele>
        <time>2019-07-07T08:10:55.836Z</time>
      </trkpt>
      <trkpt lat="42.90325167" lon="0.10129333">
        <ele>1461.0</ele>
        <time>2019-07-07T08:10:56.805Z</time>
      </trkpt>
      <trkpt lat="42.90323167" lon="0.101205">
        <ele>1461.0</ele>
        <time>2019-07-07T08:10:57.807Z</time>
      </trkpt>
      <trkpt lat="42.90323167" lon="0.101205">
        <ele>1461.0</ele>
        <time>2019-07-07T08:10:58.817Z</time>
      </trkpt>
      <trkpt lat="42.90319667" lon="0.10102833">
        <ele>1461.0</ele>
        <time>2019-07-07T08:10:59.809Z</time>
      </trkpt>
      <trkpt lat="42.90318667" lon="0.10093833">
        <ele>1461.0</ele>
        <time>2019-07-07T08:11:00.833Z</time>
      </trkpt>
      <trkpt lat="42.90318667" lon="0.10093833">
        <ele>1461.0</ele>
        <time>2019-07-07T08:11:01.808Z</time>
      </trkpt>
      <trkpt lat="42.90319333" lon="0.100755">
        <ele>1461.0</ele>
        <time>2019-07-07T08:11:02.814Z</time>
      </trkpt>
      <trkpt lat="42.903205" lon="0.10066167">
        <ele>1461.0</ele>
        <time>2019-07-07T08:11:03.834Z</time>
      </trkpt>
      <trkpt lat="42.90322667" lon="0.10056833">
        <ele>1461.0</ele>
        <time>2019-07-07T08:11:04.817Z</time>
      </trkpt>
      <trkpt lat="42.90322667" lon="0.10056833">
        <ele>1461.0</ele>
        <time>2019-07-07T08:11:05.833Z</time>
      </trkpt>
      <trkpt lat="42.90332" lon="0.100385">
        <ele>1461.0</ele>
        <time>2019-07-07T08:11:06.804Z</time>
      </trkpt>
      <trkpt lat="42.903375" lon="0.10029167">
        <ele>1461.0</ele>
        <time>2019-07-07T08:11:07.803Z</time>
      </trkpt>
      <trkpt lat="42.903375" lon="0.10029167">
        <ele>1461.0</ele>
        <time>2019-07-07T08:11:08.829Z</time>
      </trkpt>
      <trkpt lat="42.90344833" lon="0.10007">
        <ele>1461.0</ele>
        <time>2019-07-07T08:11:09.803Z</time>
      </trkpt>
      <trkpt lat="42.90347167" lon="0.09994167">
        <ele>1461.0</ele>
        <time>2019-07-07T08:11:10.838Z</time>
      </trkpt>
      <trkpt lat="42.90347167" lon="0.09994167">
        <ele>1461.0</ele>
        <time>2019-07-07T08:11:11.818Z</time>
      </trkpt>
      <trkpt lat="42.903495" lon="0.09966">
        <ele>1461.0</ele>
        <time>2019-07-07T08:11:12.833Z</time>
      </trkpt>
      <trkpt lat="42.903495" lon="0.09966">
        <ele>1461.0</ele>
        <time>2019-07-07T08:11:13.816Z</time>
      </trkpt>
      <trkpt lat="42.90349" lon="0.09935833">
        <ele>1460.0</ele>
        <time>2019-07-07T08:11:14.811Z</time>
      </trkpt>
      <trkpt lat="42.90349" lon="0.09935833">
        <ele>1460.0</ele>
        <time>2019-07-07T08:11:15.834Z</time>
      </trkpt>
      <trkpt lat="42.90348" lon="0.09903667">
        <ele>1460.0</ele>
        <time>2019-07-07T08:11:16.837Z</time>
      </trkpt>
      <trkpt lat="42.90348" lon="0.09903667">
        <ele>1460.0</ele>
        <time>2019-07-07T08:11:17.821Z</time>
      </trkpt>
      <trkpt lat="42.903465" lon="0.09870833">
        <ele>1459.0</ele>
        <time>2019-07-07T08:11:18.804Z</time>
      </trkpt>
      <trkpt lat="42.903465" lon="0.09870833">
        <ele>1459.0</ele>
        <time>2019-07-07T08:11:19.814Z</time>
      </trkpt>
      <trkpt lat="42.90344" lon="0.09837667">
        <ele>1459.0</ele>
        <time>2019-07-07T08:11:20.821Z</time>
      </trkpt>
      <trkpt lat="42.90344" lon="0.09837667">
        <ele>1459.0</ele>
        <time>2019-07-07T08:11:21.833Z</time>
      </trkpt>
      <trkpt lat="42.90342333" lon="0.098045">
        <ele>1458.0</ele>
        <time>2019-07-07T08:11:22.840Z</time>
      </trkpt>
      <trkpt lat="42.90342333" lon="0.098045">
        <ele>1458.0</ele>
        <time>2019-07-07T08:11:23.823Z</time>
      </trkpt>
      <trkpt lat="42.90341" lon="0.09771833">
        <ele>1458.0</ele>
        <time>2019-07-07T08:11:24.803Z</time>
      </trkpt>
      <trkpt lat="42.90341" lon="0.09771833">
        <ele>1458.0</ele>
        <time>2019-07-07T08:11:25.814Z</time>
      </trkpt>
      <trkpt lat="42.90339" lon="0.09738667">
        <ele>1457.0</ele>
        <time>2019-07-07T08:11:26.821Z</time>
      </trkpt>
      <trkpt lat="42.90338167" lon="0.09722">
        <ele>1457.0</ele>
        <time>2019-07-07T08:11:27.814Z</time>
      </trkpt>
      <trkpt lat="42.90336833" lon="0.09705167">
        <ele>1456.0</ele>
        <time>2019-07-07T08:11:28.837Z</time>
      </trkpt>
      <trkpt lat="42.90336833" lon="0.09705167">
        <ele>1456.0</ele>
        <time>2019-07-07T08:11:29.820Z</time>
      </trkpt>
      <trkpt lat="42.90337" lon="0.09672">
        <ele>1455.0</ele>
        <time>2019-07-07T08:11:30.806Z</time>
      </trkpt>
      <trkpt lat="42.90337167" lon="0.09655333">
        <ele>1455.0</ele>
        <time>2019-07-07T08:11:31.833Z</time>
      </trkpt>
      <trkpt lat="42.90337167" lon="0.09655333">
        <ele>1455.0</ele>
        <time>2019-07-07T08:11:32.816Z</time>
      </trkpt>
      <trkpt lat="42.90331667" lon="0.09623667">
        <ele>1452.0</ele>
        <time>2019-07-07T08:11:33.823Z</time>
      </trkpt>
      <trkpt lat="42.90331667" lon="0.09623667">
        <ele>1452.0</ele>
        <time>2019-07-07T08:11:34.805Z</time>
      </trkpt>
      <trkpt lat="42.90329167" lon="0.09592">
        <ele>1449.0</ele>
        <time>2019-07-07T08:11:35.814Z</time>
      </trkpt>
      <trkpt lat="42.903285" lon="0.095755">
        <ele>1448.0</ele>
        <time>2019-07-07T08:11:36.801Z</time>
      </trkpt>
      <trkpt lat="42.903285" lon="0.095755">
        <ele>1448.0</ele>
        <time>2019-07-07T08:11:37.812Z</time>
      </trkpt>
      <trkpt lat="42.90325333" lon="0.09542833">
        <ele>1446.0</ele>
        <time>2019-07-07T08:11:38.840Z</time>
      </trkpt>
      <trkpt lat="42.90325333" lon="0.09542833">
        <ele>1446.0</ele>
        <time>2019-07-07T08:11:39.816Z</time>
      </trkpt>
      <trkpt lat="42.90321167" lon="0.09509833">
        <ele>1444.0</ele>
        <time>2019-07-07T08:11:40.827Z</time>
      </trkpt>
      <trkpt lat="42.90321167" lon="0.09509833">
        <ele>1444.0</ele>
        <time>2019-07-07T08:11:41.818Z</time>
      </trkpt>
      <trkpt lat="42.90318333" lon="0.09477">
        <ele>1442.0</ele>
        <time>2019-07-07T08:11:42.813Z</time>
      </trkpt>
      <trkpt lat="42.90318333" lon="0.09477">
        <ele>1442.0</ele>
        <time>2019-07-07T08:11:43.834Z</time>
      </trkpt>
      <trkpt lat="42.90318833" lon="0.09445333">
        <ele>1440.0</ele>
        <time>2019-07-07T08:11:44.802Z</time>
      </trkpt>
      <trkpt lat="42.90318833" lon="0.09445333">
        <ele>1440.0</ele>
        <time>2019-07-07T08:11:45.817Z</time>
      </trkpt>
      <trkpt lat="42.90317333" lon="0.09413667">
        <ele>1438.0</ele>
        <time>2019-07-07T08:11:46.810Z</time>
      </trkpt>
      <trkpt lat="42.90317333" lon="0.09413667">
        <ele>1438.0</ele>
        <time>2019-07-07T08:11:47.820Z</time>
      </trkpt>
      <trkpt lat="42.90313167" lon="0.093825">
        <ele>1436.0</ele>
        <time>2019-07-07T08:11:48.811Z</time>
      </trkpt>
      <trkpt lat="42.903105" lon="0.09366833">
        <ele>1436.0</ele>
        <time>2019-07-07T08:11:49.837Z</time>
      </trkpt>
      <trkpt lat="42.903105" lon="0.09366833">
        <ele>1436.0</ele>
        <time>2019-07-07T08:11:50.820Z</time>
      </trkpt>
      <trkpt lat="42.903045" lon="0.09337">
        <ele>1434.0</ele>
        <time>2019-07-07T08:11:51.837Z</time>
      </trkpt>
      <trkpt lat="42.903045" lon="0.09337">
        <ele>1434.0</ele>
        <time>2019-07-07T08:11:52.822Z</time>
      </trkpt>
      <trkpt lat="42.90299167" lon="0.09307167">
        <ele>1433.0</ele>
        <time>2019-07-07T08:11:53.830Z</time>
      </trkpt>
      <trkpt lat="42.90299167" lon="0.09307167">
        <ele>1433.0</ele>
        <time>2019-07-07T08:11:54.814Z</time>
      </trkpt>
      <trkpt lat="42.90294" lon="0.09278333">
        <ele>1431.0</ele>
        <time>2019-07-07T08:11:55.805Z</time>
      </trkpt>
      <trkpt lat="42.90291167" lon="0.09264">
        <ele>1431.0</ele>
        <time>2019-07-07T08:11:56.835Z</time>
      </trkpt>
      <trkpt lat="42.90288333" lon="0.09249667">
        <ele>1430.0</ele>
        <time>2019-07-07T08:11:57.819Z</time>
      </trkpt>
      <trkpt lat="42.90288333" lon="0.09249667">
        <ele>1430.0</ele>
        <time>2019-07-07T08:11:58.802Z</time>
      </trkpt>
      <trkpt lat="42.90282667" lon="0.09222">
        <ele>1429.0</ele>
        <time>2019-07-07T08:11:59.815Z</time>
      </trkpt>
      <trkpt lat="42.90282667" lon="0.09222">
        <ele>1429.0</ele>
        <time>2019-07-07T08:12:00.838Z</time>
      </trkpt>
      <trkpt lat="42.90276" lon="0.09194">
        <ele>1427.0</ele>
        <time>2019-07-07T08:12:01.813Z</time>
      </trkpt>
      <trkpt lat="42.90276" lon="0.09194">
        <ele>1427.0</ele>
        <time>2019-07-07T08:12:02.831Z</time>
      </trkpt>
      <trkpt lat="42.90269" lon="0.09164833">
        <ele>1426.0</ele>
        <time>2019-07-07T08:12:03.838Z</time>
      </trkpt>
      <trkpt lat="42.90266" lon="0.0915">
        <ele>1425.0</ele>
        <time>2019-07-07T08:12:04.801Z</time>
      </trkpt>
      <trkpt lat="42.90266" lon="0.0915">
        <ele>1425.0</ele>
        <time>2019-07-07T08:12:05.810Z</time>
      </trkpt>
      <trkpt lat="42.90261333" lon="0.09119">
        <ele>1424.0</ele>
        <time>2019-07-07T08:12:06.818Z</time>
      </trkpt>
      <trkpt lat="42.90261333" lon="0.09119">
        <ele>1424.0</ele>
        <time>2019-07-07T08:12:07.840Z</time>
      </trkpt>
      <trkpt lat="42.90261333" lon="0.09087">
        <ele>1422.0</ele>
        <time>2019-07-07T08:12:08.815Z</time>
      </trkpt>
      <trkpt lat="42.90261333" lon="0.09087">
        <ele>1422.0</ele>
        <time>2019-07-07T08:12:09.838Z</time>
      </trkpt>
      <trkpt lat="42.90265167" lon="0.09055">
        <ele>1421.0</ele>
        <time>2019-07-07T08:12:10.812Z</time>
      </trkpt>
      <trkpt lat="42.90265167" lon="0.09055">
        <ele>1421.0</ele>
        <time>2019-07-07T08:12:11.805Z</time>
      </trkpt>
      <trkpt lat="42.90268" lon="0.09022667">
        <ele>1419.0</ele>
        <time>2019-07-07T08:12:12.809Z</time>
      </trkpt>
      <trkpt lat="42.90268" lon="0.09022667">
        <ele>1419.0</ele>
        <time>2019-07-07T08:12:13.823Z</time>
      </trkpt>
      <trkpt lat="42.90264833" lon="0.08990167">
        <ele>1417.0</ele>
        <time>2019-07-07T08:12:14.831Z</time>
      </trkpt>
      <trkpt lat="42.90264833" lon="0.08990167">
        <ele>1417.0</ele>
        <time>2019-07-07T08:12:15.813Z</time>
      </trkpt>
      <trkpt lat="42.902575" lon="0.08959333">
        <ele>1416.0</ele>
        <time>2019-07-07T08:12:16.838Z</time>
      </trkpt>
      <trkpt lat="42.902575" lon="0.08959333">
        <ele>1416.0</ele>
        <time>2019-07-07T08:12:17.813Z</time>
      </trkpt>
      <trkpt lat="42.90250167" lon="0.08929833">
        <ele>1414.0</ele>
        <time>2019-07-07T08:12:18.820Z</time>
      </trkpt>
      <trkpt lat="42.90250167" lon="0.08929833">
        <ele>1414.0</ele>
        <time>2019-07-07T08:12:19.832Z</time>
      </trkpt>
      <trkpt lat="42.90243" lon="0.088995">
        <ele>1414.0</ele>
        <time>2019-07-07T08:12:20.826Z</time>
      </trkpt>
      <trkpt lat="42.902395" lon="0.08885">
        <ele>1413.0</ele>
        <time>2019-07-07T08:12:21.839Z</time>
      </trkpt>
      <trkpt lat="42.90236167" lon="0.088705">
        <ele>1413.0</ele>
        <time>2019-07-07T08:12:22.816Z</time>
      </trkpt>
      <trkpt lat="42.90236167" lon="0.088705">
        <ele>1413.0</ele>
        <time>2019-07-07T08:12:23.839Z</time>
      </trkpt>
      <trkpt lat="42.90229" lon="0.08841667">
        <ele>1412.0</ele>
        <time>2019-07-07T08:12:24.806Z</time>
      </trkpt>
      <trkpt lat="42.90229" lon="0.08841667">
        <ele>1412.0</ele>
        <time>2019-07-07T08:12:25.822Z</time>
      </trkpt>
      <trkpt lat="42.90222" lon="0.08814">
        <ele>1412.0</ele>
        <time>2019-07-07T08:12:26.812Z</time>
      </trkpt>
      <trkpt lat="42.90218333" lon="0.088005">
        <ele>1411.0</ele>
        <time>2019-07-07T08:12:27.836Z</time>
      </trkpt>
      <trkpt lat="42.90218333" lon="0.088005">
        <ele>1411.0</ele>
        <time>2019-07-07T08:12:28.818Z</time>
      </trkpt>
      <trkpt lat="42.90210667" lon="0.08773333">
        <ele>1411.0</ele>
        <time>2019-07-07T08:12:29.830Z</time>
      </trkpt>
      <trkpt lat="42.90210667" lon="0.08773333">
        <ele>1411.0</ele>
        <time>2019-07-07T08:12:30.812Z</time>
      </trkpt>
      <trkpt lat="42.902025" lon="0.08746333">
        <ele>1410.0</ele>
        <time>2019-07-07T08:12:31.822Z</time>
      </trkpt>
      <trkpt lat="42.902025" lon="0.08746333">
        <ele>1410.0</ele>
        <time>2019-07-07T08:12:32.806Z</time>
      </trkpt>
      <trkpt lat="42.90195167" lon="0.08718667">
        <ele>1409.0</ele>
        <time>2019-07-07T08:12:33.812Z</time>
      </trkpt>
      <trkpt lat="42.90195167" lon="0.08718667">
        <ele>1409.0</ele>
        <time>2019-07-07T08:12:34.832Z</time>
      </trkpt>
      <trkpt lat="42.90188667" lon="0.08690667">
        <ele>1408.0</ele>
        <time>2019-07-07T08:12:35.813Z</time>
      </trkpt>
      <trkpt lat="42.90188667" lon="0.08690667">
        <ele>1408.0</ele>
        <time>2019-07-07T08:12:36.837Z</time>
      </trkpt>
      <trkpt lat="42.901825" lon="0.08663667">
        <ele>1407.0</ele>
        <time>2019-07-07T08:12:37.803Z</time>
      </trkpt>
      <trkpt lat="42.901825" lon="0.08663667">
        <ele>1407.0</ele>
        <time>2019-07-07T08:12:38.826Z</time>
      </trkpt>
      <trkpt lat="42.901795" lon="0.08634833">
        <ele>1407.0</ele>
        <time>2019-07-07T08:12:39.824Z</time>
      </trkpt>
      <trkpt lat="42.90177167" lon="0.08619167">
        <ele>1406.0</ele>
        <time>2019-07-07T08:12:40.803Z</time>
      </trkpt>
      <trkpt lat="42.90177167" lon="0.08619167">
        <ele>1406.0</ele>
        <time>2019-07-07T08:12:41.808Z</time>
      </trkpt>
      <trkpt lat="42.90174167" lon="0.08587">
        <ele>1405.0</ele>
        <time>2019-07-07T08:12:42.831Z</time>
      </trkpt>
      <trkpt lat="42.901735" lon="0.08570333">
        <ele>1404.0</ele>
        <time>2019-07-07T08:12:43.803Z</time>
      </trkpt>
      <trkpt lat="42.901735" lon="0.08570333">
        <ele>1404.0</ele>
        <time>2019-07-07T08:12:44.832Z</time>
      </trkpt>
      <trkpt lat="42.90172" lon="0.08536667">
        <ele>1403.0</ele>
        <time>2019-07-07T08:12:45.829Z</time>
      </trkpt>
      <trkpt lat="42.90170167" lon="0.08519333">
        <ele>1403.0</ele>
        <time>2019-07-07T08:12:46.815Z</time>
      </trkpt>
      <trkpt lat="42.901685" lon="0.08501667">
        <ele>1402.0</ele>
        <time>2019-07-07T08:12:47.821Z</time>
      </trkpt>
      <trkpt lat="42.901685" lon="0.08501667">
        <ele>1402.0</ele>
        <time>2019-07-07T08:12:48.830Z</time>
      </trkpt>
      <trkpt lat="42.90163167" lon="0.08465333">
        <ele>1401.0</ele>
        <time>2019-07-07T08:12:49.838Z</time>
      </trkpt>
      <trkpt lat="42.90158833" lon="0.08447">
        <ele>1400.0</ele>
        <time>2019-07-07T08:12:50.814Z</time>
      </trkpt>
      <trkpt lat="42.90158833" lon="0.08447">
        <ele>1400.0</ele>
        <time>2019-07-07T08:12:51.832Z</time>
      </trkpt>
      <trkpt lat="42.90152667" lon="0.0841">
        <ele>1398.0</ele>
        <time>2019-07-07T08:12:52.814Z</time>
      </trkpt>
      <trkpt lat="42.90152667" lon="0.0841">
        <ele>1398.0</ele>
        <time>2019-07-07T08:12:53.801Z</time>
      </trkpt>
      <trkpt lat="42.90149" lon="0.08374">
        <ele>1397.0</ele>
        <time>2019-07-07T08:12:54.820Z</time>
      </trkpt>
      <trkpt lat="42.90149" lon="0.08374">
        <ele>1397.0</ele>
        <time>2019-07-07T08:12:55.818Z</time>
      </trkpt>
      <trkpt lat="42.90147667" lon="0.083385">
        <ele>1395.0</ele>
        <time>2019-07-07T08:12:56.825Z</time>
      </trkpt>
      <trkpt lat="42.90147667" lon="0.083385">
        <ele>1395.0</ele>
        <time>2019-07-07T08:12:57.824Z</time>
      </trkpt>
      <trkpt lat="42.90140667" lon="0.08302167">
        <ele>1392.0</ele>
        <time>2019-07-07T08:12:58.815Z</time>
      </trkpt>
      <trkpt lat="42.90140667" lon="0.08302167">
        <ele>1392.0</ele>
        <time>2019-07-07T08:12:59.839Z</time>
      </trkpt>
      <trkpt lat="42.90129167" lon="0.08267833">
        <ele>1390.0</ele>
        <time>2019-07-07T08:13:00.811Z</time>
      </trkpt>
      <trkpt lat="42.901225" lon="0.08250667">
        <ele>1389.0</ele>
        <time>2019-07-07T08:13:01.830Z</time>
      </trkpt>
      <trkpt lat="42.901225" lon="0.08250667">
        <ele>1389.0</ele>
        <time>2019-07-07T08:13:02.816Z</time>
      </trkpt>
      <trkpt lat="42.90106333" lon="0.08216">
        <ele>1386.0</ele>
        <time>2019-07-07T08:13:03.804Z</time>
      </trkpt>
      <trkpt lat="42.90106333" lon="0.08216">
        <ele>1386.0</ele>
        <time>2019-07-07T08:13:04.818Z</time>
      </trkpt>
      <trkpt lat="42.90090167" lon="0.08177833">
        <ele>1383.0</ele>
        <time>2019-07-07T08:13:05.813Z</time>
      </trkpt>
      <trkpt lat="42.90090167" lon="0.08177833">
        <ele>1383.0</ele>
        <time>2019-07-07T08:13:06.833Z</time>
      </trkpt>
      <trkpt lat="42.90078667" lon="0.08134833">
        <ele>1381.0</ele>
        <time>2019-07-07T08:13:07.827Z</time>
      </trkpt>
      <trkpt lat="42.90078667" lon="0.08134833">
        <ele>1381.0</ele>
        <time>2019-07-07T08:13:08.813Z</time>
      </trkpt>
      <trkpt lat="42.900665" lon="0.08091">
        <ele>1378.0</ele>
        <time>2019-07-07T08:13:09.821Z</time>
      </trkpt>
      <trkpt lat="42.90059667" lon="0.08069">
        <ele>1377.0</ele>
        <time>2019-07-07T08:13:10.818Z</time>
      </trkpt>
      <trkpt lat="42.90059667" lon="0.08069">
        <ele>1377.0</ele>
        <time>2019-07-07T08:13:11.837Z</time>
      </trkpt>
      <trkpt lat="42.90046" lon="0.080245">
        <ele>1374.0</ele>
        <time>2019-07-07T08:13:12.810Z</time>
      </trkpt>
      <trkpt lat="42.90046" lon="0.080245">
        <ele>1374.0</ele>
        <time>2019-07-07T08:13:13.833Z</time>
      </trkpt>
      <trkpt lat="42.900315" lon="0.07979667">
        <ele>1371.0</ele>
        <time>2019-07-07T08:13:14.801Z</time>
      </trkpt>
      <trkpt lat="42.900315" lon="0.07979667">
        <ele>1371.0</ele>
        <time>2019-07-07T08:13:15.839Z</time>
      </trkpt>
      <trkpt lat="42.90016167" lon="0.07935667">
        <ele>1368.0</ele>
        <time>2019-07-07T08:13:16.810Z</time>
      </trkpt>
      <trkpt lat="42.90016167" lon="0.07935667">
        <ele>1368.0</ele>
        <time>2019-07-07T08:13:17.830Z</time>
      </trkpt>
      <trkpt lat="42.90001167" lon="0.07890667">
        <ele>1365.0</ele>
        <time>2019-07-07T08:13:18.802Z</time>
      </trkpt>
      <trkpt lat="42.90001167" lon="0.07890667">
        <ele>1365.0</ele>
        <time>2019-07-07T08:13:19.833Z</time>
      </trkpt>
      <trkpt lat="42.89986333" lon="0.07846167">
        <ele>1363.0</ele>
        <time>2019-07-07T08:13:20.807Z</time>
      </trkpt>
      <trkpt lat="42.89977667" lon="0.078265">
        <ele>1361.0</ele>
        <time>2019-07-07T08:13:21.804Z</time>
      </trkpt>
      <trkpt lat="42.89971167" lon="0.07805167">
        <ele>1359.0</ele>
        <time>2019-07-07T08:13:22.838Z</time>
      </trkpt>
      <trkpt lat="42.89971167" lon="0.07805167">
        <ele>1359.0</ele>
        <time>2019-07-07T08:13:23.835Z</time>
      </trkpt>
      <trkpt lat="42.899605" lon="0.07761667">
        <ele>1356.0</ele>
        <time>2019-07-07T08:13:24.802Z</time>
      </trkpt>
      <trkpt lat="42.89954667" lon="0.077405">
        <ele>1355.0</ele>
        <time>2019-07-07T08:13:25.835Z</time>
      </trkpt>
      <trkpt lat="42.89954667" lon="0.077405">
        <ele>1355.0</ele>
        <time>2019-07-07T08:13:26.821Z</time>
      </trkpt>
      <trkpt lat="42.89945667" lon="0.07700167">
        <ele>1351.0</ele>
        <time>2019-07-07T08:13:27.808Z</time>
      </trkpt>
      <trkpt lat="42.89945667" lon="0.07700167">
        <ele>1351.0</ele>
        <time>2019-07-07T08:13:28.829Z</time>
      </trkpt>
      <trkpt lat="42.899405" lon="0.07661833">
        <ele>1349.0</ele>
        <time>2019-07-07T08:13:29.811Z</time>
      </trkpt>
      <trkpt lat="42.89937333" lon="0.076435">
        <ele>1347.0</ele>
        <time>2019-07-07T08:13:30.841Z</time>
      </trkpt>
      <trkpt lat="42.89937333" lon="0.076435">
        <ele>1347.0</ele>
        <time>2019-07-07T08:13:31.828Z</time>
      </trkpt>
      <trkpt lat="42.89927" lon="0.07608">
        <ele>1343.0</ele>
        <time>2019-07-07T08:13:32.839Z</time>
      </trkpt>
      <trkpt lat="42.89927" lon="0.07608">
        <ele>1343.0</ele>
        <time>2019-07-07T08:13:33.820Z</time>
      </trkpt>
      <trkpt lat="42.8991" lon="0.07574333">
        <ele>1340.0</ele>
        <time>2019-07-07T08:13:34.825Z</time>
      </trkpt>
      <trkpt lat="42.8991" lon="0.07574333">
        <ele>1340.0</ele>
        <time>2019-07-07T08:13:35.814Z</time>
      </trkpt>
      <trkpt lat="42.89891333" lon="0.07539667">
        <ele>1337.0</ele>
        <time>2019-07-07T08:13:36.823Z</time>
      </trkpt>
      <trkpt lat="42.89881" lon="0.07523167">
        <ele>1336.0</ele>
        <time>2019-07-07T08:13:37.813Z</time>
      </trkpt>
      <trkpt lat="42.89881" lon="0.07523167">
        <ele>1336.0</ele>
        <time>2019-07-07T08:13:38.801Z</time>
      </trkpt>
      <trkpt lat="42.89866" lon="0.07488">
        <ele>1333.0</ele>
        <time>2019-07-07T08:13:39.809Z</time>
      </trkpt>
      <trkpt lat="42.898615" lon="0.07468">
        <ele>1331.0</ele>
        <time>2019-07-07T08:13:40.809Z</time>
      </trkpt>
      <trkpt lat="42.898615" lon="0.07468">
        <ele>1331.0</ele>
        <time>2019-07-07T08:13:41.836Z</time>
      </trkpt>
      <trkpt lat="42.89855833" lon="0.07427833">
        <ele>1328.0</ele>
        <time>2019-07-07T08:13:42.804Z</time>
      </trkpt>
      <trkpt lat="42.89855833" lon="0.07427833">
        <ele>1328.0</ele>
        <time>2019-07-07T08:13:43.834Z</time>
      </trkpt>
      <trkpt lat="42.898555" lon="0.07385833">
        <ele>1325.0</ele>
        <time>2019-07-07T08:13:44.805Z</time>
      </trkpt>
      <trkpt lat="42.898555" lon="0.07385833">
        <ele>1325.0</ele>
        <time>2019-07-07T08:13:45.831Z</time>
      </trkpt>
      <trkpt lat="42.89849667" lon="0.07342167">
        <ele>1322.0</ele>
        <time>2019-07-07T08:13:46.810Z</time>
      </trkpt>
      <trkpt lat="42.89849667" lon="0.07342167">
        <ele>1322.0</ele>
        <time>2019-07-07T08:13:47.836Z</time>
      </trkpt>
      <trkpt lat="42.898445" lon="0.07297833">
        <ele>1319.0</ele>
        <time>2019-07-07T08:13:48.808Z</time>
      </trkpt>
      <trkpt lat="42.89843" lon="0.07276167">
        <ele>1317.0</ele>
        <time>2019-07-07T08:13:49.836Z</time>
      </trkpt>
      <trkpt lat="42.89843" lon="0.07276167">
        <ele>1317.0</ele>
        <time>2019-07-07T08:13:50.822Z</time>
      </trkpt>
      <trkpt lat="42.89837333" lon="0.07235">
        <ele>1314.0</ele>
        <time>2019-07-07T08:13:51.803Z</time>
      </trkpt>
      <trkpt lat="42.898355" lon="0.07214833">
        <ele>1312.0</ele>
        <time>2019-07-07T08:13:52.822Z</time>
      </trkpt>
      <trkpt lat="42.898355" lon="0.07214833">
        <ele>1312.0</ele>
        <time>2019-07-07T08:13:53.834Z</time>
      </trkpt>
      <trkpt lat="42.89834833" lon="0.071725">
        <ele>1309.0</ele>
        <time>2019-07-07T08:13:54.810Z</time>
      </trkpt>
      <trkpt lat="42.89834833" lon="0.071725">
        <ele>1309.0</ele>
        <time>2019-07-07T08:13:55.803Z</time>
      </trkpt>
      <trkpt lat="42.898295" lon="0.07128667">
        <ele>1306.0</ele>
        <time>2019-07-07T08:13:56.812Z</time>
      </trkpt>
      <trkpt lat="42.89824" lon="0.07106167">
        <ele>1304.0</ele>
        <time>2019-07-07T08:13:57.803Z</time>
      </trkpt>
      <trkpt lat="42.89824" lon="0.07106167">
        <ele>1304.0</ele>
        <time>2019-07-07T08:13:58.838Z</time>
      </trkpt>
      <trkpt lat="42.898145" lon="0.07060833">
        <ele>1301.0</ele>
        <time>2019-07-07T08:13:59.815Z</time>
      </trkpt>
      <trkpt lat="42.898145" lon="0.07060833">
        <ele>1301.0</ele>
        <time>2019-07-07T08:14:00.835Z</time>
      </trkpt>
      <trkpt lat="42.898075" lon="0.07017167">
        <ele>1297.0</ele>
        <time>2019-07-07T08:14:01.809Z</time>
      </trkpt>
      <trkpt lat="42.898075" lon="0.07017167">
        <ele>1297.0</ele>
        <time>2019-07-07T08:14:02.815Z</time>
      </trkpt>
      <trkpt lat="42.89801" lon="0.069755">
        <ele>1293.0</ele>
        <time>2019-07-07T08:14:03.824Z</time>
      </trkpt>
      <trkpt lat="42.897975" lon="0.06955333">
        <ele>1292.0</ele>
        <time>2019-07-07T08:14:04.813Z</time>
      </trkpt>
      <trkpt lat="42.897975" lon="0.06955333">
        <ele>1292.0</ele>
        <time>2019-07-07T08:14:05.838Z</time>
      </trkpt>
      <trkpt lat="42.89791333" lon="0.06915667">
        <ele>1288.0</ele>
        <time>2019-07-07T08:14:06.805Z</time>
      </trkpt>
      <trkpt lat="42.89788" lon="0.06896833">
        <ele>1286.0</ele>
        <time>2019-07-07T08:14:07.803Z</time>
      </trkpt>
      <trkpt lat="42.89788" lon="0.06896833">
        <ele>1286.0</ele>
        <time>2019-07-07T08:14:08.828Z</time>
      </trkpt>
      <trkpt lat="42.89782" lon="0.068615">
        <ele>1283.0</ele>
        <time>2019-07-07T08:14:09.836Z</time>
      </trkpt>
      <trkpt lat="42.89778667" lon="0.06844667">
        <ele>1281.0</ele>
        <time>2019-07-07T08:14:10.834Z</time>
      </trkpt>
      <trkpt lat="42.89778667" lon="0.06844667">
        <ele>1281.0</ele>
        <time>2019-07-07T08:14:11.801Z</time>
      </trkpt>
      <trkpt lat="42.897735" lon="0.06810333">
        <ele>1278.0</ele>
        <time>2019-07-07T08:14:12.810Z</time>
      </trkpt>
      <trkpt lat="42.897735" lon="0.06810333">
        <ele>1278.0</ele>
        <time>2019-07-07T08:14:13.834Z</time>
      </trkpt>
      <trkpt lat="42.89769333" lon="0.06775667">
        <ele>1274.0</ele>
        <time>2019-07-07T08:14:14.825Z</time>
      </trkpt>
      <trkpt lat="42.89769333" lon="0.06775667">
        <ele>1274.0</ele>
        <time>2019-07-07T08:14:15.838Z</time>
      </trkpt>
      <trkpt lat="42.89763833" lon="0.06741">
        <ele>1270.0</ele>
        <time>2019-07-07T08:14:16.808Z</time>
      </trkpt>
      <trkpt lat="42.8976" lon="0.06723833">
        <ele>1268.0</ele>
        <time>2019-07-07T08:14:17.815Z</time>
      </trkpt>
      <trkpt lat="42.8976" lon="0.06723833">
        <ele>1268.0</ele>
        <time>2019-07-07T08:14:18.840Z</time>
      </trkpt>
      <trkpt lat="42.89747333" lon="0.06691">
        <ele>1265.0</ele>
        <time>2019-07-07T08:14:19.808Z</time>
      </trkpt>
      <trkpt lat="42.89747333" lon="0.06691">
        <ele>1265.0</ele>
        <time>2019-07-07T08:14:20.802Z</time>
      </trkpt>
      <trkpt lat="42.89737333" lon="0.06661167">
        <ele>1261.0</ele>
        <time>2019-07-07T08:14:21.829Z</time>
      </trkpt>
      <trkpt lat="42.897335" lon="0.06647167">
        <ele>1260.0</ele>
        <time>2019-07-07T08:14:22.802Z</time>
      </trkpt>
      <trkpt lat="42.897335" lon="0.06647167">
        <ele>1260.0</ele>
        <time>2019-07-07T08:14:23.814Z</time>
      </trkpt>
      <trkpt lat="42.89726333" lon="0.06623833">
        <ele>1257.0</ele>
        <time>2019-07-07T08:14:24.811Z</time>
      </trkpt>
      <trkpt lat="42.89726333" lon="0.06623833">
        <ele>1257.0</ele>
        <time>2019-07-07T08:14:25.823Z</time>
      </trkpt>
      <trkpt lat="42.89718667" lon="0.06606833">
        <ele>1254.0</ele>
        <time>2019-07-07T08:14:26.837Z</time>
      </trkpt>
      <trkpt lat="42.89718667" lon="0.06606833">
        <ele>1254.0</ele>
        <time>2019-07-07T08:14:27.814Z</time>
      </trkpt>
      <trkpt lat="42.89711833" lon="0.06591">
        <ele>1252.0</ele>
        <time>2019-07-07T08:14:28.808Z</time>
      </trkpt>
      <trkpt lat="42.89711833" lon="0.06591">
        <ele>1252.0</ele>
        <time>2019-07-07T08:14:29.821Z</time>
      </trkpt>
      <trkpt lat="42.89710333" lon="0.06576667">
        <ele>1250.0</ele>
        <time>2019-07-07T08:14:30.803Z</time>
      </trkpt>
      <trkpt lat="42.89710333" lon="0.06576667">
        <ele>1250.0</ele>
        <time>2019-07-07T08:14:31.820Z</time>
      </trkpt>
      <trkpt lat="42.89711167" lon="0.06564">
        <ele>1248.0</ele>
        <time>2019-07-07T08:14:32.803Z</time>
      </trkpt>
      <trkpt lat="42.89711167" lon="0.06564">
        <ele>1248.0</ele>
        <time>2019-07-07T08:14:33.818Z</time>
      </trkpt>
      <trkpt lat="42.89715167" lon="0.06552667">
        <ele>1246.0</ele>
        <time>2019-07-07T08:14:34.825Z</time>
      </trkpt>
      <trkpt lat="42.89715167" lon="0.06552667">
        <ele>1246.0</ele>
        <time>2019-07-07T08:14:35.809Z</time>
      </trkpt>
      <trkpt lat="42.89719333" lon="0.06540167">
        <ele>1244.0</ele>
        <time>2019-07-07T08:14:36.804Z</time>
      </trkpt>
      <trkpt lat="42.89719333" lon="0.06540167">
        <ele>1244.0</ele>
        <time>2019-07-07T08:14:37.838Z</time>
      </trkpt>
      <trkpt lat="42.89716833" lon="0.065265">
        <ele>1242.0</ele>
        <time>2019-07-07T08:14:38.806Z</time>
      </trkpt>
      <trkpt lat="42.89714833" lon="0.06519833">
        <ele>1242.0</ele>
        <time>2019-07-07T08:14:39.833Z</time>
      </trkpt>
      <trkpt lat="42.89714833" lon="0.06519833">
        <ele>1242.0</ele>
        <time>2019-07-07T08:14:40.819Z</time>
      </trkpt>
      <trkpt lat="42.89710333" lon="0.06504333">
        <ele>1240.0</ele>
        <time>2019-07-07T08:14:41.828Z</time>
      </trkpt>
      <trkpt lat="42.89710333" lon="0.06504333">
        <ele>1240.0</ele>
        <time>2019-07-07T08:14:42.812Z</time>
      </trkpt>
      <trkpt lat="42.897065" lon="0.06484167">
        <ele>1238.0</ele>
        <time>2019-07-07T08:14:43.841Z</time>
      </trkpt>
      <trkpt lat="42.897065" lon="0.06484167">
        <ele>1238.0</ele>
        <time>2019-07-07T08:14:44.825Z</time>
      </trkpt>
      <trkpt lat="42.897045" lon="0.06460833">
        <ele>1237.0</ele>
        <time>2019-07-07T08:14:45.835Z</time>
      </trkpt>
      <trkpt lat="42.897035" lon="0.06448667">
        <ele>1236.0</ele>
        <time>2019-07-07T08:14:46.823Z</time>
      </trkpt>
      <trkpt lat="42.897035" lon="0.06448667">
        <ele>1236.0</ele>
        <time>2019-07-07T08:14:47.821Z</time>
      </trkpt>
      <trkpt lat="42.89703667" lon="0.06426333">
        <ele>1235.0</ele>
        <time>2019-07-07T08:14:48.837Z</time>
      </trkpt>
      <trkpt lat="42.89707333" lon="0.06415667">
        <ele>1234.0</ele>
        <time>2019-07-07T08:14:49.838Z</time>
      </trkpt>
      <trkpt lat="42.89705333" lon="0.06406167">
        <ele>1233.0</ele>
        <time>2019-07-07T08:14:50.823Z</time>
      </trkpt>
      <trkpt lat="42.89705333" lon="0.06406167">
        <ele>1233.0</ele>
        <time>2019-07-07T08:14:51.807Z</time>
      </trkpt>
      <trkpt lat="42.89699667" lon="0.06386833">
        <ele>1231.0</ele>
        <time>2019-07-07T08:14:52.813Z</time>
      </trkpt>
      <trkpt lat="42.89699667" lon="0.06386833">
        <ele>1231.0</ele>
        <time>2019-07-07T08:14:53.813Z</time>
      </trkpt>
      <trkpt lat="42.89688167" lon="0.063685">
        <ele>1229.0</ele>
        <time>2019-07-07T08:14:54.804Z</time>
      </trkpt>
      <trkpt lat="42.89688167" lon="0.063685">
        <ele>1229.0</ele>
        <time>2019-07-07T08:14:55.823Z</time>
      </trkpt>
      <trkpt lat="42.89676667" lon="0.06349">
        <ele>1228.0</ele>
        <time>2019-07-07T08:14:56.839Z</time>
      </trkpt>
      <trkpt lat="42.89676667" lon="0.06349">
        <ele>1228.0</ele>
        <time>2019-07-07T08:14:57.816Z</time>
      </trkpt>
      <trkpt lat="42.89670167" lon="0.06326333">
        <ele>1227.0</ele>
        <time>2019-07-07T08:14:58.839Z</time>
      </trkpt>
      <trkpt lat="42.89670167" lon="0.06326333">
        <ele>1227.0</ele>
        <time>2019-07-07T08:14:59.823Z</time>
      </trkpt>
      <trkpt lat="42.896635" lon="0.063065">
        <ele>1225.0</ele>
        <time>2019-07-07T08:15:00.835Z</time>
      </trkpt>
      <trkpt lat="42.89658167" lon="0.06300833">
        <ele>1224.0</ele>
        <time>2019-07-07T08:15:01.812Z</time>
      </trkpt>
      <trkpt lat="42.89658167" lon="0.06300833">
        <ele>1224.0</ele>
        <time>2019-07-07T08:15:02.831Z</time>
      </trkpt>
      <trkpt lat="42.89646167" lon="0.06297">
        <ele>1223.0</ele>
        <time>2019-07-07T08:15:03.839Z</time>
      </trkpt>
      <trkpt lat="42.8964" lon="0.06298">
        <ele>1222.0</ele>
        <time>2019-07-07T08:15:04.837Z</time>
      </trkpt>
      <trkpt lat="42.8964" lon="0.06298">
        <ele>1222.0</ele>
        <time>2019-07-07T08:15:05.817Z</time>
      </trkpt>
      <trkpt lat="42.89629333" lon="0.06298167">
        <ele>1221.0</ele>
        <time>2019-07-07T08:15:06.801Z</time>
      </trkpt>
      <trkpt lat="42.89629333" lon="0.06298167">
        <ele>1221.0</ele>
        <time>2019-07-07T08:15:07.823Z</time>
      </trkpt>
      <trkpt lat="42.89620167" lon="0.062875">
        <ele>1220.0</ele>
        <time>2019-07-07T08:15:08.832Z</time>
      </trkpt>
      <trkpt lat="42.89620167" lon="0.062875">
        <ele>1220.0</ele>
        <time>2019-07-07T08:15:09.815Z</time>
      </trkpt>
      <trkpt lat="42.89616833" lon="0.06268667">
        <ele>1219.0</ele>
        <time>2019-07-07T08:15:10.804Z</time>
      </trkpt>
      <trkpt lat="42.89616833" lon="0.06268667">
        <ele>1219.0</ele>
        <time>2019-07-07T08:15:11.810Z</time>
      </trkpt>
      <trkpt lat="42.89614333" lon="0.06245167">
        <ele>1218.0</ele>
        <time>2019-07-07T08:15:12.821Z</time>
      </trkpt>
      <trkpt lat="42.89614333" lon="0.06245167">
        <ele>1218.0</ele>
        <time>2019-07-07T08:15:13.806Z</time>
      </trkpt>
      <trkpt lat="42.89612333" lon="0.06219">
        <ele>1217.0</ele>
        <time>2019-07-07T08:15:14.838Z</time>
      </trkpt>
      <trkpt lat="42.89612333" lon="0.06219">
        <ele>1217.0</ele>
        <time>2019-07-07T08:15:15.807Z</time>
      </trkpt>
      <trkpt lat="42.89611333" lon="0.061925">
        <ele>1216.0</ele>
        <time>2019-07-07T08:15:16.820Z</time>
      </trkpt>
      <trkpt lat="42.89611" lon="0.06178667">
        <ele>1215.0</ele>
        <time>2019-07-07T08:15:17.818Z</time>
      </trkpt>
      <trkpt lat="42.89611" lon="0.06178667">
        <ele>1215.0</ele>
        <time>2019-07-07T08:15:18.812Z</time>
      </trkpt>
      <trkpt lat="42.89611667" lon="0.06151333">
        <ele>1214.0</ele>
        <time>2019-07-07T08:15:19.821Z</time>
      </trkpt>
      <trkpt lat="42.89610667" lon="0.06138">
        <ele>1214.0</ele>
        <time>2019-07-07T08:15:20.804Z</time>
      </trkpt>
      <trkpt lat="42.896095" lon="0.06124167">
        <ele>1213.0</ele>
        <time>2019-07-07T08:15:21.833Z</time>
      </trkpt>
      <trkpt lat="42.896095" lon="0.06124167">
        <ele>1213.0</ele>
        <time>2019-07-07T08:15:22.815Z</time>
      </trkpt>
      <trkpt lat="42.89608333" lon="0.060965">
        <ele>1212.0</ele>
        <time>2019-07-07T08:15:23.840Z</time>
      </trkpt>
      <trkpt lat="42.89608333" lon="0.060965">
        <ele>1212.0</ele>
        <time>2019-07-07T08:15:24.823Z</time>
      </trkpt>
      <trkpt lat="42.89604833" lon="0.06068333">
        <ele>1211.0</ele>
        <time>2019-07-07T08:15:25.836Z</time>
      </trkpt>
      <trkpt lat="42.89604833" lon="0.06068333">
        <ele>1211.0</ele>
        <time>2019-07-07T08:15:26.822Z</time>
      </trkpt>
      <trkpt lat="42.89600667" lon="0.06038667">
        <ele>1210.0</ele>
        <time>2019-07-07T08:15:27.819Z</time>
      </trkpt>
      <trkpt lat="42.89600667" lon="0.06038667">
        <ele>1210.0</ele>
        <time>2019-07-07T08:15:28.805Z</time>
      </trkpt>
      <trkpt lat="42.89598167" lon="0.06009833">
        <ele>1208.0</ele>
        <time>2019-07-07T08:15:29.814Z</time>
      </trkpt>
      <trkpt lat="42.89597333" lon="0.05996333">
        <ele>1206.0</ele>
        <time>2019-07-07T08:15:30.804Z</time>
      </trkpt>
      <trkpt lat="42.89597333" lon="0.05996333">
        <ele>1206.0</ele>
        <time>2019-07-07T08:15:31.828Z</time>
      </trkpt>
      <trkpt lat="42.89590333" lon="0.05970833">
        <ele>1204.0</ele>
        <time>2019-07-07T08:15:32.838Z</time>
      </trkpt>
      <trkpt lat="42.89590333" lon="0.05970833">
        <ele>1204.0</ele>
        <time>2019-07-07T08:15:33.813Z</time>
      </trkpt>
      <trkpt lat="42.89575333" lon="0.05950167">
        <ele>1202.0</ele>
        <time>2019-07-07T08:15:34.831Z</time>
      </trkpt>
      <trkpt lat="42.89575333" lon="0.05950167">
        <ele>1202.0</ele>
        <time>2019-07-07T08:15:35.818Z</time>
      </trkpt>
      <trkpt lat="42.89554667" lon="0.05942833">
        <ele>1200.0</ele>
        <time>2019-07-07T08:15:36.825Z</time>
      </trkpt>
      <trkpt lat="42.89554667" lon="0.05942833">
        <ele>1200.0</ele>
        <time>2019-07-07T08:15:37.806Z</time>
      </trkpt>
      <trkpt lat="42.895325" lon="0.059465">
        <ele>1198.0</ele>
        <time>2019-07-07T08:15:38.826Z</time>
      </trkpt>
      <trkpt lat="42.89522833" lon="0.05948167">
        <ele>1198.0</ele>
        <time>2019-07-07T08:15:39.802Z</time>
      </trkpt>
      <trkpt lat="42.89522833" lon="0.05948167">
        <ele>1198.0</ele>
        <time>2019-07-07T08:15:40.825Z</time>
      </trkpt>
      <trkpt lat="42.89503" lon="0.059465">
        <ele>1196.0</ele>
        <time>2019-07-07T08:15:41.831Z</time>
      </trkpt>
      <trkpt lat="42.89503" lon="0.059465">
        <ele>1196.0</ele>
        <time>2019-07-07T08:15:42.814Z</time>
      </trkpt>
      <trkpt lat="42.89496333" lon="0.05932333">
        <ele>1194.0</ele>
        <time>2019-07-07T08:15:43.838Z</time>
      </trkpt>
      <trkpt lat="42.89496333" lon="0.05932333">
        <ele>1194.0</ele>
        <time>2019-07-07T08:15:44.803Z</time>
      </trkpt>
      <trkpt lat="42.89498333" lon="0.05911667">
        <ele>1194.0</ele>
        <time>2019-07-07T08:15:45.811Z</time>
      </trkpt>
      <trkpt lat="42.89501833" lon="0.059035">
        <ele>1193.0</ele>
        <time>2019-07-07T08:15:46.833Z</time>
      </trkpt>
      <trkpt lat="42.89501833" lon="0.059035">
        <ele>1193.0</ele>
        <time>2019-07-07T08:15:47.816Z</time>
      </trkpt>
      <trkpt lat="42.89514" lon="0.05898333">
        <ele>1192.0</ele>
        <time>2019-07-07T08:15:48.826Z</time>
      </trkpt>
      <trkpt lat="42.895215" lon="0.05902667">
        <ele>1191.0</ele>
        <time>2019-07-07T08:15:49.811Z</time>
      </trkpt>
      <trkpt lat="42.895295" lon="0.05908833">
        <ele>1191.0</ele>
        <time>2019-07-07T08:15:50.819Z</time>
      </trkpt>
      <trkpt lat="42.895295" lon="0.05908833">
        <ele>1191.0</ele>
        <time>2019-07-07T08:15:51.834Z</time>
      </trkpt>
      <trkpt lat="42.89544333" lon="0.05913667">
        <ele>1190.0</ele>
        <time>2019-07-07T08:15:52.801Z</time>
      </trkpt>
      <trkpt lat="42.89544333" lon="0.05913667">
        <ele>1190.0</ele>
        <time>2019-07-07T08:15:53.824Z</time>
      </trkpt>
      <trkpt lat="42.89558333" lon="0.05902667">
        <ele>1189.0</ele>
        <time>2019-07-07T08:15:54.834Z</time>
      </trkpt>
      <trkpt lat="42.89558333" lon="0.05902667">
        <ele>1189.0</ele>
        <time>2019-07-07T08:15:55.817Z</time>
      </trkpt>
      <trkpt lat="42.89562" lon="0.058805">
        <ele>1188.0</ele>
        <time>2019-07-07T08:15:56.825Z</time>
      </trkpt>
      <trkpt lat="42.89558333" lon="0.05869667">
        <ele>1187.0</ele>
        <time>2019-07-07T08:15:57.817Z</time>
      </trkpt>
      <trkpt lat="42.89558333" lon="0.05869667">
        <ele>1187.0</ele>
        <time>2019-07-07T08:15:58.801Z</time>
      </trkpt>
      <trkpt lat="42.89542833" lon="0.05854833">
        <ele>1185.0</ele>
        <time>2019-07-07T08:15:59.829Z</time>
      </trkpt>
      <trkpt lat="42.89542833" lon="0.05854833">
        <ele>1185.0</ele>
        <time>2019-07-07T08:16:00.812Z</time>
      </trkpt>
      <trkpt lat="42.89523333" lon="0.05842167">
        <ele>1184.0</ele>
        <time>2019-07-07T08:16:01.818Z</time>
      </trkpt>
      <trkpt lat="42.89523333" lon="0.05842167">
        <ele>1184.0</ele>
        <time>2019-07-07T08:16:02.801Z</time>
      </trkpt>
      <trkpt lat="42.89502667" lon="0.05827">
        <ele>1182.0</ele>
        <time>2019-07-07T08:16:03.805Z</time>
      </trkpt>
      <trkpt lat="42.89502667" lon="0.05827">
        <ele>1182.0</ele>
        <time>2019-07-07T08:16:04.810Z</time>
      </trkpt>
      <trkpt lat="42.89484333" lon="0.05805667">
        <ele>1181.0</ele>
        <time>2019-07-07T08:16:05.822Z</time>
      </trkpt>
      <trkpt lat="42.89475667" lon="0.05793333">
        <ele>1180.0</ele>
        <time>2019-07-07T08:16:06.836Z</time>
      </trkpt>
      <trkpt lat="42.89475667" lon="0.05793333">
        <ele>1180.0</ele>
        <time>2019-07-07T08:16:07.819Z</time>
      </trkpt>
      <trkpt lat="42.89460167" lon="0.057685">
        <ele>1178.0</ele>
        <time>2019-07-07T08:16:08.830Z</time>
      </trkpt>
      <trkpt lat="42.89460167" lon="0.057685">
        <ele>1178.0</ele>
        <time>2019-07-07T08:16:09.814Z</time>
      </trkpt>
      <trkpt lat="42.89446167" lon="0.05742333">
        <ele>1176.0</ele>
        <time>2019-07-07T08:16:10.803Z</time>
      </trkpt>
      <trkpt lat="42.89446167" lon="0.05742333">
        <ele>1176.0</ele>
        <time>2019-07-07T08:16:11.827Z</time>
      </trkpt>
      <trkpt lat="42.89436167" lon="0.05712">
        <ele>1174.0</ele>
        <time>2019-07-07T08:16:12.835Z</time>
      </trkpt>
      <trkpt lat="42.89431" lon="0.05696">
        <ele>1173.0</ele>
        <time>2019-07-07T08:16:13.804Z</time>
      </trkpt>
      <trkpt lat="42.89431" lon="0.05696">
        <ele>1173.0</ele>
        <time>2019-07-07T08:16:14.835Z</time>
      </trkpt>
      <trkpt lat="42.89420833" lon="0.05662833">
        <ele>1171.0</ele>
        <time>2019-07-07T08:16:15.802Z</time>
      </trkpt>
      <trkpt lat="42.89415" lon="0.05646333">
        <ele>1170.0</ele>
        <time>2019-07-07T08:16:16.801Z</time>
      </trkpt>
      <trkpt lat="42.89415" lon="0.05646333">
        <ele>1170.0</ele>
        <time>2019-07-07T08:16:17.821Z</time>
      </trkpt>
      <trkpt lat="42.89401833" lon="0.05612667">
        <ele>1167.0</ele>
        <time>2019-07-07T08:16:18.828Z</time>
      </trkpt>
      <trkpt lat="42.89401833" lon="0.05612667">
        <ele>1167.0</ele>
        <time>2019-07-07T08:16:19.812Z</time>
      </trkpt>
      <trkpt lat="42.89387667" lon="0.05578833">
        <ele>1165.0</ele>
        <time>2019-07-07T08:16:20.827Z</time>
      </trkpt>
      <trkpt lat="42.89387667" lon="0.05578833">
        <ele>1165.0</ele>
        <time>2019-07-07T08:16:21.801Z</time>
      </trkpt>
      <trkpt lat="42.893735" lon="0.05545">
        <ele>1162.0</ele>
        <time>2019-07-07T08:16:22.808Z</time>
      </trkpt>
      <trkpt lat="42.893735" lon="0.05545">
        <ele>1162.0</ele>
        <time>2019-07-07T08:16:23.837Z</time>
      </trkpt>
      <trkpt lat="42.89359167" lon="0.05509833">
        <ele>1160.0</ele>
        <time>2019-07-07T08:16:24.805Z</time>
      </trkpt>
      <trkpt lat="42.89359167" lon="0.05509833">
        <ele>1160.0</ele>
        <time>2019-07-07T08:16:25.815Z</time>
      </trkpt>
      <trkpt lat="42.89343833" lon="0.05474">
        <ele>1157.0</ele>
        <time>2019-07-07T08:16:26.822Z</time>
      </trkpt>
      <trkpt lat="42.89343833" lon="0.05474">
        <ele>1157.0</ele>
        <time>2019-07-07T08:16:27.802Z</time>
      </trkpt>
      <trkpt lat="42.89327333" lon="0.054375">
        <ele>1154.0</ele>
        <time>2019-07-07T08:16:28.824Z</time>
      </trkpt>
      <trkpt lat="42.89327333" lon="0.054375">
        <ele>1154.0</ele>
        <time>2019-07-07T08:16:29.808Z</time>
      </trkpt>
      <trkpt lat="42.89313" lon="0.05400167">
        <ele>1152.0</ele>
        <time>2019-07-07T08:16:30.816Z</time>
      </trkpt>
      <trkpt lat="42.89306667" lon="0.05381833">
        <ele>1151.0</ele>
        <time>2019-07-07T08:16:31.827Z</time>
      </trkpt>
      <trkpt lat="42.89306667" lon="0.05381833">
        <ele>1151.0</ele>
        <time>2019-07-07T08:16:32.808Z</time>
      </trkpt>
      <trkpt lat="42.89297" lon="0.05343667">
        <ele>1148.0</ele>
        <time>2019-07-07T08:16:33.814Z</time>
      </trkpt>
      <trkpt lat="42.892935" lon="0.05324833">
        <ele>1147.0</ele>
        <time>2019-07-07T08:16:34.814Z</time>
      </trkpt>
      <trkpt lat="42.892935" lon="0.05324833">
        <ele>1147.0</ele>
        <time>2019-07-07T08:16:35.802Z</time>
      </trkpt>
      <trkpt lat="42.89286833" lon="0.05288">
        <ele>1145.0</ele>
        <time>2019-07-07T08:16:36.810Z</time>
      </trkpt>
      <trkpt lat="42.89281667" lon="0.05269833">
        <ele>1143.0</ele>
        <time>2019-07-07T08:16:37.835Z</time>
      </trkpt>
      <trkpt lat="42.89281667" lon="0.05269833">
        <ele>1143.0</ele>
        <time>2019-07-07T08:16:38.840Z</time>
      </trkpt>
      <trkpt lat="42.89267833" lon="0.052345">
        <ele>1140.0</ele>
        <time>2019-07-07T08:16:39.807Z</time>
      </trkpt>
      <trkpt lat="42.89258167" lon="0.05218167">
        <ele>1139.0</ele>
        <time>2019-07-07T08:16:40.833Z</time>
      </trkpt>
      <trkpt lat="42.89258167" lon="0.05218167">
        <ele>1139.0</ele>
        <time>2019-07-07T08:16:41.802Z</time>
      </trkpt>
      <trkpt lat="42.892405" lon="0.05183667">
        <ele>1137.0</ele>
        <time>2019-07-07T08:16:42.814Z</time>
      </trkpt>
      <trkpt lat="42.89232167" lon="0.05167">
        <ele>1136.0</ele>
        <time>2019-07-07T08:16:43.822Z</time>
      </trkpt>
      <trkpt lat="42.89232167" lon="0.05167">
        <ele>1136.0</ele>
        <time>2019-07-07T08:16:44.806Z</time>
      </trkpt>
      <trkpt lat="42.892175" lon="0.05136167">
        <ele>1133.0</ele>
        <time>2019-07-07T08:16:45.815Z</time>
      </trkpt>
      <trkpt lat="42.892175" lon="0.05136167">
        <ele>1133.0</ele>
        <time>2019-07-07T08:16:46.836Z</time>
      </trkpt>
      <trkpt lat="42.89201667" lon="0.05108833">
        <ele>1131.0</ele>
        <time>2019-07-07T08:16:47.815Z</time>
      </trkpt>
      <trkpt lat="42.89201667" lon="0.05108833">
        <ele>1131.0</ele>
        <time>2019-07-07T08:16:48.828Z</time>
      </trkpt>
      <trkpt lat="42.89181667" lon="0.05088833">
        <ele>1129.0</ele>
        <time>2019-07-07T08:16:49.801Z</time>
      </trkpt>
      <trkpt lat="42.89181667" lon="0.05088833">
        <ele>1129.0</ele>
        <time>2019-07-07T08:16:50.812Z</time>
      </trkpt>
      <trkpt lat="42.89156" lon="0.05075833">
        <ele>1127.0</ele>
        <time>2019-07-07T08:16:51.821Z</time>
      </trkpt>
      <trkpt lat="42.89142833" lon="0.050695">
        <ele>1126.0</ele>
        <time>2019-07-07T08:16:52.822Z</time>
      </trkpt>
      <trkpt lat="42.89142833" lon="0.050695">
        <ele>1126.0</ele>
        <time>2019-07-07T08:16:53.838Z</time>
      </trkpt>
      <trkpt lat="42.89117167" lon="0.05051833">
        <ele>1124.0</ele>
        <time>2019-07-07T08:16:54.813Z</time>
      </trkpt>
      <trkpt lat="42.89117167" lon="0.05051833">
        <ele>1124.0</ele>
        <time>2019-07-07T08:16:55.821Z</time>
      </trkpt>
      <trkpt lat="42.890955" lon="0.05026">
        <ele>1121.0</ele>
        <time>2019-07-07T08:16:56.815Z</time>
      </trkpt>
      <trkpt lat="42.890855" lon="0.05011833">
        <ele>1120.0</ele>
        <time>2019-07-07T08:16:57.826Z</time>
      </trkpt>
      <trkpt lat="42.890855" lon="0.05011833">
        <ele>1120.0</ele>
        <time>2019-07-07T08:16:58.809Z</time>
      </trkpt>
      <trkpt lat="42.89066667" lon="0.049835">
        <ele>1118.0</ele>
        <time>2019-07-07T08:16:59.818Z</time>
      </trkpt>
      <trkpt lat="42.89066667" lon="0.049835">
        <ele>1118.0</ele>
        <time>2019-07-07T08:17:00.803Z</time>
      </trkpt>
      <trkpt lat="42.89053" lon="0.049495">
        <ele>1116.0</ele>
        <time>2019-07-07T08:17:01.823Z</time>
      </trkpt>
      <trkpt lat="42.89053" lon="0.049495">
        <ele>1116.0</ele>
        <time>2019-07-07T08:17:02.809Z</time>
      </trkpt>
      <trkpt lat="42.89050167" lon="0.04912833">
        <ele>1114.0</ele>
        <time>2019-07-07T08:17:03.817Z</time>
      </trkpt>
      <trkpt lat="42.89050167" lon="0.04912833">
        <ele>1114.0</ele>
        <time>2019-07-07T08:17:04.823Z</time>
      </trkpt>
      <trkpt lat="42.89044" lon="0.04880167">
        <ele>1112.0</ele>
        <time>2019-07-07T08:17:05.806Z</time>
      </trkpt>
      <trkpt lat="42.89044" lon="0.04880167">
        <ele>1112.0</ele>
        <time>2019-07-07T08:17:06.828Z</time>
      </trkpt>
      <trkpt lat="42.89030333" lon="0.048565">
        <ele>1109.0</ele>
        <time>2019-07-07T08:17:07.803Z</time>
      </trkpt>
      <trkpt lat="42.89030333" lon="0.048565">
        <ele>1109.0</ele>
        <time>2019-07-07T08:17:08.812Z</time>
      </trkpt>
      <trkpt lat="42.89016667" lon="0.0484">
        <ele>1107.0</ele>
        <time>2019-07-07T08:17:09.826Z</time>
      </trkpt>
      <trkpt lat="42.89016667" lon="0.0484">
        <ele>1107.0</ele>
        <time>2019-07-07T08:17:10.810Z</time>
      </trkpt>
      <trkpt lat="42.8901" lon="0.04823">
        <ele>1105.0</ele>
        <time>2019-07-07T08:17:11.817Z</time>
      </trkpt>
      <trkpt lat="42.8901" lon="0.04823">
        <ele>1105.0</ele>
        <time>2019-07-07T08:17:12.838Z</time>
      </trkpt>
      <trkpt lat="42.89016167" lon="0.04805333">
        <ele>1103.0</ele>
        <time>2019-07-07T08:17:13.808Z</time>
      </trkpt>
      <trkpt lat="42.89016167" lon="0.04805333">
        <ele>1103.0</ele>
        <time>2019-07-07T08:17:14.819Z</time>
      </trkpt>
      <trkpt lat="42.89029833" lon="0.04803167">
        <ele>1101.0</ele>
        <time>2019-07-07T08:17:15.833Z</time>
      </trkpt>
      <trkpt lat="42.89036833" lon="0.048105">
        <ele>1100.0</ele>
        <time>2019-07-07T08:17:16.824Z</time>
      </trkpt>
      <trkpt lat="42.890425" lon="0.0482">
        <ele>1099.0</ele>
        <time>2019-07-07T08:17:17.833Z</time>
      </trkpt>
      <trkpt lat="42.890425" lon="0.0482">
        <ele>1099.0</ele>
        <time>2019-07-07T08:17:18.815Z</time>
      </trkpt>
      <trkpt lat="42.890535" lon="0.0484">
        <ele>1098.0</ele>
        <time>2019-07-07T08:17:19.838Z</time>
      </trkpt>
      <trkpt lat="42.8906" lon="0.048495">
        <ele>1097.0</ele>
        <time>2019-07-07T08:17:20.809Z</time>
      </trkpt>
      <trkpt lat="42.8906" lon="0.048495">
        <ele>1097.0</ele>
        <time>2019-07-07T08:17:21.824Z</time>
      </trkpt>
      <trkpt lat="42.89075333" lon="0.04867">
        <ele>1095.0</ele>
        <time>2019-07-07T08:17:22.817Z</time>
      </trkpt>
      <trkpt lat="42.89083167" lon="0.04873667">
        <ele>1094.0</ele>
        <time>2019-07-07T08:17:23.838Z</time>
      </trkpt>
      <trkpt lat="42.89083167" lon="0.04873667">
        <ele>1094.0</ele>
        <time>2019-07-07T08:17:24.807Z</time>
      </trkpt>
      <trkpt lat="42.89099333" lon="0.04875833">
        <ele>1093.0</ele>
        <time>2019-07-07T08:17:25.805Z</time>
      </trkpt>
      <trkpt lat="42.89099333" lon="0.04875833">
        <ele>1093.0</ele>
        <time>2019-07-07T08:17:26.826Z</time>
      </trkpt>
      <trkpt lat="42.8911" lon="0.048615">
        <ele>1092.0</ele>
        <time>2019-07-07T08:17:27.833Z</time>
      </trkpt>
      <trkpt lat="42.8911" lon="0.048615">
        <ele>1092.0</ele>
        <time>2019-07-07T08:17:28.807Z</time>
      </trkpt>
      <trkpt lat="42.89107833" lon="0.04841167">
        <ele>1090.0</ele>
        <time>2019-07-07T08:17:29.827Z</time>
      </trkpt>
      <trkpt lat="42.89107833" lon="0.04841167">
        <ele>1090.0</ele>
        <time>2019-07-07T08:17:30.802Z</time>
      </trkpt>
      <trkpt lat="42.89096833" lon="0.04823">
        <ele>1088.0</ele>
        <time>2019-07-07T08:17:31.832Z</time>
      </trkpt>
      <trkpt lat="42.89096833" lon="0.04823">
        <ele>1088.0</ele>
        <time>2019-07-07T08:17:32.816Z</time>
      </trkpt>
      <trkpt lat="42.89085" lon="0.04802333">
        <ele>1086.0</ele>
        <time>2019-07-07T08:17:33.816Z</time>
      </trkpt>
      <trkpt lat="42.890785" lon="0.04791167">
        <ele>1085.0</ele>
        <time>2019-07-07T08:17:34.801Z</time>
      </trkpt>
      <trkpt lat="42.890785" lon="0.04791167">
        <ele>1085.0</ele>
        <time>2019-07-07T08:17:35.809Z</time>
      </trkpt>
      <trkpt lat="42.89064333" lon="0.04768667">
        <ele>1083.0</ele>
        <time>2019-07-07T08:17:36.830Z</time>
      </trkpt>
      <trkpt lat="42.89064333" lon="0.04768667">
        <ele>1083.0</ele>
        <time>2019-07-07T08:17:37.812Z</time>
      </trkpt>
      <trkpt lat="42.8905" lon="0.04745833">
        <ele>1082.0</ele>
        <time>2019-07-07T08:17:38.824Z</time>
      </trkpt>
      <trkpt lat="42.8905" lon="0.04745833">
        <ele>1082.0</ele>
        <time>2019-07-07T08:17:39.808Z</time>
      </trkpt>
      <trkpt lat="42.89034833" lon="0.04724333">
        <ele>1080.0</ele>
        <time>2019-07-07T08:17:40.805Z</time>
      </trkpt>
      <trkpt lat="42.89034833" lon="0.04724333">
        <ele>1080.0</ele>
        <time>2019-07-07T08:17:41.810Z</time>
      </trkpt>
      <trkpt lat="42.890165" lon="0.047055">
        <ele>1078.0</ele>
        <time>2019-07-07T08:17:42.818Z</time>
      </trkpt>
      <trkpt lat="42.890165" lon="0.047055">
        <ele>1078.0</ele>
        <time>2019-07-07T08:17:43.837Z</time>
      </trkpt>
      <trkpt lat="42.88993833" lon="0.046915">
        <ele>1077.0</ele>
        <time>2019-07-07T08:17:44.829Z</time>
      </trkpt>
      <trkpt lat="42.88993833" lon="0.046915">
        <ele>1077.0</ele>
        <time>2019-07-07T08:17:45.824Z</time>
      </trkpt>
      <trkpt lat="42.88968" lon="0.04681333">
        <ele>1075.0</ele>
        <time>2019-07-07T08:17:46.830Z</time>
      </trkpt>
      <trkpt lat="42.88968" lon="0.04681333">
        <ele>1075.0</ele>
        <time>2019-07-07T08:17:47.838Z</time>
      </trkpt>
      <trkpt lat="42.88941333" lon="0.04669667">
        <ele>1073.0</ele>
        <time>2019-07-07T08:17:48.830Z</time>
      </trkpt>
      <trkpt lat="42.88941333" lon="0.04669667">
        <ele>1073.0</ele>
        <time>2019-07-07T08:17:49.818Z</time>
      </trkpt>
      <trkpt lat="42.88914167" lon="0.04656333">
        <ele>1071.0</ele>
        <time>2019-07-07T08:17:50.825Z</time>
      </trkpt>
      <trkpt lat="42.88914167" lon="0.04656333">
        <ele>1071.0</ele>
        <time>2019-07-07T08:17:51.814Z</time>
      </trkpt>
      <trkpt lat="42.88888333" lon="0.04643">
        <ele>1069.0</ele>
        <time>2019-07-07T08:17:52.805Z</time>
      </trkpt>
      <trkpt lat="42.88888333" lon="0.04643">
        <ele>1069.0</ele>
        <time>2019-07-07T08:17:53.802Z</time>
      </trkpt>
      <trkpt lat="42.88863167" lon="0.046315">
        <ele>1067.0</ele>
        <time>2019-07-07T08:17:54.809Z</time>
      </trkpt>
      <trkpt lat="42.88850167" lon="0.04625833">
        <ele>1066.0</ele>
        <time>2019-07-07T08:17:55.835Z</time>
      </trkpt>
      <trkpt lat="42.88850167" lon="0.04625833">
        <ele>1066.0</ele>
        <time>2019-07-07T08:17:56.809Z</time>
      </trkpt>
      <trkpt lat="42.88824" lon="0.04614833">
        <ele>1064.0</ele>
        <time>2019-07-07T08:17:57.833Z</time>
      </trkpt>
      <trkpt lat="42.88824" lon="0.04614833">
        <ele>1064.0</ele>
        <time>2019-07-07T08:17:58.817Z</time>
      </trkpt>
      <trkpt lat="42.88799333" lon="0.046">
        <ele>1062.0</ele>
        <time>2019-07-07T08:17:59.825Z</time>
      </trkpt>
      <trkpt lat="42.88799333" lon="0.046">
        <ele>1062.0</ele>
        <time>2019-07-07T08:18:00.807Z</time>
      </trkpt>
      <trkpt lat="42.88776667" lon="0.04579833">
        <ele>1061.0</ele>
        <time>2019-07-07T08:18:01.809Z</time>
      </trkpt>
      <trkpt lat="42.88776667" lon="0.04579833">
        <ele>1061.0</ele>
        <time>2019-07-07T08:18:02.836Z</time>
      </trkpt>
      <trkpt lat="42.887545" lon="0.045575">
        <ele>1059.0</ele>
        <time>2019-07-07T08:18:03.807Z</time>
      </trkpt>
      <trkpt lat="42.887435" lon="0.04546167">
        <ele>1058.0</ele>
        <time>2019-07-07T08:18:04.806Z</time>
      </trkpt>
      <trkpt lat="42.887435" lon="0.04546167">
        <ele>1058.0</ele>
        <time>2019-07-07T08:18:05.819Z</time>
      </trkpt>
      <trkpt lat="42.88721667" lon="0.04524">
        <ele>1056.0</ele>
        <time>2019-07-07T08:18:06.826Z</time>
      </trkpt>
      <trkpt lat="42.88721667" lon="0.04524">
        <ele>1056.0</ele>
        <time>2019-07-07T08:18:07.838Z</time>
      </trkpt>
      <trkpt lat="42.88699667" lon="0.04504333">
        <ele>1054.0</ele>
        <time>2019-07-07T08:18:08.817Z</time>
      </trkpt>
      <trkpt lat="42.88699667" lon="0.04504333">
        <ele>1054.0</ele>
        <time>2019-07-07T08:18:09.840Z</time>
      </trkpt>
      <trkpt lat="42.88676" lon="0.044855">
        <ele>1052.0</ele>
        <time>2019-07-07T08:18:10.813Z</time>
      </trkpt>
      <trkpt lat="42.88676" lon="0.044855">
        <ele>1052.0</ele>
        <time>2019-07-07T08:18:11.824Z</time>
      </trkpt>
      <trkpt lat="42.88652333" lon="0.04465833">
        <ele>1049.0</ele>
        <time>2019-07-07T08:18:12.820Z</time>
      </trkpt>
      <trkpt lat="42.88652333" lon="0.04465833">
        <ele>1049.0</ele>
        <time>2019-07-07T08:18:13.801Z</time>
      </trkpt>
      <trkpt lat="42.88629833" lon="0.04445833">
        <ele>1047.0</ele>
        <time>2019-07-07T08:18:14.808Z</time>
      </trkpt>
      <trkpt lat="42.88629833" lon="0.04445833">
        <ele>1047.0</ele>
        <time>2019-07-07T08:18:15.803Z</time>
      </trkpt>
      <trkpt lat="42.886095" lon="0.04424333">
        <ele>1045.0</ele>
        <time>2019-07-07T08:18:16.805Z</time>
      </trkpt>
      <trkpt lat="42.88599833" lon="0.04413333">
        <ele>1044.0</ele>
        <time>2019-07-07T08:18:17.807Z</time>
      </trkpt>
      <trkpt lat="42.88599833" lon="0.04413333">
        <ele>1044.0</ele>
        <time>2019-07-07T08:18:18.817Z</time>
      </trkpt>
      <trkpt lat="42.88582667" lon="0.04391833">
        <ele>1042.0</ele>
        <time>2019-07-07T08:18:19.832Z</time>
      </trkpt>
      <trkpt lat="42.88582667" lon="0.04391833">
        <ele>1042.0</ele>
        <time>2019-07-07T08:18:20.823Z</time>
      </trkpt>
      <trkpt lat="42.88567" lon="0.04369667">
        <ele>1040.0</ele>
        <time>2019-07-07T08:18:21.829Z</time>
      </trkpt>
      <trkpt lat="42.88559333" lon="0.04357833">
        <ele>1039.0</ele>
        <time>2019-07-07T08:18:22.815Z</time>
      </trkpt>
      <trkpt lat="42.88559333" lon="0.04357833">
        <ele>1039.0</ele>
        <time>2019-07-07T08:18:23.840Z</time>
      </trkpt>
      <trkpt lat="42.88544667" lon="0.04332333">
        <ele>1037.0</ele>
        <time>2019-07-07T08:18:24.811Z</time>
      </trkpt>
      <trkpt lat="42.88544667" lon="0.04332333">
        <ele>1037.0</ele>
        <time>2019-07-07T08:18:25.803Z</time>
      </trkpt>
      <trkpt lat="42.88530833" lon="0.04305333">
        <ele>1035.0</ele>
        <time>2019-07-07T08:18:26.817Z</time>
      </trkpt>
      <trkpt lat="42.88530833" lon="0.04305333">
        <ele>1035.0</ele>
        <time>2019-07-07T08:18:27.802Z</time>
      </trkpt>
      <trkpt lat="42.88515" lon="0.04278833">
        <ele>1033.0</ele>
        <time>2019-07-07T08:18:28.809Z</time>
      </trkpt>
      <trkpt lat="42.88515" lon="0.04278833">
        <ele>1033.0</ele>
        <time>2019-07-07T08:18:29.803Z</time>
      </trkpt>
      <trkpt lat="42.88496" lon="0.04254833">
        <ele>1031.0</ele>
        <time>2019-07-07T08:18:30.833Z</time>
      </trkpt>
      <trkpt lat="42.88496" lon="0.04254833">
        <ele>1031.0</ele>
        <time>2019-07-07T08:18:31.825Z</time>
      </trkpt>
      <trkpt lat="42.88475667" lon="0.042315">
        <ele>1029.0</ele>
        <time>2019-07-07T08:18:32.831Z</time>
      </trkpt>
      <trkpt lat="42.88475667" lon="0.042315">
        <ele>1029.0</ele>
        <time>2019-07-07T08:18:33.815Z</time>
      </trkpt>
      <trkpt lat="42.88455333" lon="0.04207">
        <ele>1026.0</ele>
        <time>2019-07-07T08:18:34.815Z</time>
      </trkpt>
      <trkpt lat="42.88455333" lon="0.04207">
        <ele>1026.0</ele>
        <time>2019-07-07T08:18:35.801Z</time>
      </trkpt>
      <trkpt lat="42.88435833" lon="0.04180333">
        <ele>1024.0</ele>
        <time>2019-07-07T08:18:36.809Z</time>
      </trkpt>
      <trkpt lat="42.88426" lon="0.04166833">
        <ele>1023.0</ele>
        <time>2019-07-07T08:18:37.837Z</time>
      </trkpt>
      <trkpt lat="42.88426" lon="0.04166833">
        <ele>1023.0</ele>
        <time>2019-07-07T08:18:38.818Z</time>
      </trkpt>
      <trkpt lat="42.88406833" lon="0.0414">
        <ele>1022.0</ele>
        <time>2019-07-07T08:18:39.825Z</time>
      </trkpt>
      <trkpt lat="42.88397333" lon="0.04127">
        <ele>1021.0</ele>
        <time>2019-07-07T08:18:40.828Z</time>
      </trkpt>
      <trkpt lat="42.88397333" lon="0.04127">
        <ele>1021.0</ele>
        <time>2019-07-07T08:18:41.812Z</time>
      </trkpt>
      <trkpt lat="42.88378667" lon="0.04100833">
        <ele>1019.0</ele>
        <time>2019-07-07T08:18:42.820Z</time>
      </trkpt>
      <trkpt lat="42.88378667" lon="0.04100833">
        <ele>1019.0</ele>
        <time>2019-07-07T08:18:43.802Z</time>
      </trkpt>
      <trkpt lat="42.88360667" lon="0.040755">
        <ele>1017.0</ele>
        <time>2019-07-07T08:18:44.806Z</time>
      </trkpt>
      <trkpt lat="42.88360667" lon="0.040755">
        <ele>1017.0</ele>
        <time>2019-07-07T08:18:45.823Z</time>
      </trkpt>
      <trkpt lat="42.883435" lon="0.04051833">
        <ele>1015.0</ele>
        <time>2019-07-07T08:18:46.832Z</time>
      </trkpt>
      <trkpt lat="42.88335167" lon="0.04039667">
        <ele>1014.0</ele>
        <time>2019-07-07T08:18:47.825Z</time>
      </trkpt>
      <trkpt lat="42.88335167" lon="0.04039667">
        <ele>1014.0</ele>
        <time>2019-07-07T08:18:48.801Z</time>
      </trkpt>
      <trkpt lat="42.88319333" lon="0.040165">
        <ele>1012.0</ele>
        <time>2019-07-07T08:18:49.810Z</time>
      </trkpt>
      <trkpt lat="42.88312" lon="0.04006167">
        <ele>1011.0</ele>
        <time>2019-07-07T08:18:50.833Z</time>
      </trkpt>
      <trkpt lat="42.88312" lon="0.04006167">
        <ele>1011.0</ele>
        <time>2019-07-07T08:18:51.822Z</time>
      </trkpt>
      <trkpt lat="42.88296667" lon="0.03990167">
        <ele>1009.0</ele>
        <time>2019-07-07T08:18:52.810Z</time>
      </trkpt>
      <trkpt lat="42.88296667" lon="0.03990167">
        <ele>1009.0</ele>
        <time>2019-07-07T08:18:53.809Z</time>
      </trkpt>
      <trkpt lat="42.882805" lon="0.03982167">
        <ele>1007.0</ele>
        <time>2019-07-07T08:18:54.843Z</time>
      </trkpt>
      <trkpt lat="42.882725" lon="0.03980333">
        <ele>1006.0</ele>
        <time>2019-07-07T08:18:55.838Z</time>
      </trkpt>
      <trkpt lat="42.882725" lon="0.03980333">
        <ele>1006.0</ele>
        <time>2019-07-07T08:18:56.821Z</time>
      </trkpt>
      <trkpt lat="42.88259333" lon="0.03975">
        <ele>1005.0</ele>
        <time>2019-07-07T08:18:57.803Z</time>
      </trkpt>
      <trkpt lat="42.882545" lon="0.03969">
        <ele>1004.0</ele>
        <time>2019-07-07T08:18:58.820Z</time>
      </trkpt>
      <trkpt lat="42.882545" lon="0.03969">
        <ele>1004.0</ele>
        <time>2019-07-07T08:18:59.802Z</time>
      </trkpt>
      <trkpt lat="42.88253667" lon="0.03954333">
        <ele>1002.0</ele>
        <time>2019-07-07T08:19:00.810Z</time>
      </trkpt>
      <trkpt lat="42.88253667" lon="0.03954333">
        <ele>1002.0</ele>
        <time>2019-07-07T08:19:01.828Z</time>
      </trkpt>
      <trkpt lat="42.88266167" lon="0.03948667">
        <ele>1000.0</ele>
        <time>2019-07-07T08:19:02.837Z</time>
      </trkpt>
      <trkpt lat="42.882735" lon="0.039505">
        <ele>999.0</ele>
        <time>2019-07-07T08:19:03.812Z</time>
      </trkpt>
      <trkpt lat="42.88281167" lon="0.03955">
        <ele>998.0</ele>
        <time>2019-07-07T08:19:04.801Z</time>
      </trkpt>
      <trkpt lat="42.88281167" lon="0.03955">
        <ele>998.0</ele>
        <time>2019-07-07T08:19:05.808Z</time>
      </trkpt>
      <trkpt lat="42.88296667" lon="0.03965833">
        <ele>996.0</ele>
        <time>2019-07-07T08:19:06.821Z</time>
      </trkpt>
      <trkpt lat="42.88296667" lon="0.03965833">
        <ele>996.0</ele>
        <time>2019-07-07T08:19:07.806Z</time>
      </trkpt>
      <trkpt lat="42.88312" lon="0.03978833">
        <ele>995.0</ele>
        <time>2019-07-07T08:19:08.821Z</time>
      </trkpt>
      <trkpt lat="42.88312" lon="0.03978833">
        <ele>995.0</ele>
        <time>2019-07-07T08:19:09.817Z</time>
      </trkpt>
      <trkpt lat="42.88326" lon="0.03997">
        <ele>993.0</ele>
        <time>2019-07-07T08:19:10.824Z</time>
      </trkpt>
      <trkpt lat="42.88326" lon="0.03997">
        <ele>993.0</ele>
        <time>2019-07-07T08:19:11.803Z</time>
      </trkpt>
      <trkpt lat="42.88337667" lon="0.04017167">
        <ele>991.0</ele>
        <time>2019-07-07T08:19:12.831Z</time>
      </trkpt>
      <trkpt lat="42.88337667" lon="0.04017167">
        <ele>991.0</ele>
        <time>2019-07-07T08:19:13.829Z</time>
      </trkpt>
      <trkpt lat="42.88350667" lon="0.04033167">
        <ele>990.0</ele>
        <time>2019-07-07T08:19:14.802Z</time>
      </trkpt>
      <trkpt lat="42.88350667" lon="0.04033167">
        <ele>990.0</ele>
        <time>2019-07-07T08:19:15.823Z</time>
      </trkpt>
      <trkpt lat="42.88360167" lon="0.04036333">
        <ele>988.0</ele>
        <time>2019-07-07T08:19:16.814Z</time>
      </trkpt>
      <trkpt lat="42.88365833" lon="0.04031167">
        <ele>987.0</ele>
        <time>2019-07-07T08:19:17.816Z</time>
      </trkpt>
      <trkpt lat="42.88365833" lon="0.04031167">
        <ele>987.0</ele>
        <time>2019-07-07T08:19:18.830Z</time>
      </trkpt>
      <trkpt lat="42.883715" lon="0.040125">
        <ele>986.0</ele>
        <time>2019-07-07T08:19:19.833Z</time>
      </trkpt>
      <trkpt lat="42.88370333" lon="0.04001667">
        <ele>985.0</ele>
        <time>2019-07-07T08:19:20.814Z</time>
      </trkpt>
      <trkpt lat="42.88370333" lon="0.04001667">
        <ele>985.0</ele>
        <time>2019-07-07T08:19:21.840Z</time>
      </trkpt>
      <trkpt lat="42.883635" lon="0.0398">
        <ele>984.0</ele>
        <time>2019-07-07T08:19:22.822Z</time>
      </trkpt>
      <trkpt lat="42.883635" lon="0.0398">
        <ele>984.0</ele>
        <time>2019-07-07T08:19:23.837Z</time>
      </trkpt>
      <trkpt lat="42.88355333" lon="0.03957">
        <ele>982.0</ele>
        <time>2019-07-07T08:19:24.808Z</time>
      </trkpt>
      <trkpt lat="42.88355333" lon="0.03957">
        <ele>982.0</ele>
        <time>2019-07-07T08:19:25.814Z</time>
      </trkpt>
      <trkpt lat="42.883455" lon="0.03931833">
        <ele>981.0</ele>
        <time>2019-07-07T08:19:26.818Z</time>
      </trkpt>
      <trkpt lat="42.883455" lon="0.03931833">
        <ele>981.0</ele>
        <time>2019-07-07T08:19:27.802Z</time>
      </trkpt>
      <trkpt lat="42.88335167" lon="0.03905333">
        <ele>980.0</ele>
        <time>2019-07-07T08:19:28.811Z</time>
      </trkpt>
      <trkpt lat="42.88335167" lon="0.03905333">
        <ele>980.0</ele>
        <time>2019-07-07T08:19:29.801Z</time>
      </trkpt>
      <trkpt lat="42.88325" lon="0.03879">
        <ele>978.0</ele>
        <time>2019-07-07T08:19:30.817Z</time>
      </trkpt>
      <trkpt lat="42.88325" lon="0.03879">
        <ele>978.0</ele>
        <time>2019-07-07T08:19:31.840Z</time>
      </trkpt>
      <trkpt lat="42.883145" lon="0.03852">
        <ele>977.0</ele>
        <time>2019-07-07T08:19:32.807Z</time>
      </trkpt>
      <trkpt lat="42.883145" lon="0.03852">
        <ele>977.0</ele>
        <time>2019-07-07T08:19:33.829Z</time>
      </trkpt>
      <trkpt lat="42.88304167" lon="0.03825167">
        <ele>975.0</ele>
        <time>2019-07-07T08:19:34.832Z</time>
      </trkpt>
      <trkpt lat="42.88304167" lon="0.03825167">
        <ele>975.0</ele>
        <time>2019-07-07T08:19:35.809Z</time>
      </trkpt>
      <trkpt lat="42.882945" lon="0.03799333">
        <ele>974.0</ele>
        <time>2019-07-07T08:19:36.820Z</time>
      </trkpt>
      <trkpt lat="42.882945" lon="0.03799333">
        <ele>974.0</ele>
        <time>2019-07-07T08:19:37.804Z</time>
      </trkpt>
      <trkpt lat="42.88286" lon="0.037745">
        <ele>972.0</ele>
        <time>2019-07-07T08:19:38.831Z</time>
      </trkpt>
      <trkpt lat="42.88286" lon="0.037745">
        <ele>972.0</ele>
        <time>2019-07-07T08:19:39.813Z</time>
      </trkpt>
      <trkpt lat="42.88280333" lon="0.037475">
        <ele>971.0</ele>
        <time>2019-07-07T08:19:40.819Z</time>
      </trkpt>
      <trkpt lat="42.882775" lon="0.03733667">
        <ele>970.0</ele>
        <time>2019-07-07T08:19:41.807Z</time>
      </trkpt>
      <trkpt lat="42.882775" lon="0.03733667">
        <ele>970.0</ele>
        <time>2019-07-07T08:19:42.818Z</time>
      </trkpt>
      <trkpt lat="42.88272" lon="0.03704667">
        <ele>969.0</ele>
        <time>2019-07-07T08:19:43.825Z</time>
      </trkpt>
      <trkpt lat="42.88272" lon="0.03704667">
        <ele>969.0</ele>
        <time>2019-07-07T08:19:44.808Z</time>
      </trkpt>
      <trkpt lat="42.88268167" lon="0.03672833">
        <ele>967.0</ele>
        <time>2019-07-07T08:19:45.816Z</time>
      </trkpt>
      <trkpt lat="42.88268167" lon="0.03672833">
        <ele>967.0</ele>
        <time>2019-07-07T08:19:46.827Z</time>
      </trkpt>
      <trkpt lat="42.88267333" lon="0.03637667">
        <ele>966.0</ele>
        <time>2019-07-07T08:19:47.825Z</time>
      </trkpt>
      <trkpt lat="42.88267333" lon="0.03637667">
        <ele>966.0</ele>
        <time>2019-07-07T08:19:48.812Z</time>
      </trkpt>
      <trkpt lat="42.88267167" lon="0.036">
        <ele>964.0</ele>
        <time>2019-07-07T08:19:49.819Z</time>
      </trkpt>
      <trkpt lat="42.88267167" lon="0.036">
        <ele>964.0</ele>
        <time>2019-07-07T08:19:50.801Z</time>
      </trkpt>
      <trkpt lat="42.88269167" lon="0.03560667">
        <ele>961.0</ele>
        <time>2019-07-07T08:19:51.838Z</time>
      </trkpt>
      <trkpt lat="42.88269167" lon="0.03560667">
        <ele>961.0</ele>
        <time>2019-07-07T08:19:52.809Z</time>
      </trkpt>
      <trkpt lat="42.88275" lon="0.03521833">
        <ele>959.0</ele>
        <time>2019-07-07T08:19:53.816Z</time>
      </trkpt>
      <trkpt lat="42.88280333" lon="0.03502667">
        <ele>958.0</ele>
        <time>2019-07-07T08:19:54.815Z</time>
      </trkpt>
      <trkpt lat="42.88280333" lon="0.03502667">
        <ele>958.0</ele>
        <time>2019-07-07T08:19:55.839Z</time>
      </trkpt>
      <trkpt lat="42.88292" lon="0.03464333">
        <ele>956.0</ele>
        <time>2019-07-07T08:19:56.806Z</time>
      </trkpt>
      <trkpt lat="42.88295667" lon="0.03444167">
        <ele>955.0</ele>
        <time>2019-07-07T08:19:57.803Z</time>
      </trkpt>
      <trkpt lat="42.88295667" lon="0.03444167">
        <ele>955.0</ele>
        <time>2019-07-07T08:19:58.803Z</time>
      </trkpt>
      <trkpt lat="42.88300333" lon="0.03402333">
        <ele>952.0</ele>
        <time>2019-07-07T08:19:59.812Z</time>
      </trkpt>
      <trkpt lat="42.88300333" lon="0.03402333">
        <ele>952.0</ele>
        <time>2019-07-07T08:20:00.802Z</time>
      </trkpt>
      <trkpt lat="42.88299" lon="0.03359167">
        <ele>950.0</ele>
        <time>2019-07-07T08:20:01.838Z</time>
      </trkpt>
      <trkpt lat="42.88299" lon="0.03359167">
        <ele>950.0</ele>
        <time>2019-07-07T08:20:02.827Z</time>
      </trkpt>
      <trkpt lat="42.88299333" lon="0.03316">
        <ele>947.0</ele>
        <time>2019-07-07T08:20:03.803Z</time>
      </trkpt>
      <trkpt lat="42.88300667" lon="0.03295">
        <ele>946.0</ele>
        <time>2019-07-07T08:20:04.805Z</time>
      </trkpt>
      <trkpt lat="42.88300667" lon="0.03295">
        <ele>946.0</ele>
        <time>2019-07-07T08:20:05.834Z</time>
      </trkpt>
      <trkpt lat="42.88307" lon="0.03253167">
        <ele>944.0</ele>
        <time>2019-07-07T08:20:06.801Z</time>
      </trkpt>
      <trkpt lat="42.88307" lon="0.03253167">
        <ele>944.0</ele>
        <time>2019-07-07T08:20:07.827Z</time>
      </trkpt>
      <trkpt lat="42.88318" lon="0.03215167">
        <ele>941.0</ele>
        <time>2019-07-07T08:20:08.838Z</time>
      </trkpt>
      <trkpt lat="42.88318" lon="0.03215167">
        <ele>941.0</ele>
        <time>2019-07-07T08:20:09.822Z</time>
      </trkpt>
      <trkpt lat="42.88330667" lon="0.03179167">
        <ele>939.0</ele>
        <time>2019-07-07T08:20:10.837Z</time>
      </trkpt>
      <trkpt lat="42.88330667" lon="0.03179167">
        <ele>939.0</ele>
        <time>2019-07-07T08:20:11.837Z</time>
      </trkpt>
      <trkpt lat="42.88340167" lon="0.03141833">
        <ele>937.0</ele>
        <time>2019-07-07T08:20:12.805Z</time>
      </trkpt>
      <trkpt lat="42.883355" lon="0.031205">
        <ele>935.0</ele>
        <time>2019-07-07T08:20:13.829Z</time>
      </trkpt>
      <trkpt lat="42.883355" lon="0.031205">
        <ele>935.0</ele>
        <time>2019-07-07T08:20:14.819Z</time>
      </trkpt>
      <trkpt lat="42.88323" lon="0.030815">
        <ele>931.0</ele>
        <time>2019-07-07T08:20:15.803Z</time>
      </trkpt>
      <trkpt lat="42.88323" lon="0.030815">
        <ele>931.0</ele>
        <time>2019-07-07T08:20:16.829Z</time>
      </trkpt>
      <trkpt lat="42.88306833" lon="0.030495">
        <ele>928.0</ele>
        <time>2019-07-07T08:20:17.807Z</time>
      </trkpt>
      <trkpt lat="42.88297833" lon="0.03035">
        <ele>926.0</ele>
        <time>2019-07-07T08:20:18.804Z</time>
      </trkpt>
      <trkpt lat="42.88297833" lon="0.03035">
        <ele>926.0</ele>
        <time>2019-07-07T08:20:19.813Z</time>
      </trkpt>
      <trkpt lat="42.88277333" lon="0.030085">
        <ele>923.0</ele>
        <time>2019-07-07T08:20:20.832Z</time>
      </trkpt>
      <trkpt lat="42.882665" lon="0.02995667">
        <ele>922.0</ele>
        <time>2019-07-07T08:20:21.815Z</time>
      </trkpt>
      <trkpt lat="42.882665" lon="0.02995667">
        <ele>922.0</ele>
        <time>2019-07-07T08:20:22.801Z</time>
      </trkpt>
      <trkpt lat="42.88244333" lon="0.02970833">
        <ele>919.0</ele>
        <time>2019-07-07T08:20:23.808Z</time>
      </trkpt>
      <trkpt lat="42.88244333" lon="0.02970833">
        <ele>919.0</ele>
        <time>2019-07-07T08:20:24.824Z</time>
      </trkpt>
      <trkpt lat="42.88221667" lon="0.02945667">
        <ele>916.0</ele>
        <time>2019-07-07T08:20:25.823Z</time>
      </trkpt>
      <trkpt lat="42.88221667" lon="0.02945667">
        <ele>916.0</ele>
        <time>2019-07-07T08:20:26.822Z</time>
      </trkpt>
      <trkpt lat="42.88199167" lon="0.02919667">
        <ele>914.0</ele>
        <time>2019-07-07T08:20:27.829Z</time>
      </trkpt>
      <trkpt lat="42.88187667" lon="0.02907">
        <ele>912.0</ele>
        <time>2019-07-07T08:20:28.841Z</time>
      </trkpt>
      <trkpt lat="42.881765" lon="0.02894167">
        <ele>911.0</ele>
        <time>2019-07-07T08:20:29.840Z</time>
      </trkpt>
      <trkpt lat="42.881765" lon="0.02894167">
        <ele>911.0</ele>
        <time>2019-07-07T08:20:30.822Z</time>
      </trkpt>
      <trkpt lat="42.88154" lon="0.02868333">
        <ele>909.0</ele>
        <time>2019-07-07T08:20:31.815Z</time>
      </trkpt>
      <trkpt lat="42.88142833" lon="0.028555">
        <ele>907.0</ele>
        <time>2019-07-07T08:20:32.801Z</time>
      </trkpt>
      <trkpt lat="42.88142833" lon="0.028555">
        <ele>907.0</ele>
        <time>2019-07-07T08:20:33.806Z</time>
      </trkpt>
      <trkpt lat="42.88121" lon="0.02829833">
        <ele>905.0</ele>
        <time>2019-07-07T08:20:34.832Z</time>
      </trkpt>
      <trkpt lat="42.8811" lon="0.02817167">
        <ele>904.0</ele>
        <time>2019-07-07T08:20:35.831Z</time>
      </trkpt>
      <trkpt lat="42.8811" lon="0.02817167">
        <ele>904.0</ele>
        <time>2019-07-07T08:20:36.801Z</time>
      </trkpt>
      <trkpt lat="42.88088333" lon="0.02792">
        <ele>901.0</ele>
        <time>2019-07-07T08:20:37.823Z</time>
      </trkpt>
      <trkpt lat="42.88077667" lon="0.02779833">
        <ele>900.0</ele>
        <time>2019-07-07T08:20:38.804Z</time>
      </trkpt>
      <trkpt lat="42.88077667" lon="0.02779833">
        <ele>900.0</ele>
        <time>2019-07-07T08:20:39.826Z</time>
      </trkpt>
      <trkpt lat="42.88056167" lon="0.02755667">
        <ele>898.0</ele>
        <time>2019-07-07T08:20:40.817Z</time>
      </trkpt>
      <trkpt lat="42.88056167" lon="0.02755667">
        <ele>898.0</ele>
        <time>2019-07-07T08:20:41.830Z</time>
      </trkpt>
      <trkpt lat="42.88034667" lon="0.02730667">
        <ele>895.0</ele>
        <time>2019-07-07T08:20:42.801Z</time>
      </trkpt>
      <trkpt lat="42.88023667" lon="0.02717833">
        <ele>894.0</ele>
        <time>2019-07-07T08:20:43.835Z</time>
      </trkpt>
      <trkpt lat="42.88023667" lon="0.02717833">
        <ele>894.0</ele>
        <time>2019-07-07T08:20:44.818Z</time>
      </trkpt>
      <trkpt lat="42.880015" lon="0.02692333">
        <ele>892.0</ele>
        <time>2019-07-07T08:20:45.839Z</time>
      </trkpt>
      <trkpt lat="42.87990167" lon="0.02679667">
        <ele>891.0</ele>
        <time>2019-07-07T08:20:46.807Z</time>
      </trkpt>
      <trkpt lat="42.87990167" lon="0.02679667">
        <ele>891.0</ele>
        <time>2019-07-07T08:20:47.810Z</time>
      </trkpt>
      <trkpt lat="42.87968667" lon="0.02653833">
        <ele>889.0</ele>
        <time>2019-07-07T08:20:48.820Z</time>
      </trkpt>
      <trkpt lat="42.87968667" lon="0.02653833">
        <ele>889.0</ele>
        <time>2019-07-07T08:20:49.837Z</time>
      </trkpt>
      <trkpt lat="42.879495" lon="0.02625167">
        <ele>887.0</ele>
        <time>2019-07-07T08:20:50.833Z</time>
      </trkpt>
      <trkpt lat="42.879495" lon="0.02625167">
        <ele>887.0</ele>
        <time>2019-07-07T08:20:51.808Z</time>
      </trkpt>
      <trkpt lat="42.879335" lon="0.025925">
        <ele>885.0</ele>
        <time>2019-07-07T08:20:52.817Z</time>
      </trkpt>
      <trkpt lat="42.879335" lon="0.025925">
        <ele>885.0</ele>
        <time>2019-07-07T08:20:53.806Z</time>
      </trkpt>
      <trkpt lat="42.87921167" lon="0.02556667">
        <ele>883.0</ele>
        <time>2019-07-07T08:20:54.814Z</time>
      </trkpt>
      <trkpt lat="42.87921167" lon="0.02556667">
        <ele>883.0</ele>
        <time>2019-07-07T08:20:55.801Z</time>
      </trkpt>
      <trkpt lat="42.87912" lon="0.02518333">
        <ele>881.0</ele>
        <time>2019-07-07T08:20:56.810Z</time>
      </trkpt>
      <trkpt lat="42.87907833" lon="0.02499">
        <ele>879.0</ele>
        <time>2019-07-07T08:20:57.819Z</time>
      </trkpt>
      <trkpt lat="42.87907833" lon="0.02499">
        <ele>879.0</ele>
        <time>2019-07-07T08:20:58.827Z</time>
      </trkpt>
      <trkpt lat="42.878995" lon="0.02461">
        <ele>877.0</ele>
        <time>2019-07-07T08:20:59.803Z</time>
      </trkpt>
      <trkpt lat="42.878955" lon="0.02442167">
        <ele>876.0</ele>
        <time>2019-07-07T08:21:00.815Z</time>
      </trkpt>
      <trkpt lat="42.878955" lon="0.02442167">
        <ele>876.0</ele>
        <time>2019-07-07T08:21:01.828Z</time>
      </trkpt>
      <trkpt lat="42.87887667" lon="0.02403833">
        <ele>873.0</ele>
        <time>2019-07-07T08:21:02.803Z</time>
      </trkpt>
      <trkpt lat="42.87887667" lon="0.02403833">
        <ele>873.0</ele>
        <time>2019-07-07T08:21:03.818Z</time>
      </trkpt>
      <trkpt lat="42.87879667" lon="0.02365167">
        <ele>871.0</ele>
        <time>2019-07-07T08:21:04.850Z</time>
      </trkpt>
      <trkpt lat="42.87879667" lon="0.02365167">
        <ele>871.0</ele>
        <time>2019-07-07T08:21:05.801Z</time>
      </trkpt>
      <trkpt lat="42.87872333" lon="0.02327">
        <ele>869.0</ele>
        <time>2019-07-07T08:21:06.808Z</time>
      </trkpt>
      <trkpt lat="42.87872333" lon="0.02327">
        <ele>869.0</ele>
        <time>2019-07-07T08:21:07.815Z</time>
      </trkpt>
      <trkpt lat="42.87863667" lon="0.02289833">
        <ele>867.0</ele>
        <time>2019-07-07T08:21:08.816Z</time>
      </trkpt>
      <trkpt lat="42.87863667" lon="0.02289833">
        <ele>867.0</ele>
        <time>2019-07-07T08:21:09.836Z</time>
      </trkpt>
      <trkpt lat="42.87858667" lon="0.02252">
        <ele>865.0</ele>
        <time>2019-07-07T08:21:10.803Z</time>
      </trkpt>
      <trkpt lat="42.87858667" lon="0.02252">
        <ele>865.0</ele>
        <time>2019-07-07T08:21:11.809Z</time>
      </trkpt>
      <trkpt lat="42.87856667" lon="0.02213167">
        <ele>863.0</ele>
        <time>2019-07-07T08:21:12.829Z</time>
      </trkpt>
      <trkpt lat="42.87856667" lon="0.02213167">
        <ele>863.0</ele>
        <time>2019-07-07T08:21:13.837Z</time>
      </trkpt>
      <trkpt lat="42.878555" lon="0.02173833">
        <ele>860.0</ele>
        <time>2019-07-07T08:21:14.804Z</time>
      </trkpt>
      <trkpt lat="42.878555" lon="0.02173833">
        <ele>860.0</ele>
        <time>2019-07-07T08:21:15.803Z</time>
      </trkpt>
      <trkpt lat="42.87854" lon="0.02134667">
        <ele>858.0</ele>
        <time>2019-07-07T08:21:16.824Z</time>
      </trkpt>
      <trkpt lat="42.87854" lon="0.02134667">
        <ele>858.0</ele>
        <time>2019-07-07T08:21:17.830Z</time>
      </trkpt>
      <trkpt lat="42.87853" lon="0.02095333">
        <ele>856.0</ele>
        <time>2019-07-07T08:21:18.802Z</time>
      </trkpt>
      <trkpt lat="42.87852167" lon="0.020765">
        <ele>855.0</ele>
        <time>2019-07-07T08:21:19.833Z</time>
      </trkpt>
      <trkpt lat="42.87851" lon="0.02058667">
        <ele>855.0</ele>
        <time>2019-07-07T08:21:20.810Z</time>
      </trkpt>
      <trkpt lat="42.87851" lon="0.02058667">
        <ele>855.0</ele>
        <time>2019-07-07T08:21:21.831Z</time>
      </trkpt>
      <trkpt lat="42.87849333" lon="0.02027167">
        <ele>853.0</ele>
        <time>2019-07-07T08:21:22.817Z</time>
      </trkpt>
      <trkpt lat="42.87849333" lon="0.02027167">
        <ele>853.0</ele>
        <time>2019-07-07T08:21:23.825Z</time>
      </trkpt>
      <trkpt lat="42.87848333" lon="0.01995833">
        <ele>852.0</ele>
        <time>2019-07-07T08:21:24.831Z</time>
      </trkpt>
      <trkpt lat="42.87847667" lon="0.01979167">
        <ele>851.0</ele>
        <time>2019-07-07T08:21:25.833Z</time>
      </trkpt>
      <trkpt lat="42.87847667" lon="0.01979167">
        <ele>851.0</ele>
        <time>2019-07-07T08:21:26.818Z</time>
      </trkpt>
      <trkpt lat="42.87845833" lon="0.01944667">
        <ele>849.0</ele>
        <time>2019-07-07T08:21:27.826Z</time>
      </trkpt>
      <trkpt lat="42.87844333" lon="0.01927167">
        <ele>848.0</ele>
        <time>2019-07-07T08:21:28.807Z</time>
      </trkpt>
      <trkpt lat="42.87844333" lon="0.01927167">
        <ele>848.0</ele>
        <time>2019-07-07T08:21:29.822Z</time>
      </trkpt>
      <trkpt lat="42.87842167" lon="0.01891">
        <ele>847.0</ele>
        <time>2019-07-07T08:21:30.801Z</time>
      </trkpt>
      <trkpt lat="42.87842167" lon="0.01891">
        <ele>847.0</ele>
        <time>2019-07-07T08:21:31.813Z</time>
      </trkpt>
      <trkpt lat="42.87838333" lon="0.01854833">
        <ele>845.0</ele>
        <time>2019-07-07T08:21:32.821Z</time>
      </trkpt>
      <trkpt lat="42.87838333" lon="0.01854833">
        <ele>845.0</ele>
        <time>2019-07-07T08:21:33.805Z</time>
      </trkpt>
      <trkpt lat="42.87836" lon="0.01818">
        <ele>842.0</ele>
        <time>2019-07-07T08:21:34.830Z</time>
      </trkpt>
      <trkpt lat="42.87836" lon="0.01818">
        <ele>842.0</ele>
        <time>2019-07-07T08:21:35.806Z</time>
      </trkpt>
      <trkpt lat="42.87833833" lon="0.01781333">
        <ele>840.0</ele>
        <time>2019-07-07T08:21:36.813Z</time>
      </trkpt>
      <trkpt lat="42.87832667" lon="0.01763667">
        <ele>839.0</ele>
        <time>2019-07-07T08:21:37.811Z</time>
      </trkpt>
      <trkpt lat="42.87832667" lon="0.01763667">
        <ele>839.0</ele>
        <time>2019-07-07T08:21:38.802Z</time>
      </trkpt>
      <trkpt lat="42.878305" lon="0.01731333">
        <ele>837.0</ele>
        <time>2019-07-07T08:21:39.811Z</time>
      </trkpt>
      <trkpt lat="42.87829333" lon="0.01715333">
        <ele>836.0</ele>
        <time>2019-07-07T08:21:40.816Z</time>
      </trkpt>
      <trkpt lat="42.87829333" lon="0.01715333">
        <ele>836.0</ele>
        <time>2019-07-07T08:21:41.830Z</time>
      </trkpt>
      <trkpt lat="42.87827" lon="0.01683167">
        <ele>834.0</ele>
        <time>2019-07-07T08:21:42.803Z</time>
      </trkpt>
      <trkpt lat="42.87826" lon="0.01667">
        <ele>833.0</ele>
        <time>2019-07-07T08:21:43.803Z</time>
      </trkpt>
      <trkpt lat="42.87826" lon="0.01667">
        <ele>833.0</ele>
        <time>2019-07-07T08:21:44.830Z</time>
      </trkpt>
      <trkpt lat="42.87823667" lon="0.01634833">
        <ele>831.0</ele>
        <time>2019-07-07T08:21:45.804Z</time>
      </trkpt>
      <trkpt lat="42.87822167" lon="0.01619">
        <ele>830.0</ele>
        <time>2019-07-07T08:21:46.803Z</time>
      </trkpt>
      <trkpt lat="42.87822167" lon="0.01619">
        <ele>830.0</ele>
        <time>2019-07-07T08:21:47.813Z</time>
      </trkpt>
      <trkpt lat="42.87819667" lon="0.015875">
        <ele>828.0</ele>
        <time>2019-07-07T08:21:48.827Z</time>
      </trkpt>
      <trkpt lat="42.87819667" lon="0.015875">
        <ele>828.0</ele>
        <time>2019-07-07T08:21:49.809Z</time>
      </trkpt>
      <trkpt lat="42.87817167" lon="0.01556167">
        <ele>826.0</ele>
        <time>2019-07-07T08:21:50.837Z</time>
      </trkpt>
      <trkpt lat="42.87817167" lon="0.01556167">
        <ele>826.0</ele>
        <time>2019-07-07T08:21:51.811Z</time>
      </trkpt>
      <trkpt lat="42.87815" lon="0.01525">
        <ele>824.0</ele>
        <time>2019-07-07T08:21:52.818Z</time>
      </trkpt>
      <trkpt lat="42.87815" lon="0.01525">
        <ele>824.0</ele>
        <time>2019-07-07T08:21:53.804Z</time>
      </trkpt>
      <trkpt lat="42.878135" lon="0.01492833">
        <ele>822.0</ele>
        <time>2019-07-07T08:21:54.817Z</time>
      </trkpt>
      <trkpt lat="42.878135" lon="0.01492833">
        <ele>822.0</ele>
        <time>2019-07-07T08:21:55.801Z</time>
      </trkpt>
      <trkpt lat="42.878135" lon="0.014605">
        <ele>819.0</ele>
        <time>2019-07-07T08:21:56.812Z</time>
      </trkpt>
      <trkpt lat="42.87813833" lon="0.014445">
        <ele>818.0</ele>
        <time>2019-07-07T08:21:57.815Z</time>
      </trkpt>
      <trkpt lat="42.87813833" lon="0.014445">
        <ele>818.0</ele>
        <time>2019-07-07T08:21:58.840Z</time>
      </trkpt>
      <trkpt lat="42.87814167" lon="0.01413333">
        <ele>816.0</ele>
        <time>2019-07-07T08:21:59.841Z</time>
      </trkpt>
      <trkpt lat="42.87814333" lon="0.01397833">
        <ele>815.0</ele>
        <time>2019-07-07T08:22:00.807Z</time>
      </trkpt>
      <trkpt lat="42.87814333" lon="0.01397833">
        <ele>815.0</ele>
        <time>2019-07-07T08:22:01.820Z</time>
      </trkpt>
      <trkpt lat="42.87814167" lon="0.01367167">
        <ele>813.0</ele>
        <time>2019-07-07T08:22:02.803Z</time>
      </trkpt>
      <trkpt lat="42.87814167" lon="0.01367167">
        <ele>813.0</ele>
        <time>2019-07-07T08:22:03.826Z</time>
      </trkpt>
      <trkpt lat="42.87813833" lon="0.01337333">
        <ele>811.0</ele>
        <time>2019-07-07T08:22:04.832Z</time>
      </trkpt>
      <trkpt lat="42.87813833" lon="0.01337333">
        <ele>811.0</ele>
        <time>2019-07-07T08:22:05.820Z</time>
      </trkpt>
      <trkpt lat="42.878115" lon="0.01308167">
        <ele>809.0</ele>
        <time>2019-07-07T08:22:06.820Z</time>
      </trkpt>
      <trkpt lat="42.87809333" lon="0.01293667">
        <ele>808.0</ele>
        <time>2019-07-07T08:22:07.837Z</time>
      </trkpt>
      <trkpt lat="42.87809333" lon="0.01293667">
        <ele>808.0</ele>
        <time>2019-07-07T08:22:08.818Z</time>
      </trkpt>
      <trkpt lat="42.87801833" lon="0.01263833">
        <ele>805.0</ele>
        <time>2019-07-07T08:22:09.831Z</time>
      </trkpt>
      <trkpt lat="42.87797167" lon="0.01249">
        <ele>804.0</ele>
        <time>2019-07-07T08:22:10.803Z</time>
      </trkpt>
      <trkpt lat="42.87797167" lon="0.01249">
        <ele>804.0</ele>
        <time>2019-07-07T08:22:11.824Z</time>
      </trkpt>
      <trkpt lat="42.877865" lon="0.01218333">
        <ele>802.0</ele>
        <time>2019-07-07T08:22:12.804Z</time>
      </trkpt>
      <trkpt lat="42.877865" lon="0.01218333">
        <ele>802.0</ele>
        <time>2019-07-07T08:22:13.821Z</time>
      </trkpt>
      <trkpt lat="42.87775167" lon="0.01186833">
        <ele>799.0</ele>
        <time>2019-07-07T08:22:14.829Z</time>
      </trkpt>
      <trkpt lat="42.87775167" lon="0.01186833">
        <ele>799.0</ele>
        <time>2019-07-07T08:22:15.811Z</time>
      </trkpt>
      <trkpt lat="42.87763167" lon="0.01155">
        <ele>797.0</ele>
        <time>2019-07-07T08:22:16.815Z</time>
      </trkpt>
      <trkpt lat="42.87757" lon="0.01138667">
        <ele>796.0</ele>
        <time>2019-07-07T08:22:17.837Z</time>
      </trkpt>
      <trkpt lat="42.87757" lon="0.01138667">
        <ele>796.0</ele>
        <time>2019-07-07T08:22:18.818Z</time>
      </trkpt>
      <trkpt lat="42.87744833" lon="0.01105">
        <ele>794.0</ele>
        <time>2019-07-07T08:22:19.841Z</time>
      </trkpt>
      <trkpt lat="42.87744833" lon="0.01105">
        <ele>794.0</ele>
        <time>2019-07-07T08:22:20.829Z</time>
      </trkpt>
      <trkpt lat="42.87732333" lon="0.01071">
        <ele>791.0</ele>
        <time>2019-07-07T08:22:21.807Z</time>
      </trkpt>
      <trkpt lat="42.87726333" lon="0.010535">
        <ele>790.0</ele>
        <time>2019-07-07T08:22:22.836Z</time>
      </trkpt>
      <trkpt lat="42.87726333" lon="0.010535">
        <ele>790.0</ele>
        <time>2019-07-07T08:22:23.802Z</time>
      </trkpt>
      <trkpt lat="42.87714333" lon="0.01018">
        <ele>788.0</ele>
        <time>2019-07-07T08:22:24.808Z</time>
      </trkpt>
      <trkpt lat="42.87714333" lon="0.01018">
        <ele>788.0</ele>
        <time>2019-07-07T08:22:25.802Z</time>
      </trkpt>
      <trkpt lat="42.87703" lon="0.00982167">
        <ele>785.0</ele>
        <time>2019-07-07T08:22:26.835Z</time>
      </trkpt>
      <trkpt lat="42.876975" lon="0.00964667">
        <ele>784.0</ele>
        <time>2019-07-07T08:22:27.820Z</time>
      </trkpt>
      <trkpt lat="42.876975" lon="0.00964667">
        <ele>784.0</ele>
        <time>2019-07-07T08:22:28.805Z</time>
      </trkpt>
      <trkpt lat="42.876865" lon="0.00929667">
        <ele>782.0</ele>
        <time>2019-07-07T08:22:29.826Z</time>
      </trkpt>
      <trkpt lat="42.87680833" lon="0.00912333">
        <ele>781.0</ele>
        <time>2019-07-07T08:22:30.810Z</time>
      </trkpt>
      <trkpt lat="42.87680833" lon="0.00912333">
        <ele>781.0</ele>
        <time>2019-07-07T08:22:31.821Z</time>
      </trkpt>
      <trkpt lat="42.87666167" lon="0.00880167">
        <ele>779.0</ele>
        <time>2019-07-07T08:22:32.833Z</time>
      </trkpt>
      <trkpt lat="42.87666167" lon="0.00880167">
        <ele>779.0</ele>
        <time>2019-07-07T08:22:33.828Z</time>
      </trkpt>
      <trkpt lat="42.87649833" lon="0.00851833">
        <ele>777.0</ele>
        <time>2019-07-07T08:22:34.812Z</time>
      </trkpt>
      <trkpt lat="42.87649833" lon="0.00851833">
        <ele>777.0</ele>
        <time>2019-07-07T08:22:35.837Z</time>
      </trkpt>
      <trkpt lat="42.87631833" lon="0.00826">
        <ele>776.0</ele>
        <time>2019-07-07T08:22:36.817Z</time>
      </trkpt>
      <trkpt lat="42.87631833" lon="0.00826">
        <ele>776.0</ele>
        <time>2019-07-07T08:22:37.804Z</time>
      </trkpt>
      <trkpt lat="42.876135" lon="0.00801">
        <ele>774.0</ele>
        <time>2019-07-07T08:22:38.813Z</time>
      </trkpt>
      <trkpt lat="42.876135" lon="0.00801">
        <ele>774.0</ele>
        <time>2019-07-07T08:22:39.828Z</time>
      </trkpt>
      <trkpt lat="42.87595667" lon="0.00776333">
        <ele>773.0</ele>
        <time>2019-07-07T08:22:40.831Z</time>
      </trkpt>
      <trkpt lat="42.87595667" lon="0.00776333">
        <ele>773.0</ele>
        <time>2019-07-07T08:22:41.801Z</time>
      </trkpt>
      <trkpt lat="42.875795" lon="0.00751167">
        <ele>772.0</ele>
        <time>2019-07-07T08:22:42.813Z</time>
      </trkpt>
      <trkpt lat="42.875795" lon="0.00751167">
        <ele>772.0</ele>
        <time>2019-07-07T08:22:43.840Z</time>
      </trkpt>
      <trkpt lat="42.875625" lon="0.007275">
        <ele>770.0</ele>
        <time>2019-07-07T08:22:44.825Z</time>
      </trkpt>
      <trkpt lat="42.875625" lon="0.007275">
        <ele>770.0</ele>
        <time>2019-07-07T08:22:45.801Z</time>
      </trkpt>
      <trkpt lat="42.87546833" lon="0.00704833">
        <ele>768.0</ele>
        <time>2019-07-07T08:22:46.819Z</time>
      </trkpt>
      <trkpt lat="42.87546833" lon="0.00704833">
        <ele>768.0</ele>
        <time>2019-07-07T08:22:47.837Z</time>
      </trkpt>
      <trkpt lat="42.87532167" lon="0.00683667">
        <ele>766.0</ele>
        <time>2019-07-07T08:22:48.811Z</time>
      </trkpt>
      <trkpt lat="42.87525667" lon="0.00674667">
        <ele>766.0</ele>
        <time>2019-07-07T08:22:49.838Z</time>
      </trkpt>
      <trkpt lat="42.87525667" lon="0.00674667">
        <ele>766.0</ele>
        <time>2019-07-07T08:22:50.821Z</time>
      </trkpt>
      <trkpt lat="42.87514833" lon="0.00659">
        <ele>766.0</ele>
        <time>2019-07-07T08:22:51.833Z</time>
      </trkpt>
      <trkpt lat="42.87510667" lon="0.00652333">
        <ele>766.0</ele>
        <time>2019-07-07T08:22:52.821Z</time>
      </trkpt>
      <trkpt lat="42.87510667" lon="0.00652333">
        <ele>766.0</ele>
        <time>2019-07-07T08:22:53.816Z</time>
      </trkpt>
      <trkpt lat="42.875025" lon="0.00639">
        <ele>765.0</ele>
        <time>2019-07-07T08:22:54.823Z</time>
      </trkpt>
      <trkpt lat="42.875025" lon="0.00639">
        <ele>765.0</ele>
        <time>2019-07-07T08:22:55.829Z</time>
      </trkpt>
      <trkpt lat="42.874925" lon="0.00626">
        <ele>764.0</ele>
        <time>2019-07-07T08:22:56.812Z</time>
      </trkpt>
      <trkpt lat="42.87487833" lon="0.00619167">
        <ele>764.0</ele>
        <time>2019-07-07T08:22:57.839Z</time>
      </trkpt>
      <trkpt lat="42.87487833" lon="0.00619167">
        <ele>764.0</ele>
        <time>2019-07-07T08:22:58.824Z</time>
      </trkpt>
      <trkpt lat="42.874785" lon="0.00605">
        <ele>763.0</ele>
        <time>2019-07-07T08:22:59.833Z</time>
      </trkpt>
      <trkpt lat="42.874785" lon="0.00605">
        <ele>763.0</ele>
        <time>2019-07-07T08:23:00.818Z</time>
      </trkpt>
      <trkpt lat="42.87469167" lon="0.00591167">
        <ele>763.0</ele>
        <time>2019-07-07T08:23:01.824Z</time>
      </trkpt>
      <trkpt lat="42.87464167" lon="0.00583833">
        <ele>762.0</ele>
        <time>2019-07-07T08:23:02.814Z</time>
      </trkpt>
      <trkpt lat="42.87464167" lon="0.00583833">
        <ele>762.0</ele>
        <time>2019-07-07T08:23:03.824Z</time>
      </trkpt>
      <trkpt lat="42.87453833" lon="0.005685">
        <ele>762.0</ele>
        <time>2019-07-07T08:23:04.831Z</time>
      </trkpt>
      <trkpt lat="42.87453833" lon="0.005685">
        <ele>762.0</ele>
        <time>2019-07-07T08:23:05.803Z</time>
      </trkpt>
      <trkpt lat="42.874435" lon="0.005535">
        <ele>761.0</ele>
        <time>2019-07-07T08:23:06.806Z</time>
      </trkpt>
      <trkpt lat="42.874435" lon="0.005535">
        <ele>761.0</ele>
        <time>2019-07-07T08:23:07.830Z</time>
      </trkpt>
      <trkpt lat="42.87432667" lon="0.00537667">
        <ele>760.0</ele>
        <time>2019-07-07T08:23:08.803Z</time>
      </trkpt>
      <trkpt lat="42.87432667" lon="0.00537667">
        <ele>760.0</ele>
        <time>2019-07-07T08:23:09.828Z</time>
      </trkpt>
      <trkpt lat="42.87422167" lon="0.00521">
        <ele>759.0</ele>
        <time>2019-07-07T08:23:10.834Z</time>
      </trkpt>
      <trkpt lat="42.87422167" lon="0.00521">
        <ele>759.0</ele>
        <time>2019-07-07T08:23:11.818Z</time>
      </trkpt>
      <trkpt lat="42.87412833" lon="0.00503">
        <ele>759.0</ele>
        <time>2019-07-07T08:23:12.808Z</time>
      </trkpt>
      <trkpt lat="42.87412833" lon="0.00503">
        <ele>759.0</ele>
        <time>2019-07-07T08:23:13.822Z</time>
      </trkpt>
      <trkpt lat="42.87405833" lon="0.00482">
        <ele>758.0</ele>
        <time>2019-07-07T08:23:14.829Z</time>
      </trkpt>
      <trkpt lat="42.87402667" lon="0.00470667">
        <ele>757.0</ele>
        <time>2019-07-07T08:23:15.824Z</time>
      </trkpt>
      <trkpt lat="42.87402667" lon="0.00470667">
        <ele>757.0</ele>
        <time>2019-07-07T08:23:16.803Z</time>
      </trkpt>
      <trkpt lat="42.87395833" lon="0.004465">
        <ele>756.0</ele>
        <time>2019-07-07T08:23:17.810Z</time>
      </trkpt>
      <trkpt lat="42.87392167" lon="0.00434333">
        <ele>756.0</ele>
        <time>2019-07-07T08:23:18.836Z</time>
      </trkpt>
      <trkpt lat="42.87392167" lon="0.00434333">
        <ele>756.0</ele>
        <time>2019-07-07T08:23:19.807Z</time>
      </trkpt>
      <trkpt lat="42.87385167" lon="0.00408833">
        <ele>754.0</ele>
        <time>2019-07-07T08:23:20.824Z</time>
      </trkpt>
      <trkpt lat="42.87385167" lon="0.00408833">
        <ele>754.0</ele>
        <time>2019-07-07T08:23:21.807Z</time>
      </trkpt>
      <trkpt lat="42.87378333" lon="0.00382833">
        <ele>753.0</ele>
        <time>2019-07-07T08:23:22.814Z</time>
      </trkpt>
      <trkpt lat="42.87374667" lon="0.00369167">
        <ele>753.0</ele>
        <time>2019-07-07T08:23:23.811Z</time>
      </trkpt>
      <trkpt lat="42.87374667" lon="0.00369167">
        <ele>753.0</ele>
        <time>2019-07-07T08:23:24.826Z</time>
      </trkpt>
      <trkpt lat="42.87366667" lon="0.00342333">
        <ele>752.0</ele>
        <time>2019-07-07T08:23:25.843Z</time>
      </trkpt>
      <trkpt lat="42.87366667" lon="0.00342333">
        <ele>752.0</ele>
        <time>2019-07-07T08:23:26.815Z</time>
      </trkpt>
      <trkpt lat="42.87359667" lon="0.00315333">
        <ele>751.0</ele>
        <time>2019-07-07T08:23:27.823Z</time>
      </trkpt>
      <trkpt lat="42.87359667" lon="0.00315333">
        <ele>751.0</ele>
        <time>2019-07-07T08:23:28.829Z</time>
      </trkpt>
      <trkpt lat="42.873525" lon="0.00289167">
        <ele>750.0</ele>
        <time>2019-07-07T08:23:29.831Z</time>
      </trkpt>
      <trkpt lat="42.87348667" lon="0.00275667">
        <ele>750.0</ele>
        <time>2019-07-07T08:23:30.812Z</time>
      </trkpt>
      <trkpt lat="42.87348667" lon="0.00275667">
        <ele>750.0</ele>
        <time>2019-07-07T08:23:31.826Z</time>
      </trkpt>
      <trkpt lat="42.873415" lon="0.002485">
        <ele>749.0</ele>
        <time>2019-07-07T08:23:32.833Z</time>
      </trkpt>
      <trkpt lat="42.873415" lon="0.002485">
        <ele>749.0</ele>
        <time>2019-07-07T08:23:33.828Z</time>
      </trkpt>
      <trkpt lat="42.87334167" lon="0.00221833">
        <ele>748.0</ele>
        <time>2019-07-07T08:23:34.835Z</time>
      </trkpt>
      <trkpt lat="42.87334167" lon="0.00221833">
        <ele>748.0</ele>
        <time>2019-07-07T08:23:35.816Z</time>
      </trkpt>
      <trkpt lat="42.87327667" lon="0.00196333">
        <ele>748.0</ele>
        <time>2019-07-07T08:23:36.805Z</time>
      </trkpt>
      <trkpt lat="42.87324333" lon="0.00184">
        <ele>748.0</ele>
        <time>2019-07-07T08:23:37.827Z</time>
      </trkpt>
      <trkpt lat="42.87324333" lon="0.00184">
        <ele>748.0</ele>
        <time>2019-07-07T08:23:38.809Z</time>
      </trkpt>
      <trkpt lat="42.87317833" lon="0.0016">
        <ele>747.0</ele>
        <time>2019-07-07T08:23:39.820Z</time>
      </trkpt>
      <trkpt lat="42.87314833" lon="0.00148333">
        <ele>747.0</ele>
        <time>2019-07-07T08:23:40.807Z</time>
      </trkpt>
      <trkpt lat="42.87314833" lon="0.00148333">
        <ele>747.0</ele>
        <time>2019-07-07T08:23:41.816Z</time>
      </trkpt>
      <trkpt lat="42.87309667" lon="0.00124833">
        <ele>747.0</ele>
        <time>2019-07-07T08:23:42.834Z</time>
      </trkpt>
      <trkpt lat="42.87309667" lon="0.00124833">
        <ele>747.0</ele>
        <time>2019-07-07T08:23:43.818Z</time>
      </trkpt>
      <trkpt lat="42.87304167" lon="0.00102333">
        <ele>747.0</ele>
        <time>2019-07-07T08:23:44.814Z</time>
      </trkpt>
      <trkpt lat="42.87304167" lon="0.00102333">
        <ele>747.0</ele>
        <time>2019-07-07T08:23:45.828Z</time>
      </trkpt>
      <trkpt lat="42.87298667" lon="0.000805">
        <ele>746.0</ele>
        <time>2019-07-07T08:23:46.821Z</time>
      </trkpt>
      <trkpt lat="42.87298667" lon="0.000805">
        <ele>746.0</ele>
        <time>2019-07-07T08:23:47.829Z</time>
      </trkpt>
      <trkpt lat="42.87293" lon="0.00059">
        <ele>746.0</ele>
        <time>2019-07-07T08:23:48.801Z</time>
      </trkpt>
      <trkpt lat="42.87293" lon="0.00059">
        <ele>746.0</ele>
        <time>2019-07-07T08:23:49.825Z</time>
      </trkpt>
      <trkpt lat="42.87286833" lon="0.00037">
        <ele>746.0</ele>
        <time>2019-07-07T08:23:50.808Z</time>
      </trkpt>
      <trkpt lat="42.87286833" lon="0.00037">
        <ele>746.0</ele>
        <time>2019-07-07T08:23:51.832Z</time>
      </trkpt>
      <trkpt lat="42.87280333" lon="0.00013667">
        <ele>745.0</ele>
        <time>2019-07-07T08:23:52.806Z</time>
      </trkpt>
      <trkpt lat="42.87280333" lon="0.00013667">
        <ele>745.0</ele>
        <time>2019-07-07T08:23:53.831Z</time>
      </trkpt>
      <trkpt lat="42.87274" lon="-0.00009833">
        <ele>745.0</ele>
        <time>2019-07-07T08:23:54.832Z</time>
      </trkpt>
      <trkpt lat="42.87274" lon="-0.00009833">
        <ele>745.0</ele>
        <time>2019-07-07T08:23:55.838Z</time>
      </trkpt>
      <trkpt lat="42.872665" lon="-0.00034333">
        <ele>744.0</ele>
        <time>2019-07-07T08:23:56.805Z</time>
      </trkpt>
      <trkpt lat="42.87262833" lon="-0.00046667">
        <ele>743.0</ele>
        <time>2019-07-07T08:23:57.831Z</time>
      </trkpt>
      <trkpt lat="42.87262833" lon="-0.00046667">
        <ele>743.0</ele>
        <time>2019-07-07T08:23:58.814Z</time>
      </trkpt>
      <trkpt lat="42.872555" lon="-0.00071333">
        <ele>743.0</ele>
        <time>2019-07-07T08:23:59.820Z</time>
      </trkpt>
      <trkpt lat="42.872555" lon="-0.00071333">
        <ele>743.0</ele>
        <time>2019-07-07T08:24:00.803Z</time>
      </trkpt>
      <trkpt lat="42.872485" lon="-0.000965">
        <ele>742.0</ele>
        <time>2019-07-07T08:24:01.810Z</time>
      </trkpt>
      <trkpt lat="42.872485" lon="-0.000965">
        <ele>742.0</ele>
        <time>2019-07-07T08:24:02.825Z</time>
      </trkpt>
      <trkpt lat="42.87241667" lon="-0.001205">
        <ele>741.0</ele>
        <time>2019-07-07T08:24:03.816Z</time>
      </trkpt>
      <trkpt lat="42.87241667" lon="-0.001205">
        <ele>741.0</ele>
        <time>2019-07-07T08:24:04.801Z</time>
      </trkpt>
      <trkpt lat="42.87235833" lon="-0.001405">
        <ele>741.0</ele>
        <time>2019-07-07T08:24:05.808Z</time>
      </trkpt>
      <trkpt lat="42.87235833" lon="-0.001405">
        <ele>741.0</ele>
        <time>2019-07-07T08:24:06.830Z</time>
      </trkpt>
      <trkpt lat="42.87232333" lon="-0.00155833">
        <ele>740.0</ele>
        <time>2019-07-07T08:24:07.830Z</time>
      </trkpt>
      <trkpt lat="42.87232333" lon="-0.00155833">
        <ele>740.0</ele>
        <time>2019-07-07T08:24:08.815Z</time>
      </trkpt>
      <trkpt lat="42.87228167" lon="-0.00167833">
        <ele>739.0</ele>
        <time>2019-07-07T08:24:09.822Z</time>
      </trkpt>
      <trkpt lat="42.87226333" lon="-0.00172667">
        <ele>739.0</ele>
        <time>2019-07-07T08:24:10.801Z</time>
      </trkpt>
      <trkpt lat="42.87226333" lon="-0.00172667">
        <ele>739.0</ele>
        <time>2019-07-07T08:24:11.824Z</time>
      </trkpt>
      <trkpt lat="42.87227833" lon="-0.00184333">
        <ele>739.0</ele>
        <time>2019-07-07T08:24:12.830Z</time>
      </trkpt>
      <trkpt lat="42.87230667" lon="-0.00190667">
        <ele>739.0</ele>
        <time>2019-07-07T08:24:13.839Z</time>
      </trkpt>
      <trkpt lat="42.87230667" lon="-0.00190667">
        <ele>739.0</ele>
        <time>2019-07-07T08:24:14.821Z</time>
      </trkpt>
      <trkpt lat="42.87239" lon="-0.00205833">
        <ele>738.0</ele>
        <time>2019-07-07T08:24:15.832Z</time>
      </trkpt>
      <trkpt lat="42.87239" lon="-0.00205833">
        <ele>738.0</ele>
        <time>2019-07-07T08:24:16.813Z</time>
      </trkpt>
      <trkpt lat="42.87248667" lon="-0.00223333">
        <ele>738.0</ele>
        <time>2019-07-07T08:24:17.827Z</time>
      </trkpt>
      <trkpt lat="42.87248667" lon="-0.00223333">
        <ele>738.0</ele>
        <time>2019-07-07T08:24:18.812Z</time>
      </trkpt>
      <trkpt lat="42.87258833" lon="-0.00241667">
        <ele>737.0</ele>
        <time>2019-07-07T08:24:19.818Z</time>
      </trkpt>
      <trkpt lat="42.87258833" lon="-0.00241667">
        <ele>737.0</ele>
        <time>2019-07-07T08:24:20.823Z</time>
      </trkpt>
      <trkpt lat="42.87269167" lon="-0.00261">
        <ele>736.0</ele>
        <time>2019-07-07T08:24:21.823Z</time>
      </trkpt>
      <trkpt lat="42.87274333" lon="-0.00270167">
        <ele>736.0</ele>
        <time>2019-07-07T08:24:22.827Z</time>
      </trkpt>
      <trkpt lat="42.87274333" lon="-0.00270167">
        <ele>736.0</ele>
        <time>2019-07-07T08:24:23.808Z</time>
      </trkpt>
      <trkpt lat="42.872835" lon="-0.00285167">
        <ele>735.0</ele>
        <time>2019-07-07T08:24:24.813Z</time>
      </trkpt>
      <trkpt lat="42.872875" lon="-0.00291667">
        <ele>735.0</ele>
        <time>2019-07-07T08:24:25.840Z</time>
      </trkpt>
      <trkpt lat="42.872875" lon="-0.00291667">
        <ele>735.0</ele>
        <time>2019-07-07T08:24:26.807Z</time>
      </trkpt>
      <trkpt lat="42.872945" lon="-0.00303833">
        <ele>734.0</ele>
        <time>2019-07-07T08:24:27.818Z</time>
      </trkpt>
      <trkpt lat="42.872945" lon="-0.00303833">
        <ele>734.0</ele>
        <time>2019-07-07T08:24:28.803Z</time>
      </trkpt>
      <trkpt lat="42.873" lon="-0.00313333">
        <ele>733.0</ele>
        <time>2019-07-07T08:24:29.833Z</time>
      </trkpt>
      <trkpt lat="42.873" lon="-0.00313333">
        <ele>733.0</ele>
        <time>2019-07-07T08:24:30.830Z</time>
      </trkpt>
      <trkpt lat="42.873055" lon="-0.00322167">
        <ele>733.0</ele>
        <time>2019-07-07T08:24:31.807Z</time>
      </trkpt>
      <trkpt lat="42.873055" lon="-0.00322167">
        <ele>733.0</ele>
        <time>2019-07-07T08:24:32.832Z</time>
      </trkpt>
      <trkpt lat="42.873145" lon="-0.00327167">
        <ele>732.0</ele>
        <time>2019-07-07T08:24:33.806Z</time>
      </trkpt>
      <trkpt lat="42.873145" lon="-0.00327167">
        <ele>732.0</ele>
        <time>2019-07-07T08:24:34.833Z</time>
      </trkpt>
      <trkpt lat="42.87324667" lon="-0.0033">
        <ele>732.0</ele>
        <time>2019-07-07T08:24:35.807Z</time>
      </trkpt>
      <trkpt lat="42.87328333" lon="-0.00330667">
        <ele>731.0</ele>
        <time>2019-07-07T08:24:36.820Z</time>
      </trkpt>
      <trkpt lat="42.87331667" lon="-0.0033">
        <ele>731.0</ele>
        <time>2019-07-07T08:24:37.814Z</time>
      </trkpt>
      <trkpt lat="42.87331667" lon="-0.0033">
        <ele>731.0</ele>
        <time>2019-07-07T08:24:38.806Z</time>
      </trkpt>
      <trkpt lat="42.87343" lon="-0.00328">
        <ele>731.0</ele>
        <time>2019-07-07T08:24:39.840Z</time>
      </trkpt>
      <trkpt lat="42.87348833" lon="-0.00326833">
        <ele>731.0</ele>
        <time>2019-07-07T08:24:40.823Z</time>
      </trkpt>
      <trkpt lat="42.87348833" lon="-0.00326833">
        <ele>731.0</ele>
        <time>2019-07-07T08:24:41.803Z</time>
      </trkpt>
      <trkpt lat="42.8736" lon="-0.00326">
        <ele>731.0</ele>
        <time>2019-07-07T08:24:42.834Z</time>
      </trkpt>
      <trkpt lat="42.8736" lon="-0.00326">
        <ele>731.0</ele>
        <time>2019-07-07T08:24:43.816Z</time>
      </trkpt>
      <trkpt lat="42.87373333" lon="-0.00325">
        <ele>732.0</ele>
        <time>2019-07-07T08:24:44.825Z</time>
      </trkpt>
      <trkpt lat="42.87379833" lon="-0.00324">
        <ele>732.0</ele>
        <time>2019-07-07T08:24:45.802Z</time>
      </trkpt>
      <trkpt lat="42.87379833" lon="-0.00324">
        <ele>732.0</ele>
        <time>2019-07-07T08:24:46.826Z</time>
      </trkpt>
      <trkpt lat="42.87392333" lon="-0.00322">
        <ele>732.0</ele>
        <time>2019-07-07T08:24:47.812Z</time>
      </trkpt>
      <trkpt lat="42.87392333" lon="-0.00322">
        <ele>732.0</ele>
        <time>2019-07-07T08:24:48.822Z</time>
      </trkpt>
      <trkpt lat="42.874055" lon="-0.003205">
        <ele>732.0</ele>
        <time>2019-07-07T08:24:49.829Z</time>
      </trkpt>
      <trkpt lat="42.87412" lon="-0.00321167">
        <ele>732.0</ele>
        <time>2019-07-07T08:24:50.819Z</time>
      </trkpt>
      <trkpt lat="42.87412" lon="-0.00321167">
        <ele>732.0</ele>
        <time>2019-07-07T08:24:51.804Z</time>
      </trkpt>
      <trkpt lat="42.87423667" lon="-0.003235">
        <ele>733.0</ele>
        <time>2019-07-07T08:24:52.811Z</time>
      </trkpt>
      <trkpt lat="42.87428833" lon="-0.00327">
        <ele>733.0</ele>
        <time>2019-07-07T08:24:53.808Z</time>
      </trkpt>
      <trkpt lat="42.87428833" lon="-0.00327">
        <ele>733.0</ele>
        <time>2019-07-07T08:24:54.831Z</time>
      </trkpt>
      <trkpt lat="42.874395" lon="-0.00336833">
        <ele>732.0</ele>
        <time>2019-07-07T08:24:55.813Z</time>
      </trkpt>
      <trkpt lat="42.87444333" lon="-0.00342667">
        <ele>732.0</ele>
        <time>2019-07-07T08:24:56.812Z</time>
      </trkpt>
      <trkpt lat="42.87444333" lon="-0.00342667">
        <ele>732.0</ele>
        <time>2019-07-07T08:24:57.817Z</time>
      </trkpt>
      <trkpt lat="42.87454" lon="-0.003555">
        <ele>731.0</ele>
        <time>2019-07-07T08:24:58.823Z</time>
      </trkpt>
      <trkpt lat="42.87454" lon="-0.003555">
        <ele>731.0</ele>
        <time>2019-07-07T08:24:59.812Z</time>
      </trkpt>
      <trkpt lat="42.874635" lon="-0.00369">
        <ele>731.0</ele>
        <time>2019-07-07T08:25:00.831Z</time>
      </trkpt>
      <trkpt lat="42.874635" lon="-0.00369">
        <ele>731.0</ele>
        <time>2019-07-07T08:25:01.806Z</time>
      </trkpt>
      <trkpt lat="42.87474333" lon="-0.00384167">
        <ele>731.0</ele>
        <time>2019-07-07T08:25:02.812Z</time>
      </trkpt>
      <trkpt lat="42.87474333" lon="-0.00384167">
        <ele>731.0</ele>
        <time>2019-07-07T08:25:03.835Z</time>
      </trkpt>
      <trkpt lat="42.87485833" lon="-0.00401">
        <ele>731.0</ele>
        <time>2019-07-07T08:25:04.824Z</time>
      </trkpt>
      <trkpt lat="42.87485833" lon="-0.00401">
        <ele>731.0</ele>
        <time>2019-07-07T08:25:05.808Z</time>
      </trkpt>
      <trkpt lat="42.87497667" lon="-0.00419">
        <ele>730.0</ele>
        <time>2019-07-07T08:25:06.824Z</time>
      </trkpt>
      <trkpt lat="42.875035" lon="-0.004285">
        <ele>730.0</ele>
        <time>2019-07-07T08:25:07.831Z</time>
      </trkpt>
      <trkpt lat="42.875035" lon="-0.004285">
        <ele>730.0</ele>
        <time>2019-07-07T08:25:08.814Z</time>
      </trkpt>
      <trkpt lat="42.875165" lon="-0.00447167">
        <ele>730.0</ele>
        <time>2019-07-07T08:25:09.821Z</time>
      </trkpt>
      <trkpt lat="42.875165" lon="-0.00447167">
        <ele>730.0</ele>
        <time>2019-07-07T08:25:10.805Z</time>
      </trkpt>
      <trkpt lat="42.87529167" lon="-0.00465833">
        <ele>729.0</ele>
        <time>2019-07-07T08:25:11.812Z</time>
      </trkpt>
      <trkpt lat="42.87529167" lon="-0.00465833">
        <ele>729.0</ele>
        <time>2019-07-07T08:25:12.802Z</time>
      </trkpt>
      <trkpt lat="42.87542167" lon="-0.00484167">
        <ele>729.0</ele>
        <time>2019-07-07T08:25:13.828Z</time>
      </trkpt>
      <trkpt lat="42.87548667" lon="-0.004935">
        <ele>728.0</ele>
        <time>2019-07-07T08:25:14.806Z</time>
      </trkpt>
      <trkpt lat="42.87548667" lon="-0.004935">
        <ele>728.0</ele>
        <time>2019-07-07T08:25:15.830Z</time>
      </trkpt>
      <trkpt lat="42.875615" lon="-0.00513">
        <ele>728.0</ele>
        <time>2019-07-07T08:25:16.806Z</time>
      </trkpt>
      <trkpt lat="42.875615" lon="-0.00513">
        <ele>728.0</ele>
        <time>2019-07-07T08:25:17.812Z</time>
      </trkpt>
      <trkpt lat="42.87574333" lon="-0.005315">
        <ele>727.0</ele>
        <time>2019-07-07T08:25:18.819Z</time>
      </trkpt>
      <trkpt lat="42.87574333" lon="-0.005315">
        <ele>727.0</ele>
        <time>2019-07-07T08:25:19.839Z</time>
      </trkpt>
      <trkpt lat="42.87586667" lon="-0.00549667">
        <ele>727.0</ele>
        <time>2019-07-07T08:25:20.824Z</time>
      </trkpt>
      <trkpt lat="42.87586667" lon="-0.00549667">
        <ele>727.0</ele>
        <time>2019-07-07T08:25:21.839Z</time>
      </trkpt>
      <trkpt lat="42.87599667" lon="-0.005685">
        <ele>726.0</ele>
        <time>2019-07-07T08:25:22.840Z</time>
      </trkpt>
      <trkpt lat="42.87599667" lon="-0.005685">
        <ele>726.0</ele>
        <time>2019-07-07T08:25:23.813Z</time>
      </trkpt>
      <trkpt lat="42.876125" lon="-0.005875">
        <ele>725.0</ele>
        <time>2019-07-07T08:25:24.829Z</time>
      </trkpt>
      <trkpt lat="42.87619167" lon="-0.00596667">
        <ele>725.0</ele>
        <time>2019-07-07T08:25:25.816Z</time>
      </trkpt>
      <trkpt lat="42.87619167" lon="-0.00596667">
        <ele>725.0</ele>
        <time>2019-07-07T08:25:26.830Z</time>
      </trkpt>
      <trkpt lat="42.87632167" lon="-0.00616">
        <ele>724.0</ele>
        <time>2019-07-07T08:25:27.837Z</time>
      </trkpt>
      <trkpt lat="42.87632167" lon="-0.00616">
        <ele>724.0</ele>
        <time>2019-07-07T08:25:28.820Z</time>
      </trkpt>
      <trkpt lat="42.87645167" lon="-0.00635167">
        <ele>723.0</ele>
        <time>2019-07-07T08:25:29.819Z</time>
      </trkpt>
      <trkpt lat="42.87645167" lon="-0.00635167">
        <ele>723.0</ele>
        <time>2019-07-07T08:25:30.801Z</time>
      </trkpt>
      <trkpt lat="42.87658333" lon="-0.00654167">
        <ele>722.0</ele>
        <time>2019-07-07T08:25:31.808Z</time>
      </trkpt>
      <trkpt lat="42.87658333" lon="-0.00654167">
        <ele>722.0</ele>
        <time>2019-07-07T08:25:32.815Z</time>
      </trkpt>
      <trkpt lat="42.87671667" lon="-0.00673">
        <ele>721.0</ele>
        <time>2019-07-07T08:25:33.811Z</time>
      </trkpt>
      <trkpt lat="42.87671667" lon="-0.00673">
        <ele>721.0</ele>
        <time>2019-07-07T08:25:34.836Z</time>
      </trkpt>
      <trkpt lat="42.876845" lon="-0.00691333">
        <ele>720.0</ele>
        <time>2019-07-07T08:25:35.817Z</time>
      </trkpt>
      <trkpt lat="42.876845" lon="-0.00691333">
        <ele>720.0</ele>
        <time>2019-07-07T08:25:36.820Z</time>
      </trkpt>
      <trkpt lat="42.876965" lon="-0.00709833">
        <ele>719.0</ele>
        <time>2019-07-07T08:25:37.830Z</time>
      </trkpt>
      <trkpt lat="42.876965" lon="-0.00709833">
        <ele>719.0</ele>
        <time>2019-07-07T08:25:38.813Z</time>
      </trkpt>
      <trkpt lat="42.877095" lon="-0.00727833">
        <ele>718.0</ele>
        <time>2019-07-07T08:25:39.820Z</time>
      </trkpt>
      <trkpt lat="42.87716" lon="-0.00736833">
        <ele>717.0</ele>
        <time>2019-07-07T08:25:40.823Z</time>
      </trkpt>
      <trkpt lat="42.87716" lon="-0.00736833">
        <ele>717.0</ele>
        <time>2019-07-07T08:25:41.804Z</time>
      </trkpt>
      <trkpt lat="42.87728667" lon="-0.00755167">
        <ele>716.0</ele>
        <time>2019-07-07T08:25:42.811Z</time>
      </trkpt>
      <trkpt lat="42.877355" lon="-0.00764167">
        <ele>716.0</ele>
        <time>2019-07-07T08:25:43.839Z</time>
      </trkpt>
      <trkpt lat="42.877355" lon="-0.00764167">
        <ele>716.0</ele>
        <time>2019-07-07T08:25:44.815Z</time>
      </trkpt>
      <trkpt lat="42.87748833" lon="-0.007835">
        <ele>715.0</ele>
        <time>2019-07-07T08:25:45.822Z</time>
      </trkpt>
      <trkpt lat="42.87748833" lon="-0.007835">
        <ele>715.0</ele>
        <time>2019-07-07T08:25:46.815Z</time>
      </trkpt>
      <trkpt lat="42.87762167" lon="-0.00802333">
        <ele>714.0</ele>
        <time>2019-07-07T08:25:47.809Z</time>
      </trkpt>
      <trkpt lat="42.87769167" lon="-0.00811667">
        <ele>713.0</ele>
        <time>2019-07-07T08:25:48.836Z</time>
      </trkpt>
      <trkpt lat="42.87776" lon="-0.00821167">
        <ele>713.0</ele>
        <time>2019-07-07T08:25:49.807Z</time>
      </trkpt>
      <trkpt lat="42.87776" lon="-0.00821167">
        <ele>713.0</ele>
        <time>2019-07-07T08:25:50.813Z</time>
      </trkpt>
      <trkpt lat="42.87789333" lon="-0.00840667">
        <ele>712.0</ele>
        <time>2019-07-07T08:25:51.833Z</time>
      </trkpt>
      <trkpt lat="42.87795833" lon="-0.008505">
        <ele>711.0</ele>
        <time>2019-07-07T08:25:52.808Z</time>
      </trkpt>
      <trkpt lat="42.87795833" lon="-0.008505">
        <ele>711.0</ele>
        <time>2019-07-07T08:25:53.816Z</time>
      </trkpt>
      <trkpt lat="42.878095" lon="-0.00870167">
        <ele>710.0</ele>
        <time>2019-07-07T08:25:54.834Z</time>
      </trkpt>
      <trkpt lat="42.878165" lon="-0.00880167">
        <ele>709.0</ele>
        <time>2019-07-07T08:25:55.818Z</time>
      </trkpt>
      <trkpt lat="42.878165" lon="-0.00880167">
        <ele>709.0</ele>
        <time>2019-07-07T08:25:56.803Z</time>
      </trkpt>
      <trkpt lat="42.8783" lon="-0.00900167">
        <ele>708.0</ele>
        <time>2019-07-07T08:25:57.843Z</time>
      </trkpt>
      <trkpt lat="42.87836833" lon="-0.00910167">
        <ele>708.0</ele>
        <time>2019-07-07T08:25:58.804Z</time>
      </trkpt>
      <trkpt lat="42.87836833" lon="-0.00910167">
        <ele>708.0</ele>
        <time>2019-07-07T08:25:59.818Z</time>
      </trkpt>
      <trkpt lat="42.87850667" lon="-0.00930833">
        <ele>707.0</ele>
        <time>2019-07-07T08:26:00.817Z</time>
      </trkpt>
      <trkpt lat="42.87850667" lon="-0.00930833">
        <ele>707.0</ele>
        <time>2019-07-07T08:26:01.802Z</time>
      </trkpt>
      <trkpt lat="42.87864333" lon="-0.00951">
        <ele>706.0</ele>
        <time>2019-07-07T08:26:02.810Z</time>
      </trkpt>
      <trkpt lat="42.87864333" lon="-0.00951">
        <ele>706.0</ele>
        <time>2019-07-07T08:26:03.831Z</time>
      </trkpt>
      <trkpt lat="42.87878167" lon="-0.00970667">
        <ele>705.0</ele>
        <time>2019-07-07T08:26:04.813Z</time>
      </trkpt>
      <trkpt lat="42.87878167" lon="-0.00970667">
        <ele>705.0</ele>
        <time>2019-07-07T08:26:05.835Z</time>
      </trkpt>
      <trkpt lat="42.87892" lon="-0.00990333">
        <ele>704.0</ele>
        <time>2019-07-07T08:26:06.802Z</time>
      </trkpt>
      <trkpt lat="42.87892" lon="-0.00990333">
        <ele>704.0</ele>
        <time>2019-07-07T08:26:07.814Z</time>
      </trkpt>
      <trkpt lat="42.87905667" lon="-0.01010667">
        <ele>703.0</ele>
        <time>2019-07-07T08:26:08.812Z</time>
      </trkpt>
      <trkpt lat="42.87905667" lon="-0.01010667">
        <ele>703.0</ele>
        <time>2019-07-07T08:26:09.835Z</time>
      </trkpt>
      <trkpt lat="42.87919833" lon="-0.01030833">
        <ele>702.0</ele>
        <time>2019-07-07T08:26:10.819Z</time>
      </trkpt>
      <trkpt lat="42.87926833" lon="-0.01040667">
        <ele>702.0</ele>
        <time>2019-07-07T08:26:11.824Z</time>
      </trkpt>
      <trkpt lat="42.87926833" lon="-0.01040667">
        <ele>702.0</ele>
        <time>2019-07-07T08:26:12.830Z</time>
      </trkpt>
      <trkpt lat="42.87940833" lon="-0.01061">
        <ele>701.0</ele>
        <time>2019-07-07T08:26:13.807Z</time>
      </trkpt>
      <trkpt lat="42.87940833" lon="-0.01061">
        <ele>701.0</ele>
        <time>2019-07-07T08:26:14.808Z</time>
      </trkpt>
      <trkpt lat="42.87954833" lon="-0.01081">
        <ele>700.0</ele>
        <time>2019-07-07T08:26:15.825Z</time>
      </trkpt>
      <trkpt lat="42.87961833" lon="-0.01091167">
        <ele>700.0</ele>
        <time>2019-07-07T08:26:16.825Z</time>
      </trkpt>
      <trkpt lat="42.87961833" lon="-0.01091167">
        <ele>700.0</ele>
        <time>2019-07-07T08:26:17.822Z</time>
      </trkpt>
      <trkpt lat="42.87976167" lon="-0.01111333">
        <ele>699.0</ele>
        <time>2019-07-07T08:26:18.829Z</time>
      </trkpt>
      <trkpt lat="42.87976167" lon="-0.01111333">
        <ele>699.0</ele>
        <time>2019-07-07T08:26:19.805Z</time>
      </trkpt>
      <trkpt lat="42.87990333" lon="-0.01131667">
        <ele>698.0</ele>
        <time>2019-07-07T08:26:20.820Z</time>
      </trkpt>
      <trkpt lat="42.87990333" lon="-0.01131667">
        <ele>698.0</ele>
        <time>2019-07-07T08:26:21.833Z</time>
      </trkpt>
      <trkpt lat="42.88003833" lon="-0.01151167">
        <ele>697.0</ele>
        <time>2019-07-07T08:26:22.805Z</time>
      </trkpt>
      <trkpt lat="42.88003833" lon="-0.01151167">
        <ele>697.0</ele>
        <time>2019-07-07T08:26:23.818Z</time>
      </trkpt>
      <trkpt lat="42.88018667" lon="-0.01168667">
        <ele>696.0</ele>
        <time>2019-07-07T08:26:24.813Z</time>
      </trkpt>
      <trkpt lat="42.88027167" lon="-0.01176333">
        <ele>695.0</ele>
        <time>2019-07-07T08:26:25.818Z</time>
      </trkpt>
      <trkpt lat="42.88027167" lon="-0.01176333">
        <ele>695.0</ele>
        <time>2019-07-07T08:26:26.805Z</time>
      </trkpt>
      <trkpt lat="42.88045167" lon="-0.0119">
        <ele>694.0</ele>
        <time>2019-07-07T08:26:27.811Z</time>
      </trkpt>
      <trkpt lat="42.88045167" lon="-0.0119">
        <ele>694.0</ele>
        <time>2019-07-07T08:26:28.836Z</time>
      </trkpt>
      <trkpt lat="42.880635" lon="-0.01203833">
        <ele>693.0</ele>
        <time>2019-07-07T08:26:29.803Z</time>
      </trkpt>
      <trkpt lat="42.88072667" lon="-0.01211">
        <ele>693.0</ele>
        <time>2019-07-07T08:26:30.802Z</time>
      </trkpt>
      <trkpt lat="42.88072667" lon="-0.01211">
        <ele>693.0</ele>
        <time>2019-07-07T08:26:31.824Z</time>
      </trkpt>
      <trkpt lat="42.88090833" lon="-0.01225333">
        <ele>692.0</ele>
        <time>2019-07-07T08:26:32.830Z</time>
      </trkpt>
      <trkpt lat="42.88090833" lon="-0.01225333">
        <ele>692.0</ele>
        <time>2019-07-07T08:26:33.814Z</time>
      </trkpt>
      <trkpt lat="42.88109667" lon="-0.01238">
        <ele>691.0</ele>
        <time>2019-07-07T08:26:34.823Z</time>
      </trkpt>
      <trkpt lat="42.88109667" lon="-0.01238">
        <ele>691.0</ele>
        <time>2019-07-07T08:26:35.805Z</time>
      </trkpt>
      <trkpt lat="42.88127167" lon="-0.01251167">
        <ele>690.0</ele>
        <time>2019-07-07T08:26:36.814Z</time>
      </trkpt>
      <trkpt lat="42.88136" lon="-0.01258167">
        <ele>689.0</ele>
        <time>2019-07-07T08:26:37.817Z</time>
      </trkpt>
      <trkpt lat="42.88136" lon="-0.01258167">
        <ele>689.0</ele>
        <time>2019-07-07T08:26:38.807Z</time>
      </trkpt>
      <trkpt lat="42.88154" lon="-0.01272167">
        <ele>688.0</ele>
        <time>2019-07-07T08:26:39.813Z</time>
      </trkpt>
      <trkpt lat="42.88154" lon="-0.01272167">
        <ele>688.0</ele>
        <time>2019-07-07T08:26:40.836Z</time>
      </trkpt>
      <trkpt lat="42.88171833" lon="-0.01286">
        <ele>688.0</ele>
        <time>2019-07-07T08:26:41.813Z</time>
      </trkpt>
      <trkpt lat="42.88171833" lon="-0.01286">
        <ele>688.0</ele>
        <time>2019-07-07T08:26:42.820Z</time>
      </trkpt>
      <trkpt lat="42.88189667" lon="-0.01300333">
        <ele>687.0</ele>
        <time>2019-07-07T08:26:43.827Z</time>
      </trkpt>
      <trkpt lat="42.88198667" lon="-0.01307333">
        <ele>687.0</ele>
        <time>2019-07-07T08:26:44.813Z</time>
      </trkpt>
      <trkpt lat="42.88198667" lon="-0.01307333">
        <ele>687.0</ele>
        <time>2019-07-07T08:26:45.834Z</time>
      </trkpt>
      <trkpt lat="42.882165" lon="-0.01321667">
        <ele>686.0</ele>
        <time>2019-07-07T08:26:46.814Z</time>
      </trkpt>
      <trkpt lat="42.882165" lon="-0.01321667">
        <ele>686.0</ele>
        <time>2019-07-07T08:26:47.826Z</time>
      </trkpt>
      <trkpt lat="42.882345" lon="-0.01335667">
        <ele>686.0</ele>
        <time>2019-07-07T08:26:48.836Z</time>
      </trkpt>
      <trkpt lat="42.882345" lon="-0.01335667">
        <ele>686.0</ele>
        <time>2019-07-07T08:26:49.821Z</time>
      </trkpt>
      <trkpt lat="42.88252167" lon="-0.01349667">
        <ele>685.0</ele>
        <time>2019-07-07T08:26:50.803Z</time>
      </trkpt>
      <trkpt lat="42.88261" lon="-0.013565">
        <ele>684.0</ele>
        <time>2019-07-07T08:26:51.825Z</time>
      </trkpt>
      <trkpt lat="42.88261" lon="-0.013565">
        <ele>684.0</ele>
        <time>2019-07-07T08:26:52.807Z</time>
      </trkpt>
      <trkpt lat="42.88279" lon="-0.01370333">
        <ele>684.0</ele>
        <time>2019-07-07T08:26:53.816Z</time>
      </trkpt>
      <trkpt lat="42.88279" lon="-0.01370333">
        <ele>684.0</ele>
        <time>2019-07-07T08:26:54.803Z</time>
      </trkpt>
      <trkpt lat="42.88295667" lon="-0.013835">
        <ele>683.0</ele>
        <time>2019-07-07T08:26:55.833Z</time>
      </trkpt>
      <trkpt lat="42.88295667" lon="-0.013835">
        <ele>683.0</ele>
        <time>2019-07-07T08:26:56.808Z</time>
      </trkpt>
      <trkpt lat="42.88312" lon="-0.01395833">
        <ele>682.0</ele>
        <time>2019-07-07T08:26:57.828Z</time>
      </trkpt>
      <trkpt lat="42.883205" lon="-0.01402333">
        <ele>682.0</ele>
        <time>2019-07-07T08:26:58.827Z</time>
      </trkpt>
      <trkpt lat="42.883205" lon="-0.01402333">
        <ele>682.0</ele>
        <time>2019-07-07T08:26:59.809Z</time>
      </trkpt>
      <trkpt lat="42.88338833" lon="-0.01414833">
        <ele>681.0</ele>
        <time>2019-07-07T08:27:00.815Z</time>
      </trkpt>
      <trkpt lat="42.88348333" lon="-0.01421667">
        <ele>680.0</ele>
        <time>2019-07-07T08:27:01.816Z</time>
      </trkpt>
      <trkpt lat="42.88348333" lon="-0.01421667">
        <ele>680.0</ele>
        <time>2019-07-07T08:27:02.803Z</time>
      </trkpt>
      <trkpt lat="42.88366833" lon="-0.01436">
        <ele>679.0</ele>
        <time>2019-07-07T08:27:03.810Z</time>
      </trkpt>
      <trkpt lat="42.88366833" lon="-0.01436">
        <ele>679.0</ele>
        <time>2019-07-07T08:27:04.821Z</time>
      </trkpt>
      <trkpt lat="42.88385167" lon="-0.01450167">
        <ele>678.0</ele>
        <time>2019-07-07T08:27:05.833Z</time>
      </trkpt>
      <trkpt lat="42.88385167" lon="-0.01450167">
        <ele>678.0</ele>
        <time>2019-07-07T08:27:06.823Z</time>
      </trkpt>
      <trkpt lat="42.88403333" lon="-0.01463833">
        <ele>677.0</ele>
        <time>2019-07-07T08:27:07.831Z</time>
      </trkpt>
      <trkpt lat="42.88403333" lon="-0.01463833">
        <ele>677.0</ele>
        <time>2019-07-07T08:27:08.802Z</time>
      </trkpt>
      <trkpt lat="42.884215" lon="-0.01476833">
        <ele>676.0</ele>
        <time>2019-07-07T08:27:09.824Z</time>
      </trkpt>
      <trkpt lat="42.88430333" lon="-0.01483333">
        <ele>675.0</ele>
        <time>2019-07-07T08:27:10.815Z</time>
      </trkpt>
      <trkpt lat="42.88430333" lon="-0.01483333">
        <ele>675.0</ele>
        <time>2019-07-07T08:27:11.801Z</time>
      </trkpt>
      <trkpt lat="42.884485" lon="-0.01495167">
        <ele>675.0</ele>
        <time>2019-07-07T08:27:12.833Z</time>
      </trkpt>
      <trkpt lat="42.88457667" lon="-0.01500667">
        <ele>674.0</ele>
        <time>2019-07-07T08:27:13.817Z</time>
      </trkpt>
      <trkpt lat="42.88457667" lon="-0.01500667">
        <ele>674.0</ele>
        <time>2019-07-07T08:27:14.802Z</time>
      </trkpt>
      <trkpt lat="42.88474833" lon="-0.01511667">
        <ele>673.0</ele>
        <time>2019-07-07T08:27:15.833Z</time>
      </trkpt>
      <trkpt lat="42.88474833" lon="-0.01511667">
        <ele>673.0</ele>
        <time>2019-07-07T08:27:16.805Z</time>
      </trkpt>
      <trkpt lat="42.88491333" lon="-0.01523667">
        <ele>672.0</ele>
        <time>2019-07-07T08:27:17.816Z</time>
      </trkpt>
      <trkpt lat="42.88491333" lon="-0.01523667">
        <ele>672.0</ele>
        <time>2019-07-07T08:27:18.809Z</time>
      </trkpt>
      <trkpt lat="42.88507" lon="-0.01536">
        <ele>672.0</ele>
        <time>2019-07-07T08:27:19.825Z</time>
      </trkpt>
      <trkpt lat="42.88514333" lon="-0.01542333">
        <ele>671.0</ele>
        <time>2019-07-07T08:27:20.809Z</time>
      </trkpt>
      <trkpt lat="42.88514333" lon="-0.01542333">
        <ele>671.0</ele>
        <time>2019-07-07T08:27:21.817Z</time>
      </trkpt>
      <trkpt lat="42.88525333" lon="-0.01559333">
        <ele>671.0</ele>
        <time>2019-07-07T08:27:22.803Z</time>
      </trkpt>
      <trkpt lat="42.88525333" lon="-0.01559333">
        <ele>671.0</ele>
        <time>2019-07-07T08:27:23.826Z</time>
      </trkpt>
      <trkpt lat="42.88530833" lon="-0.01580667">
        <ele>670.0</ele>
        <time>2019-07-07T08:27:24.835Z</time>
      </trkpt>
      <trkpt lat="42.88532167" lon="-0.01591667">
        <ele>670.0</ele>
        <time>2019-07-07T08:27:25.827Z</time>
      </trkpt>
      <trkpt lat="42.88533333" lon="-0.01603">
        <ele>670.0</ele>
        <time>2019-07-07T08:27:26.810Z</time>
      </trkpt>
      <trkpt lat="42.88533333" lon="-0.01603">
        <ele>670.0</ele>
        <time>2019-07-07T08:27:27.831Z</time>
      </trkpt>
      <trkpt lat="42.88536" lon="-0.01624833">
        <ele>669.0</ele>
        <time>2019-07-07T08:27:28.833Z</time>
      </trkpt>
      <trkpt lat="42.88536" lon="-0.01624833">
        <ele>669.0</ele>
        <time>2019-07-07T08:27:29.817Z</time>
      </trkpt>
      <trkpt lat="42.88544" lon="-0.01644333">
        <ele>669.0</ele>
        <time>2019-07-07T08:27:30.825Z</time>
      </trkpt>
      <trkpt lat="42.88549833" lon="-0.01652333">
        <ele>669.0</ele>
        <time>2019-07-07T08:27:31.813Z</time>
      </trkpt>
      <trkpt lat="42.88549833" lon="-0.01652333">
        <ele>669.0</ele>
        <time>2019-07-07T08:27:32.826Z</time>
      </trkpt>
      <trkpt lat="42.88562167" lon="-0.01666333">
        <ele>668.0</ele>
        <time>2019-07-07T08:27:33.832Z</time>
      </trkpt>
      <trkpt lat="42.88562167" lon="-0.01666333">
        <ele>668.0</ele>
        <time>2019-07-07T08:27:34.816Z</time>
      </trkpt>
      <trkpt lat="42.88575333" lon="-0.01678">
        <ele>668.0</ele>
        <time>2019-07-07T08:27:35.824Z</time>
      </trkpt>
      <trkpt lat="42.88575333" lon="-0.01678">
        <ele>668.0</ele>
        <time>2019-07-07T08:27:36.830Z</time>
      </trkpt>
      <trkpt lat="42.88589" lon="-0.01689167">
        <ele>668.0</ele>
        <time>2019-07-07T08:27:37.813Z</time>
      </trkpt>
      <trkpt lat="42.88589" lon="-0.01689167">
        <ele>668.0</ele>
        <time>2019-07-07T08:27:38.830Z</time>
      </trkpt>
      <trkpt lat="42.88603167" lon="-0.01702167">
        <ele>667.0</ele>
        <time>2019-07-07T08:27:39.838Z</time>
      </trkpt>
      <trkpt lat="42.886105" lon="-0.01708833">
        <ele>667.0</ele>
        <time>2019-07-07T08:27:40.819Z</time>
      </trkpt>
      <trkpt lat="42.88618333" lon="-0.01715833">
        <ele>666.0</ele>
        <time>2019-07-07T08:27:41.802Z</time>
      </trkpt>
      <trkpt lat="42.88618333" lon="-0.01715833">
        <ele>666.0</ele>
        <time>2019-07-07T08:27:42.825Z</time>
      </trkpt>
      <trkpt lat="42.88634" lon="-0.01730333">
        <ele>666.0</ele>
        <time>2019-07-07T08:27:43.806Z</time>
      </trkpt>
      <trkpt lat="42.88634" lon="-0.01730333">
        <ele>666.0</ele>
        <time>2019-07-07T08:27:44.806Z</time>
      </trkpt>
      <trkpt lat="42.886505" lon="-0.01745167">
        <ele>665.0</ele>
        <time>2019-07-07T08:27:45.813Z</time>
      </trkpt>
      <trkpt lat="42.886505" lon="-0.01745167">
        <ele>665.0</ele>
        <time>2019-07-07T08:27:46.833Z</time>
      </trkpt>
      <trkpt lat="42.88666" lon="-0.01759833">
        <ele>665.0</ele>
        <time>2019-07-07T08:27:47.836Z</time>
      </trkpt>
      <trkpt lat="42.88674" lon="-0.01767167">
        <ele>664.0</ele>
        <time>2019-07-07T08:27:48.823Z</time>
      </trkpt>
      <trkpt lat="42.88674" lon="-0.01767167">
        <ele>664.0</ele>
        <time>2019-07-07T08:27:49.806Z</time>
      </trkpt>
      <trkpt lat="42.88690333" lon="-0.01780833">
        <ele>663.0</ele>
        <time>2019-07-07T08:27:50.813Z</time>
      </trkpt>
      <trkpt lat="42.88690333" lon="-0.01780833">
        <ele>663.0</ele>
        <time>2019-07-07T08:27:51.801Z</time>
      </trkpt>
      <trkpt lat="42.887065" lon="-0.01794667">
        <ele>663.0</ele>
        <time>2019-07-07T08:27:52.833Z</time>
      </trkpt>
      <trkpt lat="42.887065" lon="-0.01794667">
        <ele>663.0</ele>
        <time>2019-07-07T08:27:53.806Z</time>
      </trkpt>
      <trkpt lat="42.88722667" lon="-0.01808333">
        <ele>662.0</ele>
        <time>2019-07-07T08:27:54.813Z</time>
      </trkpt>
      <trkpt lat="42.88722667" lon="-0.01808333">
        <ele>662.0</ele>
        <time>2019-07-07T08:27:55.829Z</time>
      </trkpt>
      <trkpt lat="42.88738" lon="-0.01821833">
        <ele>661.0</ele>
        <time>2019-07-07T08:27:56.802Z</time>
      </trkpt>
      <trkpt lat="42.88738" lon="-0.01821833">
        <ele>661.0</ele>
        <time>2019-07-07T08:27:57.824Z</time>
      </trkpt>
      <trkpt lat="42.887535" lon="-0.01835167">
        <ele>661.0</ele>
        <time>2019-07-07T08:27:58.833Z</time>
      </trkpt>
      <trkpt lat="42.887535" lon="-0.01835167">
        <ele>661.0</ele>
        <time>2019-07-07T08:27:59.818Z</time>
      </trkpt>
      <trkpt lat="42.88769167" lon="-0.01848333">
        <ele>661.0</ele>
        <time>2019-07-07T08:28:00.844Z</time>
      </trkpt>
      <trkpt lat="42.88769167" lon="-0.01848333">
        <ele>661.0</ele>
        <time>2019-07-07T08:28:01.828Z</time>
      </trkpt>
      <trkpt lat="42.88785" lon="-0.01861333">
        <ele>660.0</ele>
        <time>2019-07-07T08:28:02.814Z</time>
      </trkpt>
      <trkpt lat="42.88792667" lon="-0.01868">
        <ele>660.0</ele>
        <time>2019-07-07T08:28:03.832Z</time>
      </trkpt>
      <trkpt lat="42.88792667" lon="-0.01868">
        <ele>660.0</ele>
        <time>2019-07-07T08:28:04.808Z</time>
      </trkpt>
      <trkpt lat="42.88808" lon="-0.01882167">
        <ele>659.0</ele>
        <time>2019-07-07T08:28:05.815Z</time>
      </trkpt>
      <trkpt lat="42.88815667" lon="-0.018895">
        <ele>659.0</ele>
        <time>2019-07-07T08:28:06.815Z</time>
      </trkpt>
      <trkpt lat="42.88815667" lon="-0.018895">
        <ele>659.0</ele>
        <time>2019-07-07T08:28:07.836Z</time>
      </trkpt>
      <trkpt lat="42.88829333" lon="-0.01905333">
        <ele>658.0</ele>
        <time>2019-07-07T08:28:08.804Z</time>
      </trkpt>
      <trkpt lat="42.88829333" lon="-0.01905333">
        <ele>658.0</ele>
        <time>2019-07-07T08:28:09.822Z</time>
      </trkpt>
      <trkpt lat="42.888415" lon="-0.01923167">
        <ele>658.0</ele>
        <time>2019-07-07T08:28:10.823Z</time>
      </trkpt>
      <trkpt lat="42.888415" lon="-0.01923167">
        <ele>658.0</ele>
        <time>2019-07-07T08:28:11.806Z</time>
      </trkpt>
      <trkpt lat="42.888515" lon="-0.01942333">
        <ele>657.0</ele>
        <time>2019-07-07T08:28:12.812Z</time>
      </trkpt>
      <trkpt lat="42.88855167" lon="-0.01952167">
        <ele>657.0</ele>
        <time>2019-07-07T08:28:13.828Z</time>
      </trkpt>
      <trkpt lat="42.88859833" lon="-0.01962333">
        <ele>657.0</ele>
        <time>2019-07-07T08:28:14.810Z</time>
      </trkpt>
      <trkpt lat="42.88859833" lon="-0.01962333">
        <ele>657.0</ele>
        <time>2019-07-07T08:28:15.832Z</time>
      </trkpt>
      <trkpt lat="42.88869667" lon="-0.01982167">
        <ele>656.0</ele>
        <time>2019-07-07T08:28:16.815Z</time>
      </trkpt>
      <trkpt lat="42.88875" lon="-0.01991667">
        <ele>656.0</ele>
        <time>2019-07-07T08:28:17.818Z</time>
      </trkpt>
      <trkpt lat="42.88875" lon="-0.01991667">
        <ele>656.0</ele>
        <time>2019-07-07T08:28:18.802Z</time>
      </trkpt>
      <trkpt lat="42.88886833" lon="-0.020105">
        <ele>655.0</ele>
        <time>2019-07-07T08:28:19.817Z</time>
      </trkpt>
      <trkpt lat="42.88893" lon="-0.02019667">
        <ele>655.0</ele>
        <time>2019-07-07T08:28:20.808Z</time>
      </trkpt>
      <trkpt lat="42.88893" lon="-0.02019667">
        <ele>655.0</ele>
        <time>2019-07-07T08:28:21.816Z</time>
      </trkpt>
      <trkpt lat="42.88905333" lon="-0.02039">
        <ele>654.0</ele>
        <time>2019-07-07T08:28:22.838Z</time>
      </trkpt>
      <trkpt lat="42.88905333" lon="-0.02039">
        <ele>654.0</ele>
        <time>2019-07-07T08:28:23.822Z</time>
      </trkpt>
      <trkpt lat="42.88922" lon="-0.020555">
        <ele>654.0</ele>
        <time>2019-07-07T08:28:24.828Z</time>
      </trkpt>
      <trkpt lat="42.88931" lon="-0.020625">
        <ele>653.0</ele>
        <time>2019-07-07T08:28:25.827Z</time>
      </trkpt>
      <trkpt lat="42.88931" lon="-0.020625">
        <ele>653.0</ele>
        <time>2019-07-07T08:28:26.809Z</time>
      </trkpt>
      <trkpt lat="42.88947833" lon="-0.02076667">
        <ele>653.0</ele>
        <time>2019-07-07T08:28:27.824Z</time>
      </trkpt>
      <trkpt lat="42.88955667" lon="-0.02084">
        <ele>653.0</ele>
        <time>2019-07-07T08:28:28.838Z</time>
      </trkpt>
      <trkpt lat="42.88955667" lon="-0.02084">
        <ele>653.0</ele>
        <time>2019-07-07T08:28:29.820Z</time>
      </trkpt>
      <trkpt lat="42.88972" lon="-0.02097333">
        <ele>652.0</ele>
        <time>2019-07-07T08:28:30.827Z</time>
      </trkpt>
      <trkpt lat="42.88979" lon="-0.02104833">
        <ele>652.0</ele>
        <time>2019-07-07T08:28:31.837Z</time>
      </trkpt>
      <trkpt lat="42.88979" lon="-0.02104833">
        <ele>652.0</ele>
        <time>2019-07-07T08:28:32.817Z</time>
      </trkpt>
      <trkpt lat="42.88992333" lon="-0.02120333">
        <ele>651.0</ele>
        <time>2019-07-07T08:28:33.832Z</time>
      </trkpt>
      <trkpt lat="42.88992333" lon="-0.02120333">
        <ele>651.0</ele>
        <time>2019-07-07T08:28:34.807Z</time>
      </trkpt>
      <trkpt lat="42.890045" lon="-0.02136833">
        <ele>651.0</ele>
        <time>2019-07-07T08:28:35.815Z</time>
      </trkpt>
      <trkpt lat="42.890045" lon="-0.02136833">
        <ele>651.0</ele>
        <time>2019-07-07T08:28:36.840Z</time>
      </trkpt>
      <trkpt lat="42.89016" lon="-0.02154667">
        <ele>651.0</ele>
        <time>2019-07-07T08:28:37.818Z</time>
      </trkpt>
      <trkpt lat="42.89016" lon="-0.02154667">
        <ele>651.0</ele>
        <time>2019-07-07T08:28:38.804Z</time>
      </trkpt>
      <trkpt lat="42.89027333" lon="-0.021735">
        <ele>651.0</ele>
        <time>2019-07-07T08:28:39.813Z</time>
      </trkpt>
      <trkpt lat="42.89033167" lon="-0.02182833">
        <ele>651.0</ele>
        <time>2019-07-07T08:28:40.845Z</time>
      </trkpt>
      <trkpt lat="42.89033167" lon="-0.02182833">
        <ele>651.0</ele>
        <time>2019-07-07T08:28:41.836Z</time>
      </trkpt>
      <trkpt lat="42.890435" lon="-0.02202333">
        <ele>651.0</ele>
        <time>2019-07-07T08:28:42.807Z</time>
      </trkpt>
      <trkpt lat="42.89047833" lon="-0.02212667">
        <ele>650.0</ele>
        <time>2019-07-07T08:28:43.803Z</time>
      </trkpt>
      <trkpt lat="42.89047833" lon="-0.02212667">
        <ele>650.0</ele>
        <time>2019-07-07T08:28:44.807Z</time>
      </trkpt>
      <trkpt lat="42.89056667" lon="-0.022335">
        <ele>650.0</ele>
        <time>2019-07-07T08:28:45.815Z</time>
      </trkpt>
      <trkpt lat="42.89061" lon="-0.02243833">
        <ele>650.0</ele>
        <time>2019-07-07T08:28:46.818Z</time>
      </trkpt>
      <trkpt lat="42.89061" lon="-0.02243833">
        <ele>650.0</ele>
        <time>2019-07-07T08:28:47.816Z</time>
      </trkpt>
      <trkpt lat="42.89069833" lon="-0.02264667">
        <ele>650.0</ele>
        <time>2019-07-07T08:28:48.831Z</time>
      </trkpt>
      <trkpt lat="42.89074167" lon="-0.02275">
        <ele>650.0</ele>
        <time>2019-07-07T08:28:49.816Z</time>
      </trkpt>
      <trkpt lat="42.89074167" lon="-0.02275">
        <ele>650.0</ele>
        <time>2019-07-07T08:28:50.836Z</time>
      </trkpt>
      <trkpt lat="42.890835" lon="-0.02295167">
        <ele>649.0</ele>
        <time>2019-07-07T08:28:51.804Z</time>
      </trkpt>
      <trkpt lat="42.89088" lon="-0.02305167">
        <ele>649.0</ele>
        <time>2019-07-07T08:28:52.827Z</time>
      </trkpt>
      <trkpt lat="42.89088" lon="-0.02305167">
        <ele>649.0</ele>
        <time>2019-07-07T08:28:53.809Z</time>
      </trkpt>
      <trkpt lat="42.89097" lon="-0.023245">
        <ele>649.0</ele>
        <time>2019-07-07T08:28:54.818Z</time>
      </trkpt>
      <trkpt lat="42.89097" lon="-0.023245">
        <ele>649.0</ele>
        <time>2019-07-07T08:28:55.841Z</time>
      </trkpt>
      <trkpt lat="42.89107833" lon="-0.02342167">
        <ele>649.0</ele>
        <time>2019-07-07T08:28:56.823Z</time>
      </trkpt>
      <trkpt lat="42.89107833" lon="-0.02342167">
        <ele>649.0</ele>
        <time>2019-07-07T08:28:57.836Z</time>
      </trkpt>
      <trkpt lat="42.89120833" lon="-0.023585">
        <ele>648.0</ele>
        <time>2019-07-07T08:28:58.833Z</time>
      </trkpt>
      <trkpt lat="42.89120833" lon="-0.023585">
        <ele>648.0</ele>
        <time>2019-07-07T08:28:59.807Z</time>
      </trkpt>
      <trkpt lat="42.89135667" lon="-0.02371667">
        <ele>648.0</ele>
        <time>2019-07-07T08:29:00.813Z</time>
      </trkpt>
      <trkpt lat="42.89135667" lon="-0.02371667">
        <ele>648.0</ele>
        <time>2019-07-07T08:29:01.823Z</time>
      </trkpt>
      <trkpt lat="42.89151" lon="-0.02382667">
        <ele>648.0</ele>
        <time>2019-07-07T08:29:02.836Z</time>
      </trkpt>
      <trkpt lat="42.89151" lon="-0.02382667">
        <ele>648.0</ele>
        <time>2019-07-07T08:29:03.820Z</time>
      </trkpt>
      <trkpt lat="42.89166667" lon="-0.02393">
        <ele>648.0</ele>
        <time>2019-07-07T08:29:04.826Z</time>
      </trkpt>
      <trkpt lat="42.89166667" lon="-0.02393">
        <ele>648.0</ele>
        <time>2019-07-07T08:29:05.833Z</time>
      </trkpt>
      <trkpt lat="42.89182833" lon="-0.02403833">
        <ele>648.0</ele>
        <time>2019-07-07T08:29:06.840Z</time>
      </trkpt>
      <trkpt lat="42.89190833" lon="-0.024095">
        <ele>648.0</ele>
        <time>2019-07-07T08:29:07.807Z</time>
      </trkpt>
      <trkpt lat="42.89190833" lon="-0.024095">
        <ele>648.0</ele>
        <time>2019-07-07T08:29:08.817Z</time>
      </trkpt>
      <trkpt lat="42.89207167" lon="-0.02420167">
        <ele>648.0</ele>
        <time>2019-07-07T08:29:09.823Z</time>
      </trkpt>
      <trkpt lat="42.89215167" lon="-0.024255">
        <ele>648.0</ele>
        <time>2019-07-07T08:29:10.812Z</time>
      </trkpt>
      <trkpt lat="42.89215167" lon="-0.024255">
        <ele>648.0</ele>
        <time>2019-07-07T08:29:11.832Z</time>
      </trkpt>
      <trkpt lat="42.89230833" lon="-0.024365">
        <ele>648.0</ele>
        <time>2019-07-07T08:29:12.839Z</time>
      </trkpt>
      <trkpt lat="42.89239" lon="-0.02441667">
        <ele>648.0</ele>
        <time>2019-07-07T08:29:13.823Z</time>
      </trkpt>
      <trkpt lat="42.89239" lon="-0.02441667">
        <ele>648.0</ele>
        <time>2019-07-07T08:29:14.815Z</time>
      </trkpt>
      <trkpt lat="42.892555" lon="-0.02452333">
        <ele>648.0</ele>
        <time>2019-07-07T08:29:15.833Z</time>
      </trkpt>
      <trkpt lat="42.89263667" lon="-0.02457333">
        <ele>648.0</ele>
        <time>2019-07-07T08:29:16.820Z</time>
      </trkpt>
      <trkpt lat="42.89263667" lon="-0.02457333">
        <ele>648.0</ele>
        <time>2019-07-07T08:29:17.838Z</time>
      </trkpt>
      <trkpt lat="42.89279833" lon="-0.02467667">
        <ele>648.0</ele>
        <time>2019-07-07T08:29:18.807Z</time>
      </trkpt>
      <trkpt lat="42.89279833" lon="-0.02467667">
        <ele>648.0</ele>
        <time>2019-07-07T08:29:19.829Z</time>
      </trkpt>
      <trkpt lat="42.89296833" lon="-0.02478333">
        <ele>648.0</ele>
        <time>2019-07-07T08:29:20.836Z</time>
      </trkpt>
      <trkpt lat="42.89305333" lon="-0.024835">
        <ele>648.0</ele>
        <time>2019-07-07T08:29:21.818Z</time>
      </trkpt>
      <trkpt lat="42.89305333" lon="-0.024835">
        <ele>648.0</ele>
        <time>2019-07-07T08:29:22.807Z</time>
      </trkpt>
      <trkpt lat="42.89323" lon="-0.02494167">
        <ele>647.0</ele>
        <time>2019-07-07T08:29:23.813Z</time>
      </trkpt>
      <trkpt lat="42.89331667" lon="-0.02499167">
        <ele>647.0</ele>
        <time>2019-07-07T08:29:24.806Z</time>
      </trkpt>
      <trkpt lat="42.89331667" lon="-0.02499167">
        <ele>647.0</ele>
        <time>2019-07-07T08:29:25.811Z</time>
      </trkpt>
      <trkpt lat="42.89349167" lon="-0.02509333">
        <ele>647.0</ele>
        <time>2019-07-07T08:29:26.819Z</time>
      </trkpt>
      <trkpt lat="42.89357667" lon="-0.02514667">
        <ele>647.0</ele>
        <time>2019-07-07T08:29:27.824Z</time>
      </trkpt>
      <trkpt lat="42.89357667" lon="-0.02514667">
        <ele>647.0</ele>
        <time>2019-07-07T08:29:28.831Z</time>
      </trkpt>
      <trkpt lat="42.89374667" lon="-0.025255">
        <ele>646.0</ele>
        <time>2019-07-07T08:29:29.809Z</time>
      </trkpt>
      <trkpt lat="42.89374667" lon="-0.025255">
        <ele>646.0</ele>
        <time>2019-07-07T08:29:30.834Z</time>
      </trkpt>
      <trkpt lat="42.89392167" lon="-0.02536333">
        <ele>646.0</ele>
        <time>2019-07-07T08:29:31.801Z</time>
      </trkpt>
      <trkpt lat="42.89392167" lon="-0.02536333">
        <ele>646.0</ele>
        <time>2019-07-07T08:29:32.826Z</time>
      </trkpt>
      <trkpt lat="42.8941" lon="-0.02547">
        <ele>646.0</ele>
        <time>2019-07-07T08:29:33.806Z</time>
      </trkpt>
      <trkpt lat="42.8941" lon="-0.02547">
        <ele>646.0</ele>
        <time>2019-07-07T08:29:34.823Z</time>
      </trkpt>
      <trkpt lat="42.89427333" lon="-0.02557833">
        <ele>645.0</ele>
        <time>2019-07-07T08:29:35.830Z</time>
      </trkpt>
      <trkpt lat="42.89427333" lon="-0.02557833">
        <ele>645.0</ele>
        <time>2019-07-07T08:29:36.814Z</time>
      </trkpt>
      <trkpt lat="42.89444667" lon="-0.02568167">
        <ele>645.0</ele>
        <time>2019-07-07T08:29:37.840Z</time>
      </trkpt>
      <trkpt lat="42.89444667" lon="-0.02568167">
        <ele>645.0</ele>
        <time>2019-07-07T08:29:38.829Z</time>
      </trkpt>
      <trkpt lat="42.89461333" lon="-0.02578667">
        <ele>644.0</ele>
        <time>2019-07-07T08:29:39.836Z</time>
      </trkpt>
      <trkpt lat="42.89469667" lon="-0.02583667">
        <ele>644.0</ele>
        <time>2019-07-07T08:29:40.810Z</time>
      </trkpt>
      <trkpt lat="42.89469667" lon="-0.02583667">
        <ele>644.0</ele>
        <time>2019-07-07T08:29:41.826Z</time>
      </trkpt>
      <trkpt lat="42.894865" lon="-0.02593333">
        <ele>644.0</ele>
        <time>2019-07-07T08:29:42.833Z</time>
      </trkpt>
      <trkpt lat="42.894865" lon="-0.02593333">
        <ele>644.0</ele>
        <time>2019-07-07T08:29:43.810Z</time>
      </trkpt>
      <trkpt lat="42.895025" lon="-0.02604167">
        <ele>644.0</ele>
        <time>2019-07-07T08:29:44.833Z</time>
      </trkpt>
      <trkpt lat="42.895025" lon="-0.02604167">
        <ele>644.0</ele>
        <time>2019-07-07T08:29:45.809Z</time>
      </trkpt>
      <trkpt lat="42.89518833" lon="-0.026145">
        <ele>644.0</ele>
        <time>2019-07-07T08:29:46.817Z</time>
      </trkpt>
      <trkpt lat="42.89518833" lon="-0.026145">
        <ele>644.0</ele>
        <time>2019-07-07T08:29:47.820Z</time>
      </trkpt>
      <trkpt lat="42.89535" lon="-0.026245">
        <ele>644.0</ele>
        <time>2019-07-07T08:29:48.828Z</time>
      </trkpt>
      <trkpt lat="42.89535" lon="-0.026245">
        <ele>644.0</ele>
        <time>2019-07-07T08:29:49.808Z</time>
      </trkpt>
      <trkpt lat="42.895505" lon="-0.02634167">
        <ele>644.0</ele>
        <time>2019-07-07T08:29:50.814Z</time>
      </trkpt>
      <trkpt lat="42.89558667" lon="-0.02639167">
        <ele>644.0</ele>
        <time>2019-07-07T08:29:51.807Z</time>
      </trkpt>
      <trkpt lat="42.89558667" lon="-0.02639167">
        <ele>644.0</ele>
        <time>2019-07-07T08:29:52.832Z</time>
      </trkpt>
      <trkpt lat="42.89575167" lon="-0.02649167">
        <ele>644.0</ele>
        <time>2019-07-07T08:29:53.838Z</time>
      </trkpt>
      <trkpt lat="42.89575167" lon="-0.02649167">
        <ele>644.0</ele>
        <time>2019-07-07T08:29:54.822Z</time>
      </trkpt>
      <trkpt lat="42.895915" lon="-0.02659333">
        <ele>644.0</ele>
        <time>2019-07-07T08:29:55.833Z</time>
      </trkpt>
      <trkpt lat="42.895915" lon="-0.02659333">
        <ele>644.0</ele>
        <time>2019-07-07T08:29:56.807Z</time>
      </trkpt>
      <trkpt lat="42.89607167" lon="-0.0267">
        <ele>645.0</ele>
        <time>2019-07-07T08:29:57.815Z</time>
      </trkpt>
      <trkpt lat="42.89615167" lon="-0.02675167">
        <ele>645.0</ele>
        <time>2019-07-07T08:29:58.822Z</time>
      </trkpt>
      <trkpt lat="42.89615167" lon="-0.02675167">
        <ele>645.0</ele>
        <time>2019-07-07T08:29:59.807Z</time>
      </trkpt>
      <trkpt lat="42.89631833" lon="-0.026855">
        <ele>644.0</ele>
        <time>2019-07-07T08:30:00.814Z</time>
      </trkpt>
      <trkpt lat="42.89631833" lon="-0.026855">
        <ele>644.0</ele>
        <time>2019-07-07T08:30:01.837Z</time>
      </trkpt>
      <trkpt lat="42.89647833" lon="-0.02696167">
        <ele>645.0</ele>
        <time>2019-07-07T08:30:02.810Z</time>
      </trkpt>
      <trkpt lat="42.89647833" lon="-0.02696167">
        <ele>645.0</ele>
        <time>2019-07-07T08:30:03.814Z</time>
      </trkpt>
      <trkpt lat="42.89664333" lon="-0.02706667">
        <ele>644.0</ele>
        <time>2019-07-07T08:30:04.826Z</time>
      </trkpt>
      <trkpt lat="42.89664333" lon="-0.02706667">
        <ele>644.0</ele>
        <time>2019-07-07T08:30:05.839Z</time>
      </trkpt>
      <trkpt lat="42.8968" lon="-0.02717167">
        <ele>644.0</ele>
        <time>2019-07-07T08:30:06.810Z</time>
      </trkpt>
      <trkpt lat="42.8968" lon="-0.02717167">
        <ele>644.0</ele>
        <time>2019-07-07T08:30:07.817Z</time>
      </trkpt>
      <trkpt lat="42.89696333" lon="-0.02727167">
        <ele>644.0</ele>
        <time>2019-07-07T08:30:08.824Z</time>
      </trkpt>
      <trkpt lat="42.89696333" lon="-0.02727167">
        <ele>644.0</ele>
        <time>2019-07-07T08:30:09.809Z</time>
      </trkpt>
      <trkpt lat="42.89713167" lon="-0.02737333">
        <ele>644.0</ele>
        <time>2019-07-07T08:30:10.845Z</time>
      </trkpt>
      <trkpt lat="42.89713167" lon="-0.02737333">
        <ele>644.0</ele>
        <time>2019-07-07T08:30:11.821Z</time>
      </trkpt>
      <trkpt lat="42.89729833" lon="-0.02747333">
        <ele>644.0</ele>
        <time>2019-07-07T08:30:12.827Z</time>
      </trkpt>
      <trkpt lat="42.89738333" lon="-0.02752">
        <ele>644.0</ele>
        <time>2019-07-07T08:30:13.806Z</time>
      </trkpt>
      <trkpt lat="42.89738333" lon="-0.02752">
        <ele>644.0</ele>
        <time>2019-07-07T08:30:14.815Z</time>
      </trkpt>
      <trkpt lat="42.897545" lon="-0.02762333">
        <ele>643.0</ele>
        <time>2019-07-07T08:30:15.822Z</time>
      </trkpt>
      <trkpt lat="42.89762333" lon="-0.02767833">
        <ele>643.0</ele>
        <time>2019-07-07T08:30:16.832Z</time>
      </trkpt>
      <trkpt lat="42.89762333" lon="-0.02767833">
        <ele>643.0</ele>
        <time>2019-07-07T08:30:17.813Z</time>
      </trkpt>
      <trkpt lat="42.89778167" lon="-0.02777667">
        <ele>643.0</ele>
        <time>2019-07-07T08:30:18.821Z</time>
      </trkpt>
      <trkpt lat="42.89778167" lon="-0.02777667">
        <ele>643.0</ele>
        <time>2019-07-07T08:30:19.804Z</time>
      </trkpt>
      <trkpt lat="42.897945" lon="-0.027865">
        <ele>643.0</ele>
        <time>2019-07-07T08:30:20.837Z</time>
      </trkpt>
      <trkpt lat="42.898025" lon="-0.02791">
        <ele>643.0</ele>
        <time>2019-07-07T08:30:21.822Z</time>
      </trkpt>
      <trkpt lat="42.89810833" lon="-0.02795">
        <ele>642.0</ele>
        <time>2019-07-07T08:30:22.828Z</time>
      </trkpt>
      <trkpt lat="42.89810833" lon="-0.02795">
        <ele>642.0</ele>
        <time>2019-07-07T08:30:23.810Z</time>
      </trkpt>
      <trkpt lat="42.89826667" lon="-0.02803167">
        <ele>642.0</ele>
        <time>2019-07-07T08:30:24.818Z</time>
      </trkpt>
      <trkpt lat="42.89826667" lon="-0.02803167">
        <ele>642.0</ele>
        <time>2019-07-07T08:30:25.839Z</time>
      </trkpt>
      <trkpt lat="42.89841333" lon="-0.02811167">
        <ele>642.0</ele>
        <time>2019-07-07T08:30:26.814Z</time>
      </trkpt>
      <trkpt lat="42.89841333" lon="-0.02811167">
        <ele>642.0</ele>
        <time>2019-07-07T08:30:27.824Z</time>
      </trkpt>
      <trkpt lat="42.89856167" lon="-0.02819">
        <ele>642.0</ele>
        <time>2019-07-07T08:30:28.815Z</time>
      </trkpt>
      <trkpt lat="42.89856167" lon="-0.02819">
        <ele>642.0</ele>
        <time>2019-07-07T08:30:29.832Z</time>
      </trkpt>
      <trkpt lat="42.89871167" lon="-0.02827333">
        <ele>642.0</ele>
        <time>2019-07-07T08:30:30.823Z</time>
      </trkpt>
      <trkpt lat="42.89871167" lon="-0.02827333">
        <ele>642.0</ele>
        <time>2019-07-07T08:30:31.808Z</time>
      </trkpt>
      <trkpt lat="42.89885833" lon="-0.028355">
        <ele>642.0</ele>
        <time>2019-07-07T08:30:32.821Z</time>
      </trkpt>
      <trkpt lat="42.89885833" lon="-0.028355">
        <ele>642.0</ele>
        <time>2019-07-07T08:30:33.809Z</time>
      </trkpt>
      <trkpt lat="42.89899333" lon="-0.02845167">
        <ele>642.0</ele>
        <time>2019-07-07T08:30:34.809Z</time>
      </trkpt>
      <trkpt lat="42.89899333" lon="-0.02845167">
        <ele>642.0</ele>
        <time>2019-07-07T08:30:35.829Z</time>
      </trkpt>
      <trkpt lat="42.89912" lon="-0.02856">
        <ele>642.0</ele>
        <time>2019-07-07T08:30:36.835Z</time>
      </trkpt>
      <trkpt lat="42.89912" lon="-0.02856">
        <ele>642.0</ele>
        <time>2019-07-07T08:30:37.824Z</time>
      </trkpt>
      <trkpt lat="42.89923667" lon="-0.02866833">
        <ele>642.0</ele>
        <time>2019-07-07T08:30:38.832Z</time>
      </trkpt>
      <trkpt lat="42.89923667" lon="-0.02866833">
        <ele>642.0</ele>
        <time>2019-07-07T08:30:39.818Z</time>
      </trkpt>
      <trkpt lat="42.89935333" lon="-0.02877167">
        <ele>642.0</ele>
        <time>2019-07-07T08:30:40.843Z</time>
      </trkpt>
      <trkpt lat="42.89935333" lon="-0.02877167">
        <ele>642.0</ele>
        <time>2019-07-07T08:30:41.836Z</time>
      </trkpt>
      <trkpt lat="42.899475" lon="-0.02887333">
        <ele>643.0</ele>
        <time>2019-07-07T08:30:42.808Z</time>
      </trkpt>
      <trkpt lat="42.899475" lon="-0.02887333">
        <ele>643.0</ele>
        <time>2019-07-07T08:30:43.824Z</time>
      </trkpt>
      <trkpt lat="42.899605" lon="-0.02897167">
        <ele>642.0</ele>
        <time>2019-07-07T08:30:44.829Z</time>
      </trkpt>
      <trkpt lat="42.89967167" lon="-0.029015">
        <ele>642.0</ele>
        <time>2019-07-07T08:30:45.808Z</time>
      </trkpt>
      <trkpt lat="42.899735" lon="-0.02906">
        <ele>642.0</ele>
        <time>2019-07-07T08:30:46.835Z</time>
      </trkpt>
      <trkpt lat="42.8998" lon="-0.02910667">
        <ele>642.0</ele>
        <time>2019-07-07T08:30:47.804Z</time>
      </trkpt>
      <trkpt lat="42.8998" lon="-0.02910667">
        <ele>642.0</ele>
        <time>2019-07-07T08:30:48.833Z</time>
      </trkpt>
      <trkpt lat="42.89994833" lon="-0.02920833">
        <ele>642.0</ele>
        <time>2019-07-07T08:30:49.804Z</time>
      </trkpt>
      <trkpt lat="42.89994833" lon="-0.02920833">
        <ele>642.0</ele>
        <time>2019-07-07T08:30:50.814Z</time>
      </trkpt>
      <trkpt lat="42.90010167" lon="-0.02931667">
        <ele>642.0</ele>
        <time>2019-07-07T08:30:51.820Z</time>
      </trkpt>
      <trkpt lat="42.90010167" lon="-0.02931667">
        <ele>642.0</ele>
        <time>2019-07-07T08:30:52.805Z</time>
      </trkpt>
      <trkpt lat="42.90025667" lon="-0.02943">
        <ele>642.0</ele>
        <time>2019-07-07T08:30:53.827Z</time>
      </trkpt>
      <trkpt lat="42.90025667" lon="-0.02943">
        <ele>642.0</ele>
        <time>2019-07-07T08:30:54.832Z</time>
      </trkpt>
      <trkpt lat="42.90041167" lon="-0.02955167">
        <ele>642.0</ele>
        <time>2019-07-07T08:30:55.838Z</time>
      </trkpt>
      <trkpt lat="42.90049333" lon="-0.02961">
        <ele>642.0</ele>
        <time>2019-07-07T08:30:56.823Z</time>
      </trkpt>
      <trkpt lat="42.90049333" lon="-0.02961">
        <ele>642.0</ele>
        <time>2019-07-07T08:30:57.811Z</time>
      </trkpt>
      <trkpt lat="42.90065667" lon="-0.029725">
        <ele>642.0</ele>
        <time>2019-07-07T08:30:58.832Z</time>
      </trkpt>
      <trkpt lat="42.90065667" lon="-0.029725">
        <ele>642.0</ele>
        <time>2019-07-07T08:30:59.811Z</time>
      </trkpt>
      <trkpt lat="42.90081333" lon="-0.02984">
        <ele>642.0</ele>
        <time>2019-07-07T08:31:00.818Z</time>
      </trkpt>
      <trkpt lat="42.90089167" lon="-0.0299">
        <ele>642.0</ele>
        <time>2019-07-07T08:31:01.813Z</time>
      </trkpt>
      <trkpt lat="42.90089167" lon="-0.0299">
        <ele>642.0</ele>
        <time>2019-07-07T08:31:02.836Z</time>
      </trkpt>
      <trkpt lat="42.901055" lon="-0.03002833">
        <ele>641.0</ele>
        <time>2019-07-07T08:31:03.808Z</time>
      </trkpt>
      <trkpt lat="42.901055" lon="-0.03002833">
        <ele>641.0</ele>
        <time>2019-07-07T08:31:04.827Z</time>
      </trkpt>
      <trkpt lat="42.90122" lon="-0.03016">
        <ele>641.0</ele>
        <time>2019-07-07T08:31:05.831Z</time>
      </trkpt>
      <trkpt lat="42.90122" lon="-0.03016">
        <ele>641.0</ele>
        <time>2019-07-07T08:31:06.836Z</time>
      </trkpt>
      <trkpt lat="42.90139167" lon="-0.03029">
        <ele>641.0</ele>
        <time>2019-07-07T08:31:07.816Z</time>
      </trkpt>
      <trkpt lat="42.90139167" lon="-0.03029">
        <ele>641.0</ele>
        <time>2019-07-07T08:31:08.801Z</time>
      </trkpt>
      <trkpt lat="42.901565" lon="-0.03042167">
        <ele>640.0</ele>
        <time>2019-07-07T08:31:09.818Z</time>
      </trkpt>
      <trkpt lat="42.901565" lon="-0.03042167">
        <ele>640.0</ele>
        <time>2019-07-07T08:31:10.801Z</time>
      </trkpt>
      <trkpt lat="42.90174333" lon="-0.030555">
        <ele>639.0</ele>
        <time>2019-07-07T08:31:11.809Z</time>
      </trkpt>
      <trkpt lat="42.90174333" lon="-0.030555">
        <ele>639.0</ele>
        <time>2019-07-07T08:31:12.825Z</time>
      </trkpt>
      <trkpt lat="42.90191167" lon="-0.03069333">
        <ele>639.0</ele>
        <time>2019-07-07T08:31:13.814Z</time>
      </trkpt>
      <trkpt lat="42.90199667" lon="-0.03076">
        <ele>639.0</ele>
        <time>2019-07-07T08:31:14.839Z</time>
      </trkpt>
      <trkpt lat="42.90209" lon="-0.03082167">
        <ele>639.0</ele>
        <time>2019-07-07T08:31:15.821Z</time>
      </trkpt>
      <trkpt lat="42.90209" lon="-0.03082167">
        <ele>639.0</ele>
        <time>2019-07-07T08:31:16.805Z</time>
      </trkpt>
      <trkpt lat="42.90227333" lon="-0.03094833">
        <ele>638.0</ele>
        <time>2019-07-07T08:31:17.813Z</time>
      </trkpt>
      <trkpt lat="42.902365" lon="-0.03101">
        <ele>638.0</ele>
        <time>2019-07-07T08:31:18.836Z</time>
      </trkpt>
      <trkpt lat="42.902365" lon="-0.03101">
        <ele>638.0</ele>
        <time>2019-07-07T08:31:19.817Z</time>
      </trkpt>
      <trkpt lat="42.90254333" lon="-0.03112833">
        <ele>638.0</ele>
        <time>2019-07-07T08:31:20.825Z</time>
      </trkpt>
      <trkpt lat="42.90254333" lon="-0.03112833">
        <ele>638.0</ele>
        <time>2019-07-07T08:31:21.830Z</time>
      </trkpt>
      <trkpt lat="42.90271667" lon="-0.03123333">
        <ele>637.0</ele>
        <time>2019-07-07T08:31:22.836Z</time>
      </trkpt>
      <trkpt lat="42.90271667" lon="-0.03123333">
        <ele>637.0</ele>
        <time>2019-07-07T08:31:23.819Z</time>
      </trkpt>
      <trkpt lat="42.90289333" lon="-0.03133">
        <ele>637.0</ele>
        <time>2019-07-07T08:31:24.801Z</time>
      </trkpt>
      <trkpt lat="42.90297833" lon="-0.03137667">
        <ele>637.0</ele>
        <time>2019-07-07T08:31:25.833Z</time>
      </trkpt>
      <trkpt lat="42.90297833" lon="-0.03137667">
        <ele>637.0</ele>
        <time>2019-07-07T08:31:26.829Z</time>
      </trkpt>
      <trkpt lat="42.90316" lon="-0.03145667">
        <ele>636.0</ele>
        <time>2019-07-07T08:31:27.807Z</time>
      </trkpt>
      <trkpt lat="42.90316" lon="-0.03145667">
        <ele>636.0</ele>
        <time>2019-07-07T08:31:28.831Z</time>
      </trkpt>
      <trkpt lat="42.903345" lon="-0.03149">
        <ele>636.0</ele>
        <time>2019-07-07T08:31:29.838Z</time>
      </trkpt>
      <trkpt lat="42.903345" lon="-0.03149">
        <ele>636.0</ele>
        <time>2019-07-07T08:31:30.825Z</time>
      </trkpt>
      <trkpt lat="42.90352333" lon="-0.03144">
        <ele>635.0</ele>
        <time>2019-07-07T08:31:31.834Z</time>
      </trkpt>
      <trkpt lat="42.90361" lon="-0.03140333">
        <ele>635.0</ele>
        <time>2019-07-07T08:31:32.833Z</time>
      </trkpt>
      <trkpt lat="42.90361" lon="-0.03140333">
        <ele>635.0</ele>
        <time>2019-07-07T08:31:33.822Z</time>
      </trkpt>
      <trkpt lat="42.90378" lon="-0.03135167">
        <ele>635.0</ele>
        <time>2019-07-07T08:31:34.804Z</time>
      </trkpt>
      <trkpt lat="42.90378" lon="-0.03135167">
        <ele>635.0</ele>
        <time>2019-07-07T08:31:35.811Z</time>
      </trkpt>
      <trkpt lat="42.90395167" lon="-0.031385">
        <ele>635.0</ele>
        <time>2019-07-07T08:31:36.818Z</time>
      </trkpt>
      <trkpt lat="42.90395167" lon="-0.031385">
        <ele>635.0</ele>
        <time>2019-07-07T08:31:37.809Z</time>
      </trkpt>
      <trkpt lat="42.904095" lon="-0.031505">
        <ele>635.0</ele>
        <time>2019-07-07T08:31:38.829Z</time>
      </trkpt>
      <trkpt lat="42.904095" lon="-0.031505">
        <ele>635.0</ele>
        <time>2019-07-07T08:31:39.834Z</time>
      </trkpt>
      <trkpt lat="42.90424" lon="-0.03164333">
        <ele>635.0</ele>
        <time>2019-07-07T08:31:40.840Z</time>
      </trkpt>
      <trkpt lat="42.90430833" lon="-0.031715">
        <ele>635.0</ele>
        <time>2019-07-07T08:31:41.819Z</time>
      </trkpt>
      <trkpt lat="42.90430833" lon="-0.031715">
        <ele>635.0</ele>
        <time>2019-07-07T08:31:42.834Z</time>
      </trkpt>
      <trkpt lat="42.90441833" lon="-0.03190167">
        <ele>634.0</ele>
        <time>2019-07-07T08:31:43.801Z</time>
      </trkpt>
      <trkpt lat="42.90447" lon="-0.03200333">
        <ele>634.0</ele>
        <time>2019-07-07T08:31:44.828Z</time>
      </trkpt>
      <trkpt lat="42.90447" lon="-0.03200333">
        <ele>634.0</ele>
        <time>2019-07-07T08:31:45.814Z</time>
      </trkpt>
      <trkpt lat="42.90458" lon="-0.03221333">
        <ele>634.0</ele>
        <time>2019-07-07T08:31:46.820Z</time>
      </trkpt>
      <trkpt lat="42.90458" lon="-0.03221333">
        <ele>634.0</ele>
        <time>2019-07-07T08:31:47.816Z</time>
      </trkpt>
      <trkpt lat="42.90468" lon="-0.03242667">
        <ele>634.0</ele>
        <time>2019-07-07T08:31:48.825Z</time>
      </trkpt>
      <trkpt lat="42.90468" lon="-0.03242667">
        <ele>634.0</ele>
        <time>2019-07-07T08:31:49.806Z</time>
      </trkpt>
      <trkpt lat="42.90478667" lon="-0.03263667">
        <ele>634.0</ele>
        <time>2019-07-07T08:31:50.820Z</time>
      </trkpt>
      <trkpt lat="42.90484" lon="-0.032735">
        <ele>634.0</ele>
        <time>2019-07-07T08:31:51.824Z</time>
      </trkpt>
      <trkpt lat="42.904895" lon="-0.03283667">
        <ele>634.0</ele>
        <time>2019-07-07T08:31:52.809Z</time>
      </trkpt>
      <trkpt lat="42.904895" lon="-0.03283667">
        <ele>634.0</ele>
        <time>2019-07-07T08:31:53.820Z</time>
      </trkpt>
      <trkpt lat="42.905005" lon="-0.03303333">
        <ele>633.0</ele>
        <time>2019-07-07T08:31:54.827Z</time>
      </trkpt>
      <trkpt lat="42.905005" lon="-0.03303333">
        <ele>633.0</ele>
        <time>2019-07-07T08:31:55.809Z</time>
      </trkpt>
      <trkpt lat="42.90512333" lon="-0.03323">
        <ele>633.0</ele>
        <time>2019-07-07T08:31:56.814Z</time>
      </trkpt>
      <trkpt lat="42.90512333" lon="-0.03323">
        <ele>633.0</ele>
        <time>2019-07-07T08:31:57.820Z</time>
      </trkpt>
      <trkpt lat="42.905255" lon="-0.03343333">
        <ele>633.0</ele>
        <time>2019-07-07T08:31:58.826Z</time>
      </trkpt>
      <trkpt lat="42.905255" lon="-0.03343333">
        <ele>633.0</ele>
        <time>2019-07-07T08:31:59.812Z</time>
      </trkpt>
      <trkpt lat="42.90539833" lon="-0.03363333">
        <ele>633.0</ele>
        <time>2019-07-07T08:32:00.815Z</time>
      </trkpt>
      <trkpt lat="42.90539833" lon="-0.03363333">
        <ele>633.0</ele>
        <time>2019-07-07T08:32:01.825Z</time>
      </trkpt>
      <trkpt lat="42.90553" lon="-0.03382833">
        <ele>633.0</ele>
        <time>2019-07-07T08:32:02.831Z</time>
      </trkpt>
      <trkpt lat="42.90553" lon="-0.03382833">
        <ele>633.0</ele>
        <time>2019-07-07T08:32:03.814Z</time>
      </trkpt>
      <trkpt lat="42.905645" lon="-0.03404">
        <ele>633.0</ele>
        <time>2019-07-07T08:32:04.816Z</time>
      </trkpt>
      <trkpt lat="42.905645" lon="-0.03404">
        <ele>633.0</ele>
        <time>2019-07-07T08:32:05.829Z</time>
      </trkpt>
      <trkpt lat="42.90573833" lon="-0.03426667">
        <ele>632.0</ele>
        <time>2019-07-07T08:32:06.835Z</time>
      </trkpt>
      <trkpt lat="42.90573833" lon="-0.03426667">
        <ele>632.0</ele>
        <time>2019-07-07T08:32:07.824Z</time>
      </trkpt>
      <trkpt lat="42.90583833" lon="-0.03447667">
        <ele>632.0</ele>
        <time>2019-07-07T08:32:08.828Z</time>
      </trkpt>
      <trkpt lat="42.90583833" lon="-0.03447667">
        <ele>632.0</ele>
        <time>2019-07-07T08:32:09.808Z</time>
      </trkpt>
      <trkpt lat="42.90597167" lon="-0.03461167">
        <ele>631.0</ele>
        <time>2019-07-07T08:32:10.814Z</time>
      </trkpt>
      <trkpt lat="42.90605" lon="-0.03463">
        <ele>631.0</ele>
        <time>2019-07-07T08:32:11.815Z</time>
      </trkpt>
      <trkpt lat="42.90605" lon="-0.03463">
        <ele>631.0</ele>
        <time>2019-07-07T08:32:12.840Z</time>
      </trkpt>
      <trkpt lat="42.90621" lon="-0.034605">
        <ele>630.0</ele>
        <time>2019-07-07T08:32:13.808Z</time>
      </trkpt>
      <trkpt lat="42.90621" lon="-0.034605">
        <ele>630.0</ele>
        <time>2019-07-07T08:32:14.835Z</time>
      </trkpt>
      <trkpt lat="42.90636167" lon="-0.03458833">
        <ele>631.0</ele>
        <time>2019-07-07T08:32:15.829Z</time>
      </trkpt>
      <trkpt lat="42.90636167" lon="-0.03458833">
        <ele>631.0</ele>
        <time>2019-07-07T08:32:16.814Z</time>
      </trkpt>
      <trkpt lat="42.90651" lon="-0.03465833">
        <ele>630.0</ele>
        <time>2019-07-07T08:32:17.821Z</time>
      </trkpt>
      <trkpt lat="42.90651" lon="-0.03465833">
        <ele>630.0</ele>
        <time>2019-07-07T08:32:18.806Z</time>
      </trkpt>
      <trkpt lat="42.90664167" lon="-0.03475333">
        <ele>630.0</ele>
        <time>2019-07-07T08:32:19.840Z</time>
      </trkpt>
      <trkpt lat="42.90664167" lon="-0.03475333">
        <ele>630.0</ele>
        <time>2019-07-07T08:32:20.807Z</time>
      </trkpt>
      <trkpt lat="42.90675667" lon="-0.03484">
        <ele>629.0</ele>
        <time>2019-07-07T08:32:21.814Z</time>
      </trkpt>
      <trkpt lat="42.90675667" lon="-0.03484">
        <ele>629.0</ele>
        <time>2019-07-07T08:32:22.830Z</time>
      </trkpt>
      <trkpt lat="42.90687667" lon="-0.03489167">
        <ele>629.0</ele>
        <time>2019-07-07T08:32:23.831Z</time>
      </trkpt>
      <trkpt lat="42.90687667" lon="-0.03489167">
        <ele>629.0</ele>
        <time>2019-07-07T08:32:24.813Z</time>
      </trkpt>
      <trkpt lat="42.90698667" lon="-0.03493667">
        <ele>629.0</ele>
        <time>2019-07-07T08:32:25.843Z</time>
      </trkpt>
      <trkpt lat="42.90704" lon="-0.03496167">
        <ele>629.0</ele>
        <time>2019-07-07T08:32:26.838Z</time>
      </trkpt>
      <trkpt lat="42.90709167" lon="-0.03498333">
        <ele>629.0</ele>
        <time>2019-07-07T08:32:27.830Z</time>
      </trkpt>
      <trkpt lat="42.90709167" lon="-0.03498333">
        <ele>629.0</ele>
        <time>2019-07-07T08:32:28.814Z</time>
      </trkpt>
      <trkpt lat="42.90719333" lon="-0.03503">
        <ele>629.0</ele>
        <time>2019-07-07T08:32:29.820Z</time>
      </trkpt>
      <trkpt lat="42.90719333" lon="-0.03503">
        <ele>629.0</ele>
        <time>2019-07-07T08:32:30.831Z</time>
      </trkpt>
      <trkpt lat="42.90729167" lon="-0.03508833">
        <ele>629.0</ele>
        <time>2019-07-07T08:32:31.819Z</time>
      </trkpt>
      <trkpt lat="42.90729167" lon="-0.03508833">
        <ele>629.0</ele>
        <time>2019-07-07T08:32:32.831Z</time>
      </trkpt>
      <trkpt lat="42.90738333" lon="-0.03516">
        <ele>629.0</ele>
        <time>2019-07-07T08:32:33.838Z</time>
      </trkpt>
      <trkpt lat="42.90738333" lon="-0.03516">
        <ele>629.0</ele>
        <time>2019-07-07T08:32:34.820Z</time>
      </trkpt>
      <trkpt lat="42.90747" lon="-0.03525">
        <ele>630.0</ele>
        <time>2019-07-07T08:32:35.820Z</time>
      </trkpt>
      <trkpt lat="42.90747" lon="-0.03525">
        <ele>630.0</ele>
        <time>2019-07-07T08:32:36.810Z</time>
      </trkpt>
      <trkpt lat="42.90754833" lon="-0.035345">
        <ele>630.0</ele>
        <time>2019-07-07T08:32:37.818Z</time>
      </trkpt>
      <trkpt lat="42.90754833" lon="-0.035345">
        <ele>630.0</ele>
        <time>2019-07-07T08:32:38.827Z</time>
      </trkpt>
      <trkpt lat="42.90763833" lon="-0.03542167">
        <ele>631.0</ele>
        <time>2019-07-07T08:32:39.841Z</time>
      </trkpt>
      <trkpt lat="42.90763833" lon="-0.03542167">
        <ele>631.0</ele>
        <time>2019-07-07T08:32:40.823Z</time>
      </trkpt>
      <trkpt lat="42.90773833" lon="-0.035495">
        <ele>631.0</ele>
        <time>2019-07-07T08:32:41.829Z</time>
      </trkpt>
      <trkpt lat="42.90773833" lon="-0.035495">
        <ele>631.0</ele>
        <time>2019-07-07T08:32:42.816Z</time>
      </trkpt>
      <trkpt lat="42.90784" lon="-0.03556333">
        <ele>632.0</ele>
        <time>2019-07-07T08:32:43.813Z</time>
      </trkpt>
      <trkpt lat="42.90784" lon="-0.03556333">
        <ele>632.0</ele>
        <time>2019-07-07T08:32:44.832Z</time>
      </trkpt>
      <trkpt lat="42.90795" lon="-0.03562167">
        <ele>632.0</ele>
        <time>2019-07-07T08:32:45.840Z</time>
      </trkpt>
      <trkpt lat="42.90800333" lon="-0.03565333">
        <ele>632.0</ele>
        <time>2019-07-07T08:32:46.818Z</time>
      </trkpt>
      <trkpt lat="42.90800333" lon="-0.03565333">
        <ele>632.0</ele>
        <time>2019-07-07T08:32:47.836Z</time>
      </trkpt>
      <trkpt lat="42.908105" lon="-0.03573167">
        <ele>633.0</ele>
        <time>2019-07-07T08:32:48.812Z</time>
      </trkpt>
      <trkpt lat="42.908105" lon="-0.03573167">
        <ele>633.0</ele>
        <time>2019-07-07T08:32:49.818Z</time>
      </trkpt>
      <trkpt lat="42.908205" lon="-0.035815">
        <ele>633.0</ele>
        <time>2019-07-07T08:32:50.818Z</time>
      </trkpt>
      <trkpt lat="42.908205" lon="-0.035815">
        <ele>633.0</ele>
        <time>2019-07-07T08:32:51.836Z</time>
      </trkpt>
      <trkpt lat="42.90830667" lon="-0.03590167">
        <ele>633.0</ele>
        <time>2019-07-07T08:32:52.834Z</time>
      </trkpt>
      <trkpt lat="42.90830667" lon="-0.03590167">
        <ele>633.0</ele>
        <time>2019-07-07T08:32:53.801Z</time>
      </trkpt>
      <trkpt lat="42.90840333" lon="-0.03599333">
        <ele>633.0</ele>
        <time>2019-07-07T08:32:54.812Z</time>
      </trkpt>
      <trkpt lat="42.90840333" lon="-0.03599333">
        <ele>633.0</ele>
        <time>2019-07-07T08:32:55.803Z</time>
      </trkpt>
      <trkpt lat="42.9085" lon="-0.03609">
        <ele>633.0</ele>
        <time>2019-07-07T08:32:56.825Z</time>
      </trkpt>
      <trkpt lat="42.90855" lon="-0.03613667">
        <ele>632.0</ele>
        <time>2019-07-07T08:32:57.822Z</time>
      </trkpt>
      <trkpt lat="42.90855" lon="-0.03613667">
        <ele>632.0</ele>
        <time>2019-07-07T08:32:58.809Z</time>
      </trkpt>
      <trkpt lat="42.90865333" lon="-0.03621333">
        <ele>631.0</ele>
        <time>2019-07-07T08:32:59.814Z</time>
      </trkpt>
      <trkpt lat="42.90865333" lon="-0.03621333">
        <ele>631.0</ele>
        <time>2019-07-07T08:33:00.831Z</time>
      </trkpt>
      <trkpt lat="42.90876167" lon="-0.03628333">
        <ele>631.0</ele>
        <time>2019-07-07T08:33:01.838Z</time>
      </trkpt>
      <trkpt lat="42.90876167" lon="-0.03628333">
        <ele>631.0</ele>
        <time>2019-07-07T08:33:02.820Z</time>
      </trkpt>
      <trkpt lat="42.90886833" lon="-0.03634167">
        <ele>630.0</ele>
        <time>2019-07-07T08:33:03.815Z</time>
      </trkpt>
      <trkpt lat="42.90886833" lon="-0.03634167">
        <ele>630.0</ele>
        <time>2019-07-07T08:33:04.839Z</time>
      </trkpt>
      <trkpt lat="42.90897167" lon="-0.03638667">
        <ele>630.0</ele>
        <time>2019-07-07T08:33:05.815Z</time>
      </trkpt>
      <trkpt lat="42.909025" lon="-0.03641333">
        <ele>630.0</ele>
        <time>2019-07-07T08:33:06.833Z</time>
      </trkpt>
      <trkpt lat="42.909025" lon="-0.03641333">
        <ele>630.0</ele>
        <time>2019-07-07T08:33:07.829Z</time>
      </trkpt>
      <trkpt lat="42.90912667" lon="-0.036465">
        <ele>630.0</ele>
        <time>2019-07-07T08:33:08.835Z</time>
      </trkpt>
      <trkpt lat="42.90917667" lon="-0.036485">
        <ele>630.0</ele>
        <time>2019-07-07T08:33:09.804Z</time>
      </trkpt>
      <trkpt lat="42.90922667" lon="-0.03650667">
        <ele>631.0</ele>
        <time>2019-07-07T08:33:10.833Z</time>
      </trkpt>
      <trkpt lat="42.90922667" lon="-0.03650667">
        <ele>631.0</ele>
        <time>2019-07-07T08:33:11.818Z</time>
      </trkpt>
      <trkpt lat="42.90933" lon="-0.03655167">
        <ele>631.0</ele>
        <time>2019-07-07T08:33:12.824Z</time>
      </trkpt>
      <trkpt lat="42.90933" lon="-0.03655167">
        <ele>631.0</ele>
        <time>2019-07-07T08:33:13.810Z</time>
      </trkpt>
      <trkpt lat="42.90942833" lon="-0.03659">
        <ele>632.0</ele>
        <time>2019-07-07T08:33:14.818Z</time>
      </trkpt>
      <trkpt lat="42.90942833" lon="-0.03659">
        <ele>632.0</ele>
        <time>2019-07-07T08:33:15.817Z</time>
      </trkpt>
      <trkpt lat="42.90954" lon="-0.03659167">
        <ele>631.0</ele>
        <time>2019-07-07T08:33:16.827Z</time>
      </trkpt>
      <trkpt lat="42.90954" lon="-0.03659167">
        <ele>631.0</ele>
        <time>2019-07-07T08:33:17.811Z</time>
      </trkpt>
      <trkpt lat="42.90964333" lon="-0.03659333">
        <ele>631.0</ele>
        <time>2019-07-07T08:33:18.819Z</time>
      </trkpt>
      <trkpt lat="42.90964333" lon="-0.03659333">
        <ele>631.0</ele>
        <time>2019-07-07T08:33:19.809Z</time>
      </trkpt>
      <trkpt lat="42.90975167" lon="-0.03659833">
        <ele>632.0</ele>
        <time>2019-07-07T08:33:20.816Z</time>
      </trkpt>
      <trkpt lat="42.90975167" lon="-0.03659833">
        <ele>632.0</ele>
        <time>2019-07-07T08:33:21.808Z</time>
      </trkpt>
      <trkpt lat="42.90984667" lon="-0.03660833">
        <ele>632.0</ele>
        <time>2019-07-07T08:33:22.818Z</time>
      </trkpt>
      <trkpt lat="42.90989667" lon="-0.03661667">
        <ele>632.0</ele>
        <time>2019-07-07T08:33:23.823Z</time>
      </trkpt>
      <trkpt lat="42.90989667" lon="-0.03661667">
        <ele>632.0</ele>
        <time>2019-07-07T08:33:24.807Z</time>
      </trkpt>
      <trkpt lat="42.90999833" lon="-0.03662667">
        <ele>631.0</ele>
        <time>2019-07-07T08:33:25.814Z</time>
      </trkpt>
      <trkpt lat="42.91005167" lon="-0.03663333">
        <ele>631.0</ele>
        <time>2019-07-07T08:33:26.822Z</time>
      </trkpt>
      <trkpt lat="42.91005167" lon="-0.03663333">
        <ele>631.0</ele>
        <time>2019-07-07T08:33:27.817Z</time>
      </trkpt>
      <trkpt lat="42.91017833" lon="-0.03663833">
        <ele>631.0</ele>
        <time>2019-07-07T08:33:28.824Z</time>
      </trkpt>
      <trkpt lat="42.91017833" lon="-0.03663833">
        <ele>631.0</ele>
        <time>2019-07-07T08:33:29.812Z</time>
      </trkpt>
      <trkpt lat="42.91030333" lon="-0.03665333">
        <ele>632.0</ele>
        <time>2019-07-07T08:33:30.833Z</time>
      </trkpt>
      <trkpt lat="42.91030333" lon="-0.03665333">
        <ele>632.0</ele>
        <time>2019-07-07T08:33:31.825Z</time>
      </trkpt>
      <trkpt lat="42.91043167" lon="-0.03667667">
        <ele>634.0</ele>
        <time>2019-07-07T08:33:32.832Z</time>
      </trkpt>
      <trkpt lat="42.91043167" lon="-0.03667667">
        <ele>634.0</ele>
        <time>2019-07-07T08:33:33.806Z</time>
      </trkpt>
      <trkpt lat="42.910565" lon="-0.03669167">
        <ele>634.0</ele>
        <time>2019-07-07T08:33:34.843Z</time>
      </trkpt>
      <trkpt lat="42.910565" lon="-0.03669167">
        <ele>634.0</ele>
        <time>2019-07-07T08:33:35.822Z</time>
      </trkpt>
      <trkpt lat="42.91069833" lon="-0.03670667">
        <ele>633.0</ele>
        <time>2019-07-07T08:33:36.829Z</time>
      </trkpt>
      <trkpt lat="42.91076833" lon="-0.03672">
        <ele>633.0</ele>
        <time>2019-07-07T08:33:37.843Z</time>
      </trkpt>
      <trkpt lat="42.91076833" lon="-0.03672">
        <ele>633.0</ele>
        <time>2019-07-07T08:33:38.810Z</time>
      </trkpt>
      <trkpt lat="42.910905" lon="-0.03676667">
        <ele>634.0</ele>
        <time>2019-07-07T08:33:39.818Z</time>
      </trkpt>
      <trkpt lat="42.91096167" lon="-0.03681667">
        <ele>635.0</ele>
        <time>2019-07-07T08:33:40.812Z</time>
      </trkpt>
      <trkpt lat="42.91096167" lon="-0.03681667">
        <ele>635.0</ele>
        <time>2019-07-07T08:33:41.838Z</time>
      </trkpt>
      <trkpt lat="42.9111" lon="-0.036895">
        <ele>636.0</ele>
        <time>2019-07-07T08:33:42.814Z</time>
      </trkpt>
      <trkpt lat="42.91116833" lon="-0.03693833">
        <ele>637.0</ele>
        <time>2019-07-07T08:33:43.831Z</time>
      </trkpt>
      <trkpt lat="42.91116833" lon="-0.03693833">
        <ele>637.0</ele>
        <time>2019-07-07T08:33:44.825Z</time>
      </trkpt>
      <trkpt lat="42.91129667" lon="-0.03702667">
        <ele>638.0</ele>
        <time>2019-07-07T08:33:45.832Z</time>
      </trkpt>
      <trkpt lat="42.91136167" lon="-0.03707667">
        <ele>638.0</ele>
        <time>2019-07-07T08:33:46.804Z</time>
      </trkpt>
      <trkpt lat="42.91136167" lon="-0.03707667">
        <ele>638.0</ele>
        <time>2019-07-07T08:33:47.817Z</time>
      </trkpt>
      <trkpt lat="42.91150667" lon="-0.03715667">
        <ele>639.0</ele>
        <time>2019-07-07T08:33:48.833Z</time>
      </trkpt>
      <trkpt lat="42.91150667" lon="-0.03715667">
        <ele>639.0</ele>
        <time>2019-07-07T08:33:49.817Z</time>
      </trkpt>
      <trkpt lat="42.91167167" lon="-0.03719">
        <ele>639.0</ele>
        <time>2019-07-07T08:33:50.824Z</time>
      </trkpt>
      <trkpt lat="42.91175167" lon="-0.03721333">
        <ele>639.0</ele>
        <time>2019-07-07T08:33:51.821Z</time>
      </trkpt>
      <trkpt lat="42.91175167" lon="-0.03721333">
        <ele>639.0</ele>
        <time>2019-07-07T08:33:52.806Z</time>
      </trkpt>
      <trkpt lat="42.91191167" lon="-0.037265">
        <ele>639.0</ele>
        <time>2019-07-07T08:33:53.826Z</time>
      </trkpt>
      <trkpt lat="42.91199167" lon="-0.03729667">
        <ele>639.0</ele>
        <time>2019-07-07T08:33:54.802Z</time>
      </trkpt>
      <trkpt lat="42.91206333" lon="-0.03733333">
        <ele>639.0</ele>
        <time>2019-07-07T08:33:55.815Z</time>
      </trkpt>
      <trkpt lat="42.91206333" lon="-0.03733333">
        <ele>639.0</ele>
        <time>2019-07-07T08:33:56.835Z</time>
      </trkpt>
      <trkpt lat="42.91221333" lon="-0.03739667">
        <ele>639.0</ele>
        <time>2019-07-07T08:33:57.810Z</time>
      </trkpt>
      <trkpt lat="42.91221333" lon="-0.03739667">
        <ele>639.0</ele>
        <time>2019-07-07T08:33:58.830Z</time>
      </trkpt>
      <trkpt lat="42.91238" lon="-0.03742">
        <ele>638.0</ele>
        <time>2019-07-07T08:33:59.838Z</time>
      </trkpt>
      <trkpt lat="42.91246333" lon="-0.03741167">
        <ele>638.0</ele>
        <time>2019-07-07T08:34:00.825Z</time>
      </trkpt>
      <trkpt lat="42.91246333" lon="-0.03741167">
        <ele>638.0</ele>
        <time>2019-07-07T08:34:01.809Z</time>
      </trkpt>
      <trkpt lat="42.91263667" lon="-0.03734833">
        <ele>638.0</ele>
        <time>2019-07-07T08:34:02.816Z</time>
      </trkpt>
      <trkpt lat="42.91263667" lon="-0.03734833">
        <ele>638.0</ele>
        <time>2019-07-07T08:34:03.838Z</time>
      </trkpt>
      <trkpt lat="42.912815" lon="-0.03726167">
        <ele>637.0</ele>
        <time>2019-07-07T08:34:04.823Z</time>
      </trkpt>
      <trkpt lat="42.912815" lon="-0.03726167">
        <ele>637.0</ele>
        <time>2019-07-07T08:34:05.830Z</time>
      </trkpt>
      <trkpt lat="42.913005" lon="-0.03721667">
        <ele>637.0</ele>
        <time>2019-07-07T08:34:06.836Z</time>
      </trkpt>
      <trkpt lat="42.9131" lon="-0.03721333">
        <ele>637.0</ele>
        <time>2019-07-07T08:34:07.802Z</time>
      </trkpt>
      <trkpt lat="42.9131" lon="-0.03721333">
        <ele>637.0</ele>
        <time>2019-07-07T08:34:08.819Z</time>
      </trkpt>
      <trkpt lat="42.91330667" lon="-0.03719667">
        <ele>635.0</ele>
        <time>2019-07-07T08:34:09.826Z</time>
      </trkpt>
      <trkpt lat="42.91330667" lon="-0.03719667">
        <ele>635.0</ele>
        <time>2019-07-07T08:34:10.811Z</time>
      </trkpt>
      <trkpt lat="42.91350833" lon="-0.03711">
        <ele>635.0</ele>
        <time>2019-07-07T08:34:11.804Z</time>
      </trkpt>
      <trkpt lat="42.91360333" lon="-0.03705667">
        <ele>635.0</ele>
        <time>2019-07-07T08:34:12.826Z</time>
      </trkpt>
      <trkpt lat="42.91360333" lon="-0.03705667">
        <ele>635.0</ele>
        <time>2019-07-07T08:34:13.837Z</time>
      </trkpt>
      <trkpt lat="42.91379833" lon="-0.03698667">
        <ele>634.0</ele>
        <time>2019-07-07T08:34:14.814Z</time>
      </trkpt>
      <trkpt lat="42.91379833" lon="-0.03698667">
        <ele>634.0</ele>
        <time>2019-07-07T08:34:15.837Z</time>
      </trkpt>
      <trkpt lat="42.91398667" lon="-0.036995">
        <ele>634.0</ele>
        <time>2019-07-07T08:34:16.803Z</time>
      </trkpt>
      <trkpt lat="42.91407833" lon="-0.03702833">
        <ele>633.0</ele>
        <time>2019-07-07T08:34:17.835Z</time>
      </trkpt>
      <trkpt lat="42.91407833" lon="-0.03702833">
        <ele>633.0</ele>
        <time>2019-07-07T08:34:18.818Z</time>
      </trkpt>
      <trkpt lat="42.91426333" lon="-0.03710333">
        <ele>633.0</ele>
        <time>2019-07-07T08:34:19.826Z</time>
      </trkpt>
      <trkpt lat="42.91435333" lon="-0.037145">
        <ele>633.0</ele>
        <time>2019-07-07T08:34:20.803Z</time>
      </trkpt>
      <trkpt lat="42.91435333" lon="-0.037145">
        <ele>633.0</ele>
        <time>2019-07-07T08:34:21.814Z</time>
      </trkpt>
      <trkpt lat="42.91452833" lon="-0.03723667">
        <ele>633.0</ele>
        <time>2019-07-07T08:34:22.821Z</time>
      </trkpt>
      <trkpt lat="42.91452833" lon="-0.03723667">
        <ele>633.0</ele>
        <time>2019-07-07T08:34:23.836Z</time>
      </trkpt>
      <trkpt lat="42.91469333" lon="-0.03733167">
        <ele>633.0</ele>
        <time>2019-07-07T08:34:24.824Z</time>
      </trkpt>
      <trkpt lat="42.91469333" lon="-0.03733167">
        <ele>633.0</ele>
        <time>2019-07-07T08:34:25.839Z</time>
      </trkpt>
      <trkpt lat="42.91485167" lon="-0.03741667">
        <ele>632.0</ele>
        <time>2019-07-07T08:34:26.805Z</time>
      </trkpt>
      <trkpt lat="42.91485167" lon="-0.03741667">
        <ele>632.0</ele>
        <time>2019-07-07T08:34:27.821Z</time>
      </trkpt>
      <trkpt lat="42.91500667" lon="-0.0375">
        <ele>632.0</ele>
        <time>2019-07-07T08:34:28.834Z</time>
      </trkpt>
      <trkpt lat="42.91500667" lon="-0.0375">
        <ele>632.0</ele>
        <time>2019-07-07T08:34:29.817Z</time>
      </trkpt>
      <trkpt lat="42.91516" lon="-0.03758">
        <ele>632.0</ele>
        <time>2019-07-07T08:34:30.825Z</time>
      </trkpt>
      <trkpt lat="42.91523833" lon="-0.03761667">
        <ele>632.0</ele>
        <time>2019-07-07T08:34:31.833Z</time>
      </trkpt>
      <trkpt lat="42.91523833" lon="-0.03761667">
        <ele>632.0</ele>
        <time>2019-07-07T08:34:32.811Z</time>
      </trkpt>
      <trkpt lat="42.91538667" lon="-0.03769833">
        <ele>632.0</ele>
        <time>2019-07-07T08:34:33.818Z</time>
      </trkpt>
      <trkpt lat="42.91538667" lon="-0.03769833">
        <ele>632.0</ele>
        <time>2019-07-07T08:34:34.835Z</time>
      </trkpt>
      <trkpt lat="42.91553333" lon="-0.037775">
        <ele>632.0</ele>
        <time>2019-07-07T08:34:35.813Z</time>
      </trkpt>
      <trkpt lat="42.91553333" lon="-0.037775">
        <ele>632.0</ele>
        <time>2019-07-07T08:34:36.835Z</time>
      </trkpt>
      <trkpt lat="42.91567333" lon="-0.03785333">
        <ele>632.0</ele>
        <time>2019-07-07T08:34:37.814Z</time>
      </trkpt>
      <trkpt lat="42.91567333" lon="-0.03785333">
        <ele>632.0</ele>
        <time>2019-07-07T08:34:38.823Z</time>
      </trkpt>
      <trkpt lat="42.91581167" lon="-0.037935">
        <ele>631.0</ele>
        <time>2019-07-07T08:34:39.825Z</time>
      </trkpt>
      <trkpt lat="42.91581167" lon="-0.037935">
        <ele>631.0</ele>
        <time>2019-07-07T08:34:40.808Z</time>
      </trkpt>
      <trkpt lat="42.91594667" lon="-0.03799167">
        <ele>631.0</ele>
        <time>2019-07-07T08:34:41.818Z</time>
      </trkpt>
      <trkpt lat="42.91594667" lon="-0.03799167">
        <ele>631.0</ele>
        <time>2019-07-07T08:34:42.826Z</time>
      </trkpt>
      <trkpt lat="42.91608333" lon="-0.03807667">
        <ele>631.0</ele>
        <time>2019-07-07T08:34:43.814Z</time>
      </trkpt>
      <trkpt lat="42.91608333" lon="-0.03807667">
        <ele>631.0</ele>
        <time>2019-07-07T08:34:44.836Z</time>
      </trkpt>
      <trkpt lat="42.91622333" lon="-0.03815167">
        <ele>631.0</ele>
        <time>2019-07-07T08:34:45.812Z</time>
      </trkpt>
      <trkpt lat="42.91629167" lon="-0.038195">
        <ele>631.0</ele>
        <time>2019-07-07T08:34:46.834Z</time>
      </trkpt>
      <trkpt lat="42.91629167" lon="-0.038195">
        <ele>631.0</ele>
        <time>2019-07-07T08:34:47.802Z</time>
      </trkpt>
      <trkpt lat="42.916415" lon="-0.03830833">
        <ele>631.0</ele>
        <time>2019-07-07T08:34:48.815Z</time>
      </trkpt>
      <trkpt lat="42.916415" lon="-0.03830833">
        <ele>631.0</ele>
        <time>2019-07-07T08:34:49.836Z</time>
      </trkpt>
      <trkpt lat="42.91652667" lon="-0.03844667">
        <ele>630.0</ele>
        <time>2019-07-07T08:34:50.815Z</time>
      </trkpt>
      <trkpt lat="42.91652667" lon="-0.03844667">
        <ele>630.0</ele>
        <time>2019-07-07T08:34:51.832Z</time>
      </trkpt>
      <trkpt lat="42.91663" lon="-0.03862333">
        <ele>631.0</ele>
        <time>2019-07-07T08:34:52.817Z</time>
      </trkpt>
      <trkpt lat="42.91663" lon="-0.03862333">
        <ele>631.0</ele>
        <time>2019-07-07T08:34:53.801Z</time>
      </trkpt>
      <trkpt lat="42.91673" lon="-0.03878667">
        <ele>631.0</ele>
        <time>2019-07-07T08:34:54.817Z</time>
      </trkpt>
      <trkpt lat="42.91673" lon="-0.03878667">
        <ele>631.0</ele>
        <time>2019-07-07T08:34:55.838Z</time>
      </trkpt>
      <trkpt lat="42.91683167" lon="-0.03895667">
        <ele>631.0</ele>
        <time>2019-07-07T08:34:56.819Z</time>
      </trkpt>
      <trkpt lat="42.91683167" lon="-0.03895667">
        <ele>631.0</ele>
        <time>2019-07-07T08:34:57.803Z</time>
      </trkpt>
      <trkpt lat="42.91693333" lon="-0.03912167">
        <ele>631.0</ele>
        <time>2019-07-07T08:34:58.809Z</time>
      </trkpt>
      <trkpt lat="42.91698333" lon="-0.03920167">
        <ele>631.0</ele>
        <time>2019-07-07T08:34:59.815Z</time>
      </trkpt>
      <trkpt lat="42.91698333" lon="-0.03920167">
        <ele>631.0</ele>
        <time>2019-07-07T08:35:00.820Z</time>
      </trkpt>
      <trkpt lat="42.91708333" lon="-0.03936">
        <ele>630.0</ele>
        <time>2019-07-07T08:35:01.831Z</time>
      </trkpt>
      <trkpt lat="42.91708333" lon="-0.03936">
        <ele>630.0</ele>
        <time>2019-07-07T08:35:02.820Z</time>
      </trkpt>
      <trkpt lat="42.91719" lon="-0.03951833">
        <ele>630.0</ele>
        <time>2019-07-07T08:35:03.820Z</time>
      </trkpt>
      <trkpt lat="42.91719" lon="-0.03951833">
        <ele>630.0</ele>
        <time>2019-07-07T08:35:04.801Z</time>
      </trkpt>
      <trkpt lat="42.91729833" lon="-0.03967167">
        <ele>630.0</ele>
        <time>2019-07-07T08:35:05.811Z</time>
      </trkpt>
      <trkpt lat="42.91735667" lon="-0.03974833">
        <ele>630.0</ele>
        <time>2019-07-07T08:35:06.823Z</time>
      </trkpt>
      <trkpt lat="42.91742333" lon="-0.03981333">
        <ele>630.0</ele>
        <time>2019-07-07T08:35:07.806Z</time>
      </trkpt>
      <trkpt lat="42.91742333" lon="-0.03981333">
        <ele>630.0</ele>
        <time>2019-07-07T08:35:08.818Z</time>
      </trkpt>
      <trkpt lat="42.91758667" lon="-0.03985833">
        <ele>630.0</ele>
        <time>2019-07-07T08:35:09.835Z</time>
      </trkpt>
      <trkpt lat="42.91767333" lon="-0.03986167">
        <ele>630.0</ele>
        <time>2019-07-07T08:35:10.820Z</time>
      </trkpt>
      <trkpt lat="42.91767333" lon="-0.03986167">
        <ele>630.0</ele>
        <time>2019-07-07T08:35:11.803Z</time>
      </trkpt>
      <trkpt lat="42.91785667" lon="-0.03987">
        <ele>630.0</ele>
        <time>2019-07-07T08:35:12.814Z</time>
      </trkpt>
      <trkpt lat="42.91785667" lon="-0.03987">
        <ele>630.0</ele>
        <time>2019-07-07T08:35:13.837Z</time>
      </trkpt>
      <trkpt lat="42.91804333" lon="-0.03989667">
        <ele>630.0</ele>
        <time>2019-07-07T08:35:14.813Z</time>
      </trkpt>
      <trkpt lat="42.91812333" lon="-0.03994833">
        <ele>629.0</ele>
        <time>2019-07-07T08:35:15.837Z</time>
      </trkpt>
      <trkpt lat="42.91812333" lon="-0.03994833">
        <ele>629.0</ele>
        <time>2019-07-07T08:35:16.813Z</time>
      </trkpt>
      <trkpt lat="42.91827667" lon="-0.04007333">
        <ele>629.0</ele>
        <time>2019-07-07T08:35:17.803Z</time>
      </trkpt>
      <trkpt lat="42.91827667" lon="-0.04007333">
        <ele>629.0</ele>
        <time>2019-07-07T08:35:18.819Z</time>
      </trkpt>
      <trkpt lat="42.91841" lon="-0.04023833">
        <ele>629.0</ele>
        <time>2019-07-07T08:35:19.825Z</time>
      </trkpt>
      <trkpt lat="42.918475" lon="-0.04031667">
        <ele>629.0</ele>
        <time>2019-07-07T08:35:20.810Z</time>
      </trkpt>
      <trkpt lat="42.918475" lon="-0.04031667">
        <ele>629.0</ele>
        <time>2019-07-07T08:35:21.826Z</time>
      </trkpt>
      <trkpt lat="42.91863667" lon="-0.040415">
        <ele>628.0</ele>
        <time>2019-07-07T08:35:22.813Z</time>
      </trkpt>
      <trkpt lat="42.91872167" lon="-0.04039833">
        <ele>628.0</ele>
        <time>2019-07-07T08:35:23.813Z</time>
      </trkpt>
      <trkpt lat="42.91880667" lon="-0.04035833">
        <ele>627.0</ele>
        <time>2019-07-07T08:35:24.828Z</time>
      </trkpt>
      <trkpt lat="42.91880667" lon="-0.04035833">
        <ele>627.0</ele>
        <time>2019-07-07T08:35:25.811Z</time>
      </trkpt>
      <trkpt lat="42.91897" lon="-0.04027333">
        <ele>627.0</ele>
        <time>2019-07-07T08:35:26.817Z</time>
      </trkpt>
      <trkpt lat="42.91897" lon="-0.04027333">
        <ele>627.0</ele>
        <time>2019-07-07T08:35:27.833Z</time>
      </trkpt>
      <trkpt lat="42.91914333" lon="-0.04019833">
        <ele>627.0</ele>
        <time>2019-07-07T08:35:28.818Z</time>
      </trkpt>
      <trkpt lat="42.91924167" lon="-0.04018167">
        <ele>626.0</ele>
        <time>2019-07-07T08:35:29.801Z</time>
      </trkpt>
      <trkpt lat="42.91924167" lon="-0.04018167">
        <ele>626.0</ele>
        <time>2019-07-07T08:35:30.827Z</time>
      </trkpt>
      <trkpt lat="42.91943" lon="-0.04023167">
        <ele>626.0</ele>
        <time>2019-07-07T08:35:31.843Z</time>
      </trkpt>
      <trkpt lat="42.91943" lon="-0.04023167">
        <ele>626.0</ele>
        <time>2019-07-07T08:35:32.838Z</time>
      </trkpt>
      <trkpt lat="42.91962667" lon="-0.04029667">
        <ele>625.0</ele>
        <time>2019-07-07T08:35:33.814Z</time>
      </trkpt>
      <trkpt lat="42.91962667" lon="-0.04029667">
        <ele>625.0</ele>
        <time>2019-07-07T08:35:34.801Z</time>
      </trkpt>
      <trkpt lat="42.91981667" lon="-0.04029667">
        <ele>625.0</ele>
        <time>2019-07-07T08:35:35.816Z</time>
      </trkpt>
      <trkpt lat="42.91981667" lon="-0.04029667">
        <ele>625.0</ele>
        <time>2019-07-07T08:35:36.838Z</time>
      </trkpt>
      <trkpt lat="42.91999667" lon="-0.04028333">
        <ele>625.0</ele>
        <time>2019-07-07T08:35:37.804Z</time>
      </trkpt>
      <trkpt lat="42.91999667" lon="-0.04028333">
        <ele>625.0</ele>
        <time>2019-07-07T08:35:38.827Z</time>
      </trkpt>
      <trkpt lat="42.920185" lon="-0.04031333">
        <ele>624.0</ele>
        <time>2019-07-07T08:35:39.833Z</time>
      </trkpt>
      <trkpt lat="42.92027167" lon="-0.04033333">
        <ele>624.0</ele>
        <time>2019-07-07T08:35:40.833Z</time>
      </trkpt>
      <trkpt lat="42.92027167" lon="-0.04033333">
        <ele>624.0</ele>
        <time>2019-07-07T08:35:41.802Z</time>
      </trkpt>
      <trkpt lat="42.92043833" lon="-0.040395">
        <ele>624.0</ele>
        <time>2019-07-07T08:35:42.813Z</time>
      </trkpt>
      <trkpt lat="42.92051" lon="-0.04044">
        <ele>624.0</ele>
        <time>2019-07-07T08:35:43.814Z</time>
      </trkpt>
      <trkpt lat="42.92058333" lon="-0.040475">
        <ele>623.0</ele>
        <time>2019-07-07T08:35:44.839Z</time>
      </trkpt>
      <trkpt lat="42.92058333" lon="-0.040475">
        <ele>623.0</ele>
        <time>2019-07-07T08:35:45.823Z</time>
      </trkpt>
      <trkpt lat="42.92073333" lon="-0.04052833">
        <ele>623.0</ele>
        <time>2019-07-07T08:35:46.801Z</time>
      </trkpt>
      <trkpt lat="42.92073333" lon="-0.04052833">
        <ele>623.0</ele>
        <time>2019-07-07T08:35:47.840Z</time>
      </trkpt>
      <trkpt lat="42.92073333" lon="-0.04052833">
        <ele>623.0</ele>
        <time>2019-07-07T08:35:48.807Z</time>
      </trkpt>
      <trkpt lat="42.92073333" lon="-0.04052833">
        <ele>623.0</ele>
        <time>2019-07-07T08:35:49.813Z</time>
      </trkpt>
      <trkpt lat="42.92073333" lon="-0.04052833">
        <ele>623.0</ele>
        <time>2019-07-07T08:35:50.839Z</time>
      </trkpt>
      <trkpt lat="42.92111667" lon="-0.040605">
        <ele>622.0</ele>
        <time>2019-07-07T08:35:51.819Z</time>
      </trkpt>
      <trkpt lat="42.92111667" lon="-0.040605">
        <ele>622.0</ele>
        <time>2019-07-07T08:35:52.831Z</time>
      </trkpt>
      <trkpt lat="42.92127667" lon="-0.040625">
        <ele>622.0</ele>
        <time>2019-07-07T08:35:53.837Z</time>
      </trkpt>
      <trkpt lat="42.92127667" lon="-0.040625">
        <ele>622.0</ele>
        <time>2019-07-07T08:35:54.803Z</time>
      </trkpt>
      <trkpt lat="42.92143833" lon="-0.040645">
        <ele>621.0</ele>
        <time>2019-07-07T08:35:55.828Z</time>
      </trkpt>
      <trkpt lat="42.92143833" lon="-0.040645">
        <ele>621.0</ele>
        <time>2019-07-07T08:35:56.811Z</time>
      </trkpt>
      <trkpt lat="42.9216" lon="-0.040665">
        <ele>621.0</ele>
        <time>2019-07-07T08:35:57.819Z</time>
      </trkpt>
      <trkpt lat="42.9216" lon="-0.040665">
        <ele>621.0</ele>
        <time>2019-07-07T08:35:58.801Z</time>
      </trkpt>
      <trkpt lat="42.92175" lon="-0.04066833">
        <ele>621.0</ele>
        <time>2019-07-07T08:35:59.831Z</time>
      </trkpt>
      <trkpt lat="42.92175" lon="-0.04066833">
        <ele>621.0</ele>
        <time>2019-07-07T08:36:00.816Z</time>
      </trkpt>
      <trkpt lat="42.921965" lon="-0.04070667">
        <ele>620.0</ele>
        <time>2019-07-07T08:36:01.823Z</time>
      </trkpt>
      <trkpt lat="42.921965" lon="-0.04070667">
        <ele>620.0</ele>
        <time>2019-07-07T08:36:02.839Z</time>
      </trkpt>
      <trkpt lat="42.922065" lon="-0.04071667">
        <ele>619.0</ele>
        <time>2019-07-07T08:36:03.809Z</time>
      </trkpt>
      <trkpt lat="42.922065" lon="-0.04071667">
        <ele>619.0</ele>
        <time>2019-07-07T08:36:04.832Z</time>
      </trkpt>
      <trkpt lat="42.92221333" lon="-0.04071">
        <ele>619.0</ele>
        <time>2019-07-07T08:36:05.838Z</time>
      </trkpt>
      <trkpt lat="42.92221333" lon="-0.04071">
        <ele>619.0</ele>
        <time>2019-07-07T08:36:06.811Z</time>
      </trkpt>
      <trkpt lat="42.92239167" lon="-0.04073833">
        <ele>619.0</ele>
        <time>2019-07-07T08:36:07.839Z</time>
      </trkpt>
      <trkpt lat="42.92239167" lon="-0.04073833">
        <ele>619.0</ele>
        <time>2019-07-07T08:36:08.817Z</time>
      </trkpt>
      <trkpt lat="42.922585" lon="-0.04072667">
        <ele>618.0</ele>
        <time>2019-07-07T08:36:09.824Z</time>
      </trkpt>
      <trkpt lat="42.92268" lon="-0.04070833">
        <ele>618.0</ele>
        <time>2019-07-07T08:36:10.809Z</time>
      </trkpt>
      <trkpt lat="42.92268" lon="-0.04070833">
        <ele>618.0</ele>
        <time>2019-07-07T08:36:11.832Z</time>
      </trkpt>
      <trkpt lat="42.92287833" lon="-0.040685">
        <ele>617.0</ele>
        <time>2019-07-07T08:36:12.839Z</time>
      </trkpt>
      <trkpt lat="42.92297333" lon="-0.04070833">
        <ele>616.0</ele>
        <time>2019-07-07T08:36:13.823Z</time>
      </trkpt>
      <trkpt lat="42.92297333" lon="-0.04070833">
        <ele>616.0</ele>
        <time>2019-07-07T08:36:14.833Z</time>
      </trkpt>
      <trkpt lat="42.92315833" lon="-0.04076667">
        <ele>615.0</ele>
        <time>2019-07-07T08:36:15.839Z</time>
      </trkpt>
      <trkpt lat="42.92315833" lon="-0.04076667">
        <ele>615.0</ele>
        <time>2019-07-07T08:36:16.823Z</time>
      </trkpt>
      <trkpt lat="42.923355" lon="-0.04083167">
        <ele>615.0</ele>
        <time>2019-07-07T08:36:17.813Z</time>
      </trkpt>
      <trkpt lat="42.923355" lon="-0.04083167">
        <ele>615.0</ele>
        <time>2019-07-07T08:36:18.835Z</time>
      </trkpt>
      <trkpt lat="42.92354833" lon="-0.04086167">
        <ele>616.0</ele>
        <time>2019-07-07T08:36:19.801Z</time>
      </trkpt>
      <trkpt lat="42.92354833" lon="-0.04086167">
        <ele>616.0</ele>
        <time>2019-07-07T08:36:20.833Z</time>
      </trkpt>
      <trkpt lat="42.92374" lon="-0.04081">
        <ele>615.0</ele>
        <time>2019-07-07T08:36:21.824Z</time>
      </trkpt>
      <trkpt lat="42.92374" lon="-0.04081">
        <ele>615.0</ele>
        <time>2019-07-07T08:36:22.830Z</time>
      </trkpt>
      <trkpt lat="42.92393167" lon="-0.04081833">
        <ele>614.0</ele>
        <time>2019-07-07T08:36:23.838Z</time>
      </trkpt>
      <trkpt lat="42.92393167" lon="-0.04081833">
        <ele>614.0</ele>
        <time>2019-07-07T08:36:24.822Z</time>
      </trkpt>
      <trkpt lat="42.92412" lon="-0.04095167">
        <ele>614.0</ele>
        <time>2019-07-07T08:36:25.807Z</time>
      </trkpt>
      <trkpt lat="42.92412" lon="-0.04095167">
        <ele>614.0</ele>
        <time>2019-07-07T08:36:26.823Z</time>
      </trkpt>
      <trkpt lat="42.92428167" lon="-0.04113167">
        <ele>614.0</ele>
        <time>2019-07-07T08:36:27.830Z</time>
      </trkpt>
      <trkpt lat="42.92435833" lon="-0.04122167">
        <ele>613.0</ele>
        <time>2019-07-07T08:36:28.803Z</time>
      </trkpt>
      <trkpt lat="42.92443833" lon="-0.04131">
        <ele>613.0</ele>
        <time>2019-07-07T08:36:29.829Z</time>
      </trkpt>
      <trkpt lat="42.92443833" lon="-0.04131">
        <ele>613.0</ele>
        <time>2019-07-07T08:36:30.815Z</time>
      </trkpt>
      <trkpt lat="42.924615" lon="-0.04147">
        <ele>612.0</ele>
        <time>2019-07-07T08:36:31.829Z</time>
      </trkpt>
      <trkpt lat="42.924615" lon="-0.04147">
        <ele>612.0</ele>
        <time>2019-07-07T08:36:32.812Z</time>
      </trkpt>
      <trkpt lat="42.924785" lon="-0.04164">
        <ele>611.0</ele>
        <time>2019-07-07T08:36:33.819Z</time>
      </trkpt>
      <trkpt lat="42.92487333" lon="-0.04171833">
        <ele>611.0</ele>
        <time>2019-07-07T08:36:34.803Z</time>
      </trkpt>
      <trkpt lat="42.92496167" lon="-0.04179667">
        <ele>611.0</ele>
        <time>2019-07-07T08:36:35.828Z</time>
      </trkpt>
      <trkpt lat="42.92496167" lon="-0.04179667">
        <ele>611.0</ele>
        <time>2019-07-07T08:36:36.815Z</time>
      </trkpt>
      <trkpt lat="42.92514" lon="-0.04193667">
        <ele>610.0</ele>
        <time>2019-07-07T08:36:37.843Z</time>
      </trkpt>
      <trkpt lat="42.92522667" lon="-0.042">
        <ele>609.0</ele>
        <time>2019-07-07T08:36:38.821Z</time>
      </trkpt>
      <trkpt lat="42.92522667" lon="-0.042">
        <ele>609.0</ele>
        <time>2019-07-07T08:36:39.834Z</time>
      </trkpt>
      <trkpt lat="42.9254" lon="-0.042105">
        <ele>608.0</ele>
        <time>2019-07-07T08:36:40.815Z</time>
      </trkpt>
      <trkpt lat="42.9254" lon="-0.042105">
        <ele>608.0</ele>
        <time>2019-07-07T08:36:41.840Z</time>
      </trkpt>
      <trkpt lat="42.92558833" lon="-0.04212667">
        <ele>607.0</ele>
        <time>2019-07-07T08:36:42.824Z</time>
      </trkpt>
      <trkpt lat="42.92558833" lon="-0.04212667">
        <ele>607.0</ele>
        <time>2019-07-07T08:36:43.810Z</time>
      </trkpt>
      <trkpt lat="42.92579167" lon="-0.04205">
        <ele>606.0</ele>
        <time>2019-07-07T08:36:44.817Z</time>
      </trkpt>
      <trkpt lat="42.92586167" lon="-0.04194833">
        <ele>606.0</ele>
        <time>2019-07-07T08:36:45.840Z</time>
      </trkpt>
      <trkpt lat="42.92586167" lon="-0.04194833">
        <ele>606.0</ele>
        <time>2019-07-07T08:36:46.823Z</time>
      </trkpt>
      <trkpt lat="42.92600667" lon="-0.04176167">
        <ele>605.0</ele>
        <time>2019-07-07T08:36:47.827Z</time>
      </trkpt>
      <trkpt lat="42.92600667" lon="-0.04176167">
        <ele>605.0</ele>
        <time>2019-07-07T08:36:48.816Z</time>
      </trkpt>
      <trkpt lat="42.92620333" lon="-0.04162">
        <ele>605.0</ele>
        <time>2019-07-07T08:36:49.822Z</time>
      </trkpt>
      <trkpt lat="42.92620333" lon="-0.04162">
        <ele>605.0</ele>
        <time>2019-07-07T08:36:50.810Z</time>
      </trkpt>
      <trkpt lat="42.92641" lon="-0.041605">
        <ele>604.0</ele>
        <time>2019-07-07T08:36:51.817Z</time>
      </trkpt>
      <trkpt lat="42.92651333" lon="-0.04162">
        <ele>604.0</ele>
        <time>2019-07-07T08:36:52.833Z</time>
      </trkpt>
      <trkpt lat="42.92651333" lon="-0.04162">
        <ele>604.0</ele>
        <time>2019-07-07T08:36:53.818Z</time>
      </trkpt>
      <trkpt lat="42.926735" lon="-0.04165">
        <ele>603.0</ele>
        <time>2019-07-07T08:36:54.824Z</time>
      </trkpt>
      <trkpt lat="42.926735" lon="-0.04165">
        <ele>603.0</ele>
        <time>2019-07-07T08:36:55.840Z</time>
      </trkpt>
      <trkpt lat="42.92696667" lon="-0.041685">
        <ele>602.0</ele>
        <time>2019-07-07T08:36:56.813Z</time>
      </trkpt>
      <trkpt lat="42.92696667" lon="-0.041685">
        <ele>602.0</ele>
        <time>2019-07-07T08:36:57.823Z</time>
      </trkpt>
      <trkpt lat="42.927205" lon="-0.04174667">
        <ele>601.0</ele>
        <time>2019-07-07T08:36:58.830Z</time>
      </trkpt>
      <trkpt lat="42.927205" lon="-0.04174667">
        <ele>601.0</ele>
        <time>2019-07-07T08:36:59.813Z</time>
      </trkpt>
      <trkpt lat="42.927445" lon="-0.04182833">
        <ele>600.0</ele>
        <time>2019-07-07T08:37:00.837Z</time>
      </trkpt>
      <trkpt lat="42.927445" lon="-0.04182833">
        <ele>600.0</ele>
        <time>2019-07-07T08:37:01.818Z</time>
      </trkpt>
      <trkpt lat="42.92768667" lon="-0.04190667">
        <ele>599.0</ele>
        <time>2019-07-07T08:37:02.832Z</time>
      </trkpt>
      <trkpt lat="42.92780667" lon="-0.04195833">
        <ele>598.0</ele>
        <time>2019-07-07T08:37:03.807Z</time>
      </trkpt>
      <trkpt lat="42.92780667" lon="-0.04195833">
        <ele>598.0</ele>
        <time>2019-07-07T08:37:04.821Z</time>
      </trkpt>
      <trkpt lat="42.92802833" lon="-0.04206667">
        <ele>597.0</ele>
        <time>2019-07-07T08:37:05.813Z</time>
      </trkpt>
      <trkpt lat="42.92802833" lon="-0.04206667">
        <ele>597.0</ele>
        <time>2019-07-07T08:37:06.816Z</time>
      </trkpt>
      <trkpt lat="42.92824" lon="-0.04218">
        <ele>596.0</ele>
        <time>2019-07-07T08:37:07.823Z</time>
      </trkpt>
      <trkpt lat="42.92834667" lon="-0.04224667">
        <ele>595.0</ele>
        <time>2019-07-07T08:37:08.818Z</time>
      </trkpt>
      <trkpt lat="42.92834667" lon="-0.04224667">
        <ele>595.0</ele>
        <time>2019-07-07T08:37:09.826Z</time>
      </trkpt>
      <trkpt lat="42.92855" lon="-0.042395">
        <ele>594.0</ele>
        <time>2019-07-07T08:37:10.832Z</time>
      </trkpt>
      <trkpt lat="42.92855" lon="-0.042395">
        <ele>594.0</ele>
        <time>2019-07-07T08:37:11.822Z</time>
      </trkpt>
      <trkpt lat="42.92872" lon="-0.04257">
        <ele>594.0</ele>
        <time>2019-07-07T08:37:12.828Z</time>
      </trkpt>
      <trkpt lat="42.92872" lon="-0.04257">
        <ele>594.0</ele>
        <time>2019-07-07T08:37:13.812Z</time>
      </trkpt>
      <trkpt lat="42.92890167" lon="-0.04276">
        <ele>593.0</ele>
        <time>2019-07-07T08:37:14.820Z</time>
      </trkpt>
      <trkpt lat="42.92890167" lon="-0.04276">
        <ele>593.0</ele>
        <time>2019-07-07T08:37:15.802Z</time>
      </trkpt>
      <trkpt lat="42.92909" lon="-0.042935">
        <ele>592.0</ele>
        <time>2019-07-07T08:37:16.808Z</time>
      </trkpt>
      <trkpt lat="42.92909" lon="-0.042935">
        <ele>592.0</ele>
        <time>2019-07-07T08:37:17.832Z</time>
      </trkpt>
      <trkpt lat="42.92928333" lon="-0.04310167">
        <ele>590.0</ele>
        <time>2019-07-07T08:37:18.831Z</time>
      </trkpt>
      <trkpt lat="42.92928333" lon="-0.04310167">
        <ele>590.0</ele>
        <time>2019-07-07T08:37:19.813Z</time>
      </trkpt>
      <trkpt lat="42.92944667" lon="-0.04339667">
        <ele>588.0</ele>
        <time>2019-07-07T08:37:20.832Z</time>
      </trkpt>
      <trkpt lat="42.92953333" lon="-0.043525">
        <ele>588.0</ele>
        <time>2019-07-07T08:37:21.815Z</time>
      </trkpt>
      <trkpt lat="42.92953333" lon="-0.043525">
        <ele>588.0</ele>
        <time>2019-07-07T08:37:22.832Z</time>
      </trkpt>
      <trkpt lat="42.92966" lon="-0.04384167">
        <ele>586.0</ele>
        <time>2019-07-07T08:37:23.801Z</time>
      </trkpt>
      <trkpt lat="42.92970667" lon="-0.04399167">
        <ele>585.0</ele>
        <time>2019-07-07T08:37:24.832Z</time>
      </trkpt>
      <trkpt lat="42.92970667" lon="-0.04399167">
        <ele>585.0</ele>
        <time>2019-07-07T08:37:25.816Z</time>
      </trkpt>
      <trkpt lat="42.929805" lon="-0.04429">
        <ele>583.0</ele>
        <time>2019-07-07T08:37:26.823Z</time>
      </trkpt>
      <trkpt lat="42.929805" lon="-0.04429">
        <ele>583.0</ele>
        <time>2019-07-07T08:37:27.837Z</time>
      </trkpt>
      <trkpt lat="42.92992333" lon="-0.04458833">
        <ele>581.0</ele>
        <time>2019-07-07T08:37:28.813Z</time>
      </trkpt>
      <trkpt lat="42.92992333" lon="-0.04458833">
        <ele>581.0</ele>
        <time>2019-07-07T08:37:29.813Z</time>
      </trkpt>
      <trkpt lat="42.93005167" lon="-0.04488667">
        <ele>579.0</ele>
        <time>2019-07-07T08:37:30.820Z</time>
      </trkpt>
      <trkpt lat="42.93012" lon="-0.04503167">
        <ele>578.0</ele>
        <time>2019-07-07T08:37:31.823Z</time>
      </trkpt>
      <trkpt lat="42.93019833" lon="-0.04516167">
        <ele>576.0</ele>
        <time>2019-07-07T08:37:32.840Z</time>
      </trkpt>
      <trkpt lat="42.93019833" lon="-0.04516167">
        <ele>576.0</ele>
        <time>2019-07-07T08:37:33.836Z</time>
      </trkpt>
      <trkpt lat="42.93038167" lon="-0.04540833">
        <ele>574.0</ele>
        <time>2019-07-07T08:37:34.814Z</time>
      </trkpt>
      <trkpt lat="42.93038167" lon="-0.04540833">
        <ele>574.0</ele>
        <time>2019-07-07T08:37:35.837Z</time>
      </trkpt>
      <trkpt lat="42.93057167" lon="-0.045655">
        <ele>572.0</ele>
        <time>2019-07-07T08:37:36.805Z</time>
      </trkpt>
      <trkpt lat="42.93057167" lon="-0.045655">
        <ele>572.0</ele>
        <time>2019-07-07T08:37:37.829Z</time>
      </trkpt>
      <trkpt lat="42.93077" lon="-0.04587167">
        <ele>571.0</ele>
        <time>2019-07-07T08:37:38.835Z</time>
      </trkpt>
      <trkpt lat="42.93077" lon="-0.04587167">
        <ele>571.0</ele>
        <time>2019-07-07T08:37:39.806Z</time>
      </trkpt>
      <trkpt lat="42.93098667" lon="-0.04602667">
        <ele>569.0</ele>
        <time>2019-07-07T08:37:40.824Z</time>
      </trkpt>
      <trkpt lat="42.93098667" lon="-0.04602667">
        <ele>569.0</ele>
        <time>2019-07-07T08:37:41.812Z</time>
      </trkpt>
      <trkpt lat="42.93120667" lon="-0.04608833">
        <ele>567.0</ele>
        <time>2019-07-07T08:37:42.820Z</time>
      </trkpt>
      <trkpt lat="42.93131667" lon="-0.046075">
        <ele>567.0</ele>
        <time>2019-07-07T08:37:43.813Z</time>
      </trkpt>
      <trkpt lat="42.93131667" lon="-0.046075">
        <ele>567.0</ele>
        <time>2019-07-07T08:37:44.837Z</time>
      </trkpt>
      <trkpt lat="42.93153833" lon="-0.046035">
        <ele>565.0</ele>
        <time>2019-07-07T08:37:45.806Z</time>
      </trkpt>
      <trkpt lat="42.93164833" lon="-0.046035">
        <ele>564.0</ele>
        <time>2019-07-07T08:37:46.830Z</time>
      </trkpt>
      <trkpt lat="42.93175667" lon="-0.046045">
        <ele>563.0</ele>
        <time>2019-07-07T08:37:47.806Z</time>
      </trkpt>
      <trkpt lat="42.93175667" lon="-0.046045">
        <ele>563.0</ele>
        <time>2019-07-07T08:37:48.822Z</time>
      </trkpt>
      <trkpt lat="42.931975" lon="-0.04608667">
        <ele>561.0</ele>
        <time>2019-07-07T08:37:49.828Z</time>
      </trkpt>
      <trkpt lat="42.93208667" lon="-0.04611333">
        <ele>560.0</ele>
        <time>2019-07-07T08:37:50.818Z</time>
      </trkpt>
      <trkpt lat="42.93208667" lon="-0.04611333">
        <ele>560.0</ele>
        <time>2019-07-07T08:37:51.841Z</time>
      </trkpt>
      <trkpt lat="42.93231" lon="-0.04620167">
        <ele>559.0</ele>
        <time>2019-07-07T08:37:52.817Z</time>
      </trkpt>
      <trkpt lat="42.93231" lon="-0.04620167">
        <ele>559.0</ele>
        <time>2019-07-07T08:37:53.839Z</time>
      </trkpt>
      <trkpt lat="42.93252" lon="-0.04632">
        <ele>558.0</ele>
        <time>2019-07-07T08:37:54.821Z</time>
      </trkpt>
      <trkpt lat="42.93252" lon="-0.04632">
        <ele>558.0</ele>
        <time>2019-07-07T08:37:55.838Z</time>
      </trkpt>
      <trkpt lat="42.93272667" lon="-0.04642667">
        <ele>558.0</ele>
        <time>2019-07-07T08:37:56.804Z</time>
      </trkpt>
      <trkpt lat="42.932835" lon="-0.046465">
        <ele>557.0</ele>
        <time>2019-07-07T08:37:57.813Z</time>
      </trkpt>
      <trkpt lat="42.932835" lon="-0.046465">
        <ele>557.0</ele>
        <time>2019-07-07T08:37:58.801Z</time>
      </trkpt>
      <trkpt lat="42.93302333" lon="-0.04662">
        <ele>557.0</ele>
        <time>2019-07-07T08:37:59.817Z</time>
      </trkpt>
      <trkpt lat="42.93312333" lon="-0.04668333">
        <ele>556.0</ele>
        <time>2019-07-07T08:38:00.809Z</time>
      </trkpt>
      <trkpt lat="42.93312333" lon="-0.04668333">
        <ele>556.0</ele>
        <time>2019-07-07T08:38:01.832Z</time>
      </trkpt>
      <trkpt lat="42.93332667" lon="-0.04682333">
        <ele>555.0</ele>
        <time>2019-07-07T08:38:02.842Z</time>
      </trkpt>
      <trkpt lat="42.93332667" lon="-0.04682333">
        <ele>555.0</ele>
        <time>2019-07-07T08:38:03.823Z</time>
      </trkpt>
      <trkpt lat="42.933535" lon="-0.04694667">
        <ele>554.0</ele>
        <time>2019-07-07T08:38:04.867Z</time>
      </trkpt>
      <trkpt lat="42.933535" lon="-0.04694667">
        <ele>554.0</ele>
        <time>2019-07-07T08:38:05.832Z</time>
      </trkpt>
      <trkpt lat="42.93373167" lon="-0.04709">
        <ele>553.0</ele>
        <time>2019-07-07T08:38:06.840Z</time>
      </trkpt>
      <trkpt lat="42.93383333" lon="-0.04715833">
        <ele>553.0</ele>
        <time>2019-07-07T08:38:07.824Z</time>
      </trkpt>
      <trkpt lat="42.93383333" lon="-0.04715833">
        <ele>553.0</ele>
        <time>2019-07-07T08:38:08.810Z</time>
      </trkpt>
      <trkpt lat="42.93402" lon="-0.04731167">
        <ele>552.0</ele>
        <time>2019-07-07T08:38:09.826Z</time>
      </trkpt>
      <trkpt lat="42.93410667" lon="-0.04739667">
        <ele>552.0</ele>
        <time>2019-07-07T08:38:10.833Z</time>
      </trkpt>
      <trkpt lat="42.93410667" lon="-0.04739667">
        <ele>552.0</ele>
        <time>2019-07-07T08:38:11.807Z</time>
      </trkpt>
      <trkpt lat="42.93429833" lon="-0.04753">
        <ele>551.0</ele>
        <time>2019-07-07T08:38:12.817Z</time>
      </trkpt>
      <trkpt lat="42.934385" lon="-0.04759333">
        <ele>551.0</ele>
        <time>2019-07-07T08:38:13.841Z</time>
      </trkpt>
      <trkpt lat="42.934385" lon="-0.04759333">
        <ele>551.0</ele>
        <time>2019-07-07T08:38:14.824Z</time>
      </trkpt>
      <trkpt lat="42.93452" lon="-0.04774333">
        <ele>550.0</ele>
        <time>2019-07-07T08:38:15.831Z</time>
      </trkpt>
      <trkpt lat="42.93457833" lon="-0.04781167">
        <ele>549.0</ele>
        <time>2019-07-07T08:38:16.807Z</time>
      </trkpt>
      <trkpt lat="42.93463667" lon="-0.047885">
        <ele>548.0</ele>
        <time>2019-07-07T08:38:17.832Z</time>
      </trkpt>
      <trkpt lat="42.93463667" lon="-0.047885">
        <ele>548.0</ele>
        <time>2019-07-07T08:38:18.815Z</time>
      </trkpt>
      <trkpt lat="42.93477667" lon="-0.04801167">
        <ele>547.0</ele>
        <time>2019-07-07T08:38:19.818Z</time>
      </trkpt>
      <trkpt lat="42.93485667" lon="-0.04806833">
        <ele>546.0</ele>
        <time>2019-07-07T08:38:20.802Z</time>
      </trkpt>
      <trkpt lat="42.93485667" lon="-0.04806833">
        <ele>546.0</ele>
        <time>2019-07-07T08:38:21.827Z</time>
      </trkpt>
      <trkpt lat="42.93504333" lon="-0.048135">
        <ele>545.0</ele>
        <time>2019-07-07T08:38:22.836Z</time>
      </trkpt>
      <trkpt lat="42.93504333" lon="-0.048135">
        <ele>545.0</ele>
        <time>2019-07-07T08:38:23.831Z</time>
      </trkpt>
      <trkpt lat="42.93488" lon="-0.048835">
        <ele>545.0</ele>
        <time>2019-07-07T08:38:24.833Z</time>
      </trkpt>
      <trkpt lat="42.93488" lon="-0.048835">
        <ele>545.0</ele>
        <time>2019-07-07T08:38:25.815Z</time>
      </trkpt>
      <trkpt lat="42.93502667" lon="-0.048845">
        <ele>544.0</ele>
        <time>2019-07-07T08:38:26.822Z</time>
      </trkpt>
      <trkpt lat="42.93502667" lon="-0.048845">
        <ele>544.0</ele>
        <time>2019-07-07T08:38:27.803Z</time>
      </trkpt>
      <trkpt lat="42.93521833" lon="-0.04875833">
        <ele>543.0</ele>
        <time>2019-07-07T08:38:28.817Z</time>
      </trkpt>
      <trkpt lat="42.93521833" lon="-0.04875833">
        <ele>543.0</ele>
        <time>2019-07-07T08:38:29.832Z</time>
      </trkpt>
      <trkpt lat="42.935425" lon="-0.048655">
        <ele>541.0</ele>
        <time>2019-07-07T08:38:30.840Z</time>
      </trkpt>
      <trkpt lat="42.93553667" lon="-0.048605">
        <ele>541.0</ele>
        <time>2019-07-07T08:38:31.825Z</time>
      </trkpt>
      <trkpt lat="42.93553667" lon="-0.048605">
        <ele>541.0</ele>
        <time>2019-07-07T08:38:32.808Z</time>
      </trkpt>
      <trkpt lat="42.93575167" lon="-0.04853833">
        <ele>539.0</ele>
        <time>2019-07-07T08:38:33.820Z</time>
      </trkpt>
      <trkpt lat="42.93583667" lon="-0.04852333">
        <ele>538.0</ele>
        <time>2019-07-07T08:38:34.837Z</time>
      </trkpt>
      <trkpt lat="42.93583667" lon="-0.04852333">
        <ele>538.0</ele>
        <time>2019-07-07T08:38:35.822Z</time>
      </trkpt>
      <trkpt lat="42.93603333" lon="-0.04850167">
        <ele>537.0</ele>
        <time>2019-07-07T08:38:36.830Z</time>
      </trkpt>
      <trkpt lat="42.93614333" lon="-0.048505">
        <ele>538.0</ele>
        <time>2019-07-07T08:38:37.809Z</time>
      </trkpt>
      <trkpt lat="42.93614333" lon="-0.048505">
        <ele>538.0</ele>
        <time>2019-07-07T08:38:38.826Z</time>
      </trkpt>
      <trkpt lat="42.93632833" lon="-0.04848667">
        <ele>537.0</ele>
        <time>2019-07-07T08:38:39.838Z</time>
      </trkpt>
      <trkpt lat="42.93641667" lon="-0.04848333">
        <ele>537.0</ele>
        <time>2019-07-07T08:38:40.833Z</time>
      </trkpt>
      <trkpt lat="42.93641667" lon="-0.04848333">
        <ele>537.0</ele>
        <time>2019-07-07T08:38:41.817Z</time>
      </trkpt>
      <trkpt lat="42.93660167" lon="-0.04856167">
        <ele>537.0</ele>
        <time>2019-07-07T08:38:42.824Z</time>
      </trkpt>
      <trkpt lat="42.93660167" lon="-0.04856167">
        <ele>537.0</ele>
        <time>2019-07-07T08:38:43.805Z</time>
      </trkpt>
      <trkpt lat="42.936765" lon="-0.04872167">
        <ele>536.0</ele>
        <time>2019-07-07T08:38:44.829Z</time>
      </trkpt>
      <trkpt lat="42.93683" lon="-0.04883">
        <ele>536.0</ele>
        <time>2019-07-07T08:38:45.826Z</time>
      </trkpt>
      <trkpt lat="42.93683" lon="-0.04883">
        <ele>536.0</ele>
        <time>2019-07-07T08:38:46.838Z</time>
      </trkpt>
      <trkpt lat="42.93694333" lon="-0.04905333">
        <ele>536.0</ele>
        <time>2019-07-07T08:38:47.825Z</time>
      </trkpt>
      <trkpt lat="42.93700833" lon="-0.04916667">
        <ele>535.0</ele>
        <time>2019-07-07T08:38:48.814Z</time>
      </trkpt>
      <trkpt lat="42.93700833" lon="-0.04916667">
        <ele>535.0</ele>
        <time>2019-07-07T08:38:49.836Z</time>
      </trkpt>
      <trkpt lat="42.937165" lon="-0.04935667">
        <ele>534.0</ele>
        <time>2019-07-07T08:38:50.804Z</time>
      </trkpt>
      <trkpt lat="42.937165" lon="-0.04935667">
        <ele>534.0</ele>
        <time>2019-07-07T08:38:51.824Z</time>
      </trkpt>
      <trkpt lat="42.937345" lon="-0.04952">
        <ele>533.0</ele>
        <time>2019-07-07T08:38:52.813Z</time>
      </trkpt>
      <trkpt lat="42.937345" lon="-0.04952">
        <ele>533.0</ele>
        <time>2019-07-07T08:38:53.819Z</time>
      </trkpt>
      <trkpt lat="42.93754167" lon="-0.04962333">
        <ele>532.0</ele>
        <time>2019-07-07T08:38:54.826Z</time>
      </trkpt>
      <trkpt lat="42.93754167" lon="-0.04962333">
        <ele>532.0</ele>
        <time>2019-07-07T08:38:55.806Z</time>
      </trkpt>
      <trkpt lat="42.93773167" lon="-0.04973">
        <ele>531.0</ele>
        <time>2019-07-07T08:38:56.817Z</time>
      </trkpt>
      <trkpt lat="42.93782833" lon="-0.04978">
        <ele>531.0</ele>
        <time>2019-07-07T08:38:57.803Z</time>
      </trkpt>
      <trkpt lat="42.93782833" lon="-0.04978">
        <ele>531.0</ele>
        <time>2019-07-07T08:38:58.814Z</time>
      </trkpt>
      <trkpt lat="42.93800667" lon="-0.04988667">
        <ele>530.0</ele>
        <time>2019-07-07T08:38:59.824Z</time>
      </trkpt>
      <trkpt lat="42.93800667" lon="-0.04988667">
        <ele>530.0</ele>
        <time>2019-07-07T08:39:00.816Z</time>
      </trkpt>
      <trkpt lat="42.93818667" lon="-0.04998167">
        <ele>529.0</ele>
        <time>2019-07-07T08:39:01.829Z</time>
      </trkpt>
      <trkpt lat="42.93818667" lon="-0.04998167">
        <ele>529.0</ele>
        <time>2019-07-07T08:39:02.815Z</time>
      </trkpt>
      <trkpt lat="42.93835833" lon="-0.05009167">
        <ele>529.0</ele>
        <time>2019-07-07T08:39:03.825Z</time>
      </trkpt>
      <trkpt lat="42.93843333" lon="-0.05016333">
        <ele>528.0</ele>
        <time>2019-07-07T08:39:04.817Z</time>
      </trkpt>
      <trkpt lat="42.93843333" lon="-0.05016333">
        <ele>528.0</ele>
        <time>2019-07-07T08:39:05.801Z</time>
      </trkpt>
      <trkpt lat="42.93859833" lon="-0.05028333">
        <ele>528.0</ele>
        <time>2019-07-07T08:39:06.819Z</time>
      </trkpt>
      <trkpt lat="42.938685" lon="-0.05033833">
        <ele>527.0</ele>
        <time>2019-07-07T08:39:07.803Z</time>
      </trkpt>
      <trkpt lat="42.938685" lon="-0.05033833">
        <ele>527.0</ele>
        <time>2019-07-07T08:39:08.812Z</time>
      </trkpt>
      <trkpt lat="42.93884667" lon="-0.05045333">
        <ele>527.0</ele>
        <time>2019-07-07T08:39:09.819Z</time>
      </trkpt>
      <trkpt lat="42.93884667" lon="-0.05045333">
        <ele>527.0</ele>
        <time>2019-07-07T08:39:10.836Z</time>
      </trkpt>
      <trkpt lat="42.93898667" lon="-0.05060167">
        <ele>526.0</ele>
        <time>2019-07-07T08:39:11.804Z</time>
      </trkpt>
      <trkpt lat="42.93898667" lon="-0.05060167">
        <ele>526.0</ele>
        <time>2019-07-07T08:39:12.815Z</time>
      </trkpt>
      <trkpt lat="42.93912" lon="-0.05077167">
        <ele>525.0</ele>
        <time>2019-07-07T08:39:13.837Z</time>
      </trkpt>
      <trkpt lat="42.93912" lon="-0.05077167">
        <ele>525.0</ele>
        <time>2019-07-07T08:39:14.814Z</time>
      </trkpt>
      <trkpt lat="42.93923833" lon="-0.05096">
        <ele>525.0</ele>
        <time>2019-07-07T08:39:15.832Z</time>
      </trkpt>
      <trkpt lat="42.93923833" lon="-0.05096">
        <ele>525.0</ele>
        <time>2019-07-07T08:39:16.840Z</time>
      </trkpt>
      <trkpt lat="42.93931833" lon="-0.05120833">
        <ele>524.0</ele>
        <time>2019-07-07T08:39:17.809Z</time>
      </trkpt>
      <trkpt lat="42.93931833" lon="-0.05120833">
        <ele>524.0</ele>
        <time>2019-07-07T08:39:18.832Z</time>
      </trkpt>
      <trkpt lat="42.93937833" lon="-0.05145667">
        <ele>523.0</ele>
        <time>2019-07-07T08:39:19.832Z</time>
      </trkpt>
      <trkpt lat="42.93940667" lon="-0.051585">
        <ele>523.0</ele>
        <time>2019-07-07T08:39:20.818Z</time>
      </trkpt>
      <trkpt lat="42.93940667" lon="-0.051585">
        <ele>523.0</ele>
        <time>2019-07-07T08:39:21.837Z</time>
      </trkpt>
      <trkpt lat="42.93945667" lon="-0.05184167">
        <ele>522.0</ele>
        <time>2019-07-07T08:39:22.814Z</time>
      </trkpt>
      <trkpt lat="42.93945667" lon="-0.05184167">
        <ele>522.0</ele>
        <time>2019-07-07T08:39:23.836Z</time>
      </trkpt>
      <trkpt lat="42.93950667" lon="-0.05210833">
        <ele>521.0</ele>
        <time>2019-07-07T08:39:24.811Z</time>
      </trkpt>
      <trkpt lat="42.93950667" lon="-0.05210833">
        <ele>521.0</ele>
        <time>2019-07-07T08:39:25.832Z</time>
      </trkpt>
      <trkpt lat="42.93958667" lon="-0.05236833">
        <ele>520.0</ele>
        <time>2019-07-07T08:39:26.839Z</time>
      </trkpt>
      <trkpt lat="42.93958667" lon="-0.05236833">
        <ele>520.0</ele>
        <time>2019-07-07T08:39:27.815Z</time>
      </trkpt>
      <trkpt lat="42.93967667" lon="-0.05262667">
        <ele>519.0</ele>
        <time>2019-07-07T08:39:28.818Z</time>
      </trkpt>
      <trkpt lat="42.93967667" lon="-0.05262667">
        <ele>519.0</ele>
        <time>2019-07-07T08:39:29.840Z</time>
      </trkpt>
      <trkpt lat="42.93977167" lon="-0.05286667">
        <ele>519.0</ele>
        <time>2019-07-07T08:39:30.807Z</time>
      </trkpt>
      <trkpt lat="42.939825" lon="-0.05296833">
        <ele>518.0</ele>
        <time>2019-07-07T08:39:31.817Z</time>
      </trkpt>
      <trkpt lat="42.939825" lon="-0.05296833">
        <ele>518.0</ele>
        <time>2019-07-07T08:39:32.802Z</time>
      </trkpt>
      <trkpt lat="42.93996" lon="-0.05315333">
        <ele>518.0</ele>
        <time>2019-07-07T08:39:33.819Z</time>
      </trkpt>
      <trkpt lat="42.93996" lon="-0.05315333">
        <ele>518.0</ele>
        <time>2019-07-07T08:39:34.838Z</time>
      </trkpt>
      <trkpt lat="42.940145" lon="-0.05325667">
        <ele>517.0</ele>
        <time>2019-07-07T08:39:35.805Z</time>
      </trkpt>
      <trkpt lat="42.940145" lon="-0.05325667">
        <ele>517.0</ele>
        <time>2019-07-07T08:39:36.829Z</time>
      </trkpt>
      <trkpt lat="42.940335" lon="-0.053275">
        <ele>517.0</ele>
        <time>2019-07-07T08:39:37.805Z</time>
      </trkpt>
      <trkpt lat="42.940335" lon="-0.053275">
        <ele>517.0</ele>
        <time>2019-07-07T08:39:38.826Z</time>
      </trkpt>
      <trkpt lat="42.94051833" lon="-0.05316167">
        <ele>516.0</ele>
        <time>2019-07-07T08:39:39.832Z</time>
      </trkpt>
      <trkpt lat="42.9406" lon="-0.05306667">
        <ele>515.0</ele>
        <time>2019-07-07T08:39:40.825Z</time>
      </trkpt>
      <trkpt lat="42.9406" lon="-0.05306667">
        <ele>515.0</ele>
        <time>2019-07-07T08:39:41.811Z</time>
      </trkpt>
      <trkpt lat="42.940755" lon="-0.05287833">
        <ele>515.0</ele>
        <time>2019-07-07T08:39:42.818Z</time>
      </trkpt>
      <trkpt lat="42.940755" lon="-0.05287833">
        <ele>515.0</ele>
        <time>2019-07-07T08:39:43.832Z</time>
      </trkpt>
      <trkpt lat="42.94090167" lon="-0.05269667">
        <ele>514.0</ele>
        <time>2019-07-07T08:39:44.807Z</time>
      </trkpt>
      <trkpt lat="42.94090167" lon="-0.05269667">
        <ele>514.0</ele>
        <time>2019-07-07T08:39:45.830Z</time>
      </trkpt>
      <trkpt lat="42.94106" lon="-0.05252333">
        <ele>513.0</ele>
        <time>2019-07-07T08:39:46.837Z</time>
      </trkpt>
      <trkpt lat="42.94106" lon="-0.05252333">
        <ele>513.0</ele>
        <time>2019-07-07T08:39:47.806Z</time>
      </trkpt>
      <trkpt lat="42.94120333" lon="-0.05236333">
        <ele>513.0</ele>
        <time>2019-07-07T08:39:48.819Z</time>
      </trkpt>
      <trkpt lat="42.94127833" lon="-0.05228833">
        <ele>512.0</ele>
        <time>2019-07-07T08:39:49.805Z</time>
      </trkpt>
      <trkpt lat="42.94127833" lon="-0.05228833">
        <ele>512.0</ele>
        <time>2019-07-07T08:39:50.818Z</time>
      </trkpt>
      <trkpt lat="42.94143833" lon="-0.052155">
        <ele>511.0</ele>
        <time>2019-07-07T08:39:51.824Z</time>
      </trkpt>
      <trkpt lat="42.94152167" lon="-0.05210833">
        <ele>511.0</ele>
        <time>2019-07-07T08:39:52.824Z</time>
      </trkpt>
      <trkpt lat="42.94152167" lon="-0.05210833">
        <ele>511.0</ele>
        <time>2019-07-07T08:39:53.829Z</time>
      </trkpt>
      <trkpt lat="42.94169333" lon="-0.05206667">
        <ele>510.0</ele>
        <time>2019-07-07T08:39:54.801Z</time>
      </trkpt>
      <trkpt lat="42.94178167" lon="-0.05206833">
        <ele>510.0</ele>
        <time>2019-07-07T08:39:55.813Z</time>
      </trkpt>
      <trkpt lat="42.941865" lon="-0.05209">
        <ele>510.0</ele>
        <time>2019-07-07T08:39:56.825Z</time>
      </trkpt>
      <trkpt lat="42.941865" lon="-0.05209">
        <ele>510.0</ele>
        <time>2019-07-07T08:39:57.807Z</time>
      </trkpt>
      <trkpt lat="42.942035" lon="-0.05217167">
        <ele>510.0</ele>
        <time>2019-07-07T08:39:58.818Z</time>
      </trkpt>
      <trkpt lat="42.942035" lon="-0.05217167">
        <ele>510.0</ele>
        <time>2019-07-07T08:39:59.840Z</time>
      </trkpt>
      <trkpt lat="42.942205" lon="-0.05228333">
        <ele>510.0</ele>
        <time>2019-07-07T08:40:00.806Z</time>
      </trkpt>
      <trkpt lat="42.942285" lon="-0.05235">
        <ele>510.0</ele>
        <time>2019-07-07T08:40:01.815Z</time>
      </trkpt>
      <trkpt lat="42.942285" lon="-0.05235">
        <ele>510.0</ele>
        <time>2019-07-07T08:40:02.840Z</time>
      </trkpt>
      <trkpt lat="42.942425" lon="-0.05248667">
        <ele>509.0</ele>
        <time>2019-07-07T08:40:03.806Z</time>
      </trkpt>
      <trkpt lat="42.94249167" lon="-0.05256167">
        <ele>509.0</ele>
        <time>2019-07-07T08:40:04.823Z</time>
      </trkpt>
      <trkpt lat="42.94249167" lon="-0.05256167">
        <ele>509.0</ele>
        <time>2019-07-07T08:40:05.813Z</time>
      </trkpt>
      <trkpt lat="42.94262667" lon="-0.05271667">
        <ele>509.0</ele>
        <time>2019-07-07T08:40:06.821Z</time>
      </trkpt>
      <trkpt lat="42.94262667" lon="-0.05271667">
        <ele>509.0</ele>
        <time>2019-07-07T08:40:07.836Z</time>
      </trkpt>
      <trkpt lat="42.94276833" lon="-0.05285167">
        <ele>509.0</ele>
        <time>2019-07-07T08:40:08.820Z</time>
      </trkpt>
      <trkpt lat="42.94276833" lon="-0.05285167">
        <ele>509.0</ele>
        <time>2019-07-07T08:40:09.802Z</time>
      </trkpt>
      <trkpt lat="42.94292167" lon="-0.05296833">
        <ele>508.0</ele>
        <time>2019-07-07T08:40:10.818Z</time>
      </trkpt>
      <trkpt lat="42.94300167" lon="-0.053015">
        <ele>508.0</ele>
        <time>2019-07-07T08:40:11.840Z</time>
      </trkpt>
      <trkpt lat="42.94300167" lon="-0.053015">
        <ele>508.0</ele>
        <time>2019-07-07T08:40:12.822Z</time>
      </trkpt>
      <trkpt lat="42.94315167" lon="-0.05312333">
        <ele>508.0</ele>
        <time>2019-07-07T08:40:13.805Z</time>
      </trkpt>
      <trkpt lat="42.94315167" lon="-0.05312333">
        <ele>508.0</ele>
        <time>2019-07-07T08:40:14.828Z</time>
      </trkpt>
      <trkpt lat="42.9433" lon="-0.05322667">
        <ele>508.0</ele>
        <time>2019-07-07T08:40:15.821Z</time>
      </trkpt>
      <trkpt lat="42.9433" lon="-0.05322667">
        <ele>508.0</ele>
        <time>2019-07-07T08:40:16.827Z</time>
      </trkpt>
      <trkpt lat="42.94345" lon="-0.05333333">
        <ele>507.0</ele>
        <time>2019-07-07T08:40:17.835Z</time>
      </trkpt>
      <trkpt lat="42.943525" lon="-0.05338667">
        <ele>507.0</ele>
        <time>2019-07-07T08:40:18.824Z</time>
      </trkpt>
      <trkpt lat="42.943525" lon="-0.05338667">
        <ele>507.0</ele>
        <time>2019-07-07T08:40:19.805Z</time>
      </trkpt>
      <trkpt lat="42.94367833" lon="-0.05348667">
        <ele>507.0</ele>
        <time>2019-07-07T08:40:20.814Z</time>
      </trkpt>
      <trkpt lat="42.94367833" lon="-0.05348667">
        <ele>507.0</ele>
        <time>2019-07-07T08:40:21.823Z</time>
      </trkpt>
      <trkpt lat="42.94382333" lon="-0.05359833">
        <ele>507.0</ele>
        <time>2019-07-07T08:40:22.820Z</time>
      </trkpt>
      <trkpt lat="42.94382333" lon="-0.05359833">
        <ele>507.0</ele>
        <time>2019-07-07T08:40:23.816Z</time>
      </trkpt>
      <trkpt lat="42.94396167" lon="-0.05372">
        <ele>506.0</ele>
        <time>2019-07-07T08:40:24.824Z</time>
      </trkpt>
      <trkpt lat="42.94396167" lon="-0.05372">
        <ele>506.0</ele>
        <time>2019-07-07T08:40:25.812Z</time>
      </trkpt>
      <trkpt lat="42.94409667" lon="-0.05385">
        <ele>506.0</ele>
        <time>2019-07-07T08:40:26.817Z</time>
      </trkpt>
      <trkpt lat="42.944165" lon="-0.05390833">
        <ele>506.0</ele>
        <time>2019-07-07T08:40:27.827Z</time>
      </trkpt>
      <trkpt lat="42.944165" lon="-0.05390833">
        <ele>506.0</ele>
        <time>2019-07-07T08:40:28.806Z</time>
      </trkpt>
      <trkpt lat="42.94429" lon="-0.05403667">
        <ele>505.0</ele>
        <time>2019-07-07T08:40:29.834Z</time>
      </trkpt>
      <trkpt lat="42.94436167" lon="-0.05409833">
        <ele>505.0</ele>
        <time>2019-07-07T08:40:30.817Z</time>
      </trkpt>
      <trkpt lat="42.94436167" lon="-0.05409833">
        <ele>505.0</ele>
        <time>2019-07-07T08:40:31.828Z</time>
      </trkpt>
      <trkpt lat="42.94449833" lon="-0.05424333">
        <ele>505.0</ele>
        <time>2019-07-07T08:40:32.812Z</time>
      </trkpt>
      <trkpt lat="42.94455833" lon="-0.05431667">
        <ele>504.0</ele>
        <time>2019-07-07T08:40:33.835Z</time>
      </trkpt>
      <trkpt lat="42.94462" lon="-0.054385">
        <ele>504.0</ele>
        <time>2019-07-07T08:40:34.819Z</time>
      </trkpt>
      <trkpt lat="42.94467667" lon="-0.05445833">
        <ele>504.0</ele>
        <time>2019-07-07T08:40:35.804Z</time>
      </trkpt>
      <trkpt lat="42.94467667" lon="-0.05445833">
        <ele>504.0</ele>
        <time>2019-07-07T08:40:36.828Z</time>
      </trkpt>
      <trkpt lat="42.94479333" lon="-0.05458167">
        <ele>504.0</ele>
        <time>2019-07-07T08:40:37.806Z</time>
      </trkpt>
      <trkpt lat="42.94479333" lon="-0.05458167">
        <ele>504.0</ele>
        <time>2019-07-07T08:40:38.830Z</time>
      </trkpt>
      <trkpt lat="42.94491167" lon="-0.05470667">
        <ele>504.0</ele>
        <time>2019-07-07T08:40:39.837Z</time>
      </trkpt>
      <trkpt lat="42.94496667" lon="-0.05478167">
        <ele>503.0</ele>
        <time>2019-07-07T08:40:40.825Z</time>
      </trkpt>
      <trkpt lat="42.94496667" lon="-0.05478167">
        <ele>503.0</ele>
        <time>2019-07-07T08:40:41.817Z</time>
      </trkpt>
      <trkpt lat="42.94507333" lon="-0.05492667">
        <ele>503.0</ele>
        <time>2019-07-07T08:40:42.823Z</time>
      </trkpt>
      <trkpt lat="42.94512667" lon="-0.05499167">
        <ele>503.0</ele>
        <time>2019-07-07T08:40:43.807Z</time>
      </trkpt>
      <trkpt lat="42.94512667" lon="-0.05499167">
        <ele>503.0</ele>
        <time>2019-07-07T08:40:44.832Z</time>
      </trkpt>
      <trkpt lat="42.94523667" lon="-0.055135">
        <ele>503.0</ele>
        <time>2019-07-07T08:40:45.808Z</time>
      </trkpt>
      <trkpt lat="42.94528667" lon="-0.05520167">
        <ele>504.0</ele>
        <time>2019-07-07T08:40:46.817Z</time>
      </trkpt>
      <trkpt lat="42.94528667" lon="-0.05520167">
        <ele>504.0</ele>
        <time>2019-07-07T08:40:47.806Z</time>
      </trkpt>
      <trkpt lat="42.9454" lon="-0.05534833">
        <ele>504.0</ele>
        <time>2019-07-07T08:40:48.820Z</time>
      </trkpt>
      <trkpt lat="42.94545333" lon="-0.0554">
        <ele>504.0</ele>
        <time>2019-07-07T08:40:49.840Z</time>
      </trkpt>
      <trkpt lat="42.94545333" lon="-0.0554">
        <ele>504.0</ele>
        <time>2019-07-07T08:40:50.834Z</time>
      </trkpt>
      <trkpt lat="42.94556667" lon="-0.05552667">
        <ele>504.0</ele>
        <time>2019-07-07T08:40:51.801Z</time>
      </trkpt>
      <trkpt lat="42.945625" lon="-0.05559333">
        <ele>504.0</ele>
        <time>2019-07-07T08:40:52.834Z</time>
      </trkpt>
      <trkpt lat="42.945625" lon="-0.05559333">
        <ele>504.0</ele>
        <time>2019-07-07T08:40:53.819Z</time>
      </trkpt>
      <trkpt lat="42.94574333" lon="-0.05574333">
        <ele>504.0</ele>
        <time>2019-07-07T08:40:54.831Z</time>
      </trkpt>
      <trkpt lat="42.945805" lon="-0.05581667">
        <ele>504.0</ele>
        <time>2019-07-07T08:40:55.816Z</time>
      </trkpt>
      <trkpt lat="42.945805" lon="-0.05581667">
        <ele>504.0</ele>
        <time>2019-07-07T08:40:56.840Z</time>
      </trkpt>
      <trkpt lat="42.94593333" lon="-0.05595667">
        <ele>504.0</ele>
        <time>2019-07-07T08:40:57.806Z</time>
      </trkpt>
      <trkpt lat="42.94593333" lon="-0.05595667">
        <ele>504.0</ele>
        <time>2019-07-07T08:40:58.829Z</time>
      </trkpt>
      <trkpt lat="42.94607" lon="-0.0561">
        <ele>504.0</ele>
        <time>2019-07-07T08:40:59.835Z</time>
      </trkpt>
      <trkpt lat="42.94607" lon="-0.0561">
        <ele>504.0</ele>
        <time>2019-07-07T08:41:00.817Z</time>
      </trkpt>
      <trkpt lat="42.9462" lon="-0.05625167">
        <ele>504.0</ele>
        <time>2019-07-07T08:41:01.813Z</time>
      </trkpt>
      <trkpt lat="42.9462" lon="-0.05625167">
        <ele>504.0</ele>
        <time>2019-07-07T08:41:02.839Z</time>
      </trkpt>
      <trkpt lat="42.94633333" lon="-0.05639833">
        <ele>504.0</ele>
        <time>2019-07-07T08:41:03.805Z</time>
      </trkpt>
      <trkpt lat="42.94633333" lon="-0.05639833">
        <ele>504.0</ele>
        <time>2019-07-07T08:41:04.828Z</time>
      </trkpt>
      <trkpt lat="42.94646667" lon="-0.05655333">
        <ele>504.0</ele>
        <time>2019-07-07T08:41:05.807Z</time>
      </trkpt>
      <trkpt lat="42.94646667" lon="-0.05655333">
        <ele>504.0</ele>
        <time>2019-07-07T08:41:06.826Z</time>
      </trkpt>
      <trkpt lat="42.946595" lon="-0.05671667">
        <ele>505.0</ele>
        <time>2019-07-07T08:41:07.836Z</time>
      </trkpt>
      <trkpt lat="42.94665167" lon="-0.05681667">
        <ele>505.0</ele>
        <time>2019-07-07T08:41:08.833Z</time>
      </trkpt>
      <trkpt lat="42.94665167" lon="-0.05681667">
        <ele>505.0</ele>
        <time>2019-07-07T08:41:09.817Z</time>
      </trkpt>
      <trkpt lat="42.94675167" lon="-0.05703333">
        <ele>505.0</ele>
        <time>2019-07-07T08:41:10.826Z</time>
      </trkpt>
      <trkpt lat="42.94679667" lon="-0.05714333">
        <ele>504.0</ele>
        <time>2019-07-07T08:41:11.833Z</time>
      </trkpt>
      <trkpt lat="42.94679667" lon="-0.05714333">
        <ele>504.0</ele>
        <time>2019-07-07T08:41:12.826Z</time>
      </trkpt>
      <trkpt lat="42.94687833" lon="-0.05736667">
        <ele>504.0</ele>
        <time>2019-07-07T08:41:13.832Z</time>
      </trkpt>
      <trkpt lat="42.94687833" lon="-0.05736667">
        <ele>504.0</ele>
        <time>2019-07-07T08:41:14.807Z</time>
      </trkpt>
      <trkpt lat="42.946945" lon="-0.05760167">
        <ele>504.0</ele>
        <time>2019-07-07T08:41:15.830Z</time>
      </trkpt>
      <trkpt lat="42.946945" lon="-0.05760167">
        <ele>504.0</ele>
        <time>2019-07-07T08:41:16.814Z</time>
      </trkpt>
      <trkpt lat="42.94699" lon="-0.05784">
        <ele>503.0</ele>
        <time>2019-07-07T08:41:17.823Z</time>
      </trkpt>
      <trkpt lat="42.94701167" lon="-0.057965">
        <ele>503.0</ele>
        <time>2019-07-07T08:41:18.811Z</time>
      </trkpt>
      <trkpt lat="42.94703333" lon="-0.05808667">
        <ele>503.0</ele>
        <time>2019-07-07T08:41:19.835Z</time>
      </trkpt>
      <trkpt lat="42.94703333" lon="-0.05808667">
        <ele>503.0</ele>
        <time>2019-07-07T08:41:20.808Z</time>
      </trkpt>
      <trkpt lat="42.947075" lon="-0.05833167">
        <ele>503.0</ele>
        <time>2019-07-07T08:41:21.819Z</time>
      </trkpt>
      <trkpt lat="42.94709333" lon="-0.05844667">
        <ele>502.0</ele>
        <time>2019-07-07T08:41:22.833Z</time>
      </trkpt>
      <trkpt lat="42.94709333" lon="-0.05844667">
        <ele>502.0</ele>
        <time>2019-07-07T08:41:23.816Z</time>
      </trkpt>
      <trkpt lat="42.94714333" lon="-0.05867167">
        <ele>502.0</ele>
        <time>2019-07-07T08:41:24.832Z</time>
      </trkpt>
      <trkpt lat="42.94714333" lon="-0.05867167">
        <ele>502.0</ele>
        <time>2019-07-07T08:41:25.818Z</time>
      </trkpt>
      <trkpt lat="42.94721" lon="-0.05889833">
        <ele>502.0</ele>
        <time>2019-07-07T08:41:26.838Z</time>
      </trkpt>
      <trkpt lat="42.94721" lon="-0.05889833">
        <ele>502.0</ele>
        <time>2019-07-07T08:41:27.802Z</time>
      </trkpt>
      <trkpt lat="42.94728667" lon="-0.05911833">
        <ele>501.0</ele>
        <time>2019-07-07T08:41:28.808Z</time>
      </trkpt>
      <trkpt lat="42.94728667" lon="-0.05911833">
        <ele>501.0</ele>
        <time>2019-07-07T08:41:29.836Z</time>
      </trkpt>
      <trkpt lat="42.94737167" lon="-0.05934">
        <ele>501.0</ele>
        <time>2019-07-07T08:41:30.808Z</time>
      </trkpt>
      <trkpt lat="42.94737167" lon="-0.05934">
        <ele>501.0</ele>
        <time>2019-07-07T08:41:31.821Z</time>
      </trkpt>
      <trkpt lat="42.94746333" lon="-0.05954167">
        <ele>501.0</ele>
        <time>2019-07-07T08:41:32.829Z</time>
      </trkpt>
      <trkpt lat="42.94746333" lon="-0.05954167">
        <ele>501.0</ele>
        <time>2019-07-07T08:41:33.811Z</time>
      </trkpt>
      <trkpt lat="42.94756167" lon="-0.05974667">
        <ele>500.0</ele>
        <time>2019-07-07T08:41:34.809Z</time>
      </trkpt>
      <trkpt lat="42.94756167" lon="-0.05974667">
        <ele>500.0</ele>
        <time>2019-07-07T08:41:35.819Z</time>
      </trkpt>
      <trkpt lat="42.94766833" lon="-0.05993333">
        <ele>500.0</ele>
        <time>2019-07-07T08:41:36.826Z</time>
      </trkpt>
      <trkpt lat="42.94772667" lon="-0.060025">
        <ele>500.0</ele>
        <time>2019-07-07T08:41:37.803Z</time>
      </trkpt>
      <trkpt lat="42.94772667" lon="-0.060025">
        <ele>500.0</ele>
        <time>2019-07-07T08:41:38.818Z</time>
      </trkpt>
      <trkpt lat="42.94785333" lon="-0.06021">
        <ele>500.0</ele>
        <time>2019-07-07T08:41:39.824Z</time>
      </trkpt>
      <trkpt lat="42.947915" lon="-0.06030167">
        <ele>499.0</ele>
        <time>2019-07-07T08:41:40.805Z</time>
      </trkpt>
      <trkpt lat="42.947915" lon="-0.06030167">
        <ele>499.0</ele>
        <time>2019-07-07T08:41:41.831Z</time>
      </trkpt>
      <trkpt lat="42.94803167" lon="-0.06048">
        <ele>499.0</ele>
        <time>2019-07-07T08:41:42.804Z</time>
      </trkpt>
      <trkpt lat="42.94803167" lon="-0.06048">
        <ele>499.0</ele>
        <time>2019-07-07T08:41:43.826Z</time>
      </trkpt>
      <trkpt lat="42.94814333" lon="-0.06065833">
        <ele>499.0</ele>
        <time>2019-07-07T08:41:44.803Z</time>
      </trkpt>
      <trkpt lat="42.94814333" lon="-0.06065833">
        <ele>499.0</ele>
        <time>2019-07-07T08:41:45.835Z</time>
      </trkpt>
      <trkpt lat="42.948255" lon="-0.06084167">
        <ele>498.0</ele>
        <time>2019-07-07T08:41:46.802Z</time>
      </trkpt>
      <trkpt lat="42.948255" lon="-0.06084167">
        <ele>498.0</ele>
        <time>2019-07-07T08:41:47.810Z</time>
      </trkpt>
      <trkpt lat="42.94836167" lon="-0.061025">
        <ele>497.0</ele>
        <time>2019-07-07T08:41:48.822Z</time>
      </trkpt>
      <trkpt lat="42.94836167" lon="-0.061025">
        <ele>497.0</ele>
        <time>2019-07-07T08:41:49.801Z</time>
      </trkpt>
      <trkpt lat="42.94847" lon="-0.06120667">
        <ele>497.0</ele>
        <time>2019-07-07T08:41:50.803Z</time>
      </trkpt>
      <trkpt lat="42.94847" lon="-0.06120667">
        <ele>497.0</ele>
        <time>2019-07-07T08:41:51.801Z</time>
      </trkpt>
      <trkpt lat="42.94857" lon="-0.06141">
        <ele>496.0</ele>
        <time>2019-07-07T08:41:52.809Z</time>
      </trkpt>
      <trkpt lat="42.94857" lon="-0.06141">
        <ele>496.0</ele>
        <time>2019-07-07T08:41:53.832Z</time>
      </trkpt>
      <trkpt lat="42.948685" lon="-0.06158">
        <ele>496.0</ele>
        <time>2019-07-07T08:41:54.807Z</time>
      </trkpt>
      <trkpt lat="42.94874167" lon="-0.061665">
        <ele>496.0</ele>
        <time>2019-07-07T08:41:55.810Z</time>
      </trkpt>
      <trkpt lat="42.94874167" lon="-0.061665">
        <ele>496.0</ele>
        <time>2019-07-07T08:41:56.818Z</time>
      </trkpt>
      <trkpt lat="42.94884167" lon="-0.06186">
        <ele>495.0</ele>
        <time>2019-07-07T08:41:57.832Z</time>
      </trkpt>
      <trkpt lat="42.948895" lon="-0.06195333">
        <ele>495.0</ele>
        <time>2019-07-07T08:41:58.804Z</time>
      </trkpt>
      <trkpt lat="42.948895" lon="-0.06195333">
        <ele>495.0</ele>
        <time>2019-07-07T08:41:59.813Z</time>
      </trkpt>
      <trkpt lat="42.949005" lon="-0.06214333">
        <ele>494.0</ele>
        <time>2019-07-07T08:42:00.818Z</time>
      </trkpt>
      <trkpt lat="42.949005" lon="-0.06214333">
        <ele>494.0</ele>
        <time>2019-07-07T08:42:01.818Z</time>
      </trkpt>
      <trkpt lat="42.94909167" lon="-0.06238333">
        <ele>494.0</ele>
        <time>2019-07-07T08:42:02.835Z</time>
      </trkpt>
      <trkpt lat="42.94909167" lon="-0.06238333">
        <ele>494.0</ele>
        <time>2019-07-07T08:42:03.809Z</time>
      </trkpt>
      <trkpt lat="42.94917" lon="-0.06262167">
        <ele>494.0</ele>
        <time>2019-07-07T08:42:04.810Z</time>
      </trkpt>
      <trkpt lat="42.94917" lon="-0.06262167">
        <ele>494.0</ele>
        <time>2019-07-07T08:42:05.825Z</time>
      </trkpt>
      <trkpt lat="42.94925667" lon="-0.06284833">
        <ele>493.0</ele>
        <time>2019-07-07T08:42:06.831Z</time>
      </trkpt>
      <trkpt lat="42.94930333" lon="-0.06295167">
        <ele>493.0</ele>
        <time>2019-07-07T08:42:07.816Z</time>
      </trkpt>
      <trkpt lat="42.94930333" lon="-0.06295167">
        <ele>493.0</ele>
        <time>2019-07-07T08:42:08.821Z</time>
      </trkpt>
      <trkpt lat="42.94940667" lon="-0.06314167">
        <ele>493.0</ele>
        <time>2019-07-07T08:42:09.828Z</time>
      </trkpt>
      <trkpt lat="42.94945167" lon="-0.063245">
        <ele>493.0</ele>
        <time>2019-07-07T08:42:10.827Z</time>
      </trkpt>
      <trkpt lat="42.94945167" lon="-0.063245">
        <ele>493.0</ele>
        <time>2019-07-07T08:42:11.840Z</time>
      </trkpt>
      <trkpt lat="42.94953667" lon="-0.063455">
        <ele>493.0</ele>
        <time>2019-07-07T08:42:12.807Z</time>
      </trkpt>
      <trkpt lat="42.94953667" lon="-0.063455">
        <ele>493.0</ele>
        <time>2019-07-07T08:42:13.830Z</time>
      </trkpt>
      <trkpt lat="42.94962" lon="-0.063665">
        <ele>492.0</ele>
        <time>2019-07-07T08:42:14.839Z</time>
      </trkpt>
      <trkpt lat="42.94962" lon="-0.063665">
        <ele>492.0</ele>
        <time>2019-07-07T08:42:15.823Z</time>
      </trkpt>
      <trkpt lat="42.94970167" lon="-0.063885">
        <ele>492.0</ele>
        <time>2019-07-07T08:42:16.830Z</time>
      </trkpt>
      <trkpt lat="42.94974167" lon="-0.063995">
        <ele>492.0</ele>
        <time>2019-07-07T08:42:17.836Z</time>
      </trkpt>
      <trkpt lat="42.94974167" lon="-0.063995">
        <ele>492.0</ele>
        <time>2019-07-07T08:42:18.820Z</time>
      </trkpt>
      <trkpt lat="42.94981667" lon="-0.064205">
        <ele>492.0</ele>
        <time>2019-07-07T08:42:19.828Z</time>
      </trkpt>
      <trkpt lat="42.94981667" lon="-0.064205">
        <ele>492.0</ele>
        <time>2019-07-07T08:42:20.824Z</time>
      </trkpt>
      <trkpt lat="42.949895" lon="-0.06442833">
        <ele>492.0</ele>
        <time>2019-07-07T08:42:21.829Z</time>
      </trkpt>
      <trkpt lat="42.949895" lon="-0.06442833">
        <ele>492.0</ele>
        <time>2019-07-07T08:42:22.830Z</time>
      </trkpt>
      <trkpt lat="42.94995333" lon="-0.06465">
        <ele>491.0</ele>
        <time>2019-07-07T08:42:23.839Z</time>
      </trkpt>
      <trkpt lat="42.94995333" lon="-0.06465">
        <ele>491.0</ele>
        <time>2019-07-07T08:42:24.823Z</time>
      </trkpt>
      <trkpt lat="42.95001333" lon="-0.06488167">
        <ele>491.0</ele>
        <time>2019-07-07T08:42:25.834Z</time>
      </trkpt>
      <trkpt lat="42.95004333" lon="-0.06499167">
        <ele>491.0</ele>
        <time>2019-07-07T08:42:26.804Z</time>
      </trkpt>
      <trkpt lat="42.95006833" lon="-0.06509833">
        <ele>491.0</ele>
        <time>2019-07-07T08:42:27.829Z</time>
      </trkpt>
      <trkpt lat="42.95006833" lon="-0.06509833">
        <ele>491.0</ele>
        <time>2019-07-07T08:42:28.804Z</time>
      </trkpt>
      <trkpt lat="42.95011833" lon="-0.06532167">
        <ele>491.0</ele>
        <time>2019-07-07T08:42:29.812Z</time>
      </trkpt>
      <trkpt lat="42.95011833" lon="-0.06532167">
        <ele>491.0</ele>
        <time>2019-07-07T08:42:30.838Z</time>
      </trkpt>
      <trkpt lat="42.95016167" lon="-0.06555">
        <ele>491.0</ele>
        <time>2019-07-07T08:42:31.827Z</time>
      </trkpt>
      <trkpt lat="42.95018333" lon="-0.06566">
        <ele>491.0</ele>
        <time>2019-07-07T08:42:32.820Z</time>
      </trkpt>
      <trkpt lat="42.95018333" lon="-0.06566">
        <ele>491.0</ele>
        <time>2019-07-07T08:42:33.836Z</time>
      </trkpt>
      <trkpt lat="42.950235" lon="-0.06587833">
        <ele>491.0</ele>
        <time>2019-07-07T08:42:34.833Z</time>
      </trkpt>
      <trkpt lat="42.950235" lon="-0.06587833">
        <ele>491.0</ele>
        <time>2019-07-07T08:42:35.838Z</time>
      </trkpt>
      <trkpt lat="42.95029167" lon="-0.06609833">
        <ele>491.0</ele>
        <time>2019-07-07T08:42:36.804Z</time>
      </trkpt>
      <trkpt lat="42.95031833" lon="-0.06620833">
        <ele>491.0</ele>
        <time>2019-07-07T08:42:37.814Z</time>
      </trkpt>
      <trkpt lat="42.95031833" lon="-0.06620833">
        <ele>491.0</ele>
        <time>2019-07-07T08:42:38.809Z</time>
      </trkpt>
      <trkpt lat="42.95036833" lon="-0.06642667">
        <ele>491.0</ele>
        <time>2019-07-07T08:42:39.816Z</time>
      </trkpt>
      <trkpt lat="42.95039333" lon="-0.066535">
        <ele>491.0</ele>
        <time>2019-07-07T08:42:40.822Z</time>
      </trkpt>
      <trkpt lat="42.95039333" lon="-0.066535">
        <ele>491.0</ele>
        <time>2019-07-07T08:42:41.818Z</time>
      </trkpt>
      <trkpt lat="42.95045" lon="-0.06674">
        <ele>491.0</ele>
        <time>2019-07-07T08:42:42.833Z</time>
      </trkpt>
      <trkpt lat="42.95045" lon="-0.06674">
        <ele>491.0</ele>
        <time>2019-07-07T08:42:43.828Z</time>
      </trkpt>
      <trkpt lat="42.95050833" lon="-0.06695833">
        <ele>491.0</ele>
        <time>2019-07-07T08:42:44.809Z</time>
      </trkpt>
      <trkpt lat="42.95050833" lon="-0.06695833">
        <ele>491.0</ele>
        <time>2019-07-07T08:42:45.834Z</time>
      </trkpt>
      <trkpt lat="42.950545" lon="-0.06714667">
        <ele>492.0</ele>
        <time>2019-07-07T08:42:46.802Z</time>
      </trkpt>
      <trkpt lat="42.950545" lon="-0.06714667">
        <ele>492.0</ele>
        <time>2019-07-07T08:42:47.840Z</time>
      </trkpt>
      <trkpt lat="42.95061333" lon="-0.06730333">
        <ele>492.0</ele>
        <time>2019-07-07T08:42:48.819Z</time>
      </trkpt>
      <trkpt lat="42.95061333" lon="-0.06730333">
        <ele>492.0</ele>
        <time>2019-07-07T08:42:49.834Z</time>
      </trkpt>
      <trkpt lat="42.95073333" lon="-0.06735667">
        <ele>492.0</ele>
        <time>2019-07-07T08:42:50.833Z</time>
      </trkpt>
      <trkpt lat="42.95073333" lon="-0.06735667">
        <ele>492.0</ele>
        <time>2019-07-07T08:42:51.815Z</time>
      </trkpt>
      <trkpt lat="42.95086333" lon="-0.06734167">
        <ele>492.0</ele>
        <time>2019-07-07T08:42:52.822Z</time>
      </trkpt>
      <trkpt lat="42.95086333" lon="-0.06734167">
        <ele>492.0</ele>
        <time>2019-07-07T08:42:53.806Z</time>
      </trkpt>
      <trkpt lat="42.95097833" lon="-0.06740833">
        <ele>492.0</ele>
        <time>2019-07-07T08:42:54.830Z</time>
      </trkpt>
      <trkpt lat="42.95101333" lon="-0.067485">
        <ele>492.0</ele>
        <time>2019-07-07T08:42:55.822Z</time>
      </trkpt>
      <trkpt lat="42.95102167" lon="-0.06757333">
        <ele>492.0</ele>
        <time>2019-07-07T08:42:56.803Z</time>
      </trkpt>
      <trkpt lat="42.95100833" lon="-0.06766333">
        <ele>492.0</ele>
        <time>2019-07-07T08:42:57.836Z</time>
      </trkpt>
      <trkpt lat="42.95100833" lon="-0.06766333">
        <ele>492.0</ele>
        <time>2019-07-07T08:42:58.805Z</time>
      </trkpt>
      <trkpt lat="42.95095833" lon="-0.06783833">
        <ele>492.0</ele>
        <time>2019-07-07T08:42:59.827Z</time>
      </trkpt>
      <trkpt lat="42.95095167" lon="-0.06792667">
        <ele>492.0</ele>
        <time>2019-07-07T08:43:00.833Z</time>
      </trkpt>
      <trkpt lat="42.95095167" lon="-0.06792667">
        <ele>492.0</ele>
        <time>2019-07-07T08:43:01.820Z</time>
      </trkpt>
      <trkpt lat="42.95098333" lon="-0.06810333">
        <ele>493.0</ele>
        <time>2019-07-07T08:43:02.829Z</time>
      </trkpt>
      <trkpt lat="42.95098333" lon="-0.06810333">
        <ele>493.0</ele>
        <time>2019-07-07T08:43:03.818Z</time>
      </trkpt>
      <trkpt lat="42.95105167" lon="-0.06825333">
        <ele>493.0</ele>
        <time>2019-07-07T08:43:04.810Z</time>
      </trkpt>
      <trkpt lat="42.95105167" lon="-0.06825333">
        <ele>493.0</ele>
        <time>2019-07-07T08:43:05.834Z</time>
      </trkpt>
      <trkpt lat="42.95113167" lon="-0.06838833">
        <ele>493.0</ele>
        <time>2019-07-07T08:43:06.801Z</time>
      </trkpt>
      <trkpt lat="42.95113167" lon="-0.06838833">
        <ele>493.0</ele>
        <time>2019-07-07T08:43:07.823Z</time>
      </trkpt>
      <trkpt lat="42.95120833" lon="-0.06852833">
        <ele>493.0</ele>
        <time>2019-07-07T08:43:08.838Z</time>
      </trkpt>
      <trkpt lat="42.95120833" lon="-0.06852833">
        <ele>493.0</ele>
        <time>2019-07-07T08:43:09.823Z</time>
      </trkpt>
      <trkpt lat="42.95127333" lon="-0.06867833">
        <ele>493.0</ele>
        <time>2019-07-07T08:43:10.833Z</time>
      </trkpt>
      <trkpt lat="42.95127333" lon="-0.06867833">
        <ele>493.0</ele>
        <time>2019-07-07T08:43:11.819Z</time>
      </trkpt>
      <trkpt lat="42.95132833" lon="-0.06882833">
        <ele>494.0</ele>
        <time>2019-07-07T08:43:12.828Z</time>
      </trkpt>
      <trkpt lat="42.95132833" lon="-0.06882833">
        <ele>494.0</ele>
        <time>2019-07-07T08:43:13.803Z</time>
      </trkpt>
      <trkpt lat="42.95138333" lon="-0.068975">
        <ele>494.0</ele>
        <time>2019-07-07T08:43:14.833Z</time>
      </trkpt>
      <trkpt lat="42.95138333" lon="-0.068975">
        <ele>494.0</ele>
        <time>2019-07-07T08:43:15.804Z</time>
      </trkpt>
      <trkpt lat="42.95143667" lon="-0.06912833">
        <ele>494.0</ele>
        <time>2019-07-07T08:43:16.811Z</time>
      </trkpt>
      <trkpt lat="42.951465" lon="-0.06920833">
        <ele>494.0</ele>
        <time>2019-07-07T08:43:17.816Z</time>
      </trkpt>
      <trkpt lat="42.951465" lon="-0.06920833">
        <ele>494.0</ele>
        <time>2019-07-07T08:43:18.840Z</time>
      </trkpt>
      <trkpt lat="42.95152333" lon="-0.06936833">
        <ele>494.0</ele>
        <time>2019-07-07T08:43:19.807Z</time>
      </trkpt>
      <trkpt lat="42.95152333" lon="-0.06936833">
        <ele>494.0</ele>
        <time>2019-07-07T08:43:20.829Z</time>
      </trkpt>
      <trkpt lat="42.951595" lon="-0.06953333">
        <ele>494.0</ele>
        <time>2019-07-07T08:43:21.803Z</time>
      </trkpt>
      <trkpt lat="42.951595" lon="-0.06953333">
        <ele>494.0</ele>
        <time>2019-07-07T08:43:22.808Z</time>
      </trkpt>
      <trkpt lat="42.95169667" lon="-0.06966167">
        <ele>494.0</ele>
        <time>2019-07-07T08:43:23.814Z</time>
      </trkpt>
      <trkpt lat="42.95169667" lon="-0.06966167">
        <ele>494.0</ele>
        <time>2019-07-07T08:43:24.838Z</time>
      </trkpt>
      <trkpt lat="42.95182333" lon="-0.06974167">
        <ele>495.0</ele>
        <time>2019-07-07T08:43:25.802Z</time>
      </trkpt>
      <trkpt lat="42.95189" lon="-0.06977167">
        <ele>495.0</ele>
        <time>2019-07-07T08:43:26.818Z</time>
      </trkpt>
      <trkpt lat="42.95189" lon="-0.06977167">
        <ele>495.0</ele>
        <time>2019-07-07T08:43:27.804Z</time>
      </trkpt>
      <trkpt lat="42.95202833" lon="-0.06983667">
        <ele>495.0</ele>
        <time>2019-07-07T08:43:28.811Z</time>
      </trkpt>
      <trkpt lat="42.952105" lon="-0.06986333">
        <ele>495.0</ele>
        <time>2019-07-07T08:43:29.837Z</time>
      </trkpt>
      <trkpt lat="42.952105" lon="-0.06986333">
        <ele>495.0</ele>
        <time>2019-07-07T08:43:30.817Z</time>
      </trkpt>
      <trkpt lat="42.95225167" lon="-0.069875">
        <ele>495.0</ele>
        <time>2019-07-07T08:43:31.834Z</time>
      </trkpt>
      <trkpt lat="42.95225167" lon="-0.069875">
        <ele>495.0</ele>
        <time>2019-07-07T08:43:32.819Z</time>
      </trkpt>
      <trkpt lat="42.9524" lon="-0.0699">
        <ele>495.0</ele>
        <time>2019-07-07T08:43:33.804Z</time>
      </trkpt>
      <trkpt lat="42.9524" lon="-0.0699">
        <ele>495.0</ele>
        <time>2019-07-07T08:43:34.828Z</time>
      </trkpt>
      <trkpt lat="42.95255" lon="-0.069945">
        <ele>495.0</ele>
        <time>2019-07-07T08:43:35.830Z</time>
      </trkpt>
      <trkpt lat="42.95255" lon="-0.069945">
        <ele>495.0</ele>
        <time>2019-07-07T08:43:36.820Z</time>
      </trkpt>
      <trkpt lat="42.95270333" lon="-0.07001">
        <ele>495.0</ele>
        <time>2019-07-07T08:43:37.813Z</time>
      </trkpt>
      <trkpt lat="42.95270333" lon="-0.07001">
        <ele>495.0</ele>
        <time>2019-07-07T08:43:38.835Z</time>
      </trkpt>
      <trkpt lat="42.95286167" lon="-0.07008">
        <ele>495.0</ele>
        <time>2019-07-07T08:43:39.801Z</time>
      </trkpt>
      <trkpt lat="42.95294167" lon="-0.07011333">
        <ele>494.0</ele>
        <time>2019-07-07T08:43:40.813Z</time>
      </trkpt>
      <trkpt lat="42.95294167" lon="-0.07011333">
        <ele>494.0</ele>
        <time>2019-07-07T08:43:41.817Z</time>
      </trkpt>
      <trkpt lat="42.95309167" lon="-0.07018667">
        <ele>494.0</ele>
        <time>2019-07-07T08:43:42.807Z</time>
      </trkpt>
      <trkpt lat="42.95309167" lon="-0.07018667">
        <ele>494.0</ele>
        <time>2019-07-07T08:43:43.830Z</time>
      </trkpt>
      <trkpt lat="42.953235" lon="-0.07026333">
        <ele>495.0</ele>
        <time>2019-07-07T08:43:44.823Z</time>
      </trkpt>
      <trkpt lat="42.953235" lon="-0.07026333">
        <ele>495.0</ele>
        <time>2019-07-07T08:43:45.806Z</time>
      </trkpt>
      <trkpt lat="42.95337667" lon="-0.07035167">
        <ele>495.0</ele>
        <time>2019-07-07T08:43:46.833Z</time>
      </trkpt>
      <trkpt lat="42.95344667" lon="-0.070395">
        <ele>495.0</ele>
        <time>2019-07-07T08:43:47.826Z</time>
      </trkpt>
      <trkpt lat="42.95344667" lon="-0.070395">
        <ele>495.0</ele>
        <time>2019-07-07T08:43:48.815Z</time>
      </trkpt>
      <trkpt lat="42.95358167" lon="-0.07047333">
        <ele>495.0</ele>
        <time>2019-07-07T08:43:49.823Z</time>
      </trkpt>
      <trkpt lat="42.953645" lon="-0.07051667">
        <ele>495.0</ele>
        <time>2019-07-07T08:43:50.835Z</time>
      </trkpt>
      <trkpt lat="42.953645" lon="-0.07051667">
        <ele>495.0</ele>
        <time>2019-07-07T08:43:51.812Z</time>
      </trkpt>
      <trkpt lat="42.95377167" lon="-0.07059833">
        <ele>496.0</ele>
        <time>2019-07-07T08:43:52.821Z</time>
      </trkpt>
      <trkpt lat="42.95377167" lon="-0.07059833">
        <ele>496.0</ele>
        <time>2019-07-07T08:43:53.803Z</time>
      </trkpt>
      <trkpt lat="42.953895" lon="-0.07067333">
        <ele>496.0</ele>
        <time>2019-07-07T08:43:54.813Z</time>
      </trkpt>
      <trkpt lat="42.953895" lon="-0.07067333">
        <ele>496.0</ele>
        <time>2019-07-07T08:43:55.824Z</time>
      </trkpt>
      <trkpt lat="42.95401" lon="-0.07074833">
        <ele>497.0</ele>
        <time>2019-07-07T08:43:56.835Z</time>
      </trkpt>
      <trkpt lat="42.95401" lon="-0.07074833">
        <ele>497.0</ele>
        <time>2019-07-07T08:43:57.812Z</time>
      </trkpt>
      <trkpt lat="42.95412" lon="-0.07083167">
        <ele>497.0</ele>
        <time>2019-07-07T08:43:58.822Z</time>
      </trkpt>
      <trkpt lat="42.95412" lon="-0.07083167">
        <ele>497.0</ele>
        <time>2019-07-07T08:43:59.807Z</time>
      </trkpt>
      <trkpt lat="42.95423167" lon="-0.07091333">
        <ele>497.0</ele>
        <time>2019-07-07T08:44:00.830Z</time>
      </trkpt>
      <trkpt lat="42.95423167" lon="-0.07091333">
        <ele>497.0</ele>
        <time>2019-07-07T08:44:01.820Z</time>
      </trkpt>
      <trkpt lat="42.954335" lon="-0.070995">
        <ele>497.0</ele>
        <time>2019-07-07T08:44:02.827Z</time>
      </trkpt>
      <trkpt lat="42.954335" lon="-0.070995">
        <ele>497.0</ele>
        <time>2019-07-07T08:44:03.838Z</time>
      </trkpt>
      <trkpt lat="42.95444333" lon="-0.07108167">
        <ele>497.0</ele>
        <time>2019-07-07T08:44:04.812Z</time>
      </trkpt>
      <trkpt lat="42.954495" lon="-0.07112667">
        <ele>497.0</ele>
        <time>2019-07-07T08:44:05.835Z</time>
      </trkpt>
      <trkpt lat="42.954495" lon="-0.07112667">
        <ele>497.0</ele>
        <time>2019-07-07T08:44:06.801Z</time>
      </trkpt>
      <trkpt lat="42.954595" lon="-0.07121667">
        <ele>498.0</ele>
        <time>2019-07-07T08:44:07.827Z</time>
      </trkpt>
      <trkpt lat="42.954595" lon="-0.07121667">
        <ele>498.0</ele>
        <time>2019-07-07T08:44:08.805Z</time>
      </trkpt>
      <trkpt lat="42.95469333" lon="-0.07131">
        <ele>498.0</ele>
        <time>2019-07-07T08:44:09.821Z</time>
      </trkpt>
      <trkpt lat="42.95474333" lon="-0.07136">
        <ele>498.0</ele>
        <time>2019-07-07T08:44:10.836Z</time>
      </trkpt>
      <trkpt lat="42.95479333" lon="-0.07141167">
        <ele>498.0</ele>
        <time>2019-07-07T08:44:11.823Z</time>
      </trkpt>
      <trkpt lat="42.95479333" lon="-0.07141167">
        <ele>498.0</ele>
        <time>2019-07-07T08:44:12.808Z</time>
      </trkpt>
      <trkpt lat="42.95488667" lon="-0.07152">
        <ele>499.0</ele>
        <time>2019-07-07T08:44:13.815Z</time>
      </trkpt>
      <trkpt lat="42.95488667" lon="-0.07152">
        <ele>499.0</ele>
        <time>2019-07-07T08:44:14.801Z</time>
      </trkpt>
      <trkpt lat="42.95497333" lon="-0.07163167">
        <ele>499.0</ele>
        <time>2019-07-07T08:44:15.823Z</time>
      </trkpt>
      <trkpt lat="42.95497333" lon="-0.07163167">
        <ele>499.0</ele>
        <time>2019-07-07T08:44:16.819Z</time>
      </trkpt>
      <trkpt lat="42.95505167" lon="-0.07175167">
        <ele>499.0</ele>
        <time>2019-07-07T08:44:17.831Z</time>
      </trkpt>
      <trkpt lat="42.95505167" lon="-0.07175167">
        <ele>499.0</ele>
        <time>2019-07-07T08:44:18.823Z</time>
      </trkpt>
      <trkpt lat="42.95512833" lon="-0.071875">
        <ele>500.0</ele>
        <time>2019-07-07T08:44:19.833Z</time>
      </trkpt>
      <trkpt lat="42.95512833" lon="-0.071875">
        <ele>500.0</ele>
        <time>2019-07-07T08:44:20.816Z</time>
      </trkpt>
      <trkpt lat="42.95521" lon="-0.07199333">
        <ele>500.0</ele>
        <time>2019-07-07T08:44:21.823Z</time>
      </trkpt>
      <trkpt lat="42.95521" lon="-0.07199333">
        <ele>500.0</ele>
        <time>2019-07-07T08:44:22.805Z</time>
      </trkpt>
      <trkpt lat="42.955295" lon="-0.07211167">
        <ele>501.0</ele>
        <time>2019-07-07T08:44:23.823Z</time>
      </trkpt>
      <trkpt lat="42.955295" lon="-0.07211167">
        <ele>501.0</ele>
        <time>2019-07-07T08:44:24.806Z</time>
      </trkpt>
      <trkpt lat="42.955375" lon="-0.07222167">
        <ele>501.0</ele>
        <time>2019-07-07T08:44:25.824Z</time>
      </trkpt>
      <trkpt lat="42.955415" lon="-0.07228">
        <ele>501.0</ele>
        <time>2019-07-07T08:44:26.813Z</time>
      </trkpt>
      <trkpt lat="42.955415" lon="-0.07228">
        <ele>501.0</ele>
        <time>2019-07-07T08:44:27.821Z</time>
      </trkpt>
      <trkpt lat="42.95549667" lon="-0.0724">
        <ele>502.0</ele>
        <time>2019-07-07T08:44:28.830Z</time>
      </trkpt>
      <trkpt lat="42.95549667" lon="-0.0724">
        <ele>502.0</ele>
        <time>2019-07-07T08:44:29.809Z</time>
      </trkpt>
      <trkpt lat="42.95558167" lon="-0.07252167">
        <ele>502.0</ele>
        <time>2019-07-07T08:44:30.827Z</time>
      </trkpt>
      <trkpt lat="42.95558167" lon="-0.07252167">
        <ele>502.0</ele>
        <time>2019-07-07T08:44:31.816Z</time>
      </trkpt>
      <trkpt lat="42.955665" lon="-0.072635">
        <ele>502.0</ele>
        <time>2019-07-07T08:44:32.823Z</time>
      </trkpt>
      <trkpt lat="42.955665" lon="-0.072635">
        <ele>502.0</ele>
        <time>2019-07-07T08:44:33.806Z</time>
      </trkpt>
      <trkpt lat="42.95574" lon="-0.072755">
        <ele>502.0</ele>
        <time>2019-07-07T08:44:34.827Z</time>
      </trkpt>
      <trkpt lat="42.95574" lon="-0.072755">
        <ele>502.0</ele>
        <time>2019-07-07T08:44:35.811Z</time>
      </trkpt>
      <trkpt lat="42.95581833" lon="-0.07286167">
        <ele>503.0</ele>
        <time>2019-07-07T08:44:36.817Z</time>
      </trkpt>
      <trkpt lat="42.95585333" lon="-0.07292">
        <ele>503.0</ele>
        <time>2019-07-07T08:44:37.823Z</time>
      </trkpt>
      <trkpt lat="42.95588833" lon="-0.07297833">
        <ele>503.0</ele>
        <time>2019-07-07T08:44:38.804Z</time>
      </trkpt>
      <trkpt lat="42.955925" lon="-0.07303333">
        <ele>503.0</ele>
        <time>2019-07-07T08:44:39.821Z</time>
      </trkpt>
      <trkpt lat="42.955925" lon="-0.07303333">
        <ele>503.0</ele>
        <time>2019-07-07T08:44:40.832Z</time>
      </trkpt>
      <trkpt lat="42.95599833" lon="-0.07314667">
        <ele>503.0</ele>
        <time>2019-07-07T08:44:41.828Z</time>
      </trkpt>
      <trkpt lat="42.95599833" lon="-0.07314667">
        <ele>503.0</ele>
        <time>2019-07-07T08:44:42.816Z</time>
      </trkpt>
      <trkpt lat="42.95607" lon="-0.07325833">
        <ele>504.0</ele>
        <time>2019-07-07T08:44:43.834Z</time>
      </trkpt>
      <trkpt lat="42.95607" lon="-0.07325833">
        <ele>504.0</ele>
        <time>2019-07-07T08:44:44.801Z</time>
      </trkpt>
      <trkpt lat="42.95614333" lon="-0.07335833">
        <ele>504.0</ele>
        <time>2019-07-07T08:44:45.808Z</time>
      </trkpt>
      <trkpt lat="42.95614333" lon="-0.07335833">
        <ele>504.0</ele>
        <time>2019-07-07T08:44:46.801Z</time>
      </trkpt>
      <trkpt lat="42.95620833" lon="-0.07346167">
        <ele>504.0</ele>
        <time>2019-07-07T08:44:47.804Z</time>
      </trkpt>
      <trkpt lat="42.95620833" lon="-0.07346167">
        <ele>504.0</ele>
        <time>2019-07-07T08:44:48.820Z</time>
      </trkpt>
      <trkpt lat="42.95627" lon="-0.07355667">
        <ele>505.0</ele>
        <time>2019-07-07T08:44:49.831Z</time>
      </trkpt>
      <trkpt lat="42.95627" lon="-0.07355667">
        <ele>505.0</ele>
        <time>2019-07-07T08:44:50.807Z</time>
      </trkpt>
      <trkpt lat="42.95633" lon="-0.07365167">
        <ele>505.0</ele>
        <time>2019-07-07T08:44:51.823Z</time>
      </trkpt>
      <trkpt lat="42.956365" lon="-0.0737">
        <ele>505.0</ele>
        <time>2019-07-07T08:44:52.809Z</time>
      </trkpt>
      <trkpt lat="42.956365" lon="-0.0737">
        <ele>505.0</ele>
        <time>2019-07-07T08:44:53.831Z</time>
      </trkpt>
      <trkpt lat="42.95644167" lon="-0.0738">
        <ele>505.0</ele>
        <time>2019-07-07T08:44:54.839Z</time>
      </trkpt>
      <trkpt lat="42.95644167" lon="-0.0738">
        <ele>505.0</ele>
        <time>2019-07-07T08:44:55.824Z</time>
      </trkpt>
      <trkpt lat="42.9565" lon="-0.07391167">
        <ele>506.0</ele>
        <time>2019-07-07T08:44:56.819Z</time>
      </trkpt>
      <trkpt lat="42.9565" lon="-0.07391167">
        <ele>506.0</ele>
        <time>2019-07-07T08:44:57.802Z</time>
      </trkpt>
      <trkpt lat="42.95655833" lon="-0.07401667">
        <ele>506.0</ele>
        <time>2019-07-07T08:44:58.809Z</time>
      </trkpt>
      <trkpt lat="42.95655833" lon="-0.07401667">
        <ele>506.0</ele>
        <time>2019-07-07T08:44:59.833Z</time>
      </trkpt>
      <trkpt lat="42.95661167" lon="-0.07412167">
        <ele>506.0</ele>
        <time>2019-07-07T08:45:00.826Z</time>
      </trkpt>
      <trkpt lat="42.956635" lon="-0.07418167">
        <ele>507.0</ele>
        <time>2019-07-07T08:45:01.822Z</time>
      </trkpt>
      <trkpt lat="42.956635" lon="-0.07418167">
        <ele>507.0</ele>
        <time>2019-07-07T08:45:02.827Z</time>
      </trkpt>
      <trkpt lat="42.95667833" lon="-0.07429833">
        <ele>507.0</ele>
        <time>2019-07-07T08:45:03.834Z</time>
      </trkpt>
      <trkpt lat="42.95667833" lon="-0.07429833">
        <ele>507.0</ele>
        <time>2019-07-07T08:45:04.818Z</time>
      </trkpt>
      <trkpt lat="42.95670833" lon="-0.0744">
        <ele>507.0</ele>
        <time>2019-07-07T08:45:05.832Z</time>
      </trkpt>
      <trkpt lat="42.95671833" lon="-0.07445333">
        <ele>508.0</ele>
        <time>2019-07-07T08:45:06.814Z</time>
      </trkpt>
      <trkpt lat="42.95672833" lon="-0.07450667">
        <ele>508.0</ele>
        <time>2019-07-07T08:45:07.833Z</time>
      </trkpt>
      <trkpt lat="42.95672833" lon="-0.07450667">
        <ele>508.0</ele>
        <time>2019-07-07T08:45:08.805Z</time>
      </trkpt>
      <trkpt lat="42.95675167" lon="-0.07462">
        <ele>509.0</ele>
        <time>2019-07-07T08:45:09.811Z</time>
      </trkpt>
      <trkpt lat="42.95676333" lon="-0.07466833">
        <ele>509.0</ele>
        <time>2019-07-07T08:45:10.831Z</time>
      </trkpt>
      <trkpt lat="42.95676333" lon="-0.07466833">
        <ele>509.0</ele>
        <time>2019-07-07T08:45:11.818Z</time>
      </trkpt>
      <trkpt lat="42.95679333" lon="-0.07477333">
        <ele>509.0</ele>
        <time>2019-07-07T08:45:12.825Z</time>
      </trkpt>
      <trkpt lat="42.95679333" lon="-0.07477333">
        <ele>509.0</ele>
        <time>2019-07-07T08:45:13.808Z</time>
      </trkpt>
      <trkpt lat="42.95683167" lon="-0.07486833">
        <ele>509.0</ele>
        <time>2019-07-07T08:45:14.837Z</time>
      </trkpt>
      <trkpt lat="42.95685667" lon="-0.07491333">
        <ele>510.0</ele>
        <time>2019-07-07T08:45:15.812Z</time>
      </trkpt>
      <trkpt lat="42.95685667" lon="-0.07491333">
        <ele>510.0</ele>
        <time>2019-07-07T08:45:16.834Z</time>
      </trkpt>
      <trkpt lat="42.95692667" lon="-0.07498333">
        <ele>510.0</ele>
        <time>2019-07-07T08:45:17.811Z</time>
      </trkpt>
      <trkpt lat="42.95692667" lon="-0.07498333">
        <ele>510.0</ele>
        <time>2019-07-07T08:45:18.831Z</time>
      </trkpt>
      <trkpt lat="42.95700167" lon="-0.07504833">
        <ele>510.0</ele>
        <time>2019-07-07T08:45:19.839Z</time>
      </trkpt>
      <trkpt lat="42.95704167" lon="-0.07507167">
        <ele>510.0</ele>
        <time>2019-07-07T08:45:20.823Z</time>
      </trkpt>
      <trkpt lat="42.95704167" lon="-0.07507167">
        <ele>510.0</ele>
        <time>2019-07-07T08:45:21.808Z</time>
      </trkpt>
      <trkpt lat="42.957125" lon="-0.07510167">
        <ele>510.0</ele>
        <time>2019-07-07T08:45:22.818Z</time>
      </trkpt>
      <trkpt lat="42.957125" lon="-0.07510167">
        <ele>510.0</ele>
        <time>2019-07-07T08:45:23.802Z</time>
      </trkpt>
      <trkpt lat="42.957215" lon="-0.07511667">
        <ele>511.0</ele>
        <time>2019-07-07T08:45:24.833Z</time>
      </trkpt>
      <trkpt lat="42.957215" lon="-0.07511667">
        <ele>511.0</ele>
        <time>2019-07-07T08:45:25.808Z</time>
      </trkpt>
      <trkpt lat="42.95732333" lon="-0.07510833">
        <ele>511.0</ele>
        <time>2019-07-07T08:45:26.824Z</time>
      </trkpt>
      <trkpt lat="42.95738" lon="-0.07509333">
        <ele>511.0</ele>
        <time>2019-07-07T08:45:27.813Z</time>
      </trkpt>
      <trkpt lat="42.95738" lon="-0.07509333">
        <ele>511.0</ele>
        <time>2019-07-07T08:45:28.836Z</time>
      </trkpt>
      <trkpt lat="42.95748333" lon="-0.075065">
        <ele>512.0</ele>
        <time>2019-07-07T08:45:29.804Z</time>
      </trkpt>
      <trkpt lat="42.95748333" lon="-0.075065">
        <ele>512.0</ele>
        <time>2019-07-07T08:45:30.826Z</time>
      </trkpt>
      <trkpt lat="42.95757" lon="-0.07504667">
        <ele>512.0</ele>
        <time>2019-07-07T08:45:31.833Z</time>
      </trkpt>
      <trkpt lat="42.95760333" lon="-0.07503667">
        <ele>512.0</ele>
        <time>2019-07-07T08:45:32.802Z</time>
      </trkpt>
      <trkpt lat="42.95760333" lon="-0.07503667">
        <ele>512.0</ele>
        <time>2019-07-07T08:45:33.837Z</time>
      </trkpt>
      <trkpt lat="42.95765667" lon="-0.075025">
        <ele>512.0</ele>
        <time>2019-07-07T08:45:34.807Z</time>
      </trkpt>
      <trkpt lat="42.95765667" lon="-0.075025">
        <ele>512.0</ele>
        <time>2019-07-07T08:45:35.829Z</time>
      </trkpt>
      <trkpt lat="42.957685" lon="-0.07501">
        <ele>512.0</ele>
        <time>2019-07-07T08:45:36.806Z</time>
      </trkpt>
      <trkpt lat="42.957685" lon="-0.07501">
        <ele>512.0</ele>
        <time>2019-07-07T08:45:37.808Z</time>
      </trkpt>
      <trkpt lat="42.95770167" lon="-0.075">
        <ele>512.0</ele>
        <time>2019-07-07T08:45:38.815Z</time>
      </trkpt>
      <trkpt lat="42.95770167" lon="-0.075">
        <ele>512.0</ele>
        <time>2019-07-07T08:45:39.832Z</time>
      </trkpt>
      <trkpt lat="42.95770167" lon="-0.075">
        <ele>512.0</ele>
        <time>2019-07-07T08:45:40.804Z</time>
      </trkpt>
      <trkpt lat="42.95770167" lon="-0.075">
        <ele>512.0</ele>
        <time>2019-07-07T08:45:41.842Z</time>
      </trkpt>
      <trkpt lat="42.95779333" lon="-0.07493667">
        <ele>511.0</ele>
        <time>2019-07-07T08:45:42.831Z</time>
      </trkpt>
      <trkpt lat="42.95779333" lon="-0.07493667">
        <ele>511.0</ele>
        <time>2019-07-07T08:45:43.837Z</time>
      </trkpt>
      <trkpt lat="42.95786" lon="-0.07491167">
        <ele>510.0</ele>
        <time>2019-07-07T08:45:44.802Z</time>
      </trkpt>
      <trkpt lat="42.95786" lon="-0.07491167">
        <ele>510.0</ele>
        <time>2019-07-07T08:45:45.810Z</time>
      </trkpt>
      <trkpt lat="42.95794333" lon="-0.07492667">
        <ele>510.0</ele>
        <time>2019-07-07T08:45:46.822Z</time>
      </trkpt>
      <trkpt lat="42.95794333" lon="-0.07492667">
        <ele>510.0</ele>
        <time>2019-07-07T08:45:47.804Z</time>
      </trkpt>
      <trkpt lat="42.95804167" lon="-0.074915">
        <ele>511.0</ele>
        <time>2019-07-07T08:45:48.814Z</time>
      </trkpt>
      <trkpt lat="42.95804167" lon="-0.074915">
        <ele>511.0</ele>
        <time>2019-07-07T08:45:49.820Z</time>
      </trkpt>
      <trkpt lat="42.958145" lon="-0.07484333">
        <ele>511.0</ele>
        <time>2019-07-07T08:45:50.837Z</time>
      </trkpt>
      <trkpt lat="42.958145" lon="-0.07484333">
        <ele>511.0</ele>
        <time>2019-07-07T08:45:51.803Z</time>
      </trkpt>
      <trkpt lat="42.95826" lon="-0.07476">
        <ele>511.0</ele>
        <time>2019-07-07T08:45:52.801Z</time>
      </trkpt>
      <trkpt lat="42.95826" lon="-0.07476">
        <ele>511.0</ele>
        <time>2019-07-07T08:45:53.806Z</time>
      </trkpt>
      <trkpt lat="42.95838833" lon="-0.07468333">
        <ele>510.0</ele>
        <time>2019-07-07T08:45:54.813Z</time>
      </trkpt>
      <trkpt lat="42.958455" lon="-0.07465">
        <ele>510.0</ele>
        <time>2019-07-07T08:45:55.824Z</time>
      </trkpt>
      <trkpt lat="42.958455" lon="-0.07465">
        <ele>510.0</ele>
        <time>2019-07-07T08:45:56.833Z</time>
      </trkpt>
      <trkpt lat="42.95861167" lon="-0.07458">
        <ele>510.0</ele>
        <time>2019-07-07T08:45:57.837Z</time>
      </trkpt>
      <trkpt lat="42.95861167" lon="-0.07458">
        <ele>510.0</ele>
        <time>2019-07-07T08:45:58.834Z</time>
      </trkpt>
      <trkpt lat="42.95876" lon="-0.07454">
        <ele>509.0</ele>
        <time>2019-07-07T08:45:59.817Z</time>
      </trkpt>
      <trkpt lat="42.95876" lon="-0.07454">
        <ele>509.0</ele>
        <time>2019-07-07T08:46:00.926Z</time>
      </trkpt>
      <trkpt lat="42.95888167" lon="-0.07452833">
        <ele>509.0</ele>
        <time>2019-07-07T08:46:01.825Z</time>
      </trkpt>
      <trkpt lat="42.95897167" lon="-0.07452333">
        <ele>508.0</ele>
        <time>2019-07-07T08:46:02.858Z</time>
      </trkpt>
      <trkpt lat="42.959015" lon="-0.07451167">
        <ele>508.0</ele>
        <time>2019-07-07T08:46:03.836Z</time>
      </trkpt>
      <trkpt lat="42.959015" lon="-0.07451167">
        <ele>508.0</ele>
        <time>2019-07-07T08:46:04.834Z</time>
      </trkpt>
      <trkpt lat="42.959015" lon="-0.07451167">
        <ele>508.0</ele>
        <time>2019-07-07T08:46:05.801Z</time>
      </trkpt>
      <trkpt lat="42.95911167" lon="-0.07448833">
        <ele>508.0</ele>
        <time>2019-07-07T08:46:06.822Z</time>
      </trkpt>
      <trkpt lat="42.95911167" lon="-0.07448833">
        <ele>508.0</ele>
        <time>2019-07-07T08:46:07.828Z</time>
      </trkpt>
      <trkpt lat="42.959275" lon="-0.074485">
        <ele>507.0</ele>
        <time>2019-07-07T08:46:08.863Z</time>
      </trkpt>
      <trkpt lat="42.959275" lon="-0.074485">
        <ele>507.0</ele>
        <time>2019-07-07T08:46:09.831Z</time>
      </trkpt>
      <trkpt lat="42.959275" lon="-0.074485">
        <ele>507.0</ele>
        <time>2019-07-07T08:46:10.808Z</time>
      </trkpt>
      <trkpt lat="42.95940833" lon="-0.07447667">
        <ele>506.0</ele>
        <time>2019-07-07T08:46:11.829Z</time>
      </trkpt>
      <trkpt lat="42.95947833" lon="-0.07447667">
        <ele>506.0</ele>
        <time>2019-07-07T08:46:12.803Z</time>
      </trkpt>
      <trkpt lat="42.95947833" lon="-0.07447667">
        <ele>506.0</ele>
        <time>2019-07-07T08:46:13.818Z</time>
      </trkpt>
      <trkpt lat="42.95962333" lon="-0.07449">
        <ele>505.0</ele>
        <time>2019-07-07T08:46:14.832Z</time>
      </trkpt>
      <trkpt lat="42.95969833" lon="-0.07449167">
        <ele>505.0</ele>
        <time>2019-07-07T08:46:15.802Z</time>
      </trkpt>
      <trkpt lat="42.95969833" lon="-0.07449167">
        <ele>505.0</ele>
        <time>2019-07-07T08:46:16.808Z</time>
      </trkpt>
      <trkpt lat="42.95985" lon="-0.07448833">
        <ele>504.0</ele>
        <time>2019-07-07T08:46:17.813Z</time>
      </trkpt>
      <trkpt lat="42.95992833" lon="-0.07448833">
        <ele>504.0</ele>
        <time>2019-07-07T08:46:18.811Z</time>
      </trkpt>
      <trkpt lat="42.95992833" lon="-0.07448833">
        <ele>504.0</ele>
        <time>2019-07-07T08:46:19.817Z</time>
      </trkpt>
      <trkpt lat="42.96009167" lon="-0.07447667">
        <ele>504.0</ele>
        <time>2019-07-07T08:46:20.823Z</time>
      </trkpt>
      <trkpt lat="42.96017667" lon="-0.07447">
        <ele>503.0</ele>
        <time>2019-07-07T08:46:21.834Z</time>
      </trkpt>
      <trkpt lat="42.96017667" lon="-0.07447">
        <ele>503.0</ele>
        <time>2019-07-07T08:46:22.840Z</time>
      </trkpt>
      <trkpt lat="42.96034833" lon="-0.07446667">
        <ele>502.0</ele>
        <time>2019-07-07T08:46:23.822Z</time>
      </trkpt>
      <trkpt lat="42.96044" lon="-0.074475">
        <ele>502.0</ele>
        <time>2019-07-07T08:46:24.814Z</time>
      </trkpt>
      <trkpt lat="42.96044" lon="-0.074475">
        <ele>502.0</ele>
        <time>2019-07-07T08:46:25.819Z</time>
      </trkpt>
      <trkpt lat="42.96062833" lon="-0.07448167">
        <ele>502.0</ele>
        <time>2019-07-07T08:46:26.814Z</time>
      </trkpt>
      <trkpt lat="42.96062833" lon="-0.07448167">
        <ele>502.0</ele>
        <time>2019-07-07T08:46:27.821Z</time>
      </trkpt>
      <trkpt lat="42.96082167" lon="-0.07448667">
        <ele>500.0</ele>
        <time>2019-07-07T08:46:28.831Z</time>
      </trkpt>
      <trkpt lat="42.96082167" lon="-0.07448667">
        <ele>500.0</ele>
        <time>2019-07-07T08:46:29.818Z</time>
      </trkpt>
      <trkpt lat="42.96102" lon="-0.07449">
        <ele>500.0</ele>
        <time>2019-07-07T08:46:30.834Z</time>
      </trkpt>
      <trkpt lat="42.96121667" lon="-0.07449167">
        <ele>499.0</ele>
        <time>2019-07-07T08:46:31.841Z</time>
      </trkpt>
      <trkpt lat="42.96121667" lon="-0.07449167">
        <ele>499.0</ele>
        <time>2019-07-07T08:46:32.832Z</time>
      </trkpt>
      <trkpt lat="42.96131167" lon="-0.07449667">
        <ele>499.0</ele>
        <time>2019-07-07T08:46:33.836Z</time>
      </trkpt>
      <trkpt lat="42.96131167" lon="-0.07449667">
        <ele>499.0</ele>
        <time>2019-07-07T08:46:34.801Z</time>
      </trkpt>
      <trkpt lat="42.96150167" lon="-0.0745">
        <ele>499.0</ele>
        <time>2019-07-07T08:46:35.830Z</time>
      </trkpt>
      <trkpt lat="42.96150167" lon="-0.0745">
        <ele>499.0</ele>
        <time>2019-07-07T08:46:36.836Z</time>
      </trkpt>
      <trkpt lat="42.96169" lon="-0.07449833">
        <ele>498.0</ele>
        <time>2019-07-07T08:46:37.840Z</time>
      </trkpt>
      <trkpt lat="42.96169" lon="-0.07449833">
        <ele>498.0</ele>
        <time>2019-07-07T08:46:38.805Z</time>
      </trkpt>
      <trkpt lat="42.96187167" lon="-0.074495">
        <ele>497.0</ele>
        <time>2019-07-07T08:46:39.830Z</time>
      </trkpt>
      <trkpt lat="42.96196333" lon="-0.07449167">
        <ele>497.0</ele>
        <time>2019-07-07T08:46:40.802Z</time>
      </trkpt>
      <trkpt lat="42.96196333" lon="-0.07449167">
        <ele>497.0</ele>
        <time>2019-07-07T08:46:41.808Z</time>
      </trkpt>
      <trkpt lat="42.96214833" lon="-0.07449167">
        <ele>497.0</ele>
        <time>2019-07-07T08:46:42.814Z</time>
      </trkpt>
      <trkpt lat="42.96224167" lon="-0.074495">
        <ele>497.0</ele>
        <time>2019-07-07T08:46:43.821Z</time>
      </trkpt>
      <trkpt lat="42.96224167" lon="-0.074495">
        <ele>497.0</ele>
        <time>2019-07-07T08:46:44.834Z</time>
      </trkpt>
      <trkpt lat="42.962435" lon="-0.07450167">
        <ele>497.0</ele>
        <time>2019-07-07T08:46:45.834Z</time>
      </trkpt>
      <trkpt lat="42.962435" lon="-0.07450167">
        <ele>497.0</ele>
        <time>2019-07-07T08:46:46.841Z</time>
      </trkpt>
      <trkpt lat="42.962625" lon="-0.074505">
        <ele>496.0</ele>
        <time>2019-07-07T08:46:47.835Z</time>
      </trkpt>
      <trkpt lat="42.962625" lon="-0.074505">
        <ele>496.0</ele>
        <time>2019-07-07T08:46:48.801Z</time>
      </trkpt>
      <trkpt lat="42.96281" lon="-0.07450333">
        <ele>495.0</ele>
        <time>2019-07-07T08:46:49.834Z</time>
      </trkpt>
      <trkpt lat="42.962905" lon="-0.07450167">
        <ele>495.0</ele>
        <time>2019-07-07T08:46:50.820Z</time>
      </trkpt>
      <trkpt lat="42.963" lon="-0.07450167">
        <ele>494.0</ele>
        <time>2019-07-07T08:46:51.836Z</time>
      </trkpt>
      <trkpt lat="42.96309667" lon="-0.07450167">
        <ele>493.0</ele>
        <time>2019-07-07T08:46:52.809Z</time>
      </trkpt>
      <trkpt lat="42.96309667" lon="-0.07450167">
        <ele>493.0</ele>
        <time>2019-07-07T08:46:53.822Z</time>
      </trkpt>
      <trkpt lat="42.96329333" lon="-0.07448833">
        <ele>491.0</ele>
        <time>2019-07-07T08:46:54.834Z</time>
      </trkpt>
      <trkpt lat="42.96329333" lon="-0.07448833">
        <ele>491.0</ele>
        <time>2019-07-07T08:46:55.803Z</time>
      </trkpt>
      <trkpt lat="42.96349" lon="-0.074435">
        <ele>490.0</ele>
        <time>2019-07-07T08:46:56.804Z</time>
      </trkpt>
      <trkpt lat="42.96349" lon="-0.074435">
        <ele>490.0</ele>
        <time>2019-07-07T08:46:57.815Z</time>
      </trkpt>
      <trkpt lat="42.96368833" lon="-0.07438333">
        <ele>488.0</ele>
        <time>2019-07-07T08:46:58.839Z</time>
      </trkpt>
      <trkpt lat="42.96378667" lon="-0.074355">
        <ele>488.0</ele>
        <time>2019-07-07T08:46:59.809Z</time>
      </trkpt>
      <trkpt lat="42.96378667" lon="-0.074355">
        <ele>488.0</ele>
        <time>2019-07-07T08:47:00.818Z</time>
      </trkpt>
      <trkpt lat="42.96398833" lon="-0.0743">
        <ele>486.0</ele>
        <time>2019-07-07T08:47:01.816Z</time>
      </trkpt>
      <trkpt lat="42.96418833" lon="-0.07424167">
        <ele>485.0</ele>
        <time>2019-07-07T08:47:02.844Z</time>
      </trkpt>
      <trkpt lat="42.96418833" lon="-0.07424167">
        <ele>485.0</ele>
        <time>2019-07-07T08:47:03.841Z</time>
      </trkpt>
      <trkpt lat="42.96418833" lon="-0.07424167">
        <ele>485.0</ele>
        <time>2019-07-07T08:47:04.809Z</time>
      </trkpt>
      <trkpt lat="42.96438667" lon="-0.07418167">
        <ele>484.0</ele>
        <time>2019-07-07T08:47:05.809Z</time>
      </trkpt>
      <trkpt lat="42.96438667" lon="-0.07418167">
        <ele>484.0</ele>
        <time>2019-07-07T08:47:06.817Z</time>
      </trkpt>
      <trkpt lat="42.96469167" lon="-0.07409333">
        <ele>482.0</ele>
        <time>2019-07-07T08:47:07.835Z</time>
      </trkpt>
      <trkpt lat="42.96469167" lon="-0.07409333">
        <ele>482.0</ele>
        <time>2019-07-07T08:47:08.804Z</time>
      </trkpt>
      <trkpt lat="42.96469167" lon="-0.07409333">
        <ele>482.0</ele>
        <time>2019-07-07T08:47:09.815Z</time>
      </trkpt>
      <trkpt lat="42.964895" lon="-0.07403333">
        <ele>482.0</ele>
        <time>2019-07-07T08:47:10.815Z</time>
      </trkpt>
      <trkpt lat="42.964895" lon="-0.07403333">
        <ele>482.0</ele>
        <time>2019-07-07T08:47:11.824Z</time>
      </trkpt>
      <trkpt lat="42.96509833" lon="-0.07397667">
        <ele>482.0</ele>
        <time>2019-07-07T08:47:12.804Z</time>
      </trkpt>
      <trkpt lat="42.96509833" lon="-0.07397667">
        <ele>482.0</ele>
        <time>2019-07-07T08:47:13.813Z</time>
      </trkpt>
      <trkpt lat="42.96530167" lon="-0.073915">
        <ele>481.0</ele>
        <time>2019-07-07T08:47:14.807Z</time>
      </trkpt>
      <trkpt lat="42.96530167" lon="-0.073915">
        <ele>481.0</ele>
        <time>2019-07-07T08:47:15.815Z</time>
      </trkpt>
      <trkpt lat="42.9655" lon="-0.07385833">
        <ele>481.0</ele>
        <time>2019-07-07T08:47:16.814Z</time>
      </trkpt>
      <trkpt lat="42.9655" lon="-0.07385833">
        <ele>481.0</ele>
        <time>2019-07-07T08:47:17.824Z</time>
      </trkpt>
      <trkpt lat="42.96568833" lon="-0.07380167">
        <ele>481.0</ele>
        <time>2019-07-07T08:47:18.806Z</time>
      </trkpt>
      <trkpt lat="42.965775" lon="-0.07376333">
        <ele>481.0</ele>
        <time>2019-07-07T08:47:19.803Z</time>
      </trkpt>
      <trkpt lat="42.965775" lon="-0.07376333">
        <ele>481.0</ele>
        <time>2019-07-07T08:47:20.812Z</time>
      </trkpt>
      <trkpt lat="42.96591167" lon="-0.07363667">
        <ele>480.0</ele>
        <time>2019-07-07T08:47:21.812Z</time>
      </trkpt>
      <trkpt lat="42.96596333" lon="-0.07354">
        <ele>480.0</ele>
        <time>2019-07-07T08:47:22.811Z</time>
      </trkpt>
      <trkpt lat="42.96596333" lon="-0.07354">
        <ele>480.0</ele>
        <time>2019-07-07T08:47:23.824Z</time>
      </trkpt>
      <trkpt lat="42.96604667" lon="-0.07335833">
        <ele>480.0</ele>
        <time>2019-07-07T08:47:24.837Z</time>
      </trkpt>
      <trkpt lat="42.96604667" lon="-0.07335833">
        <ele>480.0</ele>
        <time>2019-07-07T08:47:25.804Z</time>
      </trkpt>
      <trkpt lat="42.966185" lon="-0.073335">
        <ele>478.0</ele>
        <time>2019-07-07T08:47:26.805Z</time>
      </trkpt>
      <trkpt lat="42.966185" lon="-0.073335">
        <ele>478.0</ele>
        <time>2019-07-07T08:47:27.812Z</time>
      </trkpt>
      <trkpt lat="42.96630667" lon="-0.07344167">
        <ele>477.0</ele>
        <time>2019-07-07T08:47:28.814Z</time>
      </trkpt>
      <trkpt lat="42.96636667" lon="-0.073495">
        <ele>477.0</ele>
        <time>2019-07-07T08:47:29.822Z</time>
      </trkpt>
      <trkpt lat="42.96636667" lon="-0.073495">
        <ele>477.0</ele>
        <time>2019-07-07T08:47:30.832Z</time>
      </trkpt>
      <trkpt lat="42.96651" lon="-0.07355333">
        <ele>477.0</ele>
        <time>2019-07-07T08:47:31.832Z</time>
      </trkpt>
      <trkpt lat="42.96658833" lon="-0.07356167">
        <ele>477.0</ele>
        <time>2019-07-07T08:47:32.839Z</time>
      </trkpt>
      <trkpt lat="42.96658833" lon="-0.07356167">
        <ele>477.0</ele>
        <time>2019-07-07T08:47:33.805Z</time>
      </trkpt>
      <trkpt lat="42.96674667" lon="-0.073585">
        <ele>477.0</ele>
        <time>2019-07-07T08:47:34.827Z</time>
      </trkpt>
      <trkpt lat="42.96674667" lon="-0.073585">
        <ele>477.0</ele>
        <time>2019-07-07T08:47:35.837Z</time>
      </trkpt>
      <trkpt lat="42.96691833" lon="-0.07362667">
        <ele>477.0</ele>
        <time>2019-07-07T08:47:36.804Z</time>
      </trkpt>
      <trkpt lat="42.96691833" lon="-0.07362667">
        <ele>477.0</ele>
        <time>2019-07-07T08:47:37.810Z</time>
      </trkpt>
      <trkpt lat="42.96709" lon="-0.073675">
        <ele>476.0</ele>
        <time>2019-07-07T08:47:38.809Z</time>
      </trkpt>
      <trkpt lat="42.96709" lon="-0.073675">
        <ele>476.0</ele>
        <time>2019-07-07T08:47:39.817Z</time>
      </trkpt>
      <trkpt lat="42.96727167" lon="-0.07372167">
        <ele>476.0</ele>
        <time>2019-07-07T08:47:40.804Z</time>
      </trkpt>
      <trkpt lat="42.96727167" lon="-0.07372167">
        <ele>476.0</ele>
        <time>2019-07-07T08:47:41.811Z</time>
      </trkpt>
      <trkpt lat="42.967455" lon="-0.073775">
        <ele>476.0</ele>
        <time>2019-07-07T08:47:42.810Z</time>
      </trkpt>
      <trkpt lat="42.96754833" lon="-0.07380333">
        <ele>476.0</ele>
        <time>2019-07-07T08:47:43.834Z</time>
      </trkpt>
      <trkpt lat="42.96754833" lon="-0.07380333">
        <ele>476.0</ele>
        <time>2019-07-07T08:47:44.844Z</time>
      </trkpt>
      <trkpt lat="42.96774" lon="-0.07386167">
        <ele>476.0</ele>
        <time>2019-07-07T08:47:45.833Z</time>
      </trkpt>
      <trkpt lat="42.96783333" lon="-0.07389">
        <ele>475.0</ele>
        <time>2019-07-07T08:47:46.838Z</time>
      </trkpt>
      <trkpt lat="42.96783333" lon="-0.07389">
        <ele>475.0</ele>
        <time>2019-07-07T08:47:47.812Z</time>
      </trkpt>
      <trkpt lat="42.96802333" lon="-0.073945">
        <ele>475.0</ele>
        <time>2019-07-07T08:47:48.812Z</time>
      </trkpt>
      <trkpt lat="42.96802333" lon="-0.073945">
        <ele>475.0</ele>
        <time>2019-07-07T08:47:49.821Z</time>
      </trkpt>
      <trkpt lat="42.96821667" lon="-0.074">
        <ele>474.0</ele>
        <time>2019-07-07T08:47:50.825Z</time>
      </trkpt>
      <trkpt lat="42.96840667" lon="-0.07405333">
        <ele>474.0</ele>
        <time>2019-07-07T08:47:51.838Z</time>
      </trkpt>
      <trkpt lat="42.96840667" lon="-0.07405333">
        <ele>474.0</ele>
        <time>2019-07-07T08:47:52.806Z</time>
      </trkpt>
      <trkpt lat="42.96840667" lon="-0.07405333">
        <ele>474.0</ele>
        <time>2019-07-07T08:47:53.812Z</time>
      </trkpt>
      <trkpt lat="42.96859333" lon="-0.07411167">
        <ele>474.0</ele>
        <time>2019-07-07T08:47:54.808Z</time>
      </trkpt>
      <trkpt lat="42.96859333" lon="-0.07411167">
        <ele>474.0</ele>
        <time>2019-07-07T08:47:55.815Z</time>
      </trkpt>
      <trkpt lat="42.96878667" lon="-0.07416667">
        <ele>474.0</ele>
        <time>2019-07-07T08:47:56.837Z</time>
      </trkpt>
      <trkpt lat="42.96878667" lon="-0.07416667">
        <ele>474.0</ele>
        <time>2019-07-07T08:47:57.803Z</time>
      </trkpt>
      <trkpt lat="42.96898333" lon="-0.07422">
        <ele>473.0</ele>
        <time>2019-07-07T08:47:58.804Z</time>
      </trkpt>
      <trkpt lat="42.96908167" lon="-0.07424833">
        <ele>473.0</ele>
        <time>2019-07-07T08:47:59.834Z</time>
      </trkpt>
      <trkpt lat="42.96908167" lon="-0.07424833">
        <ele>473.0</ele>
        <time>2019-07-07T08:48:00.816Z</time>
      </trkpt>
      <trkpt lat="42.96928" lon="-0.07430333">
        <ele>473.0</ele>
        <time>2019-07-07T08:48:01.812Z</time>
      </trkpt>
      <trkpt lat="42.96928" lon="-0.07430333">
        <ele>473.0</ele>
        <time>2019-07-07T08:48:02.819Z</time>
      </trkpt>
      <trkpt lat="42.96948667" lon="-0.07436">
        <ele>472.0</ele>
        <time>2019-07-07T08:48:03.810Z</time>
      </trkpt>
      <trkpt lat="42.96958833" lon="-0.07438833">
        <ele>472.0</ele>
        <time>2019-07-07T08:48:04.809Z</time>
      </trkpt>
      <trkpt lat="42.96969" lon="-0.07441667">
        <ele>471.0</ele>
        <time>2019-07-07T08:48:05.817Z</time>
      </trkpt>
      <trkpt lat="42.96969" lon="-0.07441667">
        <ele>471.0</ele>
        <time>2019-07-07T08:48:06.834Z</time>
      </trkpt>
      <trkpt lat="42.96989667" lon="-0.07447333">
        <ele>471.0</ele>
        <time>2019-07-07T08:48:07.830Z</time>
      </trkpt>
      <trkpt lat="42.96989667" lon="-0.07447333">
        <ele>471.0</ele>
        <time>2019-07-07T08:48:08.846Z</time>
      </trkpt>
      <trkpt lat="42.97010167" lon="-0.07453167">
        <ele>470.0</ele>
        <time>2019-07-07T08:48:09.839Z</time>
      </trkpt>
      <trkpt lat="42.97010167" lon="-0.07453167">
        <ele>470.0</ele>
        <time>2019-07-07T08:48:10.820Z</time>
      </trkpt>
      <trkpt lat="42.97031167" lon="-0.07459167">
        <ele>470.0</ele>
        <time>2019-07-07T08:48:11.824Z</time>
      </trkpt>
      <trkpt lat="42.97042167" lon="-0.07462167">
        <ele>469.0</ele>
        <time>2019-07-07T08:48:12.824Z</time>
      </trkpt>
      <trkpt lat="42.97042167" lon="-0.07462167">
        <ele>469.0</ele>
        <time>2019-07-07T08:48:13.827Z</time>
      </trkpt>
      <trkpt lat="42.97064333" lon="-0.07468333">
        <ele>468.0</ele>
        <time>2019-07-07T08:48:14.821Z</time>
      </trkpt>
      <trkpt lat="42.97075333" lon="-0.07471167">
        <ele>468.0</ele>
        <time>2019-07-07T08:48:15.814Z</time>
      </trkpt>
      <trkpt lat="42.97075333" lon="-0.07471167">
        <ele>468.0</ele>
        <time>2019-07-07T08:48:16.823Z</time>
      </trkpt>
      <trkpt lat="42.97097667" lon="-0.07477">
        <ele>467.0</ele>
        <time>2019-07-07T08:48:17.839Z</time>
      </trkpt>
      <trkpt lat="42.97097667" lon="-0.07477">
        <ele>467.0</ele>
        <time>2019-07-07T08:48:18.805Z</time>
      </trkpt>
      <trkpt lat="42.97119833" lon="-0.07483333">
        <ele>466.0</ele>
        <time>2019-07-07T08:48:19.835Z</time>
      </trkpt>
      <trkpt lat="42.97119833" lon="-0.07483333">
        <ele>466.0</ele>
        <time>2019-07-07T08:48:20.841Z</time>
      </trkpt>
      <trkpt lat="42.971415" lon="-0.07491333">
        <ele>464.0</ele>
        <time>2019-07-07T08:48:21.804Z</time>
      </trkpt>
      <trkpt lat="42.97152333" lon="-0.07496">
        <ele>464.0</ele>
        <time>2019-07-07T08:48:22.840Z</time>
      </trkpt>
      <trkpt lat="42.97152333" lon="-0.07496">
        <ele>464.0</ele>
        <time>2019-07-07T08:48:23.806Z</time>
      </trkpt>
      <trkpt lat="42.97172833" lon="-0.075055">
        <ele>463.0</ele>
        <time>2019-07-07T08:48:24.814Z</time>
      </trkpt>
      <trkpt lat="42.97172833" lon="-0.075055">
        <ele>463.0</ele>
        <time>2019-07-07T08:48:25.820Z</time>
      </trkpt>
      <trkpt lat="42.971935" lon="-0.07514667">
        <ele>463.0</ele>
        <time>2019-07-07T08:48:26.834Z</time>
      </trkpt>
      <trkpt lat="42.971935" lon="-0.07514667">
        <ele>463.0</ele>
        <time>2019-07-07T08:48:27.840Z</time>
      </trkpt>
      <trkpt lat="42.97213833" lon="-0.07525">
        <ele>463.0</ele>
        <time>2019-07-07T08:48:28.850Z</time>
      </trkpt>
      <trkpt lat="42.97223833" lon="-0.0753">
        <ele>462.0</ele>
        <time>2019-07-07T08:48:29.832Z</time>
      </trkpt>
      <trkpt lat="42.97223833" lon="-0.0753">
        <ele>462.0</ele>
        <time>2019-07-07T08:48:30.801Z</time>
      </trkpt>
      <trkpt lat="42.972435" lon="-0.07539833">
        <ele>462.0</ele>
        <time>2019-07-07T08:48:31.814Z</time>
      </trkpt>
      <trkpt lat="42.972435" lon="-0.07539833">
        <ele>462.0</ele>
        <time>2019-07-07T08:48:32.821Z</time>
      </trkpt>
      <trkpt lat="42.972625" lon="-0.075495">
        <ele>461.0</ele>
        <time>2019-07-07T08:48:33.801Z</time>
      </trkpt>
      <trkpt lat="42.972625" lon="-0.075495">
        <ele>461.0</ele>
        <time>2019-07-07T08:48:34.807Z</time>
      </trkpt>
      <trkpt lat="42.97281333" lon="-0.07559">
        <ele>461.0</ele>
        <time>2019-07-07T08:48:35.804Z</time>
      </trkpt>
      <trkpt lat="42.97290833" lon="-0.075635">
        <ele>461.0</ele>
        <time>2019-07-07T08:48:36.839Z</time>
      </trkpt>
      <trkpt lat="42.97290833" lon="-0.075635">
        <ele>461.0</ele>
        <time>2019-07-07T08:48:37.805Z</time>
      </trkpt>
      <trkpt lat="42.97309833" lon="-0.075725">
        <ele>460.0</ele>
        <time>2019-07-07T08:48:38.810Z</time>
      </trkpt>
      <trkpt lat="42.97309833" lon="-0.075725">
        <ele>460.0</ele>
        <time>2019-07-07T08:48:39.816Z</time>
      </trkpt>
      <trkpt lat="42.97328667" lon="-0.075815">
        <ele>460.0</ele>
        <time>2019-07-07T08:48:40.824Z</time>
      </trkpt>
      <trkpt lat="42.97328667" lon="-0.075815">
        <ele>460.0</ele>
        <time>2019-07-07T08:48:41.838Z</time>
      </trkpt>
      <trkpt lat="42.973475" lon="-0.07590667">
        <ele>460.0</ele>
        <time>2019-07-07T08:48:42.802Z</time>
      </trkpt>
      <trkpt lat="42.973475" lon="-0.07590667">
        <ele>460.0</ele>
        <time>2019-07-07T08:48:43.809Z</time>
      </trkpt>
      <trkpt lat="42.97365833" lon="-0.076015">
        <ele>460.0</ele>
        <time>2019-07-07T08:48:44.806Z</time>
      </trkpt>
      <trkpt lat="42.97365833" lon="-0.076015">
        <ele>460.0</ele>
        <time>2019-07-07T08:48:45.813Z</time>
      </trkpt>
      <trkpt lat="42.97391" lon="-0.07623">
        <ele>460.0</ele>
        <time>2019-07-07T08:48:46.834Z</time>
      </trkpt>
      <trkpt lat="42.97391" lon="-0.07623">
        <ele>460.0</ele>
        <time>2019-07-07T08:48:47.835Z</time>
      </trkpt>
      <trkpt lat="42.97391" lon="-0.07623">
        <ele>460.0</ele>
        <time>2019-07-07T08:48:48.806Z</time>
      </trkpt>
      <trkpt lat="42.97407" lon="-0.07639667">
        <ele>459.0</ele>
        <time>2019-07-07T08:48:49.834Z</time>
      </trkpt>
      <trkpt lat="42.97407" lon="-0.07639667">
        <ele>459.0</ele>
        <time>2019-07-07T08:48:50.840Z</time>
      </trkpt>
      <trkpt lat="42.97421833" lon="-0.07657833">
        <ele>459.0</ele>
        <time>2019-07-07T08:48:51.804Z</time>
      </trkpt>
      <trkpt lat="42.97428833" lon="-0.076675">
        <ele>459.0</ele>
        <time>2019-07-07T08:48:52.803Z</time>
      </trkpt>
      <trkpt lat="42.97428833" lon="-0.076675">
        <ele>459.0</ele>
        <time>2019-07-07T08:48:53.809Z</time>
      </trkpt>
      <trkpt lat="42.97441833" lon="-0.07687833">
        <ele>459.0</ele>
        <time>2019-07-07T08:48:54.839Z</time>
      </trkpt>
      <trkpt lat="42.97441833" lon="-0.07687833">
        <ele>459.0</ele>
        <time>2019-07-07T08:48:55.805Z</time>
      </trkpt>
      <trkpt lat="42.974535" lon="-0.07709667">
        <ele>459.0</ele>
        <time>2019-07-07T08:48:56.832Z</time>
      </trkpt>
      <trkpt lat="42.974535" lon="-0.07709667">
        <ele>459.0</ele>
        <time>2019-07-07T08:48:57.802Z</time>
      </trkpt>
      <trkpt lat="42.97463667" lon="-0.07733">
        <ele>459.0</ele>
        <time>2019-07-07T08:48:58.827Z</time>
      </trkpt>
      <trkpt lat="42.974685" lon="-0.07744833">
        <ele>459.0</ele>
        <time>2019-07-07T08:48:59.813Z</time>
      </trkpt>
      <trkpt lat="42.974685" lon="-0.07744833">
        <ele>459.0</ele>
        <time>2019-07-07T08:49:00.820Z</time>
      </trkpt>
      <trkpt lat="42.97477833" lon="-0.07768667">
        <ele>459.0</ele>
        <time>2019-07-07T08:49:01.822Z</time>
      </trkpt>
      <trkpt lat="42.974825" lon="-0.077805">
        <ele>459.0</ele>
        <time>2019-07-07T08:49:02.814Z</time>
      </trkpt>
      <trkpt lat="42.974825" lon="-0.077805">
        <ele>459.0</ele>
        <time>2019-07-07T08:49:03.820Z</time>
      </trkpt>
      <trkpt lat="42.97491833" lon="-0.07804167">
        <ele>459.0</ele>
        <time>2019-07-07T08:49:04.827Z</time>
      </trkpt>
      <trkpt lat="42.97491833" lon="-0.07804167">
        <ele>459.0</ele>
        <time>2019-07-07T08:49:05.840Z</time>
      </trkpt>
      <trkpt lat="42.97501333" lon="-0.07827167">
        <ele>458.0</ele>
        <time>2019-07-07T08:49:06.838Z</time>
      </trkpt>
      <trkpt lat="42.97505833" lon="-0.07838333">
        <ele>458.0</ele>
        <time>2019-07-07T08:49:07.837Z</time>
      </trkpt>
      <trkpt lat="42.97505833" lon="-0.07838333">
        <ele>458.0</ele>
        <time>2019-07-07T08:49:08.803Z</time>
      </trkpt>
      <trkpt lat="42.975155" lon="-0.07860833">
        <ele>458.0</ele>
        <time>2019-07-07T08:49:09.835Z</time>
      </trkpt>
      <trkpt lat="42.97520667" lon="-0.07871667">
        <ele>458.0</ele>
        <time>2019-07-07T08:49:10.807Z</time>
      </trkpt>
      <trkpt lat="42.97520667" lon="-0.07871667">
        <ele>458.0</ele>
        <time>2019-07-07T08:49:11.813Z</time>
      </trkpt>
      <trkpt lat="42.97531667" lon="-0.07892167">
        <ele>458.0</ele>
        <time>2019-07-07T08:49:12.824Z</time>
      </trkpt>
      <trkpt lat="42.97531667" lon="-0.07892167">
        <ele>458.0</ele>
        <time>2019-07-07T08:49:13.835Z</time>
      </trkpt>
      <trkpt lat="42.975435" lon="-0.07911667">
        <ele>458.0</ele>
        <time>2019-07-07T08:49:14.837Z</time>
      </trkpt>
      <trkpt lat="42.975435" lon="-0.07911667">
        <ele>458.0</ele>
        <time>2019-07-07T08:49:15.804Z</time>
      </trkpt>
      <trkpt lat="42.97556167" lon="-0.07930167">
        <ele>458.0</ele>
        <time>2019-07-07T08:49:16.824Z</time>
      </trkpt>
      <trkpt lat="42.97562667" lon="-0.07938833">
        <ele>458.0</ele>
        <time>2019-07-07T08:49:17.824Z</time>
      </trkpt>
      <trkpt lat="42.97562667" lon="-0.07938833">
        <ele>458.0</ele>
        <time>2019-07-07T08:49:18.843Z</time>
      </trkpt>
      <trkpt lat="42.97576667" lon="-0.07955">
        <ele>458.0</ele>
        <time>2019-07-07T08:49:19.806Z</time>
      </trkpt>
      <trkpt lat="42.97576667" lon="-0.07955">
        <ele>458.0</ele>
        <time>2019-07-07T08:49:20.813Z</time>
      </trkpt>
      <trkpt lat="42.97591" lon="-0.07970333">
        <ele>457.0</ele>
        <time>2019-07-07T08:49:21.813Z</time>
      </trkpt>
      <trkpt lat="42.97591" lon="-0.07970333">
        <ele>457.0</ele>
        <time>2019-07-07T08:49:22.819Z</time>
      </trkpt>
      <trkpt lat="42.97606" lon="-0.07985667">
        <ele>457.0</ele>
        <time>2019-07-07T08:49:23.824Z</time>
      </trkpt>
      <trkpt lat="42.97613333" lon="-0.079935">
        <ele>457.0</ele>
        <time>2019-07-07T08:49:24.809Z</time>
      </trkpt>
      <trkpt lat="42.97613333" lon="-0.079935">
        <ele>457.0</ele>
        <time>2019-07-07T08:49:25.815Z</time>
      </trkpt>
      <trkpt lat="42.97628333" lon="-0.08009167">
        <ele>458.0</ele>
        <time>2019-07-07T08:49:26.818Z</time>
      </trkpt>
      <trkpt lat="42.97628333" lon="-0.08009167">
        <ele>458.0</ele>
        <time>2019-07-07T08:49:27.830Z</time>
      </trkpt>
      <trkpt lat="42.97643167" lon="-0.08024667">
        <ele>458.0</ele>
        <time>2019-07-07T08:49:28.826Z</time>
      </trkpt>
      <trkpt lat="42.976505" lon="-0.08032333">
        <ele>458.0</ele>
        <time>2019-07-07T08:49:29.835Z</time>
      </trkpt>
      <trkpt lat="42.976505" lon="-0.08032333">
        <ele>458.0</ele>
        <time>2019-07-07T08:49:30.801Z</time>
      </trkpt>
      <trkpt lat="42.97665667" lon="-0.080475">
        <ele>458.0</ele>
        <time>2019-07-07T08:49:31.809Z</time>
      </trkpt>
      <trkpt lat="42.97673167" lon="-0.08054833">
        <ele>458.0</ele>
        <time>2019-07-07T08:49:32.814Z</time>
      </trkpt>
      <trkpt lat="42.97673167" lon="-0.08054833">
        <ele>458.0</ele>
        <time>2019-07-07T08:49:33.820Z</time>
      </trkpt>
      <trkpt lat="42.97687833" lon="-0.08069833">
        <ele>457.0</ele>
        <time>2019-07-07T08:49:34.809Z</time>
      </trkpt>
      <trkpt lat="42.97687833" lon="-0.08069833">
        <ele>457.0</ele>
        <time>2019-07-07T08:49:35.816Z</time>
      </trkpt>
      <trkpt lat="42.97703" lon="-0.08084">
        <ele>457.0</ele>
        <time>2019-07-07T08:49:36.815Z</time>
      </trkpt>
      <trkpt lat="42.97703" lon="-0.08084">
        <ele>457.0</ele>
        <time>2019-07-07T08:49:37.821Z</time>
      </trkpt>
      <trkpt lat="42.97718333" lon="-0.08097833">
        <ele>457.0</ele>
        <time>2019-07-07T08:49:38.823Z</time>
      </trkpt>
      <trkpt lat="42.97726" lon="-0.081045">
        <ele>457.0</ele>
        <time>2019-07-07T08:49:39.824Z</time>
      </trkpt>
      <trkpt lat="42.97726" lon="-0.081045">
        <ele>457.0</ele>
        <time>2019-07-07T08:49:40.838Z</time>
      </trkpt>
      <trkpt lat="42.97742" lon="-0.081175">
        <ele>457.0</ele>
        <time>2019-07-07T08:49:41.837Z</time>
      </trkpt>
      <trkpt lat="42.9775" lon="-0.08124">
        <ele>457.0</ele>
        <time>2019-07-07T08:49:42.810Z</time>
      </trkpt>
      <trkpt lat="42.9775" lon="-0.08124">
        <ele>457.0</ele>
        <time>2019-07-07T08:49:43.817Z</time>
      </trkpt>
      <trkpt lat="42.97765833" lon="-0.08137167">
        <ele>457.0</ele>
        <time>2019-07-07T08:49:44.813Z</time>
      </trkpt>
      <trkpt lat="42.97773833" lon="-0.08144">
        <ele>457.0</ele>
        <time>2019-07-07T08:49:45.838Z</time>
      </trkpt>
      <trkpt lat="42.97773833" lon="-0.08144">
        <ele>457.0</ele>
        <time>2019-07-07T08:49:46.804Z</time>
      </trkpt>
      <trkpt lat="42.97789667" lon="-0.08157">
        <ele>457.0</ele>
        <time>2019-07-07T08:49:47.841Z</time>
      </trkpt>
      <trkpt lat="42.97789667" lon="-0.08157">
        <ele>457.0</ele>
        <time>2019-07-07T08:49:48.845Z</time>
      </trkpt>
      <trkpt lat="42.978055" lon="-0.0817">
        <ele>457.0</ele>
        <time>2019-07-07T08:49:49.802Z</time>
      </trkpt>
      <trkpt lat="42.978135" lon="-0.081765">
        <ele>457.0</ele>
        <time>2019-07-07T08:49:50.804Z</time>
      </trkpt>
      <trkpt lat="42.978135" lon="-0.081765">
        <ele>457.0</ele>
        <time>2019-07-07T08:49:51.811Z</time>
      </trkpt>
      <trkpt lat="42.978295" lon="-0.08189167">
        <ele>457.0</ele>
        <time>2019-07-07T08:49:52.835Z</time>
      </trkpt>
      <trkpt lat="42.978295" lon="-0.08189167">
        <ele>457.0</ele>
        <time>2019-07-07T08:49:53.801Z</time>
      </trkpt>
      <trkpt lat="42.97845167" lon="-0.08202333">
        <ele>457.0</ele>
        <time>2019-07-07T08:49:54.834Z</time>
      </trkpt>
      <trkpt lat="42.97845167" lon="-0.08202333">
        <ele>457.0</ele>
        <time>2019-07-07T08:49:55.801Z</time>
      </trkpt>
      <trkpt lat="42.97860667" lon="-0.082155">
        <ele>457.0</ele>
        <time>2019-07-07T08:49:56.836Z</time>
      </trkpt>
      <trkpt lat="42.97860667" lon="-0.082155">
        <ele>457.0</ele>
        <time>2019-07-07T08:49:57.801Z</time>
      </trkpt>
      <trkpt lat="42.97876167" lon="-0.08228">
        <ele>457.0</ele>
        <time>2019-07-07T08:49:58.840Z</time>
      </trkpt>
      <trkpt lat="42.97884" lon="-0.082345">
        <ele>457.0</ele>
        <time>2019-07-07T08:49:59.822Z</time>
      </trkpt>
      <trkpt lat="42.97891667" lon="-0.08241">
        <ele>457.0</ele>
        <time>2019-07-07T08:50:00.827Z</time>
      </trkpt>
      <trkpt lat="42.97891667" lon="-0.08241">
        <ele>457.0</ele>
        <time>2019-07-07T08:50:01.836Z</time>
      </trkpt>
      <trkpt lat="42.97907167" lon="-0.08253833">
        <ele>457.0</ele>
        <time>2019-07-07T08:50:02.822Z</time>
      </trkpt>
      <trkpt lat="42.97915" lon="-0.08259833">
        <ele>457.0</ele>
        <time>2019-07-07T08:50:03.824Z</time>
      </trkpt>
      <trkpt lat="42.97915" lon="-0.08259833">
        <ele>457.0</ele>
        <time>2019-07-07T08:50:04.838Z</time>
      </trkpt>
      <trkpt lat="42.97938667" lon="-0.08278667">
        <ele>457.0</ele>
        <time>2019-07-07T08:50:05.839Z</time>
      </trkpt>
      <trkpt lat="42.97938667" lon="-0.08278667">
        <ele>457.0</ele>
        <time>2019-07-07T08:50:06.804Z</time>
      </trkpt>
      <trkpt lat="42.97938667" lon="-0.08278667">
        <ele>457.0</ele>
        <time>2019-07-07T08:50:07.810Z</time>
      </trkpt>
      <trkpt lat="42.97954167" lon="-0.08291667">
        <ele>456.0</ele>
        <time>2019-07-07T08:50:08.804Z</time>
      </trkpt>
      <trkpt lat="42.97954167" lon="-0.08291667">
        <ele>456.0</ele>
        <time>2019-07-07T08:50:09.810Z</time>
      </trkpt>
      <trkpt lat="42.97969667" lon="-0.08304667">
        <ele>456.0</ele>
        <time>2019-07-07T08:50:10.820Z</time>
      </trkpt>
      <trkpt lat="42.97977333" lon="-0.08311333">
        <ele>456.0</ele>
        <time>2019-07-07T08:50:11.835Z</time>
      </trkpt>
      <trkpt lat="42.97977333" lon="-0.08311333">
        <ele>456.0</ele>
        <time>2019-07-07T08:50:12.841Z</time>
      </trkpt>
      <trkpt lat="42.97992333" lon="-0.08324833">
        <ele>456.0</ele>
        <time>2019-07-07T08:50:13.803Z</time>
      </trkpt>
      <trkpt lat="42.97992333" lon="-0.08324833">
        <ele>456.0</ele>
        <time>2019-07-07T08:50:14.809Z</time>
      </trkpt>
      <trkpt lat="42.98007333" lon="-0.08338833">
        <ele>456.0</ele>
        <time>2019-07-07T08:50:15.838Z</time>
      </trkpt>
      <trkpt lat="42.98007333" lon="-0.08338833">
        <ele>456.0</ele>
        <time>2019-07-07T08:50:16.804Z</time>
      </trkpt>
      <trkpt lat="42.98022167" lon="-0.08353">
        <ele>455.0</ele>
        <time>2019-07-07T08:50:17.806Z</time>
      </trkpt>
      <trkpt lat="42.98022167" lon="-0.08353">
        <ele>455.0</ele>
        <time>2019-07-07T08:50:18.812Z</time>
      </trkpt>
      <trkpt lat="42.98036833" lon="-0.08368333">
        <ele>455.0</ele>
        <time>2019-07-07T08:50:19.808Z</time>
      </trkpt>
      <trkpt lat="42.98036833" lon="-0.08368333">
        <ele>455.0</ele>
        <time>2019-07-07T08:50:20.814Z</time>
      </trkpt>
      <trkpt lat="42.98051833" lon="-0.08382667">
        <ele>454.0</ele>
        <time>2019-07-07T08:50:21.836Z</time>
      </trkpt>
      <trkpt lat="42.98051833" lon="-0.08382667">
        <ele>454.0</ele>
        <time>2019-07-07T08:50:22.803Z</time>
      </trkpt>
      <trkpt lat="42.98067" lon="-0.08397333">
        <ele>454.0</ele>
        <time>2019-07-07T08:50:23.811Z</time>
      </trkpt>
      <trkpt lat="42.98067" lon="-0.08397333">
        <ele>454.0</ele>
        <time>2019-07-07T08:50:24.817Z</time>
      </trkpt>
      <trkpt lat="42.98082333" lon="-0.08412167">
        <ele>453.0</ele>
        <time>2019-07-07T08:50:25.832Z</time>
      </trkpt>
      <trkpt lat="42.98082333" lon="-0.08412167">
        <ele>453.0</ele>
        <time>2019-07-07T08:50:26.801Z</time>
      </trkpt>
      <trkpt lat="42.98097667" lon="-0.08427333">
        <ele>452.0</ele>
        <time>2019-07-07T08:50:27.804Z</time>
      </trkpt>
      <trkpt lat="42.98097667" lon="-0.08427333">
        <ele>452.0</ele>
        <time>2019-07-07T08:50:28.810Z</time>
      </trkpt>
      <trkpt lat="42.98112833" lon="-0.084425">
        <ele>451.0</ele>
        <time>2019-07-07T08:50:29.825Z</time>
      </trkpt>
      <trkpt lat="42.981205" lon="-0.08449833">
        <ele>451.0</ele>
        <time>2019-07-07T08:50:30.806Z</time>
      </trkpt>
      <trkpt lat="42.981205" lon="-0.08449833">
        <ele>451.0</ele>
        <time>2019-07-07T08:50:31.814Z</time>
      </trkpt>
      <trkpt lat="42.98135667" lon="-0.08464833">
        <ele>450.0</ele>
        <time>2019-07-07T08:50:32.834Z</time>
      </trkpt>
      <trkpt lat="42.98143333" lon="-0.08472333">
        <ele>450.0</ele>
        <time>2019-07-07T08:50:33.807Z</time>
      </trkpt>
      <trkpt lat="42.98143333" lon="-0.08472333">
        <ele>450.0</ele>
        <time>2019-07-07T08:50:34.813Z</time>
      </trkpt>
      <trkpt lat="42.98158333" lon="-0.08487333">
        <ele>449.0</ele>
        <time>2019-07-07T08:50:35.824Z</time>
      </trkpt>
      <trkpt lat="42.98165833" lon="-0.084945">
        <ele>449.0</ele>
        <time>2019-07-07T08:50:36.807Z</time>
      </trkpt>
      <trkpt lat="42.98165833" lon="-0.084945">
        <ele>449.0</ele>
        <time>2019-07-07T08:50:37.813Z</time>
      </trkpt>
      <trkpt lat="42.98180833" lon="-0.08509167">
        <ele>449.0</ele>
        <time>2019-07-07T08:50:38.824Z</time>
      </trkpt>
      <trkpt lat="42.98188167" lon="-0.085165">
        <ele>448.0</ele>
        <time>2019-07-07T08:50:39.824Z</time>
      </trkpt>
      <trkpt lat="42.98188167" lon="-0.085165">
        <ele>448.0</ele>
        <time>2019-07-07T08:50:40.840Z</time>
      </trkpt>
      <trkpt lat="42.98203" lon="-0.08531167">
        <ele>448.0</ele>
        <time>2019-07-07T08:50:41.836Z</time>
      </trkpt>
      <trkpt lat="42.98210167" lon="-0.085385">
        <ele>448.0</ele>
        <time>2019-07-07T08:50:42.814Z</time>
      </trkpt>
      <trkpt lat="42.98210167" lon="-0.085385">
        <ele>448.0</ele>
        <time>2019-07-07T08:50:43.820Z</time>
      </trkpt>
      <trkpt lat="42.98224833" lon="-0.08552833">
        <ele>448.0</ele>
        <time>2019-07-07T08:50:44.837Z</time>
      </trkpt>
      <trkpt lat="42.98232" lon="-0.08559833">
        <ele>447.0</ele>
        <time>2019-07-07T08:50:45.814Z</time>
      </trkpt>
      <trkpt lat="42.98232" lon="-0.08559833">
        <ele>447.0</ele>
        <time>2019-07-07T08:50:46.820Z</time>
      </trkpt>
      <trkpt lat="42.982465" lon="-0.08573833">
        <ele>447.0</ele>
        <time>2019-07-07T08:50:47.833Z</time>
      </trkpt>
      <trkpt lat="42.982465" lon="-0.08573833">
        <ele>447.0</ele>
        <time>2019-07-07T08:50:48.818Z</time>
      </trkpt>
      <trkpt lat="42.98260833" lon="-0.08588167">
        <ele>447.0</ele>
        <time>2019-07-07T08:50:49.835Z</time>
      </trkpt>
      <trkpt lat="42.98260833" lon="-0.08588167">
        <ele>447.0</ele>
        <time>2019-07-07T08:50:50.801Z</time>
      </trkpt>
      <trkpt lat="42.98275" lon="-0.08602167">
        <ele>446.0</ele>
        <time>2019-07-07T08:50:51.814Z</time>
      </trkpt>
      <trkpt lat="42.98275" lon="-0.08602167">
        <ele>446.0</ele>
        <time>2019-07-07T08:50:52.820Z</time>
      </trkpt>
      <trkpt lat="42.98289167" lon="-0.086165">
        <ele>446.0</ele>
        <time>2019-07-07T08:50:53.814Z</time>
      </trkpt>
      <trkpt lat="42.98296167" lon="-0.086235">
        <ele>445.0</ele>
        <time>2019-07-07T08:50:54.838Z</time>
      </trkpt>
      <trkpt lat="42.98296167" lon="-0.086235">
        <ele>445.0</ele>
        <time>2019-07-07T08:50:55.804Z</time>
      </trkpt>
      <trkpt lat="42.98310333" lon="-0.086375">
        <ele>445.0</ele>
        <time>2019-07-07T08:50:56.804Z</time>
      </trkpt>
      <trkpt lat="42.983175" lon="-0.086445">
        <ele>445.0</ele>
        <time>2019-07-07T08:50:57.814Z</time>
      </trkpt>
      <trkpt lat="42.983175" lon="-0.086445">
        <ele>445.0</ele>
        <time>2019-07-07T08:50:58.820Z</time>
      </trkpt>
      <trkpt lat="42.98332" lon="-0.08658167">
        <ele>445.0</ele>
        <time>2019-07-07T08:50:59.836Z</time>
      </trkpt>
      <trkpt lat="42.98339167" lon="-0.08665">
        <ele>444.0</ele>
        <time>2019-07-07T08:51:00.835Z</time>
      </trkpt>
      <trkpt lat="42.98339167" lon="-0.08665">
        <ele>444.0</ele>
        <time>2019-07-07T08:51:01.802Z</time>
      </trkpt>
      <trkpt lat="42.98353667" lon="-0.086785">
        <ele>444.0</ele>
        <time>2019-07-07T08:51:02.814Z</time>
      </trkpt>
      <trkpt lat="42.98361" lon="-0.08685333">
        <ele>444.0</ele>
        <time>2019-07-07T08:51:03.824Z</time>
      </trkpt>
      <trkpt lat="42.98368167" lon="-0.08692333">
        <ele>444.0</ele>
        <time>2019-07-07T08:51:04.804Z</time>
      </trkpt>
      <trkpt lat="42.98368167" lon="-0.08692333">
        <ele>444.0</ele>
        <time>2019-07-07T08:51:05.810Z</time>
      </trkpt>
      <trkpt lat="42.98382833" lon="-0.08706167">
        <ele>444.0</ele>
        <time>2019-07-07T08:51:06.814Z</time>
      </trkpt>
      <trkpt lat="42.98382833" lon="-0.08706167">
        <ele>444.0</ele>
        <time>2019-07-07T08:51:07.819Z</time>
      </trkpt>
      <trkpt lat="42.98398" lon="-0.08719167">
        <ele>443.0</ele>
        <time>2019-07-07T08:51:08.839Z</time>
      </trkpt>
      <trkpt lat="42.98405833" lon="-0.08725333">
        <ele>442.0</ele>
        <time>2019-07-07T08:51:09.833Z</time>
      </trkpt>
      <trkpt lat="42.98413833" lon="-0.08731">
        <ele>442.0</ele>
        <time>2019-07-07T08:51:10.804Z</time>
      </trkpt>
      <trkpt lat="42.98413833" lon="-0.08731">
        <ele>442.0</ele>
        <time>2019-07-07T08:51:11.810Z</time>
      </trkpt>
      <trkpt lat="42.98430333" lon="-0.08741333">
        <ele>441.0</ele>
        <time>2019-07-07T08:51:12.817Z</time>
      </trkpt>
      <trkpt lat="42.98438667" lon="-0.08746167">
        <ele>441.0</ele>
        <time>2019-07-07T08:51:13.814Z</time>
      </trkpt>
      <trkpt lat="42.98438667" lon="-0.08746167">
        <ele>441.0</ele>
        <time>2019-07-07T08:51:14.820Z</time>
      </trkpt>
      <trkpt lat="42.98455667" lon="-0.08754667">
        <ele>440.0</ele>
        <time>2019-07-07T08:51:15.814Z</time>
      </trkpt>
      <trkpt lat="42.98455667" lon="-0.08754667">
        <ele>440.0</ele>
        <time>2019-07-07T08:51:16.820Z</time>
      </trkpt>
      <trkpt lat="42.98472833" lon="-0.08763167">
        <ele>440.0</ele>
        <time>2019-07-07T08:51:17.836Z</time>
      </trkpt>
      <trkpt lat="42.98472833" lon="-0.08763167">
        <ele>440.0</ele>
        <time>2019-07-07T08:51:18.803Z</time>
      </trkpt>
      <trkpt lat="42.9849" lon="-0.08772167">
        <ele>440.0</ele>
        <time>2019-07-07T08:51:19.815Z</time>
      </trkpt>
      <trkpt lat="42.98498667" lon="-0.087765">
        <ele>440.0</ele>
        <time>2019-07-07T08:51:20.835Z</time>
      </trkpt>
      <trkpt lat="42.98498667" lon="-0.087765">
        <ele>440.0</ele>
        <time>2019-07-07T08:51:21.803Z</time>
      </trkpt>
      <trkpt lat="42.98515667" lon="-0.08784833">
        <ele>439.0</ele>
        <time>2019-07-07T08:51:22.814Z</time>
      </trkpt>
      <trkpt lat="42.98524167" lon="-0.08788833">
        <ele>439.0</ele>
        <time>2019-07-07T08:51:23.821Z</time>
      </trkpt>
      <trkpt lat="42.98524167" lon="-0.08788833">
        <ele>439.0</ele>
        <time>2019-07-07T08:51:24.803Z</time>
      </trkpt>
      <trkpt lat="42.98541167" lon="-0.08796333">
        <ele>439.0</ele>
        <time>2019-07-07T08:51:25.802Z</time>
      </trkpt>
      <trkpt lat="42.98541167" lon="-0.08796333">
        <ele>439.0</ele>
        <time>2019-07-07T08:51:26.809Z</time>
      </trkpt>
      <trkpt lat="42.98558167" lon="-0.08803333">
        <ele>439.0</ele>
        <time>2019-07-07T08:51:27.824Z</time>
      </trkpt>
      <trkpt lat="42.98558167" lon="-0.08803333">
        <ele>439.0</ele>
        <time>2019-07-07T08:51:28.802Z</time>
      </trkpt>
      <trkpt lat="42.98575167" lon="-0.08811">
        <ele>439.0</ele>
        <time>2019-07-07T08:51:29.837Z</time>
      </trkpt>
      <trkpt lat="42.985835" lon="-0.088155">
        <ele>439.0</ele>
        <time>2019-07-07T08:51:30.809Z</time>
      </trkpt>
      <trkpt lat="42.985835" lon="-0.088155">
        <ele>439.0</ele>
        <time>2019-07-07T08:51:31.816Z</time>
      </trkpt>
      <trkpt lat="42.98600333" lon="-0.08824333">
        <ele>439.0</ele>
        <time>2019-07-07T08:51:32.824Z</time>
      </trkpt>
      <trkpt lat="42.98600333" lon="-0.08824333">
        <ele>439.0</ele>
        <time>2019-07-07T08:51:33.838Z</time>
      </trkpt>
      <trkpt lat="42.98617667" lon="-0.08832167">
        <ele>439.0</ele>
        <time>2019-07-07T08:51:34.816Z</time>
      </trkpt>
      <trkpt lat="42.98617667" lon="-0.08832167">
        <ele>439.0</ele>
        <time>2019-07-07T08:51:35.823Z</time>
      </trkpt>
      <trkpt lat="42.98635167" lon="-0.0884">
        <ele>439.0</ele>
        <time>2019-07-07T08:51:36.834Z</time>
      </trkpt>
      <trkpt lat="42.98635167" lon="-0.0884">
        <ele>439.0</ele>
        <time>2019-07-07T08:51:37.802Z</time>
      </trkpt>
      <trkpt lat="42.98652" lon="-0.08846333">
        <ele>438.0</ele>
        <time>2019-07-07T08:51:38.824Z</time>
      </trkpt>
      <trkpt lat="42.986605" lon="-0.08848833">
        <ele>438.0</ele>
        <time>2019-07-07T08:51:39.824Z</time>
      </trkpt>
      <trkpt lat="42.98669" lon="-0.08850833">
        <ele>438.0</ele>
        <time>2019-07-07T08:51:40.809Z</time>
      </trkpt>
      <trkpt lat="42.98669" lon="-0.08850833">
        <ele>438.0</ele>
        <time>2019-07-07T08:51:41.815Z</time>
      </trkpt>
      <trkpt lat="42.98686333" lon="-0.08855333">
        <ele>438.0</ele>
        <time>2019-07-07T08:51:42.816Z</time>
      </trkpt>
      <trkpt lat="42.98686333" lon="-0.08855333">
        <ele>438.0</ele>
        <time>2019-07-07T08:51:43.823Z</time>
      </trkpt>
      <trkpt lat="42.98703333" lon="-0.088595">
        <ele>438.0</ele>
        <time>2019-07-07T08:51:44.814Z</time>
      </trkpt>
      <trkpt lat="42.98703333" lon="-0.088595">
        <ele>438.0</ele>
        <time>2019-07-07T08:51:45.820Z</time>
      </trkpt>
      <trkpt lat="42.98720833" lon="-0.08863167">
        <ele>438.0</ele>
        <time>2019-07-07T08:51:46.804Z</time>
      </trkpt>
      <trkpt lat="42.987295" lon="-0.08865167">
        <ele>438.0</ele>
        <time>2019-07-07T08:51:47.821Z</time>
      </trkpt>
      <trkpt lat="42.987385" lon="-0.08867">
        <ele>438.0</ele>
        <time>2019-07-07T08:51:48.856Z</time>
      </trkpt>
      <trkpt lat="42.98747167" lon="-0.08868833">
        <ele>438.0</ele>
        <time>2019-07-07T08:51:49.834Z</time>
      </trkpt>
      <trkpt lat="42.98747167" lon="-0.08868833">
        <ele>438.0</ele>
        <time>2019-07-07T08:51:50.801Z</time>
      </trkpt>
      <trkpt lat="42.987645" lon="-0.08872667">
        <ele>438.0</ele>
        <time>2019-07-07T08:51:51.804Z</time>
      </trkpt>
      <trkpt lat="42.987645" lon="-0.08872667">
        <ele>438.0</ele>
        <time>2019-07-07T08:51:52.814Z</time>
      </trkpt>
      <trkpt lat="42.98781" lon="-0.08877833">
        <ele>439.0</ele>
        <time>2019-07-07T08:51:53.821Z</time>
      </trkpt>
      <trkpt lat="42.98789167" lon="-0.08880167">
        <ele>439.0</ele>
        <time>2019-07-07T08:51:54.808Z</time>
      </trkpt>
      <trkpt lat="42.98789167" lon="-0.08880167">
        <ele>439.0</ele>
        <time>2019-07-07T08:51:55.814Z</time>
      </trkpt>
      <trkpt lat="42.98805167" lon="-0.08885167">
        <ele>440.0</ele>
        <time>2019-07-07T08:51:56.831Z</time>
      </trkpt>
      <trkpt lat="42.98805167" lon="-0.08885167">
        <ele>440.0</ele>
        <time>2019-07-07T08:51:57.802Z</time>
      </trkpt>
      <trkpt lat="42.98820833" lon="-0.088905">
        <ele>439.0</ele>
        <time>2019-07-07T08:51:58.812Z</time>
      </trkpt>
      <trkpt lat="42.98829" lon="-0.08893833">
        <ele>439.0</ele>
        <time>2019-07-07T08:51:59.814Z</time>
      </trkpt>
      <trkpt lat="42.98829" lon="-0.08893833">
        <ele>439.0</ele>
        <time>2019-07-07T08:52:00.820Z</time>
      </trkpt>
      <trkpt lat="42.98843833" lon="-0.08900833">
        <ele>439.0</ele>
        <time>2019-07-07T08:52:01.824Z</time>
      </trkpt>
      <trkpt lat="42.98851333" lon="-0.08903833">
        <ele>439.0</ele>
        <time>2019-07-07T08:52:02.834Z</time>
      </trkpt>
      <trkpt lat="42.98851333" lon="-0.08903833">
        <ele>439.0</ele>
        <time>2019-07-07T08:52:03.802Z</time>
      </trkpt>
      <trkpt lat="42.98866333" lon="-0.089105">
        <ele>439.0</ele>
        <time>2019-07-07T08:52:04.813Z</time>
      </trkpt>
      <trkpt lat="42.98866333" lon="-0.089105">
        <ele>439.0</ele>
        <time>2019-07-07T08:52:05.819Z</time>
      </trkpt>
      <trkpt lat="42.98881333" lon="-0.08917667">
        <ele>439.0</ele>
        <time>2019-07-07T08:52:06.804Z</time>
      </trkpt>
      <trkpt lat="42.98881333" lon="-0.08917667">
        <ele>439.0</ele>
        <time>2019-07-07T08:52:07.810Z</time>
      </trkpt>
      <trkpt lat="42.98896833" lon="-0.08924167">
        <ele>440.0</ele>
        <time>2019-07-07T08:52:08.824Z</time>
      </trkpt>
      <trkpt lat="42.98904333" lon="-0.08927333">
        <ele>440.0</ele>
        <time>2019-07-07T08:52:09.817Z</time>
      </trkpt>
      <trkpt lat="42.98904333" lon="-0.08927333">
        <ele>440.0</ele>
        <time>2019-07-07T08:52:10.822Z</time>
      </trkpt>
      <trkpt lat="42.98919" lon="-0.08933833">
        <ele>440.0</ele>
        <time>2019-07-07T08:52:11.831Z</time>
      </trkpt>
      <trkpt lat="42.98926333" lon="-0.08937">
        <ele>440.0</ele>
        <time>2019-07-07T08:52:12.804Z</time>
      </trkpt>
      <trkpt lat="42.98926333" lon="-0.08937">
        <ele>440.0</ele>
        <time>2019-07-07T08:52:13.811Z</time>
      </trkpt>
      <trkpt lat="42.98941167" lon="-0.08943333">
        <ele>440.0</ele>
        <time>2019-07-07T08:52:14.804Z</time>
      </trkpt>
      <trkpt lat="42.98941167" lon="-0.08943333">
        <ele>440.0</ele>
        <time>2019-07-07T08:52:15.810Z</time>
      </trkpt>
      <trkpt lat="42.98955667" lon="-0.08949167">
        <ele>440.0</ele>
        <time>2019-07-07T08:52:16.814Z</time>
      </trkpt>
      <trkpt lat="42.98955667" lon="-0.08949167">
        <ele>440.0</ele>
        <time>2019-07-07T08:52:17.820Z</time>
      </trkpt>
      <trkpt lat="42.98970167" lon="-0.08954167">
        <ele>441.0</ele>
        <time>2019-07-07T08:52:18.806Z</time>
      </trkpt>
      <trkpt lat="42.98970167" lon="-0.08954167">
        <ele>441.0</ele>
        <time>2019-07-07T08:52:19.815Z</time>
      </trkpt>
      <trkpt lat="42.98984667" lon="-0.08958833">
        <ele>440.0</ele>
        <time>2019-07-07T08:52:20.814Z</time>
      </trkpt>
      <trkpt lat="42.98984667" lon="-0.08958833">
        <ele>440.0</ele>
        <time>2019-07-07T08:52:21.820Z</time>
      </trkpt>
      <trkpt lat="42.99000167" lon="-0.08962833">
        <ele>440.0</ele>
        <time>2019-07-07T08:52:22.811Z</time>
      </trkpt>
      <trkpt lat="42.99000167" lon="-0.08962833">
        <ele>440.0</ele>
        <time>2019-07-07T08:52:23.817Z</time>
      </trkpt>
      <trkpt lat="42.99016" lon="-0.08967667">
        <ele>440.0</ele>
        <time>2019-07-07T08:52:24.814Z</time>
      </trkpt>
      <trkpt lat="42.99016" lon="-0.08967667">
        <ele>440.0</ele>
        <time>2019-07-07T08:52:25.820Z</time>
      </trkpt>
      <trkpt lat="42.990325" lon="-0.08972333">
        <ele>440.0</ele>
        <time>2019-07-07T08:52:26.834Z</time>
      </trkpt>
      <trkpt lat="42.990325" lon="-0.08972333">
        <ele>440.0</ele>
        <time>2019-07-07T08:52:27.840Z</time>
      </trkpt>
      <trkpt lat="42.99049" lon="-0.08977333">
        <ele>440.0</ele>
        <time>2019-07-07T08:52:28.835Z</time>
      </trkpt>
      <trkpt lat="42.99049" lon="-0.08977333">
        <ele>440.0</ele>
        <time>2019-07-07T08:52:29.818Z</time>
      </trkpt>
      <trkpt lat="42.99065667" lon="-0.08982333">
        <ele>439.0</ele>
        <time>2019-07-07T08:52:30.814Z</time>
      </trkpt>
      <trkpt lat="42.99065667" lon="-0.08982333">
        <ele>439.0</ele>
        <time>2019-07-07T08:52:31.820Z</time>
      </trkpt>
      <trkpt lat="42.99082667" lon="-0.089875">
        <ele>439.0</ele>
        <time>2019-07-07T08:52:32.822Z</time>
      </trkpt>
      <trkpt lat="42.99082667" lon="-0.089875">
        <ele>439.0</ele>
        <time>2019-07-07T08:52:33.837Z</time>
      </trkpt>
      <trkpt lat="42.991" lon="-0.08993">
        <ele>438.0</ele>
        <time>2019-07-07T08:52:34.819Z</time>
      </trkpt>
      <trkpt lat="42.991" lon="-0.08993">
        <ele>438.0</ele>
        <time>2019-07-07T08:52:35.825Z</time>
      </trkpt>
      <trkpt lat="42.99117167" lon="-0.08999333">
        <ele>439.0</ele>
        <time>2019-07-07T08:52:36.824Z</time>
      </trkpt>
      <trkpt lat="42.99117167" lon="-0.08999333">
        <ele>439.0</ele>
        <time>2019-07-07T08:52:37.840Z</time>
      </trkpt>
      <trkpt lat="42.99134167" lon="-0.090055">
        <ele>438.0</ele>
        <time>2019-07-07T08:52:38.839Z</time>
      </trkpt>
      <trkpt lat="42.99134167" lon="-0.090055">
        <ele>438.0</ele>
        <time>2019-07-07T08:52:39.818Z</time>
      </trkpt>
      <trkpt lat="42.99151333" lon="-0.09012167">
        <ele>438.0</ele>
        <time>2019-07-07T08:52:40.824Z</time>
      </trkpt>
      <trkpt lat="42.99151333" lon="-0.09012167">
        <ele>438.0</ele>
        <time>2019-07-07T08:52:41.802Z</time>
      </trkpt>
      <trkpt lat="42.99168667" lon="-0.09019">
        <ele>438.0</ele>
        <time>2019-07-07T08:52:42.804Z</time>
      </trkpt>
      <trkpt lat="42.99177333" lon="-0.09023">
        <ele>438.0</ele>
        <time>2019-07-07T08:52:43.804Z</time>
      </trkpt>
      <trkpt lat="42.99177333" lon="-0.09023">
        <ele>438.0</ele>
        <time>2019-07-07T08:52:44.810Z</time>
      </trkpt>
      <trkpt lat="42.99194" lon="-0.09031333">
        <ele>437.0</ele>
        <time>2019-07-07T08:52:45.814Z</time>
      </trkpt>
      <trkpt lat="42.992025" lon="-0.09035167">
        <ele>437.0</ele>
        <time>2019-07-07T08:52:46.824Z</time>
      </trkpt>
      <trkpt lat="42.992025" lon="-0.09035167">
        <ele>437.0</ele>
        <time>2019-07-07T08:52:47.810Z</time>
      </trkpt>
      <trkpt lat="42.992195" lon="-0.09043">
        <ele>436.0</ele>
        <time>2019-07-07T08:52:48.803Z</time>
      </trkpt>
      <trkpt lat="42.992195" lon="-0.09043">
        <ele>436.0</ele>
        <time>2019-07-07T08:52:49.816Z</time>
      </trkpt>
      <trkpt lat="42.99236833" lon="-0.09050833">
        <ele>435.0</ele>
        <time>2019-07-07T08:52:50.824Z</time>
      </trkpt>
      <trkpt lat="42.99245333" lon="-0.09054833">
        <ele>435.0</ele>
        <time>2019-07-07T08:52:51.824Z</time>
      </trkpt>
      <trkpt lat="42.99245333" lon="-0.09054833">
        <ele>435.0</ele>
        <time>2019-07-07T08:52:52.836Z</time>
      </trkpt>
      <trkpt lat="42.99262333" lon="-0.09063">
        <ele>435.0</ele>
        <time>2019-07-07T08:52:53.841Z</time>
      </trkpt>
      <trkpt lat="42.99270667" lon="-0.09067">
        <ele>435.0</ele>
        <time>2019-07-07T08:52:54.840Z</time>
      </trkpt>
      <trkpt lat="42.99270667" lon="-0.09067">
        <ele>435.0</ele>
        <time>2019-07-07T08:52:55.806Z</time>
      </trkpt>
      <trkpt lat="42.99287333" lon="-0.09074833">
        <ele>435.0</ele>
        <time>2019-07-07T08:52:56.804Z</time>
      </trkpt>
      <trkpt lat="42.99295333" lon="-0.09078833">
        <ele>435.0</ele>
        <time>2019-07-07T08:52:57.821Z</time>
      </trkpt>
      <trkpt lat="42.99295333" lon="-0.09078833">
        <ele>435.0</ele>
        <time>2019-07-07T08:52:58.836Z</time>
      </trkpt>
      <trkpt lat="42.99310833" lon="-0.09087167">
        <ele>435.0</ele>
        <time>2019-07-07T08:52:59.824Z</time>
      </trkpt>
      <trkpt lat="42.993185" lon="-0.09090833">
        <ele>435.0</ele>
        <time>2019-07-07T08:53:00.804Z</time>
      </trkpt>
      <trkpt lat="42.993185" lon="-0.09090833">
        <ele>435.0</ele>
        <time>2019-07-07T08:53:01.809Z</time>
      </trkpt>
      <trkpt lat="42.99332667" lon="-0.09098333">
        <ele>436.0</ele>
        <time>2019-07-07T08:53:02.823Z</time>
      </trkpt>
      <trkpt lat="42.99340167" lon="-0.09101833">
        <ele>436.0</ele>
        <time>2019-07-07T08:53:03.839Z</time>
      </trkpt>
      <trkpt lat="42.99340167" lon="-0.09101833">
        <ele>436.0</ele>
        <time>2019-07-07T08:53:04.805Z</time>
      </trkpt>
      <trkpt lat="42.993545" lon="-0.091085">
        <ele>436.0</ele>
        <time>2019-07-07T08:53:05.807Z</time>
      </trkpt>
      <trkpt lat="42.99361333" lon="-0.09112">
        <ele>437.0</ele>
        <time>2019-07-07T08:53:06.824Z</time>
      </trkpt>
      <trkpt lat="42.99361333" lon="-0.09112">
        <ele>437.0</ele>
        <time>2019-07-07T08:53:07.838Z</time>
      </trkpt>
      <trkpt lat="42.993755" lon="-0.09118667">
        <ele>438.0</ele>
        <time>2019-07-07T08:53:08.816Z</time>
      </trkpt>
      <trkpt lat="42.99382667" lon="-0.09121833">
        <ele>438.0</ele>
        <time>2019-07-07T08:53:09.821Z</time>
      </trkpt>
      <trkpt lat="42.99382667" lon="-0.09121833">
        <ele>438.0</ele>
        <time>2019-07-07T08:53:10.801Z</time>
      </trkpt>
      <trkpt lat="42.99396833" lon="-0.091285">
        <ele>438.0</ele>
        <time>2019-07-07T08:53:11.814Z</time>
      </trkpt>
      <trkpt lat="42.99403833" lon="-0.09132167">
        <ele>439.0</ele>
        <time>2019-07-07T08:53:12.806Z</time>
      </trkpt>
      <trkpt lat="42.99403833" lon="-0.09132167">
        <ele>439.0</ele>
        <time>2019-07-07T08:53:13.812Z</time>
      </trkpt>
      <trkpt lat="42.99418" lon="-0.09139167">
        <ele>439.0</ele>
        <time>2019-07-07T08:53:14.831Z</time>
      </trkpt>
      <trkpt lat="42.994255" lon="-0.09142667">
        <ele>439.0</ele>
        <time>2019-07-07T08:53:15.834Z</time>
      </trkpt>
      <trkpt lat="42.994255" lon="-0.09142667">
        <ele>439.0</ele>
        <time>2019-07-07T08:53:16.804Z</time>
      </trkpt>
      <trkpt lat="42.99439833" lon="-0.091485">
        <ele>440.0</ele>
        <time>2019-07-07T08:53:17.804Z</time>
      </trkpt>
      <trkpt lat="42.99447167" lon="-0.09150833">
        <ele>440.0</ele>
        <time>2019-07-07T08:53:18.809Z</time>
      </trkpt>
      <trkpt lat="42.99447167" lon="-0.09150833">
        <ele>440.0</ele>
        <time>2019-07-07T08:53:19.815Z</time>
      </trkpt>
      <trkpt lat="42.99462333" lon="-0.09153833">
        <ele>440.0</ele>
        <time>2019-07-07T08:53:20.841Z</time>
      </trkpt>
      <trkpt lat="42.9947" lon="-0.09154">
        <ele>441.0</ele>
        <time>2019-07-07T08:53:21.808Z</time>
      </trkpt>
      <trkpt lat="42.9947" lon="-0.09154">
        <ele>441.0</ele>
        <time>2019-07-07T08:53:22.814Z</time>
      </trkpt>
      <trkpt lat="42.99485333" lon="-0.091545">
        <ele>441.0</ele>
        <time>2019-07-07T08:53:23.834Z</time>
      </trkpt>
      <trkpt lat="42.99485333" lon="-0.091545">
        <ele>441.0</ele>
        <time>2019-07-07T08:53:24.803Z</time>
      </trkpt>
      <trkpt lat="42.99500333" lon="-0.09155833">
        <ele>442.0</ele>
        <time>2019-07-07T08:53:25.804Z</time>
      </trkpt>
      <trkpt lat="42.99500333" lon="-0.09155833">
        <ele>442.0</ele>
        <time>2019-07-07T08:53:26.813Z</time>
      </trkpt>
      <trkpt lat="42.99515167" lon="-0.09157333">
        <ele>443.0</ele>
        <time>2019-07-07T08:53:27.818Z</time>
      </trkpt>
      <trkpt lat="42.99515167" lon="-0.09157333">
        <ele>443.0</ele>
        <time>2019-07-07T08:53:28.824Z</time>
      </trkpt>
      <trkpt lat="42.99529833" lon="-0.09160167">
        <ele>443.0</ele>
        <time>2019-07-07T08:53:29.819Z</time>
      </trkpt>
      <trkpt lat="42.99536833" lon="-0.09162167">
        <ele>444.0</ele>
        <time>2019-07-07T08:53:30.824Z</time>
      </trkpt>
      <trkpt lat="42.99536833" lon="-0.09162167">
        <ele>444.0</ele>
        <time>2019-07-07T08:53:31.830Z</time>
      </trkpt>
      <trkpt lat="42.99550667" lon="-0.09167833">
        <ele>444.0</ele>
        <time>2019-07-07T08:53:32.824Z</time>
      </trkpt>
      <trkpt lat="42.995575" lon="-0.09171333">
        <ele>444.0</ele>
        <time>2019-07-07T08:53:33.803Z</time>
      </trkpt>
      <trkpt lat="42.995575" lon="-0.09171333">
        <ele>444.0</ele>
        <time>2019-07-07T08:53:34.809Z</time>
      </trkpt>
      <trkpt lat="42.99571667" lon="-0.091775">
        <ele>445.0</ele>
        <time>2019-07-07T08:53:35.814Z</time>
      </trkpt>
      <trkpt lat="42.99578833" lon="-0.09180333">
        <ele>445.0</ele>
        <time>2019-07-07T08:53:36.819Z</time>
      </trkpt>
      <trkpt lat="42.99578833" lon="-0.09180333">
        <ele>445.0</ele>
        <time>2019-07-07T08:53:37.825Z</time>
      </trkpt>
      <trkpt lat="42.99592333" lon="-0.09185833">
        <ele>445.0</ele>
        <time>2019-07-07T08:53:38.804Z</time>
      </trkpt>
      <trkpt lat="42.99592333" lon="-0.09185833">
        <ele>445.0</ele>
        <time>2019-07-07T08:53:39.814Z</time>
      </trkpt>
      <trkpt lat="42.99605667" lon="-0.09191">
        <ele>445.0</ele>
        <time>2019-07-07T08:53:40.826Z</time>
      </trkpt>
      <trkpt lat="42.99612167" lon="-0.09193167">
        <ele>445.0</ele>
        <time>2019-07-07T08:53:41.820Z</time>
      </trkpt>
      <trkpt lat="42.99612167" lon="-0.09193167">
        <ele>445.0</ele>
        <time>2019-07-07T08:53:42.827Z</time>
      </trkpt>
      <trkpt lat="42.996255" lon="-0.09198">
        <ele>445.0</ele>
        <time>2019-07-07T08:53:43.824Z</time>
      </trkpt>
      <trkpt lat="42.99632167" lon="-0.092005">
        <ele>445.0</ele>
        <time>2019-07-07T08:53:44.804Z</time>
      </trkpt>
      <trkpt lat="42.99632167" lon="-0.092005">
        <ele>445.0</ele>
        <time>2019-07-07T08:53:45.810Z</time>
      </trkpt>
      <trkpt lat="42.99645167" lon="-0.09206333">
        <ele>446.0</ele>
        <time>2019-07-07T08:53:46.835Z</time>
      </trkpt>
      <trkpt lat="42.99645167" lon="-0.09206333">
        <ele>446.0</ele>
        <time>2019-07-07T08:53:47.815Z</time>
      </trkpt>
      <trkpt lat="42.99657167" lon="-0.09213333">
        <ele>447.0</ele>
        <time>2019-07-07T08:53:48.804Z</time>
      </trkpt>
      <trkpt lat="42.99657167" lon="-0.09213333">
        <ele>447.0</ele>
        <time>2019-07-07T08:53:49.813Z</time>
      </trkpt>
      <trkpt lat="42.99668333" lon="-0.09222667">
        <ele>447.0</ele>
        <time>2019-07-07T08:53:50.814Z</time>
      </trkpt>
      <trkpt lat="42.99668333" lon="-0.09222667">
        <ele>447.0</ele>
        <time>2019-07-07T08:53:51.820Z</time>
      </trkpt>
      <trkpt lat="42.99678167" lon="-0.09234833">
        <ele>447.0</ele>
        <time>2019-07-07T08:53:52.814Z</time>
      </trkpt>
      <trkpt lat="42.99678167" lon="-0.09234833">
        <ele>447.0</ele>
        <time>2019-07-07T08:53:53.825Z</time>
      </trkpt>
      <trkpt lat="42.99687167" lon="-0.09248">
        <ele>448.0</ele>
        <time>2019-07-07T08:53:54.836Z</time>
      </trkpt>
      <trkpt lat="42.99687167" lon="-0.09248">
        <ele>448.0</ele>
        <time>2019-07-07T08:53:55.802Z</time>
      </trkpt>
      <trkpt lat="42.99696" lon="-0.09261167">
        <ele>448.0</ele>
        <time>2019-07-07T08:53:56.804Z</time>
      </trkpt>
      <trkpt lat="42.997005" lon="-0.09267667">
        <ele>448.0</ele>
        <time>2019-07-07T08:53:57.841Z</time>
      </trkpt>
      <trkpt lat="42.997005" lon="-0.09267667">
        <ele>448.0</ele>
        <time>2019-07-07T08:53:58.806Z</time>
      </trkpt>
      <trkpt lat="42.99709333" lon="-0.09280333">
        <ele>448.0</ele>
        <time>2019-07-07T08:53:59.804Z</time>
      </trkpt>
      <trkpt lat="42.99713667" lon="-0.09286667">
        <ele>448.0</ele>
        <time>2019-07-07T08:54:00.814Z</time>
      </trkpt>
      <trkpt lat="42.99713667" lon="-0.09286667">
        <ele>448.0</ele>
        <time>2019-07-07T08:54:01.821Z</time>
      </trkpt>
      <trkpt lat="42.99722" lon="-0.09299167">
        <ele>449.0</ele>
        <time>2019-07-07T08:54:02.804Z</time>
      </trkpt>
      <trkpt lat="42.99722" lon="-0.09299167">
        <ele>449.0</ele>
        <time>2019-07-07T08:54:03.809Z</time>
      </trkpt>
      <trkpt lat="42.997305" lon="-0.09310833">
        <ele>450.0</ele>
        <time>2019-07-07T08:54:04.824Z</time>
      </trkpt>
      <trkpt lat="42.997345" lon="-0.09316667">
        <ele>450.0</ele>
        <time>2019-07-07T08:54:05.804Z</time>
      </trkpt>
      <trkpt lat="42.997345" lon="-0.09316667">
        <ele>450.0</ele>
        <time>2019-07-07T08:54:06.810Z</time>
      </trkpt>
      <trkpt lat="42.99741667" lon="-0.09328167">
        <ele>451.0</ele>
        <time>2019-07-07T08:54:07.812Z</time>
      </trkpt>
      <trkpt lat="42.99745" lon="-0.09333667">
        <ele>451.0</ele>
        <time>2019-07-07T08:54:08.824Z</time>
      </trkpt>
      <trkpt lat="42.99745" lon="-0.09333667">
        <ele>451.0</ele>
        <time>2019-07-07T08:54:09.807Z</time>
      </trkpt>
      <trkpt lat="42.99752833" lon="-0.093445">
        <ele>451.0</ele>
        <time>2019-07-07T08:54:10.827Z</time>
      </trkpt>
      <trkpt lat="42.99752833" lon="-0.093445">
        <ele>451.0</ele>
        <time>2019-07-07T08:54:11.814Z</time>
      </trkpt>
      <trkpt lat="42.99759667" lon="-0.09355333">
        <ele>452.0</ele>
        <time>2019-07-07T08:54:12.832Z</time>
      </trkpt>
      <trkpt lat="42.99759667" lon="-0.09355333">
        <ele>452.0</ele>
        <time>2019-07-07T08:54:13.830Z</time>
      </trkpt>
      <trkpt lat="42.99767333" lon="-0.09365833">
        <ele>453.0</ele>
        <time>2019-07-07T08:54:14.810Z</time>
      </trkpt>
      <trkpt lat="42.99767333" lon="-0.09365833">
        <ele>453.0</ele>
        <time>2019-07-07T08:54:15.809Z</time>
      </trkpt>
      <trkpt lat="42.99773667" lon="-0.093765">
        <ele>454.0</ele>
        <time>2019-07-07T08:54:16.809Z</time>
      </trkpt>
      <trkpt lat="42.997805" lon="-0.09387167">
        <ele>455.0</ele>
        <time>2019-07-07T08:54:17.941Z</time>
      </trkpt>
      <trkpt lat="42.997805" lon="-0.09387167">
        <ele>455.0</ele>
        <time>2019-07-07T08:54:18.843Z</time>
      </trkpt>
      <trkpt lat="42.997805" lon="-0.09387167">
        <ele>455.0</ele>
        <time>2019-07-07T08:54:19.806Z</time>
      </trkpt>
      <trkpt lat="42.99786833" lon="-0.09398">
        <ele>455.0</ele>
        <time>2019-07-07T08:54:20.820Z</time>
      </trkpt>
      <trkpt lat="42.99793" lon="-0.09409167">
        <ele>456.0</ele>
        <time>2019-07-07T08:54:21.815Z</time>
      </trkpt>
      <trkpt lat="42.99793" lon="-0.09409167">
        <ele>456.0</ele>
        <time>2019-07-07T08:54:22.839Z</time>
      </trkpt>
      <trkpt lat="42.99796" lon="-0.09414667">
        <ele>456.0</ele>
        <time>2019-07-07T08:54:23.820Z</time>
      </trkpt>
      <trkpt lat="42.99799167" lon="-0.09420167">
        <ele>456.0</ele>
        <time>2019-07-07T08:54:24.841Z</time>
      </trkpt>
      <trkpt lat="42.99802333" lon="-0.09425333">
        <ele>456.0</ele>
        <time>2019-07-07T08:54:25.809Z</time>
      </trkpt>
      <trkpt lat="42.99802333" lon="-0.09425333">
        <ele>456.0</ele>
        <time>2019-07-07T08:54:26.816Z</time>
      </trkpt>
      <trkpt lat="42.998095" lon="-0.094355">
        <ele>457.0</ele>
        <time>2019-07-07T08:54:27.834Z</time>
      </trkpt>
      <trkpt lat="42.99813667" lon="-0.09440667">
        <ele>456.0</ele>
        <time>2019-07-07T08:54:28.804Z</time>
      </trkpt>
      <trkpt lat="42.99813667" lon="-0.09440667">
        <ele>456.0</ele>
        <time>2019-07-07T08:54:29.816Z</time>
      </trkpt>
      <trkpt lat="42.99822" lon="-0.094525">
        <ele>456.0</ele>
        <time>2019-07-07T08:54:30.813Z</time>
      </trkpt>
      <trkpt lat="42.99822" lon="-0.094525">
        <ele>456.0</ele>
        <time>2019-07-07T08:54:31.819Z</time>
      </trkpt>
      <trkpt lat="42.998305" lon="-0.09465167">
        <ele>456.0</ele>
        <time>2019-07-07T08:54:32.824Z</time>
      </trkpt>
      <trkpt lat="42.99834833" lon="-0.094715">
        <ele>456.0</ele>
        <time>2019-07-07T08:54:33.833Z</time>
      </trkpt>
      <trkpt lat="42.99839667" lon="-0.09478333">
        <ele>456.0</ele>
        <time>2019-07-07T08:54:34.802Z</time>
      </trkpt>
      <trkpt lat="42.99839667" lon="-0.09478333">
        <ele>456.0</ele>
        <time>2019-07-07T08:54:35.808Z</time>
      </trkpt>
      <trkpt lat="42.99849" lon="-0.094915">
        <ele>456.0</ele>
        <time>2019-07-07T08:54:36.814Z</time>
      </trkpt>
      <trkpt lat="42.99849" lon="-0.094915">
        <ele>456.0</ele>
        <time>2019-07-07T08:54:37.820Z</time>
      </trkpt>
      <trkpt lat="42.99858167" lon="-0.095055">
        <ele>456.0</ele>
        <time>2019-07-07T08:54:38.824Z</time>
      </trkpt>
      <trkpt lat="42.99858167" lon="-0.095055">
        <ele>456.0</ele>
        <time>2019-07-07T08:54:39.822Z</time>
      </trkpt>
      <trkpt lat="42.99867667" lon="-0.09519667">
        <ele>457.0</ele>
        <time>2019-07-07T08:54:40.829Z</time>
      </trkpt>
      <trkpt lat="42.99872667" lon="-0.09526667">
        <ele>457.0</ele>
        <time>2019-07-07T08:54:41.809Z</time>
      </trkpt>
      <trkpt lat="42.99872667" lon="-0.09526667">
        <ele>457.0</ele>
        <time>2019-07-07T08:54:42.815Z</time>
      </trkpt>
      <trkpt lat="42.99882833" lon="-0.09540333">
        <ele>457.0</ele>
        <time>2019-07-07T08:54:43.821Z</time>
      </trkpt>
      <trkpt lat="42.99882833" lon="-0.09540333">
        <ele>457.0</ele>
        <time>2019-07-07T08:54:44.834Z</time>
      </trkpt>
      <trkpt lat="42.99893" lon="-0.09554833">
        <ele>457.0</ele>
        <time>2019-07-07T08:54:45.834Z</time>
      </trkpt>
      <trkpt lat="42.99893" lon="-0.09554833">
        <ele>457.0</ele>
        <time>2019-07-07T08:54:46.802Z</time>
      </trkpt>
      <trkpt lat="42.99902167" lon="-0.09569167">
        <ele>457.0</ele>
        <time>2019-07-07T08:54:47.820Z</time>
      </trkpt>
      <trkpt lat="42.99902167" lon="-0.09569167">
        <ele>457.0</ele>
        <time>2019-07-07T08:54:48.814Z</time>
      </trkpt>
      <trkpt lat="42.999115" lon="-0.09583333">
        <ele>457.0</ele>
        <time>2019-07-07T08:54:49.819Z</time>
      </trkpt>
      <trkpt lat="42.99916167" lon="-0.0959">
        <ele>458.0</ele>
        <time>2019-07-07T08:54:50.824Z</time>
      </trkpt>
      <trkpt lat="42.99920667" lon="-0.09596833">
        <ele>458.0</ele>
        <time>2019-07-07T08:54:51.809Z</time>
      </trkpt>
      <trkpt lat="42.99920667" lon="-0.09596833">
        <ele>458.0</ele>
        <time>2019-07-07T08:54:52.815Z</time>
      </trkpt>
      <trkpt lat="42.99929667" lon="-0.09609833">
        <ele>458.0</ele>
        <time>2019-07-07T08:54:53.835Z</time>
      </trkpt>
      <trkpt lat="42.99929667" lon="-0.09609833">
        <ele>458.0</ele>
        <time>2019-07-07T08:54:54.801Z</time>
      </trkpt>
      <trkpt lat="42.99938333" lon="-0.09622833">
        <ele>458.0</ele>
        <time>2019-07-07T08:54:55.802Z</time>
      </trkpt>
      <trkpt lat="42.99938333" lon="-0.09622833">
        <ele>458.0</ele>
        <time>2019-07-07T08:54:56.808Z</time>
      </trkpt>
      <trkpt lat="42.99947333" lon="-0.09636167">
        <ele>458.0</ele>
        <time>2019-07-07T08:54:57.821Z</time>
      </trkpt>
      <trkpt lat="42.99947333" lon="-0.09636167">
        <ele>458.0</ele>
        <time>2019-07-07T08:54:58.829Z</time>
      </trkpt>
      <trkpt lat="42.99956167" lon="-0.09649167">
        <ele>459.0</ele>
        <time>2019-07-07T08:54:59.814Z</time>
      </trkpt>
      <trkpt lat="42.99956167" lon="-0.09649167">
        <ele>459.0</ele>
        <time>2019-07-07T08:55:00.819Z</time>
      </trkpt>
      <trkpt lat="42.99965167" lon="-0.096625">
        <ele>459.0</ele>
        <time>2019-07-07T08:55:01.814Z</time>
      </trkpt>
      <trkpt lat="42.99969333" lon="-0.096695">
        <ele>459.0</ele>
        <time>2019-07-07T08:55:02.819Z</time>
      </trkpt>
      <trkpt lat="42.99969333" lon="-0.096695">
        <ele>459.0</ele>
        <time>2019-07-07T08:55:03.825Z</time>
      </trkpt>
      <trkpt lat="42.99978" lon="-0.09682667">
        <ele>459.0</ele>
        <time>2019-07-07T08:55:04.835Z</time>
      </trkpt>
      <trkpt lat="42.99978" lon="-0.09682667">
        <ele>459.0</ele>
        <time>2019-07-07T08:55:05.806Z</time>
      </trkpt>
      <trkpt lat="42.99987333" lon="-0.09696167">
        <ele>459.0</ele>
        <time>2019-07-07T08:55:06.804Z</time>
      </trkpt>
      <trkpt lat="42.99987333" lon="-0.09696167">
        <ele>459.0</ele>
        <time>2019-07-07T08:55:07.810Z</time>
      </trkpt>
      <trkpt lat="42.99996667" lon="-0.09709833">
        <ele>459.0</ele>
        <time>2019-07-07T08:55:08.804Z</time>
      </trkpt>
      <trkpt lat="43.00001167" lon="-0.097165">
        <ele>460.0</ele>
        <time>2019-07-07T08:55:09.839Z</time>
      </trkpt>
      <trkpt lat="43.00001167" lon="-0.097165">
        <ele>460.0</ele>
        <time>2019-07-07T08:55:10.805Z</time>
      </trkpt>
      <trkpt lat="43.00010333" lon="-0.09730167">
        <ele>460.0</ele>
        <time>2019-07-07T08:55:11.839Z</time>
      </trkpt>
      <trkpt lat="43.00014833" lon="-0.09737167">
        <ele>460.0</ele>
        <time>2019-07-07T08:55:12.804Z</time>
      </trkpt>
      <trkpt lat="43.00014833" lon="-0.09737167">
        <ele>460.0</ele>
        <time>2019-07-07T08:55:13.809Z</time>
      </trkpt>
      <trkpt lat="43.00023833" lon="-0.09751">
        <ele>460.0</ele>
        <time>2019-07-07T08:55:14.814Z</time>
      </trkpt>
      <trkpt lat="43.00028333" lon="-0.09758">
        <ele>460.0</ele>
        <time>2019-07-07T08:55:15.824Z</time>
      </trkpt>
      <trkpt lat="43.00032833" lon="-0.09765">
        <ele>460.0</ele>
        <time>2019-07-07T08:55:16.837Z</time>
      </trkpt>
      <trkpt lat="43.00032833" lon="-0.09765">
        <ele>460.0</ele>
        <time>2019-07-07T08:55:17.805Z</time>
      </trkpt>
      <trkpt lat="43.000415" lon="-0.097795">
        <ele>460.0</ele>
        <time>2019-07-07T08:55:18.824Z</time>
      </trkpt>
      <trkpt lat="43.00045833" lon="-0.09786667">
        <ele>460.0</ele>
        <time>2019-07-07T08:55:19.825Z</time>
      </trkpt>
      <trkpt lat="43.00045833" lon="-0.09786667">
        <ele>460.0</ele>
        <time>2019-07-07T08:55:20.804Z</time>
      </trkpt>
      <trkpt lat="43.00054833" lon="-0.09801">
        <ele>460.0</ele>
        <time>2019-07-07T08:55:21.838Z</time>
      </trkpt>
      <trkpt lat="43.00054833" lon="-0.09801">
        <ele>460.0</ele>
        <time>2019-07-07T08:55:22.804Z</time>
      </trkpt>
      <trkpt lat="43.00064167" lon="-0.098145">
        <ele>461.0</ele>
        <time>2019-07-07T08:55:23.809Z</time>
      </trkpt>
      <trkpt lat="43.00068833" lon="-0.09821333">
        <ele>461.0</ele>
        <time>2019-07-07T08:55:24.814Z</time>
      </trkpt>
      <trkpt lat="43.00068833" lon="-0.09821333">
        <ele>461.0</ele>
        <time>2019-07-07T08:55:25.821Z</time>
      </trkpt>
      <trkpt lat="43.00077833" lon="-0.09835">
        <ele>461.0</ele>
        <time>2019-07-07T08:55:26.835Z</time>
      </trkpt>
      <trkpt lat="43.00077833" lon="-0.09835">
        <ele>461.0</ele>
        <time>2019-07-07T08:55:27.804Z</time>
      </trkpt>
      <trkpt lat="43.00087" lon="-0.098485">
        <ele>461.0</ele>
        <time>2019-07-07T08:55:28.804Z</time>
      </trkpt>
      <trkpt lat="43.00087" lon="-0.098485">
        <ele>461.0</ele>
        <time>2019-07-07T08:55:29.813Z</time>
      </trkpt>
      <trkpt lat="43.00096333" lon="-0.098615">
        <ele>462.0</ele>
        <time>2019-07-07T08:55:30.814Z</time>
      </trkpt>
      <trkpt lat="43.00096333" lon="-0.098615">
        <ele>462.0</ele>
        <time>2019-07-07T08:55:31.820Z</time>
      </trkpt>
      <trkpt lat="43.00106167" lon="-0.09873667">
        <ele>462.0</ele>
        <time>2019-07-07T08:55:32.840Z</time>
      </trkpt>
      <trkpt lat="43.00106167" lon="-0.09873667">
        <ele>462.0</ele>
        <time>2019-07-07T08:55:33.806Z</time>
      </trkpt>
      <trkpt lat="43.00116167" lon="-0.098855">
        <ele>462.0</ele>
        <time>2019-07-07T08:55:34.839Z</time>
      </trkpt>
      <trkpt lat="43.00121167" lon="-0.098915">
        <ele>462.0</ele>
        <time>2019-07-07T08:55:35.817Z</time>
      </trkpt>
      <trkpt lat="43.00126" lon="-0.09898">
        <ele>462.0</ele>
        <time>2019-07-07T08:55:36.839Z</time>
      </trkpt>
      <trkpt lat="43.00126" lon="-0.09898">
        <ele>462.0</ele>
        <time>2019-07-07T08:55:37.805Z</time>
      </trkpt>
      <trkpt lat="43.001355" lon="-0.09908833">
        <ele>462.0</ele>
        <time>2019-07-07T08:55:38.814Z</time>
      </trkpt>
      <trkpt lat="43.001355" lon="-0.09908833">
        <ele>462.0</ele>
        <time>2019-07-07T08:55:39.821Z</time>
      </trkpt>
      <trkpt lat="43.001455" lon="-0.09914833">
        <ele>463.0</ele>
        <time>2019-07-07T08:55:40.824Z</time>
      </trkpt>
      <trkpt lat="43.00151167" lon="-0.09916667">
        <ele>463.0</ele>
        <time>2019-07-07T08:55:41.838Z</time>
      </trkpt>
      <trkpt lat="43.00151167" lon="-0.09916667">
        <ele>463.0</ele>
        <time>2019-07-07T08:55:42.806Z</time>
      </trkpt>
      <trkpt lat="43.00159" lon="-0.09926333">
        <ele>463.0</ele>
        <time>2019-07-07T08:55:43.813Z</time>
      </trkpt>
      <trkpt lat="43.00159" lon="-0.09926333">
        <ele>463.0</ele>
        <time>2019-07-07T08:55:44.806Z</time>
      </trkpt>
      <trkpt lat="43.00159167" lon="-0.099415">
        <ele>463.0</ele>
        <time>2019-07-07T08:55:45.824Z</time>
      </trkpt>
      <trkpt lat="43.0016" lon="-0.0995">
        <ele>463.0</ele>
        <time>2019-07-07T08:55:46.823Z</time>
      </trkpt>
      <trkpt lat="43.0016" lon="-0.0995">
        <ele>463.0</ele>
        <time>2019-07-07T08:55:47.814Z</time>
      </trkpt>
      <trkpt lat="43.00166333" lon="-0.09964833">
        <ele>463.0</ele>
        <time>2019-07-07T08:55:48.814Z</time>
      </trkpt>
      <trkpt lat="43.00166333" lon="-0.09964833">
        <ele>463.0</ele>
        <time>2019-07-07T08:55:49.821Z</time>
      </trkpt>
      <trkpt lat="43.00174667" lon="-0.099785">
        <ele>463.0</ele>
        <time>2019-07-07T08:55:50.824Z</time>
      </trkpt>
      <trkpt lat="43.00178833" lon="-0.099855">
        <ele>463.0</ele>
        <time>2019-07-07T08:55:51.804Z</time>
      </trkpt>
      <trkpt lat="43.00178833" lon="-0.099855">
        <ele>463.0</ele>
        <time>2019-07-07T08:55:52.810Z</time>
      </trkpt>
      <trkpt lat="43.00187" lon="-0.100005">
        <ele>464.0</ele>
        <time>2019-07-07T08:55:53.818Z</time>
      </trkpt>
      <trkpt lat="43.00187" lon="-0.100005">
        <ele>464.0</ele>
        <time>2019-07-07T08:55:54.825Z</time>
      </trkpt>
      <trkpt lat="43.00195333" lon="-0.10015667">
        <ele>464.0</ele>
        <time>2019-07-07T08:55:55.837Z</time>
      </trkpt>
      <trkpt lat="43.00195333" lon="-0.10015667">
        <ele>464.0</ele>
        <time>2019-07-07T08:55:56.802Z</time>
      </trkpt>
      <trkpt lat="43.00203667" lon="-0.10030833">
        <ele>464.0</ele>
        <time>2019-07-07T08:55:57.840Z</time>
      </trkpt>
      <trkpt lat="43.00203667" lon="-0.10030833">
        <ele>464.0</ele>
        <time>2019-07-07T08:55:58.805Z</time>
      </trkpt>
      <trkpt lat="43.00211667" lon="-0.10045833">
        <ele>464.0</ele>
        <time>2019-07-07T08:55:59.822Z</time>
      </trkpt>
      <trkpt lat="43.00215667" lon="-0.10053667">
        <ele>464.0</ele>
        <time>2019-07-07T08:56:00.809Z</time>
      </trkpt>
      <trkpt lat="43.00215667" lon="-0.10053667">
        <ele>464.0</ele>
        <time>2019-07-07T08:56:01.815Z</time>
      </trkpt>
      <trkpt lat="43.00223167" lon="-0.100685">
        <ele>465.0</ele>
        <time>2019-07-07T08:56:02.808Z</time>
      </trkpt>
      <trkpt lat="43.00223167" lon="-0.100685">
        <ele>465.0</ele>
        <time>2019-07-07T08:56:03.813Z</time>
      </trkpt>
      <trkpt lat="43.00230833" lon="-0.10083333">
        <ele>465.0</ele>
        <time>2019-07-07T08:56:04.824Z</time>
      </trkpt>
      <trkpt lat="43.00234333" lon="-0.10091833">
        <ele>464.0</ele>
        <time>2019-07-07T08:56:05.835Z</time>
      </trkpt>
      <trkpt lat="43.00238167" lon="-0.10099333">
        <ele>464.0</ele>
        <time>2019-07-07T08:56:06.804Z</time>
      </trkpt>
      <trkpt lat="43.00238167" lon="-0.10099333">
        <ele>464.0</ele>
        <time>2019-07-07T08:56:07.809Z</time>
      </trkpt>
      <trkpt lat="43.00245" lon="-0.101135">
        <ele>464.0</ele>
        <time>2019-07-07T08:56:08.835Z</time>
      </trkpt>
      <trkpt lat="43.00248667" lon="-0.10121">
        <ele>464.0</ele>
        <time>2019-07-07T08:56:09.804Z</time>
      </trkpt>
      <trkpt lat="43.00248667" lon="-0.10121">
        <ele>464.0</ele>
        <time>2019-07-07T08:56:10.810Z</time>
      </trkpt>
      <trkpt lat="43.00256" lon="-0.10135333">
        <ele>465.0</ele>
        <time>2019-07-07T08:56:11.824Z</time>
      </trkpt>
      <trkpt lat="43.00259667" lon="-0.10142333">
        <ele>465.0</ele>
        <time>2019-07-07T08:56:12.838Z</time>
      </trkpt>
      <trkpt lat="43.00259667" lon="-0.10142333">
        <ele>465.0</ele>
        <time>2019-07-07T08:56:13.807Z</time>
      </trkpt>
      <trkpt lat="43.00267333" lon="-0.10155833">
        <ele>465.0</ele>
        <time>2019-07-07T08:56:14.810Z</time>
      </trkpt>
      <trkpt lat="43.00267333" lon="-0.10155833">
        <ele>465.0</ele>
        <time>2019-07-07T08:56:15.816Z</time>
      </trkpt>
      <trkpt lat="43.00276667" lon="-0.101665">
        <ele>465.0</ele>
        <time>2019-07-07T08:56:16.824Z</time>
      </trkpt>
      <trkpt lat="43.00276667" lon="-0.101665">
        <ele>465.0</ele>
        <time>2019-07-07T08:56:17.804Z</time>
      </trkpt>
      <trkpt lat="43.00288833" lon="-0.10171">
        <ele>465.0</ele>
        <time>2019-07-07T08:56:18.819Z</time>
      </trkpt>
      <trkpt lat="43.00288833" lon="-0.10171">
        <ele>465.0</ele>
        <time>2019-07-07T08:56:19.825Z</time>
      </trkpt>
      <trkpt lat="43.003015" lon="-0.10169167">
        <ele>466.0</ele>
        <time>2019-07-07T08:56:20.804Z</time>
      </trkpt>
      <trkpt lat="43.003015" lon="-0.10169167">
        <ele>466.0</ele>
        <time>2019-07-07T08:56:21.809Z</time>
      </trkpt>
      <trkpt lat="43.00314" lon="-0.10165667">
        <ele>466.0</ele>
        <time>2019-07-07T08:56:22.814Z</time>
      </trkpt>
      <trkpt lat="43.003205" lon="-0.10163667">
        <ele>466.0</ele>
        <time>2019-07-07T08:56:23.824Z</time>
      </trkpt>
      <trkpt lat="43.003205" lon="-0.10163667">
        <ele>466.0</ele>
        <time>2019-07-07T08:56:24.840Z</time>
      </trkpt>
      <trkpt lat="43.003325" lon="-0.10159">
        <ele>467.0</ele>
        <time>2019-07-07T08:56:25.824Z</time>
      </trkpt>
      <trkpt lat="43.00338167" lon="-0.10156667">
        <ele>467.0</ele>
        <time>2019-07-07T08:56:26.824Z</time>
      </trkpt>
      <trkpt lat="43.00338167" lon="-0.10156667">
        <ele>467.0</ele>
        <time>2019-07-07T08:56:27.801Z</time>
      </trkpt>
      <trkpt lat="43.00349333" lon="-0.10151">
        <ele>468.0</ele>
        <time>2019-07-07T08:56:28.813Z</time>
      </trkpt>
      <trkpt lat="43.00349333" lon="-0.10151">
        <ele>468.0</ele>
        <time>2019-07-07T08:56:29.819Z</time>
      </trkpt>
      <trkpt lat="43.00359833" lon="-0.10145167">
        <ele>468.0</ele>
        <time>2019-07-07T08:56:30.822Z</time>
      </trkpt>
      <trkpt lat="43.00359833" lon="-0.10145167">
        <ele>468.0</ele>
        <time>2019-07-07T08:56:31.827Z</time>
      </trkpt>
      <trkpt lat="43.00370167" lon="-0.10140667">
        <ele>468.0</ele>
        <time>2019-07-07T08:56:32.825Z</time>
      </trkpt>
      <trkpt lat="43.00370167" lon="-0.10140667">
        <ele>468.0</ele>
        <time>2019-07-07T08:56:33.841Z</time>
      </trkpt>
      <trkpt lat="43.00381333" lon="-0.10135667">
        <ele>468.0</ele>
        <time>2019-07-07T08:56:34.840Z</time>
      </trkpt>
      <trkpt lat="43.00381333" lon="-0.10135667">
        <ele>468.0</ele>
        <time>2019-07-07T08:56:35.806Z</time>
      </trkpt>
      <trkpt lat="43.00391833" lon="-0.10131833">
        <ele>468.0</ele>
        <time>2019-07-07T08:56:36.814Z</time>
      </trkpt>
      <trkpt lat="43.00391833" lon="-0.10131833">
        <ele>468.0</ele>
        <time>2019-07-07T08:56:37.820Z</time>
      </trkpt>
      <trkpt lat="43.00402" lon="-0.10126833">
        <ele>469.0</ele>
        <time>2019-07-07T08:56:38.836Z</time>
      </trkpt>
      <trkpt lat="43.00407" lon="-0.10124333">
        <ele>469.0</ele>
        <time>2019-07-07T08:56:39.840Z</time>
      </trkpt>
      <trkpt lat="43.00407" lon="-0.10124333">
        <ele>469.0</ele>
        <time>2019-07-07T08:56:40.806Z</time>
      </trkpt>
      <trkpt lat="43.004165" lon="-0.10119">
        <ele>469.0</ele>
        <time>2019-07-07T08:56:41.842Z</time>
      </trkpt>
      <trkpt lat="43.00421167" lon="-0.10116667">
        <ele>469.0</ele>
        <time>2019-07-07T08:56:42.812Z</time>
      </trkpt>
      <trkpt lat="43.00421167" lon="-0.10116667">
        <ele>469.0</ele>
        <time>2019-07-07T08:56:43.818Z</time>
      </trkpt>
      <trkpt lat="43.00429833" lon="-0.10112">
        <ele>469.0</ele>
        <time>2019-07-07T08:56:44.823Z</time>
      </trkpt>
      <trkpt lat="43.00429833" lon="-0.10112">
        <ele>469.0</ele>
        <time>2019-07-07T08:56:45.829Z</time>
      </trkpt>
      <trkpt lat="43.00438333" lon="-0.10105833">
        <ele>470.0</ele>
        <time>2019-07-07T08:56:46.841Z</time>
      </trkpt>
      <trkpt lat="43.00443167" lon="-0.10102333">
        <ele>470.0</ele>
        <time>2019-07-07T08:56:47.824Z</time>
      </trkpt>
      <trkpt lat="43.00448667" lon="-0.101">
        <ele>470.0</ele>
        <time>2019-07-07T08:56:48.842Z</time>
      </trkpt>
      <trkpt lat="43.00453833" lon="-0.100975">
        <ele>470.0</ele>
        <time>2019-07-07T08:56:49.818Z</time>
      </trkpt>
      <trkpt lat="43.00453833" lon="-0.100975">
        <ele>470.0</ele>
        <time>2019-07-07T08:56:50.824Z</time>
      </trkpt>
      <trkpt lat="43.00461833" lon="-0.10091833">
        <ele>470.0</ele>
        <time>2019-07-07T08:56:51.822Z</time>
      </trkpt>
      <trkpt lat="43.00466167" lon="-0.10090167">
        <ele>470.0</ele>
        <time>2019-07-07T08:56:52.839Z</time>
      </trkpt>
      <trkpt lat="43.00466167" lon="-0.10090167">
        <ele>470.0</ele>
        <time>2019-07-07T08:56:53.806Z</time>
      </trkpt>
      <trkpt lat="43.00473667" lon="-0.10084667">
        <ele>470.0</ele>
        <time>2019-07-07T08:56:54.804Z</time>
      </trkpt>
      <trkpt lat="43.004765" lon="-0.10082167">
        <ele>471.0</ele>
        <time>2019-07-07T08:56:55.813Z</time>
      </trkpt>
      <trkpt lat="43.00479333" lon="-0.10080333">
        <ele>471.0</ele>
        <time>2019-07-07T08:56:56.806Z</time>
      </trkpt>
      <trkpt lat="43.00479333" lon="-0.10080333">
        <ele>471.0</ele>
        <time>2019-07-07T08:56:57.811Z</time>
      </trkpt>
      <trkpt lat="43.00485" lon="-0.100785">
        <ele>472.0</ele>
        <time>2019-07-07T08:56:58.810Z</time>
      </trkpt>
      <trkpt lat="43.00488167" lon="-0.10077667">
        <ele>472.0</ele>
        <time>2019-07-07T08:56:59.819Z</time>
      </trkpt>
      <trkpt lat="43.00488167" lon="-0.10077667">
        <ele>472.0</ele>
        <time>2019-07-07T08:57:00.825Z</time>
      </trkpt>
      <trkpt lat="43.00494833" lon="-0.10075">
        <ele>473.0</ele>
        <time>2019-07-07T08:57:01.838Z</time>
      </trkpt>
      <trkpt lat="43.00494833" lon="-0.10075">
        <ele>473.0</ele>
        <time>2019-07-07T08:57:02.808Z</time>
      </trkpt>
      <trkpt lat="43.00502333" lon="-0.10072">
        <ele>474.0</ele>
        <time>2019-07-07T08:57:03.810Z</time>
      </trkpt>
      <trkpt lat="43.00502333" lon="-0.10072">
        <ele>474.0</ele>
        <time>2019-07-07T08:57:04.816Z</time>
      </trkpt>
      <trkpt lat="43.00509667" lon="-0.10069">
        <ele>474.0</ele>
        <time>2019-07-07T08:57:05.820Z</time>
      </trkpt>
      <trkpt lat="43.00513" lon="-0.10067167">
        <ele>475.0</ele>
        <time>2019-07-07T08:57:06.822Z</time>
      </trkpt>
      <trkpt lat="43.00513" lon="-0.10067167">
        <ele>475.0</ele>
        <time>2019-07-07T08:57:07.829Z</time>
      </trkpt>
      <trkpt lat="43.00518167" lon="-0.10065167">
        <ele>476.0</ele>
        <time>2019-07-07T08:57:08.849Z</time>
      </trkpt>
      <trkpt lat="43.00519833" lon="-0.10064833">
        <ele>475.0</ele>
        <time>2019-07-07T08:57:09.836Z</time>
      </trkpt>
      <trkpt lat="43.00519833" lon="-0.10064833">
        <ele>475.0</ele>
        <time>2019-07-07T08:57:10.806Z</time>
      </trkpt>
      <trkpt lat="43.005235" lon="-0.10063">
        <ele>475.0</ele>
        <time>2019-07-07T08:57:11.812Z</time>
      </trkpt>
      <trkpt lat="43.005235" lon="-0.10063">
        <ele>475.0</ele>
        <time>2019-07-07T08:57:12.818Z</time>
      </trkpt>
      <trkpt lat="43.00526833" lon="-0.10061667">
        <ele>475.0</ele>
        <time>2019-07-07T08:57:13.803Z</time>
      </trkpt>
      <trkpt lat="43.00526833" lon="-0.10061667">
        <ele>475.0</ele>
        <time>2019-07-07T08:57:14.809Z</time>
      </trkpt>
      <trkpt lat="43.00528833" lon="-0.10060833">
        <ele>475.0</ele>
        <time>2019-07-07T08:57:15.805Z</time>
      </trkpt>
      <trkpt lat="43.00529667" lon="-0.10060333">
        <ele>475.0</ele>
        <time>2019-07-07T08:57:16.802Z</time>
      </trkpt>
      <trkpt lat="43.00531167" lon="-0.10059167">
        <ele>475.0</ele>
        <time>2019-07-07T08:57:17.823Z</time>
      </trkpt>
      <trkpt lat="43.00531167" lon="-0.10059167">
        <ele>475.0</ele>
        <time>2019-07-07T08:57:18.829Z</time>
      </trkpt>
      <trkpt lat="43.00537333" lon="-0.10054333">
        <ele>474.0</ele>
        <time>2019-07-07T08:57:19.819Z</time>
      </trkpt>
      <trkpt lat="43.00537333" lon="-0.10054333">
        <ele>474.0</ele>
        <time>2019-07-07T08:57:20.825Z</time>
      </trkpt>
      <trkpt lat="43.005445" lon="-0.10052667">
        <ele>475.0</ele>
        <time>2019-07-07T08:57:21.813Z</time>
      </trkpt>
      <trkpt lat="43.005445" lon="-0.10052667">
        <ele>475.0</ele>
        <time>2019-07-07T08:57:22.819Z</time>
      </trkpt>
      <trkpt lat="43.00551167" lon="-0.10050667">
        <ele>475.0</ele>
        <time>2019-07-07T08:57:23.826Z</time>
      </trkpt>
      <trkpt lat="43.00555333" lon="-0.10051167">
        <ele>476.0</ele>
        <time>2019-07-07T08:57:24.807Z</time>
      </trkpt>
      <trkpt lat="43.00555333" lon="-0.10051167">
        <ele>476.0</ele>
        <time>2019-07-07T08:57:25.812Z</time>
      </trkpt>
      <trkpt lat="43.00561167" lon="-0.100475">
        <ele>476.0</ele>
        <time>2019-07-07T08:57:26.818Z</time>
      </trkpt>
      <trkpt lat="43.00561167" lon="-0.100475">
        <ele>476.0</ele>
        <time>2019-07-07T08:57:27.825Z</time>
      </trkpt>
      <trkpt lat="43.00566333" lon="-0.10045667">
        <ele>476.0</ele>
        <time>2019-07-07T08:57:28.832Z</time>
      </trkpt>
      <trkpt lat="43.00569667" lon="-0.10044833">
        <ele>476.0</ele>
        <time>2019-07-07T08:57:29.822Z</time>
      </trkpt>
      <trkpt lat="43.00569667" lon="-0.10044833">
        <ele>476.0</ele>
        <time>2019-07-07T08:57:30.828Z</time>
      </trkpt>
      <trkpt lat="43.00577667" lon="-0.100425">
        <ele>476.0</ele>
        <time>2019-07-07T08:57:31.827Z</time>
      </trkpt>
      <trkpt lat="43.00577667" lon="-0.100425">
        <ele>476.0</ele>
        <time>2019-07-07T08:57:32.838Z</time>
      </trkpt>
      <trkpt lat="43.00585833" lon="-0.10039333">
        <ele>476.0</ele>
        <time>2019-07-07T08:57:33.817Z</time>
      </trkpt>
      <trkpt lat="43.00585833" lon="-0.10039333">
        <ele>476.0</ele>
        <time>2019-07-07T08:57:34.822Z</time>
      </trkpt>
      <trkpt lat="43.00592" lon="-0.100365">
        <ele>477.0</ele>
        <time>2019-07-07T08:57:35.842Z</time>
      </trkpt>
      <trkpt lat="43.00594167" lon="-0.10034667">
        <ele>477.0</ele>
        <time>2019-07-07T08:57:36.808Z</time>
      </trkpt>
      <trkpt lat="43.00594167" lon="-0.10034667">
        <ele>477.0</ele>
        <time>2019-07-07T08:57:37.814Z</time>
      </trkpt>
      <trkpt lat="43.00599167" lon="-0.100335">
        <ele>479.0</ele>
        <time>2019-07-07T08:57:38.824Z</time>
      </trkpt>
      <trkpt lat="43.006015" lon="-0.10032333">
        <ele>479.0</ele>
        <time>2019-07-07T08:57:39.807Z</time>
      </trkpt>
      <trkpt lat="43.006015" lon="-0.10032333">
        <ele>479.0</ele>
        <time>2019-07-07T08:57:40.813Z</time>
      </trkpt>
      <trkpt lat="43.00607333" lon="-0.10030167">
        <ele>480.0</ele>
        <time>2019-07-07T08:57:41.801Z</time>
      </trkpt>
      <trkpt lat="43.00607333" lon="-0.10030167">
        <ele>480.0</ele>
        <time>2019-07-07T08:57:42.807Z</time>
      </trkpt>
      <trkpt lat="43.00613667" lon="-0.10027833">
        <ele>481.0</ele>
        <time>2019-07-07T08:57:43.834Z</time>
      </trkpt>
      <trkpt lat="43.00613667" lon="-0.10027833">
        <ele>481.0</ele>
        <time>2019-07-07T08:57:44.805Z</time>
      </trkpt>
      <trkpt lat="43.00620333" lon="-0.10027333">
        <ele>480.0</ele>
        <time>2019-07-07T08:57:45.830Z</time>
      </trkpt>
      <trkpt lat="43.00624" lon="-0.10028667">
        <ele>480.0</ele>
        <time>2019-07-07T08:57:46.827Z</time>
      </trkpt>
      <trkpt lat="43.00624" lon="-0.10028667">
        <ele>480.0</ele>
        <time>2019-07-07T08:57:47.820Z</time>
      </trkpt>
      <trkpt lat="43.00629833" lon="-0.10034833">
        <ele>480.0</ele>
        <time>2019-07-07T08:57:48.808Z</time>
      </trkpt>
      <trkpt lat="43.00629833" lon="-0.10034833">
        <ele>480.0</ele>
        <time>2019-07-07T08:57:49.813Z</time>
      </trkpt>
      <trkpt lat="43.00633667" lon="-0.100435">
        <ele>480.0</ele>
        <time>2019-07-07T08:57:50.809Z</time>
      </trkpt>
      <trkpt lat="43.00633667" lon="-0.100435">
        <ele>480.0</ele>
        <time>2019-07-07T08:57:51.815Z</time>
      </trkpt>
      <trkpt lat="43.00636" lon="-0.10055">
        <ele>481.0</ele>
        <time>2019-07-07T08:57:52.814Z</time>
      </trkpt>
      <trkpt lat="43.00636833" lon="-0.10061167">
        <ele>481.0</ele>
        <time>2019-07-07T08:57:53.842Z</time>
      </trkpt>
      <trkpt lat="43.00636833" lon="-0.10061167">
        <ele>481.0</ele>
        <time>2019-07-07T08:57:54.808Z</time>
      </trkpt>
      <trkpt lat="43.006395" lon="-0.10073333">
        <ele>481.0</ele>
        <time>2019-07-07T08:57:55.820Z</time>
      </trkpt>
      <trkpt lat="43.00640833" lon="-0.100795">
        <ele>482.0</ele>
        <time>2019-07-07T08:57:56.827Z</time>
      </trkpt>
      <trkpt lat="43.00640833" lon="-0.100795">
        <ele>482.0</ele>
        <time>2019-07-07T08:57:57.842Z</time>
      </trkpt>
      <trkpt lat="43.00645667" lon="-0.10090333">
        <ele>482.0</ele>
        <time>2019-07-07T08:57:58.831Z</time>
      </trkpt>
      <trkpt lat="43.006495" lon="-0.10093167">
        <ele>482.0</ele>
        <time>2019-07-07T08:57:59.814Z</time>
      </trkpt>
      <trkpt lat="43.006495" lon="-0.10093167">
        <ele>482.0</ele>
        <time>2019-07-07T08:58:00.819Z</time>
      </trkpt>
      <trkpt lat="43.00658833" lon="-0.10097333">
        <ele>482.0</ele>
        <time>2019-07-07T08:58:01.824Z</time>
      </trkpt>
      <trkpt lat="43.00663667" lon="-0.101">
        <ele>482.0</ele>
        <time>2019-07-07T08:58:02.812Z</time>
      </trkpt>
      <trkpt lat="43.00663667" lon="-0.101">
        <ele>482.0</ele>
        <time>2019-07-07T08:58:03.818Z</time>
      </trkpt>
      <trkpt lat="43.00672333" lon="-0.101045">
        <ele>482.0</ele>
        <time>2019-07-07T08:58:04.804Z</time>
      </trkpt>
      <trkpt lat="43.00672333" lon="-0.101045">
        <ele>482.0</ele>
        <time>2019-07-07T08:58:05.810Z</time>
      </trkpt>
      <trkpt lat="43.00680667" lon="-0.10108667">
        <ele>482.0</ele>
        <time>2019-07-07T08:58:06.840Z</time>
      </trkpt>
      <trkpt lat="43.00684833" lon="-0.10110667">
        <ele>482.0</ele>
        <time>2019-07-07T08:58:07.839Z</time>
      </trkpt>
      <trkpt lat="43.00684833" lon="-0.10110667">
        <ele>482.0</ele>
        <time>2019-07-07T08:58:08.805Z</time>
      </trkpt>
      <trkpt lat="43.00692833" lon="-0.10111167">
        <ele>483.0</ele>
        <time>2019-07-07T08:58:09.805Z</time>
      </trkpt>
      <trkpt lat="43.00692833" lon="-0.10111167">
        <ele>483.0</ele>
        <time>2019-07-07T08:58:10.811Z</time>
      </trkpt>
      <trkpt lat="43.00699667" lon="-0.10110667">
        <ele>483.0</ele>
        <time>2019-07-07T08:58:11.804Z</time>
      </trkpt>
      <trkpt lat="43.00699667" lon="-0.10110667">
        <ele>483.0</ele>
        <time>2019-07-07T08:58:12.810Z</time>
      </trkpt>
      <trkpt lat="43.00705667" lon="-0.10112667">
        <ele>483.0</ele>
        <time>2019-07-07T08:58:13.815Z</time>
      </trkpt>
      <trkpt lat="43.00705667" lon="-0.10112667">
        <ele>483.0</ele>
        <time>2019-07-07T08:58:14.820Z</time>
      </trkpt>
      <trkpt lat="43.00708833" lon="-0.10114167">
        <ele>483.0</ele>
        <time>2019-07-07T08:58:15.825Z</time>
      </trkpt>
      <trkpt lat="43.00710333" lon="-0.101165">
        <ele>483.0</ele>
        <time>2019-07-07T08:58:16.841Z</time>
      </trkpt>
      <trkpt lat="43.00710333" lon="-0.101165">
        <ele>483.0</ele>
        <time>2019-07-07T08:58:17.807Z</time>
      </trkpt>
      <trkpt lat="43.00710667" lon="-0.10123333">
        <ele>483.0</ele>
        <time>2019-07-07T08:58:18.804Z</time>
      </trkpt>
      <trkpt lat="43.0071" lon="-0.10127667">
        <ele>483.0</ele>
        <time>2019-07-07T08:58:19.839Z</time>
      </trkpt>
      <trkpt lat="43.0071" lon="-0.10127667">
        <ele>483.0</ele>
        <time>2019-07-07T08:58:20.805Z</time>
      </trkpt>
      <trkpt lat="43.00709167" lon="-0.10137333">
        <ele>483.0</ele>
        <time>2019-07-07T08:58:21.801Z</time>
      </trkpt>
      <trkpt lat="43.00709167" lon="-0.10137333">
        <ele>483.0</ele>
        <time>2019-07-07T08:58:22.807Z</time>
      </trkpt>
      <trkpt lat="43.00705833" lon="-0.10147333">
        <ele>483.0</ele>
        <time>2019-07-07T08:58:23.815Z</time>
      </trkpt>
      <trkpt lat="43.00703167" lon="-0.101515">
        <ele>483.0</ele>
        <time>2019-07-07T08:58:24.834Z</time>
      </trkpt>
      <trkpt lat="43.00703167" lon="-0.101515">
        <ele>483.0</ele>
        <time>2019-07-07T08:58:25.810Z</time>
      </trkpt>
      <trkpt lat="43.00695833" lon="-0.10155333">
        <ele>484.0</ele>
        <time>2019-07-07T08:58:26.803Z</time>
      </trkpt>
      <trkpt lat="43.00692167" lon="-0.10156833">
        <ele>484.0</ele>
        <time>2019-07-07T08:58:27.839Z</time>
      </trkpt>
      <trkpt lat="43.00692167" lon="-0.10156833">
        <ele>484.0</ele>
        <time>2019-07-07T08:58:28.808Z</time>
      </trkpt>
      <trkpt lat="43.00684667" lon="-0.10158667">
        <ele>484.0</ele>
        <time>2019-07-07T08:58:29.833Z</time>
      </trkpt>
      <trkpt lat="43.00684667" lon="-0.10158667">
        <ele>484.0</ele>
        <time>2019-07-07T08:58:30.809Z</time>
      </trkpt>
      <trkpt lat="43.00677333" lon="-0.10161167">
        <ele>484.0</ele>
        <time>2019-07-07T08:58:31.821Z</time>
      </trkpt>
      <trkpt lat="43.00673667" lon="-0.10162">
        <ele>484.0</ele>
        <time>2019-07-07T08:58:32.806Z</time>
      </trkpt>
      <trkpt lat="43.00673667" lon="-0.10162">
        <ele>484.0</ele>
        <time>2019-07-07T08:58:33.812Z</time>
      </trkpt>
      <trkpt lat="43.00666333" lon="-0.10163333">
        <ele>484.0</ele>
        <time>2019-07-07T08:58:34.814Z</time>
      </trkpt>
      <trkpt lat="43.00666333" lon="-0.10163333">
        <ele>484.0</ele>
        <time>2019-07-07T08:58:35.820Z</time>
      </trkpt>
      <trkpt lat="43.00659333" lon="-0.10165667">
        <ele>484.0</ele>
        <time>2019-07-07T08:58:36.804Z</time>
      </trkpt>
      <trkpt lat="43.00659333" lon="-0.10165667">
        <ele>484.0</ele>
        <time>2019-07-07T08:58:37.810Z</time>
      </trkpt>
      <trkpt lat="43.00651833" lon="-0.10167167">
        <ele>484.0</ele>
        <time>2019-07-07T08:58:38.834Z</time>
      </trkpt>
      <trkpt lat="43.00648333" lon="-0.10167167">
        <ele>484.0</ele>
        <time>2019-07-07T08:58:39.824Z</time>
      </trkpt>
      <trkpt lat="43.00648333" lon="-0.10167167">
        <ele>484.0</ele>
        <time>2019-07-07T08:58:40.829Z</time>
      </trkpt>
      <trkpt lat="43.00640833" lon="-0.10167">
        <ele>484.0</ele>
        <time>2019-07-07T08:58:41.825Z</time>
      </trkpt>
      <trkpt lat="43.00640833" lon="-0.10167">
        <ele>484.0</ele>
        <time>2019-07-07T08:58:42.832Z</time>
      </trkpt>
      <trkpt lat="43.00633167" lon="-0.101665">
        <ele>484.0</ele>
        <time>2019-07-07T08:58:43.839Z</time>
      </trkpt>
      <trkpt lat="43.00633167" lon="-0.101665">
        <ele>484.0</ele>
        <time>2019-07-07T08:58:44.809Z</time>
      </trkpt>
      <trkpt lat="43.00625667" lon="-0.101665">
        <ele>484.0</ele>
        <time>2019-07-07T08:58:45.839Z</time>
      </trkpt>
      <trkpt lat="43.00625667" lon="-0.101665">
        <ele>484.0</ele>
        <time>2019-07-07T08:58:46.808Z</time>
      </trkpt>
      <trkpt lat="43.006185" lon="-0.101675">
        <ele>485.0</ele>
        <time>2019-07-07T08:58:47.821Z</time>
      </trkpt>
      <trkpt lat="43.006185" lon="-0.101675">
        <ele>485.0</ele>
        <time>2019-07-07T08:58:48.849Z</time>
      </trkpt>
      <trkpt lat="43.00611333" lon="-0.10169">
        <ele>485.0</ele>
        <time>2019-07-07T08:58:49.821Z</time>
      </trkpt>
      <trkpt lat="43.00611333" lon="-0.10169">
        <ele>485.0</ele>
        <time>2019-07-07T08:58:50.827Z</time>
      </trkpt>
      <trkpt lat="43.006045" lon="-0.10171333">
        <ele>485.0</ele>
        <time>2019-07-07T08:58:51.824Z</time>
      </trkpt>
      <trkpt lat="43.006045" lon="-0.10171333">
        <ele>485.0</ele>
        <time>2019-07-07T08:58:52.830Z</time>
      </trkpt>
      <trkpt lat="43.005985" lon="-0.10175167">
        <ele>486.0</ele>
        <time>2019-07-07T08:58:53.813Z</time>
      </trkpt>
      <trkpt lat="43.005955" lon="-0.10176833">
        <ele>486.0</ele>
        <time>2019-07-07T08:58:54.804Z</time>
      </trkpt>
      <trkpt lat="43.005955" lon="-0.10176833">
        <ele>486.0</ele>
        <time>2019-07-07T08:58:55.810Z</time>
      </trkpt>
      <trkpt lat="43.00588167" lon="-0.10176333">
        <ele>487.0</ele>
        <time>2019-07-07T08:58:56.807Z</time>
      </trkpt>
      <trkpt lat="43.00588167" lon="-0.10176333">
        <ele>487.0</ele>
        <time>2019-07-07T08:58:57.813Z</time>
      </trkpt>
      <trkpt lat="43.00582167" lon="-0.10180833">
        <ele>487.0</ele>
        <time>2019-07-07T08:58:58.821Z</time>
      </trkpt>
      <trkpt lat="43.00582167" lon="-0.10180833">
        <ele>487.0</ele>
        <time>2019-07-07T08:58:59.827Z</time>
      </trkpt>
      <trkpt lat="43.00576" lon="-0.10185167">
        <ele>487.0</ele>
        <time>2019-07-07T08:59:00.809Z</time>
      </trkpt>
      <trkpt lat="43.00576" lon="-0.10185167">
        <ele>487.0</ele>
        <time>2019-07-07T08:59:01.815Z</time>
      </trkpt>
      <trkpt lat="43.00570333" lon="-0.101905">
        <ele>487.0</ele>
        <time>2019-07-07T08:59:02.825Z</time>
      </trkpt>
      <trkpt lat="43.00567333" lon="-0.101935">
        <ele>488.0</ele>
        <time>2019-07-07T08:59:03.816Z</time>
      </trkpt>
      <trkpt lat="43.00567333" lon="-0.101935">
        <ele>488.0</ele>
        <time>2019-07-07T08:59:04.822Z</time>
      </trkpt>
      <trkpt lat="43.005615" lon="-0.10199333">
        <ele>488.0</ele>
        <time>2019-07-07T08:59:05.832Z</time>
      </trkpt>
      <trkpt lat="43.00559" lon="-0.10202333">
        <ele>488.0</ele>
        <time>2019-07-07T08:59:06.813Z</time>
      </trkpt>
      <trkpt lat="43.00559" lon="-0.10202333">
        <ele>488.0</ele>
        <time>2019-07-07T08:59:07.823Z</time>
      </trkpt>
      <trkpt lat="43.00554667" lon="-0.1021">
        <ele>488.0</ele>
        <time>2019-07-07T08:59:08.837Z</time>
      </trkpt>
      <trkpt lat="43.00554667" lon="-0.1021">
        <ele>488.0</ele>
        <time>2019-07-07T08:59:09.803Z</time>
      </trkpt>
      <trkpt lat="43.00550167" lon="-0.10217167">
        <ele>489.0</ele>
        <time>2019-07-07T08:59:10.840Z</time>
      </trkpt>
      <trkpt lat="43.00550167" lon="-0.10217167">
        <ele>489.0</ele>
        <time>2019-07-07T08:59:11.808Z</time>
      </trkpt>
      <trkpt lat="43.00546167" lon="-0.10224">
        <ele>489.0</ele>
        <time>2019-07-07T08:59:12.824Z</time>
      </trkpt>
      <trkpt lat="43.00546167" lon="-0.10224">
        <ele>489.0</ele>
        <time>2019-07-07T08:59:13.830Z</time>
      </trkpt>
      <trkpt lat="43.00543" lon="-0.10231167">
        <ele>490.0</ele>
        <time>2019-07-07T08:59:14.834Z</time>
      </trkpt>
      <trkpt lat="43.00543" lon="-0.10231167">
        <ele>490.0</ele>
        <time>2019-07-07T08:59:15.809Z</time>
      </trkpt>
      <trkpt lat="43.00539667" lon="-0.10239167">
        <ele>490.0</ele>
        <time>2019-07-07T08:59:16.814Z</time>
      </trkpt>
      <trkpt lat="43.00539667" lon="-0.10239167">
        <ele>490.0</ele>
        <time>2019-07-07T08:59:17.820Z</time>
      </trkpt>
      <trkpt lat="43.00536167" lon="-0.10247333">
        <ele>490.0</ele>
        <time>2019-07-07T08:59:18.824Z</time>
      </trkpt>
      <trkpt lat="43.00536167" lon="-0.10247333">
        <ele>490.0</ele>
        <time>2019-07-07T08:59:19.831Z</time>
      </trkpt>
      <trkpt lat="43.00532" lon="-0.10255">
        <ele>490.0</ele>
        <time>2019-07-07T08:59:20.835Z</time>
      </trkpt>
      <trkpt lat="43.00529833" lon="-0.10258167">
        <ele>491.0</ele>
        <time>2019-07-07T08:59:21.807Z</time>
      </trkpt>
      <trkpt lat="43.00529833" lon="-0.10258167">
        <ele>491.0</ele>
        <time>2019-07-07T08:59:22.813Z</time>
      </trkpt>
      <trkpt lat="43.00525167" lon="-0.10266">
        <ele>491.0</ele>
        <time>2019-07-07T08:59:23.834Z</time>
      </trkpt>
      <trkpt lat="43.00522833" lon="-0.10269833">
        <ele>491.0</ele>
        <time>2019-07-07T08:59:24.816Z</time>
      </trkpt>
      <trkpt lat="43.00522833" lon="-0.10269833">
        <ele>491.0</ele>
        <time>2019-07-07T08:59:25.822Z</time>
      </trkpt>
      <trkpt lat="43.005185" lon="-0.10276833">
        <ele>491.0</ele>
        <time>2019-07-07T08:59:26.824Z</time>
      </trkpt>
      <trkpt lat="43.005165" lon="-0.10280167">
        <ele>492.0</ele>
        <time>2019-07-07T08:59:27.841Z</time>
      </trkpt>
      <trkpt lat="43.005165" lon="-0.10280167">
        <ele>492.0</ele>
        <time>2019-07-07T08:59:28.808Z</time>
      </trkpt>
      <trkpt lat="43.00511333" lon="-0.10287167">
        <ele>492.0</ele>
        <time>2019-07-07T08:59:29.814Z</time>
      </trkpt>
      <trkpt lat="43.005085" lon="-0.10289333">
        <ele>493.0</ele>
        <time>2019-07-07T08:59:30.814Z</time>
      </trkpt>
      <trkpt lat="43.005085" lon="-0.10289333">
        <ele>493.0</ele>
        <time>2019-07-07T08:59:31.820Z</time>
      </trkpt>
      <trkpt lat="43.00504333" lon="-0.10296">
        <ele>494.0</ele>
        <time>2019-07-07T08:59:32.814Z</time>
      </trkpt>
      <trkpt lat="43.00502167" lon="-0.102995">
        <ele>494.0</ele>
        <time>2019-07-07T08:59:33.824Z</time>
      </trkpt>
      <trkpt lat="43.00502167" lon="-0.102995">
        <ele>494.0</ele>
        <time>2019-07-07T08:59:34.830Z</time>
      </trkpt>
      <trkpt lat="43.00498333" lon="-0.103065">
        <ele>495.0</ele>
        <time>2019-07-07T08:59:35.804Z</time>
      </trkpt>
      <trkpt lat="43.00498333" lon="-0.103065">
        <ele>495.0</ele>
        <time>2019-07-07T08:59:36.825Z</time>
      </trkpt>
      <trkpt lat="43.00495" lon="-0.10314">
        <ele>496.0</ele>
        <time>2019-07-07T08:59:37.824Z</time>
      </trkpt>
      <trkpt lat="43.00495" lon="-0.10314">
        <ele>496.0</ele>
        <time>2019-07-07T08:59:38.830Z</time>
      </trkpt>
      <trkpt lat="43.00492" lon="-0.10322">
        <ele>496.0</ele>
        <time>2019-07-07T08:59:39.802Z</time>
      </trkpt>
      <trkpt lat="43.00492" lon="-0.10322">
        <ele>496.0</ele>
        <time>2019-07-07T08:59:40.808Z</time>
      </trkpt>
      <trkpt lat="43.00490333" lon="-0.10330833">
        <ele>497.0</ele>
        <time>2019-07-07T08:59:41.814Z</time>
      </trkpt>
      <trkpt lat="43.00490333" lon="-0.10330833">
        <ele>497.0</ele>
        <time>2019-07-07T08:59:42.820Z</time>
      </trkpt>
      <trkpt lat="43.00489" lon="-0.10339667">
        <ele>497.0</ele>
        <time>2019-07-07T08:59:43.804Z</time>
      </trkpt>
      <trkpt lat="43.00489" lon="-0.10339667">
        <ele>497.0</ele>
        <time>2019-07-07T08:59:44.810Z</time>
      </trkpt>
      <trkpt lat="43.00488167" lon="-0.10348333">
        <ele>498.0</ele>
        <time>2019-07-07T08:59:45.814Z</time>
      </trkpt>
      <trkpt lat="43.00488167" lon="-0.10348333">
        <ele>498.0</ele>
        <time>2019-07-07T08:59:46.819Z</time>
      </trkpt>
      <trkpt lat="43.00487333" lon="-0.10357333">
        <ele>498.0</ele>
        <time>2019-07-07T08:59:47.839Z</time>
      </trkpt>
      <trkpt lat="43.00487333" lon="-0.10357333">
        <ele>498.0</ele>
        <time>2019-07-07T08:59:48.838Z</time>
      </trkpt>
      <trkpt lat="43.00486667" lon="-0.10366">
        <ele>499.0</ele>
        <time>2019-07-07T08:59:49.824Z</time>
      </trkpt>
      <trkpt lat="43.00486667" lon="-0.10370167">
        <ele>499.0</ele>
        <time>2019-07-07T08:59:50.841Z</time>
      </trkpt>
      <trkpt lat="43.00486667" lon="-0.10370167">
        <ele>499.0</ele>
        <time>2019-07-07T08:59:51.807Z</time>
      </trkpt>
      <trkpt lat="43.00485833" lon="-0.10378667">
        <ele>500.0</ele>
        <time>2019-07-07T08:59:52.801Z</time>
      </trkpt>
      <trkpt lat="43.00485" lon="-0.103825">
        <ele>501.0</ele>
        <time>2019-07-07T08:59:53.804Z</time>
      </trkpt>
      <trkpt lat="43.00485" lon="-0.103825">
        <ele>501.0</ele>
        <time>2019-07-07T08:59:54.809Z</time>
      </trkpt>
      <trkpt lat="43.00484333" lon="-0.10390167">
        <ele>502.0</ele>
        <time>2019-07-07T08:59:55.821Z</time>
      </trkpt>
      <trkpt lat="43.00484333" lon="-0.10390167">
        <ele>502.0</ele>
        <time>2019-07-07T08:59:56.828Z</time>
      </trkpt>
      <trkpt lat="43.00483" lon="-0.10397833">
        <ele>502.0</ele>
        <time>2019-07-07T08:59:57.802Z</time>
      </trkpt>
      <trkpt lat="43.00483" lon="-0.10397833">
        <ele>502.0</ele>
        <time>2019-07-07T08:59:58.808Z</time>
      </trkpt>
      <trkpt lat="43.00481167" lon="-0.104055">
        <ele>503.0</ele>
        <time>2019-07-07T08:59:59.817Z</time>
      </trkpt>
      <trkpt lat="43.00481167" lon="-0.104055">
        <ele>503.0</ele>
        <time>2019-07-07T09:00:00.824Z</time>
      </trkpt>
      <trkpt lat="43.00477667" lon="-0.10413333">
        <ele>504.0</ele>
        <time>2019-07-07T09:00:01.824Z</time>
      </trkpt>
      <trkpt lat="43.00477667" lon="-0.10413333">
        <ele>504.0</ele>
        <time>2019-07-07T09:00:02.829Z</time>
      </trkpt>
      <trkpt lat="43.00473333" lon="-0.10420667">
        <ele>505.0</ele>
        <time>2019-07-07T09:00:03.835Z</time>
      </trkpt>
      <trkpt lat="43.00473333" lon="-0.10420667">
        <ele>505.0</ele>
        <time>2019-07-07T09:00:04.810Z</time>
      </trkpt>
      <trkpt lat="43.00468333" lon="-0.10427">
        <ele>506.0</ele>
        <time>2019-07-07T09:00:05.814Z</time>
      </trkpt>
      <trkpt lat="43.00465667" lon="-0.10429667">
        <ele>506.0</ele>
        <time>2019-07-07T09:00:06.824Z</time>
      </trkpt>
      <trkpt lat="43.00465667" lon="-0.10429667">
        <ele>506.0</ele>
        <time>2019-07-07T09:00:07.830Z</time>
      </trkpt>
      <trkpt lat="43.00461" lon="-0.10435333">
        <ele>507.0</ele>
        <time>2019-07-07T09:00:08.802Z</time>
      </trkpt>
      <trkpt lat="43.00461" lon="-0.10435333">
        <ele>507.0</ele>
        <time>2019-07-07T09:00:09.808Z</time>
      </trkpt>
      <trkpt lat="43.00456333" lon="-0.10441">
        <ele>507.0</ele>
        <time>2019-07-07T09:00:10.824Z</time>
      </trkpt>
      <trkpt lat="43.00456333" lon="-0.10441">
        <ele>507.0</ele>
        <time>2019-07-07T09:00:11.830Z</time>
      </trkpt>
      <trkpt lat="43.00451333" lon="-0.104455">
        <ele>508.0</ele>
        <time>2019-07-07T09:00:12.813Z</time>
      </trkpt>
      <trkpt lat="43.00451333" lon="-0.104455">
        <ele>508.0</ele>
        <time>2019-07-07T09:00:13.818Z</time>
      </trkpt>
      <trkpt lat="43.004465" lon="-0.10450167">
        <ele>509.0</ele>
        <time>2019-07-07T09:00:14.813Z</time>
      </trkpt>
      <trkpt lat="43.00444167" lon="-0.10452333">
        <ele>509.0</ele>
        <time>2019-07-07T09:00:15.827Z</time>
      </trkpt>
      <trkpt lat="43.00444167" lon="-0.10452333">
        <ele>509.0</ele>
        <time>2019-07-07T09:00:16.843Z</time>
      </trkpt>
      <trkpt lat="43.00439167" lon="-0.104565">
        <ele>510.0</ele>
        <time>2019-07-07T09:00:17.834Z</time>
      </trkpt>
      <trkpt lat="43.004365" lon="-0.10458833">
        <ele>511.0</ele>
        <time>2019-07-07T09:00:18.836Z</time>
      </trkpt>
      <trkpt lat="43.00434" lon="-0.10461167">
        <ele>511.0</ele>
        <time>2019-07-07T09:00:19.811Z</time>
      </trkpt>
      <trkpt lat="43.00434" lon="-0.10461167">
        <ele>511.0</ele>
        <time>2019-07-07T09:00:20.816Z</time>
      </trkpt>
      <trkpt lat="43.00429" lon="-0.10465667">
        <ele>512.0</ele>
        <time>2019-07-07T09:00:21.816Z</time>
      </trkpt>
      <trkpt lat="43.00429" lon="-0.10465667">
        <ele>512.0</ele>
        <time>2019-07-07T09:00:22.821Z</time>
      </trkpt>
      <trkpt lat="43.00424333" lon="-0.10470667">
        <ele>513.0</ele>
        <time>2019-07-07T09:00:23.827Z</time>
      </trkpt>
      <trkpt lat="43.00422" lon="-0.104735">
        <ele>513.0</ele>
        <time>2019-07-07T09:00:24.803Z</time>
      </trkpt>
      <trkpt lat="43.00422" lon="-0.104735">
        <ele>513.0</ele>
        <time>2019-07-07T09:00:25.809Z</time>
      </trkpt>
      <trkpt lat="43.00417333" lon="-0.10478167">
        <ele>514.0</ele>
        <time>2019-07-07T09:00:26.814Z</time>
      </trkpt>
      <trkpt lat="43.00415" lon="-0.10481167">
        <ele>515.0</ele>
        <time>2019-07-07T09:00:27.817Z</time>
      </trkpt>
      <trkpt lat="43.00415" lon="-0.10481167">
        <ele>515.0</ele>
        <time>2019-07-07T09:00:28.822Z</time>
      </trkpt>
      <trkpt lat="43.00411" lon="-0.10487667">
        <ele>516.0</ele>
        <time>2019-07-07T09:00:29.824Z</time>
      </trkpt>
      <trkpt lat="43.00409" lon="-0.10491">
        <ele>517.0</ele>
        <time>2019-07-07T09:00:30.804Z</time>
      </trkpt>
      <trkpt lat="43.00409" lon="-0.10491">
        <ele>517.0</ele>
        <time>2019-07-07T09:00:31.810Z</time>
      </trkpt>
      <trkpt lat="43.00405167" lon="-0.104975">
        <ele>518.0</ele>
        <time>2019-07-07T09:00:32.823Z</time>
      </trkpt>
      <trkpt lat="43.00403333" lon="-0.10500667">
        <ele>518.0</ele>
        <time>2019-07-07T09:00:33.823Z</time>
      </trkpt>
      <trkpt lat="43.00403333" lon="-0.10500667">
        <ele>518.0</ele>
        <time>2019-07-07T09:00:34.829Z</time>
      </trkpt>
      <trkpt lat="43.00399667" lon="-0.10507333">
        <ele>519.0</ele>
        <time>2019-07-07T09:00:35.814Z</time>
      </trkpt>
      <trkpt lat="43.00399667" lon="-0.10507333">
        <ele>519.0</ele>
        <time>2019-07-07T09:00:36.822Z</time>
      </trkpt>
      <trkpt lat="43.00396333" lon="-0.10514333">
        <ele>520.0</ele>
        <time>2019-07-07T09:00:37.834Z</time>
      </trkpt>
      <trkpt lat="43.00396333" lon="-0.10514333">
        <ele>520.0</ele>
        <time>2019-07-07T09:00:38.809Z</time>
      </trkpt>
      <trkpt lat="43.00393167" lon="-0.10521">
        <ele>521.0</ele>
        <time>2019-07-07T09:00:39.824Z</time>
      </trkpt>
      <trkpt lat="43.00393167" lon="-0.10521">
        <ele>521.0</ele>
        <time>2019-07-07T09:00:40.830Z</time>
      </trkpt>
      <trkpt lat="43.0039" lon="-0.10527667">
        <ele>522.0</ele>
        <time>2019-07-07T09:00:41.834Z</time>
      </trkpt>
      <trkpt lat="43.0039" lon="-0.10527667">
        <ele>522.0</ele>
        <time>2019-07-07T09:00:42.813Z</time>
      </trkpt>
      <trkpt lat="43.00386833" lon="-0.10534333">
        <ele>523.0</ele>
        <time>2019-07-07T09:00:43.824Z</time>
      </trkpt>
      <trkpt lat="43.00386833" lon="-0.10534333">
        <ele>523.0</ele>
        <time>2019-07-07T09:00:44.830Z</time>
      </trkpt>
      <trkpt lat="43.00383" lon="-0.105405">
        <ele>524.0</ele>
        <time>2019-07-07T09:00:45.827Z</time>
      </trkpt>
      <trkpt lat="43.00381167" lon="-0.105435">
        <ele>525.0</ele>
        <time>2019-07-07T09:00:46.810Z</time>
      </trkpt>
      <trkpt lat="43.00381167" lon="-0.105435">
        <ele>525.0</ele>
        <time>2019-07-07T09:00:47.814Z</time>
      </trkpt>
      <trkpt lat="43.003775" lon="-0.10549833">
        <ele>526.0</ele>
        <time>2019-07-07T09:00:48.810Z</time>
      </trkpt>
      <trkpt lat="43.003775" lon="-0.10549833">
        <ele>526.0</ele>
        <time>2019-07-07T09:00:49.817Z</time>
      </trkpt>
      <trkpt lat="43.00373333" lon="-0.105555">
        <ele>527.0</ele>
        <time>2019-07-07T09:00:50.814Z</time>
      </trkpt>
      <trkpt lat="43.00371333" lon="-0.10558667">
        <ele>527.0</ele>
        <time>2019-07-07T09:00:51.814Z</time>
      </trkpt>
      <trkpt lat="43.00371333" lon="-0.10558667">
        <ele>527.0</ele>
        <time>2019-07-07T09:00:52.820Z</time>
      </trkpt>
      <trkpt lat="43.003675" lon="-0.105645">
        <ele>528.0</ele>
        <time>2019-07-07T09:00:53.834Z</time>
      </trkpt>
      <trkpt lat="43.00365333" lon="-0.10566833">
        <ele>529.0</ele>
        <time>2019-07-07T09:00:54.816Z</time>
      </trkpt>
      <trkpt lat="43.00363" lon="-0.10569">
        <ele>529.0</ele>
        <time>2019-07-07T09:00:55.803Z</time>
      </trkpt>
      <trkpt lat="43.00363" lon="-0.10569">
        <ele>529.0</ele>
        <time>2019-07-07T09:00:56.815Z</time>
      </trkpt>
      <trkpt lat="43.00359333" lon="-0.105745">
        <ele>530.0</ele>
        <time>2019-07-07T09:00:57.824Z</time>
      </trkpt>
      <trkpt lat="43.00359333" lon="-0.105745">
        <ele>530.0</ele>
        <time>2019-07-07T09:00:58.830Z</time>
      </trkpt>
      <trkpt lat="43.00354833" lon="-0.10579">
        <ele>532.0</ele>
        <time>2019-07-07T09:00:59.821Z</time>
      </trkpt>
      <trkpt lat="43.00354833" lon="-0.10579">
        <ele>532.0</ele>
        <time>2019-07-07T09:01:00.827Z</time>
      </trkpt>
      <trkpt lat="43.00349167" lon="-0.10581833">
        <ele>533.0</ele>
        <time>2019-07-07T09:01:01.841Z</time>
      </trkpt>
      <trkpt lat="43.00349167" lon="-0.10581833">
        <ele>533.0</ele>
        <time>2019-07-07T09:01:02.820Z</time>
      </trkpt>
      <trkpt lat="43.00343833" lon="-0.10585333">
        <ele>534.0</ele>
        <time>2019-07-07T09:01:03.814Z</time>
      </trkpt>
      <trkpt lat="43.00343833" lon="-0.10585333">
        <ele>534.0</ele>
        <time>2019-07-07T09:01:04.819Z</time>
      </trkpt>
      <trkpt lat="43.00338667" lon="-0.10589">
        <ele>535.0</ele>
        <time>2019-07-07T09:01:05.826Z</time>
      </trkpt>
      <trkpt lat="43.00336333" lon="-0.10590833">
        <ele>535.0</ele>
        <time>2019-07-07T09:01:06.833Z</time>
      </trkpt>
      <trkpt lat="43.00333833" lon="-0.10592667">
        <ele>536.0</ele>
        <time>2019-07-07T09:01:07.821Z</time>
      </trkpt>
      <trkpt lat="43.00333833" lon="-0.10592667">
        <ele>536.0</ele>
        <time>2019-07-07T09:01:08.827Z</time>
      </trkpt>
      <trkpt lat="43.00328833" lon="-0.10596667">
        <ele>537.0</ele>
        <time>2019-07-07T09:01:09.804Z</time>
      </trkpt>
      <trkpt lat="43.00328833" lon="-0.10596667">
        <ele>537.0</ele>
        <time>2019-07-07T09:01:10.809Z</time>
      </trkpt>
      <trkpt lat="43.00324333" lon="-0.10601833">
        <ele>538.0</ele>
        <time>2019-07-07T09:01:11.812Z</time>
      </trkpt>
      <trkpt lat="43.00324333" lon="-0.10601833">
        <ele>538.0</ele>
        <time>2019-07-07T09:01:12.818Z</time>
      </trkpt>
      <trkpt lat="43.00319833" lon="-0.10606667">
        <ele>540.0</ele>
        <time>2019-07-07T09:01:13.814Z</time>
      </trkpt>
      <trkpt lat="43.00319833" lon="-0.10606667">
        <ele>540.0</ele>
        <time>2019-07-07T09:01:14.820Z</time>
      </trkpt>
      <trkpt lat="43.00315333" lon="-0.10611833">
        <ele>541.0</ele>
        <time>2019-07-07T09:01:15.834Z</time>
      </trkpt>
      <trkpt lat="43.00313" lon="-0.10614">
        <ele>541.0</ele>
        <time>2019-07-07T09:01:16.814Z</time>
      </trkpt>
      <trkpt lat="43.00313" lon="-0.10614">
        <ele>541.0</ele>
        <time>2019-07-07T09:01:17.820Z</time>
      </trkpt>
      <trkpt lat="43.00308333" lon="-0.10618667">
        <ele>542.0</ele>
        <time>2019-07-07T09:01:18.824Z</time>
      </trkpt>
      <trkpt lat="43.00308333" lon="-0.10618667">
        <ele>542.0</ele>
        <time>2019-07-07T09:01:19.830Z</time>
      </trkpt>
      <trkpt lat="43.00304" lon="-0.106235">
        <ele>544.0</ele>
        <time>2019-07-07T09:01:20.813Z</time>
      </trkpt>
      <trkpt lat="43.00304" lon="-0.106235">
        <ele>544.0</ele>
        <time>2019-07-07T09:01:21.819Z</time>
      </trkpt>
      <trkpt lat="43.002995" lon="-0.10628167">
        <ele>545.0</ele>
        <time>2019-07-07T09:01:22.824Z</time>
      </trkpt>
      <trkpt lat="43.002995" lon="-0.10628167">
        <ele>545.0</ele>
        <time>2019-07-07T09:01:23.830Z</time>
      </trkpt>
      <trkpt lat="43.00295167" lon="-0.10632667">
        <ele>546.0</ele>
        <time>2019-07-07T09:01:24.827Z</time>
      </trkpt>
      <trkpt lat="43.00295167" lon="-0.10632667">
        <ele>546.0</ele>
        <time>2019-07-07T09:01:25.840Z</time>
      </trkpt>
      <trkpt lat="43.002915" lon="-0.10638167">
        <ele>548.0</ele>
        <time>2019-07-07T09:01:26.802Z</time>
      </trkpt>
      <trkpt lat="43.002915" lon="-0.10638167">
        <ele>548.0</ele>
        <time>2019-07-07T09:01:27.807Z</time>
      </trkpt>
      <trkpt lat="43.00288" lon="-0.10643333">
        <ele>549.0</ele>
        <time>2019-07-07T09:01:28.804Z</time>
      </trkpt>
      <trkpt lat="43.00286333" lon="-0.10646333">
        <ele>549.0</ele>
        <time>2019-07-07T09:01:29.822Z</time>
      </trkpt>
      <trkpt lat="43.00286333" lon="-0.10646333">
        <ele>549.0</ele>
        <time>2019-07-07T09:01:30.828Z</time>
      </trkpt>
      <trkpt lat="43.00282833" lon="-0.10651833">
        <ele>550.0</ele>
        <time>2019-07-07T09:01:31.834Z</time>
      </trkpt>
      <trkpt lat="43.00282833" lon="-0.10651833">
        <ele>550.0</ele>
        <time>2019-07-07T09:01:32.810Z</time>
      </trkpt>
      <trkpt lat="43.00279667" lon="-0.10657167">
        <ele>551.0</ele>
        <time>2019-07-07T09:01:33.821Z</time>
      </trkpt>
      <trkpt lat="43.00277833" lon="-0.10659667">
        <ele>551.0</ele>
        <time>2019-07-07T09:01:34.832Z</time>
      </trkpt>
      <trkpt lat="43.00277833" lon="-0.10659667">
        <ele>551.0</ele>
        <time>2019-07-07T09:01:35.811Z</time>
      </trkpt>
      <trkpt lat="43.00273833" lon="-0.10664833">
        <ele>552.0</ele>
        <time>2019-07-07T09:01:36.826Z</time>
      </trkpt>
      <trkpt lat="43.00273833" lon="-0.10664833">
        <ele>552.0</ele>
        <time>2019-07-07T09:01:37.819Z</time>
      </trkpt>
      <trkpt lat="43.00269833" lon="-0.106695">
        <ele>552.0</ele>
        <time>2019-07-07T09:01:38.824Z</time>
      </trkpt>
      <trkpt lat="43.00269833" lon="-0.106695">
        <ele>552.0</ele>
        <time>2019-07-07T09:01:39.830Z</time>
      </trkpt>
      <trkpt lat="43.002655" lon="-0.106735">
        <ele>553.0</ele>
        <time>2019-07-07T09:01:40.824Z</time>
      </trkpt>
      <trkpt lat="43.002655" lon="-0.106735">
        <ele>553.0</ele>
        <time>2019-07-07T09:01:41.830Z</time>
      </trkpt>
      <trkpt lat="43.00260833" lon="-0.106775">
        <ele>554.0</ele>
        <time>2019-07-07T09:01:42.810Z</time>
      </trkpt>
      <trkpt lat="43.00260833" lon="-0.106775">
        <ele>554.0</ele>
        <time>2019-07-07T09:01:43.816Z</time>
      </trkpt>
      <trkpt lat="43.00256333" lon="-0.106815">
        <ele>555.0</ele>
        <time>2019-07-07T09:01:44.834Z</time>
      </trkpt>
      <trkpt lat="43.00253833" lon="-0.10683333">
        <ele>555.0</ele>
        <time>2019-07-07T09:01:45.832Z</time>
      </trkpt>
      <trkpt lat="43.00253833" lon="-0.10683333">
        <ele>555.0</ele>
        <time>2019-07-07T09:01:46.809Z</time>
      </trkpt>
      <trkpt lat="43.00249" lon="-0.10687">
        <ele>556.0</ele>
        <time>2019-07-07T09:01:47.839Z</time>
      </trkpt>
      <trkpt lat="43.00249" lon="-0.10687">
        <ele>556.0</ele>
        <time>2019-07-07T09:01:48.821Z</time>
      </trkpt>
      <trkpt lat="43.00244167" lon="-0.10690833">
        <ele>557.0</ele>
        <time>2019-07-07T09:01:49.826Z</time>
      </trkpt>
      <trkpt lat="43.00241833" lon="-0.10692833">
        <ele>557.0</ele>
        <time>2019-07-07T09:01:50.823Z</time>
      </trkpt>
      <trkpt lat="43.00241833" lon="-0.10692833">
        <ele>557.0</ele>
        <time>2019-07-07T09:01:51.829Z</time>
      </trkpt>
      <trkpt lat="43.00236667" lon="-0.106965">
        <ele>558.0</ele>
        <time>2019-07-07T09:01:52.834Z</time>
      </trkpt>
      <trkpt lat="43.00234167" lon="-0.106985">
        <ele>559.0</ele>
        <time>2019-07-07T09:01:53.804Z</time>
      </trkpt>
      <trkpt lat="43.00234167" lon="-0.106985">
        <ele>559.0</ele>
        <time>2019-07-07T09:01:54.811Z</time>
      </trkpt>
      <trkpt lat="43.00229" lon="-0.10702167">
        <ele>560.0</ele>
        <time>2019-07-07T09:01:55.824Z</time>
      </trkpt>
      <trkpt lat="43.00226333" lon="-0.10703833">
        <ele>561.0</ele>
        <time>2019-07-07T09:01:56.825Z</time>
      </trkpt>
      <trkpt lat="43.00226333" lon="-0.10703833">
        <ele>561.0</ele>
        <time>2019-07-07T09:01:57.831Z</time>
      </trkpt>
      <trkpt lat="43.00222" lon="-0.10707167">
        <ele>562.0</ele>
        <time>2019-07-07T09:01:58.804Z</time>
      </trkpt>
      <trkpt lat="43.00222" lon="-0.10707167">
        <ele>562.0</ele>
        <time>2019-07-07T09:01:59.812Z</time>
      </trkpt>
      <trkpt lat="43.00217333" lon="-0.10710833">
        <ele>563.0</ele>
        <time>2019-07-07T09:02:00.822Z</time>
      </trkpt>
      <trkpt lat="43.00217333" lon="-0.10710833">
        <ele>563.0</ele>
        <time>2019-07-07T09:02:01.829Z</time>
      </trkpt>
      <trkpt lat="43.00212667" lon="-0.10715">
        <ele>564.0</ele>
        <time>2019-07-07T09:02:02.804Z</time>
      </trkpt>
      <trkpt lat="43.00212667" lon="-0.10715">
        <ele>564.0</ele>
        <time>2019-07-07T09:02:03.810Z</time>
      </trkpt>
      <trkpt lat="43.00207833" lon="-0.107185">
        <ele>565.0</ele>
        <time>2019-07-07T09:02:04.814Z</time>
      </trkpt>
      <trkpt lat="43.00207833" lon="-0.107185">
        <ele>565.0</ele>
        <time>2019-07-07T09:02:05.820Z</time>
      </trkpt>
      <trkpt lat="43.00203" lon="-0.10722333">
        <ele>566.0</ele>
        <time>2019-07-07T09:02:06.804Z</time>
      </trkpt>
      <trkpt lat="43.00200667" lon="-0.10724167">
        <ele>566.0</ele>
        <time>2019-07-07T09:02:07.814Z</time>
      </trkpt>
      <trkpt lat="43.00200667" lon="-0.10724167">
        <ele>566.0</ele>
        <time>2019-07-07T09:02:08.820Z</time>
      </trkpt>
      <trkpt lat="43.00195833" lon="-0.10727333">
        <ele>567.0</ele>
        <time>2019-07-07T09:02:09.834Z</time>
      </trkpt>
      <trkpt lat="43.00195833" lon="-0.10727333">
        <ele>567.0</ele>
        <time>2019-07-07T09:02:10.808Z</time>
      </trkpt>
      <trkpt lat="43.00190833" lon="-0.10731">
        <ele>569.0</ele>
        <time>2019-07-07T09:02:11.817Z</time>
      </trkpt>
      <trkpt lat="43.00188333" lon="-0.10732833">
        <ele>569.0</ele>
        <time>2019-07-07T09:02:12.829Z</time>
      </trkpt>
      <trkpt lat="43.00188333" lon="-0.10732833">
        <ele>569.0</ele>
        <time>2019-07-07T09:02:13.801Z</time>
      </trkpt>
      <trkpt lat="43.00183333" lon="-0.10736667">
        <ele>570.0</ele>
        <time>2019-07-07T09:02:14.808Z</time>
      </trkpt>
      <trkpt lat="43.00183333" lon="-0.10736667">
        <ele>570.0</ele>
        <time>2019-07-07T09:02:15.814Z</time>
      </trkpt>
      <trkpt lat="43.00178333" lon="-0.10740833">
        <ele>572.0</ele>
        <time>2019-07-07T09:02:16.808Z</time>
      </trkpt>
      <trkpt lat="43.00178333" lon="-0.10740833">
        <ele>572.0</ele>
        <time>2019-07-07T09:02:17.814Z</time>
      </trkpt>
      <trkpt lat="43.00173333" lon="-0.10744167">
        <ele>573.0</ele>
        <time>2019-07-07T09:02:18.834Z</time>
      </trkpt>
      <trkpt lat="43.00171" lon="-0.10746333">
        <ele>573.0</ele>
        <time>2019-07-07T09:02:19.804Z</time>
      </trkpt>
      <trkpt lat="43.00171" lon="-0.10746333">
        <ele>573.0</ele>
        <time>2019-07-07T09:02:20.809Z</time>
      </trkpt>
      <trkpt lat="43.00166167" lon="-0.10750333">
        <ele>574.0</ele>
        <time>2019-07-07T09:02:21.824Z</time>
      </trkpt>
      <trkpt lat="43.00166167" lon="-0.10750333">
        <ele>574.0</ele>
        <time>2019-07-07T09:02:22.829Z</time>
      </trkpt>
      <trkpt lat="43.00161167" lon="-0.10754333">
        <ele>576.0</ele>
        <time>2019-07-07T09:02:23.807Z</time>
      </trkpt>
      <trkpt lat="43.00161167" lon="-0.10754333">
        <ele>576.0</ele>
        <time>2019-07-07T09:02:24.813Z</time>
      </trkpt>
      <trkpt lat="43.001565" lon="-0.107585">
        <ele>577.0</ele>
        <time>2019-07-07T09:02:25.832Z</time>
      </trkpt>
      <trkpt lat="43.001565" lon="-0.107585">
        <ele>577.0</ele>
        <time>2019-07-07T09:02:26.810Z</time>
      </trkpt>
      <trkpt lat="43.00152" lon="-0.107625">
        <ele>578.0</ele>
        <time>2019-07-07T09:02:27.804Z</time>
      </trkpt>
      <trkpt lat="43.00149667" lon="-0.10764833">
        <ele>578.0</ele>
        <time>2019-07-07T09:02:28.804Z</time>
      </trkpt>
      <trkpt lat="43.00147833" lon="-0.10767167">
        <ele>579.0</ele>
        <time>2019-07-07T09:02:29.813Z</time>
      </trkpt>
      <trkpt lat="43.00147833" lon="-0.10767167">
        <ele>579.0</ele>
        <time>2019-07-07T09:02:30.819Z</time>
      </trkpt>
      <trkpt lat="43.001435" lon="-0.10773">
        <ele>580.0</ele>
        <time>2019-07-07T09:02:31.824Z</time>
      </trkpt>
      <trkpt lat="43.00141167" lon="-0.10775833">
        <ele>580.0</ele>
        <time>2019-07-07T09:02:32.834Z</time>
      </trkpt>
      <trkpt lat="43.00141167" lon="-0.10775833">
        <ele>580.0</ele>
        <time>2019-07-07T09:02:33.810Z</time>
      </trkpt>
      <trkpt lat="43.00136667" lon="-0.107815">
        <ele>581.0</ele>
        <time>2019-07-07T09:02:34.834Z</time>
      </trkpt>
      <trkpt lat="43.00136667" lon="-0.107815">
        <ele>581.0</ele>
        <time>2019-07-07T09:02:35.801Z</time>
      </trkpt>
      <trkpt lat="43.00132" lon="-0.10786833">
        <ele>581.0</ele>
        <time>2019-07-07T09:02:36.842Z</time>
      </trkpt>
      <trkpt lat="43.00132" lon="-0.10786833">
        <ele>581.0</ele>
        <time>2019-07-07T09:02:37.812Z</time>
      </trkpt>
      <trkpt lat="43.00127167" lon="-0.107915">
        <ele>582.0</ele>
        <time>2019-07-07T09:02:38.824Z</time>
      </trkpt>
      <trkpt lat="43.00124833" lon="-0.10793833">
        <ele>582.0</ele>
        <time>2019-07-07T09:02:39.824Z</time>
      </trkpt>
      <trkpt lat="43.001225" lon="-0.10796">
        <ele>583.0</ele>
        <time>2019-07-07T09:02:40.842Z</time>
      </trkpt>
      <trkpt lat="43.001225" lon="-0.10796">
        <ele>583.0</ele>
        <time>2019-07-07T09:02:41.810Z</time>
      </trkpt>
      <trkpt lat="43.00117667" lon="-0.108">
        <ele>583.0</ele>
        <time>2019-07-07T09:02:42.822Z</time>
      </trkpt>
      <trkpt lat="43.00117667" lon="-0.108">
        <ele>583.0</ele>
        <time>2019-07-07T09:02:43.828Z</time>
      </trkpt>
      <trkpt lat="43.001125" lon="-0.108035">
        <ele>584.0</ele>
        <time>2019-07-07T09:02:44.839Z</time>
      </trkpt>
      <trkpt lat="43.00110167" lon="-0.108055">
        <ele>584.0</ele>
        <time>2019-07-07T09:02:45.802Z</time>
      </trkpt>
      <trkpt lat="43.00107667" lon="-0.10807333">
        <ele>585.0</ele>
        <time>2019-07-07T09:02:46.807Z</time>
      </trkpt>
      <trkpt lat="43.00107667" lon="-0.10807333">
        <ele>585.0</ele>
        <time>2019-07-07T09:02:47.825Z</time>
      </trkpt>
      <trkpt lat="43.001025" lon="-0.10810167">
        <ele>585.0</ele>
        <time>2019-07-07T09:02:48.833Z</time>
      </trkpt>
      <trkpt lat="43.001025" lon="-0.10810167">
        <ele>585.0</ele>
        <time>2019-07-07T09:02:49.805Z</time>
      </trkpt>
      <trkpt lat="43.00097833" lon="-0.10813833">
        <ele>586.0</ele>
        <time>2019-07-07T09:02:50.807Z</time>
      </trkpt>
      <trkpt lat="43.00097833" lon="-0.10813833">
        <ele>586.0</ele>
        <time>2019-07-07T09:02:51.813Z</time>
      </trkpt>
      <trkpt lat="43.000925" lon="-0.10817">
        <ele>587.0</ele>
        <time>2019-07-07T09:02:52.804Z</time>
      </trkpt>
      <trkpt lat="43.000925" lon="-0.10817">
        <ele>587.0</ele>
        <time>2019-07-07T09:02:53.810Z</time>
      </trkpt>
      <trkpt lat="43.00087167" lon="-0.10819833">
        <ele>587.0</ele>
        <time>2019-07-07T09:02:54.824Z</time>
      </trkpt>
      <trkpt lat="43.00087167" lon="-0.10819833">
        <ele>587.0</ele>
        <time>2019-07-07T09:02:55.831Z</time>
      </trkpt>
      <trkpt lat="43.00081833" lon="-0.10823667">
        <ele>588.0</ele>
        <time>2019-07-07T09:02:56.836Z</time>
      </trkpt>
      <trkpt lat="43.00081833" lon="-0.10823667">
        <ele>588.0</ele>
        <time>2019-07-07T09:02:57.810Z</time>
      </trkpt>
      <trkpt lat="43.00077" lon="-0.10827333">
        <ele>588.0</ele>
        <time>2019-07-07T09:02:58.824Z</time>
      </trkpt>
      <trkpt lat="43.00077" lon="-0.10827333">
        <ele>588.0</ele>
        <time>2019-07-07T09:02:59.830Z</time>
      </trkpt>
      <trkpt lat="43.00071833" lon="-0.10832333">
        <ele>589.0</ele>
        <time>2019-07-07T09:03:00.809Z</time>
      </trkpt>
      <trkpt lat="43.00071833" lon="-0.10832333">
        <ele>589.0</ele>
        <time>2019-07-07T09:03:01.817Z</time>
      </trkpt>
      <trkpt lat="43.00067333" lon="-0.10835833">
        <ele>590.0</ele>
        <time>2019-07-07T09:03:02.834Z</time>
      </trkpt>
      <trkpt lat="43.00065167" lon="-0.10837833">
        <ele>590.0</ele>
        <time>2019-07-07T09:03:03.815Z</time>
      </trkpt>
      <trkpt lat="43.00065167" lon="-0.10837833">
        <ele>590.0</ele>
        <time>2019-07-07T09:03:04.821Z</time>
      </trkpt>
      <trkpt lat="43.00060333" lon="-0.10841167">
        <ele>590.0</ele>
        <time>2019-07-07T09:03:05.833Z</time>
      </trkpt>
      <trkpt lat="43.00057667" lon="-0.10843">
        <ele>590.0</ele>
        <time>2019-07-07T09:03:06.814Z</time>
      </trkpt>
      <trkpt lat="43.00055167" lon="-0.10845">
        <ele>590.0</ele>
        <time>2019-07-07T09:03:07.834Z</time>
      </trkpt>
      <trkpt lat="43.00055167" lon="-0.10845">
        <ele>590.0</ele>
        <time>2019-07-07T09:03:08.802Z</time>
      </trkpt>
      <trkpt lat="43.0005" lon="-0.10848667">
        <ele>591.0</ele>
        <time>2019-07-07T09:03:09.814Z</time>
      </trkpt>
      <trkpt lat="43.00047167" lon="-0.10850333">
        <ele>591.0</ele>
        <time>2019-07-07T09:03:10.824Z</time>
      </trkpt>
      <trkpt lat="43.00044167" lon="-0.10852">
        <ele>592.0</ele>
        <time>2019-07-07T09:03:11.831Z</time>
      </trkpt>
      <trkpt lat="43.00044167" lon="-0.10852">
        <ele>592.0</ele>
        <time>2019-07-07T09:03:12.809Z</time>
      </trkpt>
      <trkpt lat="43.00038667" lon="-0.10855">
        <ele>592.0</ele>
        <time>2019-07-07T09:03:13.807Z</time>
      </trkpt>
      <trkpt lat="43.00038667" lon="-0.10855">
        <ele>592.0</ele>
        <time>2019-07-07T09:03:14.813Z</time>
      </trkpt>
      <trkpt lat="43.00033167" lon="-0.10857833">
        <ele>593.0</ele>
        <time>2019-07-07T09:03:15.804Z</time>
      </trkpt>
      <trkpt lat="43.00033167" lon="-0.10857833">
        <ele>593.0</ele>
        <time>2019-07-07T09:03:16.810Z</time>
      </trkpt>
      <trkpt lat="43.000275" lon="-0.10860667">
        <ele>593.0</ele>
        <time>2019-07-07T09:03:17.809Z</time>
      </trkpt>
      <trkpt lat="43.000245" lon="-0.10861667">
        <ele>594.0</ele>
        <time>2019-07-07T09:03:18.824Z</time>
      </trkpt>
      <trkpt lat="43.000245" lon="-0.10861667">
        <ele>594.0</ele>
        <time>2019-07-07T09:03:19.830Z</time>
      </trkpt>
      <trkpt lat="43.00019" lon="-0.10862667">
        <ele>594.0</ele>
        <time>2019-07-07T09:03:20.804Z</time>
      </trkpt>
      <trkpt lat="43.00016" lon="-0.10863167">
        <ele>594.0</ele>
        <time>2019-07-07T09:03:21.830Z</time>
      </trkpt>
      <trkpt lat="43.00016" lon="-0.10863167">
        <ele>594.0</ele>
        <time>2019-07-07T09:03:22.809Z</time>
      </trkpt>
      <trkpt lat="43.00009833" lon="-0.10863833">
        <ele>595.0</ele>
        <time>2019-07-07T09:03:23.824Z</time>
      </trkpt>
      <trkpt lat="43.00007" lon="-0.10863833">
        <ele>595.0</ele>
        <time>2019-07-07T09:03:24.824Z</time>
      </trkpt>
      <trkpt lat="43.00007" lon="-0.10863833">
        <ele>595.0</ele>
        <time>2019-07-07T09:03:25.830Z</time>
      </trkpt>
      <trkpt lat="43.00001" lon="-0.10863833">
        <ele>596.0</ele>
        <time>2019-07-07T09:03:26.829Z</time>
      </trkpt>
      <trkpt lat="43.00001" lon="-0.10863833">
        <ele>596.0</ele>
        <time>2019-07-07T09:03:27.808Z</time>
      </trkpt>
      <trkpt lat="42.999955" lon="-0.10864">
        <ele>597.0</ele>
        <time>2019-07-07T09:03:28.809Z</time>
      </trkpt>
      <trkpt lat="42.99993" lon="-0.10863667">
        <ele>597.0</ele>
        <time>2019-07-07T09:03:29.822Z</time>
      </trkpt>
      <trkpt lat="42.99993" lon="-0.10863667">
        <ele>597.0</ele>
        <time>2019-07-07T09:03:30.828Z</time>
      </trkpt>
      <trkpt lat="42.99986833" lon="-0.10864333">
        <ele>597.0</ele>
        <time>2019-07-07T09:03:31.804Z</time>
      </trkpt>
      <trkpt lat="42.99984167" lon="-0.10864167">
        <ele>598.0</ele>
        <time>2019-07-07T09:03:32.831Z</time>
      </trkpt>
      <trkpt lat="42.99984167" lon="-0.10864167">
        <ele>598.0</ele>
        <time>2019-07-07T09:03:33.802Z</time>
      </trkpt>
      <trkpt lat="42.99979667" lon="-0.10863">
        <ele>598.0</ele>
        <time>2019-07-07T09:03:34.824Z</time>
      </trkpt>
      <trkpt lat="42.99979667" lon="-0.10863">
        <ele>598.0</ele>
        <time>2019-07-07T09:03:35.830Z</time>
      </trkpt>
      <trkpt lat="42.99974" lon="-0.10861333">
        <ele>598.0</ele>
        <time>2019-07-07T09:03:36.804Z</time>
      </trkpt>
      <trkpt lat="42.99974" lon="-0.10861333">
        <ele>598.0</ele>
        <time>2019-07-07T09:03:37.809Z</time>
      </trkpt>
      <trkpt lat="42.999685" lon="-0.10860833">
        <ele>598.0</ele>
        <time>2019-07-07T09:03:38.814Z</time>
      </trkpt>
      <trkpt lat="42.99966333" lon="-0.10861333">
        <ele>598.0</ele>
        <time>2019-07-07T09:03:39.821Z</time>
      </trkpt>
      <trkpt lat="42.99966333" lon="-0.10861333">
        <ele>598.0</ele>
        <time>2019-07-07T09:03:40.827Z</time>
      </trkpt>
      <trkpt lat="42.999605" lon="-0.10861667">
        <ele>598.0</ele>
        <time>2019-07-07T09:03:41.833Z</time>
      </trkpt>
      <trkpt lat="42.99957833" lon="-0.10862333">
        <ele>598.0</ele>
        <time>2019-07-07T09:03:42.835Z</time>
      </trkpt>
      <trkpt lat="42.99957833" lon="-0.10862333">
        <ele>598.0</ele>
        <time>2019-07-07T09:03:43.810Z</time>
      </trkpt>
      <trkpt lat="42.99952333" lon="-0.10863833">
        <ele>598.0</ele>
        <time>2019-07-07T09:03:44.824Z</time>
      </trkpt>
      <trkpt lat="42.99952333" lon="-0.10863833">
        <ele>598.0</ele>
        <time>2019-07-07T09:03:45.830Z</time>
      </trkpt>
      <trkpt lat="42.99947333" lon="-0.10866167">
        <ele>598.0</ele>
        <time>2019-07-07T09:03:46.825Z</time>
      </trkpt>
      <trkpt lat="42.99947333" lon="-0.10866167">
        <ele>598.0</ele>
        <time>2019-07-07T09:03:47.815Z</time>
      </trkpt>
      <trkpt lat="42.999425" lon="-0.108695">
        <ele>598.0</ele>
        <time>2019-07-07T09:03:48.818Z</time>
      </trkpt>
      <trkpt lat="42.999425" lon="-0.108695">
        <ele>598.0</ele>
        <time>2019-07-07T09:03:49.824Z</time>
      </trkpt>
      <trkpt lat="42.999375" lon="-0.10873833">
        <ele>598.0</ele>
        <time>2019-07-07T09:03:50.834Z</time>
      </trkpt>
      <trkpt lat="42.999375" lon="-0.10873833">
        <ele>598.0</ele>
        <time>2019-07-07T09:03:51.810Z</time>
      </trkpt>
      <trkpt lat="42.99933167" lon="-0.10879167">
        <ele>598.0</ele>
        <time>2019-07-07T09:03:52.814Z</time>
      </trkpt>
      <trkpt lat="42.99933167" lon="-0.10879167">
        <ele>598.0</ele>
        <time>2019-07-07T09:03:53.820Z</time>
      </trkpt>
      <trkpt lat="42.99929167" lon="-0.108845">
        <ele>598.0</ele>
        <time>2019-07-07T09:03:54.824Z</time>
      </trkpt>
      <trkpt lat="42.99929167" lon="-0.108845">
        <ele>598.0</ele>
        <time>2019-07-07T09:03:55.830Z</time>
      </trkpt>
      <trkpt lat="42.99925667" lon="-0.10890667">
        <ele>599.0</ele>
        <time>2019-07-07T09:03:56.814Z</time>
      </trkpt>
      <trkpt lat="42.99925667" lon="-0.10890667">
        <ele>599.0</ele>
        <time>2019-07-07T09:03:57.820Z</time>
      </trkpt>
      <trkpt lat="42.99923" lon="-0.10897333">
        <ele>599.0</ele>
        <time>2019-07-07T09:03:58.834Z</time>
      </trkpt>
      <trkpt lat="42.99922" lon="-0.10900833">
        <ele>599.0</ele>
        <time>2019-07-07T09:03:59.847Z</time>
      </trkpt>
      <trkpt lat="42.99921333" lon="-0.10904167">
        <ele>599.0</ele>
        <time>2019-07-07T09:04:00.841Z</time>
      </trkpt>
      <trkpt lat="42.99921333" lon="-0.10904167">
        <ele>599.0</ele>
        <time>2019-07-07T09:04:01.809Z</time>
      </trkpt>
      <trkpt lat="42.9992" lon="-0.10911167">
        <ele>599.0</ele>
        <time>2019-07-07T09:04:02.824Z</time>
      </trkpt>
      <trkpt lat="42.9992" lon="-0.10911167">
        <ele>599.0</ele>
        <time>2019-07-07T09:04:03.829Z</time>
      </trkpt>
      <trkpt lat="42.99918833" lon="-0.10918">
        <ele>600.0</ele>
        <time>2019-07-07T09:04:04.804Z</time>
      </trkpt>
      <trkpt lat="42.99918833" lon="-0.10918">
        <ele>600.0</ele>
        <time>2019-07-07T09:04:05.810Z</time>
      </trkpt>
      <trkpt lat="42.99918667" lon="-0.10925167">
        <ele>600.0</ele>
        <time>2019-07-07T09:04:06.824Z</time>
      </trkpt>
      <trkpt lat="42.99918667" lon="-0.10925167">
        <ele>600.0</ele>
        <time>2019-07-07T09:04:07.830Z</time>
      </trkpt>
      <trkpt lat="42.99918667" lon="-0.109325">
        <ele>601.0</ele>
        <time>2019-07-07T09:04:08.831Z</time>
      </trkpt>
      <trkpt lat="42.99918667" lon="-0.109325">
        <ele>601.0</ele>
        <time>2019-07-07T09:04:09.817Z</time>
      </trkpt>
      <trkpt lat="42.99918667" lon="-0.10939833">
        <ele>601.0</ele>
        <time>2019-07-07T09:04:10.834Z</time>
      </trkpt>
      <trkpt lat="42.99918667" lon="-0.10939833">
        <ele>601.0</ele>
        <time>2019-07-07T09:04:11.807Z</time>
      </trkpt>
      <trkpt lat="42.99918333" lon="-0.10947">
        <ele>601.0</ele>
        <time>2019-07-07T09:04:12.813Z</time>
      </trkpt>
      <trkpt lat="42.99918167" lon="-0.10950667">
        <ele>601.0</ele>
        <time>2019-07-07T09:04:13.814Z</time>
      </trkpt>
      <trkpt lat="42.99918167" lon="-0.10950667">
        <ele>601.0</ele>
        <time>2019-07-07T09:04:14.820Z</time>
      </trkpt>
      <trkpt lat="42.99917667" lon="-0.10957833">
        <ele>602.0</ele>
        <time>2019-07-07T09:04:15.834Z</time>
      </trkpt>
      <trkpt lat="42.99917667" lon="-0.10957833">
        <ele>602.0</ele>
        <time>2019-07-07T09:04:16.809Z</time>
      </trkpt>
      <trkpt lat="42.99917333" lon="-0.10964833">
        <ele>602.0</ele>
        <time>2019-07-07T09:04:17.815Z</time>
      </trkpt>
      <trkpt lat="42.99917333" lon="-0.10968167">
        <ele>602.0</ele>
        <time>2019-07-07T09:04:18.824Z</time>
      </trkpt>
      <trkpt lat="42.99917333" lon="-0.10968167">
        <ele>602.0</ele>
        <time>2019-07-07T09:04:19.830Z</time>
      </trkpt>
      <trkpt lat="42.999175" lon="-0.10974667">
        <ele>602.0</ele>
        <time>2019-07-07T09:04:20.821Z</time>
      </trkpt>
      <trkpt lat="42.999175" lon="-0.10974667">
        <ele>602.0</ele>
        <time>2019-07-07T09:04:21.827Z</time>
      </trkpt>
      <trkpt lat="42.999175" lon="-0.10981167">
        <ele>603.0</ele>
        <time>2019-07-07T09:04:22.834Z</time>
      </trkpt>
      <trkpt lat="42.99917333" lon="-0.10984667">
        <ele>603.0</ele>
        <time>2019-07-07T09:04:23.817Z</time>
      </trkpt>
      <trkpt lat="42.99917333" lon="-0.10984667">
        <ele>603.0</ele>
        <time>2019-07-07T09:04:24.823Z</time>
      </trkpt>
      <trkpt lat="42.99917167" lon="-0.10991667">
        <ele>603.0</ele>
        <time>2019-07-07T09:04:25.834Z</time>
      </trkpt>
      <trkpt lat="42.99917" lon="-0.10995333">
        <ele>603.0</ele>
        <time>2019-07-07T09:04:26.814Z</time>
      </trkpt>
      <trkpt lat="42.99917" lon="-0.10995333">
        <ele>603.0</ele>
        <time>2019-07-07T09:04:27.821Z</time>
      </trkpt>
      <trkpt lat="42.99916667" lon="-0.110025">
        <ele>604.0</ele>
        <time>2019-07-07T09:04:28.806Z</time>
      </trkpt>
      <trkpt lat="42.99916667" lon="-0.11006167">
        <ele>604.0</ele>
        <time>2019-07-07T09:04:29.823Z</time>
      </trkpt>
      <trkpt lat="42.99916667" lon="-0.11006167">
        <ele>604.0</ele>
        <time>2019-07-07T09:04:30.829Z</time>
      </trkpt>
      <trkpt lat="42.99916167" lon="-0.110135">
        <ele>604.0</ele>
        <time>2019-07-07T09:04:31.834Z</time>
      </trkpt>
      <trkpt lat="42.99916167" lon="-0.110135">
        <ele>604.0</ele>
        <time>2019-07-07T09:04:32.810Z</time>
      </trkpt>
      <trkpt lat="42.99916" lon="-0.11020667">
        <ele>605.0</ele>
        <time>2019-07-07T09:04:33.834Z</time>
      </trkpt>
      <trkpt lat="42.99915667" lon="-0.11024333">
        <ele>605.0</ele>
        <time>2019-07-07T09:04:34.805Z</time>
      </trkpt>
      <trkpt lat="42.99915667" lon="-0.11024333">
        <ele>605.0</ele>
        <time>2019-07-07T09:04:35.810Z</time>
      </trkpt>
      <trkpt lat="42.999155" lon="-0.11032">
        <ele>606.0</ele>
        <time>2019-07-07T09:04:36.815Z</time>
      </trkpt>
      <trkpt lat="42.999155" lon="-0.11032">
        <ele>606.0</ele>
        <time>2019-07-07T09:04:37.821Z</time>
      </trkpt>
      <trkpt lat="42.99915167" lon="-0.11038667">
        <ele>606.0</ele>
        <time>2019-07-07T09:04:38.834Z</time>
      </trkpt>
      <trkpt lat="42.99915167" lon="-0.11042">
        <ele>606.0</ele>
        <time>2019-07-07T09:04:39.802Z</time>
      </trkpt>
      <trkpt lat="42.99915167" lon="-0.11042">
        <ele>606.0</ele>
        <time>2019-07-07T09:04:40.807Z</time>
      </trkpt>
      <trkpt lat="42.99914833" lon="-0.11049167">
        <ele>607.0</ele>
        <time>2019-07-07T09:04:41.803Z</time>
      </trkpt>
      <trkpt lat="42.99914667" lon="-0.11053167">
        <ele>607.0</ele>
        <time>2019-07-07T09:04:42.834Z</time>
      </trkpt>
      <trkpt lat="42.99914667" lon="-0.11053167">
        <ele>607.0</ele>
        <time>2019-07-07T09:04:43.811Z</time>
      </trkpt>
      <trkpt lat="42.99913833" lon="-0.11061">
        <ele>608.0</ele>
        <time>2019-07-07T09:04:44.833Z</time>
      </trkpt>
      <trkpt lat="42.99913333" lon="-0.11064833">
        <ele>608.0</ele>
        <time>2019-07-07T09:04:45.804Z</time>
      </trkpt>
      <trkpt lat="42.99913333" lon="-0.11064833">
        <ele>608.0</ele>
        <time>2019-07-07T09:04:46.811Z</time>
      </trkpt>
      <trkpt lat="42.99912167" lon="-0.11072">
        <ele>609.0</ele>
        <time>2019-07-07T09:04:47.824Z</time>
      </trkpt>
      <trkpt lat="42.99911667" lon="-0.11075667">
        <ele>609.0</ele>
        <time>2019-07-07T09:04:48.820Z</time>
      </trkpt>
      <trkpt lat="42.99911167" lon="-0.110795">
        <ele>609.0</ele>
        <time>2019-07-07T09:04:49.824Z</time>
      </trkpt>
      <trkpt lat="42.99911167" lon="-0.110795">
        <ele>609.0</ele>
        <time>2019-07-07T09:04:50.835Z</time>
      </trkpt>
      <trkpt lat="42.99910333" lon="-0.11087167">
        <ele>610.0</ele>
        <time>2019-07-07T09:04:51.832Z</time>
      </trkpt>
      <trkpt lat="42.99909833" lon="-0.11091">
        <ele>610.0</ele>
        <time>2019-07-07T09:04:52.804Z</time>
      </trkpt>
      <trkpt lat="42.99909833" lon="-0.11091">
        <ele>610.0</ele>
        <time>2019-07-07T09:04:53.810Z</time>
      </trkpt>
      <trkpt lat="42.99908667" lon="-0.11098167">
        <ele>611.0</ele>
        <time>2019-07-07T09:04:54.824Z</time>
      </trkpt>
      <trkpt lat="42.99908667" lon="-0.11098167">
        <ele>611.0</ele>
        <time>2019-07-07T09:04:55.830Z</time>
      </trkpt>
      <trkpt lat="42.99908" lon="-0.11105667">
        <ele>612.0</ele>
        <time>2019-07-07T09:04:56.842Z</time>
      </trkpt>
      <trkpt lat="42.99908" lon="-0.11105667">
        <ele>612.0</ele>
        <time>2019-07-07T09:04:57.808Z</time>
      </trkpt>
      <trkpt lat="42.99908" lon="-0.111135">
        <ele>612.0</ele>
        <time>2019-07-07T09:04:58.820Z</time>
      </trkpt>
      <trkpt lat="42.99908333" lon="-0.11117333">
        <ele>613.0</ele>
        <time>2019-07-07T09:04:59.820Z</time>
      </trkpt>
      <trkpt lat="42.99908333" lon="-0.11117333">
        <ele>613.0</ele>
        <time>2019-07-07T09:05:00.826Z</time>
      </trkpt>
      <trkpt lat="42.99909167" lon="-0.11124833">
        <ele>614.0</ele>
        <time>2019-07-07T09:05:01.803Z</time>
      </trkpt>
      <trkpt lat="42.99909167" lon="-0.11124833">
        <ele>614.0</ele>
        <time>2019-07-07T09:05:02.808Z</time>
      </trkpt>
      <trkpt lat="42.99910833" lon="-0.11132333">
        <ele>614.0</ele>
        <time>2019-07-07T09:05:03.832Z</time>
      </trkpt>
      <trkpt lat="42.99912333" lon="-0.11135833">
        <ele>615.0</ele>
        <time>2019-07-07T09:05:04.804Z</time>
      </trkpt>
      <trkpt lat="42.99912333" lon="-0.11135833">
        <ele>615.0</ele>
        <time>2019-07-07T09:05:05.810Z</time>
      </trkpt>
      <trkpt lat="42.999165" lon="-0.11142167">
        <ele>615.0</ele>
        <time>2019-07-07T09:05:06.802Z</time>
      </trkpt>
      <trkpt lat="42.999165" lon="-0.11142167">
        <ele>615.0</ele>
        <time>2019-07-07T09:05:07.808Z</time>
      </trkpt>
      <trkpt lat="42.99920167" lon="-0.11147667">
        <ele>616.0</ele>
        <time>2019-07-07T09:05:08.804Z</time>
      </trkpt>
      <trkpt lat="42.99921667" lon="-0.11151">
        <ele>616.0</ele>
        <time>2019-07-07T09:05:09.814Z</time>
      </trkpt>
      <trkpt lat="42.99921667" lon="-0.11151">
        <ele>616.0</ele>
        <time>2019-07-07T09:05:10.819Z</time>
      </trkpt>
      <trkpt lat="42.99925167" lon="-0.111575">
        <ele>617.0</ele>
        <time>2019-07-07T09:05:11.824Z</time>
      </trkpt>
      <trkpt lat="42.99926167" lon="-0.11161667">
        <ele>617.0</ele>
        <time>2019-07-07T09:05:12.834Z</time>
      </trkpt>
      <trkpt lat="42.99926167" lon="-0.11161667">
        <ele>617.0</ele>
        <time>2019-07-07T09:05:13.808Z</time>
      </trkpt>
      <trkpt lat="42.99928" lon="-0.11169333">
        <ele>617.0</ele>
        <time>2019-07-07T09:05:14.804Z</time>
      </trkpt>
      <trkpt lat="42.99928" lon="-0.11169333">
        <ele>617.0</ele>
        <time>2019-07-07T09:05:15.809Z</time>
      </trkpt>
      <trkpt lat="42.99929333" lon="-0.11176833">
        <ele>618.0</ele>
        <time>2019-07-07T09:05:16.809Z</time>
      </trkpt>
      <trkpt lat="42.99929333" lon="-0.11176833">
        <ele>618.0</ele>
        <time>2019-07-07T09:05:17.815Z</time>
      </trkpt>
      <trkpt lat="42.99929333" lon="-0.11184333">
        <ele>619.0</ele>
        <time>2019-07-07T09:05:18.810Z</time>
      </trkpt>
      <trkpt lat="42.99928833" lon="-0.11188333">
        <ele>619.0</ele>
        <time>2019-07-07T09:05:19.814Z</time>
      </trkpt>
      <trkpt lat="42.99928833" lon="-0.11188333">
        <ele>619.0</ele>
        <time>2019-07-07T09:05:20.820Z</time>
      </trkpt>
      <trkpt lat="42.999265" lon="-0.11196333">
        <ele>620.0</ele>
        <time>2019-07-07T09:05:21.832Z</time>
      </trkpt>
      <trkpt lat="42.999265" lon="-0.11196333">
        <ele>620.0</ele>
        <time>2019-07-07T09:05:22.803Z</time>
      </trkpt>
      <trkpt lat="42.99923667" lon="-0.11204">
        <ele>621.0</ele>
        <time>2019-07-07T09:05:23.824Z</time>
      </trkpt>
      <trkpt lat="42.99922" lon="-0.11207667">
        <ele>621.0</ele>
        <time>2019-07-07T09:05:24.804Z</time>
      </trkpt>
      <trkpt lat="42.99922" lon="-0.11207667">
        <ele>621.0</ele>
        <time>2019-07-07T09:05:25.810Z</time>
      </trkpt>
      <trkpt lat="42.99918833" lon="-0.11214667">
        <ele>621.0</ele>
        <time>2019-07-07T09:05:26.802Z</time>
      </trkpt>
      <trkpt lat="42.99916667" lon="-0.11218">
        <ele>622.0</ele>
        <time>2019-07-07T09:05:27.831Z</time>
      </trkpt>
      <trkpt lat="42.99916667" lon="-0.11218">
        <ele>622.0</ele>
        <time>2019-07-07T09:05:28.807Z</time>
      </trkpt>
      <trkpt lat="42.99912167" lon="-0.11224667">
        <ele>622.0</ele>
        <time>2019-07-07T09:05:29.824Z</time>
      </trkpt>
      <trkpt lat="42.99912167" lon="-0.11224667">
        <ele>622.0</ele>
        <time>2019-07-07T09:05:30.830Z</time>
      </trkpt>
      <trkpt lat="42.99908" lon="-0.11230833">
        <ele>623.0</ele>
        <time>2019-07-07T09:05:31.808Z</time>
      </trkpt>
      <trkpt lat="42.99908" lon="-0.11230833">
        <ele>623.0</ele>
        <time>2019-07-07T09:05:32.814Z</time>
      </trkpt>
      <trkpt lat="42.99903833" lon="-0.11236667">
        <ele>624.0</ele>
        <time>2019-07-07T09:05:33.827Z</time>
      </trkpt>
      <trkpt lat="42.99903833" lon="-0.11236667">
        <ele>624.0</ele>
        <time>2019-07-07T09:05:34.833Z</time>
      </trkpt>
      <trkpt lat="42.99900333" lon="-0.11242667">
        <ele>624.0</ele>
        <time>2019-07-07T09:05:35.808Z</time>
      </trkpt>
      <trkpt lat="42.99900333" lon="-0.11242667">
        <ele>624.0</ele>
        <time>2019-07-07T09:05:36.814Z</time>
      </trkpt>
      <trkpt lat="42.99896667" lon="-0.11247833">
        <ele>625.0</ele>
        <time>2019-07-07T09:05:37.829Z</time>
      </trkpt>
      <trkpt lat="42.99894667" lon="-0.11250833">
        <ele>625.0</ele>
        <time>2019-07-07T09:05:38.804Z</time>
      </trkpt>
      <trkpt lat="42.99894667" lon="-0.11250833">
        <ele>625.0</ele>
        <time>2019-07-07T09:05:39.811Z</time>
      </trkpt>
      <trkpt lat="42.99890833" lon="-0.11256833">
        <ele>626.0</ele>
        <time>2019-07-07T09:05:40.814Z</time>
      </trkpt>
      <trkpt lat="42.99890833" lon="-0.11256833">
        <ele>626.0</ele>
        <time>2019-07-07T09:05:41.819Z</time>
      </trkpt>
      <trkpt lat="42.998865" lon="-0.11262">
        <ele>627.0</ele>
        <time>2019-07-07T09:05:42.824Z</time>
      </trkpt>
      <trkpt lat="42.998865" lon="-0.11262">
        <ele>627.0</ele>
        <time>2019-07-07T09:05:43.830Z</time>
      </trkpt>
      <trkpt lat="42.99883" lon="-0.11268333">
        <ele>627.0</ele>
        <time>2019-07-07T09:05:44.819Z</time>
      </trkpt>
      <trkpt lat="42.99883" lon="-0.11268333">
        <ele>627.0</ele>
        <time>2019-07-07T09:05:45.825Z</time>
      </trkpt>
      <trkpt lat="42.99879" lon="-0.112745">
        <ele>628.0</ele>
        <time>2019-07-07T09:05:46.834Z</time>
      </trkpt>
      <trkpt lat="42.99877" lon="-0.11277333">
        <ele>628.0</ele>
        <time>2019-07-07T09:05:47.822Z</time>
      </trkpt>
      <trkpt lat="42.99877" lon="-0.11277333">
        <ele>628.0</ele>
        <time>2019-07-07T09:05:48.808Z</time>
      </trkpt>
      <trkpt lat="42.998735" lon="-0.11283333">
        <ele>629.0</ele>
        <time>2019-07-07T09:05:49.824Z</time>
      </trkpt>
      <trkpt lat="42.998735" lon="-0.11283333">
        <ele>629.0</ele>
        <time>2019-07-07T09:05:50.829Z</time>
      </trkpt>
      <trkpt lat="42.998705" lon="-0.1129">
        <ele>629.0</ele>
        <time>2019-07-07T09:05:51.830Z</time>
      </trkpt>
      <trkpt lat="42.998705" lon="-0.1129">
        <ele>629.0</ele>
        <time>2019-07-07T09:05:52.808Z</time>
      </trkpt>
      <trkpt lat="42.99867833" lon="-0.11297">
        <ele>630.0</ele>
        <time>2019-07-07T09:05:53.813Z</time>
      </trkpt>
      <trkpt lat="42.998665" lon="-0.113005">
        <ele>630.0</ele>
        <time>2019-07-07T09:05:54.821Z</time>
      </trkpt>
      <trkpt lat="42.998665" lon="-0.113005">
        <ele>630.0</ele>
        <time>2019-07-07T09:05:55.827Z</time>
      </trkpt>
      <trkpt lat="42.99864333" lon="-0.11307333">
        <ele>631.0</ele>
        <time>2019-07-07T09:05:56.801Z</time>
      </trkpt>
      <trkpt lat="42.99864333" lon="-0.11307333">
        <ele>631.0</ele>
        <time>2019-07-07T09:05:57.807Z</time>
      </trkpt>
      <trkpt lat="42.99862667" lon="-0.11314667">
        <ele>632.0</ele>
        <time>2019-07-07T09:05:58.834Z</time>
      </trkpt>
      <trkpt lat="42.99862333" lon="-0.11318667">
        <ele>632.0</ele>
        <time>2019-07-07T09:05:59.834Z</time>
      </trkpt>
      <trkpt lat="42.99862333" lon="-0.11318667">
        <ele>632.0</ele>
        <time>2019-07-07T09:06:00.847Z</time>
      </trkpt>
      <trkpt lat="42.99861667" lon="-0.113265">
        <ele>632.0</ele>
        <time>2019-07-07T09:06:01.814Z</time>
      </trkpt>
      <trkpt lat="42.99861333" lon="-0.11330333">
        <ele>633.0</ele>
        <time>2019-07-07T09:06:02.822Z</time>
      </trkpt>
      <trkpt lat="42.99861333" lon="-0.11330333">
        <ele>633.0</ele>
        <time>2019-07-07T09:06:03.828Z</time>
      </trkpt>
      <trkpt lat="42.998615" lon="-0.11339167">
        <ele>633.0</ele>
        <time>2019-07-07T09:06:04.846Z</time>
      </trkpt>
      <trkpt lat="42.998615" lon="-0.11339167">
        <ele>633.0</ele>
        <time>2019-07-07T09:06:05.812Z</time>
      </trkpt>
      <trkpt lat="42.99862" lon="-0.11348667">
        <ele>633.0</ele>
        <time>2019-07-07T09:06:06.824Z</time>
      </trkpt>
      <trkpt lat="42.99862" lon="-0.11348667">
        <ele>633.0</ele>
        <time>2019-07-07T09:06:07.830Z</time>
      </trkpt>
      <trkpt lat="42.998625" lon="-0.11358">
        <ele>634.0</ele>
        <time>2019-07-07T09:06:08.830Z</time>
      </trkpt>
      <trkpt lat="42.99863" lon="-0.11362167">
        <ele>634.0</ele>
        <time>2019-07-07T09:06:09.802Z</time>
      </trkpt>
      <trkpt lat="42.99863333" lon="-0.113665">
        <ele>635.0</ele>
        <time>2019-07-07T09:06:10.824Z</time>
      </trkpt>
      <trkpt lat="42.99863333" lon="-0.113665">
        <ele>635.0</ele>
        <time>2019-07-07T09:06:11.831Z</time>
      </trkpt>
      <trkpt lat="42.99863167" lon="-0.11375167">
        <ele>635.0</ele>
        <time>2019-07-07T09:06:12.834Z</time>
      </trkpt>
      <trkpt lat="42.99863167" lon="-0.11375167">
        <ele>635.0</ele>
        <time>2019-07-07T09:06:13.810Z</time>
      </trkpt>
      <trkpt lat="42.99863" lon="-0.11383333">
        <ele>636.0</ele>
        <time>2019-07-07T09:06:14.824Z</time>
      </trkpt>
      <trkpt lat="42.99863" lon="-0.11383333">
        <ele>636.0</ele>
        <time>2019-07-07T09:06:15.830Z</time>
      </trkpt>
      <trkpt lat="42.99863167" lon="-0.11391833">
        <ele>636.0</ele>
        <time>2019-07-07T09:06:16.814Z</time>
      </trkpt>
      <trkpt lat="42.99863167" lon="-0.11391833">
        <ele>636.0</ele>
        <time>2019-07-07T09:06:17.820Z</time>
      </trkpt>
      <trkpt lat="42.99863" lon="-0.11400333">
        <ele>637.0</ele>
        <time>2019-07-07T09:06:18.814Z</time>
      </trkpt>
      <trkpt lat="42.99863" lon="-0.11400333">
        <ele>637.0</ele>
        <time>2019-07-07T09:06:19.820Z</time>
      </trkpt>
      <trkpt lat="42.99862833" lon="-0.11408833">
        <ele>638.0</ele>
        <time>2019-07-07T09:06:20.823Z</time>
      </trkpt>
      <trkpt lat="42.99862833" lon="-0.11408833">
        <ele>638.0</ele>
        <time>2019-07-07T09:06:21.829Z</time>
      </trkpt>
      <trkpt lat="42.99862" lon="-0.11417167">
        <ele>638.0</ele>
        <time>2019-07-07T09:06:22.837Z</time>
      </trkpt>
      <trkpt lat="42.99862" lon="-0.11417167">
        <ele>638.0</ele>
        <time>2019-07-07T09:06:23.811Z</time>
      </trkpt>
      <trkpt lat="42.99860333" lon="-0.11425167">
        <ele>639.0</ele>
        <time>2019-07-07T09:06:24.824Z</time>
      </trkpt>
      <trkpt lat="42.99860333" lon="-0.11425167">
        <ele>639.0</ele>
        <time>2019-07-07T09:06:25.830Z</time>
      </trkpt>
      <trkpt lat="42.998585" lon="-0.11433167">
        <ele>639.0</ele>
        <time>2019-07-07T09:06:26.802Z</time>
      </trkpt>
      <trkpt lat="42.998585" lon="-0.11433167">
        <ele>639.0</ele>
        <time>2019-07-07T09:06:27.808Z</time>
      </trkpt>
      <trkpt lat="42.99856667" lon="-0.11441167">
        <ele>639.0</ele>
        <time>2019-07-07T09:06:28.814Z</time>
      </trkpt>
      <trkpt lat="42.99856667" lon="-0.11441167">
        <ele>639.0</ele>
        <time>2019-07-07T09:06:29.827Z</time>
      </trkpt>
      <trkpt lat="42.99854833" lon="-0.11449167">
        <ele>639.0</ele>
        <time>2019-07-07T09:06:30.802Z</time>
      </trkpt>
      <trkpt lat="42.99854833" lon="-0.11449167">
        <ele>639.0</ele>
        <time>2019-07-07T09:06:31.810Z</time>
      </trkpt>
      <trkpt lat="42.998525" lon="-0.11457333">
        <ele>639.0</ele>
        <time>2019-07-07T09:06:32.823Z</time>
      </trkpt>
      <trkpt lat="42.998525" lon="-0.11457333">
        <ele>639.0</ele>
        <time>2019-07-07T09:06:33.840Z</time>
      </trkpt>
      <trkpt lat="42.998505" lon="-0.11465">
        <ele>640.0</ele>
        <time>2019-07-07T09:06:34.822Z</time>
      </trkpt>
      <trkpt lat="42.99849667" lon="-0.11468667">
        <ele>640.0</ele>
        <time>2019-07-07T09:06:35.834Z</time>
      </trkpt>
      <trkpt lat="42.998485" lon="-0.114725">
        <ele>640.0</ele>
        <time>2019-07-07T09:06:36.807Z</time>
      </trkpt>
      <trkpt lat="42.998485" lon="-0.114725">
        <ele>640.0</ele>
        <time>2019-07-07T09:06:37.813Z</time>
      </trkpt>
      <trkpt lat="42.99847333" lon="-0.114795">
        <ele>641.0</ele>
        <time>2019-07-07T09:06:38.844Z</time>
      </trkpt>
      <trkpt lat="42.99847333" lon="-0.114795">
        <ele>641.0</ele>
        <time>2019-07-07T09:06:39.809Z</time>
      </trkpt>
      <trkpt lat="42.99845667" lon="-0.11486833">
        <ele>642.0</ele>
        <time>2019-07-07T09:06:40.804Z</time>
      </trkpt>
      <trkpt lat="42.99845667" lon="-0.11486833">
        <ele>642.0</ele>
        <time>2019-07-07T09:06:41.810Z</time>
      </trkpt>
      <trkpt lat="42.99845333" lon="-0.11495333">
        <ele>642.0</ele>
        <time>2019-07-07T09:06:42.819Z</time>
      </trkpt>
      <trkpt lat="42.99845333" lon="-0.11495333">
        <ele>642.0</ele>
        <time>2019-07-07T09:06:43.825Z</time>
      </trkpt>
      <trkpt lat="42.99846" lon="-0.115035">
        <ele>642.0</ele>
        <time>2019-07-07T09:06:44.831Z</time>
      </trkpt>
      <trkpt lat="42.99846333" lon="-0.115075">
        <ele>643.0</ele>
        <time>2019-07-07T09:06:45.804Z</time>
      </trkpt>
      <trkpt lat="42.99846833" lon="-0.115115">
        <ele>643.0</ele>
        <time>2019-07-07T09:06:46.814Z</time>
      </trkpt>
      <trkpt lat="42.99846833" lon="-0.115115">
        <ele>643.0</ele>
        <time>2019-07-07T09:06:47.836Z</time>
      </trkpt>
      <trkpt lat="42.99847" lon="-0.11519667">
        <ele>643.0</ele>
        <time>2019-07-07T09:06:48.824Z</time>
      </trkpt>
      <trkpt lat="42.99847" lon="-0.11519667">
        <ele>643.0</ele>
        <time>2019-07-07T09:06:49.831Z</time>
      </trkpt>
      <trkpt lat="42.99847333" lon="-0.11528167">
        <ele>644.0</ele>
        <time>2019-07-07T09:06:50.834Z</time>
      </trkpt>
      <trkpt lat="42.99846833" lon="-0.115325">
        <ele>644.0</ele>
        <time>2019-07-07T09:06:51.824Z</time>
      </trkpt>
      <trkpt lat="42.99846833" lon="-0.115325">
        <ele>644.0</ele>
        <time>2019-07-07T09:06:52.829Z</time>
      </trkpt>
      <trkpt lat="42.99846" lon="-0.115405">
        <ele>645.0</ele>
        <time>2019-07-07T09:06:53.834Z</time>
      </trkpt>
      <trkpt lat="42.998455" lon="-0.115445">
        <ele>645.0</ele>
        <time>2019-07-07T09:06:54.818Z</time>
      </trkpt>
      <trkpt lat="42.998455" lon="-0.115445">
        <ele>645.0</ele>
        <time>2019-07-07T09:06:55.824Z</time>
      </trkpt>
      <trkpt lat="42.99844667" lon="-0.11553">
        <ele>646.0</ele>
        <time>2019-07-07T09:06:56.834Z</time>
      </trkpt>
      <trkpt lat="42.99844167" lon="-0.11557333">
        <ele>646.0</ele>
        <time>2019-07-07T09:06:57.821Z</time>
      </trkpt>
      <trkpt lat="42.99844167" lon="-0.11557333">
        <ele>646.0</ele>
        <time>2019-07-07T09:06:58.827Z</time>
      </trkpt>
      <trkpt lat="42.99842333" lon="-0.11565833">
        <ele>646.0</ele>
        <time>2019-07-07T09:06:59.804Z</time>
      </trkpt>
      <trkpt lat="42.99842333" lon="-0.11565833">
        <ele>646.0</ele>
        <time>2019-07-07T09:07:00.813Z</time>
      </trkpt>
      <trkpt lat="42.99840167" lon="-0.115735">
        <ele>647.0</ele>
        <time>2019-07-07T09:07:01.823Z</time>
      </trkpt>
      <trkpt lat="42.99839" lon="-0.11577667">
        <ele>647.0</ele>
        <time>2019-07-07T09:07:02.834Z</time>
      </trkpt>
      <trkpt lat="42.99839" lon="-0.11577667">
        <ele>647.0</ele>
        <time>2019-07-07T09:07:03.851Z</time>
      </trkpt>
      <trkpt lat="42.99836667" lon="-0.115855">
        <ele>647.0</ele>
        <time>2019-07-07T09:07:04.819Z</time>
      </trkpt>
      <trkpt lat="42.99836667" lon="-0.115855">
        <ele>647.0</ele>
        <time>2019-07-07T09:07:05.825Z</time>
      </trkpt>
      <trkpt lat="42.99833667" lon="-0.11593167">
        <ele>647.0</ele>
        <time>2019-07-07T09:07:06.801Z</time>
      </trkpt>
      <trkpt lat="42.99833667" lon="-0.11593167">
        <ele>647.0</ele>
        <time>2019-07-07T09:07:07.808Z</time>
      </trkpt>
      <trkpt lat="42.998315" lon="-0.11600833">
        <ele>647.0</ele>
        <time>2019-07-07T09:07:08.814Z</time>
      </trkpt>
      <trkpt lat="42.998315" lon="-0.11600833">
        <ele>647.0</ele>
        <time>2019-07-07T09:07:09.820Z</time>
      </trkpt>
      <trkpt lat="42.99828667" lon="-0.11609333">
        <ele>647.0</ele>
        <time>2019-07-07T09:07:10.824Z</time>
      </trkpt>
      <trkpt lat="42.99828667" lon="-0.11609333">
        <ele>647.0</ele>
        <time>2019-07-07T09:07:11.833Z</time>
      </trkpt>
      <trkpt lat="42.998255" lon="-0.116165">
        <ele>647.0</ele>
        <time>2019-07-07T09:07:12.835Z</time>
      </trkpt>
      <trkpt lat="42.998255" lon="-0.116165">
        <ele>647.0</ele>
        <time>2019-07-07T09:07:13.820Z</time>
      </trkpt>
      <trkpt lat="42.99822333" lon="-0.116235">
        <ele>647.0</ele>
        <time>2019-07-07T09:07:14.824Z</time>
      </trkpt>
      <trkpt lat="42.99822333" lon="-0.116235">
        <ele>647.0</ele>
        <time>2019-07-07T09:07:15.830Z</time>
      </trkpt>
      <trkpt lat="42.99818833" lon="-0.11630833">
        <ele>647.0</ele>
        <time>2019-07-07T09:07:16.831Z</time>
      </trkpt>
      <trkpt lat="42.99818833" lon="-0.11630833">
        <ele>647.0</ele>
        <time>2019-07-07T09:07:17.838Z</time>
      </trkpt>
      <trkpt lat="42.99815167" lon="-0.11637333">
        <ele>648.0</ele>
        <time>2019-07-07T09:07:18.813Z</time>
      </trkpt>
      <trkpt lat="42.998135" lon="-0.11640833">
        <ele>648.0</ele>
        <time>2019-07-07T09:07:19.824Z</time>
      </trkpt>
      <trkpt lat="42.998135" lon="-0.11640833">
        <ele>648.0</ele>
        <time>2019-07-07T09:07:20.830Z</time>
      </trkpt>
      <trkpt lat="42.9981" lon="-0.11647667">
        <ele>648.0</ele>
        <time>2019-07-07T09:07:21.804Z</time>
      </trkpt>
      <trkpt lat="42.9981" lon="-0.11647667">
        <ele>648.0</ele>
        <time>2019-07-07T09:07:22.809Z</time>
      </trkpt>
      <trkpt lat="42.99806167" lon="-0.11653833">
        <ele>648.0</ele>
        <time>2019-07-07T09:07:23.814Z</time>
      </trkpt>
      <trkpt lat="42.99804167" lon="-0.11657">
        <ele>648.0</ele>
        <time>2019-07-07T09:07:24.824Z</time>
      </trkpt>
      <trkpt lat="42.99804167" lon="-0.11657">
        <ele>648.0</ele>
        <time>2019-07-07T09:07:25.829Z</time>
      </trkpt>
      <trkpt lat="42.99800333" lon="-0.11663667">
        <ele>649.0</ele>
        <time>2019-07-07T09:07:26.808Z</time>
      </trkpt>
      <trkpt lat="42.99800333" lon="-0.11663667">
        <ele>649.0</ele>
        <time>2019-07-07T09:07:27.814Z</time>
      </trkpt>
      <trkpt lat="42.99796167" lon="-0.116695">
        <ele>649.0</ele>
        <time>2019-07-07T09:07:28.834Z</time>
      </trkpt>
      <trkpt lat="42.99794167" lon="-0.11672333">
        <ele>649.0</ele>
        <time>2019-07-07T09:07:29.833Z</time>
      </trkpt>
      <trkpt lat="42.99794167" lon="-0.11672333">
        <ele>649.0</ele>
        <time>2019-07-07T09:07:30.815Z</time>
      </trkpt>
      <trkpt lat="42.99789833" lon="-0.11678">
        <ele>649.0</ele>
        <time>2019-07-07T09:07:31.834Z</time>
      </trkpt>
      <trkpt lat="42.99789833" lon="-0.11678">
        <ele>649.0</ele>
        <time>2019-07-07T09:07:32.813Z</time>
      </trkpt>
      <trkpt lat="42.99785167" lon="-0.11683333">
        <ele>650.0</ele>
        <time>2019-07-07T09:07:33.829Z</time>
      </trkpt>
      <trkpt lat="42.99785167" lon="-0.11683333">
        <ele>650.0</ele>
        <time>2019-07-07T09:07:34.835Z</time>
      </trkpt>
      <trkpt lat="42.99780333" lon="-0.11688167">
        <ele>650.0</ele>
        <time>2019-07-07T09:07:35.804Z</time>
      </trkpt>
      <trkpt lat="42.99777667" lon="-0.11690833">
        <ele>650.0</ele>
        <time>2019-07-07T09:07:36.816Z</time>
      </trkpt>
      <trkpt lat="42.99777667" lon="-0.11690833">
        <ele>650.0</ele>
        <time>2019-07-07T09:07:37.822Z</time>
      </trkpt>
      <trkpt lat="42.997725" lon="-0.116955">
        <ele>650.0</ele>
        <time>2019-07-07T09:07:38.833Z</time>
      </trkpt>
      <trkpt lat="42.997725" lon="-0.116955">
        <ele>650.0</ele>
        <time>2019-07-07T09:07:39.831Z</time>
      </trkpt>
      <trkpt lat="42.99768167" lon="-0.11700333">
        <ele>650.0</ele>
        <time>2019-07-07T09:07:40.812Z</time>
      </trkpt>
      <trkpt lat="42.99768167" lon="-0.11700333">
        <ele>650.0</ele>
        <time>2019-07-07T09:07:41.818Z</time>
      </trkpt>
      <trkpt lat="42.99763" lon="-0.11704833">
        <ele>651.0</ele>
        <time>2019-07-07T09:07:42.831Z</time>
      </trkpt>
      <trkpt lat="42.99763" lon="-0.11704833">
        <ele>651.0</ele>
        <time>2019-07-07T09:07:43.837Z</time>
      </trkpt>
      <trkpt lat="42.99758" lon="-0.11708333">
        <ele>651.0</ele>
        <time>2019-07-07T09:07:44.814Z</time>
      </trkpt>
      <trkpt lat="42.99758" lon="-0.11708333">
        <ele>651.0</ele>
        <time>2019-07-07T09:07:45.820Z</time>
      </trkpt>
      <trkpt lat="42.99752667" lon="-0.11711167">
        <ele>651.0</ele>
        <time>2019-07-07T09:07:46.833Z</time>
      </trkpt>
      <trkpt lat="42.99752667" lon="-0.11711167">
        <ele>651.0</ele>
        <time>2019-07-07T09:07:47.833Z</time>
      </trkpt>
      <trkpt lat="42.99747333" lon="-0.117145">
        <ele>651.0</ele>
        <time>2019-07-07T09:07:48.806Z</time>
      </trkpt>
      <trkpt lat="42.99744833" lon="-0.11715667">
        <ele>651.0</ele>
        <time>2019-07-07T09:07:49.824Z</time>
      </trkpt>
      <trkpt lat="42.99744833" lon="-0.11715667">
        <ele>651.0</ele>
        <time>2019-07-07T09:07:50.830Z</time>
      </trkpt>
      <trkpt lat="42.99740333" lon="-0.117185">
        <ele>652.0</ele>
        <time>2019-07-07T09:07:51.804Z</time>
      </trkpt>
      <trkpt lat="42.99740333" lon="-0.117185">
        <ele>652.0</ele>
        <time>2019-07-07T09:07:52.813Z</time>
      </trkpt>
      <trkpt lat="42.99735667" lon="-0.11720167">
        <ele>652.0</ele>
        <time>2019-07-07T09:07:53.814Z</time>
      </trkpt>
      <trkpt lat="42.997335" lon="-0.11721">
        <ele>652.0</ele>
        <time>2019-07-07T09:07:54.813Z</time>
      </trkpt>
      <trkpt lat="42.997335" lon="-0.11721">
        <ele>652.0</ele>
        <time>2019-07-07T09:07:55.819Z</time>
      </trkpt>
      <trkpt lat="42.99728667" lon="-0.11722667">
        <ele>652.0</ele>
        <time>2019-07-07T09:07:56.834Z</time>
      </trkpt>
      <trkpt lat="42.99728667" lon="-0.11722667">
        <ele>652.0</ele>
        <time>2019-07-07T09:07:57.813Z</time>
      </trkpt>
      <trkpt lat="42.99723333" lon="-0.11723833">
        <ele>653.0</ele>
        <time>2019-07-07T09:07:58.813Z</time>
      </trkpt>
      <trkpt lat="42.99720667" lon="-0.11724833">
        <ele>653.0</ele>
        <time>2019-07-07T09:07:59.834Z</time>
      </trkpt>
      <trkpt lat="42.99720667" lon="-0.11724833">
        <ele>653.0</ele>
        <time>2019-07-07T09:08:00.807Z</time>
      </trkpt>
      <trkpt lat="42.99715333" lon="-0.11726833">
        <ele>653.0</ele>
        <time>2019-07-07T09:08:01.815Z</time>
      </trkpt>
      <trkpt lat="42.99715333" lon="-0.11726833">
        <ele>653.0</ele>
        <time>2019-07-07T09:08:02.820Z</time>
      </trkpt>
      <trkpt lat="42.99710167" lon="-0.11728667">
        <ele>654.0</ele>
        <time>2019-07-07T09:08:03.823Z</time>
      </trkpt>
      <trkpt lat="42.99707333" lon="-0.117295">
        <ele>654.0</ele>
        <time>2019-07-07T09:08:04.834Z</time>
      </trkpt>
      <trkpt lat="42.99707333" lon="-0.117295">
        <ele>654.0</ele>
        <time>2019-07-07T09:08:05.804Z</time>
      </trkpt>
      <trkpt lat="42.997025" lon="-0.11731333">
        <ele>654.0</ele>
        <time>2019-07-07T09:08:06.814Z</time>
      </trkpt>
      <trkpt lat="42.997025" lon="-0.11731333">
        <ele>654.0</ele>
        <time>2019-07-07T09:08:07.819Z</time>
      </trkpt>
      <trkpt lat="42.99697167" lon="-0.11732667">
        <ele>654.0</ele>
        <time>2019-07-07T09:08:08.834Z</time>
      </trkpt>
      <trkpt lat="42.99694" lon="-0.11733">
        <ele>655.0</ele>
        <time>2019-07-07T09:08:09.812Z</time>
      </trkpt>
      <trkpt lat="42.99694" lon="-0.11733">
        <ele>655.0</ele>
        <time>2019-07-07T09:08:10.818Z</time>
      </trkpt>
      <trkpt lat="42.99689333" lon="-0.11735167">
        <ele>655.0</ele>
        <time>2019-07-07T09:08:11.835Z</time>
      </trkpt>
      <trkpt lat="42.99687" lon="-0.11736167">
        <ele>655.0</ele>
        <time>2019-07-07T09:08:12.804Z</time>
      </trkpt>
      <trkpt lat="42.99684667" lon="-0.11737167">
        <ele>655.0</ele>
        <time>2019-07-07T09:08:13.824Z</time>
      </trkpt>
      <trkpt lat="42.99684667" lon="-0.11737167">
        <ele>655.0</ele>
        <time>2019-07-07T09:08:14.830Z</time>
      </trkpt>
      <trkpt lat="42.99679" lon="-0.117385">
        <ele>656.0</ele>
        <time>2019-07-07T09:08:15.814Z</time>
      </trkpt>
      <trkpt lat="42.996765" lon="-0.11739167">
        <ele>656.0</ele>
        <time>2019-07-07T09:08:16.826Z</time>
      </trkpt>
      <trkpt lat="42.996765" lon="-0.11739167">
        <ele>656.0</ele>
        <time>2019-07-07T09:08:17.831Z</time>
      </trkpt>
      <trkpt lat="42.99671167" lon="-0.11740333">
        <ele>656.0</ele>
        <time>2019-07-07T09:08:18.810Z</time>
      </trkpt>
      <trkpt lat="42.99671167" lon="-0.11740333">
        <ele>656.0</ele>
        <time>2019-07-07T09:08:19.817Z</time>
      </trkpt>
      <trkpt lat="42.99664833" lon="-0.117415">
        <ele>656.0</ele>
        <time>2019-07-07T09:08:20.825Z</time>
      </trkpt>
      <trkpt lat="42.99662333" lon="-0.11742167">
        <ele>657.0</ele>
        <time>2019-07-07T09:08:21.804Z</time>
      </trkpt>
      <trkpt lat="42.99662333" lon="-0.11742167">
        <ele>657.0</ele>
        <time>2019-07-07T09:08:22.810Z</time>
      </trkpt>
      <trkpt lat="42.99658" lon="-0.11743833">
        <ele>657.0</ele>
        <time>2019-07-07T09:08:23.829Z</time>
      </trkpt>
      <trkpt lat="42.99655667" lon="-0.11744667">
        <ele>657.0</ele>
        <time>2019-07-07T09:08:24.834Z</time>
      </trkpt>
      <trkpt lat="42.99655667" lon="-0.11744667">
        <ele>657.0</ele>
        <time>2019-07-07T09:08:25.812Z</time>
      </trkpt>
      <trkpt lat="42.996505" lon="-0.11746167">
        <ele>657.0</ele>
        <time>2019-07-07T09:08:26.815Z</time>
      </trkpt>
      <trkpt lat="42.996505" lon="-0.11746167">
        <ele>657.0</ele>
        <time>2019-07-07T09:08:27.821Z</time>
      </trkpt>
      <trkpt lat="42.99644667" lon="-0.11748">
        <ele>658.0</ele>
        <time>2019-07-07T09:08:28.825Z</time>
      </trkpt>
      <trkpt lat="42.99644667" lon="-0.11748">
        <ele>658.0</ele>
        <time>2019-07-07T09:08:29.833Z</time>
      </trkpt>
      <trkpt lat="42.99638667" lon="-0.11749833">
        <ele>658.0</ele>
        <time>2019-07-07T09:08:30.822Z</time>
      </trkpt>
      <trkpt lat="42.99638667" lon="-0.11749833">
        <ele>658.0</ele>
        <time>2019-07-07T09:08:31.828Z</time>
      </trkpt>
      <trkpt lat="42.99633" lon="-0.11751333">
        <ele>658.0</ele>
        <time>2019-07-07T09:08:32.834Z</time>
      </trkpt>
      <trkpt lat="42.99630333" lon="-0.11752333">
        <ele>658.0</ele>
        <time>2019-07-07T09:08:33.817Z</time>
      </trkpt>
      <trkpt lat="42.99630333" lon="-0.11752333">
        <ele>658.0</ele>
        <time>2019-07-07T09:08:34.823Z</time>
      </trkpt>
      <trkpt lat="42.99624667" lon="-0.11754333">
        <ele>658.0</ele>
        <time>2019-07-07T09:08:35.814Z</time>
      </trkpt>
      <trkpt lat="42.99624667" lon="-0.11754333">
        <ele>658.0</ele>
        <time>2019-07-07T09:08:36.821Z</time>
      </trkpt>
      <trkpt lat="42.99619" lon="-0.11756167">
        <ele>659.0</ele>
        <time>2019-07-07T09:08:37.820Z</time>
      </trkpt>
      <trkpt lat="42.99619" lon="-0.11756167">
        <ele>659.0</ele>
        <time>2019-07-07T09:08:38.827Z</time>
      </trkpt>
      <trkpt lat="42.996135" lon="-0.11757667">
        <ele>659.0</ele>
        <time>2019-07-07T09:08:39.801Z</time>
      </trkpt>
      <trkpt lat="42.996135" lon="-0.11757667">
        <ele>659.0</ele>
        <time>2019-07-07T09:08:40.808Z</time>
      </trkpt>
      <trkpt lat="42.99607833" lon="-0.11759667">
        <ele>659.0</ele>
        <time>2019-07-07T09:08:41.836Z</time>
      </trkpt>
      <trkpt lat="42.99605167" lon="-0.11760333">
        <ele>659.0</ele>
        <time>2019-07-07T09:08:42.830Z</time>
      </trkpt>
      <trkpt lat="42.99605167" lon="-0.11760333">
        <ele>659.0</ele>
        <time>2019-07-07T09:08:43.836Z</time>
      </trkpt>
      <trkpt lat="42.99599167" lon="-0.117615">
        <ele>660.0</ele>
        <time>2019-07-07T09:08:44.838Z</time>
      </trkpt>
      <trkpt lat="42.99596333" lon="-0.11762">
        <ele>660.0</ele>
        <time>2019-07-07T09:08:45.814Z</time>
      </trkpt>
      <trkpt lat="42.99596333" lon="-0.11762">
        <ele>660.0</ele>
        <time>2019-07-07T09:08:46.820Z</time>
      </trkpt>
      <trkpt lat="42.995905" lon="-0.11762833">
        <ele>660.0</ele>
        <time>2019-07-07T09:08:47.834Z</time>
      </trkpt>
      <trkpt lat="42.995905" lon="-0.11762833">
        <ele>660.0</ele>
        <time>2019-07-07T09:08:48.835Z</time>
      </trkpt>
      <trkpt lat="42.99584667" lon="-0.11763667">
        <ele>660.0</ele>
        <time>2019-07-07T09:08:49.834Z</time>
      </trkpt>
      <trkpt lat="42.99584667" lon="-0.11763667">
        <ele>660.0</ele>
        <time>2019-07-07T09:08:50.808Z</time>
      </trkpt>
      <trkpt lat="42.99578667" lon="-0.11764667">
        <ele>661.0</ele>
        <time>2019-07-07T09:08:51.814Z</time>
      </trkpt>
      <trkpt lat="42.99576" lon="-0.11764833">
        <ele>661.0</ele>
        <time>2019-07-07T09:08:52.829Z</time>
      </trkpt>
      <trkpt lat="42.99576" lon="-0.11764833">
        <ele>661.0</ele>
        <time>2019-07-07T09:08:53.835Z</time>
      </trkpt>
      <trkpt lat="42.99570333" lon="-0.11765167">
        <ele>661.0</ele>
        <time>2019-07-07T09:08:54.813Z</time>
      </trkpt>
      <trkpt lat="42.99567833" lon="-0.11765333">
        <ele>661.0</ele>
        <time>2019-07-07T09:08:55.834Z</time>
      </trkpt>
      <trkpt lat="42.99567833" lon="-0.11765333">
        <ele>661.0</ele>
        <time>2019-07-07T09:08:56.801Z</time>
      </trkpt>
      <trkpt lat="42.99562667" lon="-0.11765833">
        <ele>661.0</ele>
        <time>2019-07-07T09:08:57.824Z</time>
      </trkpt>
      <trkpt lat="42.99562667" lon="-0.11765833">
        <ele>661.0</ele>
        <time>2019-07-07T09:08:58.830Z</time>
      </trkpt>
      <trkpt lat="42.99557167" lon="-0.117665">
        <ele>661.0</ele>
        <time>2019-07-07T09:08:59.824Z</time>
      </trkpt>
      <trkpt lat="42.99554333" lon="-0.11767">
        <ele>662.0</ele>
        <time>2019-07-07T09:09:00.809Z</time>
      </trkpt>
      <trkpt lat="42.99554333" lon="-0.11767">
        <ele>662.0</ele>
        <time>2019-07-07T09:09:01.816Z</time>
      </trkpt>
      <trkpt lat="42.99548667" lon="-0.11769333">
        <ele>662.0</ele>
        <time>2019-07-07T09:09:02.811Z</time>
      </trkpt>
      <trkpt lat="42.99546167" lon="-0.11771333">
        <ele>662.0</ele>
        <time>2019-07-07T09:09:03.814Z</time>
      </trkpt>
      <trkpt lat="42.99546167" lon="-0.11771333">
        <ele>662.0</ele>
        <time>2019-07-07T09:09:04.820Z</time>
      </trkpt>
      <trkpt lat="42.995415" lon="-0.117765">
        <ele>662.0</ele>
        <time>2019-07-07T09:09:05.834Z</time>
      </trkpt>
      <trkpt lat="42.99539333" lon="-0.117795">
        <ele>662.0</ele>
        <time>2019-07-07T09:09:06.834Z</time>
      </trkpt>
      <trkpt lat="42.99539333" lon="-0.117795">
        <ele>662.0</ele>
        <time>2019-07-07T09:09:07.807Z</time>
      </trkpt>
      <trkpt lat="42.99535167" lon="-0.11785667">
        <ele>662.0</ele>
        <time>2019-07-07T09:09:08.814Z</time>
      </trkpt>
      <trkpt lat="42.99533167" lon="-0.11788667">
        <ele>663.0</ele>
        <time>2019-07-07T09:09:09.804Z</time>
      </trkpt>
      <trkpt lat="42.99533167" lon="-0.11788667">
        <ele>663.0</ele>
        <time>2019-07-07T09:09:10.810Z</time>
      </trkpt>
      <trkpt lat="42.995295" lon="-0.11795167">
        <ele>663.0</ele>
        <time>2019-07-07T09:09:11.817Z</time>
      </trkpt>
      <trkpt lat="42.995295" lon="-0.11795167">
        <ele>663.0</ele>
        <time>2019-07-07T09:09:12.823Z</time>
      </trkpt>
      <trkpt lat="42.995255" lon="-0.11803333">
        <ele>663.0</ele>
        <time>2019-07-07T09:09:13.834Z</time>
      </trkpt>
      <trkpt lat="42.99524" lon="-0.11807833">
        <ele>662.0</ele>
        <time>2019-07-07T09:09:14.814Z</time>
      </trkpt>
      <trkpt lat="42.99524" lon="-0.11807833">
        <ele>662.0</ele>
        <time>2019-07-07T09:09:15.820Z</time>
      </trkpt>
      <trkpt lat="42.99520167" lon="-0.11815167">
        <ele>662.0</ele>
        <time>2019-07-07T09:09:16.826Z</time>
      </trkpt>
      <trkpt lat="42.99518333" lon="-0.11818667">
        <ele>662.0</ele>
        <time>2019-07-07T09:09:17.818Z</time>
      </trkpt>
      <trkpt lat="42.995165" lon="-0.11822167">
        <ele>662.0</ele>
        <time>2019-07-07T09:09:18.824Z</time>
      </trkpt>
      <trkpt lat="42.995165" lon="-0.11822167">
        <ele>662.0</ele>
        <time>2019-07-07T09:09:19.831Z</time>
      </trkpt>
      <trkpt lat="42.99512833" lon="-0.11829">
        <ele>662.0</ele>
        <time>2019-07-07T09:09:20.824Z</time>
      </trkpt>
      <trkpt lat="42.99512833" lon="-0.11829">
        <ele>662.0</ele>
        <time>2019-07-07T09:09:21.830Z</time>
      </trkpt>
      <trkpt lat="42.99509167" lon="-0.11836">
        <ele>663.0</ele>
        <time>2019-07-07T09:09:22.804Z</time>
      </trkpt>
      <trkpt lat="42.99509167" lon="-0.11836">
        <ele>663.0</ele>
        <time>2019-07-07T09:09:23.813Z</time>
      </trkpt>
      <trkpt lat="42.99506" lon="-0.11842333">
        <ele>663.0</ele>
        <time>2019-07-07T09:09:24.831Z</time>
      </trkpt>
      <trkpt lat="42.99506" lon="-0.11842333">
        <ele>663.0</ele>
        <time>2019-07-07T09:09:25.837Z</time>
      </trkpt>
      <trkpt lat="42.99503333" lon="-0.11850167">
        <ele>663.0</ele>
        <time>2019-07-07T09:09:26.814Z</time>
      </trkpt>
      <trkpt lat="42.99503333" lon="-0.11850167">
        <ele>663.0</ele>
        <time>2019-07-07T09:09:27.820Z</time>
      </trkpt>
      <trkpt lat="42.99501667" lon="-0.11858333">
        <ele>663.0</ele>
        <time>2019-07-07T09:09:28.824Z</time>
      </trkpt>
      <trkpt lat="42.99501167" lon="-0.11862333">
        <ele>664.0</ele>
        <time>2019-07-07T09:09:29.824Z</time>
      </trkpt>
      <trkpt lat="42.99500833" lon="-0.11866667">
        <ele>664.0</ele>
        <time>2019-07-07T09:09:30.825Z</time>
      </trkpt>
      <trkpt lat="42.99500833" lon="-0.11866667">
        <ele>664.0</ele>
        <time>2019-07-07T09:09:31.831Z</time>
      </trkpt>
      <trkpt lat="42.995" lon="-0.118755">
        <ele>664.0</ele>
        <time>2019-07-07T09:09:32.824Z</time>
      </trkpt>
      <trkpt lat="42.994995" lon="-0.1188">
        <ele>664.0</ele>
        <time>2019-07-07T09:09:33.830Z</time>
      </trkpt>
      <trkpt lat="42.994995" lon="-0.1188">
        <ele>664.0</ele>
        <time>2019-07-07T09:09:34.836Z</time>
      </trkpt>
      <trkpt lat="42.994985" lon="-0.11888667">
        <ele>664.0</ele>
        <time>2019-07-07T09:09:35.818Z</time>
      </trkpt>
      <trkpt lat="42.994985" lon="-0.11888667">
        <ele>664.0</ele>
        <time>2019-07-07T09:09:36.824Z</time>
      </trkpt>
      <trkpt lat="42.994975" lon="-0.11897333">
        <ele>665.0</ele>
        <time>2019-07-07T09:09:37.804Z</time>
      </trkpt>
      <trkpt lat="42.99497" lon="-0.11901667">
        <ele>665.0</ele>
        <time>2019-07-07T09:09:38.814Z</time>
      </trkpt>
      <trkpt lat="42.99497" lon="-0.11901667">
        <ele>665.0</ele>
        <time>2019-07-07T09:09:39.823Z</time>
      </trkpt>
      <trkpt lat="42.99495833" lon="-0.11910333">
        <ele>665.0</ele>
        <time>2019-07-07T09:09:40.833Z</time>
      </trkpt>
      <trkpt lat="42.99495833" lon="-0.11910333">
        <ele>665.0</ele>
        <time>2019-07-07T09:09:41.838Z</time>
      </trkpt>
      <trkpt lat="42.99495" lon="-0.11919167">
        <ele>666.0</ele>
        <time>2019-07-07T09:09:42.811Z</time>
      </trkpt>
      <trkpt lat="42.99494667" lon="-0.11923333">
        <ele>666.0</ele>
        <time>2019-07-07T09:09:43.831Z</time>
      </trkpt>
      <trkpt lat="42.99494667" lon="-0.11923333">
        <ele>666.0</ele>
        <time>2019-07-07T09:09:44.837Z</time>
      </trkpt>
      <trkpt lat="42.99493667" lon="-0.11931833">
        <ele>666.0</ele>
        <time>2019-07-07T09:09:45.804Z</time>
      </trkpt>
      <trkpt lat="42.99493667" lon="-0.11931833">
        <ele>666.0</ele>
        <time>2019-07-07T09:09:46.812Z</time>
      </trkpt>
      <trkpt lat="42.99493833" lon="-0.11940833">
        <ele>667.0</ele>
        <time>2019-07-07T09:09:47.830Z</time>
      </trkpt>
      <trkpt lat="42.994935" lon="-0.11945167">
        <ele>667.0</ele>
        <time>2019-07-07T09:09:48.813Z</time>
      </trkpt>
      <trkpt lat="42.99493167" lon="-0.119495">
        <ele>667.0</ele>
        <time>2019-07-07T09:09:49.809Z</time>
      </trkpt>
      <trkpt lat="42.99492833" lon="-0.11953833">
        <ele>667.0</ele>
        <time>2019-07-07T09:09:50.814Z</time>
      </trkpt>
      <trkpt lat="42.99492833" lon="-0.11953833">
        <ele>667.0</ele>
        <time>2019-07-07T09:09:51.820Z</time>
      </trkpt>
      <trkpt lat="42.99492" lon="-0.11962667">
        <ele>668.0</ele>
        <time>2019-07-07T09:09:52.824Z</time>
      </trkpt>
      <trkpt lat="42.994915" lon="-0.11967">
        <ele>668.0</ele>
        <time>2019-07-07T09:09:53.824Z</time>
      </trkpt>
      <trkpt lat="42.99491167" lon="-0.11971167">
        <ele>668.0</ele>
        <time>2019-07-07T09:09:54.837Z</time>
      </trkpt>
      <trkpt lat="42.99491167" lon="-0.11971167">
        <ele>668.0</ele>
        <time>2019-07-07T09:09:55.815Z</time>
      </trkpt>
      <trkpt lat="42.99490333" lon="-0.11979833">
        <ele>669.0</ele>
        <time>2019-07-07T09:09:56.814Z</time>
      </trkpt>
      <trkpt lat="42.9949" lon="-0.11984">
        <ele>669.0</ele>
        <time>2019-07-07T09:09:57.804Z</time>
      </trkpt>
      <trkpt lat="42.99489667" lon="-0.11988333">
        <ele>669.0</ele>
        <time>2019-07-07T09:09:58.804Z</time>
      </trkpt>
      <trkpt lat="42.99489667" lon="-0.11988333">
        <ele>669.0</ele>
        <time>2019-07-07T09:09:59.811Z</time>
      </trkpt>
      <trkpt lat="42.99489" lon="-0.11997">
        <ele>670.0</ele>
        <time>2019-07-07T09:10:00.817Z</time>
      </trkpt>
      <trkpt lat="42.99489" lon="-0.11997">
        <ele>670.0</ele>
        <time>2019-07-07T09:10:01.823Z</time>
      </trkpt>
      <trkpt lat="42.99488833" lon="-0.12005167">
        <ele>670.0</ele>
        <time>2019-07-07T09:10:02.834Z</time>
      </trkpt>
      <trkpt lat="42.99488833" lon="-0.12005167">
        <ele>670.0</ele>
        <time>2019-07-07T09:10:03.814Z</time>
      </trkpt>
      <trkpt lat="42.99489333" lon="-0.120135">
        <ele>671.0</ele>
        <time>2019-07-07T09:10:04.814Z</time>
      </trkpt>
      <trkpt lat="42.99489333" lon="-0.120135">
        <ele>671.0</ele>
        <time>2019-07-07T09:10:05.822Z</time>
      </trkpt>
      <trkpt lat="42.99489667" lon="-0.12021833">
        <ele>671.0</ele>
        <time>2019-07-07T09:10:06.824Z</time>
      </trkpt>
      <trkpt lat="42.99489667" lon="-0.12021833">
        <ele>671.0</ele>
        <time>2019-07-07T09:10:07.830Z</time>
      </trkpt>
      <trkpt lat="42.994905" lon="-0.1203">
        <ele>671.0</ele>
        <time>2019-07-07T09:10:08.804Z</time>
      </trkpt>
      <trkpt lat="42.99491333" lon="-0.12034">
        <ele>671.0</ele>
        <time>2019-07-07T09:10:09.814Z</time>
      </trkpt>
      <trkpt lat="42.99491333" lon="-0.12034">
        <ele>671.0</ele>
        <time>2019-07-07T09:10:10.819Z</time>
      </trkpt>
      <trkpt lat="42.99494" lon="-0.12041667">
        <ele>671.0</ele>
        <time>2019-07-07T09:10:11.821Z</time>
      </trkpt>
      <trkpt lat="42.99495" lon="-0.12044833">
        <ele>671.0</ele>
        <time>2019-07-07T09:10:12.814Z</time>
      </trkpt>
      <trkpt lat="42.99495" lon="-0.12044833">
        <ele>671.0</ele>
        <time>2019-07-07T09:10:13.819Z</time>
      </trkpt>
      <trkpt lat="42.99497833" lon="-0.12051667">
        <ele>671.0</ele>
        <time>2019-07-07T09:10:14.832Z</time>
      </trkpt>
      <trkpt lat="42.99497833" lon="-0.12051667">
        <ele>671.0</ele>
        <time>2019-07-07T09:10:15.821Z</time>
      </trkpt>
      <trkpt lat="42.99500167" lon="-0.12059167">
        <ele>671.0</ele>
        <time>2019-07-07T09:10:16.824Z</time>
      </trkpt>
      <trkpt lat="42.99500167" lon="-0.12059167">
        <ele>671.0</ele>
        <time>2019-07-07T09:10:17.830Z</time>
      </trkpt>
      <trkpt lat="42.99504167" lon="-0.12069333">
        <ele>672.0</ele>
        <time>2019-07-07T09:10:18.840Z</time>
      </trkpt>
      <trkpt lat="42.99504167" lon="-0.12069333">
        <ele>672.0</ele>
        <time>2019-07-07T09:10:19.837Z</time>
      </trkpt>
      <trkpt lat="42.99504167" lon="-0.12069333">
        <ele>672.0</ele>
        <time>2019-07-07T09:10:20.803Z</time>
      </trkpt>
      <trkpt lat="42.99506667" lon="-0.12076333">
        <ele>673.0</ele>
        <time>2019-07-07T09:10:21.824Z</time>
      </trkpt>
      <trkpt lat="42.99506667" lon="-0.12076333">
        <ele>673.0</ele>
        <time>2019-07-07T09:10:22.831Z</time>
      </trkpt>
      <trkpt lat="42.99508833" lon="-0.12084">
        <ele>673.0</ele>
        <time>2019-07-07T09:10:23.814Z</time>
      </trkpt>
      <trkpt lat="42.99509833" lon="-0.12088">
        <ele>674.0</ele>
        <time>2019-07-07T09:10:24.831Z</time>
      </trkpt>
      <trkpt lat="42.99509833" lon="-0.12088">
        <ele>674.0</ele>
        <time>2019-07-07T09:10:25.837Z</time>
      </trkpt>
      <trkpt lat="42.99511333" lon="-0.12095667">
        <ele>674.0</ele>
        <time>2019-07-07T09:10:26.815Z</time>
      </trkpt>
      <trkpt lat="42.99512" lon="-0.12099833">
        <ele>675.0</ele>
        <time>2019-07-07T09:10:27.814Z</time>
      </trkpt>
      <trkpt lat="42.99512" lon="-0.12099833">
        <ele>675.0</ele>
        <time>2019-07-07T09:10:28.820Z</time>
      </trkpt>
      <trkpt lat="42.99512833" lon="-0.12108167">
        <ele>676.0</ele>
        <time>2019-07-07T09:10:29.834Z</time>
      </trkpt>
      <trkpt lat="42.99513" lon="-0.12112">
        <ele>676.0</ele>
        <time>2019-07-07T09:10:30.807Z</time>
      </trkpt>
      <trkpt lat="42.99513" lon="-0.12112">
        <ele>676.0</ele>
        <time>2019-07-07T09:10:31.813Z</time>
      </trkpt>
      <trkpt lat="42.995135" lon="-0.1212">
        <ele>677.0</ele>
        <time>2019-07-07T09:10:32.834Z</time>
      </trkpt>
      <trkpt lat="42.995135" lon="-0.1212">
        <ele>677.0</ele>
        <time>2019-07-07T09:10:33.840Z</time>
      </trkpt>
      <trkpt lat="42.99513333" lon="-0.12127833">
        <ele>678.0</ele>
        <time>2019-07-07T09:10:34.824Z</time>
      </trkpt>
      <trkpt lat="42.99513167" lon="-0.12131833">
        <ele>678.0</ele>
        <time>2019-07-07T09:10:35.830Z</time>
      </trkpt>
      <trkpt lat="42.99512833" lon="-0.12135833">
        <ele>679.0</ele>
        <time>2019-07-07T09:10:36.824Z</time>
      </trkpt>
      <trkpt lat="42.99512833" lon="-0.12135833">
        <ele>679.0</ele>
        <time>2019-07-07T09:10:37.830Z</time>
      </trkpt>
      <trkpt lat="42.99512167" lon="-0.12144167">
        <ele>680.0</ele>
        <time>2019-07-07T09:10:38.826Z</time>
      </trkpt>
      <trkpt lat="42.99511333" lon="-0.12148333">
        <ele>680.0</ele>
        <time>2019-07-07T09:10:39.814Z</time>
      </trkpt>
      <trkpt lat="42.99511333" lon="-0.12148333">
        <ele>680.0</ele>
        <time>2019-07-07T09:10:40.819Z</time>
      </trkpt>
      <trkpt lat="42.99509833" lon="-0.121565">
        <ele>681.0</ele>
        <time>2019-07-07T09:10:41.807Z</time>
      </trkpt>
      <trkpt lat="42.99508667" lon="-0.12160167">
        <ele>682.0</ele>
        <time>2019-07-07T09:10:42.804Z</time>
      </trkpt>
      <trkpt lat="42.99508667" lon="-0.12160167">
        <ele>682.0</ele>
        <time>2019-07-07T09:10:43.813Z</time>
      </trkpt>
      <trkpt lat="42.995065" lon="-0.121675">
        <ele>683.0</ele>
        <time>2019-07-07T09:10:44.834Z</time>
      </trkpt>
      <trkpt lat="42.995065" lon="-0.121675">
        <ele>683.0</ele>
        <time>2019-07-07T09:10:45.840Z</time>
      </trkpt>
      <trkpt lat="42.995045" lon="-0.12175">
        <ele>683.0</ele>
        <time>2019-07-07T09:10:46.828Z</time>
      </trkpt>
      <trkpt lat="42.995035" lon="-0.12178667">
        <ele>684.0</ele>
        <time>2019-07-07T09:10:47.813Z</time>
      </trkpt>
      <trkpt lat="42.995035" lon="-0.12178667">
        <ele>684.0</ele>
        <time>2019-07-07T09:10:48.838Z</time>
      </trkpt>
      <trkpt lat="42.99501833" lon="-0.121865">
        <ele>684.0</ele>
        <time>2019-07-07T09:10:49.824Z</time>
      </trkpt>
      <trkpt lat="42.99501833" lon="-0.121865">
        <ele>684.0</ele>
        <time>2019-07-07T09:10:50.831Z</time>
      </trkpt>
      <trkpt lat="42.995" lon="-0.12194">
        <ele>685.0</ele>
        <time>2019-07-07T09:10:51.804Z</time>
      </trkpt>
      <trkpt lat="42.995" lon="-0.12194">
        <ele>685.0</ele>
        <time>2019-07-07T09:10:52.810Z</time>
      </trkpt>
      <trkpt lat="42.99498167" lon="-0.12201333">
        <ele>686.0</ele>
        <time>2019-07-07T09:10:53.824Z</time>
      </trkpt>
      <trkpt lat="42.99497333" lon="-0.12205">
        <ele>686.0</ele>
        <time>2019-07-07T09:10:54.839Z</time>
      </trkpt>
      <trkpt lat="42.99497333" lon="-0.12205">
        <ele>686.0</ele>
        <time>2019-07-07T09:10:55.817Z</time>
      </trkpt>
      <trkpt lat="42.99495833" lon="-0.12212167">
        <ele>687.0</ele>
        <time>2019-07-07T09:10:56.834Z</time>
      </trkpt>
      <trkpt lat="42.99495" lon="-0.12216">
        <ele>687.0</ele>
        <time>2019-07-07T09:10:57.814Z</time>
      </trkpt>
      <trkpt lat="42.99494167" lon="-0.12219667">
        <ele>687.0</ele>
        <time>2019-07-07T09:10:58.834Z</time>
      </trkpt>
      <trkpt lat="42.99493333" lon="-0.12223333">
        <ele>687.0</ele>
        <time>2019-07-07T09:10:59.814Z</time>
      </trkpt>
      <trkpt lat="42.99493333" lon="-0.12223333">
        <ele>687.0</ele>
        <time>2019-07-07T09:11:00.820Z</time>
      </trkpt>
      <trkpt lat="42.99492667" lon="-0.12230333">
        <ele>685.0</ele>
        <time>2019-07-07T09:11:01.832Z</time>
      </trkpt>
      <trkpt lat="42.99491833" lon="-0.12234167">
        <ele>685.0</ele>
        <time>2019-07-07T09:11:02.817Z</time>
      </trkpt>
      <trkpt lat="42.99491833" lon="-0.12234167">
        <ele>685.0</ele>
        <time>2019-07-07T09:11:03.823Z</time>
      </trkpt>
      <trkpt lat="42.99490167" lon="-0.12241667">
        <ele>683.0</ele>
        <time>2019-07-07T09:11:04.834Z</time>
      </trkpt>
      <trkpt lat="42.99490167" lon="-0.12241667">
        <ele>683.0</ele>
        <time>2019-07-07T09:11:05.801Z</time>
      </trkpt>
      <trkpt lat="42.994885" lon="-0.12249333">
        <ele>683.0</ele>
        <time>2019-07-07T09:11:06.821Z</time>
      </trkpt>
      <trkpt lat="42.994885" lon="-0.12249333">
        <ele>683.0</ele>
        <time>2019-07-07T09:11:07.828Z</time>
      </trkpt>
      <trkpt lat="42.99486667" lon="-0.12257167">
        <ele>682.0</ele>
        <time>2019-07-07T09:11:08.809Z</time>
      </trkpt>
      <trkpt lat="42.99485667" lon="-0.12261167">
        <ele>681.0</ele>
        <time>2019-07-07T09:11:09.810Z</time>
      </trkpt>
      <trkpt lat="42.99485667" lon="-0.12261167">
        <ele>681.0</ele>
        <time>2019-07-07T09:11:10.816Z</time>
      </trkpt>
      <trkpt lat="42.99483333" lon="-0.12268833">
        <ele>681.0</ele>
        <time>2019-07-07T09:11:11.831Z</time>
      </trkpt>
      <trkpt lat="42.99482167" lon="-0.12272833">
        <ele>680.0</ele>
        <time>2019-07-07T09:11:12.802Z</time>
      </trkpt>
      <trkpt lat="42.99482167" lon="-0.12272833">
        <ele>680.0</ele>
        <time>2019-07-07T09:11:13.815Z</time>
      </trkpt>
      <trkpt lat="42.99479667" lon="-0.12280667">
        <ele>680.0</ele>
        <time>2019-07-07T09:11:14.806Z</time>
      </trkpt>
      <trkpt lat="42.99479667" lon="-0.12280667">
        <ele>680.0</ele>
        <time>2019-07-07T09:11:15.819Z</time>
      </trkpt>
      <trkpt lat="42.99477167" lon="-0.122885">
        <ele>680.0</ele>
        <time>2019-07-07T09:11:16.834Z</time>
      </trkpt>
      <trkpt lat="42.99477167" lon="-0.122885">
        <ele>680.0</ele>
        <time>2019-07-07T09:11:17.810Z</time>
      </trkpt>
      <trkpt lat="42.99475" lon="-0.12296667">
        <ele>679.0</ele>
        <time>2019-07-07T09:11:18.829Z</time>
      </trkpt>
      <trkpt lat="42.99475" lon="-0.12296667">
        <ele>679.0</ele>
        <time>2019-07-07T09:11:19.840Z</time>
      </trkpt>
      <trkpt lat="42.99472667" lon="-0.123045">
        <ele>679.0</ele>
        <time>2019-07-07T09:11:20.814Z</time>
      </trkpt>
      <trkpt lat="42.99472667" lon="-0.123045">
        <ele>679.0</ele>
        <time>2019-07-07T09:11:21.821Z</time>
      </trkpt>
      <trkpt lat="42.9947" lon="-0.12312">
        <ele>678.0</ele>
        <time>2019-07-07T09:11:22.834Z</time>
      </trkpt>
      <trkpt lat="42.9947" lon="-0.12312">
        <ele>678.0</ele>
        <time>2019-07-07T09:11:23.820Z</time>
      </trkpt>
      <trkpt lat="42.99467167" lon="-0.12319667">
        <ele>678.0</ele>
        <time>2019-07-07T09:11:24.829Z</time>
      </trkpt>
      <trkpt lat="42.99467167" lon="-0.12319667">
        <ele>678.0</ele>
        <time>2019-07-07T09:11:25.839Z</time>
      </trkpt>
      <trkpt lat="42.99464" lon="-0.12326833">
        <ele>678.0</ele>
        <time>2019-07-07T09:11:26.814Z</time>
      </trkpt>
      <trkpt lat="42.99464" lon="-0.12326833">
        <ele>678.0</ele>
        <time>2019-07-07T09:11:27.823Z</time>
      </trkpt>
      <trkpt lat="42.99460667" lon="-0.12334667">
        <ele>678.0</ele>
        <time>2019-07-07T09:11:28.804Z</time>
      </trkpt>
      <trkpt lat="42.99460667" lon="-0.12334667">
        <ele>678.0</ele>
        <time>2019-07-07T09:11:29.813Z</time>
      </trkpt>
      <trkpt lat="42.99457" lon="-0.12340667">
        <ele>678.0</ele>
        <time>2019-07-07T09:11:30.817Z</time>
      </trkpt>
      <trkpt lat="42.99457" lon="-0.12340667">
        <ele>678.0</ele>
        <time>2019-07-07T09:11:31.825Z</time>
      </trkpt>
      <trkpt lat="42.99453667" lon="-0.12348167">
        <ele>678.0</ele>
        <time>2019-07-07T09:11:32.824Z</time>
      </trkpt>
      <trkpt lat="42.99453667" lon="-0.12348167">
        <ele>678.0</ele>
        <time>2019-07-07T09:11:33.834Z</time>
      </trkpt>
      <trkpt lat="42.99450833" lon="-0.12354833">
        <ele>678.0</ele>
        <time>2019-07-07T09:11:34.823Z</time>
      </trkpt>
      <trkpt lat="42.99450833" lon="-0.12354833">
        <ele>678.0</ele>
        <time>2019-07-07T09:11:35.832Z</time>
      </trkpt>
      <trkpt lat="42.99448333" lon="-0.12361667">
        <ele>677.0</ele>
        <time>2019-07-07T09:11:36.824Z</time>
      </trkpt>
      <trkpt lat="42.99448333" lon="-0.12361667">
        <ele>677.0</ele>
        <time>2019-07-07T09:11:37.833Z</time>
      </trkpt>
      <trkpt lat="42.99444833" lon="-0.12368333">
        <ele>677.0</ele>
        <time>2019-07-07T09:11:38.820Z</time>
      </trkpt>
      <trkpt lat="42.99444833" lon="-0.12368333">
        <ele>677.0</ele>
        <time>2019-07-07T09:11:39.831Z</time>
      </trkpt>
      <trkpt lat="42.99440667" lon="-0.12375">
        <ele>677.0</ele>
        <time>2019-07-07T09:11:40.804Z</time>
      </trkpt>
      <trkpt lat="42.99438667" lon="-0.12378">
        <ele>677.0</ele>
        <time>2019-07-07T09:11:41.804Z</time>
      </trkpt>
      <trkpt lat="42.99436667" lon="-0.123815">
        <ele>677.0</ele>
        <time>2019-07-07T09:11:42.825Z</time>
      </trkpt>
      <trkpt lat="42.99436667" lon="-0.123815">
        <ele>677.0</ele>
        <time>2019-07-07T09:11:43.832Z</time>
      </trkpt>
      <trkpt lat="42.994325" lon="-0.12388">
        <ele>677.0</ele>
        <time>2019-07-07T09:11:44.834Z</time>
      </trkpt>
      <trkpt lat="42.994325" lon="-0.12388">
        <ele>677.0</ele>
        <time>2019-07-07T09:11:45.823Z</time>
      </trkpt>
      <trkpt lat="42.99427667" lon="-0.12394">
        <ele>677.0</ele>
        <time>2019-07-07T09:11:46.801Z</time>
      </trkpt>
      <trkpt lat="42.99427667" lon="-0.12394">
        <ele>677.0</ele>
        <time>2019-07-07T09:11:47.827Z</time>
      </trkpt>
      <trkpt lat="42.99423" lon="-0.12399833">
        <ele>676.0</ele>
        <time>2019-07-07T09:11:48.809Z</time>
      </trkpt>
      <trkpt lat="42.994205" lon="-0.124025">
        <ele>676.0</ele>
        <time>2019-07-07T09:11:49.804Z</time>
      </trkpt>
      <trkpt lat="42.994205" lon="-0.124025">
        <ele>676.0</ele>
        <time>2019-07-07T09:11:50.811Z</time>
      </trkpt>
      <trkpt lat="42.99414833" lon="-0.12406833">
        <ele>676.0</ele>
        <time>2019-07-07T09:11:51.840Z</time>
      </trkpt>
      <trkpt lat="42.99411833" lon="-0.12408833">
        <ele>676.0</ele>
        <time>2019-07-07T09:11:52.825Z</time>
      </trkpt>
      <trkpt lat="42.99411833" lon="-0.12408833">
        <ele>676.0</ele>
        <time>2019-07-07T09:11:53.831Z</time>
      </trkpt>
      <trkpt lat="42.99405833" lon="-0.12412833">
        <ele>676.0</ele>
        <time>2019-07-07T09:11:54.821Z</time>
      </trkpt>
      <trkpt lat="42.99405833" lon="-0.12412833">
        <ele>676.0</ele>
        <time>2019-07-07T09:11:55.828Z</time>
      </trkpt>
      <trkpt lat="42.994" lon="-0.12416167">
        <ele>676.0</ele>
        <time>2019-07-07T09:11:56.804Z</time>
      </trkpt>
      <trkpt lat="42.99397167" lon="-0.12418">
        <ele>676.0</ele>
        <time>2019-07-07T09:11:57.824Z</time>
      </trkpt>
      <trkpt lat="42.99397167" lon="-0.12418">
        <ele>676.0</ele>
        <time>2019-07-07T09:11:58.830Z</time>
      </trkpt>
      <trkpt lat="42.993915" lon="-0.12421667">
        <ele>675.0</ele>
        <time>2019-07-07T09:11:59.804Z</time>
      </trkpt>
      <trkpt lat="42.99388667" lon="-0.12422833">
        <ele>675.0</ele>
        <time>2019-07-07T09:12:00.836Z</time>
      </trkpt>
      <trkpt lat="42.99388667" lon="-0.12422833">
        <ele>675.0</ele>
        <time>2019-07-07T09:12:01.805Z</time>
      </trkpt>
      <trkpt lat="42.99383" lon="-0.12425833">
        <ele>675.0</ele>
        <time>2019-07-07T09:12:02.822Z</time>
      </trkpt>
      <trkpt lat="42.99383" lon="-0.12425833">
        <ele>675.0</ele>
        <time>2019-07-07T09:12:03.829Z</time>
      </trkpt>
      <trkpt lat="42.99377833" lon="-0.12429">
        <ele>675.0</ele>
        <time>2019-07-07T09:12:04.804Z</time>
      </trkpt>
      <trkpt lat="42.99375333" lon="-0.12430833">
        <ele>675.0</ele>
        <time>2019-07-07T09:12:05.813Z</time>
      </trkpt>
      <trkpt lat="42.99373" lon="-0.12433">
        <ele>675.0</ele>
        <time>2019-07-07T09:12:06.840Z</time>
      </trkpt>
      <trkpt lat="42.99373" lon="-0.12433">
        <ele>675.0</ele>
        <time>2019-07-07T09:12:07.818Z</time>
      </trkpt>
      <trkpt lat="42.99368167" lon="-0.12437833">
        <ele>675.0</ele>
        <time>2019-07-07T09:12:08.839Z</time>
      </trkpt>
      <trkpt lat="42.99365833" lon="-0.124405">
        <ele>676.0</ele>
        <time>2019-07-07T09:12:09.814Z</time>
      </trkpt>
      <trkpt lat="42.99365833" lon="-0.124405">
        <ele>676.0</ele>
        <time>2019-07-07T09:12:10.820Z</time>
      </trkpt>
      <trkpt lat="42.993615" lon="-0.124465">
        <ele>676.0</ele>
        <time>2019-07-07T09:12:11.819Z</time>
      </trkpt>
      <trkpt lat="42.99359333" lon="-0.12449333">
        <ele>676.0</ele>
        <time>2019-07-07T09:12:12.834Z</time>
      </trkpt>
      <trkpt lat="42.99359333" lon="-0.12449333">
        <ele>676.0</ele>
        <time>2019-07-07T09:12:13.801Z</time>
      </trkpt>
      <trkpt lat="42.99355167" lon="-0.12455167">
        <ele>676.0</ele>
        <time>2019-07-07T09:12:14.824Z</time>
      </trkpt>
      <trkpt lat="42.99355167" lon="-0.12455167">
        <ele>676.0</ele>
        <time>2019-07-07T09:12:15.830Z</time>
      </trkpt>
      <trkpt lat="42.99351333" lon="-0.12460833">
        <ele>677.0</ele>
        <time>2019-07-07T09:12:16.839Z</time>
      </trkpt>
      <trkpt lat="42.99349333" lon="-0.12463833">
        <ele>677.0</ele>
        <time>2019-07-07T09:12:17.834Z</time>
      </trkpt>
      <trkpt lat="42.99349333" lon="-0.12463833">
        <ele>677.0</ele>
        <time>2019-07-07T09:12:18.840Z</time>
      </trkpt>
      <trkpt lat="42.99345333" lon="-0.12469333">
        <ele>677.0</ele>
        <time>2019-07-07T09:12:19.835Z</time>
      </trkpt>
      <trkpt lat="42.99345333" lon="-0.12469333">
        <ele>677.0</ele>
        <time>2019-07-07T09:12:20.803Z</time>
      </trkpt>
      <trkpt lat="42.99342" lon="-0.124755">
        <ele>678.0</ele>
        <time>2019-07-07T09:12:21.824Z</time>
      </trkpt>
      <trkpt lat="42.99340333" lon="-0.124785">
        <ele>678.0</ele>
        <time>2019-07-07T09:12:22.824Z</time>
      </trkpt>
      <trkpt lat="42.99340333" lon="-0.124785">
        <ele>678.0</ele>
        <time>2019-07-07T09:12:23.832Z</time>
      </trkpt>
      <trkpt lat="42.993365" lon="-0.12483833">
        <ele>678.0</ele>
        <time>2019-07-07T09:12:24.830Z</time>
      </trkpt>
      <trkpt lat="42.993365" lon="-0.12483833">
        <ele>678.0</ele>
        <time>2019-07-07T09:12:25.836Z</time>
      </trkpt>
      <trkpt lat="42.99333167" lon="-0.12490333">
        <ele>678.0</ele>
        <time>2019-07-07T09:12:26.835Z</time>
      </trkpt>
      <trkpt lat="42.99331333" lon="-0.12493333">
        <ele>678.0</ele>
        <time>2019-07-07T09:12:27.804Z</time>
      </trkpt>
      <trkpt lat="42.99329167" lon="-0.12496">
        <ele>678.0</ele>
        <time>2019-07-07T09:12:28.824Z</time>
      </trkpt>
      <trkpt lat="42.99327" lon="-0.12498833">
        <ele>678.0</ele>
        <time>2019-07-07T09:12:29.804Z</time>
      </trkpt>
      <trkpt lat="42.99327" lon="-0.12498833">
        <ele>678.0</ele>
        <time>2019-07-07T09:12:30.811Z</time>
      </trkpt>
      <trkpt lat="42.99322333" lon="-0.12505">
        <ele>679.0</ele>
        <time>2019-07-07T09:12:31.834Z</time>
      </trkpt>
      <trkpt lat="42.99322333" lon="-0.12505">
        <ele>679.0</ele>
        <time>2019-07-07T09:12:32.841Z</time>
      </trkpt>
      <trkpt lat="42.99318" lon="-0.1251">
        <ele>680.0</ele>
        <time>2019-07-07T09:12:33.814Z</time>
      </trkpt>
      <trkpt lat="42.99318" lon="-0.1251">
        <ele>680.0</ele>
        <time>2019-07-07T09:12:34.820Z</time>
      </trkpt>
      <trkpt lat="42.993135" lon="-0.12515167">
        <ele>680.0</ele>
        <time>2019-07-07T09:12:35.824Z</time>
      </trkpt>
      <trkpt lat="42.993115" lon="-0.12517667">
        <ele>680.0</ele>
        <time>2019-07-07T09:12:36.804Z</time>
      </trkpt>
      <trkpt lat="42.993115" lon="-0.12517667">
        <ele>680.0</ele>
        <time>2019-07-07T09:12:37.812Z</time>
      </trkpt>
      <trkpt lat="42.99308" lon="-0.12522833">
        <ele>681.0</ele>
        <time>2019-07-07T09:12:38.834Z</time>
      </trkpt>
      <trkpt lat="42.99306167" lon="-0.12525333">
        <ele>681.0</ele>
        <time>2019-07-07T09:12:39.818Z</time>
      </trkpt>
      <trkpt lat="42.99306167" lon="-0.12525333">
        <ele>681.0</ele>
        <time>2019-07-07T09:12:40.825Z</time>
      </trkpt>
      <trkpt lat="42.99302167" lon="-0.12530333">
        <ele>681.0</ele>
        <time>2019-07-07T09:12:41.819Z</time>
      </trkpt>
      <trkpt lat="42.993" lon="-0.12533">
        <ele>681.0</ele>
        <time>2019-07-07T09:12:42.816Z</time>
      </trkpt>
      <trkpt lat="42.993" lon="-0.12533">
        <ele>681.0</ele>
        <time>2019-07-07T09:12:43.822Z</time>
      </trkpt>
      <trkpt lat="42.99295667" lon="-0.12538833">
        <ele>682.0</ele>
        <time>2019-07-07T09:12:44.824Z</time>
      </trkpt>
      <trkpt lat="42.99293667" lon="-0.12541833">
        <ele>682.0</ele>
        <time>2019-07-07T09:12:45.832Z</time>
      </trkpt>
      <trkpt lat="42.99293667" lon="-0.12541833">
        <ele>682.0</ele>
        <time>2019-07-07T09:12:46.838Z</time>
      </trkpt>
      <trkpt lat="42.99290333" lon="-0.12548333">
        <ele>683.0</ele>
        <time>2019-07-07T09:12:47.816Z</time>
      </trkpt>
      <trkpt lat="42.99290333" lon="-0.12548333">
        <ele>683.0</ele>
        <time>2019-07-07T09:12:48.822Z</time>
      </trkpt>
      <trkpt lat="42.99287167" lon="-0.12555333">
        <ele>683.0</ele>
        <time>2019-07-07T09:12:49.824Z</time>
      </trkpt>
      <trkpt lat="42.99287167" lon="-0.12555333">
        <ele>683.0</ele>
        <time>2019-07-07T09:12:50.831Z</time>
      </trkpt>
      <trkpt lat="42.99284333" lon="-0.12563167">
        <ele>684.0</ele>
        <time>2019-07-07T09:12:51.803Z</time>
      </trkpt>
      <trkpt lat="42.99284333" lon="-0.12563167">
        <ele>684.0</ele>
        <time>2019-07-07T09:12:52.810Z</time>
      </trkpt>
      <trkpt lat="42.99282" lon="-0.125715">
        <ele>684.0</ele>
        <time>2019-07-07T09:12:53.814Z</time>
      </trkpt>
      <trkpt lat="42.99281" lon="-0.12575833">
        <ele>684.0</ele>
        <time>2019-07-07T09:12:54.834Z</time>
      </trkpt>
      <trkpt lat="42.99281" lon="-0.12575833">
        <ele>684.0</ele>
        <time>2019-07-07T09:12:55.840Z</time>
      </trkpt>
      <trkpt lat="42.99278833" lon="-0.12584333">
        <ele>685.0</ele>
        <time>2019-07-07T09:12:56.814Z</time>
      </trkpt>
      <trkpt lat="42.99278" lon="-0.12588833">
        <ele>685.0</ele>
        <time>2019-07-07T09:12:57.824Z</time>
      </trkpt>
      <trkpt lat="42.99278" lon="-0.12588833">
        <ele>685.0</ele>
        <time>2019-07-07T09:12:58.830Z</time>
      </trkpt>
      <trkpt lat="42.99276167" lon="-0.12597167">
        <ele>686.0</ele>
        <time>2019-07-07T09:12:59.804Z</time>
      </trkpt>
      <trkpt lat="42.99276167" lon="-0.12597167">
        <ele>686.0</ele>
        <time>2019-07-07T09:13:00.814Z</time>
      </trkpt>
      <trkpt lat="42.992745" lon="-0.12606833">
        <ele>686.0</ele>
        <time>2019-07-07T09:13:01.814Z</time>
      </trkpt>
      <trkpt lat="42.99273333" lon="-0.126115">
        <ele>686.0</ele>
        <time>2019-07-07T09:13:02.820Z</time>
      </trkpt>
      <trkpt lat="42.99273333" lon="-0.126115">
        <ele>686.0</ele>
        <time>2019-07-07T09:13:03.826Z</time>
      </trkpt>
      <trkpt lat="42.99272" lon="-0.12621333">
        <ele>687.0</ele>
        <time>2019-07-07T09:13:04.819Z</time>
      </trkpt>
      <trkpt lat="42.99272" lon="-0.12621333">
        <ele>687.0</ele>
        <time>2019-07-07T09:13:05.825Z</time>
      </trkpt>
      <trkpt lat="42.99271167" lon="-0.126305">
        <ele>687.0</ele>
        <time>2019-07-07T09:13:06.825Z</time>
      </trkpt>
      <trkpt lat="42.99271167" lon="-0.126305">
        <ele>687.0</ele>
        <time>2019-07-07T09:13:07.831Z</time>
      </trkpt>
      <trkpt lat="42.99269333" lon="-0.1264">
        <ele>687.0</ele>
        <time>2019-07-07T09:13:08.804Z</time>
      </trkpt>
      <trkpt lat="42.99269333" lon="-0.1264">
        <ele>687.0</ele>
        <time>2019-07-07T09:13:09.814Z</time>
      </trkpt>
      <trkpt lat="42.99267333" lon="-0.12649333">
        <ele>688.0</ele>
        <time>2019-07-07T09:13:10.815Z</time>
      </trkpt>
      <trkpt lat="42.99267333" lon="-0.12649333">
        <ele>688.0</ele>
        <time>2019-07-07T09:13:11.821Z</time>
      </trkpt>
      <trkpt lat="42.99265667" lon="-0.12658833">
        <ele>688.0</ele>
        <time>2019-07-07T09:13:12.834Z</time>
      </trkpt>
      <trkpt lat="42.99265667" lon="-0.12658833">
        <ele>688.0</ele>
        <time>2019-07-07T09:13:13.840Z</time>
      </trkpt>
      <trkpt lat="42.992635" lon="-0.12668333">
        <ele>688.0</ele>
        <time>2019-07-07T09:13:14.804Z</time>
      </trkpt>
      <trkpt lat="42.992635" lon="-0.12668333">
        <ele>688.0</ele>
        <time>2019-07-07T09:13:15.811Z</time>
      </trkpt>
      <trkpt lat="42.99260667" lon="-0.12677833">
        <ele>688.0</ele>
        <time>2019-07-07T09:13:16.824Z</time>
      </trkpt>
      <trkpt lat="42.99259167" lon="-0.126825">
        <ele>689.0</ele>
        <time>2019-07-07T09:13:17.814Z</time>
      </trkpt>
      <trkpt lat="42.99259167" lon="-0.126825">
        <ele>689.0</ele>
        <time>2019-07-07T09:13:18.820Z</time>
      </trkpt>
      <trkpt lat="42.99255833" lon="-0.12692333">
        <ele>689.0</ele>
        <time>2019-07-07T09:13:19.819Z</time>
      </trkpt>
      <trkpt lat="42.99255833" lon="-0.12692333">
        <ele>689.0</ele>
        <time>2019-07-07T09:13:20.825Z</time>
      </trkpt>
      <trkpt lat="42.99252667" lon="-0.12701">
        <ele>689.0</ele>
        <time>2019-07-07T09:13:21.828Z</time>
      </trkpt>
      <trkpt lat="42.99252667" lon="-0.12701">
        <ele>689.0</ele>
        <time>2019-07-07T09:13:22.834Z</time>
      </trkpt>
      <trkpt lat="42.99249333" lon="-0.12708667">
        <ele>689.0</ele>
        <time>2019-07-07T09:13:23.804Z</time>
      </trkpt>
      <trkpt lat="42.992475" lon="-0.12712833">
        <ele>690.0</ele>
        <time>2019-07-07T09:13:24.824Z</time>
      </trkpt>
      <trkpt lat="42.992475" lon="-0.12712833">
        <ele>690.0</ele>
        <time>2019-07-07T09:13:25.830Z</time>
      </trkpt>
      <trkpt lat="42.99244" lon="-0.12721">
        <ele>690.0</ele>
        <time>2019-07-07T09:13:26.827Z</time>
      </trkpt>
      <trkpt lat="42.99244" lon="-0.12721">
        <ele>690.0</ele>
        <time>2019-07-07T09:13:27.832Z</time>
      </trkpt>
      <trkpt lat="42.9924" lon="-0.127295">
        <ele>690.0</ele>
        <time>2019-07-07T09:13:28.834Z</time>
      </trkpt>
      <trkpt lat="42.9924" lon="-0.127295">
        <ele>690.0</ele>
        <time>2019-07-07T09:13:29.801Z</time>
      </trkpt>
      <trkpt lat="42.99236" lon="-0.12737167">
        <ele>690.0</ele>
        <time>2019-07-07T09:13:30.834Z</time>
      </trkpt>
      <trkpt lat="42.99236" lon="-0.12737167">
        <ele>690.0</ele>
        <time>2019-07-07T09:13:31.840Z</time>
      </trkpt>
      <trkpt lat="42.99232" lon="-0.12745333">
        <ele>691.0</ele>
        <time>2019-07-07T09:13:32.824Z</time>
      </trkpt>
      <trkpt lat="42.9923" lon="-0.1275">
        <ele>691.0</ele>
        <time>2019-07-07T09:13:33.822Z</time>
      </trkpt>
      <trkpt lat="42.9923" lon="-0.1275">
        <ele>691.0</ele>
        <time>2019-07-07T09:13:34.828Z</time>
      </trkpt>
      <trkpt lat="42.99226167" lon="-0.127585">
        <ele>691.0</ele>
        <time>2019-07-07T09:13:35.820Z</time>
      </trkpt>
      <trkpt lat="42.99224333" lon="-0.12762333">
        <ele>691.0</ele>
        <time>2019-07-07T09:13:36.828Z</time>
      </trkpt>
      <trkpt lat="42.99224333" lon="-0.12762333">
        <ele>691.0</ele>
        <time>2019-07-07T09:13:37.837Z</time>
      </trkpt>
      <trkpt lat="42.9922" lon="-0.12770333">
        <ele>692.0</ele>
        <time>2019-07-07T09:13:38.834Z</time>
      </trkpt>
      <trkpt lat="42.99217833" lon="-0.127745">
        <ele>692.0</ele>
        <time>2019-07-07T09:13:39.835Z</time>
      </trkpt>
      <trkpt lat="42.99217833" lon="-0.127745">
        <ele>692.0</ele>
        <time>2019-07-07T09:13:40.801Z</time>
      </trkpt>
      <trkpt lat="42.992135" lon="-0.12782333">
        <ele>693.0</ele>
        <time>2019-07-07T09:13:41.824Z</time>
      </trkpt>
      <trkpt lat="42.992135" lon="-0.12782333">
        <ele>693.0</ele>
        <time>2019-07-07T09:13:42.830Z</time>
      </trkpt>
      <trkpt lat="42.99209333" lon="-0.12789833">
        <ele>694.0</ele>
        <time>2019-07-07T09:13:43.834Z</time>
      </trkpt>
      <trkpt lat="42.99209333" lon="-0.12789833">
        <ele>694.0</ele>
        <time>2019-07-07T09:13:44.840Z</time>
      </trkpt>
      <trkpt lat="42.99206167" lon="-0.12798">
        <ele>694.0</ele>
        <time>2019-07-07T09:13:45.804Z</time>
      </trkpt>
      <trkpt lat="42.99206167" lon="-0.12798">
        <ele>694.0</ele>
        <time>2019-07-07T09:13:46.810Z</time>
      </trkpt>
      <trkpt lat="42.99203167" lon="-0.12806667">
        <ele>694.0</ele>
        <time>2019-07-07T09:13:47.801Z</time>
      </trkpt>
      <trkpt lat="42.99201667" lon="-0.12810833">
        <ele>695.0</ele>
        <time>2019-07-07T09:13:48.809Z</time>
      </trkpt>
      <trkpt lat="42.99200167" lon="-0.12815167">
        <ele>695.0</ele>
        <time>2019-07-07T09:13:49.819Z</time>
      </trkpt>
      <trkpt lat="42.99200167" lon="-0.12815167">
        <ele>695.0</ele>
        <time>2019-07-07T09:13:50.825Z</time>
      </trkpt>
      <trkpt lat="42.991975" lon="-0.12824333">
        <ele>695.0</ele>
        <time>2019-07-07T09:13:51.801Z</time>
      </trkpt>
      <trkpt lat="42.991975" lon="-0.12824333">
        <ele>695.0</ele>
        <time>2019-07-07T09:13:52.807Z</time>
      </trkpt>
      <trkpt lat="42.99195" lon="-0.12833167">
        <ele>695.0</ele>
        <time>2019-07-07T09:13:53.830Z</time>
      </trkpt>
      <trkpt lat="42.99195" lon="-0.12833167">
        <ele>695.0</ele>
        <time>2019-07-07T09:13:54.836Z</time>
      </trkpt>
      <trkpt lat="42.99193167" lon="-0.12842333">
        <ele>696.0</ele>
        <time>2019-07-07T09:13:55.834Z</time>
      </trkpt>
      <trkpt lat="42.991925" lon="-0.12846833">
        <ele>696.0</ele>
        <time>2019-07-07T09:13:56.824Z</time>
      </trkpt>
      <trkpt lat="42.991925" lon="-0.12846833">
        <ele>696.0</ele>
        <time>2019-07-07T09:13:57.830Z</time>
      </trkpt>
      <trkpt lat="42.99191" lon="-0.12856">
        <ele>696.0</ele>
        <time>2019-07-07T09:13:58.829Z</time>
      </trkpt>
      <trkpt lat="42.99191" lon="-0.12856">
        <ele>696.0</ele>
        <time>2019-07-07T09:13:59.835Z</time>
      </trkpt>
      <trkpt lat="42.99189" lon="-0.12864667">
        <ele>696.0</ele>
        <time>2019-07-07T09:14:00.815Z</time>
      </trkpt>
      <trkpt lat="42.99189" lon="-0.12864667">
        <ele>696.0</ele>
        <time>2019-07-07T09:14:01.822Z</time>
      </trkpt>
      <trkpt lat="42.99187333" lon="-0.12874">
        <ele>697.0</ele>
        <time>2019-07-07T09:14:02.822Z</time>
      </trkpt>
      <trkpt lat="42.99186667" lon="-0.12879333">
        <ele>697.0</ele>
        <time>2019-07-07T09:14:03.814Z</time>
      </trkpt>
      <trkpt lat="42.99186667" lon="-0.12879333">
        <ele>697.0</ele>
        <time>2019-07-07T09:14:04.820Z</time>
      </trkpt>
      <trkpt lat="42.99185167" lon="-0.12888333">
        <ele>697.0</ele>
        <time>2019-07-07T09:14:05.827Z</time>
      </trkpt>
      <trkpt lat="42.99184333" lon="-0.12892333">
        <ele>698.0</ele>
        <time>2019-07-07T09:14:06.838Z</time>
      </trkpt>
      <trkpt lat="42.99184333" lon="-0.12892333">
        <ele>698.0</ele>
        <time>2019-07-07T09:14:07.817Z</time>
      </trkpt>
      <trkpt lat="42.99182167" lon="-0.12900833">
        <ele>698.0</ele>
        <time>2019-07-07T09:14:08.804Z</time>
      </trkpt>
      <trkpt lat="42.99181333" lon="-0.12905167">
        <ele>698.0</ele>
        <time>2019-07-07T09:14:09.831Z</time>
      </trkpt>
      <trkpt lat="42.99181333" lon="-0.12905167">
        <ele>698.0</ele>
        <time>2019-07-07T09:14:10.818Z</time>
      </trkpt>
      <trkpt lat="42.99179667" lon="-0.12913833">
        <ele>699.0</ele>
        <time>2019-07-07T09:14:11.814Z</time>
      </trkpt>
      <trkpt lat="42.99178667" lon="-0.12918333">
        <ele>699.0</ele>
        <time>2019-07-07T09:14:12.804Z</time>
      </trkpt>
      <trkpt lat="42.99178667" lon="-0.12918333">
        <ele>699.0</ele>
        <time>2019-07-07T09:14:13.812Z</time>
      </trkpt>
      <trkpt lat="42.99177" lon="-0.12927333">
        <ele>699.0</ele>
        <time>2019-07-07T09:14:14.823Z</time>
      </trkpt>
      <trkpt lat="42.99177" lon="-0.12927333">
        <ele>699.0</ele>
        <time>2019-07-07T09:14:15.830Z</time>
      </trkpt>
      <trkpt lat="42.99175667" lon="-0.129365">
        <ele>700.0</ele>
        <time>2019-07-07T09:14:16.814Z</time>
      </trkpt>
      <trkpt lat="42.99175667" lon="-0.129365">
        <ele>700.0</ele>
        <time>2019-07-07T09:14:17.822Z</time>
      </trkpt>
      <trkpt lat="42.99173333" lon="-0.12945167">
        <ele>700.0</ele>
        <time>2019-07-07T09:14:18.834Z</time>
      </trkpt>
      <trkpt lat="42.99173333" lon="-0.12945167">
        <ele>700.0</ele>
        <time>2019-07-07T09:14:19.841Z</time>
      </trkpt>
      <trkpt lat="42.99170333" lon="-0.12954">
        <ele>700.0</ele>
        <time>2019-07-07T09:14:20.834Z</time>
      </trkpt>
      <trkpt lat="42.99170333" lon="-0.12954">
        <ele>700.0</ele>
        <time>2019-07-07T09:14:21.840Z</time>
      </trkpt>
      <trkpt lat="42.99165667" lon="-0.12961833">
        <ele>701.0</ele>
        <time>2019-07-07T09:14:22.834Z</time>
      </trkpt>
      <trkpt lat="42.99163167" lon="-0.12965667">
        <ele>702.0</ele>
        <time>2019-07-07T09:14:23.832Z</time>
      </trkpt>
      <trkpt lat="42.991605" lon="-0.12969333">
        <ele>702.0</ele>
        <time>2019-07-07T09:14:24.805Z</time>
      </trkpt>
      <trkpt lat="42.991605" lon="-0.12969333">
        <ele>702.0</ele>
        <time>2019-07-07T09:14:25.812Z</time>
      </trkpt>
      <trkpt lat="42.99155333" lon="-0.12976833">
        <ele>702.0</ele>
        <time>2019-07-07T09:14:26.824Z</time>
      </trkpt>
      <trkpt lat="42.99155333" lon="-0.12976833">
        <ele>702.0</ele>
        <time>2019-07-07T09:14:27.830Z</time>
      </trkpt>
      <trkpt lat="42.99149667" lon="-0.12984">
        <ele>703.0</ele>
        <time>2019-07-07T09:14:28.804Z</time>
      </trkpt>
      <trkpt lat="42.99149667" lon="-0.12984">
        <ele>703.0</ele>
        <time>2019-07-07T09:14:29.816Z</time>
      </trkpt>
      <trkpt lat="42.99144333" lon="-0.12991667">
        <ele>703.0</ele>
        <time>2019-07-07T09:14:30.824Z</time>
      </trkpt>
      <trkpt lat="42.99144333" lon="-0.12991667">
        <ele>703.0</ele>
        <time>2019-07-07T09:14:31.830Z</time>
      </trkpt>
      <trkpt lat="42.99139333" lon="-0.12999">
        <ele>704.0</ele>
        <time>2019-07-07T09:14:32.829Z</time>
      </trkpt>
      <trkpt lat="42.99139333" lon="-0.12999">
        <ele>704.0</ele>
        <time>2019-07-07T09:14:33.835Z</time>
      </trkpt>
      <trkpt lat="42.99134833" lon="-0.13006167">
        <ele>704.0</ele>
        <time>2019-07-07T09:14:34.834Z</time>
      </trkpt>
      <trkpt lat="42.99134833" lon="-0.13006167">
        <ele>704.0</ele>
        <time>2019-07-07T09:14:35.840Z</time>
      </trkpt>
      <trkpt lat="42.9913" lon="-0.13013167">
        <ele>704.0</ele>
        <time>2019-07-07T09:14:36.832Z</time>
      </trkpt>
      <trkpt lat="42.9913" lon="-0.13013167">
        <ele>704.0</ele>
        <time>2019-07-07T09:14:37.838Z</time>
      </trkpt>
      <trkpt lat="42.99125333" lon="-0.13021333">
        <ele>705.0</ele>
        <time>2019-07-07T09:14:38.824Z</time>
      </trkpt>
      <trkpt lat="42.99125333" lon="-0.13021333">
        <ele>705.0</ele>
        <time>2019-07-07T09:14:39.830Z</time>
      </trkpt>
      <trkpt lat="42.991205" lon="-0.13029">
        <ele>705.0</ele>
        <time>2019-07-07T09:14:40.804Z</time>
      </trkpt>
      <trkpt lat="42.99118" lon="-0.13032667">
        <ele>706.0</ele>
        <time>2019-07-07T09:14:41.814Z</time>
      </trkpt>
      <trkpt lat="42.99118" lon="-0.13032667">
        <ele>706.0</ele>
        <time>2019-07-07T09:14:42.820Z</time>
      </trkpt>
      <trkpt lat="42.99112667" lon="-0.130395">
        <ele>706.0</ele>
        <time>2019-07-07T09:14:43.814Z</time>
      </trkpt>
      <trkpt lat="42.99110167" lon="-0.13043">
        <ele>707.0</ele>
        <time>2019-07-07T09:14:44.824Z</time>
      </trkpt>
      <trkpt lat="42.99110167" lon="-0.13043">
        <ele>707.0</ele>
        <time>2019-07-07T09:14:45.830Z</time>
      </trkpt>
      <trkpt lat="42.99105167" lon="-0.130505">
        <ele>707.0</ele>
        <time>2019-07-07T09:14:46.834Z</time>
      </trkpt>
      <trkpt lat="42.99102667" lon="-0.13054167">
        <ele>707.0</ele>
        <time>2019-07-07T09:14:47.837Z</time>
      </trkpt>
      <trkpt lat="42.99102667" lon="-0.13054167">
        <ele>707.0</ele>
        <time>2019-07-07T09:14:48.807Z</time>
      </trkpt>
      <trkpt lat="42.99097833" lon="-0.13061333">
        <ele>708.0</ele>
        <time>2019-07-07T09:14:49.823Z</time>
      </trkpt>
      <trkpt lat="42.99097833" lon="-0.13061333">
        <ele>708.0</ele>
        <time>2019-07-07T09:14:50.829Z</time>
      </trkpt>
      <trkpt lat="42.99093" lon="-0.13068">
        <ele>708.0</ele>
        <time>2019-07-07T09:14:51.834Z</time>
      </trkpt>
      <trkpt lat="42.99093" lon="-0.13068">
        <ele>708.0</ele>
        <time>2019-07-07T09:14:52.840Z</time>
      </trkpt>
      <trkpt lat="42.99088167" lon="-0.13074833">
        <ele>709.0</ele>
        <time>2019-07-07T09:14:53.824Z</time>
      </trkpt>
      <trkpt lat="42.99085833" lon="-0.13078">
        <ele>709.0</ele>
        <time>2019-07-07T09:14:54.834Z</time>
      </trkpt>
      <trkpt lat="42.99085833" lon="-0.13078">
        <ele>709.0</ele>
        <time>2019-07-07T09:14:55.840Z</time>
      </trkpt>
      <trkpt lat="42.990805" lon="-0.13083833">
        <ele>709.0</ele>
        <time>2019-07-07T09:14:56.814Z</time>
      </trkpt>
      <trkpt lat="42.990805" lon="-0.13083833">
        <ele>709.0</ele>
        <time>2019-07-07T09:14:57.820Z</time>
      </trkpt>
      <trkpt lat="42.99075167" lon="-0.13089833">
        <ele>710.0</ele>
        <time>2019-07-07T09:14:58.834Z</time>
      </trkpt>
      <trkpt lat="42.990725" lon="-0.130925">
        <ele>710.0</ele>
        <time>2019-07-07T09:14:59.814Z</time>
      </trkpt>
      <trkpt lat="42.99069667" lon="-0.13095167">
        <ele>710.0</ele>
        <time>2019-07-07T09:15:00.814Z</time>
      </trkpt>
      <trkpt lat="42.99069667" lon="-0.13095167">
        <ele>710.0</ele>
        <time>2019-07-07T09:15:01.820Z</time>
      </trkpt>
      <trkpt lat="42.99064167" lon="-0.13100167">
        <ele>710.0</ele>
        <time>2019-07-07T09:15:02.817Z</time>
      </trkpt>
      <trkpt lat="42.99061667" lon="-0.131025">
        <ele>711.0</ele>
        <time>2019-07-07T09:15:03.824Z</time>
      </trkpt>
      <trkpt lat="42.99061667" lon="-0.131025">
        <ele>711.0</ele>
        <time>2019-07-07T09:15:04.830Z</time>
      </trkpt>
      <trkpt lat="42.990565" lon="-0.13106833">
        <ele>711.0</ele>
        <time>2019-07-07T09:15:05.838Z</time>
      </trkpt>
      <trkpt lat="42.99054333" lon="-0.131105">
        <ele>711.0</ele>
        <time>2019-07-07T09:15:06.804Z</time>
      </trkpt>
      <trkpt lat="42.99054333" lon="-0.131105">
        <ele>711.0</ele>
        <time>2019-07-07T09:15:07.810Z</time>
      </trkpt>
      <trkpt lat="42.9905" lon="-0.13114833">
        <ele>711.0</ele>
        <time>2019-07-07T09:15:08.816Z</time>
      </trkpt>
      <trkpt lat="42.99047667" lon="-0.13117167">
        <ele>711.0</ele>
        <time>2019-07-07T09:15:09.804Z</time>
      </trkpt>
      <trkpt lat="42.99047667" lon="-0.13117167">
        <ele>711.0</ele>
        <time>2019-07-07T09:15:10.811Z</time>
      </trkpt>
      <trkpt lat="42.99042333" lon="-0.13122667">
        <ele>712.0</ele>
        <time>2019-07-07T09:15:11.824Z</time>
      </trkpt>
      <trkpt lat="42.99042333" lon="-0.13122667">
        <ele>712.0</ele>
        <time>2019-07-07T09:15:12.830Z</time>
      </trkpt>
      <trkpt lat="42.99037" lon="-0.13127833">
        <ele>712.0</ele>
        <time>2019-07-07T09:15:13.804Z</time>
      </trkpt>
      <trkpt lat="42.99037" lon="-0.13127833">
        <ele>712.0</ele>
        <time>2019-07-07T09:15:14.828Z</time>
      </trkpt>
      <trkpt lat="42.99032" lon="-0.13133167">
        <ele>712.0</ele>
        <time>2019-07-07T09:15:15.802Z</time>
      </trkpt>
      <trkpt lat="42.99029667" lon="-0.13136167">
        <ele>712.0</ele>
        <time>2019-07-07T09:15:16.809Z</time>
      </trkpt>
      <trkpt lat="42.99029667" lon="-0.13136167">
        <ele>712.0</ele>
        <time>2019-07-07T09:15:17.817Z</time>
      </trkpt>
      <trkpt lat="42.99025" lon="-0.13142667">
        <ele>713.0</ele>
        <time>2019-07-07T09:15:18.832Z</time>
      </trkpt>
      <trkpt lat="42.99025" lon="-0.13142667">
        <ele>713.0</ele>
        <time>2019-07-07T09:15:19.839Z</time>
      </trkpt>
      <trkpt lat="42.99019833" lon="-0.13149">
        <ele>713.0</ele>
        <time>2019-07-07T09:15:20.824Z</time>
      </trkpt>
      <trkpt lat="42.99019833" lon="-0.13149">
        <ele>713.0</ele>
        <time>2019-07-07T09:15:21.830Z</time>
      </trkpt>
      <trkpt lat="42.99014833" lon="-0.131555">
        <ele>714.0</ele>
        <time>2019-07-07T09:15:22.810Z</time>
      </trkpt>
      <trkpt lat="42.99012833" lon="-0.13159167">
        <ele>714.0</ele>
        <time>2019-07-07T09:15:23.834Z</time>
      </trkpt>
      <trkpt lat="42.99010833" lon="-0.13163167">
        <ele>714.0</ele>
        <time>2019-07-07T09:15:24.804Z</time>
      </trkpt>
      <trkpt lat="42.99009167" lon="-0.13167333">
        <ele>715.0</ele>
        <time>2019-07-07T09:15:25.818Z</time>
      </trkpt>
      <trkpt lat="42.99009167" lon="-0.13167333">
        <ele>715.0</ele>
        <time>2019-07-07T09:15:26.825Z</time>
      </trkpt>
      <trkpt lat="42.990065" lon="-0.13176667">
        <ele>715.0</ele>
        <time>2019-07-07T09:15:27.804Z</time>
      </trkpt>
      <trkpt lat="42.990055" lon="-0.131815">
        <ele>715.0</ele>
        <time>2019-07-07T09:15:28.824Z</time>
      </trkpt>
      <trkpt lat="42.99004833" lon="-0.131865">
        <ele>715.0</ele>
        <time>2019-07-07T09:15:29.827Z</time>
      </trkpt>
      <trkpt lat="42.99004833" lon="-0.131865">
        <ele>715.0</ele>
        <time>2019-07-07T09:15:30.833Z</time>
      </trkpt>
      <trkpt lat="42.99003" lon="-0.131965">
        <ele>715.0</ele>
        <time>2019-07-07T09:15:31.814Z</time>
      </trkpt>
      <trkpt lat="42.99002167" lon="-0.13201833">
        <ele>715.0</ele>
        <time>2019-07-07T09:15:32.803Z</time>
      </trkpt>
      <trkpt lat="42.99002167" lon="-0.13201833">
        <ele>715.0</ele>
        <time>2019-07-07T09:15:33.815Z</time>
      </trkpt>
      <trkpt lat="42.990005" lon="-0.13212333">
        <ele>716.0</ele>
        <time>2019-07-07T09:15:34.824Z</time>
      </trkpt>
      <trkpt lat="42.989995" lon="-0.13217667">
        <ele>716.0</ele>
        <time>2019-07-07T09:15:35.834Z</time>
      </trkpt>
      <trkpt lat="42.989995" lon="-0.13217667">
        <ele>716.0</ele>
        <time>2019-07-07T09:15:36.840Z</time>
      </trkpt>
      <trkpt lat="42.98996333" lon="-0.13228333">
        <ele>716.0</ele>
        <time>2019-07-07T09:15:37.824Z</time>
      </trkpt>
      <trkpt lat="42.98996333" lon="-0.13228333">
        <ele>716.0</ele>
        <time>2019-07-07T09:15:38.830Z</time>
      </trkpt>
      <trkpt lat="42.98992667" lon="-0.132375">
        <ele>716.0</ele>
        <time>2019-07-07T09:15:39.841Z</time>
      </trkpt>
      <trkpt lat="42.98990333" lon="-0.13242167">
        <ele>716.0</ele>
        <time>2019-07-07T09:15:40.825Z</time>
      </trkpt>
      <trkpt lat="42.98990333" lon="-0.13242167">
        <ele>716.0</ele>
        <time>2019-07-07T09:15:41.832Z</time>
      </trkpt>
      <trkpt lat="42.989855" lon="-0.13250333">
        <ele>716.0</ele>
        <time>2019-07-07T09:15:42.804Z</time>
      </trkpt>
      <trkpt lat="42.989855" lon="-0.13250333">
        <ele>716.0</ele>
        <time>2019-07-07T09:15:43.811Z</time>
      </trkpt>
      <trkpt lat="42.9898" lon="-0.13258667">
        <ele>717.0</ele>
        <time>2019-07-07T09:15:44.820Z</time>
      </trkpt>
      <trkpt lat="42.98976667" lon="-0.13262833">
        <ele>717.0</ele>
        <time>2019-07-07T09:15:45.830Z</time>
      </trkpt>
      <trkpt lat="42.98976667" lon="-0.13262833">
        <ele>717.0</ele>
        <time>2019-07-07T09:15:46.836Z</time>
      </trkpt>
      <trkpt lat="42.98969667" lon="-0.13271167">
        <ele>717.0</ele>
        <time>2019-07-07T09:15:47.815Z</time>
      </trkpt>
      <trkpt lat="42.98969667" lon="-0.13271167">
        <ele>717.0</ele>
        <time>2019-07-07T09:15:48.824Z</time>
      </trkpt>
      <trkpt lat="42.98962167" lon="-0.13279333">
        <ele>717.0</ele>
        <time>2019-07-07T09:15:49.824Z</time>
      </trkpt>
      <trkpt lat="42.98962167" lon="-0.13279333">
        <ele>717.0</ele>
        <time>2019-07-07T09:15:50.830Z</time>
      </trkpt>
      <trkpt lat="42.989545" lon="-0.13287833">
        <ele>717.0</ele>
        <time>2019-07-07T09:15:51.804Z</time>
      </trkpt>
      <trkpt lat="42.989545" lon="-0.13287833">
        <ele>717.0</ele>
        <time>2019-07-07T09:15:52.815Z</time>
      </trkpt>
      <trkpt lat="42.98947167" lon="-0.13296667">
        <ele>717.0</ele>
        <time>2019-07-07T09:15:53.812Z</time>
      </trkpt>
      <trkpt lat="42.98943333" lon="-0.13301167">
        <ele>717.0</ele>
        <time>2019-07-07T09:15:54.838Z</time>
      </trkpt>
      <trkpt lat="42.98943333" lon="-0.13301167">
        <ele>717.0</ele>
        <time>2019-07-07T09:15:55.804Z</time>
      </trkpt>
      <trkpt lat="42.989355" lon="-0.133105">
        <ele>717.0</ele>
        <time>2019-07-07T09:15:56.838Z</time>
      </trkpt>
      <trkpt lat="42.989355" lon="-0.133105">
        <ele>717.0</ele>
        <time>2019-07-07T09:15:57.812Z</time>
      </trkpt>
      <trkpt lat="42.98927833" lon="-0.13320833">
        <ele>717.0</ele>
        <time>2019-07-07T09:15:58.824Z</time>
      </trkpt>
      <trkpt lat="42.98927833" lon="-0.13320833">
        <ele>717.0</ele>
        <time>2019-07-07T09:15:59.833Z</time>
      </trkpt>
      <trkpt lat="42.98920667" lon="-0.133325">
        <ele>718.0</ele>
        <time>2019-07-07T09:16:00.811Z</time>
      </trkpt>
      <trkpt lat="42.98917333" lon="-0.13338667">
        <ele>718.0</ele>
        <time>2019-07-07T09:16:01.810Z</time>
      </trkpt>
      <trkpt lat="42.98917333" lon="-0.13338667">
        <ele>718.0</ele>
        <time>2019-07-07T09:16:02.816Z</time>
      </trkpt>
      <trkpt lat="42.989115" lon="-0.13352167">
        <ele>718.0</ele>
        <time>2019-07-07T09:16:03.823Z</time>
      </trkpt>
      <trkpt lat="42.989115" lon="-0.13352167">
        <ele>718.0</ele>
        <time>2019-07-07T09:16:04.830Z</time>
      </trkpt>
      <trkpt lat="42.989065" lon="-0.13366">
        <ele>719.0</ele>
        <time>2019-07-07T09:16:05.804Z</time>
      </trkpt>
      <trkpt lat="42.98904167" lon="-0.13373">
        <ele>719.0</ele>
        <time>2019-07-07T09:16:06.817Z</time>
      </trkpt>
      <trkpt lat="42.98904167" lon="-0.13373">
        <ele>719.0</ele>
        <time>2019-07-07T09:16:07.822Z</time>
      </trkpt>
      <trkpt lat="42.98899333" lon="-0.13387167">
        <ele>719.0</ele>
        <time>2019-07-07T09:16:08.834Z</time>
      </trkpt>
      <trkpt lat="42.98896833" lon="-0.13394167">
        <ele>719.0</ele>
        <time>2019-07-07T09:16:09.802Z</time>
      </trkpt>
      <trkpt lat="42.98896833" lon="-0.13394167">
        <ele>719.0</ele>
        <time>2019-07-07T09:16:10.809Z</time>
      </trkpt>
      <trkpt lat="42.98891667" lon="-0.13408167">
        <ele>720.0</ele>
        <time>2019-07-07T09:16:11.814Z</time>
      </trkpt>
      <trkpt lat="42.98891667" lon="-0.13408167">
        <ele>720.0</ele>
        <time>2019-07-07T09:16:12.819Z</time>
      </trkpt>
      <trkpt lat="42.98886667" lon="-0.13422167">
        <ele>721.0</ele>
        <time>2019-07-07T09:16:13.823Z</time>
      </trkpt>
      <trkpt lat="42.98886667" lon="-0.13422167">
        <ele>721.0</ele>
        <time>2019-07-07T09:16:14.829Z</time>
      </trkpt>
      <trkpt lat="42.988815" lon="-0.13435167">
        <ele>721.0</ele>
        <time>2019-07-07T09:16:15.808Z</time>
      </trkpt>
      <trkpt lat="42.98878667" lon="-0.134415">
        <ele>721.0</ele>
        <time>2019-07-07T09:16:16.819Z</time>
      </trkpt>
      <trkpt lat="42.98878667" lon="-0.134415">
        <ele>721.0</ele>
        <time>2019-07-07T09:16:17.826Z</time>
      </trkpt>
      <trkpt lat="42.98872833" lon="-0.13453667">
        <ele>722.0</ele>
        <time>2019-07-07T09:16:18.834Z</time>
      </trkpt>
      <trkpt lat="42.98872833" lon="-0.13453667">
        <ele>722.0</ele>
        <time>2019-07-07T09:16:19.801Z</time>
      </trkpt>
      <trkpt lat="42.98866333" lon="-0.13465333">
        <ele>723.0</ele>
        <time>2019-07-07T09:16:20.804Z</time>
      </trkpt>
      <trkpt lat="42.98863" lon="-0.13471167">
        <ele>723.0</ele>
        <time>2019-07-07T09:16:21.814Z</time>
      </trkpt>
      <trkpt lat="42.98863" lon="-0.13471167">
        <ele>723.0</ele>
        <time>2019-07-07T09:16:22.821Z</time>
      </trkpt>
      <trkpt lat="42.98856333" lon="-0.13481833">
        <ele>723.0</ele>
        <time>2019-07-07T09:16:23.819Z</time>
      </trkpt>
      <trkpt lat="42.98853167" lon="-0.13487333">
        <ele>723.0</ele>
        <time>2019-07-07T09:16:24.824Z</time>
      </trkpt>
      <trkpt lat="42.98853167" lon="-0.13487333">
        <ele>723.0</ele>
        <time>2019-07-07T09:16:25.830Z</time>
      </trkpt>
      <trkpt lat="42.98847" lon="-0.13499167">
        <ele>724.0</ele>
        <time>2019-07-07T09:16:26.824Z</time>
      </trkpt>
      <trkpt lat="42.98847" lon="-0.13499167">
        <ele>724.0</ele>
        <time>2019-07-07T09:16:27.830Z</time>
      </trkpt>
      <trkpt lat="42.98841167" lon="-0.13512167">
        <ele>724.0</ele>
        <time>2019-07-07T09:16:28.834Z</time>
      </trkpt>
      <trkpt lat="42.98841167" lon="-0.13512167">
        <ele>724.0</ele>
        <time>2019-07-07T09:16:29.840Z</time>
      </trkpt>
      <trkpt lat="42.98836" lon="-0.13526">
        <ele>724.0</ele>
        <time>2019-07-07T09:16:30.834Z</time>
      </trkpt>
      <trkpt lat="42.98836" lon="-0.13526">
        <ele>724.0</ele>
        <time>2019-07-07T09:16:31.840Z</time>
      </trkpt>
      <trkpt lat="42.98831167" lon="-0.13540167">
        <ele>724.0</ele>
        <time>2019-07-07T09:16:32.821Z</time>
      </trkpt>
      <trkpt lat="42.98831167" lon="-0.13540167">
        <ele>724.0</ele>
        <time>2019-07-07T09:16:33.827Z</time>
      </trkpt>
      <trkpt lat="42.98826667" lon="-0.13555">
        <ele>724.0</ele>
        <time>2019-07-07T09:16:34.814Z</time>
      </trkpt>
      <trkpt lat="42.98826667" lon="-0.13555">
        <ele>724.0</ele>
        <time>2019-07-07T09:16:35.823Z</time>
      </trkpt>
      <trkpt lat="42.98822667" lon="-0.1357">
        <ele>724.0</ele>
        <time>2019-07-07T09:16:36.804Z</time>
      </trkpt>
      <trkpt lat="42.98822667" lon="-0.1357">
        <ele>724.0</ele>
        <time>2019-07-07T09:16:37.810Z</time>
      </trkpt>
      <trkpt lat="42.98818833" lon="-0.135855">
        <ele>725.0</ele>
        <time>2019-07-07T09:16:38.824Z</time>
      </trkpt>
      <trkpt lat="42.98818833" lon="-0.135855">
        <ele>725.0</ele>
        <time>2019-07-07T09:16:39.830Z</time>
      </trkpt>
      <trkpt lat="42.98815333" lon="-0.136005">
        <ele>725.0</ele>
        <time>2019-07-07T09:16:40.804Z</time>
      </trkpt>
      <trkpt lat="42.98813667" lon="-0.13608">
        <ele>725.0</ele>
        <time>2019-07-07T09:16:41.815Z</time>
      </trkpt>
      <trkpt lat="42.98813667" lon="-0.13608">
        <ele>725.0</ele>
        <time>2019-07-07T09:16:42.821Z</time>
      </trkpt>
      <trkpt lat="42.98809833" lon="-0.13622333">
        <ele>725.0</ele>
        <time>2019-07-07T09:16:43.839Z</time>
      </trkpt>
      <trkpt lat="42.98809833" lon="-0.13622333">
        <ele>725.0</ele>
        <time>2019-07-07T09:16:44.806Z</time>
      </trkpt>
      <trkpt lat="42.98805667" lon="-0.13636167">
        <ele>725.0</ele>
        <time>2019-07-07T09:16:45.814Z</time>
      </trkpt>
      <trkpt lat="42.98805667" lon="-0.13636167">
        <ele>725.0</ele>
        <time>2019-07-07T09:16:46.808Z</time>
      </trkpt>
      <trkpt lat="42.98801667" lon="-0.1365">
        <ele>726.0</ele>
        <time>2019-07-07T09:16:47.804Z</time>
      </trkpt>
      <trkpt lat="42.987995" lon="-0.13656667">
        <ele>726.0</ele>
        <time>2019-07-07T09:16:48.804Z</time>
      </trkpt>
      <trkpt lat="42.987995" lon="-0.13656667">
        <ele>726.0</ele>
        <time>2019-07-07T09:16:49.815Z</time>
      </trkpt>
      <trkpt lat="42.98794833" lon="-0.13669333">
        <ele>726.0</ele>
        <time>2019-07-07T09:16:50.821Z</time>
      </trkpt>
      <trkpt lat="42.98794833" lon="-0.13669333">
        <ele>726.0</ele>
        <time>2019-07-07T09:16:51.827Z</time>
      </trkpt>
      <trkpt lat="42.98789667" lon="-0.13681667">
        <ele>726.0</ele>
        <time>2019-07-07T09:16:52.830Z</time>
      </trkpt>
      <trkpt lat="42.98789667" lon="-0.13681667">
        <ele>726.0</ele>
        <time>2019-07-07T09:16:53.836Z</time>
      </trkpt>
      <trkpt lat="42.98784667" lon="-0.136945">
        <ele>726.0</ele>
        <time>2019-07-07T09:16:54.813Z</time>
      </trkpt>
      <trkpt lat="42.98784667" lon="-0.136945">
        <ele>726.0</ele>
        <time>2019-07-07T09:16:55.820Z</time>
      </trkpt>
      <trkpt lat="42.987795" lon="-0.137075">
        <ele>726.0</ele>
        <time>2019-07-07T09:16:56.804Z</time>
      </trkpt>
      <trkpt lat="42.98776833" lon="-0.13714">
        <ele>726.0</ele>
        <time>2019-07-07T09:16:57.814Z</time>
      </trkpt>
      <trkpt lat="42.98776833" lon="-0.13714">
        <ele>726.0</ele>
        <time>2019-07-07T09:16:58.820Z</time>
      </trkpt>
      <trkpt lat="42.98771667" lon="-0.137275">
        <ele>726.0</ele>
        <time>2019-07-07T09:16:59.823Z</time>
      </trkpt>
      <trkpt lat="42.98771667" lon="-0.137275">
        <ele>726.0</ele>
        <time>2019-07-07T09:17:00.829Z</time>
      </trkpt>
      <trkpt lat="42.98766833" lon="-0.13740667">
        <ele>726.0</ele>
        <time>2019-07-07T09:17:01.817Z</time>
      </trkpt>
      <trkpt lat="42.98766833" lon="-0.13740667">
        <ele>726.0</ele>
        <time>2019-07-07T09:17:02.823Z</time>
      </trkpt>
      <trkpt lat="42.98761833" lon="-0.13753833">
        <ele>727.0</ele>
        <time>2019-07-07T09:17:03.840Z</time>
      </trkpt>
      <trkpt lat="42.98761833" lon="-0.13753833">
        <ele>727.0</ele>
        <time>2019-07-07T09:17:04.819Z</time>
      </trkpt>
      <trkpt lat="42.98756667" lon="-0.13767167">
        <ele>727.0</ele>
        <time>2019-07-07T09:17:05.830Z</time>
      </trkpt>
      <trkpt lat="42.98753833" lon="-0.13774">
        <ele>727.0</ele>
        <time>2019-07-07T09:17:06.830Z</time>
      </trkpt>
      <trkpt lat="42.98753833" lon="-0.13774">
        <ele>727.0</ele>
        <time>2019-07-07T09:17:07.836Z</time>
      </trkpt>
      <trkpt lat="42.987485" lon="-0.13787667">
        <ele>727.0</ele>
        <time>2019-07-07T09:17:08.841Z</time>
      </trkpt>
      <trkpt lat="42.98745667" lon="-0.13794667">
        <ele>727.0</ele>
        <time>2019-07-07T09:17:09.839Z</time>
      </trkpt>
      <trkpt lat="42.98745667" lon="-0.13794667">
        <ele>727.0</ele>
        <time>2019-07-07T09:17:10.804Z</time>
      </trkpt>
      <trkpt lat="42.98739833" lon="-0.13808833">
        <ele>727.0</ele>
        <time>2019-07-07T09:17:11.818Z</time>
      </trkpt>
      <trkpt lat="42.98739833" lon="-0.13808833">
        <ele>727.0</ele>
        <time>2019-07-07T09:17:12.823Z</time>
      </trkpt>
      <trkpt lat="42.98733667" lon="-0.13823">
        <ele>727.0</ele>
        <time>2019-07-07T09:17:13.811Z</time>
      </trkpt>
      <trkpt lat="42.98731" lon="-0.1383">
        <ele>728.0</ele>
        <time>2019-07-07T09:17:14.836Z</time>
      </trkpt>
      <trkpt lat="42.98731" lon="-0.1383">
        <ele>728.0</ele>
        <time>2019-07-07T09:17:15.801Z</time>
      </trkpt>
      <trkpt lat="42.98724167" lon="-0.13845">
        <ele>726.0</ele>
        <time>2019-07-07T09:17:16.824Z</time>
      </trkpt>
      <trkpt lat="42.98720833" lon="-0.13852333">
        <ele>726.0</ele>
        <time>2019-07-07T09:17:17.804Z</time>
      </trkpt>
      <trkpt lat="42.987175" lon="-0.13859667">
        <ele>726.0</ele>
        <time>2019-07-07T09:17:18.824Z</time>
      </trkpt>
      <trkpt lat="42.987175" lon="-0.13859667">
        <ele>726.0</ele>
        <time>2019-07-07T09:17:19.832Z</time>
      </trkpt>
      <trkpt lat="42.98711167" lon="-0.13874333">
        <ele>726.0</ele>
        <time>2019-07-07T09:17:20.804Z</time>
      </trkpt>
      <trkpt lat="42.98711167" lon="-0.13874333">
        <ele>726.0</ele>
        <time>2019-07-07T09:17:21.811Z</time>
      </trkpt>
      <trkpt lat="42.98705" lon="-0.13889167">
        <ele>726.0</ele>
        <time>2019-07-07T09:17:22.804Z</time>
      </trkpt>
      <trkpt lat="42.98705" lon="-0.13889167">
        <ele>726.0</ele>
        <time>2019-07-07T09:17:23.810Z</time>
      </trkpt>
      <trkpt lat="42.98698667" lon="-0.13904">
        <ele>726.0</ele>
        <time>2019-07-07T09:17:24.834Z</time>
      </trkpt>
      <trkpt lat="42.98698667" lon="-0.13904">
        <ele>726.0</ele>
        <time>2019-07-07T09:17:25.840Z</time>
      </trkpt>
      <trkpt lat="42.98692333" lon="-0.13918667">
        <ele>726.0</ele>
        <time>2019-07-07T09:17:26.824Z</time>
      </trkpt>
      <trkpt lat="42.98692333" lon="-0.13918667">
        <ele>726.0</ele>
        <time>2019-07-07T09:17:27.830Z</time>
      </trkpt>
      <trkpt lat="42.98686167" lon="-0.13932833">
        <ele>727.0</ele>
        <time>2019-07-07T09:17:28.834Z</time>
      </trkpt>
      <trkpt lat="42.98683333" lon="-0.13939833">
        <ele>727.0</ele>
        <time>2019-07-07T09:17:29.804Z</time>
      </trkpt>
      <trkpt lat="42.98683333" lon="-0.13939833">
        <ele>727.0</ele>
        <time>2019-07-07T09:17:30.810Z</time>
      </trkpt>
      <trkpt lat="42.98677833" lon="-0.139535">
        <ele>727.0</ele>
        <time>2019-07-07T09:17:31.824Z</time>
      </trkpt>
      <trkpt lat="42.98677833" lon="-0.139535">
        <ele>727.0</ele>
        <time>2019-07-07T09:17:32.829Z</time>
      </trkpt>
      <trkpt lat="42.98672333" lon="-0.13967">
        <ele>727.0</ele>
        <time>2019-07-07T09:17:33.804Z</time>
      </trkpt>
      <trkpt lat="42.98672333" lon="-0.13967">
        <ele>727.0</ele>
        <time>2019-07-07T09:17:34.810Z</time>
      </trkpt>
      <trkpt lat="42.98667667" lon="-0.13980667">
        <ele>728.0</ele>
        <time>2019-07-07T09:17:35.834Z</time>
      </trkpt>
      <trkpt lat="42.986655" lon="-0.13987667">
        <ele>728.0</ele>
        <time>2019-07-07T09:17:36.810Z</time>
      </trkpt>
      <trkpt lat="42.986635" lon="-0.13994667">
        <ele>728.0</ele>
        <time>2019-07-07T09:17:37.830Z</time>
      </trkpt>
      <trkpt lat="42.986635" lon="-0.13994667">
        <ele>728.0</ele>
        <time>2019-07-07T09:17:38.836Z</time>
      </trkpt>
      <trkpt lat="42.98659667" lon="-0.140085">
        <ele>728.0</ele>
        <time>2019-07-07T09:17:39.824Z</time>
      </trkpt>
      <trkpt lat="42.98657833" lon="-0.14015333">
        <ele>728.0</ele>
        <time>2019-07-07T09:17:40.834Z</time>
      </trkpt>
      <trkpt lat="42.98656" lon="-0.14021833">
        <ele>728.0</ele>
        <time>2019-07-07T09:17:41.804Z</time>
      </trkpt>
      <trkpt lat="42.98654" lon="-0.14028167">
        <ele>729.0</ele>
        <time>2019-07-07T09:17:42.803Z</time>
      </trkpt>
      <trkpt lat="42.98654" lon="-0.14028167">
        <ele>729.0</ele>
        <time>2019-07-07T09:17:43.809Z</time>
      </trkpt>
      <trkpt lat="42.9865" lon="-0.1404">
        <ele>729.0</ele>
        <time>2019-07-07T09:17:44.827Z</time>
      </trkpt>
      <trkpt lat="42.9865" lon="-0.1404">
        <ele>729.0</ele>
        <time>2019-07-07T09:17:45.833Z</time>
      </trkpt>
      <trkpt lat="42.98645833" lon="-0.14051">
        <ele>729.0</ele>
        <time>2019-07-07T09:17:46.829Z</time>
      </trkpt>
      <trkpt lat="42.98645833" lon="-0.14051">
        <ele>729.0</ele>
        <time>2019-07-07T09:17:47.814Z</time>
      </trkpt>
      <trkpt lat="42.98641833" lon="-0.14061333">
        <ele>730.0</ele>
        <time>2019-07-07T09:17:48.837Z</time>
      </trkpt>
      <trkpt lat="42.98641833" lon="-0.14061333">
        <ele>730.0</ele>
        <time>2019-07-07T09:17:49.804Z</time>
      </trkpt>
      <trkpt lat="42.98637667" lon="-0.140705">
        <ele>730.0</ele>
        <time>2019-07-07T09:17:50.824Z</time>
      </trkpt>
      <trkpt lat="42.98635833" lon="-0.140755">
        <ele>730.0</ele>
        <time>2019-07-07T09:17:51.811Z</time>
      </trkpt>
      <trkpt lat="42.98634" lon="-0.14080833">
        <ele>731.0</ele>
        <time>2019-07-07T09:17:52.814Z</time>
      </trkpt>
      <trkpt lat="42.98634" lon="-0.14080833">
        <ele>731.0</ele>
        <time>2019-07-07T09:17:53.820Z</time>
      </trkpt>
      <trkpt lat="42.98630167" lon="-0.14091167">
        <ele>731.0</ele>
        <time>2019-07-07T09:17:54.824Z</time>
      </trkpt>
      <trkpt lat="42.98630167" lon="-0.14091167">
        <ele>731.0</ele>
        <time>2019-07-07T09:17:55.830Z</time>
      </trkpt>
      <trkpt lat="42.986265" lon="-0.14101">
        <ele>731.0</ele>
        <time>2019-07-07T09:17:56.840Z</time>
      </trkpt>
      <trkpt lat="42.986265" lon="-0.14101">
        <ele>731.0</ele>
        <time>2019-07-07T09:17:57.807Z</time>
      </trkpt>
      <trkpt lat="42.98623" lon="-0.14110333">
        <ele>732.0</ele>
        <time>2019-07-07T09:17:58.819Z</time>
      </trkpt>
      <trkpt lat="42.98621" lon="-0.14114667">
        <ele>732.0</ele>
        <time>2019-07-07T09:17:59.830Z</time>
      </trkpt>
      <trkpt lat="42.98621" lon="-0.14114667">
        <ele>732.0</ele>
        <time>2019-07-07T09:18:00.836Z</time>
      </trkpt>
      <trkpt lat="42.98616833" lon="-0.14123333">
        <ele>732.0</ele>
        <time>2019-07-07T09:18:01.801Z</time>
      </trkpt>
      <trkpt lat="42.98616833" lon="-0.14123333">
        <ele>732.0</ele>
        <time>2019-07-07T09:18:02.807Z</time>
      </trkpt>
      <trkpt lat="42.98612833" lon="-0.14132667">
        <ele>733.0</ele>
        <time>2019-07-07T09:18:03.814Z</time>
      </trkpt>
      <trkpt lat="42.98612833" lon="-0.14132667">
        <ele>733.0</ele>
        <time>2019-07-07T09:18:04.820Z</time>
      </trkpt>
      <trkpt lat="42.986085" lon="-0.14141167">
        <ele>733.0</ele>
        <time>2019-07-07T09:18:05.824Z</time>
      </trkpt>
      <trkpt lat="42.98606667" lon="-0.14145667">
        <ele>734.0</ele>
        <time>2019-07-07T09:18:06.828Z</time>
      </trkpt>
      <trkpt lat="42.98606667" lon="-0.14145667">
        <ele>734.0</ele>
        <time>2019-07-07T09:18:07.834Z</time>
      </trkpt>
      <trkpt lat="42.98602167" lon="-0.141545">
        <ele>734.0</ele>
        <time>2019-07-07T09:18:08.803Z</time>
      </trkpt>
      <trkpt lat="42.98602167" lon="-0.141545">
        <ele>734.0</ele>
        <time>2019-07-07T09:18:09.809Z</time>
      </trkpt>
      <trkpt lat="42.98598" lon="-0.14164">
        <ele>735.0</ele>
        <time>2019-07-07T09:18:10.824Z</time>
      </trkpt>
      <trkpt lat="42.98598" lon="-0.14164">
        <ele>735.0</ele>
        <time>2019-07-07T09:18:11.830Z</time>
      </trkpt>
      <trkpt lat="42.98593833" lon="-0.14172833">
        <ele>736.0</ele>
        <time>2019-07-07T09:18:12.815Z</time>
      </trkpt>
      <trkpt lat="42.98593833" lon="-0.14172833">
        <ele>736.0</ele>
        <time>2019-07-07T09:18:13.821Z</time>
      </trkpt>
      <trkpt lat="42.98589833" lon="-0.14182167">
        <ele>737.0</ele>
        <time>2019-07-07T09:18:14.818Z</time>
      </trkpt>
      <trkpt lat="42.98588" lon="-0.14186667">
        <ele>737.0</ele>
        <time>2019-07-07T09:18:15.814Z</time>
      </trkpt>
      <trkpt lat="42.98586167" lon="-0.14191333">
        <ele>738.0</ele>
        <time>2019-07-07T09:18:16.824Z</time>
      </trkpt>
      <trkpt lat="42.98586167" lon="-0.14191333">
        <ele>738.0</ele>
        <time>2019-07-07T09:18:17.829Z</time>
      </trkpt>
      <trkpt lat="42.985825" lon="-0.14201167">
        <ele>739.0</ele>
        <time>2019-07-07T09:18:18.804Z</time>
      </trkpt>
      <trkpt lat="42.985805" lon="-0.14206167">
        <ele>739.0</ele>
        <time>2019-07-07T09:18:19.815Z</time>
      </trkpt>
      <trkpt lat="42.985805" lon="-0.14206167">
        <ele>739.0</ele>
        <time>2019-07-07T09:18:20.821Z</time>
      </trkpt>
      <trkpt lat="42.98576833" lon="-0.142165">
        <ele>740.0</ele>
        <time>2019-07-07T09:18:21.814Z</time>
      </trkpt>
      <trkpt lat="42.98575" lon="-0.14221667">
        <ele>740.0</ele>
        <time>2019-07-07T09:18:22.832Z</time>
      </trkpt>
      <trkpt lat="42.98575" lon="-0.14221667">
        <ele>740.0</ele>
        <time>2019-07-07T09:18:23.838Z</time>
      </trkpt>
      <trkpt lat="42.985715" lon="-0.14232333">
        <ele>740.0</ele>
        <time>2019-07-07T09:18:24.804Z</time>
      </trkpt>
      <trkpt lat="42.985715" lon="-0.14232333">
        <ele>740.0</ele>
        <time>2019-07-07T09:18:25.809Z</time>
      </trkpt>
      <trkpt lat="42.98568" lon="-0.14243167">
        <ele>741.0</ele>
        <time>2019-07-07T09:18:26.834Z</time>
      </trkpt>
      <trkpt lat="42.98566333" lon="-0.14248">
        <ele>741.0</ele>
        <time>2019-07-07T09:18:27.823Z</time>
      </trkpt>
      <trkpt lat="42.98566333" lon="-0.14248">
        <ele>741.0</ele>
        <time>2019-07-07T09:18:28.829Z</time>
      </trkpt>
      <trkpt lat="42.98563" lon="-0.14257167">
        <ele>742.0</ele>
        <time>2019-07-07T09:18:29.834Z</time>
      </trkpt>
      <trkpt lat="42.98561167" lon="-0.14261833">
        <ele>742.0</ele>
        <time>2019-07-07T09:18:30.804Z</time>
      </trkpt>
      <trkpt lat="42.98561167" lon="-0.14261833">
        <ele>742.0</ele>
        <time>2019-07-07T09:18:31.809Z</time>
      </trkpt>
      <trkpt lat="42.98558" lon="-0.14271167">
        <ele>743.0</ele>
        <time>2019-07-07T09:18:32.820Z</time>
      </trkpt>
      <trkpt lat="42.98558" lon="-0.14271167">
        <ele>743.0</ele>
        <time>2019-07-07T09:18:33.826Z</time>
      </trkpt>
      <trkpt lat="42.98555167" lon="-0.14280667">
        <ele>743.0</ele>
        <time>2019-07-07T09:18:34.833Z</time>
      </trkpt>
      <trkpt lat="42.98553833" lon="-0.14285667">
        <ele>743.0</ele>
        <time>2019-07-07T09:18:35.834Z</time>
      </trkpt>
      <trkpt lat="42.98552333" lon="-0.14290667">
        <ele>744.0</ele>
        <time>2019-07-07T09:18:36.816Z</time>
      </trkpt>
      <trkpt lat="42.98552333" lon="-0.14290667">
        <ele>744.0</ele>
        <time>2019-07-07T09:18:37.822Z</time>
      </trkpt>
      <trkpt lat="42.98549667" lon="-0.14300667">
        <ele>744.0</ele>
        <time>2019-07-07T09:18:38.820Z</time>
      </trkpt>
      <trkpt lat="42.98549667" lon="-0.14300667">
        <ele>744.0</ele>
        <time>2019-07-07T09:18:39.827Z</time>
      </trkpt>
      <trkpt lat="42.985475" lon="-0.14311167">
        <ele>745.0</ele>
        <time>2019-07-07T09:18:40.802Z</time>
      </trkpt>
      <trkpt lat="42.985465" lon="-0.14316333">
        <ele>745.0</ele>
        <time>2019-07-07T09:18:41.814Z</time>
      </trkpt>
      <trkpt lat="42.98545667" lon="-0.143215">
        <ele>745.0</ele>
        <time>2019-07-07T09:18:42.824Z</time>
      </trkpt>
      <trkpt lat="42.98545667" lon="-0.143215">
        <ele>745.0</ele>
        <time>2019-07-07T09:18:43.830Z</time>
      </trkpt>
      <trkpt lat="42.98544" lon="-0.14332167">
        <ele>745.0</ele>
        <time>2019-07-07T09:18:44.810Z</time>
      </trkpt>
      <trkpt lat="42.98544" lon="-0.14332167">
        <ele>745.0</ele>
        <time>2019-07-07T09:18:45.818Z</time>
      </trkpt>
      <trkpt lat="42.98541667" lon="-0.14342833">
        <ele>746.0</ele>
        <time>2019-07-07T09:18:46.818Z</time>
      </trkpt>
      <trkpt lat="42.98541667" lon="-0.14342833">
        <ele>746.0</ele>
        <time>2019-07-07T09:18:47.804Z</time>
      </trkpt>
      <trkpt lat="42.98539" lon="-0.14353167">
        <ele>746.0</ele>
        <time>2019-07-07T09:18:48.822Z</time>
      </trkpt>
      <trkpt lat="42.98539" lon="-0.14353167">
        <ele>746.0</ele>
        <time>2019-07-07T09:18:49.829Z</time>
      </trkpt>
      <trkpt lat="42.985355" lon="-0.14363167">
        <ele>747.0</ele>
        <time>2019-07-07T09:18:50.834Z</time>
      </trkpt>
      <trkpt lat="42.985355" lon="-0.14363167">
        <ele>747.0</ele>
        <time>2019-07-07T09:18:51.801Z</time>
      </trkpt>
      <trkpt lat="42.985315" lon="-0.14373167">
        <ele>748.0</ele>
        <time>2019-07-07T09:18:52.822Z</time>
      </trkpt>
      <trkpt lat="42.985315" lon="-0.14373167">
        <ele>748.0</ele>
        <time>2019-07-07T09:18:53.828Z</time>
      </trkpt>
      <trkpt lat="42.98527333" lon="-0.14383333">
        <ele>748.0</ele>
        <time>2019-07-07T09:18:54.834Z</time>
      </trkpt>
      <trkpt lat="42.98527333" lon="-0.14383333">
        <ele>748.0</ele>
        <time>2019-07-07T09:18:55.840Z</time>
      </trkpt>
      <trkpt lat="42.98523" lon="-0.14393333">
        <ele>748.0</ele>
        <time>2019-07-07T09:18:56.804Z</time>
      </trkpt>
      <trkpt lat="42.98523" lon="-0.14393333">
        <ele>748.0</ele>
        <time>2019-07-07T09:18:57.811Z</time>
      </trkpt>
      <trkpt lat="42.985185" lon="-0.14403333">
        <ele>749.0</ele>
        <time>2019-07-07T09:18:58.824Z</time>
      </trkpt>
      <trkpt lat="42.985185" lon="-0.14403333">
        <ele>749.0</ele>
        <time>2019-07-07T09:18:59.829Z</time>
      </trkpt>
      <trkpt lat="42.98512833" lon="-0.14411833">
        <ele>749.0</ele>
        <time>2019-07-07T09:19:00.808Z</time>
      </trkpt>
      <trkpt lat="42.98512833" lon="-0.14411833">
        <ele>749.0</ele>
        <time>2019-07-07T09:19:01.815Z</time>
      </trkpt>
      <trkpt lat="42.98507" lon="-0.144205">
        <ele>750.0</ele>
        <time>2019-07-07T09:19:02.804Z</time>
      </trkpt>
      <trkpt lat="42.98504167" lon="-0.14424833">
        <ele>750.0</ele>
        <time>2019-07-07T09:19:03.814Z</time>
      </trkpt>
      <trkpt lat="42.98501" lon="-0.14428833">
        <ele>750.0</ele>
        <time>2019-07-07T09:19:04.814Z</time>
      </trkpt>
      <trkpt lat="42.98501" lon="-0.14428833">
        <ele>750.0</ele>
        <time>2019-07-07T09:19:05.820Z</time>
      </trkpt>
      <trkpt lat="42.984945" lon="-0.14437">
        <ele>750.0</ele>
        <time>2019-07-07T09:19:06.823Z</time>
      </trkpt>
      <trkpt lat="42.984945" lon="-0.14437">
        <ele>750.0</ele>
        <time>2019-07-07T09:19:07.828Z</time>
      </trkpt>
      <trkpt lat="42.98488" lon="-0.14446">
        <ele>750.0</ele>
        <time>2019-07-07T09:19:08.834Z</time>
      </trkpt>
      <trkpt lat="42.984845" lon="-0.14450333">
        <ele>751.0</ele>
        <time>2019-07-07T09:19:09.814Z</time>
      </trkpt>
      <trkpt lat="42.984845" lon="-0.14450333">
        <ele>751.0</ele>
        <time>2019-07-07T09:19:10.821Z</time>
      </trkpt>
      <trkpt lat="42.98477667" lon="-0.14458833">
        <ele>751.0</ele>
        <time>2019-07-07T09:19:11.813Z</time>
      </trkpt>
      <trkpt lat="42.98477667" lon="-0.14458833">
        <ele>751.0</ele>
        <time>2019-07-07T09:19:12.819Z</time>
      </trkpt>
      <trkpt lat="42.98470667" lon="-0.14467667">
        <ele>751.0</ele>
        <time>2019-07-07T09:19:13.824Z</time>
      </trkpt>
      <trkpt lat="42.98470667" lon="-0.14467667">
        <ele>751.0</ele>
        <time>2019-07-07T09:19:14.829Z</time>
      </trkpt>
      <trkpt lat="42.98463" lon="-0.14476667">
        <ele>752.0</ele>
        <time>2019-07-07T09:19:15.839Z</time>
      </trkpt>
      <trkpt lat="42.98463" lon="-0.14476667">
        <ele>752.0</ele>
        <time>2019-07-07T09:19:16.817Z</time>
      </trkpt>
      <trkpt lat="42.984555" lon="-0.14486">
        <ele>752.0</ele>
        <time>2019-07-07T09:19:17.824Z</time>
      </trkpt>
      <trkpt lat="42.98451667" lon="-0.14490667">
        <ele>752.0</ele>
        <time>2019-07-07T09:19:18.802Z</time>
      </trkpt>
      <trkpt lat="42.98447833" lon="-0.144955">
        <ele>752.0</ele>
        <time>2019-07-07T09:19:19.833Z</time>
      </trkpt>
      <trkpt lat="42.98447833" lon="-0.144955">
        <ele>752.0</ele>
        <time>2019-07-07T09:19:20.839Z</time>
      </trkpt>
      <trkpt lat="42.98440167" lon="-0.14505">
        <ele>752.0</ele>
        <time>2019-07-07T09:19:21.834Z</time>
      </trkpt>
      <trkpt lat="42.98440167" lon="-0.14505">
        <ele>752.0</ele>
        <time>2019-07-07T09:19:22.840Z</time>
      </trkpt>
      <trkpt lat="42.984325" lon="-0.14516333">
        <ele>753.0</ele>
        <time>2019-07-07T09:19:23.801Z</time>
      </trkpt>
      <trkpt lat="42.98429333" lon="-0.14521833">
        <ele>753.0</ele>
        <time>2019-07-07T09:19:24.807Z</time>
      </trkpt>
      <trkpt lat="42.98429333" lon="-0.14521833">
        <ele>753.0</ele>
        <time>2019-07-07T09:19:25.813Z</time>
      </trkpt>
      <trkpt lat="42.984225" lon="-0.14532">
        <ele>754.0</ele>
        <time>2019-07-07T09:19:26.834Z</time>
      </trkpt>
      <trkpt lat="42.984225" lon="-0.14532">
        <ele>754.0</ele>
        <time>2019-07-07T09:19:27.840Z</time>
      </trkpt>
      <trkpt lat="42.98416" lon="-0.145425">
        <ele>754.0</ele>
        <time>2019-07-07T09:19:28.824Z</time>
      </trkpt>
      <trkpt lat="42.98416" lon="-0.145425">
        <ele>754.0</ele>
        <time>2019-07-07T09:19:29.830Z</time>
      </trkpt>
      <trkpt lat="42.98409667" lon="-0.14553167">
        <ele>755.0</ele>
        <time>2019-07-07T09:19:30.804Z</time>
      </trkpt>
      <trkpt lat="42.98409667" lon="-0.14553167">
        <ele>755.0</ele>
        <time>2019-07-07T09:19:31.809Z</time>
      </trkpt>
      <trkpt lat="42.98403167" lon="-0.14563833">
        <ele>755.0</ele>
        <time>2019-07-07T09:19:32.814Z</time>
      </trkpt>
      <trkpt lat="42.984" lon="-0.14568667">
        <ele>755.0</ele>
        <time>2019-07-07T09:19:33.818Z</time>
      </trkpt>
      <trkpt lat="42.984" lon="-0.14568667">
        <ele>755.0</ele>
        <time>2019-07-07T09:19:34.824Z</time>
      </trkpt>
      <trkpt lat="42.983935" lon="-0.14579333">
        <ele>756.0</ele>
        <time>2019-07-07T09:19:35.824Z</time>
      </trkpt>
      <trkpt lat="42.98390333" lon="-0.14584833">
        <ele>756.0</ele>
        <time>2019-07-07T09:19:36.838Z</time>
      </trkpt>
      <trkpt lat="42.98390333" lon="-0.14584833">
        <ele>756.0</ele>
        <time>2019-07-07T09:19:37.804Z</time>
      </trkpt>
      <trkpt lat="42.98384167" lon="-0.14595667">
        <ele>757.0</ele>
        <time>2019-07-07T09:19:38.834Z</time>
      </trkpt>
      <trkpt lat="42.98381333" lon="-0.14601167">
        <ele>757.0</ele>
        <time>2019-07-07T09:19:39.819Z</time>
      </trkpt>
      <trkpt lat="42.98381333" lon="-0.14601167">
        <ele>757.0</ele>
        <time>2019-07-07T09:19:40.825Z</time>
      </trkpt>
      <trkpt lat="42.98376333" lon="-0.14612667">
        <ele>757.0</ele>
        <time>2019-07-07T09:19:41.802Z</time>
      </trkpt>
      <trkpt lat="42.98373833" lon="-0.146185">
        <ele>758.0</ele>
        <time>2019-07-07T09:19:42.804Z</time>
      </trkpt>
      <trkpt lat="42.98373833" lon="-0.146185">
        <ele>758.0</ele>
        <time>2019-07-07T09:19:43.809Z</time>
      </trkpt>
      <trkpt lat="42.98370333" lon="-0.14631667">
        <ele>758.0</ele>
        <time>2019-07-07T09:19:44.804Z</time>
      </trkpt>
      <trkpt lat="42.98369" lon="-0.14638833">
        <ele>758.0</ele>
        <time>2019-07-07T09:19:45.814Z</time>
      </trkpt>
      <trkpt lat="42.98369" lon="-0.14638833">
        <ele>758.0</ele>
        <time>2019-07-07T09:19:46.822Z</time>
      </trkpt>
      <trkpt lat="42.98367333" lon="-0.14653333">
        <ele>759.0</ele>
        <time>2019-07-07T09:19:47.814Z</time>
      </trkpt>
      <trkpt lat="42.98366333" lon="-0.14660833">
        <ele>759.0</ele>
        <time>2019-07-07T09:19:48.813Z</time>
      </trkpt>
      <trkpt lat="42.98366333" lon="-0.14660833">
        <ele>759.0</ele>
        <time>2019-07-07T09:19:49.823Z</time>
      </trkpt>
      <trkpt lat="42.98364833" lon="-0.14675667">
        <ele>759.0</ele>
        <time>2019-07-07T09:19:50.812Z</time>
      </trkpt>
      <trkpt lat="42.98364833" lon="-0.14675667">
        <ele>759.0</ele>
        <time>2019-07-07T09:19:51.818Z</time>
      </trkpt>
      <trkpt lat="42.98363167" lon="-0.14690667">
        <ele>760.0</ele>
        <time>2019-07-07T09:19:52.834Z</time>
      </trkpt>
      <trkpt lat="42.98363167" lon="-0.14690667">
        <ele>760.0</ele>
        <time>2019-07-07T09:19:53.840Z</time>
      </trkpt>
      <trkpt lat="42.98361667" lon="-0.14706333">
        <ele>760.0</ele>
        <time>2019-07-07T09:19:54.813Z</time>
      </trkpt>
      <trkpt lat="42.98361667" lon="-0.14706333">
        <ele>760.0</ele>
        <time>2019-07-07T09:19:55.820Z</time>
      </trkpt>
      <trkpt lat="42.98360333" lon="-0.14721167">
        <ele>761.0</ele>
        <time>2019-07-07T09:19:56.823Z</time>
      </trkpt>
      <trkpt lat="42.983595" lon="-0.14728667">
        <ele>761.0</ele>
        <time>2019-07-07T09:19:57.836Z</time>
      </trkpt>
      <trkpt lat="42.983595" lon="-0.14728667">
        <ele>761.0</ele>
        <time>2019-07-07T09:19:58.801Z</time>
      </trkpt>
      <trkpt lat="42.98358" lon="-0.14744167">
        <ele>761.0</ele>
        <time>2019-07-07T09:19:59.834Z</time>
      </trkpt>
      <trkpt lat="42.98358" lon="-0.14744167">
        <ele>761.0</ele>
        <time>2019-07-07T09:20:00.840Z</time>
      </trkpt>
      <trkpt lat="42.98356167" lon="-0.14759">
        <ele>761.0</ele>
        <time>2019-07-07T09:20:01.812Z</time>
      </trkpt>
      <trkpt lat="42.98356167" lon="-0.14759">
        <ele>761.0</ele>
        <time>2019-07-07T09:20:02.818Z</time>
      </trkpt>
      <trkpt lat="42.98354667" lon="-0.14774667">
        <ele>762.0</ele>
        <time>2019-07-07T09:20:03.834Z</time>
      </trkpt>
      <trkpt lat="42.98354667" lon="-0.14774667">
        <ele>762.0</ele>
        <time>2019-07-07T09:20:04.839Z</time>
      </trkpt>
      <trkpt lat="42.98353167" lon="-0.14790833">
        <ele>762.0</ele>
        <time>2019-07-07T09:20:05.804Z</time>
      </trkpt>
      <trkpt lat="42.98352333" lon="-0.14799">
        <ele>762.0</ele>
        <time>2019-07-07T09:20:06.805Z</time>
      </trkpt>
      <trkpt lat="42.98352333" lon="-0.14799">
        <ele>762.0</ele>
        <time>2019-07-07T09:20:07.810Z</time>
      </trkpt>
      <trkpt lat="42.98349667" lon="-0.148155">
        <ele>763.0</ele>
        <time>2019-07-07T09:20:08.827Z</time>
      </trkpt>
      <trkpt lat="42.98349667" lon="-0.148155">
        <ele>763.0</ele>
        <time>2019-07-07T09:20:09.832Z</time>
      </trkpt>
      <trkpt lat="42.98346333" lon="-0.14831333">
        <ele>763.0</ele>
        <time>2019-07-07T09:20:10.801Z</time>
      </trkpt>
      <trkpt lat="42.983445" lon="-0.14838833">
        <ele>763.0</ele>
        <time>2019-07-07T09:20:11.823Z</time>
      </trkpt>
      <trkpt lat="42.983445" lon="-0.14838833">
        <ele>763.0</ele>
        <time>2019-07-07T09:20:12.829Z</time>
      </trkpt>
      <trkpt lat="42.9834" lon="-0.14854">
        <ele>763.0</ele>
        <time>2019-07-07T09:20:13.814Z</time>
      </trkpt>
      <trkpt lat="42.9834" lon="-0.14854">
        <ele>763.0</ele>
        <time>2019-07-07T09:20:14.820Z</time>
      </trkpt>
      <trkpt lat="42.98334167" lon="-0.14868833">
        <ele>762.0</ele>
        <time>2019-07-07T09:20:15.834Z</time>
      </trkpt>
      <trkpt lat="42.98334167" lon="-0.14868833">
        <ele>762.0</ele>
        <time>2019-07-07T09:20:16.840Z</time>
      </trkpt>
      <trkpt lat="42.98327833" lon="-0.14883667">
        <ele>763.0</ele>
        <time>2019-07-07T09:20:17.824Z</time>
      </trkpt>
      <trkpt lat="42.98327833" lon="-0.14883667">
        <ele>763.0</ele>
        <time>2019-07-07T09:20:18.829Z</time>
      </trkpt>
      <trkpt lat="42.98321833" lon="-0.14897833">
        <ele>763.0</ele>
        <time>2019-07-07T09:20:19.804Z</time>
      </trkpt>
      <trkpt lat="42.98321833" lon="-0.14897833">
        <ele>763.0</ele>
        <time>2019-07-07T09:20:20.810Z</time>
      </trkpt>
      <trkpt lat="42.983155" lon="-0.14912667">
        <ele>763.0</ele>
        <time>2019-07-07T09:20:21.804Z</time>
      </trkpt>
      <trkpt lat="42.98312333" lon="-0.14920167">
        <ele>763.0</ele>
        <time>2019-07-07T09:20:22.804Z</time>
      </trkpt>
      <trkpt lat="42.98312333" lon="-0.14920167">
        <ele>763.0</ele>
        <time>2019-07-07T09:20:23.810Z</time>
      </trkpt>
      <trkpt lat="42.98307" lon="-0.14935">
        <ele>763.0</ele>
        <time>2019-07-07T09:20:24.815Z</time>
      </trkpt>
      <trkpt lat="42.98307" lon="-0.14935">
        <ele>763.0</ele>
        <time>2019-07-07T09:20:25.821Z</time>
      </trkpt>
      <trkpt lat="42.98301167" lon="-0.14949167">
        <ele>764.0</ele>
        <time>2019-07-07T09:20:26.824Z</time>
      </trkpt>
      <trkpt lat="42.98298667" lon="-0.14956167">
        <ele>764.0</ele>
        <time>2019-07-07T09:20:27.824Z</time>
      </trkpt>
      <trkpt lat="42.98298667" lon="-0.14956167">
        <ele>764.0</ele>
        <time>2019-07-07T09:20:28.829Z</time>
      </trkpt>
      <trkpt lat="42.982935" lon="-0.149715">
        <ele>764.0</ele>
        <time>2019-07-07T09:20:29.840Z</time>
      </trkpt>
      <trkpt lat="42.982935" lon="-0.149715">
        <ele>764.0</ele>
        <time>2019-07-07T09:20:30.806Z</time>
      </trkpt>
      <trkpt lat="42.98288667" lon="-0.14986833">
        <ele>764.0</ele>
        <time>2019-07-07T09:20:31.807Z</time>
      </trkpt>
      <trkpt lat="42.98288667" lon="-0.14986833">
        <ele>764.0</ele>
        <time>2019-07-07T09:20:32.812Z</time>
      </trkpt>
      <trkpt lat="42.98284167" lon="-0.15002">
        <ele>764.0</ele>
        <time>2019-07-07T09:20:33.823Z</time>
      </trkpt>
      <trkpt lat="42.98284167" lon="-0.15002">
        <ele>764.0</ele>
        <time>2019-07-07T09:20:34.829Z</time>
      </trkpt>
      <trkpt lat="42.98280167" lon="-0.15017">
        <ele>764.0</ele>
        <time>2019-07-07T09:20:35.832Z</time>
      </trkpt>
      <trkpt lat="42.98278333" lon="-0.15024833">
        <ele>764.0</ele>
        <time>2019-07-07T09:20:36.839Z</time>
      </trkpt>
      <trkpt lat="42.98278333" lon="-0.15024833">
        <ele>764.0</ele>
        <time>2019-07-07T09:20:37.805Z</time>
      </trkpt>
      <trkpt lat="42.98274833" lon="-0.150405">
        <ele>764.0</ele>
        <time>2019-07-07T09:20:38.814Z</time>
      </trkpt>
      <trkpt lat="42.98274833" lon="-0.150405">
        <ele>764.0</ele>
        <time>2019-07-07T09:20:39.821Z</time>
      </trkpt>
      <trkpt lat="42.98271167" lon="-0.15056">
        <ele>764.0</ele>
        <time>2019-07-07T09:20:40.804Z</time>
      </trkpt>
      <trkpt lat="42.98271167" lon="-0.15056">
        <ele>764.0</ele>
        <time>2019-07-07T09:20:41.809Z</time>
      </trkpt>
      <trkpt lat="42.982675" lon="-0.15072167">
        <ele>765.0</ele>
        <time>2019-07-07T09:20:42.820Z</time>
      </trkpt>
      <trkpt lat="42.982675" lon="-0.15072167">
        <ele>765.0</ele>
        <time>2019-07-07T09:20:43.826Z</time>
      </trkpt>
      <trkpt lat="42.98264" lon="-0.150885">
        <ele>765.0</ele>
        <time>2019-07-07T09:20:44.825Z</time>
      </trkpt>
      <trkpt lat="42.98264" lon="-0.150885">
        <ele>765.0</ele>
        <time>2019-07-07T09:20:45.831Z</time>
      </trkpt>
      <trkpt lat="42.98260167" lon="-0.15104667">
        <ele>765.0</ele>
        <time>2019-07-07T09:20:46.804Z</time>
      </trkpt>
      <trkpt lat="42.98260167" lon="-0.15104667">
        <ele>765.0</ele>
        <time>2019-07-07T09:20:47.822Z</time>
      </trkpt>
      <trkpt lat="42.98256167" lon="-0.151205">
        <ele>765.0</ele>
        <time>2019-07-07T09:20:48.823Z</time>
      </trkpt>
      <trkpt lat="42.98256167" lon="-0.151205">
        <ele>765.0</ele>
        <time>2019-07-07T09:20:49.829Z</time>
      </trkpt>
      <trkpt lat="42.98251833" lon="-0.15136333">
        <ele>764.0</ele>
        <time>2019-07-07T09:20:50.834Z</time>
      </trkpt>
      <trkpt lat="42.982495" lon="-0.15143833">
        <ele>764.0</ele>
        <time>2019-07-07T09:20:51.811Z</time>
      </trkpt>
      <trkpt lat="42.982495" lon="-0.15143833">
        <ele>764.0</ele>
        <time>2019-07-07T09:20:52.819Z</time>
      </trkpt>
      <trkpt lat="42.98244333" lon="-0.151585">
        <ele>764.0</ele>
        <time>2019-07-07T09:20:53.823Z</time>
      </trkpt>
      <trkpt lat="42.982415" lon="-0.15165667">
        <ele>764.0</ele>
        <time>2019-07-07T09:20:54.824Z</time>
      </trkpt>
      <trkpt lat="42.982415" lon="-0.15165667">
        <ele>764.0</ele>
        <time>2019-07-07T09:20:55.830Z</time>
      </trkpt>
      <trkpt lat="42.98236167" lon="-0.15179333">
        <ele>764.0</ele>
        <time>2019-07-07T09:20:56.804Z</time>
      </trkpt>
      <trkpt lat="42.982335" lon="-0.15186">
        <ele>764.0</ele>
        <time>2019-07-07T09:20:57.804Z</time>
      </trkpt>
      <trkpt lat="42.982335" lon="-0.15186">
        <ele>764.0</ele>
        <time>2019-07-07T09:20:58.810Z</time>
      </trkpt>
      <trkpt lat="42.98227667" lon="-0.15198167">
        <ele>764.0</ele>
        <time>2019-07-07T09:20:59.807Z</time>
      </trkpt>
      <trkpt lat="42.98227667" lon="-0.15198167">
        <ele>764.0</ele>
        <time>2019-07-07T09:21:00.813Z</time>
      </trkpt>
      <trkpt lat="42.98221833" lon="-0.15209833">
        <ele>765.0</ele>
        <time>2019-07-07T09:21:01.819Z</time>
      </trkpt>
      <trkpt lat="42.98221833" lon="-0.15209833">
        <ele>765.0</ele>
        <time>2019-07-07T09:21:02.825Z</time>
      </trkpt>
      <trkpt lat="42.982155" lon="-0.15221667">
        <ele>765.0</ele>
        <time>2019-07-07T09:21:03.804Z</time>
      </trkpt>
      <trkpt lat="42.98212333" lon="-0.15227333">
        <ele>765.0</ele>
        <time>2019-07-07T09:21:04.808Z</time>
      </trkpt>
      <trkpt lat="42.98212333" lon="-0.15227333">
        <ele>765.0</ele>
        <time>2019-07-07T09:21:05.814Z</time>
      </trkpt>
      <trkpt lat="42.98205667" lon="-0.15239">
        <ele>766.0</ele>
        <time>2019-07-07T09:21:06.824Z</time>
      </trkpt>
      <trkpt lat="42.98205667" lon="-0.15239">
        <ele>766.0</ele>
        <time>2019-07-07T09:21:07.830Z</time>
      </trkpt>
      <trkpt lat="42.98199333" lon="-0.15251">
        <ele>766.0</ele>
        <time>2019-07-07T09:21:08.801Z</time>
      </trkpt>
      <trkpt lat="42.98199333" lon="-0.15251">
        <ele>766.0</ele>
        <time>2019-07-07T09:21:09.807Z</time>
      </trkpt>
      <trkpt lat="42.98193" lon="-0.15262333">
        <ele>767.0</ele>
        <time>2019-07-07T09:21:10.834Z</time>
      </trkpt>
      <trkpt lat="42.98193" lon="-0.15262333">
        <ele>767.0</ele>
        <time>2019-07-07T09:21:11.839Z</time>
      </trkpt>
      <trkpt lat="42.98186667" lon="-0.15273833">
        <ele>768.0</ele>
        <time>2019-07-07T09:21:12.824Z</time>
      </trkpt>
      <trkpt lat="42.98186667" lon="-0.15273833">
        <ele>768.0</ele>
        <time>2019-07-07T09:21:13.829Z</time>
      </trkpt>
      <trkpt lat="42.98180167" lon="-0.15284833">
        <ele>768.0</ele>
        <time>2019-07-07T09:21:14.824Z</time>
      </trkpt>
      <trkpt lat="42.98180167" lon="-0.15284833">
        <ele>768.0</ele>
        <time>2019-07-07T09:21:15.830Z</time>
      </trkpt>
      <trkpt lat="42.98173667" lon="-0.15295833">
        <ele>768.0</ele>
        <time>2019-07-07T09:21:16.804Z</time>
      </trkpt>
      <trkpt lat="42.981705" lon="-0.15301333">
        <ele>769.0</ele>
        <time>2019-07-07T09:21:17.804Z</time>
      </trkpt>
      <trkpt lat="42.981705" lon="-0.15301333">
        <ele>769.0</ele>
        <time>2019-07-07T09:21:18.810Z</time>
      </trkpt>
      <trkpt lat="42.98164" lon="-0.153125">
        <ele>769.0</ele>
        <time>2019-07-07T09:21:19.839Z</time>
      </trkpt>
      <trkpt lat="42.98160833" lon="-0.15318">
        <ele>769.0</ele>
        <time>2019-07-07T09:21:20.839Z</time>
      </trkpt>
      <trkpt lat="42.98157667" lon="-0.15323667">
        <ele>770.0</ele>
        <time>2019-07-07T09:21:21.811Z</time>
      </trkpt>
      <trkpt lat="42.98157667" lon="-0.15323667">
        <ele>770.0</ele>
        <time>2019-07-07T09:21:22.820Z</time>
      </trkpt>
      <trkpt lat="42.981515" lon="-0.15335">
        <ele>770.0</ele>
        <time>2019-07-07T09:21:23.822Z</time>
      </trkpt>
      <trkpt lat="42.981485" lon="-0.15340667">
        <ele>771.0</ele>
        <time>2019-07-07T09:21:24.825Z</time>
      </trkpt>
      <trkpt lat="42.981485" lon="-0.15340667">
        <ele>771.0</ele>
        <time>2019-07-07T09:21:25.831Z</time>
      </trkpt>
      <trkpt lat="42.981425" lon="-0.153525">
        <ele>772.0</ele>
        <time>2019-07-07T09:21:26.804Z</time>
      </trkpt>
      <trkpt lat="42.981425" lon="-0.153525">
        <ele>772.0</ele>
        <time>2019-07-07T09:21:27.810Z</time>
      </trkpt>
      <trkpt lat="42.98136667" lon="-0.15364667">
        <ele>772.0</ele>
        <time>2019-07-07T09:21:28.834Z</time>
      </trkpt>
      <trkpt lat="42.98136667" lon="-0.15364667">
        <ele>772.0</ele>
        <time>2019-07-07T09:21:29.840Z</time>
      </trkpt>
      <trkpt lat="42.981305" lon="-0.153755">
        <ele>774.0</ele>
        <time>2019-07-07T09:21:30.804Z</time>
      </trkpt>
      <trkpt lat="42.981305" lon="-0.153755">
        <ele>774.0</ele>
        <time>2019-07-07T09:21:31.810Z</time>
      </trkpt>
      <trkpt lat="42.98124167" lon="-0.15385833">
        <ele>774.0</ele>
        <time>2019-07-07T09:21:32.817Z</time>
      </trkpt>
      <trkpt lat="42.98124167" lon="-0.15385833">
        <ele>774.0</ele>
        <time>2019-07-07T09:21:33.823Z</time>
      </trkpt>
      <trkpt lat="42.98117833" lon="-0.15396">
        <ele>775.0</ele>
        <time>2019-07-07T09:21:34.831Z</time>
      </trkpt>
      <trkpt lat="42.98117833" lon="-0.15396">
        <ele>775.0</ele>
        <time>2019-07-07T09:21:35.838Z</time>
      </trkpt>
      <trkpt lat="42.98111833" lon="-0.15406333">
        <ele>775.0</ele>
        <time>2019-07-07T09:21:36.804Z</time>
      </trkpt>
      <trkpt lat="42.98111833" lon="-0.15406333">
        <ele>775.0</ele>
        <time>2019-07-07T09:21:37.810Z</time>
      </trkpt>
      <trkpt lat="42.98106167" lon="-0.154175">
        <ele>775.0</ele>
        <time>2019-07-07T09:21:38.811Z</time>
      </trkpt>
      <trkpt lat="42.98106167" lon="-0.154175">
        <ele>775.0</ele>
        <time>2019-07-07T09:21:39.818Z</time>
      </trkpt>
      <trkpt lat="42.98100667" lon="-0.154295">
        <ele>776.0</ele>
        <time>2019-07-07T09:21:40.804Z</time>
      </trkpt>
      <trkpt lat="42.98098167" lon="-0.15435667">
        <ele>776.0</ele>
        <time>2019-07-07T09:21:41.810Z</time>
      </trkpt>
      <trkpt lat="42.98098167" lon="-0.15435667">
        <ele>776.0</ele>
        <time>2019-07-07T09:21:42.817Z</time>
      </trkpt>
      <trkpt lat="42.98093833" lon="-0.15447833">
        <ele>777.0</ele>
        <time>2019-07-07T09:21:43.816Z</time>
      </trkpt>
      <trkpt lat="42.98093833" lon="-0.15447833">
        <ele>777.0</ele>
        <time>2019-07-07T09:21:44.822Z</time>
      </trkpt>
      <trkpt lat="42.9809" lon="-0.15460167">
        <ele>778.0</ele>
        <time>2019-07-07T09:21:45.806Z</time>
      </trkpt>
      <trkpt lat="42.98088333" lon="-0.15466333">
        <ele>778.0</ele>
        <time>2019-07-07T09:21:46.814Z</time>
      </trkpt>
      <trkpt lat="42.98088333" lon="-0.15466333">
        <ele>778.0</ele>
        <time>2019-07-07T09:21:47.832Z</time>
      </trkpt>
      <trkpt lat="42.98085333" lon="-0.15479">
        <ele>778.0</ele>
        <time>2019-07-07T09:21:48.803Z</time>
      </trkpt>
      <trkpt lat="42.98084167" lon="-0.15485167">
        <ele>778.0</ele>
        <time>2019-07-07T09:21:49.832Z</time>
      </trkpt>
      <trkpt lat="42.98084167" lon="-0.15485167">
        <ele>778.0</ele>
        <time>2019-07-07T09:21:50.838Z</time>
      </trkpt>
      <trkpt lat="42.98081667" lon="-0.154975">
        <ele>779.0</ele>
        <time>2019-07-07T09:21:51.831Z</time>
      </trkpt>
      <trkpt lat="42.98081667" lon="-0.154975">
        <ele>779.0</ele>
        <time>2019-07-07T09:21:52.837Z</time>
      </trkpt>
      <trkpt lat="42.98078833" lon="-0.15510333">
        <ele>780.0</ele>
        <time>2019-07-07T09:21:53.804Z</time>
      </trkpt>
      <trkpt lat="42.98077667" lon="-0.15516667">
        <ele>780.0</ele>
        <time>2019-07-07T09:21:54.801Z</time>
      </trkpt>
      <trkpt lat="42.98077667" lon="-0.15516667">
        <ele>780.0</ele>
        <time>2019-07-07T09:21:55.807Z</time>
      </trkpt>
      <trkpt lat="42.98075167" lon="-0.15529">
        <ele>780.0</ele>
        <time>2019-07-07T09:21:56.835Z</time>
      </trkpt>
      <trkpt lat="42.98073833" lon="-0.15535333">
        <ele>780.0</ele>
        <time>2019-07-07T09:21:57.814Z</time>
      </trkpt>
      <trkpt lat="42.98073833" lon="-0.15535333">
        <ele>780.0</ele>
        <time>2019-07-07T09:21:58.822Z</time>
      </trkpt>
      <trkpt lat="42.98071167" lon="-0.15548">
        <ele>781.0</ele>
        <time>2019-07-07T09:21:59.804Z</time>
      </trkpt>
      <trkpt lat="42.98069833" lon="-0.15554167">
        <ele>781.0</ele>
        <time>2019-07-07T09:22:00.811Z</time>
      </trkpt>
      <trkpt lat="42.980685" lon="-0.155605">
        <ele>781.0</ele>
        <time>2019-07-07T09:22:01.834Z</time>
      </trkpt>
      <trkpt lat="42.980685" lon="-0.155605">
        <ele>781.0</ele>
        <time>2019-07-07T09:22:02.840Z</time>
      </trkpt>
      <trkpt lat="42.98066" lon="-0.15572667">
        <ele>782.0</ele>
        <time>2019-07-07T09:22:03.805Z</time>
      </trkpt>
      <trkpt lat="42.98064667" lon="-0.15578833">
        <ele>782.0</ele>
        <time>2019-07-07T09:22:04.814Z</time>
      </trkpt>
      <trkpt lat="42.98064667" lon="-0.15578833">
        <ele>782.0</ele>
        <time>2019-07-07T09:22:05.820Z</time>
      </trkpt>
      <trkpt lat="42.98062" lon="-0.15591333">
        <ele>783.0</ele>
        <time>2019-07-07T09:22:06.834Z</time>
      </trkpt>
      <trkpt lat="42.98062" lon="-0.15591333">
        <ele>783.0</ele>
        <time>2019-07-07T09:22:07.840Z</time>
      </trkpt>
      <trkpt lat="42.98059333" lon="-0.15603833">
        <ele>783.0</ele>
        <time>2019-07-07T09:22:08.804Z</time>
      </trkpt>
      <trkpt lat="42.98058167" lon="-0.15610333">
        <ele>784.0</ele>
        <time>2019-07-07T09:22:09.814Z</time>
      </trkpt>
      <trkpt lat="42.98058167" lon="-0.15610333">
        <ele>784.0</ele>
        <time>2019-07-07T09:22:10.821Z</time>
      </trkpt>
      <trkpt lat="42.980555" lon="-0.15622667">
        <ele>784.0</ele>
        <time>2019-07-07T09:22:11.834Z</time>
      </trkpt>
      <trkpt lat="42.980555" lon="-0.15622667">
        <ele>784.0</ele>
        <time>2019-07-07T09:22:12.839Z</time>
      </trkpt>
      <trkpt lat="42.98052667" lon="-0.15635">
        <ele>784.0</ele>
        <time>2019-07-07T09:22:13.820Z</time>
      </trkpt>
      <trkpt lat="42.98051333" lon="-0.15641167">
        <ele>784.0</ele>
        <time>2019-07-07T09:22:14.834Z</time>
      </trkpt>
      <trkpt lat="42.98051333" lon="-0.15641167">
        <ele>784.0</ele>
        <time>2019-07-07T09:22:15.840Z</time>
      </trkpt>
      <trkpt lat="42.98048667" lon="-0.156535">
        <ele>785.0</ele>
        <time>2019-07-07T09:22:16.834Z</time>
      </trkpt>
      <trkpt lat="42.98047167" lon="-0.15659333">
        <ele>785.0</ele>
        <time>2019-07-07T09:22:17.834Z</time>
      </trkpt>
      <trkpt lat="42.98045833" lon="-0.15665167">
        <ele>785.0</ele>
        <time>2019-07-07T09:22:18.834Z</time>
      </trkpt>
      <trkpt lat="42.98045833" lon="-0.15665167">
        <ele>785.0</ele>
        <time>2019-07-07T09:22:19.840Z</time>
      </trkpt>
      <trkpt lat="42.98043167" lon="-0.15677333">
        <ele>785.0</ele>
        <time>2019-07-07T09:22:20.814Z</time>
      </trkpt>
      <trkpt lat="42.98043167" lon="-0.15677333">
        <ele>785.0</ele>
        <time>2019-07-07T09:22:21.820Z</time>
      </trkpt>
      <trkpt lat="42.980405" lon="-0.156895">
        <ele>786.0</ele>
        <time>2019-07-07T09:22:22.831Z</time>
      </trkpt>
      <trkpt lat="42.980405" lon="-0.156895">
        <ele>786.0</ele>
        <time>2019-07-07T09:22:23.837Z</time>
      </trkpt>
      <trkpt lat="42.98037667" lon="-0.15702">
        <ele>786.0</ele>
        <time>2019-07-07T09:22:24.804Z</time>
      </trkpt>
      <trkpt lat="42.98037667" lon="-0.15702">
        <ele>786.0</ele>
        <time>2019-07-07T09:22:25.810Z</time>
      </trkpt>
      <trkpt lat="42.98035167" lon="-0.15714667">
        <ele>786.0</ele>
        <time>2019-07-07T09:22:26.829Z</time>
      </trkpt>
      <trkpt lat="42.98035167" lon="-0.15714667">
        <ele>786.0</ele>
        <time>2019-07-07T09:22:27.835Z</time>
      </trkpt>
      <trkpt lat="42.980325" lon="-0.15726667">
        <ele>787.0</ele>
        <time>2019-07-07T09:22:28.814Z</time>
      </trkpt>
      <trkpt lat="42.980325" lon="-0.15726667">
        <ele>787.0</ele>
        <time>2019-07-07T09:22:29.824Z</time>
      </trkpt>
      <trkpt lat="42.98029667" lon="-0.15738333">
        <ele>787.0</ele>
        <time>2019-07-07T09:22:30.834Z</time>
      </trkpt>
      <trkpt lat="42.98029667" lon="-0.15738333">
        <ele>787.0</ele>
        <time>2019-07-07T09:22:31.840Z</time>
      </trkpt>
      <trkpt lat="42.98027167" lon="-0.157505">
        <ele>787.0</ele>
        <time>2019-07-07T09:22:32.821Z</time>
      </trkpt>
      <trkpt lat="42.98026" lon="-0.15756833">
        <ele>787.0</ele>
        <time>2019-07-07T09:22:33.824Z</time>
      </trkpt>
      <trkpt lat="42.98026" lon="-0.15756833">
        <ele>787.0</ele>
        <time>2019-07-07T09:22:34.830Z</time>
      </trkpt>
      <trkpt lat="42.980235" lon="-0.157685">
        <ele>787.0</ele>
        <time>2019-07-07T09:22:35.838Z</time>
      </trkpt>
      <trkpt lat="42.98022333" lon="-0.157745">
        <ele>788.0</ele>
        <time>2019-07-07T09:22:36.803Z</time>
      </trkpt>
      <trkpt lat="42.98022333" lon="-0.157745">
        <ele>788.0</ele>
        <time>2019-07-07T09:22:37.809Z</time>
      </trkpt>
      <trkpt lat="42.9802" lon="-0.15786">
        <ele>788.0</ele>
        <time>2019-07-07T09:22:38.814Z</time>
      </trkpt>
      <trkpt lat="42.98019" lon="-0.157915">
        <ele>788.0</ele>
        <time>2019-07-07T09:22:39.834Z</time>
      </trkpt>
      <trkpt lat="42.98019" lon="-0.157915">
        <ele>788.0</ele>
        <time>2019-07-07T09:22:40.840Z</time>
      </trkpt>
      <trkpt lat="42.98017167" lon="-0.15802333">
        <ele>788.0</ele>
        <time>2019-07-07T09:22:41.809Z</time>
      </trkpt>
      <trkpt lat="42.98016167" lon="-0.15807667">
        <ele>789.0</ele>
        <time>2019-07-07T09:22:42.824Z</time>
      </trkpt>
      <trkpt lat="42.98016167" lon="-0.15807667">
        <ele>789.0</ele>
        <time>2019-07-07T09:22:43.833Z</time>
      </trkpt>
      <trkpt lat="42.98013667" lon="-0.15817667">
        <ele>789.0</ele>
        <time>2019-07-07T09:22:44.839Z</time>
      </trkpt>
      <trkpt lat="42.98013667" lon="-0.15817667">
        <ele>789.0</ele>
        <time>2019-07-07T09:22:45.804Z</time>
      </trkpt>
      <trkpt lat="42.98011667" lon="-0.15827833">
        <ele>790.0</ele>
        <time>2019-07-07T09:22:46.835Z</time>
      </trkpt>
      <trkpt lat="42.98010667" lon="-0.15833">
        <ele>790.0</ele>
        <time>2019-07-07T09:22:47.803Z</time>
      </trkpt>
      <trkpt lat="42.98010667" lon="-0.15833">
        <ele>790.0</ele>
        <time>2019-07-07T09:22:48.839Z</time>
      </trkpt>
      <trkpt lat="42.98009" lon="-0.15842833">
        <ele>790.0</ele>
        <time>2019-07-07T09:22:49.826Z</time>
      </trkpt>
      <trkpt lat="42.98009" lon="-0.15842833">
        <ele>790.0</ele>
        <time>2019-07-07T09:22:50.832Z</time>
      </trkpt>
      <trkpt lat="42.98007167" lon="-0.15852833">
        <ele>791.0</ele>
        <time>2019-07-07T09:22:51.804Z</time>
      </trkpt>
      <trkpt lat="42.98006333" lon="-0.15857667">
        <ele>791.0</ele>
        <time>2019-07-07T09:22:52.818Z</time>
      </trkpt>
      <trkpt lat="42.98006333" lon="-0.15857667">
        <ele>791.0</ele>
        <time>2019-07-07T09:22:53.824Z</time>
      </trkpt>
      <trkpt lat="42.980045" lon="-0.15867333">
        <ele>792.0</ele>
        <time>2019-07-07T09:22:54.831Z</time>
      </trkpt>
      <trkpt lat="42.980045" lon="-0.15867333">
        <ele>792.0</ele>
        <time>2019-07-07T09:22:55.837Z</time>
      </trkpt>
      <trkpt lat="42.98002167" lon="-0.15877">
        <ele>792.0</ele>
        <time>2019-07-07T09:22:56.824Z</time>
      </trkpt>
      <trkpt lat="42.98001167" lon="-0.15882">
        <ele>792.0</ele>
        <time>2019-07-07T09:22:57.834Z</time>
      </trkpt>
      <trkpt lat="42.98001167" lon="-0.15882">
        <ele>792.0</ele>
        <time>2019-07-07T09:22:58.839Z</time>
      </trkpt>
      <trkpt lat="42.979995" lon="-0.15892333">
        <ele>793.0</ele>
        <time>2019-07-07T09:22:59.814Z</time>
      </trkpt>
      <trkpt lat="42.97998333" lon="-0.15897167">
        <ele>793.0</ele>
        <time>2019-07-07T09:23:00.824Z</time>
      </trkpt>
      <trkpt lat="42.97998333" lon="-0.15897167">
        <ele>793.0</ele>
        <time>2019-07-07T09:23:01.831Z</time>
      </trkpt>
      <trkpt lat="42.979965" lon="-0.15905833">
        <ele>794.0</ele>
        <time>2019-07-07T09:23:02.804Z</time>
      </trkpt>
      <trkpt lat="42.979965" lon="-0.15905833">
        <ele>794.0</ele>
        <time>2019-07-07T09:23:03.809Z</time>
      </trkpt>
      <trkpt lat="42.97993667" lon="-0.15913667">
        <ele>794.0</ele>
        <time>2019-07-07T09:23:04.814Z</time>
      </trkpt>
      <trkpt lat="42.97993667" lon="-0.15913667">
        <ele>794.0</ele>
        <time>2019-07-07T09:23:05.821Z</time>
      </trkpt>
      <trkpt lat="42.97990167" lon="-0.15921">
        <ele>795.0</ele>
        <time>2019-07-07T09:23:06.824Z</time>
      </trkpt>
      <trkpt lat="42.97990167" lon="-0.15921">
        <ele>795.0</ele>
        <time>2019-07-07T09:23:07.830Z</time>
      </trkpt>
      <trkpt lat="42.97987833" lon="-0.15930167">
        <ele>795.0</ele>
        <time>2019-07-07T09:23:08.803Z</time>
      </trkpt>
      <trkpt lat="42.97986167" lon="-0.159345">
        <ele>795.0</ele>
        <time>2019-07-07T09:23:09.834Z</time>
      </trkpt>
      <trkpt lat="42.97986167" lon="-0.159345">
        <ele>795.0</ele>
        <time>2019-07-07T09:23:10.840Z</time>
      </trkpt>
      <trkpt lat="42.97984" lon="-0.159435">
        <ele>796.0</ele>
        <time>2019-07-07T09:23:11.809Z</time>
      </trkpt>
      <trkpt lat="42.97982833" lon="-0.159475">
        <ele>796.0</ele>
        <time>2019-07-07T09:23:12.824Z</time>
      </trkpt>
      <trkpt lat="42.97982833" lon="-0.159475">
        <ele>796.0</ele>
        <time>2019-07-07T09:23:13.829Z</time>
      </trkpt>
      <trkpt lat="42.97981" lon="-0.15956167">
        <ele>796.0</ele>
        <time>2019-07-07T09:23:14.803Z</time>
      </trkpt>
      <trkpt lat="42.97980167" lon="-0.15960333">
        <ele>796.0</ele>
        <time>2019-07-07T09:23:15.814Z</time>
      </trkpt>
      <trkpt lat="42.97980167" lon="-0.15960333">
        <ele>796.0</ele>
        <time>2019-07-07T09:23:16.819Z</time>
      </trkpt>
      <trkpt lat="42.97978167" lon="-0.159695">
        <ele>797.0</ele>
        <time>2019-07-07T09:23:17.834Z</time>
      </trkpt>
      <trkpt lat="42.97977333" lon="-0.15974167">
        <ele>797.0</ele>
        <time>2019-07-07T09:23:18.832Z</time>
      </trkpt>
      <trkpt lat="42.97976833" lon="-0.15978667">
        <ele>797.0</ele>
        <time>2019-07-07T09:23:19.834Z</time>
      </trkpt>
      <trkpt lat="42.97976833" lon="-0.15978667">
        <ele>797.0</ele>
        <time>2019-07-07T09:23:20.839Z</time>
      </trkpt>
      <trkpt lat="42.97976167" lon="-0.15988">
        <ele>797.0</ele>
        <time>2019-07-07T09:23:21.814Z</time>
      </trkpt>
      <trkpt lat="42.97975667" lon="-0.15992667">
        <ele>798.0</ele>
        <time>2019-07-07T09:23:22.802Z</time>
      </trkpt>
      <trkpt lat="42.97975667" lon="-0.15992667">
        <ele>798.0</ele>
        <time>2019-07-07T09:23:23.809Z</time>
      </trkpt>
      <trkpt lat="42.979745" lon="-0.16001833">
        <ele>798.0</ele>
        <time>2019-07-07T09:23:24.815Z</time>
      </trkpt>
      <trkpt lat="42.97973833" lon="-0.16006667">
        <ele>798.0</ele>
        <time>2019-07-07T09:23:25.824Z</time>
      </trkpt>
      <trkpt lat="42.97973833" lon="-0.16006667">
        <ele>798.0</ele>
        <time>2019-07-07T09:23:26.830Z</time>
      </trkpt>
      <trkpt lat="42.97973167" lon="-0.16015833">
        <ele>799.0</ele>
        <time>2019-07-07T09:23:27.834Z</time>
      </trkpt>
      <trkpt lat="42.97973167" lon="-0.16015833">
        <ele>799.0</ele>
        <time>2019-07-07T09:23:28.840Z</time>
      </trkpt>
      <trkpt lat="42.97973" lon="-0.16025">
        <ele>800.0</ele>
        <time>2019-07-07T09:23:29.812Z</time>
      </trkpt>
      <trkpt lat="42.97973" lon="-0.16025">
        <ele>800.0</ele>
        <time>2019-07-07T09:23:30.819Z</time>
      </trkpt>
      <trkpt lat="42.97972" lon="-0.16033833">
        <ele>801.0</ele>
        <time>2019-07-07T09:23:31.824Z</time>
      </trkpt>
      <trkpt lat="42.979715" lon="-0.16038667">
        <ele>801.0</ele>
        <time>2019-07-07T09:23:32.834Z</time>
      </trkpt>
      <trkpt lat="42.979715" lon="-0.16038667">
        <ele>801.0</ele>
        <time>2019-07-07T09:23:33.840Z</time>
      </trkpt>
      <trkpt lat="42.97971333" lon="-0.16048333">
        <ele>802.0</ele>
        <time>2019-07-07T09:23:34.804Z</time>
      </trkpt>
      <trkpt lat="42.97971333" lon="-0.16048333">
        <ele>802.0</ele>
        <time>2019-07-07T09:23:35.810Z</time>
      </trkpt>
      <trkpt lat="42.97970333" lon="-0.16056833">
        <ele>802.0</ele>
        <time>2019-07-07T09:23:36.828Z</time>
      </trkpt>
      <trkpt lat="42.97970333" lon="-0.16056833">
        <ele>802.0</ele>
        <time>2019-07-07T09:23:37.834Z</time>
      </trkpt>
      <trkpt lat="42.979695" lon="-0.16065667">
        <ele>803.0</ele>
        <time>2019-07-07T09:23:38.804Z</time>
      </trkpt>
      <trkpt lat="42.97969667" lon="-0.16069667">
        <ele>803.0</ele>
        <time>2019-07-07T09:23:39.814Z</time>
      </trkpt>
      <trkpt lat="42.97969667" lon="-0.16069667">
        <ele>803.0</ele>
        <time>2019-07-07T09:23:40.821Z</time>
      </trkpt>
      <trkpt lat="42.97969833" lon="-0.16078333">
        <ele>804.0</ele>
        <time>2019-07-07T09:23:41.827Z</time>
      </trkpt>
      <trkpt lat="42.97969833" lon="-0.16078333">
        <ele>804.0</ele>
        <time>2019-07-07T09:23:42.832Z</time>
      </trkpt>
      <trkpt lat="42.979695" lon="-0.16087667">
        <ele>805.0</ele>
        <time>2019-07-07T09:23:43.838Z</time>
      </trkpt>
      <trkpt lat="42.979695" lon="-0.16087667">
        <ele>805.0</ele>
        <time>2019-07-07T09:23:44.814Z</time>
      </trkpt>
      <trkpt lat="42.97969167" lon="-0.16096833">
        <ele>805.0</ele>
        <time>2019-07-07T09:23:45.814Z</time>
      </trkpt>
      <trkpt lat="42.97968667" lon="-0.16101167">
        <ele>805.0</ele>
        <time>2019-07-07T09:23:46.802Z</time>
      </trkpt>
      <trkpt lat="42.97968667" lon="-0.16101167">
        <ele>805.0</ele>
        <time>2019-07-07T09:23:47.824Z</time>
      </trkpt>
      <trkpt lat="42.97967667" lon="-0.16111167">
        <ele>806.0</ele>
        <time>2019-07-07T09:23:48.822Z</time>
      </trkpt>
      <trkpt lat="42.979675" lon="-0.16116">
        <ele>806.0</ele>
        <time>2019-07-07T09:23:49.826Z</time>
      </trkpt>
      <trkpt lat="42.979675" lon="-0.16116">
        <ele>806.0</ele>
        <time>2019-07-07T09:23:50.834Z</time>
      </trkpt>
      <trkpt lat="42.97967167" lon="-0.16126">
        <ele>807.0</ele>
        <time>2019-07-07T09:23:51.802Z</time>
      </trkpt>
      <trkpt lat="42.97967167" lon="-0.16126">
        <ele>807.0</ele>
        <time>2019-07-07T09:23:52.808Z</time>
      </trkpt>
      <trkpt lat="42.97966667" lon="-0.16136167">
        <ele>808.0</ele>
        <time>2019-07-07T09:23:53.824Z</time>
      </trkpt>
      <trkpt lat="42.97966667" lon="-0.16136167">
        <ele>808.0</ele>
        <time>2019-07-07T09:23:54.830Z</time>
      </trkpt>
      <trkpt lat="42.97966167" lon="-0.16146167">
        <ele>809.0</ele>
        <time>2019-07-07T09:23:55.804Z</time>
      </trkpt>
      <trkpt lat="42.97965833" lon="-0.16151333">
        <ele>809.0</ele>
        <time>2019-07-07T09:23:56.839Z</time>
      </trkpt>
      <trkpt lat="42.97965833" lon="-0.16151333">
        <ele>809.0</ele>
        <time>2019-07-07T09:23:57.805Z</time>
      </trkpt>
      <trkpt lat="42.97965" lon="-0.16162167">
        <ele>810.0</ele>
        <time>2019-07-07T09:23:58.804Z</time>
      </trkpt>
      <trkpt lat="42.97965" lon="-0.16162167">
        <ele>810.0</ele>
        <time>2019-07-07T09:23:59.810Z</time>
      </trkpt>
      <trkpt lat="42.97964333" lon="-0.161725">
        <ele>811.0</ele>
        <time>2019-07-07T09:24:00.829Z</time>
      </trkpt>
      <trkpt lat="42.97964333" lon="-0.161725">
        <ele>811.0</ele>
        <time>2019-07-07T09:24:01.835Z</time>
      </trkpt>
      <trkpt lat="42.97963167" lon="-0.161825">
        <ele>812.0</ele>
        <time>2019-07-07T09:24:02.838Z</time>
      </trkpt>
      <trkpt lat="42.97963167" lon="-0.161825">
        <ele>812.0</ele>
        <time>2019-07-07T09:24:03.804Z</time>
      </trkpt>
      <trkpt lat="42.97962333" lon="-0.16194">
        <ele>813.0</ele>
        <time>2019-07-07T09:24:04.814Z</time>
      </trkpt>
      <trkpt lat="42.97962333" lon="-0.16194">
        <ele>813.0</ele>
        <time>2019-07-07T09:24:05.821Z</time>
      </trkpt>
      <trkpt lat="42.97961833" lon="-0.16205333">
        <ele>813.0</ele>
        <time>2019-07-07T09:24:06.811Z</time>
      </trkpt>
      <trkpt lat="42.97961833" lon="-0.16205333">
        <ele>813.0</ele>
        <time>2019-07-07T09:24:07.817Z</time>
      </trkpt>
      <trkpt lat="42.97961333" lon="-0.16216833">
        <ele>814.0</ele>
        <time>2019-07-07T09:24:08.819Z</time>
      </trkpt>
      <trkpt lat="42.97961333" lon="-0.16222833">
        <ele>814.0</ele>
        <time>2019-07-07T09:24:09.803Z</time>
      </trkpt>
      <trkpt lat="42.97961333" lon="-0.16222833">
        <ele>814.0</ele>
        <time>2019-07-07T09:24:10.809Z</time>
      </trkpt>
      <trkpt lat="42.97961" lon="-0.16234333">
        <ele>815.0</ele>
        <time>2019-07-07T09:24:11.822Z</time>
      </trkpt>
      <trkpt lat="42.97961333" lon="-0.1624">
        <ele>815.0</ele>
        <time>2019-07-07T09:24:12.827Z</time>
      </trkpt>
      <trkpt lat="42.97961333" lon="-0.1624">
        <ele>815.0</ele>
        <time>2019-07-07T09:24:13.833Z</time>
      </trkpt>
      <trkpt lat="42.979625" lon="-0.162515">
        <ele>815.0</ele>
        <time>2019-07-07T09:24:14.823Z</time>
      </trkpt>
      <trkpt lat="42.979625" lon="-0.162515">
        <ele>815.0</ele>
        <time>2019-07-07T09:24:15.828Z</time>
      </trkpt>
      <trkpt lat="42.97964333" lon="-0.16263667">
        <ele>815.0</ele>
        <time>2019-07-07T09:24:16.811Z</time>
      </trkpt>
      <trkpt lat="42.97965167" lon="-0.162695">
        <ele>816.0</ele>
        <time>2019-07-07T09:24:17.823Z</time>
      </trkpt>
      <trkpt lat="42.97965167" lon="-0.162695">
        <ele>816.0</ele>
        <time>2019-07-07T09:24:18.829Z</time>
      </trkpt>
      <trkpt lat="42.97966333" lon="-0.1628">
        <ele>816.0</ele>
        <time>2019-07-07T09:24:19.838Z</time>
      </trkpt>
      <trkpt lat="42.97967" lon="-0.16285667">
        <ele>816.0</ele>
        <time>2019-07-07T09:24:20.834Z</time>
      </trkpt>
      <trkpt lat="42.97967" lon="-0.16285667">
        <ele>816.0</ele>
        <time>2019-07-07T09:24:21.840Z</time>
      </trkpt>
      <trkpt lat="42.97968833" lon="-0.162975">
        <ele>817.0</ele>
        <time>2019-07-07T09:24:22.834Z</time>
      </trkpt>
      <trkpt lat="42.97968833" lon="-0.162975">
        <ele>817.0</ele>
        <time>2019-07-07T09:24:23.840Z</time>
      </trkpt>
      <trkpt lat="42.97970833" lon="-0.16310167">
        <ele>818.0</ele>
        <time>2019-07-07T09:24:24.820Z</time>
      </trkpt>
      <trkpt lat="42.97970833" lon="-0.16310167">
        <ele>818.0</ele>
        <time>2019-07-07T09:24:25.826Z</time>
      </trkpt>
      <trkpt lat="42.979725" lon="-0.16323">
        <ele>818.0</ele>
        <time>2019-07-07T09:24:26.803Z</time>
      </trkpt>
      <trkpt lat="42.979725" lon="-0.16323">
        <ele>818.0</ele>
        <time>2019-07-07T09:24:27.810Z</time>
      </trkpt>
      <trkpt lat="42.97973833" lon="-0.163355">
        <ele>818.0</ele>
        <time>2019-07-07T09:24:28.824Z</time>
      </trkpt>
      <trkpt lat="42.979745" lon="-0.16342167">
        <ele>819.0</ele>
        <time>2019-07-07T09:24:29.839Z</time>
      </trkpt>
      <trkpt lat="42.979745" lon="-0.16342167">
        <ele>819.0</ele>
        <time>2019-07-07T09:24:30.805Z</time>
      </trkpt>
      <trkpt lat="42.97976" lon="-0.16355667">
        <ele>819.0</ele>
        <time>2019-07-07T09:24:31.835Z</time>
      </trkpt>
      <trkpt lat="42.97976" lon="-0.16355667">
        <ele>819.0</ele>
        <time>2019-07-07T09:24:32.801Z</time>
      </trkpt>
      <trkpt lat="42.97976333" lon="-0.16369333">
        <ele>820.0</ele>
        <time>2019-07-07T09:24:33.804Z</time>
      </trkpt>
      <trkpt lat="42.97976333" lon="-0.16369333">
        <ele>820.0</ele>
        <time>2019-07-07T09:24:34.810Z</time>
      </trkpt>
      <trkpt lat="42.97976667" lon="-0.16384">
        <ele>821.0</ele>
        <time>2019-07-07T09:24:35.814Z</time>
      </trkpt>
      <trkpt lat="42.97976667" lon="-0.16384">
        <ele>821.0</ele>
        <time>2019-07-07T09:24:36.821Z</time>
      </trkpt>
      <trkpt lat="42.97975667" lon="-0.16398667">
        <ele>821.0</ele>
        <time>2019-07-07T09:24:37.834Z</time>
      </trkpt>
      <trkpt lat="42.97975333" lon="-0.16406">
        <ele>821.0</ele>
        <time>2019-07-07T09:24:38.814Z</time>
      </trkpt>
      <trkpt lat="42.97974833" lon="-0.16413667">
        <ele>822.0</ele>
        <time>2019-07-07T09:24:39.822Z</time>
      </trkpt>
      <trkpt lat="42.97974833" lon="-0.16413667">
        <ele>822.0</ele>
        <time>2019-07-07T09:24:40.828Z</time>
      </trkpt>
      <trkpt lat="42.97973333" lon="-0.16428833">
        <ele>822.0</ele>
        <time>2019-07-07T09:24:41.840Z</time>
      </trkpt>
      <trkpt lat="42.97972667" lon="-0.16436333">
        <ele>822.0</ele>
        <time>2019-07-07T09:24:42.814Z</time>
      </trkpt>
      <trkpt lat="42.97972667" lon="-0.16436333">
        <ele>822.0</ele>
        <time>2019-07-07T09:24:43.820Z</time>
      </trkpt>
      <trkpt lat="42.979715" lon="-0.16451">
        <ele>822.0</ele>
        <time>2019-07-07T09:24:44.811Z</time>
      </trkpt>
      <trkpt lat="42.97970833" lon="-0.16458167">
        <ele>822.0</ele>
        <time>2019-07-07T09:24:45.833Z</time>
      </trkpt>
      <trkpt lat="42.97970833" lon="-0.16458167">
        <ele>822.0</ele>
        <time>2019-07-07T09:24:46.839Z</time>
      </trkpt>
      <trkpt lat="42.979695" lon="-0.164725">
        <ele>822.0</ele>
        <time>2019-07-07T09:24:47.823Z</time>
      </trkpt>
      <trkpt lat="42.979695" lon="-0.164725">
        <ele>822.0</ele>
        <time>2019-07-07T09:24:48.807Z</time>
      </trkpt>
      <trkpt lat="42.97968333" lon="-0.16487167">
        <ele>822.0</ele>
        <time>2019-07-07T09:24:49.824Z</time>
      </trkpt>
      <trkpt lat="42.97967667" lon="-0.16494333">
        <ele>823.0</ele>
        <time>2019-07-07T09:24:50.828Z</time>
      </trkpt>
      <trkpt lat="42.97967667" lon="-0.16494333">
        <ele>823.0</ele>
        <time>2019-07-07T09:24:51.835Z</time>
      </trkpt>
      <trkpt lat="42.97966667" lon="-0.16508167">
        <ele>823.0</ele>
        <time>2019-07-07T09:24:52.802Z</time>
      </trkpt>
      <trkpt lat="42.97966667" lon="-0.16508167">
        <ele>823.0</ele>
        <time>2019-07-07T09:24:53.808Z</time>
      </trkpt>
      <trkpt lat="42.97966333" lon="-0.165225">
        <ele>823.0</ele>
        <time>2019-07-07T09:24:54.814Z</time>
      </trkpt>
      <trkpt lat="42.97966333" lon="-0.165225">
        <ele>823.0</ele>
        <time>2019-07-07T09:24:55.821Z</time>
      </trkpt>
      <trkpt lat="42.97966833" lon="-0.16535667">
        <ele>823.0</ele>
        <time>2019-07-07T09:24:56.830Z</time>
      </trkpt>
      <trkpt lat="42.97966833" lon="-0.16535667">
        <ele>823.0</ele>
        <time>2019-07-07T09:24:57.836Z</time>
      </trkpt>
      <trkpt lat="42.97967833" lon="-0.16547">
        <ele>823.0</ele>
        <time>2019-07-07T09:24:58.808Z</time>
      </trkpt>
      <trkpt lat="42.97967833" lon="-0.16547">
        <ele>823.0</ele>
        <time>2019-07-07T09:24:59.815Z</time>
      </trkpt>
      <trkpt lat="42.97969167" lon="-0.16558167">
        <ele>824.0</ele>
        <time>2019-07-07T09:25:00.832Z</time>
      </trkpt>
      <trkpt lat="42.97969167" lon="-0.16558167">
        <ele>824.0</ele>
        <time>2019-07-07T09:25:01.840Z</time>
      </trkpt>
      <trkpt lat="42.97970667" lon="-0.16569667">
        <ele>824.0</ele>
        <time>2019-07-07T09:25:02.824Z</time>
      </trkpt>
      <trkpt lat="42.97971333" lon="-0.16575167">
        <ele>824.0</ele>
        <time>2019-07-07T09:25:03.820Z</time>
      </trkpt>
      <trkpt lat="42.97972" lon="-0.16580333">
        <ele>824.0</ele>
        <time>2019-07-07T09:25:04.831Z</time>
      </trkpt>
      <trkpt lat="42.97972" lon="-0.16580333">
        <ele>824.0</ele>
        <time>2019-07-07T09:25:05.838Z</time>
      </trkpt>
      <trkpt lat="42.979735" lon="-0.16591667">
        <ele>825.0</ele>
        <time>2019-07-07T09:25:06.804Z</time>
      </trkpt>
      <trkpt lat="42.979735" lon="-0.16591667">
        <ele>825.0</ele>
        <time>2019-07-07T09:25:07.809Z</time>
      </trkpt>
      <trkpt lat="42.97974833" lon="-0.166025">
        <ele>825.0</ele>
        <time>2019-07-07T09:25:08.833Z</time>
      </trkpt>
      <trkpt lat="42.97974833" lon="-0.166025">
        <ele>825.0</ele>
        <time>2019-07-07T09:25:09.839Z</time>
      </trkpt>
      <trkpt lat="42.97975167" lon="-0.16613167">
        <ele>825.0</ele>
        <time>2019-07-07T09:25:10.804Z</time>
      </trkpt>
      <trkpt lat="42.97975167" lon="-0.16613167">
        <ele>825.0</ele>
        <time>2019-07-07T09:25:11.813Z</time>
      </trkpt>
      <trkpt lat="42.97975167" lon="-0.16624">
        <ele>825.0</ele>
        <time>2019-07-07T09:25:12.808Z</time>
      </trkpt>
      <trkpt lat="42.97975167" lon="-0.16624">
        <ele>825.0</ele>
        <time>2019-07-07T09:25:13.813Z</time>
      </trkpt>
      <trkpt lat="42.97975167" lon="-0.16633833">
        <ele>826.0</ele>
        <time>2019-07-07T09:25:14.820Z</time>
      </trkpt>
      <trkpt lat="42.97975167" lon="-0.16633833">
        <ele>826.0</ele>
        <time>2019-07-07T09:25:15.826Z</time>
      </trkpt>
      <trkpt lat="42.97975333" lon="-0.16643833">
        <ele>826.0</ele>
        <time>2019-07-07T09:25:16.803Z</time>
      </trkpt>
      <trkpt lat="42.97975333" lon="-0.16643833">
        <ele>826.0</ele>
        <time>2019-07-07T09:25:17.809Z</time>
      </trkpt>
      <trkpt lat="42.979755" lon="-0.16654">
        <ele>827.0</ele>
        <time>2019-07-07T09:25:18.824Z</time>
      </trkpt>
      <trkpt lat="42.979755" lon="-0.16659667">
        <ele>827.0</ele>
        <time>2019-07-07T09:25:19.824Z</time>
      </trkpt>
      <trkpt lat="42.979755" lon="-0.16665167">
        <ele>827.0</ele>
        <time>2019-07-07T09:25:20.804Z</time>
      </trkpt>
      <trkpt lat="42.979755" lon="-0.16665167">
        <ele>827.0</ele>
        <time>2019-07-07T09:25:21.811Z</time>
      </trkpt>
      <trkpt lat="42.979755" lon="-0.16675833">
        <ele>827.0</ele>
        <time>2019-07-07T09:25:22.814Z</time>
      </trkpt>
      <trkpt lat="42.979755" lon="-0.16675833">
        <ele>827.0</ele>
        <time>2019-07-07T09:25:23.820Z</time>
      </trkpt>
      <trkpt lat="42.97975667" lon="-0.16687">
        <ele>828.0</ele>
        <time>2019-07-07T09:25:24.834Z</time>
      </trkpt>
      <trkpt lat="42.97975667" lon="-0.16687">
        <ele>828.0</ele>
        <time>2019-07-07T09:25:25.840Z</time>
      </trkpt>
      <trkpt lat="42.97976" lon="-0.16697833">
        <ele>828.0</ele>
        <time>2019-07-07T09:25:26.824Z</time>
      </trkpt>
      <trkpt lat="42.97976" lon="-0.16697833">
        <ele>828.0</ele>
        <time>2019-07-07T09:25:27.830Z</time>
      </trkpt>
      <trkpt lat="42.97976167" lon="-0.16708667">
        <ele>828.0</ele>
        <time>2019-07-07T09:25:28.834Z</time>
      </trkpt>
      <trkpt lat="42.97976167" lon="-0.16708667">
        <ele>828.0</ele>
        <time>2019-07-07T09:25:29.840Z</time>
      </trkpt>
      <trkpt lat="42.97976833" lon="-0.16719333">
        <ele>829.0</ele>
        <time>2019-07-07T09:25:30.814Z</time>
      </trkpt>
      <trkpt lat="42.97976833" lon="-0.16719333">
        <ele>829.0</ele>
        <time>2019-07-07T09:25:31.823Z</time>
      </trkpt>
      <trkpt lat="42.97977667" lon="-0.16730167">
        <ele>829.0</ele>
        <time>2019-07-07T09:25:32.839Z</time>
      </trkpt>
      <trkpt lat="42.97977667" lon="-0.16730167">
        <ele>829.0</ele>
        <time>2019-07-07T09:25:33.805Z</time>
      </trkpt>
      <trkpt lat="42.97978333" lon="-0.16741333">
        <ele>830.0</ele>
        <time>2019-07-07T09:25:34.804Z</time>
      </trkpt>
      <trkpt lat="42.97978333" lon="-0.16741333">
        <ele>830.0</ele>
        <time>2019-07-07T09:25:35.811Z</time>
      </trkpt>
      <trkpt lat="42.97979167" lon="-0.16751833">
        <ele>830.0</ele>
        <time>2019-07-07T09:25:36.829Z</time>
      </trkpt>
      <trkpt lat="42.97979167" lon="-0.16751833">
        <ele>830.0</ele>
        <time>2019-07-07T09:25:37.835Z</time>
      </trkpt>
      <trkpt lat="42.97979333" lon="-0.167615">
        <ele>830.0</ele>
        <time>2019-07-07T09:25:38.804Z</time>
      </trkpt>
      <trkpt lat="42.97979833" lon="-0.16767167">
        <ele>830.0</ele>
        <time>2019-07-07T09:25:39.813Z</time>
      </trkpt>
      <trkpt lat="42.97979833" lon="-0.16767167">
        <ele>830.0</ele>
        <time>2019-07-07T09:25:40.821Z</time>
      </trkpt>
      <trkpt lat="42.9798" lon="-0.16778833">
        <ele>831.0</ele>
        <time>2019-07-07T09:25:41.834Z</time>
      </trkpt>
      <trkpt lat="42.97979667" lon="-0.16784333">
        <ele>831.0</ele>
        <time>2019-07-07T09:25:42.809Z</time>
      </trkpt>
      <trkpt lat="42.97979667" lon="-0.16784333">
        <ele>831.0</ele>
        <time>2019-07-07T09:25:43.815Z</time>
      </trkpt>
      <trkpt lat="42.97978" lon="-0.16796333">
        <ele>832.0</ele>
        <time>2019-07-07T09:25:44.830Z</time>
      </trkpt>
      <trkpt lat="42.97976667" lon="-0.16801833">
        <ele>832.0</ele>
        <time>2019-07-07T09:25:45.807Z</time>
      </trkpt>
      <trkpt lat="42.97976667" lon="-0.16801833">
        <ele>832.0</ele>
        <time>2019-07-07T09:25:46.813Z</time>
      </trkpt>
      <trkpt lat="42.97973667" lon="-0.16812833">
        <ele>833.0</ele>
        <time>2019-07-07T09:25:47.813Z</time>
      </trkpt>
      <trkpt lat="42.97972167" lon="-0.16818667">
        <ele>833.0</ele>
        <time>2019-07-07T09:25:48.818Z</time>
      </trkpt>
      <trkpt lat="42.97970667" lon="-0.168245">
        <ele>834.0</ele>
        <time>2019-07-07T09:25:49.811Z</time>
      </trkpt>
      <trkpt lat="42.97970667" lon="-0.168245">
        <ele>834.0</ele>
        <time>2019-07-07T09:25:50.819Z</time>
      </trkpt>
      <trkpt lat="42.97967667" lon="-0.16836167">
        <ele>835.0</ele>
        <time>2019-07-07T09:25:51.834Z</time>
      </trkpt>
      <trkpt lat="42.97967667" lon="-0.16836167">
        <ele>835.0</ele>
        <time>2019-07-07T09:25:52.840Z</time>
      </trkpt>
      <trkpt lat="42.97964667" lon="-0.16848167">
        <ele>835.0</ele>
        <time>2019-07-07T09:25:53.807Z</time>
      </trkpt>
      <trkpt lat="42.97964667" lon="-0.16848167">
        <ele>835.0</ele>
        <time>2019-07-07T09:25:54.813Z</time>
      </trkpt>
      <trkpt lat="42.97961833" lon="-0.16860333">
        <ele>836.0</ele>
        <time>2019-07-07T09:25:55.819Z</time>
      </trkpt>
      <trkpt lat="42.97961833" lon="-0.16860333">
        <ele>836.0</ele>
        <time>2019-07-07T09:25:56.825Z</time>
      </trkpt>
      <trkpt lat="42.97958667" lon="-0.16872333">
        <ele>837.0</ele>
        <time>2019-07-07T09:25:57.834Z</time>
      </trkpt>
      <trkpt lat="42.97958667" lon="-0.16872333">
        <ele>837.0</ele>
        <time>2019-07-07T09:25:58.840Z</time>
      </trkpt>
      <trkpt lat="42.97955667" lon="-0.16885333">
        <ele>837.0</ele>
        <time>2019-07-07T09:25:59.834Z</time>
      </trkpt>
      <trkpt lat="42.97955667" lon="-0.16885333">
        <ele>837.0</ele>
        <time>2019-07-07T09:26:00.839Z</time>
      </trkpt>
      <trkpt lat="42.97952" lon="-0.16899167">
        <ele>838.0</ele>
        <time>2019-07-07T09:26:01.814Z</time>
      </trkpt>
      <trkpt lat="42.97952" lon="-0.16899167">
        <ele>838.0</ele>
        <time>2019-07-07T09:26:02.820Z</time>
      </trkpt>
      <trkpt lat="42.97947667" lon="-0.16913333">
        <ele>838.0</ele>
        <time>2019-07-07T09:26:03.834Z</time>
      </trkpt>
      <trkpt lat="42.97947667" lon="-0.16913333">
        <ele>838.0</ele>
        <time>2019-07-07T09:26:04.840Z</time>
      </trkpt>
      <trkpt lat="42.97942833" lon="-0.16928333">
        <ele>838.0</ele>
        <time>2019-07-07T09:26:05.804Z</time>
      </trkpt>
      <trkpt lat="42.97940167" lon="-0.16936167">
        <ele>838.0</ele>
        <time>2019-07-07T09:26:06.814Z</time>
      </trkpt>
      <trkpt lat="42.97940167" lon="-0.16936167">
        <ele>838.0</ele>
        <time>2019-07-07T09:26:07.820Z</time>
      </trkpt>
      <trkpt lat="42.979345" lon="-0.16953333">
        <ele>839.0</ele>
        <time>2019-07-07T09:26:08.834Z</time>
      </trkpt>
      <trkpt lat="42.97931" lon="-0.16962167">
        <ele>839.0</ele>
        <time>2019-07-07T09:26:09.814Z</time>
      </trkpt>
      <trkpt lat="42.97931" lon="-0.16962167">
        <ele>839.0</ele>
        <time>2019-07-07T09:26:10.821Z</time>
      </trkpt>
      <trkpt lat="42.97921333" lon="-0.1698">
        <ele>840.0</ele>
        <time>2019-07-07T09:26:11.804Z</time>
      </trkpt>
      <trkpt lat="42.97921333" lon="-0.1698">
        <ele>840.0</ele>
        <time>2019-07-07T09:26:12.810Z</time>
      </trkpt>
      <trkpt lat="42.97911667" lon="-0.16999">
        <ele>840.0</ele>
        <time>2019-07-07T09:26:13.820Z</time>
      </trkpt>
      <trkpt lat="42.97911667" lon="-0.16999">
        <ele>840.0</ele>
        <time>2019-07-07T09:26:14.826Z</time>
      </trkpt>
      <trkpt lat="42.97904167" lon="-0.17020167">
        <ele>840.0</ele>
        <time>2019-07-07T09:26:15.804Z</time>
      </trkpt>
      <trkpt lat="42.97902167" lon="-0.17031667">
        <ele>840.0</ele>
        <time>2019-07-07T09:26:16.811Z</time>
      </trkpt>
      <trkpt lat="42.97902167" lon="-0.17031667">
        <ele>840.0</ele>
        <time>2019-07-07T09:26:17.822Z</time>
      </trkpt>
      <trkpt lat="42.97901167" lon="-0.170545">
        <ele>840.0</ele>
        <time>2019-07-07T09:26:18.829Z</time>
      </trkpt>
      <trkpt lat="42.97901167" lon="-0.170545">
        <ele>840.0</ele>
        <time>2019-07-07T09:26:19.838Z</time>
      </trkpt>
      <trkpt lat="42.97901" lon="-0.17078667">
        <ele>840.0</ele>
        <time>2019-07-07T09:26:20.834Z</time>
      </trkpt>
      <trkpt lat="42.97901" lon="-0.17078667">
        <ele>840.0</ele>
        <time>2019-07-07T09:26:21.839Z</time>
      </trkpt>
      <trkpt lat="42.97899167" lon="-0.17103">
        <ele>840.0</ele>
        <time>2019-07-07T09:26:22.804Z</time>
      </trkpt>
      <trkpt lat="42.978975" lon="-0.17114833">
        <ele>840.0</ele>
        <time>2019-07-07T09:26:23.834Z</time>
      </trkpt>
      <trkpt lat="42.978975" lon="-0.17114833">
        <ele>840.0</ele>
        <time>2019-07-07T09:26:24.840Z</time>
      </trkpt>
      <trkpt lat="42.97891667" lon="-0.17137333">
        <ele>841.0</ele>
        <time>2019-07-07T09:26:25.804Z</time>
      </trkpt>
      <trkpt lat="42.97891667" lon="-0.17137333">
        <ele>841.0</ele>
        <time>2019-07-07T09:26:26.810Z</time>
      </trkpt>
      <trkpt lat="42.97884167" lon="-0.171585">
        <ele>841.0</ele>
        <time>2019-07-07T09:26:27.828Z</time>
      </trkpt>
      <trkpt lat="42.97884167" lon="-0.171585">
        <ele>841.0</ele>
        <time>2019-07-07T09:26:28.835Z</time>
      </trkpt>
      <trkpt lat="42.97874833" lon="-0.171795">
        <ele>841.0</ele>
        <time>2019-07-07T09:26:29.804Z</time>
      </trkpt>
      <trkpt lat="42.97874833" lon="-0.171795">
        <ele>841.0</ele>
        <time>2019-07-07T09:26:30.810Z</time>
      </trkpt>
      <trkpt lat="42.978655" lon="-0.17201">
        <ele>841.0</ele>
        <time>2019-07-07T09:26:31.834Z</time>
      </trkpt>
      <trkpt lat="42.97860667" lon="-0.17212167">
        <ele>841.0</ele>
        <time>2019-07-07T09:26:32.814Z</time>
      </trkpt>
      <trkpt lat="42.97860667" lon="-0.17212167">
        <ele>841.0</ele>
        <time>2019-07-07T09:26:33.820Z</time>
      </trkpt>
      <trkpt lat="42.978505" lon="-0.17235167">
        <ele>841.0</ele>
        <time>2019-07-07T09:26:34.804Z</time>
      </trkpt>
      <trkpt lat="42.978505" lon="-0.17235167">
        <ele>841.0</ele>
        <time>2019-07-07T09:26:35.809Z</time>
      </trkpt>
      <trkpt lat="42.9784" lon="-0.17259333">
        <ele>841.0</ele>
        <time>2019-07-07T09:26:36.804Z</time>
      </trkpt>
      <trkpt lat="42.97835167" lon="-0.17272">
        <ele>841.0</ele>
        <time>2019-07-07T09:26:37.805Z</time>
      </trkpt>
      <trkpt lat="42.97835167" lon="-0.17272">
        <ele>841.0</ele>
        <time>2019-07-07T09:26:38.811Z</time>
      </trkpt>
      <trkpt lat="42.97828" lon="-0.173">
        <ele>841.0</ele>
        <time>2019-07-07T09:26:39.804Z</time>
      </trkpt>
      <trkpt lat="42.978255" lon="-0.173145">
        <ele>841.0</ele>
        <time>2019-07-07T09:26:40.822Z</time>
      </trkpt>
      <trkpt lat="42.97823833" lon="-0.17329167">
        <ele>841.0</ele>
        <time>2019-07-07T09:26:41.834Z</time>
      </trkpt>
      <trkpt lat="42.97823833" lon="-0.17329167">
        <ele>841.0</ele>
        <time>2019-07-07T09:26:42.839Z</time>
      </trkpt>
      <trkpt lat="42.978225" lon="-0.17360167">
        <ele>840.0</ele>
        <time>2019-07-07T09:26:43.825Z</time>
      </trkpt>
      <trkpt lat="42.97822333" lon="-0.17375833">
        <ele>840.0</ele>
        <time>2019-07-07T09:26:44.832Z</time>
      </trkpt>
      <trkpt lat="42.97822333" lon="-0.17375833">
        <ele>840.0</ele>
        <time>2019-07-07T09:26:45.838Z</time>
      </trkpt>
      <trkpt lat="42.978225" lon="-0.17408167">
        <ele>840.0</ele>
        <time>2019-07-07T09:26:46.824Z</time>
      </trkpt>
      <trkpt lat="42.978225" lon="-0.17408167">
        <ele>840.0</ele>
        <time>2019-07-07T09:26:47.829Z</time>
      </trkpt>
      <trkpt lat="42.97822167" lon="-0.17442167">
        <ele>840.0</ele>
        <time>2019-07-07T09:26:48.834Z</time>
      </trkpt>
      <trkpt lat="42.97822167" lon="-0.17442167">
        <ele>840.0</ele>
        <time>2019-07-07T09:26:49.840Z</time>
      </trkpt>
      <trkpt lat="42.978225" lon="-0.17474333">
        <ele>840.0</ele>
        <time>2019-07-07T09:26:50.804Z</time>
      </trkpt>
      <trkpt lat="42.978225" lon="-0.17474333">
        <ele>840.0</ele>
        <time>2019-07-07T09:26:51.810Z</time>
      </trkpt>
      <trkpt lat="42.978245" lon="-0.17503">
        <ele>840.0</ele>
        <time>2019-07-07T09:26:52.816Z</time>
      </trkpt>
      <trkpt lat="42.978245" lon="-0.17503">
        <ele>840.0</ele>
        <time>2019-07-07T09:26:53.824Z</time>
      </trkpt>
      <trkpt lat="42.97826333" lon="-0.17531">
        <ele>840.0</ele>
        <time>2019-07-07T09:26:54.802Z</time>
      </trkpt>
      <trkpt lat="42.97826333" lon="-0.17531">
        <ele>840.0</ele>
        <time>2019-07-07T09:26:55.808Z</time>
      </trkpt>
      <trkpt lat="42.97828333" lon="-0.17557333">
        <ele>840.0</ele>
        <time>2019-07-07T09:26:56.804Z</time>
      </trkpt>
      <trkpt lat="42.97828333" lon="-0.17557333">
        <ele>840.0</ele>
        <time>2019-07-07T09:26:57.810Z</time>
      </trkpt>
      <trkpt lat="42.97828167" lon="-0.17581667">
        <ele>840.0</ele>
        <time>2019-07-07T09:26:58.832Z</time>
      </trkpt>
      <trkpt lat="42.97828167" lon="-0.17581667">
        <ele>840.0</ele>
        <time>2019-07-07T09:26:59.839Z</time>
      </trkpt>
      <trkpt lat="42.97827667" lon="-0.17606167">
        <ele>840.0</ele>
        <time>2019-07-07T09:27:00.811Z</time>
      </trkpt>
      <trkpt lat="42.97827667" lon="-0.17606167">
        <ele>840.0</ele>
        <time>2019-07-07T09:27:01.818Z</time>
      </trkpt>
      <trkpt lat="42.97826667" lon="-0.17629833">
        <ele>839.0</ele>
        <time>2019-07-07T09:27:02.804Z</time>
      </trkpt>
      <trkpt lat="42.97825667" lon="-0.17641333">
        <ele>839.0</ele>
        <time>2019-07-07T09:27:03.811Z</time>
      </trkpt>
      <trkpt lat="42.97824" lon="-0.17652333">
        <ele>839.0</ele>
        <time>2019-07-07T09:27:04.804Z</time>
      </trkpt>
      <trkpt lat="42.97824" lon="-0.17652333">
        <ele>839.0</ele>
        <time>2019-07-07T09:27:05.809Z</time>
      </trkpt>
      <trkpt lat="42.97819667" lon="-0.17673667">
        <ele>840.0</ele>
        <time>2019-07-07T09:27:06.819Z</time>
      </trkpt>
      <trkpt lat="42.978165" lon="-0.17684167">
        <ele>840.0</ele>
        <time>2019-07-07T09:27:07.806Z</time>
      </trkpt>
      <trkpt lat="42.978165" lon="-0.17684167">
        <ele>840.0</ele>
        <time>2019-07-07T09:27:08.812Z</time>
      </trkpt>
      <trkpt lat="42.978095" lon="-0.17703333">
        <ele>840.0</ele>
        <time>2019-07-07T09:27:09.824Z</time>
      </trkpt>
      <trkpt lat="42.978095" lon="-0.17703333">
        <ele>840.0</ele>
        <time>2019-07-07T09:27:10.830Z</time>
      </trkpt>
      <trkpt lat="42.978015" lon="-0.17722667">
        <ele>840.0</ele>
        <time>2019-07-07T09:27:11.830Z</time>
      </trkpt>
      <trkpt lat="42.97798167" lon="-0.17732667">
        <ele>839.0</ele>
        <time>2019-07-07T09:27:12.824Z</time>
      </trkpt>
      <trkpt lat="42.97798167" lon="-0.17732667">
        <ele>839.0</ele>
        <time>2019-07-07T09:27:13.831Z</time>
      </trkpt>
      <trkpt lat="42.977935" lon="-0.17753833">
        <ele>839.0</ele>
        <time>2019-07-07T09:27:14.829Z</time>
      </trkpt>
      <trkpt lat="42.977935" lon="-0.17753833">
        <ele>839.0</ele>
        <time>2019-07-07T09:27:15.835Z</time>
      </trkpt>
      <trkpt lat="42.9779" lon="-0.17774667">
        <ele>839.0</ele>
        <time>2019-07-07T09:27:16.804Z</time>
      </trkpt>
      <trkpt lat="42.9779" lon="-0.17774667">
        <ele>839.0</ele>
        <time>2019-07-07T09:27:17.809Z</time>
      </trkpt>
      <trkpt lat="42.97786667" lon="-0.177945">
        <ele>839.0</ele>
        <time>2019-07-07T09:27:18.829Z</time>
      </trkpt>
      <trkpt lat="42.97784667" lon="-0.17803833">
        <ele>840.0</ele>
        <time>2019-07-07T09:27:19.834Z</time>
      </trkpt>
      <trkpt lat="42.97782833" lon="-0.17813">
        <ele>840.0</ele>
        <time>2019-07-07T09:27:20.809Z</time>
      </trkpt>
      <trkpt lat="42.97782833" lon="-0.17813">
        <ele>840.0</ele>
        <time>2019-07-07T09:27:21.816Z</time>
      </trkpt>
      <trkpt lat="42.97779333" lon="-0.17830667">
        <ele>840.0</ele>
        <time>2019-07-07T09:27:22.824Z</time>
      </trkpt>
      <trkpt lat="42.97779333" lon="-0.17830667">
        <ele>840.0</ele>
        <time>2019-07-07T09:27:23.830Z</time>
      </trkpt>
      <trkpt lat="42.97776" lon="-0.17847833">
        <ele>840.0</ele>
        <time>2019-07-07T09:27:24.803Z</time>
      </trkpt>
      <trkpt lat="42.97774" lon="-0.17856667">
        <ele>840.0</ele>
        <time>2019-07-07T09:27:25.821Z</time>
      </trkpt>
      <trkpt lat="42.97774" lon="-0.17856667">
        <ele>840.0</ele>
        <time>2019-07-07T09:27:26.827Z</time>
      </trkpt>
      <trkpt lat="42.9777" lon="-0.17874333">
        <ele>840.0</ele>
        <time>2019-07-07T09:27:27.839Z</time>
      </trkpt>
      <trkpt lat="42.9777" lon="-0.17874333">
        <ele>840.0</ele>
        <time>2019-07-07T09:27:28.805Z</time>
      </trkpt>
      <trkpt lat="42.97766167" lon="-0.17892167">
        <ele>840.0</ele>
        <time>2019-07-07T09:27:29.814Z</time>
      </trkpt>
      <trkpt lat="42.97766167" lon="-0.17892167">
        <ele>840.0</ele>
        <time>2019-07-07T09:27:30.820Z</time>
      </trkpt>
      <trkpt lat="42.97762833" lon="-0.17909833">
        <ele>841.0</ele>
        <time>2019-07-07T09:27:31.824Z</time>
      </trkpt>
      <trkpt lat="42.97762833" lon="-0.17909833">
        <ele>841.0</ele>
        <time>2019-07-07T09:27:32.830Z</time>
      </trkpt>
      <trkpt lat="42.97760333" lon="-0.17927667">
        <ele>841.0</ele>
        <time>2019-07-07T09:27:33.814Z</time>
      </trkpt>
      <trkpt lat="42.97759167" lon="-0.17936333">
        <ele>841.0</ele>
        <time>2019-07-07T09:27:34.803Z</time>
      </trkpt>
      <trkpt lat="42.97759167" lon="-0.17936333">
        <ele>841.0</ele>
        <time>2019-07-07T09:27:35.809Z</time>
      </trkpt>
      <trkpt lat="42.97757167" lon="-0.17953333">
        <ele>842.0</ele>
        <time>2019-07-07T09:27:36.807Z</time>
      </trkpt>
      <trkpt lat="42.97757167" lon="-0.17953333">
        <ele>842.0</ele>
        <time>2019-07-07T09:27:37.813Z</time>
      </trkpt>
      <trkpt lat="42.977555" lon="-0.17970833">
        <ele>842.0</ele>
        <time>2019-07-07T09:27:38.834Z</time>
      </trkpt>
      <trkpt lat="42.977555" lon="-0.17970833">
        <ele>842.0</ele>
        <time>2019-07-07T09:27:39.840Z</time>
      </trkpt>
      <trkpt lat="42.97754333" lon="-0.17987667">
        <ele>842.0</ele>
        <time>2019-07-07T09:27:40.823Z</time>
      </trkpt>
      <trkpt lat="42.97754333" lon="-0.17987667">
        <ele>842.0</ele>
        <time>2019-07-07T09:27:41.828Z</time>
      </trkpt>
      <trkpt lat="42.97752833" lon="-0.18003667">
        <ele>843.0</ele>
        <time>2019-07-07T09:27:42.819Z</time>
      </trkpt>
      <trkpt lat="42.97752833" lon="-0.18003667">
        <ele>843.0</ele>
        <time>2019-07-07T09:27:43.825Z</time>
      </trkpt>
      <trkpt lat="42.97751" lon="-0.180195">
        <ele>843.0</ele>
        <time>2019-07-07T09:27:44.802Z</time>
      </trkpt>
      <trkpt lat="42.97751" lon="-0.180195">
        <ele>843.0</ele>
        <time>2019-07-07T09:27:45.808Z</time>
      </trkpt>
      <trkpt lat="42.97748833" lon="-0.180355">
        <ele>843.0</ele>
        <time>2019-07-07T09:27:46.812Z</time>
      </trkpt>
      <trkpt lat="42.97748833" lon="-0.180355">
        <ele>843.0</ele>
        <time>2019-07-07T09:27:47.822Z</time>
      </trkpt>
      <trkpt lat="42.97746667" lon="-0.18051">
        <ele>844.0</ele>
        <time>2019-07-07T09:27:48.813Z</time>
      </trkpt>
      <trkpt lat="42.97746167" lon="-0.180585">
        <ele>844.0</ele>
        <time>2019-07-07T09:27:49.821Z</time>
      </trkpt>
      <trkpt lat="42.97746167" lon="-0.180585">
        <ele>844.0</ele>
        <time>2019-07-07T09:27:50.827Z</time>
      </trkpt>
      <trkpt lat="42.97743167" lon="-0.18072833">
        <ele>844.0</ele>
        <time>2019-07-07T09:27:51.808Z</time>
      </trkpt>
      <trkpt lat="42.97740833" lon="-0.1808">
        <ele>845.0</ele>
        <time>2019-07-07T09:27:52.801Z</time>
      </trkpt>
      <trkpt lat="42.97740833" lon="-0.1808">
        <ele>845.0</ele>
        <time>2019-07-07T09:27:53.812Z</time>
      </trkpt>
      <trkpt lat="42.977345" lon="-0.18093667">
        <ele>845.0</ele>
        <time>2019-07-07T09:27:54.814Z</time>
      </trkpt>
      <trkpt lat="42.977345" lon="-0.18093667">
        <ele>845.0</ele>
        <time>2019-07-07T09:27:55.820Z</time>
      </trkpt>
      <trkpt lat="42.97727" lon="-0.18107667">
        <ele>845.0</ele>
        <time>2019-07-07T09:27:56.834Z</time>
      </trkpt>
      <trkpt lat="42.97723" lon="-0.181145">
        <ele>846.0</ele>
        <time>2019-07-07T09:27:57.804Z</time>
      </trkpt>
      <trkpt lat="42.97723" lon="-0.181145">
        <ele>846.0</ele>
        <time>2019-07-07T09:27:58.809Z</time>
      </trkpt>
      <trkpt lat="42.97714667" lon="-0.18128">
        <ele>846.0</ele>
        <time>2019-07-07T09:27:59.837Z</time>
      </trkpt>
      <trkpt lat="42.97714667" lon="-0.18128">
        <ele>846.0</ele>
        <time>2019-07-07T09:28:00.835Z</time>
      </trkpt>
      <trkpt lat="42.97706" lon="-0.18141667">
        <ele>846.0</ele>
        <time>2019-07-07T09:28:01.832Z</time>
      </trkpt>
      <trkpt lat="42.97706" lon="-0.18141667">
        <ele>846.0</ele>
        <time>2019-07-07T09:28:02.825Z</time>
      </trkpt>
      <trkpt lat="42.97697667" lon="-0.181555">
        <ele>847.0</ele>
        <time>2019-07-07T09:28:03.833Z</time>
      </trkpt>
      <trkpt lat="42.97693833" lon="-0.18162833">
        <ele>847.0</ele>
        <time>2019-07-07T09:28:04.814Z</time>
      </trkpt>
      <trkpt lat="42.97690167" lon="-0.181705">
        <ele>847.0</ele>
        <time>2019-07-07T09:28:05.804Z</time>
      </trkpt>
      <trkpt lat="42.97686667" lon="-0.18178167">
        <ele>847.0</ele>
        <time>2019-07-07T09:28:06.814Z</time>
      </trkpt>
      <trkpt lat="42.97683167" lon="-0.18186333">
        <ele>847.0</ele>
        <time>2019-07-07T09:28:07.834Z</time>
      </trkpt>
      <trkpt lat="42.97683167" lon="-0.18186333">
        <ele>847.0</ele>
        <time>2019-07-07T09:28:08.840Z</time>
      </trkpt>
      <trkpt lat="42.97675833" lon="-0.18203">
        <ele>847.0</ele>
        <time>2019-07-07T09:28:09.801Z</time>
      </trkpt>
      <trkpt lat="42.97675833" lon="-0.18203">
        <ele>847.0</ele>
        <time>2019-07-07T09:28:10.822Z</time>
      </trkpt>
      <trkpt lat="42.97668333" lon="-0.18219333">
        <ele>847.0</ele>
        <time>2019-07-07T09:28:11.833Z</time>
      </trkpt>
      <trkpt lat="42.976645" lon="-0.18227333">
        <ele>847.0</ele>
        <time>2019-07-07T09:28:12.834Z</time>
      </trkpt>
      <trkpt lat="42.976645" lon="-0.18227333">
        <ele>847.0</ele>
        <time>2019-07-07T09:28:13.839Z</time>
      </trkpt>
      <trkpt lat="42.97656833" lon="-0.18243333">
        <ele>846.0</ele>
        <time>2019-07-07T09:28:14.815Z</time>
      </trkpt>
      <trkpt lat="42.97656833" lon="-0.18243333">
        <ele>846.0</ele>
        <time>2019-07-07T09:28:15.821Z</time>
      </trkpt>
      <trkpt lat="42.976505" lon="-0.18259333">
        <ele>846.0</ele>
        <time>2019-07-07T09:28:16.804Z</time>
      </trkpt>
      <trkpt lat="42.97648" lon="-0.18267833">
        <ele>845.0</ele>
        <time>2019-07-07T09:28:17.821Z</time>
      </trkpt>
      <trkpt lat="42.97648" lon="-0.18267833">
        <ele>845.0</ele>
        <time>2019-07-07T09:28:18.827Z</time>
      </trkpt>
      <trkpt lat="42.97643" lon="-0.18285333">
        <ele>845.0</ele>
        <time>2019-07-07T09:28:19.803Z</time>
      </trkpt>
      <trkpt lat="42.97640667" lon="-0.18294333">
        <ele>845.0</ele>
        <time>2019-07-07T09:28:20.824Z</time>
      </trkpt>
      <trkpt lat="42.97640667" lon="-0.18294333">
        <ele>845.0</ele>
        <time>2019-07-07T09:28:21.835Z</time>
      </trkpt>
      <trkpt lat="42.97636" lon="-0.18311833">
        <ele>845.0</ele>
        <time>2019-07-07T09:28:22.834Z</time>
      </trkpt>
      <trkpt lat="42.976335" lon="-0.18320667">
        <ele>845.0</ele>
        <time>2019-07-07T09:28:23.824Z</time>
      </trkpt>
      <trkpt lat="42.976335" lon="-0.18320667">
        <ele>845.0</ele>
        <time>2019-07-07T09:28:24.830Z</time>
      </trkpt>
      <trkpt lat="42.97628" lon="-0.18339167">
        <ele>844.0</ele>
        <time>2019-07-07T09:28:25.804Z</time>
      </trkpt>
      <trkpt lat="42.97628" lon="-0.18339167">
        <ele>844.0</ele>
        <time>2019-07-07T09:28:26.810Z</time>
      </trkpt>
      <trkpt lat="42.97621833" lon="-0.18357667">
        <ele>844.0</ele>
        <time>2019-07-07T09:28:27.824Z</time>
      </trkpt>
      <trkpt lat="42.97621833" lon="-0.18357667">
        <ele>844.0</ele>
        <time>2019-07-07T09:28:28.831Z</time>
      </trkpt>
      <trkpt lat="42.97614667" lon="-0.183765">
        <ele>844.0</ele>
        <time>2019-07-07T09:28:29.803Z</time>
      </trkpt>
      <trkpt lat="42.97611" lon="-0.18386">
        <ele>843.0</ele>
        <time>2019-07-07T09:28:30.822Z</time>
      </trkpt>
      <trkpt lat="42.97611" lon="-0.18386">
        <ele>843.0</ele>
        <time>2019-07-07T09:28:31.832Z</time>
      </trkpt>
      <trkpt lat="42.97604" lon="-0.18406">
        <ele>843.0</ele>
        <time>2019-07-07T09:28:32.812Z</time>
      </trkpt>
      <trkpt lat="42.976005" lon="-0.18416333">
        <ele>843.0</ele>
        <time>2019-07-07T09:28:33.834Z</time>
      </trkpt>
      <trkpt lat="42.976005" lon="-0.18416333">
        <ele>843.0</ele>
        <time>2019-07-07T09:28:34.839Z</time>
      </trkpt>
      <trkpt lat="42.97593833" lon="-0.18437167">
        <ele>842.0</ele>
        <time>2019-07-07T09:28:35.804Z</time>
      </trkpt>
      <trkpt lat="42.97590833" lon="-0.18447833">
        <ele>842.0</ele>
        <time>2019-07-07T09:28:36.814Z</time>
      </trkpt>
      <trkpt lat="42.97590833" lon="-0.18447833">
        <ele>842.0</ele>
        <time>2019-07-07T09:28:37.820Z</time>
      </trkpt>
      <trkpt lat="42.97585167" lon="-0.18469">
        <ele>842.0</ele>
        <time>2019-07-07T09:28:38.831Z</time>
      </trkpt>
      <trkpt lat="42.97585167" lon="-0.18469">
        <ele>842.0</ele>
        <time>2019-07-07T09:28:39.840Z</time>
      </trkpt>
      <trkpt lat="42.97580167" lon="-0.18490833">
        <ele>842.0</ele>
        <time>2019-07-07T09:28:40.803Z</time>
      </trkpt>
      <trkpt lat="42.97580167" lon="-0.18490833">
        <ele>842.0</ele>
        <time>2019-07-07T09:28:41.810Z</time>
      </trkpt>
      <trkpt lat="42.97574" lon="-0.18511667">
        <ele>842.0</ele>
        <time>2019-07-07T09:28:42.812Z</time>
      </trkpt>
      <trkpt lat="42.97574" lon="-0.18511667">
        <ele>842.0</ele>
        <time>2019-07-07T09:28:43.822Z</time>
      </trkpt>
      <trkpt lat="42.97565833" lon="-0.18530167">
        <ele>842.0</ele>
        <time>2019-07-07T09:28:44.837Z</time>
      </trkpt>
      <trkpt lat="42.97565833" lon="-0.18530167">
        <ele>842.0</ele>
        <time>2019-07-07T09:28:45.802Z</time>
      </trkpt>
      <trkpt lat="42.97555833" lon="-0.18546833">
        <ele>842.0</ele>
        <time>2019-07-07T09:28:46.814Z</time>
      </trkpt>
      <trkpt lat="42.97555833" lon="-0.18546833">
        <ele>842.0</ele>
        <time>2019-07-07T09:28:47.831Z</time>
      </trkpt>
      <trkpt lat="42.97544833" lon="-0.185615">
        <ele>842.0</ele>
        <time>2019-07-07T09:28:48.833Z</time>
      </trkpt>
      <trkpt lat="42.97539333" lon="-0.18568333">
        <ele>842.0</ele>
        <time>2019-07-07T09:28:49.822Z</time>
      </trkpt>
      <trkpt lat="42.97539333" lon="-0.18568333">
        <ele>842.0</ele>
        <time>2019-07-07T09:28:50.830Z</time>
      </trkpt>
      <trkpt lat="42.97527833" lon="-0.18581833">
        <ele>842.0</ele>
        <time>2019-07-07T09:28:51.803Z</time>
      </trkpt>
      <trkpt lat="42.97522667" lon="-0.18589333">
        <ele>842.0</ele>
        <time>2019-07-07T09:28:52.804Z</time>
      </trkpt>
      <trkpt lat="42.97522667" lon="-0.18589333">
        <ele>842.0</ele>
        <time>2019-07-07T09:28:53.810Z</time>
      </trkpt>
      <trkpt lat="42.975135" lon="-0.18605333">
        <ele>842.0</ele>
        <time>2019-07-07T09:28:54.822Z</time>
      </trkpt>
      <trkpt lat="42.9751" lon="-0.18613667">
        <ele>842.0</ele>
        <time>2019-07-07T09:28:55.804Z</time>
      </trkpt>
      <trkpt lat="42.9751" lon="-0.18613667">
        <ele>842.0</ele>
        <time>2019-07-07T09:28:56.809Z</time>
      </trkpt>
      <trkpt lat="42.97505" lon="-0.18631">
        <ele>842.0</ele>
        <time>2019-07-07T09:28:57.814Z</time>
      </trkpt>
      <trkpt lat="42.97505" lon="-0.18631">
        <ele>842.0</ele>
        <time>2019-07-07T09:28:58.821Z</time>
      </trkpt>
      <trkpt lat="42.97502" lon="-0.18647333">
        <ele>843.0</ele>
        <time>2019-07-07T09:28:59.834Z</time>
      </trkpt>
      <trkpt lat="42.97500833" lon="-0.18655333">
        <ele>843.0</ele>
        <time>2019-07-07T09:29:00.804Z</time>
      </trkpt>
      <trkpt lat="42.97499667" lon="-0.186635">
        <ele>844.0</ele>
        <time>2019-07-07T09:29:01.808Z</time>
      </trkpt>
      <trkpt lat="42.97499667" lon="-0.186635">
        <ele>844.0</ele>
        <time>2019-07-07T09:29:02.814Z</time>
      </trkpt>
      <trkpt lat="42.97497667" lon="-0.18679">
        <ele>844.0</ele>
        <time>2019-07-07T09:29:03.804Z</time>
      </trkpt>
      <trkpt lat="42.97496667" lon="-0.18686333">
        <ele>844.0</ele>
        <time>2019-07-07T09:29:04.823Z</time>
      </trkpt>
      <trkpt lat="42.97496667" lon="-0.18686333">
        <ele>844.0</ele>
        <time>2019-07-07T09:29:05.829Z</time>
      </trkpt>
      <trkpt lat="42.97493667" lon="-0.18700667">
        <ele>845.0</ele>
        <time>2019-07-07T09:29:06.803Z</time>
      </trkpt>
      <trkpt lat="42.97491667" lon="-0.18707833">
        <ele>846.0</ele>
        <time>2019-07-07T09:29:07.814Z</time>
      </trkpt>
      <trkpt lat="42.97489" lon="-0.18715167">
        <ele>846.0</ele>
        <time>2019-07-07T09:29:08.824Z</time>
      </trkpt>
      <trkpt lat="42.97485833" lon="-0.18721667">
        <ele>846.0</ele>
        <time>2019-07-07T09:29:09.840Z</time>
      </trkpt>
      <trkpt lat="42.97485833" lon="-0.18721667">
        <ele>846.0</ele>
        <time>2019-07-07T09:29:10.806Z</time>
      </trkpt>
      <trkpt lat="42.974775" lon="-0.18732833">
        <ele>847.0</ele>
        <time>2019-07-07T09:29:11.834Z</time>
      </trkpt>
      <trkpt lat="42.974775" lon="-0.18732833">
        <ele>847.0</ele>
        <time>2019-07-07T09:29:12.840Z</time>
      </trkpt>
      <trkpt lat="42.97468667" lon="-0.18744">
        <ele>847.0</ele>
        <time>2019-07-07T09:29:13.806Z</time>
      </trkpt>
      <trkpt lat="42.97464833" lon="-0.18750667">
        <ele>847.0</ele>
        <time>2019-07-07T09:29:14.806Z</time>
      </trkpt>
      <trkpt lat="42.97464833" lon="-0.18750667">
        <ele>847.0</ele>
        <time>2019-07-07T09:29:15.812Z</time>
      </trkpt>
      <trkpt lat="42.97459167" lon="-0.187665">
        <ele>847.0</ele>
        <time>2019-07-07T09:29:16.824Z</time>
      </trkpt>
      <trkpt lat="42.97457333" lon="-0.18775167">
        <ele>847.0</ele>
        <time>2019-07-07T09:29:17.804Z</time>
      </trkpt>
      <trkpt lat="42.97457333" lon="-0.18775167">
        <ele>847.0</ele>
        <time>2019-07-07T09:29:18.810Z</time>
      </trkpt>
      <trkpt lat="42.97457" lon="-0.187935">
        <ele>847.0</ele>
        <time>2019-07-07T09:29:19.814Z</time>
      </trkpt>
      <trkpt lat="42.97457" lon="-0.187935">
        <ele>847.0</ele>
        <time>2019-07-07T09:29:20.820Z</time>
      </trkpt>
      <trkpt lat="42.9746" lon="-0.188105">
        <ele>847.0</ele>
        <time>2019-07-07T09:29:21.821Z</time>
      </trkpt>
      <trkpt lat="42.97462167" lon="-0.188185">
        <ele>847.0</ele>
        <time>2019-07-07T09:29:22.834Z</time>
      </trkpt>
      <trkpt lat="42.97462167" lon="-0.188185">
        <ele>847.0</ele>
        <time>2019-07-07T09:29:23.840Z</time>
      </trkpt>
      <trkpt lat="42.97466667" lon="-0.18833833">
        <ele>847.0</ele>
        <time>2019-07-07T09:29:24.804Z</time>
      </trkpt>
      <trkpt lat="42.97466667" lon="-0.18833833">
        <ele>847.0</ele>
        <time>2019-07-07T09:29:25.809Z</time>
      </trkpt>
      <trkpt lat="42.97471" lon="-0.18849">
        <ele>848.0</ele>
        <time>2019-07-07T09:29:26.809Z</time>
      </trkpt>
      <trkpt lat="42.97471" lon="-0.18849">
        <ele>848.0</ele>
        <time>2019-07-07T09:29:27.814Z</time>
      </trkpt>
      <trkpt lat="42.97475333" lon="-0.18864333">
        <ele>848.0</ele>
        <time>2019-07-07T09:29:28.804Z</time>
      </trkpt>
      <trkpt lat="42.97475333" lon="-0.18864333">
        <ele>848.0</ele>
        <time>2019-07-07T09:29:29.810Z</time>
      </trkpt>
      <trkpt lat="42.97479333" lon="-0.18878167">
        <ele>848.0</ele>
        <time>2019-07-07T09:29:30.834Z</time>
      </trkpt>
      <trkpt lat="42.97480667" lon="-0.18885167">
        <ele>848.0</ele>
        <time>2019-07-07T09:29:31.814Z</time>
      </trkpt>
      <trkpt lat="42.97480667" lon="-0.18885167">
        <ele>848.0</ele>
        <time>2019-07-07T09:29:32.819Z</time>
      </trkpt>
      <trkpt lat="42.97481833" lon="-0.18899833">
        <ele>849.0</ele>
        <time>2019-07-07T09:29:33.811Z</time>
      </trkpt>
      <trkpt lat="42.97481833" lon="-0.18899833">
        <ele>849.0</ele>
        <time>2019-07-07T09:29:34.817Z</time>
      </trkpt>
      <trkpt lat="42.974825" lon="-0.189145">
        <ele>849.0</ele>
        <time>2019-07-07T09:29:35.834Z</time>
      </trkpt>
      <trkpt lat="42.974825" lon="-0.18921333">
        <ele>849.0</ele>
        <time>2019-07-07T09:29:36.811Z</time>
      </trkpt>
      <trkpt lat="42.974825" lon="-0.18921333">
        <ele>849.0</ele>
        <time>2019-07-07T09:29:37.817Z</time>
      </trkpt>
      <trkpt lat="42.97481833" lon="-0.18934667">
        <ele>850.0</ele>
        <time>2019-07-07T09:29:38.834Z</time>
      </trkpt>
      <trkpt lat="42.97481833" lon="-0.18934667">
        <ele>850.0</ele>
        <time>2019-07-07T09:29:39.840Z</time>
      </trkpt>
      <trkpt lat="42.97481167" lon="-0.18948833">
        <ele>851.0</ele>
        <time>2019-07-07T09:29:40.805Z</time>
      </trkpt>
      <trkpt lat="42.97480667" lon="-0.18955833">
        <ele>851.0</ele>
        <time>2019-07-07T09:29:41.834Z</time>
      </trkpt>
      <trkpt lat="42.97480667" lon="-0.18955833">
        <ele>851.0</ele>
        <time>2019-07-07T09:29:42.815Z</time>
      </trkpt>
      <trkpt lat="42.974775" lon="-0.18968">
        <ele>852.0</ele>
        <time>2019-07-07T09:29:43.824Z</time>
      </trkpt>
      <trkpt lat="42.974775" lon="-0.18968">
        <ele>852.0</ele>
        <time>2019-07-07T09:29:44.816Z</time>
      </trkpt>
      <trkpt lat="42.97474333" lon="-0.18980167">
        <ele>853.0</ele>
        <time>2019-07-07T09:29:45.804Z</time>
      </trkpt>
      <trkpt lat="42.97474333" lon="-0.18980167">
        <ele>853.0</ele>
        <time>2019-07-07T09:29:46.810Z</time>
      </trkpt>
      <trkpt lat="42.97471" lon="-0.18992167">
        <ele>854.0</ele>
        <time>2019-07-07T09:29:47.809Z</time>
      </trkpt>
      <trkpt lat="42.97469167" lon="-0.18997833">
        <ele>854.0</ele>
        <time>2019-07-07T09:29:48.830Z</time>
      </trkpt>
      <trkpt lat="42.974675" lon="-0.190035">
        <ele>854.0</ele>
        <time>2019-07-07T09:29:49.803Z</time>
      </trkpt>
      <trkpt lat="42.974675" lon="-0.190035">
        <ele>854.0</ele>
        <time>2019-07-07T09:29:50.810Z</time>
      </trkpt>
      <trkpt lat="42.97465333" lon="-0.190155">
        <ele>855.0</ele>
        <time>2019-07-07T09:29:51.834Z</time>
      </trkpt>
      <trkpt lat="42.97464" lon="-0.19021667">
        <ele>856.0</ele>
        <time>2019-07-07T09:29:52.804Z</time>
      </trkpt>
      <trkpt lat="42.97463" lon="-0.19027667">
        <ele>856.0</ele>
        <time>2019-07-07T09:29:53.818Z</time>
      </trkpt>
      <trkpt lat="42.97463" lon="-0.19027667">
        <ele>856.0</ele>
        <time>2019-07-07T09:29:54.824Z</time>
      </trkpt>
      <trkpt lat="42.97461167" lon="-0.19039667">
        <ele>857.0</ele>
        <time>2019-07-07T09:29:55.818Z</time>
      </trkpt>
      <trkpt lat="42.97461167" lon="-0.19039667">
        <ele>857.0</ele>
        <time>2019-07-07T09:29:56.826Z</time>
      </trkpt>
      <trkpt lat="42.97459667" lon="-0.190515">
        <ele>857.0</ele>
        <time>2019-07-07T09:29:57.809Z</time>
      </trkpt>
      <trkpt lat="42.97459667" lon="-0.190515">
        <ele>857.0</ele>
        <time>2019-07-07T09:29:58.815Z</time>
      </trkpt>
      <trkpt lat="42.97458167" lon="-0.19062">
        <ele>858.0</ele>
        <time>2019-07-07T09:29:59.803Z</time>
      </trkpt>
      <trkpt lat="42.97457" lon="-0.19067167">
        <ele>858.0</ele>
        <time>2019-07-07T09:30:00.824Z</time>
      </trkpt>
      <trkpt lat="42.97457" lon="-0.19067167">
        <ele>858.0</ele>
        <time>2019-07-07T09:30:01.830Z</time>
      </trkpt>
      <trkpt lat="42.97455333" lon="-0.19079667">
        <ele>859.0</ele>
        <time>2019-07-07T09:30:02.834Z</time>
      </trkpt>
      <trkpt lat="42.97455333" lon="-0.19079667">
        <ele>859.0</ele>
        <time>2019-07-07T09:30:03.839Z</time>
      </trkpt>
      <trkpt lat="42.97453333" lon="-0.19091833">
        <ele>859.0</ele>
        <time>2019-07-07T09:30:04.810Z</time>
      </trkpt>
      <trkpt lat="42.97453333" lon="-0.19091833">
        <ele>859.0</ele>
        <time>2019-07-07T09:30:05.819Z</time>
      </trkpt>
      <trkpt lat="42.97449333" lon="-0.19102333">
        <ele>860.0</ele>
        <time>2019-07-07T09:30:06.834Z</time>
      </trkpt>
      <trkpt lat="42.97449333" lon="-0.19102333">
        <ele>860.0</ele>
        <time>2019-07-07T09:30:07.801Z</time>
      </trkpt>
      <trkpt lat="42.974445" lon="-0.19112667">
        <ele>861.0</ele>
        <time>2019-07-07T09:30:08.824Z</time>
      </trkpt>
      <trkpt lat="42.974445" lon="-0.19112667">
        <ele>861.0</ele>
        <time>2019-07-07T09:30:09.829Z</time>
      </trkpt>
      <trkpt lat="42.97439833" lon="-0.19123167">
        <ele>862.0</ele>
        <time>2019-07-07T09:30:10.804Z</time>
      </trkpt>
      <trkpt lat="42.97439833" lon="-0.19123167">
        <ele>862.0</ele>
        <time>2019-07-07T09:30:11.810Z</time>
      </trkpt>
      <trkpt lat="42.97435" lon="-0.19133167">
        <ele>862.0</ele>
        <time>2019-07-07T09:30:12.834Z</time>
      </trkpt>
      <trkpt lat="42.97435" lon="-0.19133167">
        <ele>862.0</ele>
        <time>2019-07-07T09:30:13.807Z</time>
      </trkpt>
      <trkpt lat="42.97430333" lon="-0.19143167">
        <ele>863.0</ele>
        <time>2019-07-07T09:30:14.824Z</time>
      </trkpt>
      <trkpt lat="42.97430333" lon="-0.19143167">
        <ele>863.0</ele>
        <time>2019-07-07T09:30:15.830Z</time>
      </trkpt>
      <trkpt lat="42.97425833" lon="-0.19154">
        <ele>864.0</ele>
        <time>2019-07-07T09:30:16.803Z</time>
      </trkpt>
      <trkpt lat="42.97425833" lon="-0.19154">
        <ele>864.0</ele>
        <time>2019-07-07T09:30:17.810Z</time>
      </trkpt>
      <trkpt lat="42.97420167" lon="-0.19164333">
        <ele>865.0</ele>
        <time>2019-07-07T09:30:18.830Z</time>
      </trkpt>
      <trkpt lat="42.97417833" lon="-0.19169667">
        <ele>865.0</ele>
        <time>2019-07-07T09:30:19.824Z</time>
      </trkpt>
      <trkpt lat="42.97417833" lon="-0.19169667">
        <ele>865.0</ele>
        <time>2019-07-07T09:30:20.831Z</time>
      </trkpt>
      <trkpt lat="42.97413667" lon="-0.19179833">
        <ele>866.0</ele>
        <time>2019-07-07T09:30:21.814Z</time>
      </trkpt>
      <trkpt lat="42.97413667" lon="-0.19179833">
        <ele>866.0</ele>
        <time>2019-07-07T09:30:22.820Z</time>
      </trkpt>
      <trkpt lat="42.97409167" lon="-0.19191333">
        <ele>866.0</ele>
        <time>2019-07-07T09:30:23.830Z</time>
      </trkpt>
      <trkpt lat="42.97406833" lon="-0.19196667">
        <ele>866.0</ele>
        <time>2019-07-07T09:30:24.834Z</time>
      </trkpt>
      <trkpt lat="42.97406833" lon="-0.19196667">
        <ele>866.0</ele>
        <time>2019-07-07T09:30:25.839Z</time>
      </trkpt>
      <trkpt lat="42.974015" lon="-0.192075">
        <ele>867.0</ele>
        <time>2019-07-07T09:30:26.814Z</time>
      </trkpt>
      <trkpt lat="42.974015" lon="-0.192075">
        <ele>867.0</ele>
        <time>2019-07-07T09:30:27.820Z</time>
      </trkpt>
      <trkpt lat="42.973955" lon="-0.19217667">
        <ele>867.0</ele>
        <time>2019-07-07T09:30:28.833Z</time>
      </trkpt>
      <trkpt lat="42.973955" lon="-0.19217667">
        <ele>867.0</ele>
        <time>2019-07-07T09:30:29.839Z</time>
      </trkpt>
      <trkpt lat="42.97389167" lon="-0.19226167">
        <ele>868.0</ele>
        <time>2019-07-07T09:30:30.813Z</time>
      </trkpt>
      <trkpt lat="42.97385833" lon="-0.19230333">
        <ele>868.0</ele>
        <time>2019-07-07T09:30:31.813Z</time>
      </trkpt>
      <trkpt lat="42.97385833" lon="-0.19230333">
        <ele>868.0</ele>
        <time>2019-07-07T09:30:32.820Z</time>
      </trkpt>
      <trkpt lat="42.973805" lon="-0.192415">
        <ele>868.0</ele>
        <time>2019-07-07T09:30:33.803Z</time>
      </trkpt>
      <trkpt lat="42.973805" lon="-0.192415">
        <ele>868.0</ele>
        <time>2019-07-07T09:30:34.809Z</time>
      </trkpt>
      <trkpt lat="42.97372333" lon="-0.19250833">
        <ele>869.0</ele>
        <time>2019-07-07T09:30:35.814Z</time>
      </trkpt>
      <trkpt lat="42.97367333" lon="-0.19254167">
        <ele>869.0</ele>
        <time>2019-07-07T09:30:36.834Z</time>
      </trkpt>
      <trkpt lat="42.97367333" lon="-0.19254167">
        <ele>869.0</ele>
        <time>2019-07-07T09:30:37.840Z</time>
      </trkpt>
      <trkpt lat="42.973595" lon="-0.19263">
        <ele>870.0</ele>
        <time>2019-07-07T09:30:38.814Z</time>
      </trkpt>
      <trkpt lat="42.97355333" lon="-0.19266833">
        <ele>870.0</ele>
        <time>2019-07-07T09:30:39.802Z</time>
      </trkpt>
      <trkpt lat="42.97355333" lon="-0.19266833">
        <ele>870.0</ele>
        <time>2019-07-07T09:30:40.807Z</time>
      </trkpt>
      <trkpt lat="42.97347" lon="-0.19274833">
        <ele>870.0</ele>
        <time>2019-07-07T09:30:41.824Z</time>
      </trkpt>
      <trkpt lat="42.97347" lon="-0.19274833">
        <ele>870.0</ele>
        <time>2019-07-07T09:30:42.829Z</time>
      </trkpt>
      <trkpt lat="42.97340167" lon="-0.19285333">
        <ele>871.0</ele>
        <time>2019-07-07T09:30:43.814Z</time>
      </trkpt>
      <trkpt lat="42.97337667" lon="-0.19291833">
        <ele>871.0</ele>
        <time>2019-07-07T09:30:44.833Z</time>
      </trkpt>
      <trkpt lat="42.97337667" lon="-0.19291833">
        <ele>871.0</ele>
        <time>2019-07-07T09:30:45.839Z</time>
      </trkpt>
      <trkpt lat="42.97334167" lon="-0.19305833">
        <ele>871.0</ele>
        <time>2019-07-07T09:30:46.820Z</time>
      </trkpt>
      <trkpt lat="42.97334167" lon="-0.19305833">
        <ele>871.0</ele>
        <time>2019-07-07T09:30:47.841Z</time>
      </trkpt>
      <trkpt lat="42.97329333" lon="-0.193195">
        <ele>872.0</ele>
        <time>2019-07-07T09:30:48.832Z</time>
      </trkpt>
      <trkpt lat="42.97325833" lon="-0.19326">
        <ele>872.0</ele>
        <time>2019-07-07T09:30:49.817Z</time>
      </trkpt>
      <trkpt lat="42.97325833" lon="-0.19326">
        <ele>872.0</ele>
        <time>2019-07-07T09:30:50.823Z</time>
      </trkpt>
      <trkpt lat="42.973185" lon="-0.19338167">
        <ele>872.0</ele>
        <time>2019-07-07T09:30:51.819Z</time>
      </trkpt>
      <trkpt lat="42.973185" lon="-0.19338167">
        <ele>872.0</ele>
        <time>2019-07-07T09:30:52.825Z</time>
      </trkpt>
      <trkpt lat="42.973105" lon="-0.19349833">
        <ele>873.0</ele>
        <time>2019-07-07T09:30:53.819Z</time>
      </trkpt>
      <trkpt lat="42.973105" lon="-0.19349833">
        <ele>873.0</ele>
        <time>2019-07-07T09:30:54.827Z</time>
      </trkpt>
      <trkpt lat="42.97303" lon="-0.19363833">
        <ele>873.0</ele>
        <time>2019-07-07T09:30:55.822Z</time>
      </trkpt>
      <trkpt lat="42.97303" lon="-0.19363833">
        <ele>873.0</ele>
        <time>2019-07-07T09:30:56.828Z</time>
      </trkpt>
      <trkpt lat="42.97297833" lon="-0.19379833">
        <ele>873.0</ele>
        <time>2019-07-07T09:30:57.823Z</time>
      </trkpt>
      <trkpt lat="42.97295833" lon="-0.19388333">
        <ele>873.0</ele>
        <time>2019-07-07T09:30:58.830Z</time>
      </trkpt>
      <trkpt lat="42.97295833" lon="-0.19388333">
        <ele>873.0</ele>
        <time>2019-07-07T09:30:59.804Z</time>
      </trkpt>
      <trkpt lat="42.972925" lon="-0.19406833">
        <ele>872.0</ele>
        <time>2019-07-07T09:31:00.804Z</time>
      </trkpt>
      <trkpt lat="42.972925" lon="-0.19406833">
        <ele>872.0</ele>
        <time>2019-07-07T09:31:01.810Z</time>
      </trkpt>
      <trkpt lat="42.972885" lon="-0.19424667">
        <ele>873.0</ele>
        <time>2019-07-07T09:31:02.834Z</time>
      </trkpt>
      <trkpt lat="42.972885" lon="-0.19424667">
        <ele>873.0</ele>
        <time>2019-07-07T09:31:03.840Z</time>
      </trkpt>
      <trkpt lat="42.97283" lon="-0.19443333">
        <ele>873.0</ele>
        <time>2019-07-07T09:31:04.813Z</time>
      </trkpt>
      <trkpt lat="42.97283" lon="-0.19443333">
        <ele>873.0</ele>
        <time>2019-07-07T09:31:05.822Z</time>
      </trkpt>
      <trkpt lat="42.97276333" lon="-0.19461167">
        <ele>873.0</ele>
        <time>2019-07-07T09:31:06.824Z</time>
      </trkpt>
      <trkpt lat="42.97276333" lon="-0.19461167">
        <ele>873.0</ele>
        <time>2019-07-07T09:31:07.829Z</time>
      </trkpt>
      <trkpt lat="42.97267167" lon="-0.19479167">
        <ele>872.0</ele>
        <time>2019-07-07T09:31:08.804Z</time>
      </trkpt>
      <trkpt lat="42.97262" lon="-0.19487667">
        <ele>872.0</ele>
        <time>2019-07-07T09:31:09.826Z</time>
      </trkpt>
      <trkpt lat="42.97262" lon="-0.19487667">
        <ele>872.0</ele>
        <time>2019-07-07T09:31:10.832Z</time>
      </trkpt>
      <trkpt lat="42.97251" lon="-0.19504">
        <ele>872.0</ele>
        <time>2019-07-07T09:31:11.824Z</time>
      </trkpt>
      <trkpt lat="42.97245333" lon="-0.19512">
        <ele>872.0</ele>
        <time>2019-07-07T09:31:12.833Z</time>
      </trkpt>
      <trkpt lat="42.97245333" lon="-0.19512">
        <ele>872.0</ele>
        <time>2019-07-07T09:31:13.839Z</time>
      </trkpt>
      <trkpt lat="42.97234333" lon="-0.19528">
        <ele>872.0</ele>
        <time>2019-07-07T09:31:14.824Z</time>
      </trkpt>
      <trkpt lat="42.97234333" lon="-0.19528">
        <ele>872.0</ele>
        <time>2019-07-07T09:31:15.830Z</time>
      </trkpt>
      <trkpt lat="42.97222833" lon="-0.19545667">
        <ele>871.0</ele>
        <time>2019-07-07T09:31:16.813Z</time>
      </trkpt>
      <trkpt lat="42.97222833" lon="-0.19545667">
        <ele>871.0</ele>
        <time>2019-07-07T09:31:17.820Z</time>
      </trkpt>
      <trkpt lat="42.97210833" lon="-0.19564167">
        <ele>870.0</ele>
        <time>2019-07-07T09:31:18.803Z</time>
      </trkpt>
      <trkpt lat="42.97210833" lon="-0.19564167">
        <ele>870.0</ele>
        <time>2019-07-07T09:31:19.810Z</time>
      </trkpt>
      <trkpt lat="42.971985" lon="-0.19582333">
        <ele>869.0</ele>
        <time>2019-07-07T09:31:20.824Z</time>
      </trkpt>
      <trkpt lat="42.971985" lon="-0.19582333">
        <ele>869.0</ele>
        <time>2019-07-07T09:31:21.831Z</time>
      </trkpt>
      <trkpt lat="42.97186" lon="-0.19601">
        <ele>869.0</ele>
        <time>2019-07-07T09:31:22.824Z</time>
      </trkpt>
      <trkpt lat="42.971795" lon="-0.196105">
        <ele>868.0</ele>
        <time>2019-07-07T09:31:23.804Z</time>
      </trkpt>
      <trkpt lat="42.971795" lon="-0.196105">
        <ele>868.0</ele>
        <time>2019-07-07T09:31:24.809Z</time>
      </trkpt>
      <trkpt lat="42.97166333" lon="-0.1963">
        <ele>867.0</ele>
        <time>2019-07-07T09:31:25.814Z</time>
      </trkpt>
      <trkpt lat="42.97166333" lon="-0.1963">
        <ele>867.0</ele>
        <time>2019-07-07T09:31:26.821Z</time>
      </trkpt>
      <trkpt lat="42.97153" lon="-0.19649">
        <ele>866.0</ele>
        <time>2019-07-07T09:31:27.834Z</time>
      </trkpt>
      <trkpt lat="42.97153" lon="-0.19649">
        <ele>866.0</ele>
        <time>2019-07-07T09:31:28.840Z</time>
      </trkpt>
      <trkpt lat="42.971395" lon="-0.19667833">
        <ele>865.0</ele>
        <time>2019-07-07T09:31:29.804Z</time>
      </trkpt>
      <trkpt lat="42.97133" lon="-0.196775">
        <ele>864.0</ele>
        <time>2019-07-07T09:31:30.834Z</time>
      </trkpt>
      <trkpt lat="42.97133" lon="-0.196775">
        <ele>864.0</ele>
        <time>2019-07-07T09:31:31.840Z</time>
      </trkpt>
      <trkpt lat="42.971205" lon="-0.19697333">
        <ele>863.0</ele>
        <time>2019-07-07T09:31:32.814Z</time>
      </trkpt>
      <trkpt lat="42.971205" lon="-0.19697333">
        <ele>863.0</ele>
        <time>2019-07-07T09:31:33.819Z</time>
      </trkpt>
      <trkpt lat="42.971075" lon="-0.19716333">
        <ele>862.0</ele>
        <time>2019-07-07T09:31:34.818Z</time>
      </trkpt>
      <trkpt lat="42.971075" lon="-0.19716333">
        <ele>862.0</ele>
        <time>2019-07-07T09:31:35.825Z</time>
      </trkpt>
      <trkpt lat="42.97093833" lon="-0.197345">
        <ele>861.0</ele>
        <time>2019-07-07T09:31:36.802Z</time>
      </trkpt>
      <trkpt lat="42.97093833" lon="-0.197345">
        <ele>861.0</ele>
        <time>2019-07-07T09:31:37.808Z</time>
      </trkpt>
      <trkpt lat="42.97080167" lon="-0.197525">
        <ele>860.0</ele>
        <time>2019-07-07T09:31:38.821Z</time>
      </trkpt>
      <trkpt lat="42.97080167" lon="-0.197525">
        <ele>860.0</ele>
        <time>2019-07-07T09:31:39.829Z</time>
      </trkpt>
      <trkpt lat="42.97066167" lon="-0.19770667">
        <ele>859.0</ele>
        <time>2019-07-07T09:31:40.803Z</time>
      </trkpt>
      <trkpt lat="42.97058833" lon="-0.19779667">
        <ele>858.0</ele>
        <time>2019-07-07T09:31:41.814Z</time>
      </trkpt>
      <trkpt lat="42.97058833" lon="-0.19779667">
        <ele>858.0</ele>
        <time>2019-07-07T09:31:42.820Z</time>
      </trkpt>
      <trkpt lat="42.97044667" lon="-0.19797833">
        <ele>857.0</ele>
        <time>2019-07-07T09:31:43.803Z</time>
      </trkpt>
      <trkpt lat="42.97044667" lon="-0.19797833">
        <ele>857.0</ele>
        <time>2019-07-07T09:31:44.810Z</time>
      </trkpt>
      <trkpt lat="42.97031" lon="-0.19816167">
        <ele>856.0</ele>
        <time>2019-07-07T09:31:45.821Z</time>
      </trkpt>
      <trkpt lat="42.97024833" lon="-0.19826">
        <ele>856.0</ele>
        <time>2019-07-07T09:31:46.804Z</time>
      </trkpt>
      <trkpt lat="42.97024833" lon="-0.19826">
        <ele>856.0</ele>
        <time>2019-07-07T09:31:47.822Z</time>
      </trkpt>
      <trkpt lat="42.97013667" lon="-0.19848167">
        <ele>855.0</ele>
        <time>2019-07-07T09:31:48.833Z</time>
      </trkpt>
      <trkpt lat="42.97008833" lon="-0.1986">
        <ele>854.0</ele>
        <time>2019-07-07T09:31:49.804Z</time>
      </trkpt>
      <trkpt lat="42.97008833" lon="-0.1986">
        <ele>854.0</ele>
        <time>2019-07-07T09:31:50.810Z</time>
      </trkpt>
      <trkpt lat="42.96999833" lon="-0.19884">
        <ele>853.0</ele>
        <time>2019-07-07T09:31:51.834Z</time>
      </trkpt>
      <trkpt lat="42.969955" lon="-0.19895667">
        <ele>853.0</ele>
        <time>2019-07-07T09:31:52.812Z</time>
      </trkpt>
      <trkpt lat="42.969955" lon="-0.19895667">
        <ele>853.0</ele>
        <time>2019-07-07T09:31:53.818Z</time>
      </trkpt>
      <trkpt lat="42.96986667" lon="-0.199185">
        <ele>852.0</ele>
        <time>2019-07-07T09:31:54.834Z</time>
      </trkpt>
      <trkpt lat="42.96986667" lon="-0.199185">
        <ele>852.0</ele>
        <time>2019-07-07T09:31:55.840Z</time>
      </trkpt>
      <trkpt lat="42.96979167" lon="-0.19940833">
        <ele>851.0</ele>
        <time>2019-07-07T09:31:56.803Z</time>
      </trkpt>
      <trkpt lat="42.96979167" lon="-0.19940833">
        <ele>851.0</ele>
        <time>2019-07-07T09:31:57.809Z</time>
      </trkpt>
      <trkpt lat="42.96971833" lon="-0.19962">
        <ele>851.0</ele>
        <time>2019-07-07T09:31:58.814Z</time>
      </trkpt>
      <trkpt lat="42.96971833" lon="-0.19962">
        <ele>851.0</ele>
        <time>2019-07-07T09:31:59.822Z</time>
      </trkpt>
      <trkpt lat="42.96964833" lon="-0.19982833">
        <ele>851.0</ele>
        <time>2019-07-07T09:32:00.812Z</time>
      </trkpt>
      <trkpt lat="42.96961167" lon="-0.19993167">
        <ele>851.0</ele>
        <time>2019-07-07T09:32:01.827Z</time>
      </trkpt>
      <trkpt lat="42.96961167" lon="-0.19993167">
        <ele>851.0</ele>
        <time>2019-07-07T09:32:02.833Z</time>
      </trkpt>
      <trkpt lat="42.96953667" lon="-0.20012">
        <ele>851.0</ele>
        <time>2019-07-07T09:32:03.824Z</time>
      </trkpt>
      <trkpt lat="42.969495" lon="-0.20021167">
        <ele>850.0</ele>
        <time>2019-07-07T09:32:04.801Z</time>
      </trkpt>
      <trkpt lat="42.969495" lon="-0.20021167">
        <ele>850.0</ele>
        <time>2019-07-07T09:32:05.807Z</time>
      </trkpt>
      <trkpt lat="42.969415" lon="-0.20037333">
        <ele>850.0</ele>
        <time>2019-07-07T09:32:06.804Z</time>
      </trkpt>
      <trkpt lat="42.96936833" lon="-0.200445">
        <ele>850.0</ele>
        <time>2019-07-07T09:32:07.813Z</time>
      </trkpt>
      <trkpt lat="42.96936833" lon="-0.200445">
        <ele>850.0</ele>
        <time>2019-07-07T09:32:08.824Z</time>
      </trkpt>
      <trkpt lat="42.96927167" lon="-0.20058333">
        <ele>850.0</ele>
        <time>2019-07-07T09:32:09.834Z</time>
      </trkpt>
      <trkpt lat="42.96922333" lon="-0.20064833">
        <ele>850.0</ele>
        <time>2019-07-07T09:32:10.835Z</time>
      </trkpt>
      <trkpt lat="42.96922333" lon="-0.20064833">
        <ele>850.0</ele>
        <time>2019-07-07T09:32:11.801Z</time>
      </trkpt>
      <trkpt lat="42.96911833" lon="-0.200785">
        <ele>850.0</ele>
        <time>2019-07-07T09:32:12.804Z</time>
      </trkpt>
      <trkpt lat="42.96911833" lon="-0.200785">
        <ele>850.0</ele>
        <time>2019-07-07T09:32:13.810Z</time>
      </trkpt>
      <trkpt lat="42.96902" lon="-0.20092333">
        <ele>850.0</ele>
        <time>2019-07-07T09:32:14.814Z</time>
      </trkpt>
      <trkpt lat="42.96902" lon="-0.20092333">
        <ele>850.0</ele>
        <time>2019-07-07T09:32:15.820Z</time>
      </trkpt>
      <trkpt lat="42.96892" lon="-0.20105833">
        <ele>850.0</ele>
        <time>2019-07-07T09:32:16.804Z</time>
      </trkpt>
      <trkpt lat="42.96892" lon="-0.20105833">
        <ele>850.0</ele>
        <time>2019-07-07T09:32:17.810Z</time>
      </trkpt>
      <trkpt lat="42.96882" lon="-0.20119">
        <ele>850.0</ele>
        <time>2019-07-07T09:32:18.804Z</time>
      </trkpt>
      <trkpt lat="42.96877" lon="-0.201255">
        <ele>850.0</ele>
        <time>2019-07-07T09:32:19.822Z</time>
      </trkpt>
      <trkpt lat="42.96877" lon="-0.201255">
        <ele>850.0</ele>
        <time>2019-07-07T09:32:20.829Z</time>
      </trkpt>
      <trkpt lat="42.96867333" lon="-0.20138667">
        <ele>850.0</ele>
        <time>2019-07-07T09:32:21.804Z</time>
      </trkpt>
      <trkpt lat="42.96867333" lon="-0.20138667">
        <ele>850.0</ele>
        <time>2019-07-07T09:32:22.810Z</time>
      </trkpt>
      <trkpt lat="42.96858" lon="-0.201515">
        <ele>851.0</ele>
        <time>2019-07-07T09:32:23.834Z</time>
      </trkpt>
      <trkpt lat="42.96853333" lon="-0.201585">
        <ele>851.0</ele>
        <time>2019-07-07T09:32:24.813Z</time>
      </trkpt>
      <trkpt lat="42.96853333" lon="-0.201585">
        <ele>851.0</ele>
        <time>2019-07-07T09:32:25.819Z</time>
      </trkpt>
      <trkpt lat="42.96844167" lon="-0.20171">
        <ele>851.0</ele>
        <time>2019-07-07T09:32:26.830Z</time>
      </trkpt>
      <trkpt lat="42.96844167" lon="-0.20171">
        <ele>851.0</ele>
        <time>2019-07-07T09:32:27.836Z</time>
      </trkpt>
      <trkpt lat="42.96834167" lon="-0.20182167">
        <ele>852.0</ele>
        <time>2019-07-07T09:32:28.811Z</time>
      </trkpt>
      <trkpt lat="42.96834167" lon="-0.20182167">
        <ele>852.0</ele>
        <time>2019-07-07T09:32:29.817Z</time>
      </trkpt>
      <trkpt lat="42.96822667" lon="-0.20191833">
        <ele>852.0</ele>
        <time>2019-07-07T09:32:30.834Z</time>
      </trkpt>
      <trkpt lat="42.96822667" lon="-0.20191833">
        <ele>852.0</ele>
        <time>2019-07-07T09:32:31.840Z</time>
      </trkpt>
      <trkpt lat="42.968105" lon="-0.20200833">
        <ele>852.0</ele>
        <time>2019-07-07T09:32:32.824Z</time>
      </trkpt>
      <trkpt lat="42.96804167" lon="-0.20205167">
        <ele>852.0</ele>
        <time>2019-07-07T09:32:33.834Z</time>
      </trkpt>
      <trkpt lat="42.96804167" lon="-0.20205167">
        <ele>852.0</ele>
        <time>2019-07-07T09:32:34.840Z</time>
      </trkpt>
      <trkpt lat="42.96791" lon="-0.20213167">
        <ele>852.0</ele>
        <time>2019-07-07T09:32:35.820Z</time>
      </trkpt>
      <trkpt lat="42.96784333" lon="-0.202175">
        <ele>852.0</ele>
        <time>2019-07-07T09:32:36.828Z</time>
      </trkpt>
      <trkpt lat="42.96784333" lon="-0.202175">
        <ele>852.0</ele>
        <time>2019-07-07T09:32:37.834Z</time>
      </trkpt>
      <trkpt lat="42.96770667" lon="-0.20225">
        <ele>853.0</ele>
        <time>2019-07-07T09:32:38.834Z</time>
      </trkpt>
      <trkpt lat="42.96770667" lon="-0.20225">
        <ele>853.0</ele>
        <time>2019-07-07T09:32:39.840Z</time>
      </trkpt>
      <trkpt lat="42.96756667" lon="-0.202315">
        <ele>853.0</ele>
        <time>2019-07-07T09:32:40.804Z</time>
      </trkpt>
      <trkpt lat="42.96756667" lon="-0.202315">
        <ele>853.0</ele>
        <time>2019-07-07T09:32:41.809Z</time>
      </trkpt>
      <trkpt lat="42.96742167" lon="-0.20237667">
        <ele>852.0</ele>
        <time>2019-07-07T09:32:42.834Z</time>
      </trkpt>
      <trkpt lat="42.96742167" lon="-0.20237667">
        <ele>852.0</ele>
        <time>2019-07-07T09:32:43.840Z</time>
      </trkpt>
      <trkpt lat="42.96727833" lon="-0.20243667">
        <ele>853.0</ele>
        <time>2019-07-07T09:32:44.824Z</time>
      </trkpt>
      <trkpt lat="42.96727833" lon="-0.20243667">
        <ele>853.0</ele>
        <time>2019-07-07T09:32:45.829Z</time>
      </trkpt>
      <trkpt lat="42.96713167" lon="-0.20248333">
        <ele>853.0</ele>
        <time>2019-07-07T09:32:46.834Z</time>
      </trkpt>
      <trkpt lat="42.96705833" lon="-0.20249667">
        <ele>853.0</ele>
        <time>2019-07-07T09:32:47.840Z</time>
      </trkpt>
      <trkpt lat="42.96705833" lon="-0.20249667">
        <ele>853.0</ele>
        <time>2019-07-07T09:32:48.836Z</time>
      </trkpt>
      <trkpt lat="42.96691167" lon="-0.20252">
        <ele>853.0</ele>
        <time>2019-07-07T09:32:49.804Z</time>
      </trkpt>
      <trkpt lat="42.96691167" lon="-0.20252">
        <ele>853.0</ele>
        <time>2019-07-07T09:32:50.810Z</time>
      </trkpt>
      <trkpt lat="42.96676333" lon="-0.20253667">
        <ele>853.0</ele>
        <time>2019-07-07T09:32:51.827Z</time>
      </trkpt>
      <trkpt lat="42.96676333" lon="-0.20253667">
        <ele>853.0</ele>
        <time>2019-07-07T09:32:52.833Z</time>
      </trkpt>
      <trkpt lat="42.96661833" lon="-0.20255333">
        <ele>854.0</ele>
        <time>2019-07-07T09:32:53.823Z</time>
      </trkpt>
      <trkpt lat="42.96654333" lon="-0.202555">
        <ele>854.0</ele>
        <time>2019-07-07T09:32:54.824Z</time>
      </trkpt>
      <trkpt lat="42.96654333" lon="-0.202555">
        <ele>854.0</ele>
        <time>2019-07-07T09:32:55.830Z</time>
      </trkpt>
      <trkpt lat="42.96639333" lon="-0.20252333">
        <ele>854.0</ele>
        <time>2019-07-07T09:32:56.824Z</time>
      </trkpt>
      <trkpt lat="42.96632167" lon="-0.20249333">
        <ele>854.0</ele>
        <time>2019-07-07T09:32:57.840Z</time>
      </trkpt>
      <trkpt lat="42.966255" lon="-0.20245333">
        <ele>854.0</ele>
        <time>2019-07-07T09:32:58.814Z</time>
      </trkpt>
      <trkpt lat="42.96619" lon="-0.20240833">
        <ele>854.0</ele>
        <time>2019-07-07T09:32:59.806Z</time>
      </trkpt>
      <trkpt lat="42.96619" lon="-0.20240833">
        <ele>854.0</ele>
        <time>2019-07-07T09:33:00.812Z</time>
      </trkpt>
      <trkpt lat="42.96606167" lon="-0.20231667">
        <ele>854.0</ele>
        <time>2019-07-07T09:33:01.804Z</time>
      </trkpt>
      <trkpt lat="42.96606167" lon="-0.20231667">
        <ele>854.0</ele>
        <time>2019-07-07T09:33:02.809Z</time>
      </trkpt>
      <trkpt lat="42.96593" lon="-0.20226167">
        <ele>854.0</ele>
        <time>2019-07-07T09:33:03.817Z</time>
      </trkpt>
      <trkpt lat="42.96586167" lon="-0.202245">
        <ele>854.0</ele>
        <time>2019-07-07T09:33:04.834Z</time>
      </trkpt>
      <trkpt lat="42.96586167" lon="-0.202245">
        <ele>854.0</ele>
        <time>2019-07-07T09:33:05.840Z</time>
      </trkpt>
      <trkpt lat="42.965735" lon="-0.20217667">
        <ele>854.0</ele>
        <time>2019-07-07T09:33:06.804Z</time>
      </trkpt>
      <trkpt lat="42.965735" lon="-0.20217667">
        <ele>854.0</ele>
        <time>2019-07-07T09:33:07.810Z</time>
      </trkpt>
      <trkpt lat="42.96562" lon="-0.20206667">
        <ele>854.0</ele>
        <time>2019-07-07T09:33:08.803Z</time>
      </trkpt>
      <trkpt lat="42.96562" lon="-0.20206667">
        <ele>854.0</ele>
        <time>2019-07-07T09:33:09.810Z</time>
      </trkpt>
      <trkpt lat="42.96549667" lon="-0.20195833">
        <ele>854.0</ele>
        <time>2019-07-07T09:33:10.824Z</time>
      </trkpt>
      <trkpt lat="42.96549667" lon="-0.20195833">
        <ele>854.0</ele>
        <time>2019-07-07T09:33:11.830Z</time>
      </trkpt>
      <trkpt lat="42.96537" lon="-0.20187167">
        <ele>855.0</ele>
        <time>2019-07-07T09:33:12.804Z</time>
      </trkpt>
      <trkpt lat="42.96537" lon="-0.20187167">
        <ele>855.0</ele>
        <time>2019-07-07T09:33:13.810Z</time>
      </trkpt>
      <trkpt lat="42.965235" lon="-0.20178667">
        <ele>855.0</ele>
        <time>2019-07-07T09:33:14.824Z</time>
      </trkpt>
      <trkpt lat="42.965235" lon="-0.20178667">
        <ele>855.0</ele>
        <time>2019-07-07T09:33:15.830Z</time>
      </trkpt>
      <trkpt lat="42.96509667" lon="-0.20172167">
        <ele>855.0</ele>
        <time>2019-07-07T09:33:16.804Z</time>
      </trkpt>
      <trkpt lat="42.96502833" lon="-0.20172">
        <ele>855.0</ele>
        <time>2019-07-07T09:33:17.824Z</time>
      </trkpt>
      <trkpt lat="42.96502833" lon="-0.20172">
        <ele>855.0</ele>
        <time>2019-07-07T09:33:18.830Z</time>
      </trkpt>
      <trkpt lat="42.96489167" lon="-0.20176667">
        <ele>855.0</ele>
        <time>2019-07-07T09:33:19.840Z</time>
      </trkpt>
      <trkpt lat="42.96482667" lon="-0.2018">
        <ele>856.0</ele>
        <time>2019-07-07T09:33:20.805Z</time>
      </trkpt>
      <trkpt lat="42.96482667" lon="-0.2018">
        <ele>856.0</ele>
        <time>2019-07-07T09:33:21.811Z</time>
      </trkpt>
      <trkpt lat="42.96468833" lon="-0.20185667">
        <ele>856.0</ele>
        <time>2019-07-07T09:33:22.821Z</time>
      </trkpt>
      <trkpt lat="42.96461667" lon="-0.201875">
        <ele>856.0</ele>
        <time>2019-07-07T09:33:23.827Z</time>
      </trkpt>
      <trkpt lat="42.96461667" lon="-0.201875">
        <ele>856.0</ele>
        <time>2019-07-07T09:33:24.832Z</time>
      </trkpt>
      <trkpt lat="42.964485" lon="-0.20190167">
        <ele>856.0</ele>
        <time>2019-07-07T09:33:25.804Z</time>
      </trkpt>
      <trkpt lat="42.964485" lon="-0.20190167">
        <ele>856.0</ele>
        <time>2019-07-07T09:33:26.810Z</time>
      </trkpt>
      <trkpt lat="42.96435667" lon="-0.20183167">
        <ele>855.0</ele>
        <time>2019-07-07T09:33:27.822Z</time>
      </trkpt>
      <trkpt lat="42.96435667" lon="-0.20183167">
        <ele>855.0</ele>
        <time>2019-07-07T09:33:28.828Z</time>
      </trkpt>
      <trkpt lat="42.96423167" lon="-0.20172333">
        <ele>856.0</ele>
        <time>2019-07-07T09:33:29.804Z</time>
      </trkpt>
      <trkpt lat="42.96423167" lon="-0.20172333">
        <ele>856.0</ele>
        <time>2019-07-07T09:33:30.810Z</time>
      </trkpt>
      <trkpt lat="42.96408" lon="-0.20165833">
        <ele>856.0</ele>
        <time>2019-07-07T09:33:31.837Z</time>
      </trkpt>
      <trkpt lat="42.96408" lon="-0.20165833">
        <ele>856.0</ele>
        <time>2019-07-07T09:33:32.803Z</time>
      </trkpt>
      <trkpt lat="42.96391833" lon="-0.20163667">
        <ele>855.0</ele>
        <time>2019-07-07T09:33:33.824Z</time>
      </trkpt>
      <trkpt lat="42.96391833" lon="-0.20163667">
        <ele>855.0</ele>
        <time>2019-07-07T09:33:34.831Z</time>
      </trkpt>
      <trkpt lat="42.963765" lon="-0.20163167">
        <ele>856.0</ele>
        <time>2019-07-07T09:33:35.824Z</time>
      </trkpt>
      <trkpt lat="42.96368667" lon="-0.201635">
        <ele>855.0</ele>
        <time>2019-07-07T09:33:36.834Z</time>
      </trkpt>
      <trkpt lat="42.96368667" lon="-0.201635">
        <ele>855.0</ele>
        <time>2019-07-07T09:33:37.840Z</time>
      </trkpt>
      <trkpt lat="42.96353833" lon="-0.20165667">
        <ele>856.0</ele>
        <time>2019-07-07T09:33:38.813Z</time>
      </trkpt>
      <trkpt lat="42.963465" lon="-0.20167667">
        <ele>855.0</ele>
        <time>2019-07-07T09:33:39.813Z</time>
      </trkpt>
      <trkpt lat="42.963465" lon="-0.20167667">
        <ele>855.0</ele>
        <time>2019-07-07T09:33:40.819Z</time>
      </trkpt>
      <trkpt lat="42.963325" lon="-0.201735">
        <ele>855.0</ele>
        <time>2019-07-07T09:33:41.824Z</time>
      </trkpt>
      <trkpt lat="42.963325" lon="-0.201735">
        <ele>855.0</ele>
        <time>2019-07-07T09:33:42.830Z</time>
      </trkpt>
      <trkpt lat="42.963195" lon="-0.20179167">
        <ele>855.0</ele>
        <time>2019-07-07T09:33:43.804Z</time>
      </trkpt>
      <trkpt lat="42.96313333" lon="-0.20182333">
        <ele>856.0</ele>
        <time>2019-07-07T09:33:44.813Z</time>
      </trkpt>
      <trkpt lat="42.96313333" lon="-0.20182333">
        <ele>856.0</ele>
        <time>2019-07-07T09:33:45.819Z</time>
      </trkpt>
      <trkpt lat="42.96301" lon="-0.20188667">
        <ele>856.0</ele>
        <time>2019-07-07T09:33:46.834Z</time>
      </trkpt>
      <trkpt lat="42.96301" lon="-0.20188667">
        <ele>856.0</ele>
        <time>2019-07-07T09:33:47.811Z</time>
      </trkpt>
      <trkpt lat="42.962895" lon="-0.201955">
        <ele>856.0</ele>
        <time>2019-07-07T09:33:48.823Z</time>
      </trkpt>
      <trkpt lat="42.96283667" lon="-0.20199">
        <ele>857.0</ele>
        <time>2019-07-07T09:33:49.809Z</time>
      </trkpt>
      <trkpt lat="42.96283667" lon="-0.20199">
        <ele>857.0</ele>
        <time>2019-07-07T09:33:50.815Z</time>
      </trkpt>
      <trkpt lat="42.96272" lon="-0.202055">
        <ele>857.0</ele>
        <time>2019-07-07T09:33:51.824Z</time>
      </trkpt>
      <trkpt lat="42.96272" lon="-0.202055">
        <ele>857.0</ele>
        <time>2019-07-07T09:33:52.830Z</time>
      </trkpt>
      <trkpt lat="42.96260667" lon="-0.20212167">
        <ele>857.0</ele>
        <time>2019-07-07T09:33:53.804Z</time>
      </trkpt>
      <trkpt lat="42.96255" lon="-0.20215333">
        <ele>858.0</ele>
        <time>2019-07-07T09:33:54.829Z</time>
      </trkpt>
      <trkpt lat="42.96255" lon="-0.20215333">
        <ele>858.0</ele>
        <time>2019-07-07T09:33:55.835Z</time>
      </trkpt>
      <trkpt lat="42.962445" lon="-0.20222167">
        <ele>858.0</ele>
        <time>2019-07-07T09:33:56.812Z</time>
      </trkpt>
      <trkpt lat="42.96239" lon="-0.20225167">
        <ele>858.0</ele>
        <time>2019-07-07T09:33:57.824Z</time>
      </trkpt>
      <trkpt lat="42.96239" lon="-0.20225167">
        <ele>858.0</ele>
        <time>2019-07-07T09:33:58.830Z</time>
      </trkpt>
      <trkpt lat="42.96228167" lon="-0.20231333">
        <ele>859.0</ele>
        <time>2019-07-07T09:33:59.814Z</time>
      </trkpt>
      <trkpt lat="42.96222833" lon="-0.20234667">
        <ele>859.0</ele>
        <time>2019-07-07T09:34:00.810Z</time>
      </trkpt>
      <trkpt lat="42.96222833" lon="-0.20234667">
        <ele>859.0</ele>
        <time>2019-07-07T09:34:01.817Z</time>
      </trkpt>
      <trkpt lat="42.96211833" lon="-0.20241167">
        <ele>860.0</ele>
        <time>2019-07-07T09:34:02.803Z</time>
      </trkpt>
      <trkpt lat="42.96206167" lon="-0.20244">
        <ele>860.0</ele>
        <time>2019-07-07T09:34:03.824Z</time>
      </trkpt>
      <trkpt lat="42.96206167" lon="-0.20244">
        <ele>860.0</ele>
        <time>2019-07-07T09:34:04.830Z</time>
      </trkpt>
      <trkpt lat="42.96194833" lon="-0.202505">
        <ele>860.0</ele>
        <time>2019-07-07T09:34:05.834Z</time>
      </trkpt>
      <trkpt lat="42.96194833" lon="-0.202505">
        <ele>860.0</ele>
        <time>2019-07-07T09:34:06.840Z</time>
      </trkpt>
      <trkpt lat="42.96182833" lon="-0.20257">
        <ele>861.0</ele>
        <time>2019-07-07T09:34:07.819Z</time>
      </trkpt>
      <trkpt lat="42.96182833" lon="-0.20257">
        <ele>861.0</ele>
        <time>2019-07-07T09:34:08.825Z</time>
      </trkpt>
      <trkpt lat="42.96170667" lon="-0.20264333">
        <ele>861.0</ele>
        <time>2019-07-07T09:34:09.804Z</time>
      </trkpt>
      <trkpt lat="42.96170667" lon="-0.20264333">
        <ele>861.0</ele>
        <time>2019-07-07T09:34:10.809Z</time>
      </trkpt>
      <trkpt lat="42.96158667" lon="-0.20272667">
        <ele>861.0</ele>
        <time>2019-07-07T09:34:11.832Z</time>
      </trkpt>
      <trkpt lat="42.96152833" lon="-0.20277333">
        <ele>862.0</ele>
        <time>2019-07-07T09:34:12.814Z</time>
      </trkpt>
      <trkpt lat="42.96152833" lon="-0.20277333">
        <ele>862.0</ele>
        <time>2019-07-07T09:34:13.820Z</time>
      </trkpt>
      <trkpt lat="42.96141167" lon="-0.20287833">
        <ele>862.0</ele>
        <time>2019-07-07T09:34:14.831Z</time>
      </trkpt>
      <trkpt lat="42.961355" lon="-0.20293667">
        <ele>862.0</ele>
        <time>2019-07-07T09:34:15.831Z</time>
      </trkpt>
      <trkpt lat="42.961355" lon="-0.20293667">
        <ele>862.0</ele>
        <time>2019-07-07T09:34:16.837Z</time>
      </trkpt>
      <trkpt lat="42.96124833" lon="-0.20306833">
        <ele>862.0</ele>
        <time>2019-07-07T09:34:17.838Z</time>
      </trkpt>
      <trkpt lat="42.96119833" lon="-0.20314167">
        <ele>862.0</ele>
        <time>2019-07-07T09:34:18.812Z</time>
      </trkpt>
      <trkpt lat="42.96115167" lon="-0.20321833">
        <ele>862.0</ele>
        <time>2019-07-07T09:34:19.809Z</time>
      </trkpt>
      <trkpt lat="42.96115167" lon="-0.20321833">
        <ele>862.0</ele>
        <time>2019-07-07T09:34:20.815Z</time>
      </trkpt>
      <trkpt lat="42.961065" lon="-0.20338333">
        <ele>862.0</ele>
        <time>2019-07-07T09:34:21.806Z</time>
      </trkpt>
      <trkpt lat="42.961065" lon="-0.20338333">
        <ele>862.0</ele>
        <time>2019-07-07T09:34:22.812Z</time>
      </trkpt>
      <trkpt lat="42.96098833" lon="-0.20355833">
        <ele>862.0</ele>
        <time>2019-07-07T09:34:23.803Z</time>
      </trkpt>
      <trkpt lat="42.96098833" lon="-0.20355833">
        <ele>862.0</ele>
        <time>2019-07-07T09:34:24.810Z</time>
      </trkpt>
      <trkpt lat="42.96091833" lon="-0.20374167">
        <ele>862.0</ele>
        <time>2019-07-07T09:34:25.834Z</time>
      </trkpt>
      <trkpt lat="42.960885" lon="-0.203835">
        <ele>861.0</ele>
        <time>2019-07-07T09:34:26.805Z</time>
      </trkpt>
      <trkpt lat="42.960885" lon="-0.203835">
        <ele>861.0</ele>
        <time>2019-07-07T09:34:27.811Z</time>
      </trkpt>
      <trkpt lat="42.960815" lon="-0.20402333">
        <ele>861.0</ele>
        <time>2019-07-07T09:34:28.840Z</time>
      </trkpt>
      <trkpt lat="42.96078" lon="-0.20411667">
        <ele>861.0</ele>
        <time>2019-07-07T09:34:29.812Z</time>
      </trkpt>
      <trkpt lat="42.96078" lon="-0.20411667">
        <ele>861.0</ele>
        <time>2019-07-07T09:34:30.818Z</time>
      </trkpt>
      <trkpt lat="42.96071167" lon="-0.2043">
        <ele>861.0</ele>
        <time>2019-07-07T09:34:31.832Z</time>
      </trkpt>
      <trkpt lat="42.96071167" lon="-0.2043">
        <ele>861.0</ele>
        <time>2019-07-07T09:34:32.838Z</time>
      </trkpt>
      <trkpt lat="42.96064333" lon="-0.20448667">
        <ele>861.0</ele>
        <time>2019-07-07T09:34:33.834Z</time>
      </trkpt>
      <trkpt lat="42.96060833" lon="-0.20457833">
        <ele>860.0</ele>
        <time>2019-07-07T09:34:34.801Z</time>
      </trkpt>
      <trkpt lat="42.96060833" lon="-0.20457833">
        <ele>860.0</ele>
        <time>2019-07-07T09:34:35.807Z</time>
      </trkpt>
      <trkpt lat="42.96054" lon="-0.204765">
        <ele>860.0</ele>
        <time>2019-07-07T09:34:36.820Z</time>
      </trkpt>
      <trkpt lat="42.96054" lon="-0.204765">
        <ele>860.0</ele>
        <time>2019-07-07T09:34:37.826Z</time>
      </trkpt>
      <trkpt lat="42.96047167" lon="-0.20495167">
        <ele>860.0</ele>
        <time>2019-07-07T09:34:38.801Z</time>
      </trkpt>
      <trkpt lat="42.96047167" lon="-0.20495167">
        <ele>860.0</ele>
        <time>2019-07-07T09:34:39.807Z</time>
      </trkpt>
      <trkpt lat="42.96040667" lon="-0.205135">
        <ele>860.0</ele>
        <time>2019-07-07T09:34:40.819Z</time>
      </trkpt>
      <trkpt lat="42.96037333" lon="-0.20522667">
        <ele>860.0</ele>
        <time>2019-07-07T09:34:41.829Z</time>
      </trkpt>
      <trkpt lat="42.96037333" lon="-0.20522667">
        <ele>860.0</ele>
        <time>2019-07-07T09:34:42.834Z</time>
      </trkpt>
      <trkpt lat="42.96031" lon="-0.20540833">
        <ele>860.0</ele>
        <time>2019-07-07T09:34:43.840Z</time>
      </trkpt>
      <trkpt lat="42.96031" lon="-0.20540833">
        <ele>860.0</ele>
        <time>2019-07-07T09:34:44.806Z</time>
      </trkpt>
      <trkpt lat="42.960245" lon="-0.20558667">
        <ele>860.0</ele>
        <time>2019-07-07T09:34:45.824Z</time>
      </trkpt>
      <trkpt lat="42.960215" lon="-0.205675">
        <ele>860.0</ele>
        <time>2019-07-07T09:34:46.801Z</time>
      </trkpt>
      <trkpt lat="42.960215" lon="-0.205675">
        <ele>860.0</ele>
        <time>2019-07-07T09:34:47.817Z</time>
      </trkpt>
      <trkpt lat="42.96015333" lon="-0.20585167">
        <ele>860.0</ele>
        <time>2019-07-07T09:34:48.833Z</time>
      </trkpt>
      <trkpt lat="42.96015333" lon="-0.20585167">
        <ele>860.0</ele>
        <time>2019-07-07T09:34:49.802Z</time>
      </trkpt>
      <trkpt lat="42.960085" lon="-0.20602333">
        <ele>860.0</ele>
        <time>2019-07-07T09:34:50.813Z</time>
      </trkpt>
      <trkpt lat="42.96005" lon="-0.20610667">
        <ele>860.0</ele>
        <time>2019-07-07T09:34:51.824Z</time>
      </trkpt>
      <trkpt lat="42.96005" lon="-0.20610667">
        <ele>860.0</ele>
        <time>2019-07-07T09:34:52.831Z</time>
      </trkpt>
      <trkpt lat="42.95997667" lon="-0.20627">
        <ele>860.0</ele>
        <time>2019-07-07T09:34:53.814Z</time>
      </trkpt>
      <trkpt lat="42.95997667" lon="-0.20627">
        <ele>860.0</ele>
        <time>2019-07-07T09:34:54.820Z</time>
      </trkpt>
      <trkpt lat="42.95989" lon="-0.20642167">
        <ele>860.0</ele>
        <time>2019-07-07T09:34:55.801Z</time>
      </trkpt>
      <trkpt lat="42.95989" lon="-0.20642167">
        <ele>860.0</ele>
        <time>2019-07-07T09:34:56.808Z</time>
      </trkpt>
      <trkpt lat="42.95979833" lon="-0.206565">
        <ele>860.0</ele>
        <time>2019-07-07T09:34:57.824Z</time>
      </trkpt>
      <trkpt lat="42.95979833" lon="-0.206565">
        <ele>860.0</ele>
        <time>2019-07-07T09:34:58.830Z</time>
      </trkpt>
      <trkpt lat="42.95969833" lon="-0.20669667">
        <ele>860.0</ele>
        <time>2019-07-07T09:34:59.811Z</time>
      </trkpt>
      <trkpt lat="42.95969833" lon="-0.20669667">
        <ele>860.0</ele>
        <time>2019-07-07T09:35:00.817Z</time>
      </trkpt>
      <trkpt lat="42.95960333" lon="-0.20683">
        <ele>860.0</ele>
        <time>2019-07-07T09:35:01.804Z</time>
      </trkpt>
      <trkpt lat="42.95960333" lon="-0.20683">
        <ele>860.0</ele>
        <time>2019-07-07T09:35:02.809Z</time>
      </trkpt>
      <trkpt lat="42.95950833" lon="-0.20696">
        <ele>860.0</ele>
        <time>2019-07-07T09:35:03.804Z</time>
      </trkpt>
      <trkpt lat="42.95946" lon="-0.20702833">
        <ele>860.0</ele>
        <time>2019-07-07T09:35:04.804Z</time>
      </trkpt>
      <trkpt lat="42.95946" lon="-0.20702833">
        <ele>860.0</ele>
        <time>2019-07-07T09:35:05.810Z</time>
      </trkpt>
      <trkpt lat="42.959365" lon="-0.20716">
        <ele>860.0</ele>
        <time>2019-07-07T09:35:06.840Z</time>
      </trkpt>
      <trkpt lat="42.959365" lon="-0.20716">
        <ele>860.0</ele>
        <time>2019-07-07T09:35:07.806Z</time>
      </trkpt>
      <trkpt lat="42.95927333" lon="-0.20729833">
        <ele>860.0</ele>
        <time>2019-07-07T09:35:08.804Z</time>
      </trkpt>
      <trkpt lat="42.95927333" lon="-0.20729833">
        <ele>860.0</ele>
        <time>2019-07-07T09:35:09.809Z</time>
      </trkpt>
      <trkpt lat="42.95918667" lon="-0.207435">
        <ele>860.0</ele>
        <time>2019-07-07T09:35:10.802Z</time>
      </trkpt>
      <trkpt lat="42.95918667" lon="-0.207435">
        <ele>860.0</ele>
        <time>2019-07-07T09:35:11.808Z</time>
      </trkpt>
      <trkpt lat="42.95910167" lon="-0.20758">
        <ele>860.0</ele>
        <time>2019-07-07T09:35:12.824Z</time>
      </trkpt>
      <trkpt lat="42.95910167" lon="-0.20758">
        <ele>860.0</ele>
        <time>2019-07-07T09:35:13.831Z</time>
      </trkpt>
      <trkpt lat="42.95902167" lon="-0.20772833">
        <ele>860.0</ele>
        <time>2019-07-07T09:35:14.824Z</time>
      </trkpt>
      <trkpt lat="42.95902167" lon="-0.20772833">
        <ele>860.0</ele>
        <time>2019-07-07T09:35:15.831Z</time>
      </trkpt>
      <trkpt lat="42.95894333" lon="-0.207875">
        <ele>860.0</ele>
        <time>2019-07-07T09:35:16.813Z</time>
      </trkpt>
      <trkpt lat="42.95894333" lon="-0.207875">
        <ele>860.0</ele>
        <time>2019-07-07T09:35:17.820Z</time>
      </trkpt>
      <trkpt lat="42.95886333" lon="-0.20802333">
        <ele>860.0</ele>
        <time>2019-07-07T09:35:18.807Z</time>
      </trkpt>
      <trkpt lat="42.958825" lon="-0.20809833">
        <ele>860.0</ele>
        <time>2019-07-07T09:35:19.814Z</time>
      </trkpt>
      <trkpt lat="42.958825" lon="-0.20809833">
        <ele>860.0</ele>
        <time>2019-07-07T09:35:20.819Z</time>
      </trkpt>
      <trkpt lat="42.95874667" lon="-0.208235">
        <ele>860.0</ele>
        <time>2019-07-07T09:35:21.813Z</time>
      </trkpt>
      <trkpt lat="42.95870667" lon="-0.20830667">
        <ele>860.0</ele>
        <time>2019-07-07T09:35:22.812Z</time>
      </trkpt>
      <trkpt lat="42.95870667" lon="-0.20830667">
        <ele>860.0</ele>
        <time>2019-07-07T09:35:23.818Z</time>
      </trkpt>
      <trkpt lat="42.95862667" lon="-0.208455">
        <ele>859.0</ele>
        <time>2019-07-07T09:35:24.830Z</time>
      </trkpt>
      <trkpt lat="42.95862667" lon="-0.208455">
        <ele>859.0</ele>
        <time>2019-07-07T09:35:25.805Z</time>
      </trkpt>
      <trkpt lat="42.95855833" lon="-0.20860667">
        <ele>860.0</ele>
        <time>2019-07-07T09:35:26.802Z</time>
      </trkpt>
      <trkpt lat="42.95855833" lon="-0.20860667">
        <ele>860.0</ele>
        <time>2019-07-07T09:35:27.808Z</time>
      </trkpt>
      <trkpt lat="42.95848333" lon="-0.208755">
        <ele>860.0</ele>
        <time>2019-07-07T09:35:28.814Z</time>
      </trkpt>
      <trkpt lat="42.95848333" lon="-0.208755">
        <ele>860.0</ele>
        <time>2019-07-07T09:35:29.819Z</time>
      </trkpt>
      <trkpt lat="42.95840833" lon="-0.20889667">
        <ele>861.0</ele>
        <time>2019-07-07T09:35:30.815Z</time>
      </trkpt>
      <trkpt lat="42.95840833" lon="-0.20889667">
        <ele>861.0</ele>
        <time>2019-07-07T09:35:31.821Z</time>
      </trkpt>
      <trkpt lat="42.95833" lon="-0.20903">
        <ele>861.0</ele>
        <time>2019-07-07T09:35:32.824Z</time>
      </trkpt>
      <trkpt lat="42.95828833" lon="-0.20909833">
        <ele>861.0</ele>
        <time>2019-07-07T09:35:33.813Z</time>
      </trkpt>
      <trkpt lat="42.958245" lon="-0.20916333">
        <ele>861.0</ele>
        <time>2019-07-07T09:35:34.815Z</time>
      </trkpt>
      <trkpt lat="42.958245" lon="-0.20916333">
        <ele>861.0</ele>
        <time>2019-07-07T09:35:35.821Z</time>
      </trkpt>
      <trkpt lat="42.95816333" lon="-0.20929333">
        <ele>861.0</ele>
        <time>2019-07-07T09:35:36.834Z</time>
      </trkpt>
      <trkpt lat="42.95816333" lon="-0.20929333">
        <ele>861.0</ele>
        <time>2019-07-07T09:35:37.840Z</time>
      </trkpt>
      <trkpt lat="42.958085" lon="-0.209425">
        <ele>862.0</ele>
        <time>2019-07-07T09:35:38.814Z</time>
      </trkpt>
      <trkpt lat="42.958085" lon="-0.209425">
        <ele>862.0</ele>
        <time>2019-07-07T09:35:39.820Z</time>
      </trkpt>
      <trkpt lat="42.958005" lon="-0.20956">
        <ele>862.0</ele>
        <time>2019-07-07T09:35:40.815Z</time>
      </trkpt>
      <trkpt lat="42.958005" lon="-0.20956">
        <ele>862.0</ele>
        <time>2019-07-07T09:35:41.822Z</time>
      </trkpt>
      <trkpt lat="42.95792167" lon="-0.20969667">
        <ele>862.0</ele>
        <time>2019-07-07T09:35:42.804Z</time>
      </trkpt>
      <trkpt lat="42.95792167" lon="-0.20969667">
        <ele>862.0</ele>
        <time>2019-07-07T09:35:43.809Z</time>
      </trkpt>
      <trkpt lat="42.95784167" lon="-0.209825">
        <ele>862.0</ele>
        <time>2019-07-07T09:35:44.834Z</time>
      </trkpt>
      <trkpt lat="42.95784167" lon="-0.209825">
        <ele>862.0</ele>
        <time>2019-07-07T09:35:45.801Z</time>
      </trkpt>
      <trkpt lat="42.95775833" lon="-0.209955">
        <ele>863.0</ele>
        <time>2019-07-07T09:35:46.804Z</time>
      </trkpt>
      <trkpt lat="42.957715" lon="-0.21002">
        <ele>863.0</ele>
        <time>2019-07-07T09:35:47.809Z</time>
      </trkpt>
      <trkpt lat="42.957715" lon="-0.21002">
        <ele>863.0</ele>
        <time>2019-07-07T09:35:48.835Z</time>
      </trkpt>
      <trkpt lat="42.957635" lon="-0.210155">
        <ele>863.0</ele>
        <time>2019-07-07T09:35:49.840Z</time>
      </trkpt>
      <trkpt lat="42.957635" lon="-0.210155">
        <ele>863.0</ele>
        <time>2019-07-07T09:35:50.807Z</time>
      </trkpt>
      <trkpt lat="42.95755" lon="-0.21028667">
        <ele>863.0</ele>
        <time>2019-07-07T09:35:51.814Z</time>
      </trkpt>
      <trkpt lat="42.95755" lon="-0.21028667">
        <ele>863.0</ele>
        <time>2019-07-07T09:35:52.820Z</time>
      </trkpt>
      <trkpt lat="42.95746333" lon="-0.21040667">
        <ele>863.0</ele>
        <time>2019-07-07T09:35:53.804Z</time>
      </trkpt>
      <trkpt lat="42.95746333" lon="-0.21040667">
        <ele>863.0</ele>
        <time>2019-07-07T09:35:54.809Z</time>
      </trkpt>
      <trkpt lat="42.95738167" lon="-0.21054">
        <ele>864.0</ele>
        <time>2019-07-07T09:35:55.835Z</time>
      </trkpt>
      <trkpt lat="42.95738167" lon="-0.21054">
        <ele>864.0</ele>
        <time>2019-07-07T09:35:56.801Z</time>
      </trkpt>
      <trkpt lat="42.95729667" lon="-0.21067">
        <ele>864.0</ele>
        <time>2019-07-07T09:35:57.814Z</time>
      </trkpt>
      <trkpt lat="42.957255" lon="-0.210735">
        <ele>864.0</ele>
        <time>2019-07-07T09:35:58.816Z</time>
      </trkpt>
      <trkpt lat="42.957255" lon="-0.210735">
        <ele>864.0</ele>
        <time>2019-07-07T09:35:59.823Z</time>
      </trkpt>
      <trkpt lat="42.95718" lon="-0.21087333">
        <ele>864.0</ele>
        <time>2019-07-07T09:36:00.804Z</time>
      </trkpt>
      <trkpt lat="42.95718" lon="-0.21087333">
        <ele>864.0</ele>
        <time>2019-07-07T09:36:01.810Z</time>
      </trkpt>
      <trkpt lat="42.957115" lon="-0.21102">
        <ele>865.0</ele>
        <time>2019-07-07T09:36:02.814Z</time>
      </trkpt>
      <trkpt lat="42.95708333" lon="-0.21109667">
        <ele>865.0</ele>
        <time>2019-07-07T09:36:03.828Z</time>
      </trkpt>
      <trkpt lat="42.95708333" lon="-0.21109667">
        <ele>865.0</ele>
        <time>2019-07-07T09:36:04.834Z</time>
      </trkpt>
      <trkpt lat="42.95702667" lon="-0.211255">
        <ele>865.0</ele>
        <time>2019-07-07T09:36:05.834Z</time>
      </trkpt>
      <trkpt lat="42.95699833" lon="-0.21133167">
        <ele>865.0</ele>
        <time>2019-07-07T09:36:06.814Z</time>
      </trkpt>
      <trkpt lat="42.95699833" lon="-0.21133167">
        <ele>865.0</ele>
        <time>2019-07-07T09:36:07.820Z</time>
      </trkpt>
      <trkpt lat="42.95694667" lon="-0.21148667">
        <ele>865.0</ele>
        <time>2019-07-07T09:36:08.824Z</time>
      </trkpt>
      <trkpt lat="42.95692167" lon="-0.211565">
        <ele>865.0</ele>
        <time>2019-07-07T09:36:09.824Z</time>
      </trkpt>
      <trkpt lat="42.95692167" lon="-0.211565">
        <ele>865.0</ele>
        <time>2019-07-07T09:36:10.830Z</time>
      </trkpt>
      <trkpt lat="42.95686667" lon="-0.211725">
        <ele>866.0</ele>
        <time>2019-07-07T09:36:11.813Z</time>
      </trkpt>
      <trkpt lat="42.95684" lon="-0.21180333">
        <ele>866.0</ele>
        <time>2019-07-07T09:36:12.814Z</time>
      </trkpt>
      <trkpt lat="42.95681" lon="-0.21188667">
        <ele>866.0</ele>
        <time>2019-07-07T09:36:13.824Z</time>
      </trkpt>
      <trkpt lat="42.95681" lon="-0.21188667">
        <ele>866.0</ele>
        <time>2019-07-07T09:36:14.831Z</time>
      </trkpt>
      <trkpt lat="42.956755" lon="-0.21204333">
        <ele>866.0</ele>
        <time>2019-07-07T09:36:15.824Z</time>
      </trkpt>
      <trkpt lat="42.95672833" lon="-0.21211667">
        <ele>866.0</ele>
        <time>2019-07-07T09:36:16.839Z</time>
      </trkpt>
      <trkpt lat="42.95672833" lon="-0.21211667">
        <ele>866.0</ele>
        <time>2019-07-07T09:36:17.805Z</time>
      </trkpt>
      <trkpt lat="42.95667833" lon="-0.212275">
        <ele>866.0</ele>
        <time>2019-07-07T09:36:18.818Z</time>
      </trkpt>
      <trkpt lat="42.95667833" lon="-0.212275">
        <ele>866.0</ele>
        <time>2019-07-07T09:36:19.825Z</time>
      </trkpt>
      <trkpt lat="42.95664833" lon="-0.21244667">
        <ele>866.0</ele>
        <time>2019-07-07T09:36:20.833Z</time>
      </trkpt>
      <trkpt lat="42.95664833" lon="-0.21244667">
        <ele>866.0</ele>
        <time>2019-07-07T09:36:21.839Z</time>
      </trkpt>
      <trkpt lat="42.95663333" lon="-0.21262833">
        <ele>866.0</ele>
        <time>2019-07-07T09:36:22.810Z</time>
      </trkpt>
      <trkpt lat="42.95663333" lon="-0.21262833">
        <ele>866.0</ele>
        <time>2019-07-07T09:36:23.817Z</time>
      </trkpt>
      <trkpt lat="42.95662" lon="-0.21280167">
        <ele>866.0</ele>
        <time>2019-07-07T09:36:24.804Z</time>
      </trkpt>
      <trkpt lat="42.95662" lon="-0.21280167">
        <ele>866.0</ele>
        <time>2019-07-07T09:36:25.810Z</time>
      </trkpt>
      <trkpt lat="42.956575" lon="-0.212965">
        <ele>866.0</ele>
        <time>2019-07-07T09:36:26.804Z</time>
      </trkpt>
      <trkpt lat="42.956575" lon="-0.212965">
        <ele>866.0</ele>
        <time>2019-07-07T09:36:27.809Z</time>
      </trkpt>
      <trkpt lat="42.95652667" lon="-0.213105">
        <ele>866.0</ele>
        <time>2019-07-07T09:36:28.817Z</time>
      </trkpt>
      <trkpt lat="42.95649167" lon="-0.21317167">
        <ele>866.0</ele>
        <time>2019-07-07T09:36:29.834Z</time>
      </trkpt>
      <trkpt lat="42.95649167" lon="-0.21317167">
        <ele>866.0</ele>
        <time>2019-07-07T09:36:30.840Z</time>
      </trkpt>
      <trkpt lat="42.95641667" lon="-0.21330667">
        <ele>866.0</ele>
        <time>2019-07-07T09:36:31.811Z</time>
      </trkpt>
      <trkpt lat="42.95641667" lon="-0.21330667">
        <ele>866.0</ele>
        <time>2019-07-07T09:36:32.817Z</time>
      </trkpt>
      <trkpt lat="42.95633333" lon="-0.21343167">
        <ele>866.0</ele>
        <time>2019-07-07T09:36:33.829Z</time>
      </trkpt>
      <trkpt lat="42.95633333" lon="-0.21343167">
        <ele>866.0</ele>
        <time>2019-07-07T09:36:34.836Z</time>
      </trkpt>
      <trkpt lat="42.95625" lon="-0.213545">
        <ele>866.0</ele>
        <time>2019-07-07T09:36:35.819Z</time>
      </trkpt>
      <trkpt lat="42.95621" lon="-0.21360667">
        <ele>866.0</ele>
        <time>2019-07-07T09:36:36.818Z</time>
      </trkpt>
      <trkpt lat="42.95621" lon="-0.21360667">
        <ele>866.0</ele>
        <time>2019-07-07T09:36:37.824Z</time>
      </trkpt>
      <trkpt lat="42.95615" lon="-0.21375167">
        <ele>866.0</ele>
        <time>2019-07-07T09:36:38.840Z</time>
      </trkpt>
      <trkpt lat="42.95614167" lon="-0.21383">
        <ele>866.0</ele>
        <time>2019-07-07T09:36:39.834Z</time>
      </trkpt>
      <trkpt lat="42.95614167" lon="-0.21383">
        <ele>866.0</ele>
        <time>2019-07-07T09:36:40.840Z</time>
      </trkpt>
      <trkpt lat="42.95613833" lon="-0.21397667">
        <ele>866.0</ele>
        <time>2019-07-07T09:36:41.807Z</time>
      </trkpt>
      <trkpt lat="42.95613667" lon="-0.214055">
        <ele>866.0</ele>
        <time>2019-07-07T09:36:42.803Z</time>
      </trkpt>
      <trkpt lat="42.95613667" lon="-0.214055">
        <ele>866.0</ele>
        <time>2019-07-07T09:36:43.810Z</time>
      </trkpt>
      <trkpt lat="42.95612833" lon="-0.214205">
        <ele>866.0</ele>
        <time>2019-07-07T09:36:44.804Z</time>
      </trkpt>
      <trkpt lat="42.956135" lon="-0.214285">
        <ele>866.0</ele>
        <time>2019-07-07T09:36:45.840Z</time>
      </trkpt>
      <trkpt lat="42.956135" lon="-0.214285">
        <ele>866.0</ele>
        <time>2019-07-07T09:36:46.806Z</time>
      </trkpt>
      <trkpt lat="42.95616333" lon="-0.21443333">
        <ele>867.0</ele>
        <time>2019-07-07T09:36:47.823Z</time>
      </trkpt>
      <trkpt lat="42.95618833" lon="-0.21450833">
        <ele>867.0</ele>
        <time>2019-07-07T09:36:48.836Z</time>
      </trkpt>
      <trkpt lat="42.95618833" lon="-0.21450833">
        <ele>867.0</ele>
        <time>2019-07-07T09:36:49.804Z</time>
      </trkpt>
      <trkpt lat="42.956245" lon="-0.21465167">
        <ele>867.0</ele>
        <time>2019-07-07T09:36:50.824Z</time>
      </trkpt>
      <trkpt lat="42.956245" lon="-0.21465167">
        <ele>867.0</ele>
        <time>2019-07-07T09:36:51.832Z</time>
      </trkpt>
      <trkpt lat="42.95629833" lon="-0.21479333">
        <ele>868.0</ele>
        <time>2019-07-07T09:36:52.834Z</time>
      </trkpt>
      <trkpt lat="42.95632667" lon="-0.21486333">
        <ele>868.0</ele>
        <time>2019-07-07T09:36:53.804Z</time>
      </trkpt>
      <trkpt lat="42.95632667" lon="-0.21486333">
        <ele>868.0</ele>
        <time>2019-07-07T09:36:54.810Z</time>
      </trkpt>
      <trkpt lat="42.956385" lon="-0.21499833">
        <ele>868.0</ele>
        <time>2019-07-07T09:36:55.803Z</time>
      </trkpt>
      <trkpt lat="42.956385" lon="-0.21499833">
        <ele>868.0</ele>
        <time>2019-07-07T09:36:56.809Z</time>
      </trkpt>
      <trkpt lat="42.95643667" lon="-0.21512">
        <ele>868.0</ele>
        <time>2019-07-07T09:36:57.814Z</time>
      </trkpt>
      <trkpt lat="42.956475" lon="-0.21516">
        <ele>868.0</ele>
        <time>2019-07-07T09:36:58.830Z</time>
      </trkpt>
      <trkpt lat="42.956475" lon="-0.21516">
        <ele>868.0</ele>
        <time>2019-07-07T09:36:59.839Z</time>
      </trkpt>
      <trkpt lat="42.956545" lon="-0.215255">
        <ele>868.0</ele>
        <time>2019-07-07T09:37:00.817Z</time>
      </trkpt>
      <trkpt lat="42.95658167" lon="-0.21530333">
        <ele>869.0</ele>
        <time>2019-07-07T09:37:01.834Z</time>
      </trkpt>
      <trkpt lat="42.95658167" lon="-0.21530333">
        <ele>869.0</ele>
        <time>2019-07-07T09:37:02.840Z</time>
      </trkpt>
      <trkpt lat="42.95666667" lon="-0.21539833">
        <ele>869.0</ele>
        <time>2019-07-07T09:37:03.804Z</time>
      </trkpt>
      <trkpt lat="42.95666667" lon="-0.21539833">
        <ele>869.0</ele>
        <time>2019-07-07T09:37:04.810Z</time>
      </trkpt>
      <trkpt lat="42.956755" lon="-0.21547333">
        <ele>868.0</ele>
        <time>2019-07-07T09:37:05.824Z</time>
      </trkpt>
      <trkpt lat="42.95680667" lon="-0.21551">
        <ele>869.0</ele>
        <time>2019-07-07T09:37:06.820Z</time>
      </trkpt>
      <trkpt lat="42.95685333" lon="-0.21554333">
        <ele>869.0</ele>
        <time>2019-07-07T09:37:07.834Z</time>
      </trkpt>
      <trkpt lat="42.95685333" lon="-0.21554333">
        <ele>869.0</ele>
        <time>2019-07-07T09:37:08.839Z</time>
      </trkpt>
      <trkpt lat="42.95694" lon="-0.21558">
        <ele>869.0</ele>
        <time>2019-07-07T09:37:09.814Z</time>
      </trkpt>
      <trkpt lat="42.956985" lon="-0.2156">
        <ele>869.0</ele>
        <time>2019-07-07T09:37:10.819Z</time>
      </trkpt>
      <trkpt lat="42.95703167" lon="-0.21562">
        <ele>870.0</ele>
        <time>2019-07-07T09:37:11.804Z</time>
      </trkpt>
      <trkpt lat="42.95703167" lon="-0.21562">
        <ele>870.0</ele>
        <time>2019-07-07T09:37:12.810Z</time>
      </trkpt>
      <trkpt lat="42.957115" lon="-0.21564">
        <ele>870.0</ele>
        <time>2019-07-07T09:37:13.803Z</time>
      </trkpt>
      <trkpt lat="42.957115" lon="-0.21564">
        <ele>870.0</ele>
        <time>2019-07-07T09:37:14.809Z</time>
      </trkpt>
      <trkpt lat="42.95719333" lon="-0.21565">
        <ele>871.0</ele>
        <time>2019-07-07T09:37:15.814Z</time>
      </trkpt>
      <trkpt lat="42.95719333" lon="-0.21565">
        <ele>871.0</ele>
        <time>2019-07-07T09:37:16.831Z</time>
      </trkpt>
      <trkpt lat="42.95727" lon="-0.21565167">
        <ele>872.0</ele>
        <time>2019-07-07T09:37:17.814Z</time>
      </trkpt>
      <trkpt lat="42.9573" lon="-0.21564333">
        <ele>872.0</ele>
        <time>2019-07-07T09:37:18.824Z</time>
      </trkpt>
      <trkpt lat="42.9573" lon="-0.21564333">
        <ele>872.0</ele>
        <time>2019-07-07T09:37:19.832Z</time>
      </trkpt>
      <trkpt lat="42.95735833" lon="-0.21560833">
        <ele>872.0</ele>
        <time>2019-07-07T09:37:20.814Z</time>
      </trkpt>
      <trkpt lat="42.95735833" lon="-0.21560833">
        <ele>872.0</ele>
        <time>2019-07-07T09:37:21.820Z</time>
      </trkpt>
      <trkpt lat="42.95742167" lon="-0.21556167">
        <ele>873.0</ele>
        <time>2019-07-07T09:37:22.804Z</time>
      </trkpt>
      <trkpt lat="42.95742167" lon="-0.21556167">
        <ele>873.0</ele>
        <time>2019-07-07T09:37:23.810Z</time>
      </trkpt>
      <trkpt lat="42.957485" lon="-0.21550667">
        <ele>874.0</ele>
        <time>2019-07-07T09:37:24.814Z</time>
      </trkpt>
      <trkpt lat="42.957485" lon="-0.21550667">
        <ele>874.0</ele>
        <time>2019-07-07T09:37:25.820Z</time>
      </trkpt>
      <trkpt lat="42.95754667" lon="-0.21545167">
        <ele>875.0</ele>
        <time>2019-07-07T09:37:26.804Z</time>
      </trkpt>
      <trkpt lat="42.95754667" lon="-0.21545167">
        <ele>875.0</ele>
        <time>2019-07-07T09:37:27.809Z</time>
      </trkpt>
      <trkpt lat="42.95760667" lon="-0.2154">
        <ele>875.0</ele>
        <time>2019-07-07T09:37:28.821Z</time>
      </trkpt>
      <trkpt lat="42.95763333" lon="-0.21537">
        <ele>876.0</ele>
        <time>2019-07-07T09:37:29.824Z</time>
      </trkpt>
      <trkpt lat="42.95765667" lon="-0.215345">
        <ele>876.0</ele>
        <time>2019-07-07T09:37:30.813Z</time>
      </trkpt>
      <trkpt lat="42.95765667" lon="-0.215345">
        <ele>876.0</ele>
        <time>2019-07-07T09:37:31.819Z</time>
      </trkpt>
      <trkpt lat="42.95770833" lon="-0.21530833">
        <ele>877.0</ele>
        <time>2019-07-07T09:37:32.804Z</time>
      </trkpt>
      <trkpt lat="42.95770833" lon="-0.21530833">
        <ele>877.0</ele>
        <time>2019-07-07T09:37:33.810Z</time>
      </trkpt>
      <trkpt lat="42.95776833" lon="-0.21527">
        <ele>877.0</ele>
        <time>2019-07-07T09:37:34.822Z</time>
      </trkpt>
      <trkpt lat="42.95779667" lon="-0.21525667">
        <ele>878.0</ele>
        <time>2019-07-07T09:37:35.837Z</time>
      </trkpt>
      <trkpt lat="42.95782" lon="-0.215245">
        <ele>878.0</ele>
        <time>2019-07-07T09:37:36.821Z</time>
      </trkpt>
      <trkpt lat="42.95782" lon="-0.215245">
        <ele>878.0</ele>
        <time>2019-07-07T09:37:37.830Z</time>
      </trkpt>
      <trkpt lat="42.95786833" lon="-0.21521833">
        <ele>878.0</ele>
        <time>2019-07-07T09:37:38.814Z</time>
      </trkpt>
      <trkpt lat="42.957895" lon="-0.21520333">
        <ele>879.0</ele>
        <time>2019-07-07T09:37:39.834Z</time>
      </trkpt>
      <trkpt lat="42.957895" lon="-0.21520333">
        <ele>879.0</ele>
        <time>2019-07-07T09:37:40.839Z</time>
      </trkpt>
      <trkpt lat="42.957945" lon="-0.21516833">
        <ele>879.0</ele>
        <time>2019-07-07T09:37:41.814Z</time>
      </trkpt>
      <trkpt lat="42.95797167" lon="-0.21514667">
        <ele>879.0</ele>
        <time>2019-07-07T09:37:42.834Z</time>
      </trkpt>
      <trkpt lat="42.95800333" lon="-0.21512833">
        <ele>880.0</ele>
        <time>2019-07-07T09:37:43.825Z</time>
      </trkpt>
      <trkpt lat="42.95800333" lon="-0.21512833">
        <ele>880.0</ele>
        <time>2019-07-07T09:37:44.832Z</time>
      </trkpt>
      <trkpt lat="42.95805" lon="-0.21508333">
        <ele>881.0</ele>
        <time>2019-07-07T09:37:45.804Z</time>
      </trkpt>
      <trkpt lat="42.95805" lon="-0.21508333">
        <ele>881.0</ele>
        <time>2019-07-07T09:37:46.810Z</time>
      </trkpt>
      <trkpt lat="42.95809333" lon="-0.21502833">
        <ele>882.0</ele>
        <time>2019-07-07T09:37:47.803Z</time>
      </trkpt>
      <trkpt lat="42.95811167" lon="-0.214995">
        <ele>883.0</ele>
        <time>2019-07-07T09:37:48.807Z</time>
      </trkpt>
      <trkpt lat="42.95811167" lon="-0.214995">
        <ele>883.0</ele>
        <time>2019-07-07T09:37:49.812Z</time>
      </trkpt>
      <trkpt lat="42.95814" lon="-0.214935">
        <ele>883.0</ele>
        <time>2019-07-07T09:37:50.830Z</time>
      </trkpt>
      <trkpt lat="42.95814" lon="-0.214935">
        <ele>883.0</ele>
        <time>2019-07-07T09:37:51.837Z</time>
      </trkpt>
      <trkpt lat="42.958175" lon="-0.214875">
        <ele>884.0</ele>
        <time>2019-07-07T09:37:52.804Z</time>
      </trkpt>
      <trkpt lat="42.95819167" lon="-0.21484167">
        <ele>885.0</ele>
        <time>2019-07-07T09:37:53.810Z</time>
      </trkpt>
      <trkpt lat="42.95820667" lon="-0.21480833">
        <ele>885.0</ele>
        <time>2019-07-07T09:37:54.804Z</time>
      </trkpt>
      <trkpt lat="42.95820667" lon="-0.21480833">
        <ele>885.0</ele>
        <time>2019-07-07T09:37:55.809Z</time>
      </trkpt>
      <trkpt lat="42.95823833" lon="-0.21473667">
        <ele>886.0</ele>
        <time>2019-07-07T09:37:56.824Z</time>
      </trkpt>
      <trkpt lat="42.95826" lon="-0.21471167">
        <ele>887.0</ele>
        <time>2019-07-07T09:37:57.804Z</time>
      </trkpt>
      <trkpt lat="42.95826" lon="-0.21471167">
        <ele>887.0</ele>
        <time>2019-07-07T09:37:58.810Z</time>
      </trkpt>
      <trkpt lat="42.95829833" lon="-0.21465">
        <ele>888.0</ele>
        <time>2019-07-07T09:37:59.814Z</time>
      </trkpt>
      <trkpt lat="42.95832" lon="-0.21462">
        <ele>888.0</ele>
        <time>2019-07-07T09:38:00.823Z</time>
      </trkpt>
      <trkpt lat="42.95832" lon="-0.21462">
        <ele>888.0</ele>
        <time>2019-07-07T09:38:01.830Z</time>
      </trkpt>
      <trkpt lat="42.958355" lon="-0.21455333">
        <ele>889.0</ele>
        <time>2019-07-07T09:38:02.801Z</time>
      </trkpt>
      <trkpt lat="42.958355" lon="-0.21455333">
        <ele>889.0</ele>
        <time>2019-07-07T09:38:03.807Z</time>
      </trkpt>
      <trkpt lat="42.958385" lon="-0.21448167">
        <ele>889.0</ele>
        <time>2019-07-07T09:38:04.819Z</time>
      </trkpt>
      <trkpt lat="42.958385" lon="-0.21448167">
        <ele>889.0</ele>
        <time>2019-07-07T09:38:05.826Z</time>
      </trkpt>
      <trkpt lat="42.95841667" lon="-0.214405">
        <ele>890.0</ele>
        <time>2019-07-07T09:38:06.833Z</time>
      </trkpt>
      <trkpt lat="42.95841667" lon="-0.214405">
        <ele>890.0</ele>
        <time>2019-07-07T09:38:07.839Z</time>
      </trkpt>
      <trkpt lat="42.95843667" lon="-0.214325">
        <ele>891.0</ele>
        <time>2019-07-07T09:38:08.806Z</time>
      </trkpt>
      <trkpt lat="42.95843667" lon="-0.214325">
        <ele>891.0</ele>
        <time>2019-07-07T09:38:09.812Z</time>
      </trkpt>
      <trkpt lat="42.958455" lon="-0.21425167">
        <ele>891.0</ele>
        <time>2019-07-07T09:38:10.827Z</time>
      </trkpt>
      <trkpt lat="42.958455" lon="-0.21425167">
        <ele>891.0</ele>
        <time>2019-07-07T09:38:11.806Z</time>
      </trkpt>
      <trkpt lat="42.95846667" lon="-0.21417833">
        <ele>892.0</ele>
        <time>2019-07-07T09:38:12.814Z</time>
      </trkpt>
      <trkpt lat="42.95846667" lon="-0.21417833">
        <ele>892.0</ele>
        <time>2019-07-07T09:38:13.820Z</time>
      </trkpt>
      <trkpt lat="42.95847833" lon="-0.214105">
        <ele>893.0</ele>
        <time>2019-07-07T09:38:14.824Z</time>
      </trkpt>
      <trkpt lat="42.95847833" lon="-0.214105">
        <ele>893.0</ele>
        <time>2019-07-07T09:38:15.832Z</time>
      </trkpt>
      <trkpt lat="42.95849333" lon="-0.21402667">
        <ele>894.0</ele>
        <time>2019-07-07T09:38:16.834Z</time>
      </trkpt>
      <trkpt lat="42.95849667" lon="-0.21398833">
        <ele>895.0</ele>
        <time>2019-07-07T09:38:17.814Z</time>
      </trkpt>
      <trkpt lat="42.95850333" lon="-0.21395">
        <ele>896.0</ele>
        <time>2019-07-07T09:38:18.824Z</time>
      </trkpt>
      <trkpt lat="42.95850333" lon="-0.21395">
        <ele>896.0</ele>
        <time>2019-07-07T09:38:19.831Z</time>
      </trkpt>
      <trkpt lat="42.95850833" lon="-0.21387667">
        <ele>897.0</ele>
        <time>2019-07-07T09:38:20.803Z</time>
      </trkpt>
      <trkpt lat="42.95850833" lon="-0.21387667">
        <ele>897.0</ele>
        <time>2019-07-07T09:38:21.809Z</time>
      </trkpt>
      <trkpt lat="42.958515" lon="-0.21380333">
        <ele>898.0</ele>
        <time>2019-07-07T09:38:22.822Z</time>
      </trkpt>
      <trkpt lat="42.958515" lon="-0.21380333">
        <ele>898.0</ele>
        <time>2019-07-07T09:38:23.828Z</time>
      </trkpt>
      <trkpt lat="42.95853167" lon="-0.213735">
        <ele>899.0</ele>
        <time>2019-07-07T09:38:24.804Z</time>
      </trkpt>
      <trkpt lat="42.95853167" lon="-0.213735">
        <ele>899.0</ele>
        <time>2019-07-07T09:38:25.809Z</time>
      </trkpt>
      <trkpt lat="42.95856167" lon="-0.21367167">
        <ele>900.0</ele>
        <time>2019-07-07T09:38:26.819Z</time>
      </trkpt>
      <trkpt lat="42.95857167" lon="-0.21364167">
        <ele>900.0</ele>
        <time>2019-07-07T09:38:27.804Z</time>
      </trkpt>
      <trkpt lat="42.95857167" lon="-0.21364167">
        <ele>900.0</ele>
        <time>2019-07-07T09:38:28.809Z</time>
      </trkpt>
      <trkpt lat="42.95859833" lon="-0.21359167">
        <ele>901.0</ele>
        <time>2019-07-07T09:38:29.817Z</time>
      </trkpt>
      <trkpt lat="42.95861667" lon="-0.21356333">
        <ele>901.0</ele>
        <time>2019-07-07T09:38:30.815Z</time>
      </trkpt>
      <trkpt lat="42.95861667" lon="-0.21356333">
        <ele>901.0</ele>
        <time>2019-07-07T09:38:31.821Z</time>
      </trkpt>
      <trkpt lat="42.958665" lon="-0.213505">
        <ele>901.0</ele>
        <time>2019-07-07T09:38:32.804Z</time>
      </trkpt>
      <trkpt lat="42.958665" lon="-0.213505">
        <ele>901.0</ele>
        <time>2019-07-07T09:38:33.810Z</time>
      </trkpt>
      <trkpt lat="42.958715" lon="-0.21345667">
        <ele>901.0</ele>
        <time>2019-07-07T09:38:34.824Z</time>
      </trkpt>
      <trkpt lat="42.958715" lon="-0.21345667">
        <ele>901.0</ele>
        <time>2019-07-07T09:38:35.832Z</time>
      </trkpt>
      <trkpt lat="42.95876833" lon="-0.21341667">
        <ele>901.0</ele>
        <time>2019-07-07T09:38:36.831Z</time>
      </trkpt>
      <trkpt lat="42.95876833" lon="-0.21341667">
        <ele>901.0</ele>
        <time>2019-07-07T09:38:37.837Z</time>
      </trkpt>
      <trkpt lat="42.95881833" lon="-0.21338">
        <ele>902.0</ele>
        <time>2019-07-07T09:38:38.810Z</time>
      </trkpt>
      <trkpt lat="42.95884333" lon="-0.21335833">
        <ele>902.0</ele>
        <time>2019-07-07T09:38:39.807Z</time>
      </trkpt>
      <trkpt lat="42.95884333" lon="-0.21335833">
        <ele>902.0</ele>
        <time>2019-07-07T09:38:40.814Z</time>
      </trkpt>
      <trkpt lat="42.95889" lon="-0.21330667">
        <ele>902.0</ele>
        <time>2019-07-07T09:38:41.824Z</time>
      </trkpt>
      <trkpt lat="42.958915" lon="-0.21328333">
        <ele>902.0</ele>
        <time>2019-07-07T09:38:42.803Z</time>
      </trkpt>
      <trkpt lat="42.958915" lon="-0.21328333">
        <ele>902.0</ele>
        <time>2019-07-07T09:38:43.810Z</time>
      </trkpt>
      <trkpt lat="42.95895833" lon="-0.213225">
        <ele>902.0</ele>
        <time>2019-07-07T09:38:44.814Z</time>
      </trkpt>
      <trkpt lat="42.95897667" lon="-0.213195">
        <ele>902.0</ele>
        <time>2019-07-07T09:38:45.824Z</time>
      </trkpt>
      <trkpt lat="42.95897667" lon="-0.213195">
        <ele>902.0</ele>
        <time>2019-07-07T09:38:46.835Z</time>
      </trkpt>
      <trkpt lat="42.959015" lon="-0.21313333">
        <ele>902.0</ele>
        <time>2019-07-07T09:38:47.813Z</time>
      </trkpt>
      <trkpt lat="42.959015" lon="-0.21313333">
        <ele>902.0</ele>
        <time>2019-07-07T09:38:48.838Z</time>
      </trkpt>
      <trkpt lat="42.95904333" lon="-0.213065">
        <ele>903.0</ele>
        <time>2019-07-07T09:38:49.838Z</time>
      </trkpt>
      <trkpt lat="42.95904333" lon="-0.213065">
        <ele>903.0</ele>
        <time>2019-07-07T09:38:50.804Z</time>
      </trkpt>
      <trkpt lat="42.959085" lon="-0.21300333">
        <ele>903.0</ele>
        <time>2019-07-07T09:38:51.814Z</time>
      </trkpt>
      <trkpt lat="42.959105" lon="-0.21297167">
        <ele>903.0</ele>
        <time>2019-07-07T09:38:52.828Z</time>
      </trkpt>
      <trkpt lat="42.959105" lon="-0.21297167">
        <ele>903.0</ele>
        <time>2019-07-07T09:38:53.835Z</time>
      </trkpt>
      <trkpt lat="42.95914" lon="-0.21290833">
        <ele>904.0</ele>
        <time>2019-07-07T09:38:54.812Z</time>
      </trkpt>
      <trkpt lat="42.95914" lon="-0.21290833">
        <ele>904.0</ele>
        <time>2019-07-07T09:38:55.818Z</time>
      </trkpt>
      <trkpt lat="42.95917667" lon="-0.21285">
        <ele>904.0</ele>
        <time>2019-07-07T09:38:56.826Z</time>
      </trkpt>
      <trkpt lat="42.95917667" lon="-0.21285">
        <ele>904.0</ele>
        <time>2019-07-07T09:38:57.831Z</time>
      </trkpt>
      <trkpt lat="42.95921167" lon="-0.21278167">
        <ele>904.0</ele>
        <time>2019-07-07T09:38:58.801Z</time>
      </trkpt>
      <trkpt lat="42.95922667" lon="-0.21274167">
        <ele>904.0</ele>
        <time>2019-07-07T09:38:59.821Z</time>
      </trkpt>
      <trkpt lat="42.959245" lon="-0.21271">
        <ele>905.0</ele>
        <time>2019-07-07T09:39:00.824Z</time>
      </trkpt>
      <trkpt lat="42.959245" lon="-0.21271">
        <ele>905.0</ele>
        <time>2019-07-07T09:39:01.831Z</time>
      </trkpt>
      <trkpt lat="42.95928333" lon="-0.21264667">
        <ele>905.0</ele>
        <time>2019-07-07T09:39:02.804Z</time>
      </trkpt>
      <trkpt lat="42.95928333" lon="-0.21264667">
        <ele>905.0</ele>
        <time>2019-07-07T09:39:03.810Z</time>
      </trkpt>
      <trkpt lat="42.95932333" lon="-0.21258833">
        <ele>906.0</ele>
        <time>2019-07-07T09:39:04.808Z</time>
      </trkpt>
      <trkpt lat="42.95934333" lon="-0.21256333">
        <ele>906.0</ele>
        <time>2019-07-07T09:39:05.820Z</time>
      </trkpt>
      <trkpt lat="42.959365" lon="-0.21253667">
        <ele>906.0</ele>
        <time>2019-07-07T09:39:06.824Z</time>
      </trkpt>
      <trkpt lat="42.959365" lon="-0.21253667">
        <ele>906.0</ele>
        <time>2019-07-07T09:39:07.812Z</time>
      </trkpt>
      <trkpt lat="42.95940833" lon="-0.212485">
        <ele>907.0</ele>
        <time>2019-07-07T09:39:08.812Z</time>
      </trkpt>
      <trkpt lat="42.95940833" lon="-0.212485">
        <ele>907.0</ele>
        <time>2019-07-07T09:39:09.818Z</time>
      </trkpt>
      <trkpt lat="42.95945333" lon="-0.21243833">
        <ele>908.0</ele>
        <time>2019-07-07T09:39:10.823Z</time>
      </trkpt>
      <trkpt lat="42.959475" lon="-0.212415">
        <ele>908.0</ele>
        <time>2019-07-07T09:39:11.839Z</time>
      </trkpt>
      <trkpt lat="42.959475" lon="-0.212415">
        <ele>908.0</ele>
        <time>2019-07-07T09:39:12.805Z</time>
      </trkpt>
      <trkpt lat="42.95952167" lon="-0.212365">
        <ele>909.0</ele>
        <time>2019-07-07T09:39:13.824Z</time>
      </trkpt>
      <trkpt lat="42.95952167" lon="-0.212365">
        <ele>909.0</ele>
        <time>2019-07-07T09:39:14.830Z</time>
      </trkpt>
      <trkpt lat="42.959565" lon="-0.21232">
        <ele>909.0</ele>
        <time>2019-07-07T09:39:15.834Z</time>
      </trkpt>
      <trkpt lat="42.959565" lon="-0.21232">
        <ele>909.0</ele>
        <time>2019-07-07T09:39:16.839Z</time>
      </trkpt>
      <trkpt lat="42.95960667" lon="-0.21227333">
        <ele>909.0</ele>
        <time>2019-07-07T09:39:17.828Z</time>
      </trkpt>
      <trkpt lat="42.95963" lon="-0.21224667">
        <ele>909.0</ele>
        <time>2019-07-07T09:39:18.827Z</time>
      </trkpt>
      <trkpt lat="42.95963" lon="-0.21224667">
        <ele>909.0</ele>
        <time>2019-07-07T09:39:19.836Z</time>
      </trkpt>
      <trkpt lat="42.95967333" lon="-0.2122">
        <ele>910.0</ele>
        <time>2019-07-07T09:39:20.832Z</time>
      </trkpt>
      <trkpt lat="42.95967333" lon="-0.2122">
        <ele>910.0</ele>
        <time>2019-07-07T09:39:21.838Z</time>
      </trkpt>
      <trkpt lat="42.95971667" lon="-0.21215333">
        <ele>910.0</ele>
        <time>2019-07-07T09:39:22.813Z</time>
      </trkpt>
      <trkpt lat="42.95971667" lon="-0.21215333">
        <ele>910.0</ele>
        <time>2019-07-07T09:39:23.819Z</time>
      </trkpt>
      <trkpt lat="42.95975833" lon="-0.212105">
        <ele>910.0</ele>
        <time>2019-07-07T09:39:24.834Z</time>
      </trkpt>
      <trkpt lat="42.95975833" lon="-0.212105">
        <ele>910.0</ele>
        <time>2019-07-07T09:39:25.840Z</time>
      </trkpt>
      <trkpt lat="42.95980333" lon="-0.21206167">
        <ele>911.0</ele>
        <time>2019-07-07T09:39:26.803Z</time>
      </trkpt>
      <trkpt lat="42.95982333" lon="-0.21203833">
        <ele>911.0</ele>
        <time>2019-07-07T09:39:27.834Z</time>
      </trkpt>
      <trkpt lat="42.95982333" lon="-0.21203833">
        <ele>911.0</ele>
        <time>2019-07-07T09:39:28.839Z</time>
      </trkpt>
      <trkpt lat="42.95986333" lon="-0.21199167">
        <ele>911.0</ele>
        <time>2019-07-07T09:39:29.824Z</time>
      </trkpt>
      <trkpt lat="42.95986333" lon="-0.21199167">
        <ele>911.0</ele>
        <time>2019-07-07T09:39:30.831Z</time>
      </trkpt>
      <trkpt lat="42.959905" lon="-0.21195">
        <ele>911.0</ele>
        <time>2019-07-07T09:39:31.817Z</time>
      </trkpt>
      <trkpt lat="42.959905" lon="-0.21195">
        <ele>911.0</ele>
        <time>2019-07-07T09:39:32.823Z</time>
      </trkpt>
      <trkpt lat="42.959945" lon="-0.211905">
        <ele>912.0</ele>
        <time>2019-07-07T09:39:33.804Z</time>
      </trkpt>
      <trkpt lat="42.959945" lon="-0.211905">
        <ele>912.0</ele>
        <time>2019-07-07T09:39:34.809Z</time>
      </trkpt>
      <trkpt lat="42.95998167" lon="-0.21185667">
        <ele>912.0</ele>
        <time>2019-07-07T09:39:35.834Z</time>
      </trkpt>
      <trkpt lat="42.95999667" lon="-0.21183">
        <ele>913.0</ele>
        <time>2019-07-07T09:39:36.814Z</time>
      </trkpt>
      <trkpt lat="42.95999667" lon="-0.21183">
        <ele>913.0</ele>
        <time>2019-07-07T09:39:37.821Z</time>
      </trkpt>
      <trkpt lat="42.960035" lon="-0.211775">
        <ele>913.0</ele>
        <time>2019-07-07T09:39:38.824Z</time>
      </trkpt>
      <trkpt lat="42.960055" lon="-0.21174667">
        <ele>914.0</ele>
        <time>2019-07-07T09:39:39.840Z</time>
      </trkpt>
      <trkpt lat="42.960055" lon="-0.21174667">
        <ele>914.0</ele>
        <time>2019-07-07T09:39:40.806Z</time>
      </trkpt>
      <trkpt lat="42.960085" lon="-0.21168167">
        <ele>914.0</ele>
        <time>2019-07-07T09:39:41.809Z</time>
      </trkpt>
      <trkpt lat="42.960085" lon="-0.21168167">
        <ele>914.0</ele>
        <time>2019-07-07T09:39:42.815Z</time>
      </trkpt>
      <trkpt lat="42.96010667" lon="-0.21161333">
        <ele>915.0</ele>
        <time>2019-07-07T09:39:43.832Z</time>
      </trkpt>
      <trkpt lat="42.96011667" lon="-0.21157667">
        <ele>916.0</ele>
        <time>2019-07-07T09:39:44.814Z</time>
      </trkpt>
      <trkpt lat="42.96011667" lon="-0.21157667">
        <ele>916.0</ele>
        <time>2019-07-07T09:39:45.820Z</time>
      </trkpt>
      <trkpt lat="42.96012833" lon="-0.21150833">
        <ele>917.0</ele>
        <time>2019-07-07T09:39:46.804Z</time>
      </trkpt>
      <trkpt lat="42.96015333" lon="-0.21144167">
        <ele>917.0</ele>
        <time>2019-07-07T09:39:47.835Z</time>
      </trkpt>
      <trkpt lat="42.96015333" lon="-0.21144167">
        <ele>917.0</ele>
        <time>2019-07-07T09:39:48.820Z</time>
      </trkpt>
      <trkpt lat="42.960165" lon="-0.21140333">
        <ele>918.0</ele>
        <time>2019-07-07T09:39:49.822Z</time>
      </trkpt>
      <trkpt lat="42.960165" lon="-0.21140333">
        <ele>918.0</ele>
        <time>2019-07-07T09:39:50.832Z</time>
      </trkpt>
      <trkpt lat="42.96019167" lon="-0.21133333">
        <ele>918.0</ele>
        <time>2019-07-07T09:39:51.834Z</time>
      </trkpt>
      <trkpt lat="42.96019167" lon="-0.21133333">
        <ele>918.0</ele>
        <time>2019-07-07T09:39:52.840Z</time>
      </trkpt>
      <trkpt lat="42.96022667" lon="-0.21127833">
        <ele>918.0</ele>
        <time>2019-07-07T09:39:53.804Z</time>
      </trkpt>
      <trkpt lat="42.96025" lon="-0.21125333">
        <ele>919.0</ele>
        <time>2019-07-07T09:39:54.802Z</time>
      </trkpt>
      <trkpt lat="42.96025" lon="-0.21125333">
        <ele>919.0</ele>
        <time>2019-07-07T09:39:55.808Z</time>
      </trkpt>
      <trkpt lat="42.96029833" lon="-0.21121667">
        <ele>919.0</ele>
        <time>2019-07-07T09:39:56.834Z</time>
      </trkpt>
      <trkpt lat="42.960325" lon="-0.2112">
        <ele>919.0</ele>
        <time>2019-07-07T09:39:57.818Z</time>
      </trkpt>
      <trkpt lat="42.960325" lon="-0.2112">
        <ele>919.0</ele>
        <time>2019-07-07T09:39:58.825Z</time>
      </trkpt>
      <trkpt lat="42.96038333" lon="-0.21118167">
        <ele>919.0</ele>
        <time>2019-07-07T09:39:59.834Z</time>
      </trkpt>
      <trkpt lat="42.96038333" lon="-0.21118167">
        <ele>919.0</ele>
        <time>2019-07-07T09:40:00.840Z</time>
      </trkpt>
      <trkpt lat="42.960445" lon="-0.21118333">
        <ele>919.0</ele>
        <time>2019-07-07T09:40:01.814Z</time>
      </trkpt>
      <trkpt lat="42.960475" lon="-0.21119333">
        <ele>920.0</ele>
        <time>2019-07-07T09:40:02.812Z</time>
      </trkpt>
      <trkpt lat="42.960475" lon="-0.21119333">
        <ele>920.0</ele>
        <time>2019-07-07T09:40:03.818Z</time>
      </trkpt>
      <trkpt lat="42.96052667" lon="-0.211235">
        <ele>920.0</ele>
        <time>2019-07-07T09:40:04.804Z</time>
      </trkpt>
      <trkpt lat="42.96052667" lon="-0.211235">
        <ele>920.0</ele>
        <time>2019-07-07T09:40:05.810Z</time>
      </trkpt>
      <trkpt lat="42.96057167" lon="-0.211295">
        <ele>920.0</ele>
        <time>2019-07-07T09:40:06.804Z</time>
      </trkpt>
      <trkpt lat="42.96057167" lon="-0.211295">
        <ele>920.0</ele>
        <time>2019-07-07T09:40:07.810Z</time>
      </trkpt>
      <trkpt lat="42.960605" lon="-0.21136333">
        <ele>920.0</ele>
        <time>2019-07-07T09:40:08.811Z</time>
      </trkpt>
      <trkpt lat="42.960605" lon="-0.21136333">
        <ele>920.0</ele>
        <time>2019-07-07T09:40:09.817Z</time>
      </trkpt>
      <trkpt lat="42.960625" lon="-0.21144">
        <ele>921.0</ele>
        <time>2019-07-07T09:40:10.834Z</time>
      </trkpt>
      <trkpt lat="42.96063167" lon="-0.21148">
        <ele>921.0</ele>
        <time>2019-07-07T09:40:11.833Z</time>
      </trkpt>
      <trkpt lat="42.96063167" lon="-0.21148">
        <ele>921.0</ele>
        <time>2019-07-07T09:40:12.838Z</time>
      </trkpt>
      <trkpt lat="42.96063167" lon="-0.21156">
        <ele>922.0</ele>
        <time>2019-07-07T09:40:13.811Z</time>
      </trkpt>
      <trkpt lat="42.96063167" lon="-0.21156">
        <ele>922.0</ele>
        <time>2019-07-07T09:40:14.817Z</time>
      </trkpt>
      <trkpt lat="42.96063" lon="-0.21164">
        <ele>923.0</ele>
        <time>2019-07-07T09:40:15.804Z</time>
      </trkpt>
      <trkpt lat="42.96063" lon="-0.21164">
        <ele>923.0</ele>
        <time>2019-07-07T09:40:16.811Z</time>
      </trkpt>
      <trkpt lat="42.96062833" lon="-0.21171833">
        <ele>923.0</ele>
        <time>2019-07-07T09:40:17.820Z</time>
      </trkpt>
      <trkpt lat="42.96062833" lon="-0.21175667">
        <ele>924.0</ele>
        <time>2019-07-07T09:40:18.804Z</time>
      </trkpt>
      <trkpt lat="42.96062833" lon="-0.21175667">
        <ele>924.0</ele>
        <time>2019-07-07T09:40:19.820Z</time>
      </trkpt>
      <trkpt lat="42.96062833" lon="-0.211835">
        <ele>924.0</ele>
        <time>2019-07-07T09:40:20.804Z</time>
      </trkpt>
      <trkpt lat="42.96062833" lon="-0.211835">
        <ele>924.0</ele>
        <time>2019-07-07T09:40:21.810Z</time>
      </trkpt>
      <trkpt lat="42.96062667" lon="-0.21191167">
        <ele>925.0</ele>
        <time>2019-07-07T09:40:22.829Z</time>
      </trkpt>
      <trkpt lat="42.96062667" lon="-0.21191167">
        <ele>925.0</ele>
        <time>2019-07-07T09:40:23.835Z</time>
      </trkpt>
      <trkpt lat="42.96062833" lon="-0.21198667">
        <ele>925.0</ele>
        <time>2019-07-07T09:40:24.824Z</time>
      </trkpt>
      <trkpt lat="42.96062667" lon="-0.212025">
        <ele>925.0</ele>
        <time>2019-07-07T09:40:25.824Z</time>
      </trkpt>
      <trkpt lat="42.96062667" lon="-0.212025">
        <ele>925.0</ele>
        <time>2019-07-07T09:40:26.833Z</time>
      </trkpt>
      <trkpt lat="42.96062667" lon="-0.21210333">
        <ele>926.0</ele>
        <time>2019-07-07T09:40:27.804Z</time>
      </trkpt>
      <trkpt lat="42.96062667" lon="-0.21214333">
        <ele>926.0</ele>
        <time>2019-07-07T09:40:28.831Z</time>
      </trkpt>
      <trkpt lat="42.96062667" lon="-0.21214333">
        <ele>926.0</ele>
        <time>2019-07-07T09:40:29.807Z</time>
      </trkpt>
      <trkpt lat="42.960625" lon="-0.21222">
        <ele>926.0</ele>
        <time>2019-07-07T09:40:30.814Z</time>
      </trkpt>
      <trkpt lat="42.960625" lon="-0.21222">
        <ele>926.0</ele>
        <time>2019-07-07T09:40:31.820Z</time>
      </trkpt>
      <trkpt lat="42.960625" lon="-0.21230333">
        <ele>927.0</ele>
        <time>2019-07-07T09:40:32.834Z</time>
      </trkpt>
      <trkpt lat="42.96062333" lon="-0.21234333">
        <ele>927.0</ele>
        <time>2019-07-07T09:40:33.814Z</time>
      </trkpt>
      <trkpt lat="42.96062333" lon="-0.21234333">
        <ele>927.0</ele>
        <time>2019-07-07T09:40:34.820Z</time>
      </trkpt>
      <trkpt lat="42.96062167" lon="-0.212425">
        <ele>928.0</ele>
        <time>2019-07-07T09:40:35.814Z</time>
      </trkpt>
      <trkpt lat="42.96062" lon="-0.212465">
        <ele>928.0</ele>
        <time>2019-07-07T09:40:36.814Z</time>
      </trkpt>
      <trkpt lat="42.96062" lon="-0.212465">
        <ele>928.0</ele>
        <time>2019-07-07T09:40:37.820Z</time>
      </trkpt>
      <trkpt lat="42.96062333" lon="-0.212545">
        <ele>928.0</ele>
        <time>2019-07-07T09:40:38.804Z</time>
      </trkpt>
      <trkpt lat="42.96062333" lon="-0.21258833">
        <ele>928.0</ele>
        <time>2019-07-07T09:40:39.819Z</time>
      </trkpt>
      <trkpt lat="42.96062333" lon="-0.21258833">
        <ele>928.0</ele>
        <time>2019-07-07T09:40:40.825Z</time>
      </trkpt>
      <trkpt lat="42.96062" lon="-0.21267333">
        <ele>929.0</ele>
        <time>2019-07-07T09:40:41.834Z</time>
      </trkpt>
      <trkpt lat="42.96061833" lon="-0.21271">
        <ele>929.0</ele>
        <time>2019-07-07T09:40:42.834Z</time>
      </trkpt>
      <trkpt lat="42.96061833" lon="-0.21271">
        <ele>929.0</ele>
        <time>2019-07-07T09:40:43.839Z</time>
      </trkpt>
      <trkpt lat="42.96062333" lon="-0.212795">
        <ele>929.0</ele>
        <time>2019-07-07T09:40:44.812Z</time>
      </trkpt>
      <trkpt lat="42.96062333" lon="-0.212795">
        <ele>929.0</ele>
        <time>2019-07-07T09:40:45.818Z</time>
      </trkpt>
      <trkpt lat="42.96062333" lon="-0.21287333">
        <ele>930.0</ele>
        <time>2019-07-07T09:40:46.823Z</time>
      </trkpt>
      <trkpt lat="42.96062333" lon="-0.21291333">
        <ele>930.0</ele>
        <time>2019-07-07T09:40:47.827Z</time>
      </trkpt>
      <trkpt lat="42.96062333" lon="-0.21291333">
        <ele>930.0</ele>
        <time>2019-07-07T09:40:48.806Z</time>
      </trkpt>
      <trkpt lat="42.960625" lon="-0.21299333">
        <ele>931.0</ele>
        <time>2019-07-07T09:40:49.820Z</time>
      </trkpt>
      <trkpt lat="42.96062333" lon="-0.21303333">
        <ele>931.0</ele>
        <time>2019-07-07T09:40:50.804Z</time>
      </trkpt>
      <trkpt lat="42.96062333" lon="-0.21303333">
        <ele>931.0</ele>
        <time>2019-07-07T09:40:51.809Z</time>
      </trkpt>
      <trkpt lat="42.96061833" lon="-0.21311167">
        <ele>932.0</ele>
        <time>2019-07-07T09:40:52.834Z</time>
      </trkpt>
      <trkpt lat="42.96061833" lon="-0.21311167">
        <ele>932.0</ele>
        <time>2019-07-07T09:40:53.840Z</time>
      </trkpt>
      <trkpt lat="42.96061167" lon="-0.21319333">
        <ele>933.0</ele>
        <time>2019-07-07T09:40:54.820Z</time>
      </trkpt>
      <trkpt lat="42.96060833" lon="-0.21323333">
        <ele>933.0</ele>
        <time>2019-07-07T09:40:55.804Z</time>
      </trkpt>
      <trkpt lat="42.96060833" lon="-0.21323333">
        <ele>933.0</ele>
        <time>2019-07-07T09:40:56.809Z</time>
      </trkpt>
      <trkpt lat="42.960595" lon="-0.21331">
        <ele>933.0</ele>
        <time>2019-07-07T09:40:57.822Z</time>
      </trkpt>
      <trkpt lat="42.960595" lon="-0.21331">
        <ele>933.0</ele>
        <time>2019-07-07T09:40:58.810Z</time>
      </trkpt>
      <trkpt lat="42.96058" lon="-0.21338667">
        <ele>934.0</ele>
        <time>2019-07-07T09:40:59.831Z</time>
      </trkpt>
      <trkpt lat="42.96057167" lon="-0.213425">
        <ele>934.0</ele>
        <time>2019-07-07T09:41:00.814Z</time>
      </trkpt>
      <trkpt lat="42.96057167" lon="-0.213425">
        <ele>934.0</ele>
        <time>2019-07-07T09:41:01.819Z</time>
      </trkpt>
      <trkpt lat="42.96055333" lon="-0.21350333">
        <ele>935.0</ele>
        <time>2019-07-07T09:41:02.833Z</time>
      </trkpt>
      <trkpt lat="42.96055333" lon="-0.21350333">
        <ele>935.0</ele>
        <time>2019-07-07T09:41:03.839Z</time>
      </trkpt>
      <trkpt lat="42.96054" lon="-0.21358333">
        <ele>935.0</ele>
        <time>2019-07-07T09:41:04.816Z</time>
      </trkpt>
      <trkpt lat="42.96054" lon="-0.21358333">
        <ele>935.0</ele>
        <time>2019-07-07T09:41:05.823Z</time>
      </trkpt>
      <trkpt lat="42.96053167" lon="-0.21366">
        <ele>935.0</ele>
        <time>2019-07-07T09:41:06.833Z</time>
      </trkpt>
      <trkpt lat="42.96053167" lon="-0.21366">
        <ele>935.0</ele>
        <time>2019-07-07T09:41:07.839Z</time>
      </trkpt>
      <trkpt lat="42.96052833" lon="-0.21373667">
        <ele>936.0</ele>
        <time>2019-07-07T09:41:08.809Z</time>
      </trkpt>
      <trkpt lat="42.96052833" lon="-0.21373667">
        <ele>936.0</ele>
        <time>2019-07-07T09:41:09.814Z</time>
      </trkpt>
      <trkpt lat="42.96053333" lon="-0.21381333">
        <ele>936.0</ele>
        <time>2019-07-07T09:41:10.804Z</time>
      </trkpt>
      <trkpt lat="42.96054" lon="-0.21384833">
        <ele>936.0</ele>
        <time>2019-07-07T09:41:11.824Z</time>
      </trkpt>
      <trkpt lat="42.96054" lon="-0.21384833">
        <ele>936.0</ele>
        <time>2019-07-07T09:41:12.830Z</time>
      </trkpt>
      <trkpt lat="42.96055333" lon="-0.213925">
        <ele>937.0</ele>
        <time>2019-07-07T09:41:13.837Z</time>
      </trkpt>
      <trkpt lat="42.96055333" lon="-0.213925">
        <ele>937.0</ele>
        <time>2019-07-07T09:41:14.802Z</time>
      </trkpt>
      <trkpt lat="42.96057833" lon="-0.21398667">
        <ele>937.0</ele>
        <time>2019-07-07T09:41:15.814Z</time>
      </trkpt>
      <trkpt lat="42.96059167" lon="-0.21401667">
        <ele>937.0</ele>
        <time>2019-07-07T09:41:16.824Z</time>
      </trkpt>
      <trkpt lat="42.96059167" lon="-0.21401667">
        <ele>937.0</ele>
        <time>2019-07-07T09:41:17.830Z</time>
      </trkpt>
      <trkpt lat="42.96062333" lon="-0.214075">
        <ele>938.0</ele>
        <time>2019-07-07T09:41:18.833Z</time>
      </trkpt>
      <trkpt lat="42.96064" lon="-0.21410333">
        <ele>938.0</ele>
        <time>2019-07-07T09:41:19.814Z</time>
      </trkpt>
      <trkpt lat="42.96064" lon="-0.21410333">
        <ele>938.0</ele>
        <time>2019-07-07T09:41:20.820Z</time>
      </trkpt>
      <trkpt lat="42.96068" lon="-0.21415333">
        <ele>938.0</ele>
        <time>2019-07-07T09:41:21.804Z</time>
      </trkpt>
      <trkpt lat="42.96068" lon="-0.21415333">
        <ele>938.0</ele>
        <time>2019-07-07T09:41:22.810Z</time>
      </trkpt>
      <trkpt lat="42.96072167" lon="-0.21420667">
        <ele>939.0</ele>
        <time>2019-07-07T09:41:23.804Z</time>
      </trkpt>
      <trkpt lat="42.96072167" lon="-0.21420667">
        <ele>939.0</ele>
        <time>2019-07-07T09:41:24.809Z</time>
      </trkpt>
      <trkpt lat="42.96076333" lon="-0.21426">
        <ele>939.0</ele>
        <time>2019-07-07T09:41:25.835Z</time>
      </trkpt>
      <trkpt lat="42.96076333" lon="-0.21426">
        <ele>939.0</ele>
        <time>2019-07-07T09:41:26.801Z</time>
      </trkpt>
      <trkpt lat="42.96080167" lon="-0.21430333">
        <ele>940.0</ele>
        <time>2019-07-07T09:41:27.820Z</time>
      </trkpt>
      <trkpt lat="42.96082" lon="-0.21432667">
        <ele>940.0</ele>
        <time>2019-07-07T09:41:28.814Z</time>
      </trkpt>
      <trkpt lat="42.96082" lon="-0.21432667">
        <ele>940.0</ele>
        <time>2019-07-07T09:41:29.820Z</time>
      </trkpt>
      <trkpt lat="42.96085167" lon="-0.21437667">
        <ele>940.0</ele>
        <time>2019-07-07T09:41:30.824Z</time>
      </trkpt>
      <trkpt lat="42.96086667" lon="-0.21440667">
        <ele>940.0</ele>
        <time>2019-07-07T09:41:31.814Z</time>
      </trkpt>
      <trkpt lat="42.96086667" lon="-0.21440667">
        <ele>940.0</ele>
        <time>2019-07-07T09:41:32.820Z</time>
      </trkpt>
      <trkpt lat="42.96089833" lon="-0.21447">
        <ele>941.0</ele>
        <time>2019-07-07T09:41:33.824Z</time>
      </trkpt>
      <trkpt lat="42.96089833" lon="-0.21447">
        <ele>941.0</ele>
        <time>2019-07-07T09:41:34.833Z</time>
      </trkpt>
      <trkpt lat="42.96092167" lon="-0.214535">
        <ele>941.0</ele>
        <time>2019-07-07T09:41:35.840Z</time>
      </trkpt>
      <trkpt lat="42.96092167" lon="-0.214535">
        <ele>941.0</ele>
        <time>2019-07-07T09:41:36.807Z</time>
      </trkpt>
      <trkpt lat="42.96093667" lon="-0.21460167">
        <ele>941.0</ele>
        <time>2019-07-07T09:41:37.824Z</time>
      </trkpt>
      <trkpt lat="42.96093667" lon="-0.21460167">
        <ele>941.0</ele>
        <time>2019-07-07T09:41:38.830Z</time>
      </trkpt>
      <trkpt lat="42.96095" lon="-0.214675">
        <ele>942.0</ele>
        <time>2019-07-07T09:41:39.824Z</time>
      </trkpt>
      <trkpt lat="42.96095" lon="-0.214675">
        <ele>942.0</ele>
        <time>2019-07-07T09:41:40.833Z</time>
      </trkpt>
      <trkpt lat="42.96096667" lon="-0.21475333">
        <ele>942.0</ele>
        <time>2019-07-07T09:41:41.808Z</time>
      </trkpt>
      <trkpt lat="42.96096667" lon="-0.21475333">
        <ele>942.0</ele>
        <time>2019-07-07T09:41:42.814Z</time>
      </trkpt>
      <trkpt lat="42.96097667" lon="-0.21483">
        <ele>943.0</ele>
        <time>2019-07-07T09:41:43.837Z</time>
      </trkpt>
      <trkpt lat="42.96097667" lon="-0.21483">
        <ele>943.0</ele>
        <time>2019-07-07T09:41:44.803Z</time>
      </trkpt>
      <trkpt lat="42.96098167" lon="-0.214915">
        <ele>943.0</ele>
        <time>2019-07-07T09:41:45.834Z</time>
      </trkpt>
      <trkpt lat="42.96098167" lon="-0.214915">
        <ele>943.0</ele>
        <time>2019-07-07T09:41:46.839Z</time>
      </trkpt>
      <trkpt lat="42.96099" lon="-0.214995">
        <ele>944.0</ele>
        <time>2019-07-07T09:41:47.813Z</time>
      </trkpt>
      <trkpt lat="42.96099" lon="-0.21503167">
        <ele>944.0</ele>
        <time>2019-07-07T09:41:48.837Z</time>
      </trkpt>
      <trkpt lat="42.96099" lon="-0.21507167">
        <ele>944.0</ele>
        <time>2019-07-07T09:41:49.804Z</time>
      </trkpt>
      <trkpt lat="42.96099" lon="-0.21507167">
        <ele>944.0</ele>
        <time>2019-07-07T09:41:50.810Z</time>
      </trkpt>
      <trkpt lat="42.96098167" lon="-0.21514">
        <ele>945.0</ele>
        <time>2019-07-07T09:41:51.822Z</time>
      </trkpt>
      <trkpt lat="42.96098" lon="-0.21517167">
        <ele>945.0</ele>
        <time>2019-07-07T09:41:52.834Z</time>
      </trkpt>
      <trkpt lat="42.96098" lon="-0.21517167">
        <ele>945.0</ele>
        <time>2019-07-07T09:41:53.840Z</time>
      </trkpt>
      <trkpt lat="42.960975" lon="-0.215235">
        <ele>945.0</ele>
        <time>2019-07-07T09:41:54.824Z</time>
      </trkpt>
      <trkpt lat="42.96096833" lon="-0.21526833">
        <ele>945.0</ele>
        <time>2019-07-07T09:41:55.824Z</time>
      </trkpt>
      <trkpt lat="42.96096833" lon="-0.21526833">
        <ele>945.0</ele>
        <time>2019-07-07T09:41:56.830Z</time>
      </trkpt>
      <trkpt lat="42.96096333" lon="-0.21534333">
        <ele>946.0</ele>
        <time>2019-07-07T09:41:57.809Z</time>
      </trkpt>
      <trkpt lat="42.96096333" lon="-0.21534333">
        <ele>946.0</ele>
        <time>2019-07-07T09:41:58.815Z</time>
      </trkpt>
      <trkpt lat="42.96096" lon="-0.21541833">
        <ele>946.0</ele>
        <time>2019-07-07T09:41:59.825Z</time>
      </trkpt>
      <trkpt lat="42.96096" lon="-0.21541833">
        <ele>946.0</ele>
        <time>2019-07-07T09:42:00.831Z</time>
      </trkpt>
      <trkpt lat="42.96095667" lon="-0.21549667">
        <ele>947.0</ele>
        <time>2019-07-07T09:42:01.811Z</time>
      </trkpt>
      <trkpt lat="42.96095667" lon="-0.21549667">
        <ele>947.0</ele>
        <time>2019-07-07T09:42:02.817Z</time>
      </trkpt>
      <trkpt lat="42.96095" lon="-0.215575">
        <ele>947.0</ele>
        <time>2019-07-07T09:42:03.816Z</time>
      </trkpt>
      <trkpt lat="42.96095" lon="-0.215575">
        <ele>947.0</ele>
        <time>2019-07-07T09:42:04.822Z</time>
      </trkpt>
      <trkpt lat="42.96094167" lon="-0.21564833">
        <ele>948.0</ele>
        <time>2019-07-07T09:42:05.840Z</time>
      </trkpt>
      <trkpt lat="42.96094167" lon="-0.21564833">
        <ele>948.0</ele>
        <time>2019-07-07T09:42:06.806Z</time>
      </trkpt>
      <trkpt lat="42.96093" lon="-0.21571667">
        <ele>949.0</ele>
        <time>2019-07-07T09:42:07.824Z</time>
      </trkpt>
      <trkpt lat="42.96093" lon="-0.21571667">
        <ele>949.0</ele>
        <time>2019-07-07T09:42:08.831Z</time>
      </trkpt>
      <trkpt lat="42.96092167" lon="-0.21578167">
        <ele>950.0</ele>
        <time>2019-07-07T09:42:09.814Z</time>
      </trkpt>
      <trkpt lat="42.96092167" lon="-0.21578167">
        <ele>950.0</ele>
        <time>2019-07-07T09:42:10.820Z</time>
      </trkpt>
      <trkpt lat="42.960925" lon="-0.21586333">
        <ele>952.0</ele>
        <time>2019-07-07T09:42:11.826Z</time>
      </trkpt>
      <trkpt lat="42.960925" lon="-0.21586333">
        <ele>952.0</ele>
        <time>2019-07-07T09:42:12.832Z</time>
      </trkpt>
      <trkpt lat="42.96091167" lon="-0.21592667">
        <ele>953.0</ele>
        <time>2019-07-07T09:42:13.804Z</time>
      </trkpt>
      <trkpt lat="42.96091167" lon="-0.21592667">
        <ele>953.0</ele>
        <time>2019-07-07T09:42:14.809Z</time>
      </trkpt>
      <trkpt lat="42.96090333" lon="-0.21599">
        <ele>954.0</ele>
        <time>2019-07-07T09:42:15.824Z</time>
      </trkpt>
      <trkpt lat="42.96090333" lon="-0.21599">
        <ele>954.0</ele>
        <time>2019-07-07T09:42:16.830Z</time>
      </trkpt>
      <trkpt lat="42.96090167" lon="-0.216065">
        <ele>955.0</ele>
        <time>2019-07-07T09:42:17.839Z</time>
      </trkpt>
      <trkpt lat="42.9609" lon="-0.21610833">
        <ele>955.0</ele>
        <time>2019-07-07T09:42:18.807Z</time>
      </trkpt>
      <trkpt lat="42.9609" lon="-0.21610833">
        <ele>955.0</ele>
        <time>2019-07-07T09:42:19.813Z</time>
      </trkpt>
      <trkpt lat="42.96089167" lon="-0.21618667">
        <ele>956.0</ele>
        <time>2019-07-07T09:42:20.825Z</time>
      </trkpt>
      <trkpt lat="42.96088667" lon="-0.21622167">
        <ele>957.0</ele>
        <time>2019-07-07T09:42:21.824Z</time>
      </trkpt>
      <trkpt lat="42.96088333" lon="-0.21625833">
        <ele>957.0</ele>
        <time>2019-07-07T09:42:22.824Z</time>
      </trkpt>
      <trkpt lat="42.96088333" lon="-0.21625833">
        <ele>957.0</ele>
        <time>2019-07-07T09:42:23.830Z</time>
      </trkpt>
      <trkpt lat="42.960875" lon="-0.21633">
        <ele>958.0</ele>
        <time>2019-07-07T09:42:24.828Z</time>
      </trkpt>
      <trkpt lat="42.960875" lon="-0.21633">
        <ele>958.0</ele>
        <time>2019-07-07T09:42:25.835Z</time>
      </trkpt>
      <trkpt lat="42.96087" lon="-0.2164">
        <ele>959.0</ele>
        <time>2019-07-07T09:42:26.811Z</time>
      </trkpt>
      <trkpt lat="42.96087" lon="-0.2164">
        <ele>959.0</ele>
        <time>2019-07-07T09:42:27.818Z</time>
      </trkpt>
      <trkpt lat="42.96086833" lon="-0.21647">
        <ele>960.0</ele>
        <time>2019-07-07T09:42:28.834Z</time>
      </trkpt>
      <trkpt lat="42.96087167" lon="-0.21650333">
        <ele>960.0</ele>
        <time>2019-07-07T09:42:29.823Z</time>
      </trkpt>
      <trkpt lat="42.96087333" lon="-0.21653667">
        <ele>960.0</ele>
        <time>2019-07-07T09:42:30.832Z</time>
      </trkpt>
      <trkpt lat="42.96087333" lon="-0.21653667">
        <ele>960.0</ele>
        <time>2019-07-07T09:42:31.838Z</time>
      </trkpt>
      <trkpt lat="42.96087667" lon="-0.21661">
        <ele>960.0</ele>
        <time>2019-07-07T09:42:32.838Z</time>
      </trkpt>
      <trkpt lat="42.96087667" lon="-0.21661">
        <ele>960.0</ele>
        <time>2019-07-07T09:42:33.804Z</time>
      </trkpt>
      <trkpt lat="42.96085833" lon="-0.21667833">
        <ele>961.0</ele>
        <time>2019-07-07T09:42:34.824Z</time>
      </trkpt>
      <trkpt lat="42.96084333" lon="-0.21670667">
        <ele>961.0</ele>
        <time>2019-07-07T09:42:35.824Z</time>
      </trkpt>
      <trkpt lat="42.96084333" lon="-0.21670667">
        <ele>961.0</ele>
        <time>2019-07-07T09:42:36.829Z</time>
      </trkpt>
      <trkpt lat="42.96083" lon="-0.21677333">
        <ele>962.0</ele>
        <time>2019-07-07T09:42:37.824Z</time>
      </trkpt>
      <trkpt lat="42.96083333" lon="-0.216805">
        <ele>962.0</ele>
        <time>2019-07-07T09:42:38.821Z</time>
      </trkpt>
      <trkpt lat="42.96084333" lon="-0.21683833">
        <ele>962.0</ele>
        <time>2019-07-07T09:42:39.824Z</time>
      </trkpt>
      <trkpt lat="42.96084333" lon="-0.21683833">
        <ele>962.0</ele>
        <time>2019-07-07T09:42:40.834Z</time>
      </trkpt>
      <trkpt lat="42.96086667" lon="-0.21690167">
        <ele>963.0</ele>
        <time>2019-07-07T09:42:41.824Z</time>
      </trkpt>
      <trkpt lat="42.960885" lon="-0.216925">
        <ele>964.0</ele>
        <time>2019-07-07T09:42:42.804Z</time>
      </trkpt>
      <trkpt lat="42.960885" lon="-0.216925">
        <ele>964.0</ele>
        <time>2019-07-07T09:42:43.810Z</time>
      </trkpt>
      <trkpt lat="42.96090333" lon="-0.21699333">
        <ele>964.0</ele>
        <time>2019-07-07T09:42:44.834Z</time>
      </trkpt>
      <trkpt lat="42.960905" lon="-0.21703667">
        <ele>964.0</ele>
        <time>2019-07-07T09:42:45.814Z</time>
      </trkpt>
      <trkpt lat="42.960905" lon="-0.21703667">
        <ele>964.0</ele>
        <time>2019-07-07T09:42:46.820Z</time>
      </trkpt>
      <trkpt lat="42.96089833" lon="-0.21711833">
        <ele>965.0</ele>
        <time>2019-07-07T09:42:47.833Z</time>
      </trkpt>
      <trkpt lat="42.96089833" lon="-0.21711833">
        <ele>965.0</ele>
        <time>2019-07-07T09:42:48.819Z</time>
      </trkpt>
      <trkpt lat="42.96089333" lon="-0.217205">
        <ele>965.0</ele>
        <time>2019-07-07T09:42:49.806Z</time>
      </trkpt>
      <trkpt lat="42.96089333" lon="-0.217205">
        <ele>965.0</ele>
        <time>2019-07-07T09:42:50.812Z</time>
      </trkpt>
      <trkpt lat="42.96088667" lon="-0.21728333">
        <ele>966.0</ele>
        <time>2019-07-07T09:42:51.830Z</time>
      </trkpt>
      <trkpt lat="42.96087833" lon="-0.21732167">
        <ele>966.0</ele>
        <time>2019-07-07T09:42:52.834Z</time>
      </trkpt>
      <trkpt lat="42.96087833" lon="-0.21732167">
        <ele>966.0</ele>
        <time>2019-07-07T09:42:53.840Z</time>
      </trkpt>
      <trkpt lat="42.96086" lon="-0.21739667">
        <ele>967.0</ele>
        <time>2019-07-07T09:42:54.839Z</time>
      </trkpt>
      <trkpt lat="42.96085333" lon="-0.21743">
        <ele>967.0</ele>
        <time>2019-07-07T09:42:55.818Z</time>
      </trkpt>
      <trkpt lat="42.96085333" lon="-0.21743">
        <ele>967.0</ele>
        <time>2019-07-07T09:42:56.824Z</time>
      </trkpt>
      <trkpt lat="42.96083333" lon="-0.217505">
        <ele>967.0</ele>
        <time>2019-07-07T09:42:57.824Z</time>
      </trkpt>
      <trkpt lat="42.96083333" lon="-0.217505">
        <ele>967.0</ele>
        <time>2019-07-07T09:42:58.829Z</time>
      </trkpt>
      <trkpt lat="42.96082" lon="-0.21757833">
        <ele>967.0</ele>
        <time>2019-07-07T09:42:59.803Z</time>
      </trkpt>
      <trkpt lat="42.96082" lon="-0.21757833">
        <ele>967.0</ele>
        <time>2019-07-07T09:43:00.808Z</time>
      </trkpt>
      <trkpt lat="42.96081" lon="-0.21765">
        <ele>968.0</ele>
        <time>2019-07-07T09:43:01.824Z</time>
      </trkpt>
      <trkpt lat="42.96080667" lon="-0.21768667">
        <ele>968.0</ele>
        <time>2019-07-07T09:43:02.836Z</time>
      </trkpt>
      <trkpt lat="42.96080667" lon="-0.21768667">
        <ele>968.0</ele>
        <time>2019-07-07T09:43:03.801Z</time>
      </trkpt>
      <trkpt lat="42.9608" lon="-0.21776">
        <ele>968.0</ele>
        <time>2019-07-07T09:43:04.806Z</time>
      </trkpt>
      <trkpt lat="42.9608" lon="-0.21779833">
        <ele>968.0</ele>
        <time>2019-07-07T09:43:05.824Z</time>
      </trkpt>
      <trkpt lat="42.9608" lon="-0.21779833">
        <ele>968.0</ele>
        <time>2019-07-07T09:43:06.830Z</time>
      </trkpt>
      <trkpt lat="42.9608" lon="-0.21787333">
        <ele>968.0</ele>
        <time>2019-07-07T09:43:07.823Z</time>
      </trkpt>
      <trkpt lat="42.96080167" lon="-0.21791333">
        <ele>968.0</ele>
        <time>2019-07-07T09:43:08.814Z</time>
      </trkpt>
      <trkpt lat="42.96080167" lon="-0.21791333">
        <ele>968.0</ele>
        <time>2019-07-07T09:43:09.820Z</time>
      </trkpt>
      <trkpt lat="42.960805" lon="-0.21798667">
        <ele>969.0</ele>
        <time>2019-07-07T09:43:10.813Z</time>
      </trkpt>
      <trkpt lat="42.960805" lon="-0.21798667">
        <ele>969.0</ele>
        <time>2019-07-07T09:43:11.819Z</time>
      </trkpt>
      <trkpt lat="42.96081333" lon="-0.21805333">
        <ele>970.0</ele>
        <time>2019-07-07T09:43:12.809Z</time>
      </trkpt>
      <trkpt lat="42.96081333" lon="-0.21805333">
        <ele>970.0</ele>
        <time>2019-07-07T09:43:13.814Z</time>
      </trkpt>
      <trkpt lat="42.96082167" lon="-0.21812167">
        <ele>971.0</ele>
        <time>2019-07-07T09:43:14.834Z</time>
      </trkpt>
      <trkpt lat="42.96082167" lon="-0.21812167">
        <ele>971.0</ele>
        <time>2019-07-07T09:43:15.840Z</time>
      </trkpt>
      <trkpt lat="42.960825" lon="-0.21819">
        <ele>972.0</ele>
        <time>2019-07-07T09:43:16.840Z</time>
      </trkpt>
      <trkpt lat="42.960825" lon="-0.21819">
        <ele>972.0</ele>
        <time>2019-07-07T09:43:17.807Z</time>
      </trkpt>
      <trkpt lat="42.96082833" lon="-0.21826667">
        <ele>972.0</ele>
        <time>2019-07-07T09:43:18.809Z</time>
      </trkpt>
      <trkpt lat="42.96082833" lon="-0.21826667">
        <ele>972.0</ele>
        <time>2019-07-07T09:43:19.817Z</time>
      </trkpt>
      <trkpt lat="42.96083333" lon="-0.21834167">
        <ele>973.0</ele>
        <time>2019-07-07T09:43:20.840Z</time>
      </trkpt>
      <trkpt lat="42.96083333" lon="-0.21834167">
        <ele>973.0</ele>
        <time>2019-07-07T09:43:21.806Z</time>
      </trkpt>
      <trkpt lat="42.96082833" lon="-0.21842">
        <ele>973.0</ele>
        <time>2019-07-07T09:43:22.824Z</time>
      </trkpt>
      <trkpt lat="42.96082167" lon="-0.21845667">
        <ele>974.0</ele>
        <time>2019-07-07T09:43:23.834Z</time>
      </trkpt>
      <trkpt lat="42.96082167" lon="-0.21845667">
        <ele>974.0</ele>
        <time>2019-07-07T09:43:24.840Z</time>
      </trkpt>
      <trkpt lat="42.96080833" lon="-0.218535">
        <ele>974.0</ele>
        <time>2019-07-07T09:43:25.814Z</time>
      </trkpt>
      <trkpt lat="42.96080833" lon="-0.218535">
        <ele>974.0</ele>
        <time>2019-07-07T09:43:26.820Z</time>
      </trkpt>
      <trkpt lat="42.96078667" lon="-0.21860667">
        <ele>975.0</ele>
        <time>2019-07-07T09:43:27.807Z</time>
      </trkpt>
      <trkpt lat="42.96078667" lon="-0.21860667">
        <ele>975.0</ele>
        <time>2019-07-07T09:43:28.812Z</time>
      </trkpt>
      <trkpt lat="42.96076" lon="-0.21867833">
        <ele>975.0</ele>
        <time>2019-07-07T09:43:29.823Z</time>
      </trkpt>
      <trkpt lat="42.96074667" lon="-0.21871167">
        <ele>976.0</ele>
        <time>2019-07-07T09:43:30.834Z</time>
      </trkpt>
      <trkpt lat="42.96074667" lon="-0.21871167">
        <ele>976.0</ele>
        <time>2019-07-07T09:43:31.840Z</time>
      </trkpt>
      <trkpt lat="42.96071333" lon="-0.21878167">
        <ele>976.0</ele>
        <time>2019-07-07T09:43:32.801Z</time>
      </trkpt>
      <trkpt lat="42.96071333" lon="-0.21878167">
        <ele>976.0</ele>
        <time>2019-07-07T09:43:33.807Z</time>
      </trkpt>
      <trkpt lat="42.96069667" lon="-0.21885333">
        <ele>977.0</ele>
        <time>2019-07-07T09:43:34.803Z</time>
      </trkpt>
      <trkpt lat="42.96068833" lon="-0.21889167">
        <ele>978.0</ele>
        <time>2019-07-07T09:43:35.815Z</time>
      </trkpt>
      <trkpt lat="42.96068833" lon="-0.21889167">
        <ele>978.0</ele>
        <time>2019-07-07T09:43:36.821Z</time>
      </trkpt>
      <trkpt lat="42.96067167" lon="-0.21897333">
        <ele>978.0</ele>
        <time>2019-07-07T09:43:37.834Z</time>
      </trkpt>
      <trkpt lat="42.96067167" lon="-0.21897333">
        <ele>978.0</ele>
        <time>2019-07-07T09:43:38.839Z</time>
      </trkpt>
      <trkpt lat="42.960665" lon="-0.21905667">
        <ele>979.0</ele>
        <time>2019-07-07T09:43:39.823Z</time>
      </trkpt>
      <trkpt lat="42.960665" lon="-0.21905667">
        <ele>979.0</ele>
        <time>2019-07-07T09:43:40.829Z</time>
      </trkpt>
      <trkpt lat="42.960665" lon="-0.21913833">
        <ele>980.0</ele>
        <time>2019-07-07T09:43:41.814Z</time>
      </trkpt>
      <trkpt lat="42.960665" lon="-0.21913833">
        <ele>980.0</ele>
        <time>2019-07-07T09:43:42.819Z</time>
      </trkpt>
      <trkpt lat="42.96067167" lon="-0.219215">
        <ele>980.0</ele>
        <time>2019-07-07T09:43:43.840Z</time>
      </trkpt>
      <trkpt lat="42.96067167" lon="-0.219215">
        <ele>980.0</ele>
        <time>2019-07-07T09:43:44.806Z</time>
      </trkpt>
      <trkpt lat="42.96068667" lon="-0.21929">
        <ele>981.0</ele>
        <time>2019-07-07T09:43:45.814Z</time>
      </trkpt>
      <trkpt lat="42.960695" lon="-0.21933167">
        <ele>981.0</ele>
        <time>2019-07-07T09:43:46.831Z</time>
      </trkpt>
      <trkpt lat="42.960695" lon="-0.21933167">
        <ele>981.0</ele>
        <time>2019-07-07T09:43:47.812Z</time>
      </trkpt>
      <trkpt lat="42.96071167" lon="-0.21941">
        <ele>982.0</ele>
        <time>2019-07-07T09:43:48.828Z</time>
      </trkpt>
      <trkpt lat="42.96071833" lon="-0.21945167">
        <ele>982.0</ele>
        <time>2019-07-07T09:43:49.803Z</time>
      </trkpt>
      <trkpt lat="42.96071833" lon="-0.21945167">
        <ele>982.0</ele>
        <time>2019-07-07T09:43:50.809Z</time>
      </trkpt>
      <trkpt lat="42.96073333" lon="-0.219545">
        <ele>982.0</ele>
        <time>2019-07-07T09:43:51.824Z</time>
      </trkpt>
      <trkpt lat="42.96074833" lon="-0.2196">
        <ele>983.0</ele>
        <time>2019-07-07T09:43:52.830Z</time>
      </trkpt>
      <trkpt lat="42.96074833" lon="-0.2196">
        <ele>983.0</ele>
        <time>2019-07-07T09:43:53.836Z</time>
      </trkpt>
      <trkpt lat="42.960775" lon="-0.21972">
        <ele>983.0</ele>
        <time>2019-07-07T09:43:54.809Z</time>
      </trkpt>
      <trkpt lat="42.960775" lon="-0.21972">
        <ele>983.0</ele>
        <time>2019-07-07T09:43:55.815Z</time>
      </trkpt>
      <trkpt lat="42.96080333" lon="-0.21983667">
        <ele>983.0</ele>
        <time>2019-07-07T09:43:56.824Z</time>
      </trkpt>
      <trkpt lat="42.96080333" lon="-0.21983667">
        <ele>983.0</ele>
        <time>2019-07-07T09:43:57.831Z</time>
      </trkpt>
      <trkpt lat="42.96082167" lon="-0.21995">
        <ele>983.0</ele>
        <time>2019-07-07T09:43:58.812Z</time>
      </trkpt>
      <trkpt lat="42.96082167" lon="-0.21995">
        <ele>983.0</ele>
        <time>2019-07-07T09:43:59.818Z</time>
      </trkpt>
      <trkpt lat="42.96083" lon="-0.22005167">
        <ele>983.0</ele>
        <time>2019-07-07T09:44:00.834Z</time>
      </trkpt>
      <trkpt lat="42.96083" lon="-0.22005167">
        <ele>983.0</ele>
        <time>2019-07-07T09:44:01.840Z</time>
      </trkpt>
      <trkpt lat="42.96083667" lon="-0.22014333">
        <ele>983.0</ele>
        <time>2019-07-07T09:44:02.814Z</time>
      </trkpt>
      <trkpt lat="42.96083667" lon="-0.22014333">
        <ele>983.0</ele>
        <time>2019-07-07T09:44:03.820Z</time>
      </trkpt>
      <trkpt lat="42.960845" lon="-0.22023667">
        <ele>984.0</ele>
        <time>2019-07-07T09:44:04.804Z</time>
      </trkpt>
      <trkpt lat="42.960845" lon="-0.22023667">
        <ele>984.0</ele>
        <time>2019-07-07T09:44:05.809Z</time>
      </trkpt>
      <trkpt lat="42.96086" lon="-0.22032833">
        <ele>983.0</ele>
        <time>2019-07-07T09:44:06.802Z</time>
      </trkpt>
      <trkpt lat="42.96087667" lon="-0.22037">
        <ele>983.0</ele>
        <time>2019-07-07T09:44:07.814Z</time>
      </trkpt>
      <trkpt lat="42.96087667" lon="-0.22037">
        <ele>983.0</ele>
        <time>2019-07-07T09:44:08.819Z</time>
      </trkpt>
      <trkpt lat="42.96093167" lon="-0.220435">
        <ele>984.0</ele>
        <time>2019-07-07T09:44:09.804Z</time>
      </trkpt>
      <trkpt lat="42.96093167" lon="-0.220435">
        <ele>984.0</ele>
        <time>2019-07-07T09:44:10.809Z</time>
      </trkpt>
      <trkpt lat="42.96099" lon="-0.220475">
        <ele>985.0</ele>
        <time>2019-07-07T09:44:11.824Z</time>
      </trkpt>
      <trkpt lat="42.96099" lon="-0.220475">
        <ele>985.0</ele>
        <time>2019-07-07T09:44:12.830Z</time>
      </trkpt>
      <trkpt lat="42.96104167" lon="-0.22049167">
        <ele>985.0</ele>
        <time>2019-07-07T09:44:13.810Z</time>
      </trkpt>
      <trkpt lat="42.96104167" lon="-0.22049167">
        <ele>985.0</ele>
        <time>2019-07-07T09:44:14.816Z</time>
      </trkpt>
      <trkpt lat="42.96109167" lon="-0.22049">
        <ele>985.0</ele>
        <time>2019-07-07T09:44:15.834Z</time>
      </trkpt>
      <trkpt lat="42.96109167" lon="-0.22049">
        <ele>985.0</ele>
        <time>2019-07-07T09:44:16.839Z</time>
      </trkpt>
      <trkpt lat="42.96114167" lon="-0.22046167">
        <ele>986.0</ele>
        <time>2019-07-07T09:44:17.806Z</time>
      </trkpt>
      <trkpt lat="42.96114167" lon="-0.22046167">
        <ele>986.0</ele>
        <time>2019-07-07T09:44:18.812Z</time>
      </trkpt>
      <trkpt lat="42.96118167" lon="-0.22040833">
        <ele>986.0</ele>
        <time>2019-07-07T09:44:19.807Z</time>
      </trkpt>
      <trkpt lat="42.96118167" lon="-0.22040833">
        <ele>986.0</ele>
        <time>2019-07-07T09:44:20.813Z</time>
      </trkpt>
      <trkpt lat="42.9612" lon="-0.22034333">
        <ele>987.0</ele>
        <time>2019-07-07T09:44:21.834Z</time>
      </trkpt>
      <trkpt lat="42.96121" lon="-0.22031">
        <ele>987.0</ele>
        <time>2019-07-07T09:44:22.834Z</time>
      </trkpt>
      <trkpt lat="42.96121" lon="-0.22031">
        <ele>987.0</ele>
        <time>2019-07-07T09:44:23.839Z</time>
      </trkpt>
      <trkpt lat="42.961215" lon="-0.22024333">
        <ele>987.0</ele>
        <time>2019-07-07T09:44:24.814Z</time>
      </trkpt>
      <trkpt lat="42.961215" lon="-0.22024333">
        <ele>987.0</ele>
        <time>2019-07-07T09:44:25.819Z</time>
      </trkpt>
      <trkpt lat="42.96121" lon="-0.22018167">
        <ele>988.0</ele>
        <time>2019-07-07T09:44:26.804Z</time>
      </trkpt>
      <trkpt lat="42.96120667" lon="-0.22015333">
        <ele>988.0</ele>
        <time>2019-07-07T09:44:27.814Z</time>
      </trkpt>
      <trkpt lat="42.96120667" lon="-0.22015333">
        <ele>988.0</ele>
        <time>2019-07-07T09:44:28.820Z</time>
      </trkpt>
      <trkpt lat="42.9612" lon="-0.220095">
        <ele>988.0</ele>
        <time>2019-07-07T09:44:29.829Z</time>
      </trkpt>
      <trkpt lat="42.96119667" lon="-0.22006">
        <ele>988.0</ele>
        <time>2019-07-07T09:44:30.815Z</time>
      </trkpt>
      <trkpt lat="42.96119667" lon="-0.22006">
        <ele>988.0</ele>
        <time>2019-07-07T09:44:31.821Z</time>
      </trkpt>
      <trkpt lat="42.96118833" lon="-0.21999333">
        <ele>989.0</ele>
        <time>2019-07-07T09:44:32.809Z</time>
      </trkpt>
      <trkpt lat="42.96118833" lon="-0.21999333">
        <ele>989.0</ele>
        <time>2019-07-07T09:44:33.815Z</time>
      </trkpt>
      <trkpt lat="42.96118" lon="-0.21991667">
        <ele>990.0</ele>
        <time>2019-07-07T09:44:34.824Z</time>
      </trkpt>
      <trkpt lat="42.96118" lon="-0.21991667">
        <ele>990.0</ele>
        <time>2019-07-07T09:44:35.831Z</time>
      </trkpt>
      <trkpt lat="42.96117167" lon="-0.219845">
        <ele>991.0</ele>
        <time>2019-07-07T09:44:36.813Z</time>
      </trkpt>
      <trkpt lat="42.96117167" lon="-0.219845">
        <ele>991.0</ele>
        <time>2019-07-07T09:44:37.819Z</time>
      </trkpt>
      <trkpt lat="42.96117" lon="-0.21976833">
        <ele>991.0</ele>
        <time>2019-07-07T09:44:38.824Z</time>
      </trkpt>
      <trkpt lat="42.96117" lon="-0.21976833">
        <ele>991.0</ele>
        <time>2019-07-07T09:44:39.833Z</time>
      </trkpt>
      <trkpt lat="42.96116667" lon="-0.21969833">
        <ele>991.0</ele>
        <time>2019-07-07T09:44:40.820Z</time>
      </trkpt>
      <trkpt lat="42.96116667" lon="-0.21969833">
        <ele>991.0</ele>
        <time>2019-07-07T09:44:41.826Z</time>
      </trkpt>
      <trkpt lat="42.96116" lon="-0.219625">
        <ele>992.0</ele>
        <time>2019-07-07T09:44:42.804Z</time>
      </trkpt>
      <trkpt lat="42.96116" lon="-0.219625">
        <ele>992.0</ele>
        <time>2019-07-07T09:44:43.809Z</time>
      </trkpt>
      <trkpt lat="42.96115833" lon="-0.21955833">
        <ele>993.0</ele>
        <time>2019-07-07T09:44:44.822Z</time>
      </trkpt>
      <trkpt lat="42.96115833" lon="-0.21955833">
        <ele>993.0</ele>
        <time>2019-07-07T09:44:45.829Z</time>
      </trkpt>
      <trkpt lat="42.96116833" lon="-0.21950333">
        <ele>994.0</ele>
        <time>2019-07-07T09:44:46.801Z</time>
      </trkpt>
      <trkpt lat="42.96116833" lon="-0.21950333">
        <ele>994.0</ele>
        <time>2019-07-07T09:44:47.813Z</time>
      </trkpt>
      <trkpt lat="42.96118167" lon="-0.21945">
        <ele>994.0</ele>
        <time>2019-07-07T09:44:48.823Z</time>
      </trkpt>
      <trkpt lat="42.96119" lon="-0.219425">
        <ele>995.0</ele>
        <time>2019-07-07T09:44:49.801Z</time>
      </trkpt>
      <trkpt lat="42.96119" lon="-0.219425">
        <ele>995.0</ele>
        <time>2019-07-07T09:44:50.838Z</time>
      </trkpt>
      <trkpt lat="42.961215" lon="-0.21937833">
        <ele>996.0</ele>
        <time>2019-07-07T09:44:51.834Z</time>
      </trkpt>
      <trkpt lat="42.961215" lon="-0.21937833">
        <ele>996.0</ele>
        <time>2019-07-07T09:44:52.801Z</time>
      </trkpt>
      <trkpt lat="42.96125333" lon="-0.21932833">
        <ele>996.0</ele>
        <time>2019-07-07T09:44:53.813Z</time>
      </trkpt>
      <trkpt lat="42.96127667" lon="-0.21931">
        <ele>996.0</ele>
        <time>2019-07-07T09:44:54.835Z</time>
      </trkpt>
      <trkpt lat="42.96127667" lon="-0.21931">
        <ele>996.0</ele>
        <time>2019-07-07T09:44:55.841Z</time>
      </trkpt>
      <trkpt lat="42.96132" lon="-0.219275">
        <ele>997.0</ele>
        <time>2019-07-07T09:44:56.819Z</time>
      </trkpt>
      <trkpt lat="42.96134333" lon="-0.21925667">
        <ele>998.0</ele>
        <time>2019-07-07T09:44:57.802Z</time>
      </trkpt>
      <trkpt lat="42.96134333" lon="-0.21925667">
        <ele>998.0</ele>
        <time>2019-07-07T09:44:58.807Z</time>
      </trkpt>
      <trkpt lat="42.961395" lon="-0.21923167">
        <ele>998.0</ele>
        <time>2019-07-07T09:44:59.824Z</time>
      </trkpt>
      <trkpt lat="42.961395" lon="-0.21923167">
        <ele>998.0</ele>
        <time>2019-07-07T09:45:00.831Z</time>
      </trkpt>
      <trkpt lat="42.96144667" lon="-0.219215">
        <ele>999.0</ele>
        <time>2019-07-07T09:45:01.802Z</time>
      </trkpt>
      <trkpt lat="42.96144667" lon="-0.219215">
        <ele>999.0</ele>
        <time>2019-07-07T09:45:02.808Z</time>
      </trkpt>
      <trkpt lat="42.9615" lon="-0.21921167">
        <ele>999.0</ele>
        <time>2019-07-07T09:45:03.824Z</time>
      </trkpt>
      <trkpt lat="42.96152667" lon="-0.219215">
        <ele>999.0</ele>
        <time>2019-07-07T09:45:04.834Z</time>
      </trkpt>
      <trkpt lat="42.96152667" lon="-0.219215">
        <ele>999.0</ele>
        <time>2019-07-07T09:45:05.840Z</time>
      </trkpt>
      <trkpt lat="42.96157833" lon="-0.21922667">
        <ele>999.0</ele>
        <time>2019-07-07T09:45:06.804Z</time>
      </trkpt>
      <trkpt lat="42.96157833" lon="-0.21922667">
        <ele>999.0</ele>
        <time>2019-07-07T09:45:07.810Z</time>
      </trkpt>
      <trkpt lat="42.96162667" lon="-0.219235">
        <ele>1000.0</ele>
        <time>2019-07-07T09:45:08.826Z</time>
      </trkpt>
      <trkpt lat="42.96162667" lon="-0.219235">
        <ele>1000.0</ele>
        <time>2019-07-07T09:45:09.836Z</time>
      </trkpt>
      <trkpt lat="42.96167667" lon="-0.219245">
        <ele>1000.0</ele>
        <time>2019-07-07T09:45:10.812Z</time>
      </trkpt>
      <trkpt lat="42.96167667" lon="-0.219245">
        <ele>1000.0</ele>
        <time>2019-07-07T09:45:11.818Z</time>
      </trkpt>
      <trkpt lat="42.96172167" lon="-0.21925833">
        <ele>1001.0</ele>
        <time>2019-07-07T09:45:12.801Z</time>
      </trkpt>
      <trkpt lat="42.96172167" lon="-0.21925833">
        <ele>1001.0</ele>
        <time>2019-07-07T09:45:13.807Z</time>
      </trkpt>
      <trkpt lat="42.96177" lon="-0.21927">
        <ele>1001.0</ele>
        <time>2019-07-07T09:45:14.820Z</time>
      </trkpt>
      <trkpt lat="42.96179333" lon="-0.21927833">
        <ele>1001.0</ele>
        <time>2019-07-07T09:45:15.833Z</time>
      </trkpt>
      <trkpt lat="42.96179333" lon="-0.21927833">
        <ele>1001.0</ele>
        <time>2019-07-07T09:45:16.839Z</time>
      </trkpt>
      <trkpt lat="42.96184167" lon="-0.21929667">
        <ele>1002.0</ele>
        <time>2019-07-07T09:45:17.836Z</time>
      </trkpt>
      <trkpt lat="42.961865" lon="-0.21930667">
        <ele>1002.0</ele>
        <time>2019-07-07T09:45:18.820Z</time>
      </trkpt>
      <trkpt lat="42.96188833" lon="-0.21931667">
        <ele>1002.0</ele>
        <time>2019-07-07T09:45:19.812Z</time>
      </trkpt>
      <trkpt lat="42.96188833" lon="-0.21931667">
        <ele>1002.0</ele>
        <time>2019-07-07T09:45:20.818Z</time>
      </trkpt>
      <trkpt lat="42.96193333" lon="-0.21933">
        <ele>1002.0</ele>
        <time>2019-07-07T09:45:21.824Z</time>
      </trkpt>
      <trkpt lat="42.96195667" lon="-0.21934333">
        <ele>1003.0</ele>
        <time>2019-07-07T09:45:22.804Z</time>
      </trkpt>
      <trkpt lat="42.96195667" lon="-0.21934333">
        <ele>1003.0</ele>
        <time>2019-07-07T09:45:23.809Z</time>
      </trkpt>
      <trkpt lat="42.96200167" lon="-0.21936333">
        <ele>1003.0</ele>
        <time>2019-07-07T09:45:24.837Z</time>
      </trkpt>
      <trkpt lat="42.96200167" lon="-0.21936333">
        <ele>1003.0</ele>
        <time>2019-07-07T09:45:25.803Z</time>
      </trkpt>
      <trkpt lat="42.96204833" lon="-0.21937333">
        <ele>1004.0</ele>
        <time>2019-07-07T09:45:26.828Z</time>
      </trkpt>
      <trkpt lat="42.96204833" lon="-0.21937333">
        <ele>1004.0</ele>
        <time>2019-07-07T09:45:27.836Z</time>
      </trkpt>
      <trkpt lat="42.962105" lon="-0.21935833">
        <ele>1004.0</ele>
        <time>2019-07-07T09:45:28.802Z</time>
      </trkpt>
      <trkpt lat="42.96213" lon="-0.21935">
        <ele>1005.0</ele>
        <time>2019-07-07T09:45:29.803Z</time>
      </trkpt>
      <trkpt lat="42.96213" lon="-0.21935">
        <ele>1005.0</ele>
        <time>2019-07-07T09:45:30.810Z</time>
      </trkpt>
      <trkpt lat="42.96218167" lon="-0.21932">
        <ele>1006.0</ele>
        <time>2019-07-07T09:45:31.834Z</time>
      </trkpt>
      <trkpt lat="42.96218167" lon="-0.21932">
        <ele>1006.0</ele>
        <time>2019-07-07T09:45:32.840Z</time>
      </trkpt>
      <trkpt lat="42.962225" lon="-0.21927667">
        <ele>1006.0</ele>
        <time>2019-07-07T09:45:33.804Z</time>
      </trkpt>
      <trkpt lat="42.962225" lon="-0.21927667">
        <ele>1006.0</ele>
        <time>2019-07-07T09:45:34.810Z</time>
      </trkpt>
      <trkpt lat="42.96225833" lon="-0.21923167">
        <ele>1007.0</ele>
        <time>2019-07-07T09:45:35.824Z</time>
      </trkpt>
      <trkpt lat="42.96227" lon="-0.21921167">
        <ele>1007.0</ele>
        <time>2019-07-07T09:45:36.804Z</time>
      </trkpt>
      <trkpt lat="42.96227" lon="-0.21921167">
        <ele>1007.0</ele>
        <time>2019-07-07T09:45:37.810Z</time>
      </trkpt>
      <trkpt lat="42.96228167" lon="-0.219155">
        <ele>1008.0</ele>
        <time>2019-07-07T09:45:38.812Z</time>
      </trkpt>
      <trkpt lat="42.96228167" lon="-0.219155">
        <ele>1008.0</ele>
        <time>2019-07-07T09:45:39.820Z</time>
      </trkpt>
      <trkpt lat="42.96228333" lon="-0.21910333">
        <ele>1008.0</ele>
        <time>2019-07-07T09:45:40.808Z</time>
      </trkpt>
      <trkpt lat="42.96228333" lon="-0.21910333">
        <ele>1008.0</ele>
        <time>2019-07-07T09:45:41.814Z</time>
      </trkpt>
      <trkpt lat="42.96228" lon="-0.21905">
        <ele>1009.0</ele>
        <time>2019-07-07T09:45:42.834Z</time>
      </trkpt>
      <trkpt lat="42.96228" lon="-0.21905">
        <ele>1009.0</ele>
        <time>2019-07-07T09:45:43.840Z</time>
      </trkpt>
      <trkpt lat="42.96226833" lon="-0.219005">
        <ele>1009.0</ele>
        <time>2019-07-07T09:45:44.804Z</time>
      </trkpt>
      <trkpt lat="42.96226833" lon="-0.219005">
        <ele>1009.0</ele>
        <time>2019-07-07T09:45:45.809Z</time>
      </trkpt>
      <trkpt lat="42.96224333" lon="-0.21895667">
        <ele>1010.0</ele>
        <time>2019-07-07T09:45:46.836Z</time>
      </trkpt>
      <trkpt lat="42.96222833" lon="-0.21892833">
        <ele>1010.0</ele>
        <time>2019-07-07T09:45:47.823Z</time>
      </trkpt>
      <trkpt lat="42.96222833" lon="-0.21892833">
        <ele>1010.0</ele>
        <time>2019-07-07T09:45:48.831Z</time>
      </trkpt>
      <trkpt lat="42.96220667" lon="-0.21887">
        <ele>1011.0</ele>
        <time>2019-07-07T09:45:49.834Z</time>
      </trkpt>
      <trkpt lat="42.96220667" lon="-0.21887">
        <ele>1011.0</ele>
        <time>2019-07-07T09:45:50.840Z</time>
      </trkpt>
      <trkpt lat="42.96218" lon="-0.2188">
        <ele>1011.0</ele>
        <time>2019-07-07T09:45:51.814Z</time>
      </trkpt>
      <trkpt lat="42.96218" lon="-0.2188">
        <ele>1011.0</ele>
        <time>2019-07-07T09:45:52.820Z</time>
      </trkpt>
      <trkpt lat="42.96217167" lon="-0.21872333">
        <ele>1011.0</ele>
        <time>2019-07-07T09:45:53.804Z</time>
      </trkpt>
      <trkpt lat="42.96217" lon="-0.218685">
        <ele>1011.0</ele>
        <time>2019-07-07T09:45:54.821Z</time>
      </trkpt>
      <trkpt lat="42.96217" lon="-0.218645">
        <ele>1011.0</ele>
        <time>2019-07-07T09:45:55.834Z</time>
      </trkpt>
      <trkpt lat="42.96217167" lon="-0.21860667">
        <ele>1012.0</ele>
        <time>2019-07-07T09:45:56.801Z</time>
      </trkpt>
      <trkpt lat="42.96217167" lon="-0.21860667">
        <ele>1012.0</ele>
        <time>2019-07-07T09:45:57.808Z</time>
      </trkpt>
      <trkpt lat="42.962175" lon="-0.21853167">
        <ele>1012.0</ele>
        <time>2019-07-07T09:45:58.824Z</time>
      </trkpt>
      <trkpt lat="42.96217833" lon="-0.21849333">
        <ele>1012.0</ele>
        <time>2019-07-07T09:45:59.803Z</time>
      </trkpt>
      <trkpt lat="42.96217833" lon="-0.21849333">
        <ele>1012.0</ele>
        <time>2019-07-07T09:46:00.809Z</time>
      </trkpt>
      <trkpt lat="42.96219" lon="-0.21842333">
        <ele>1012.0</ele>
        <time>2019-07-07T09:46:01.840Z</time>
      </trkpt>
      <trkpt lat="42.96219833" lon="-0.21839">
        <ele>1012.0</ele>
        <time>2019-07-07T09:46:02.814Z</time>
      </trkpt>
      <trkpt lat="42.96219833" lon="-0.21839">
        <ele>1012.0</ele>
        <time>2019-07-07T09:46:03.819Z</time>
      </trkpt>
      <trkpt lat="42.96222" lon="-0.21832333">
        <ele>1012.0</ele>
        <time>2019-07-07T09:46:04.833Z</time>
      </trkpt>
      <trkpt lat="42.96222" lon="-0.21832333">
        <ele>1012.0</ele>
        <time>2019-07-07T09:46:05.839Z</time>
      </trkpt>
      <trkpt lat="42.96224333" lon="-0.21825833">
        <ele>1013.0</ele>
        <time>2019-07-07T09:46:06.817Z</time>
      </trkpt>
      <trkpt lat="42.96224333" lon="-0.21825833">
        <ele>1013.0</ele>
        <time>2019-07-07T09:46:07.822Z</time>
      </trkpt>
      <trkpt lat="42.96227" lon="-0.21819667">
        <ele>1014.0</ele>
        <time>2019-07-07T09:46:08.810Z</time>
      </trkpt>
      <trkpt lat="42.96227" lon="-0.21819667">
        <ele>1014.0</ele>
        <time>2019-07-07T09:46:09.817Z</time>
      </trkpt>
      <trkpt lat="42.962295" lon="-0.218135">
        <ele>1014.0</ele>
        <time>2019-07-07T09:46:10.836Z</time>
      </trkpt>
      <trkpt lat="42.962295" lon="-0.218135">
        <ele>1014.0</ele>
        <time>2019-07-07T09:46:11.802Z</time>
      </trkpt>
      <trkpt lat="42.96232667" lon="-0.21806333">
        <ele>1015.0</ele>
        <time>2019-07-07T09:46:12.814Z</time>
      </trkpt>
      <trkpt lat="42.96234167" lon="-0.218035">
        <ele>1015.0</ele>
        <time>2019-07-07T09:46:13.816Z</time>
      </trkpt>
      <trkpt lat="42.96234167" lon="-0.218035">
        <ele>1015.0</ele>
        <time>2019-07-07T09:46:14.822Z</time>
      </trkpt>
      <trkpt lat="42.96237667" lon="-0.217985">
        <ele>1014.0</ele>
        <time>2019-07-07T09:46:15.804Z</time>
      </trkpt>
      <trkpt lat="42.96237667" lon="-0.217985">
        <ele>1014.0</ele>
        <time>2019-07-07T09:46:16.810Z</time>
      </trkpt>
      <trkpt lat="42.96242167" lon="-0.21794333">
        <ele>1015.0</ele>
        <time>2019-07-07T09:46:17.824Z</time>
      </trkpt>
      <trkpt lat="42.96244167" lon="-0.21792">
        <ele>1016.0</ele>
        <time>2019-07-07T09:46:18.834Z</time>
      </trkpt>
      <trkpt lat="42.96246" lon="-0.2179">
        <ele>1016.0</ele>
        <time>2019-07-07T09:46:19.824Z</time>
      </trkpt>
      <trkpt lat="42.96246" lon="-0.2179">
        <ele>1016.0</ele>
        <time>2019-07-07T09:46:20.831Z</time>
      </trkpt>
      <trkpt lat="42.96250333" lon="-0.21786667">
        <ele>1017.0</ele>
        <time>2019-07-07T09:46:21.837Z</time>
      </trkpt>
      <trkpt lat="42.962525" lon="-0.21785167">
        <ele>1017.0</ele>
        <time>2019-07-07T09:46:22.804Z</time>
      </trkpt>
      <trkpt lat="42.96254833" lon="-0.21784167">
        <ele>1018.0</ele>
        <time>2019-07-07T09:46:23.803Z</time>
      </trkpt>
      <trkpt lat="42.96254833" lon="-0.21784167">
        <ele>1018.0</ele>
        <time>2019-07-07T09:46:24.809Z</time>
      </trkpt>
      <trkpt lat="42.96259833" lon="-0.21783167">
        <ele>1018.0</ele>
        <time>2019-07-07T09:46:25.834Z</time>
      </trkpt>
      <trkpt lat="42.96262333" lon="-0.21783333">
        <ele>1019.0</ele>
        <time>2019-07-07T09:46:26.811Z</time>
      </trkpt>
      <trkpt lat="42.96262333" lon="-0.21783333">
        <ele>1019.0</ele>
        <time>2019-07-07T09:46:27.817Z</time>
      </trkpt>
      <trkpt lat="42.96267" lon="-0.21784667">
        <ele>1019.0</ele>
        <time>2019-07-07T09:46:28.840Z</time>
      </trkpt>
      <trkpt lat="42.96269333" lon="-0.217855">
        <ele>1019.0</ele>
        <time>2019-07-07T09:46:29.804Z</time>
      </trkpt>
      <trkpt lat="42.96269333" lon="-0.217855">
        <ele>1019.0</ele>
        <time>2019-07-07T09:46:30.810Z</time>
      </trkpt>
      <trkpt lat="42.96273833" lon="-0.217875">
        <ele>1019.0</ele>
        <time>2019-07-07T09:46:31.829Z</time>
      </trkpt>
      <trkpt lat="42.96276167" lon="-0.21788667">
        <ele>1019.0</ele>
        <time>2019-07-07T09:46:32.834Z</time>
      </trkpt>
      <trkpt lat="42.96276167" lon="-0.21788667">
        <ele>1019.0</ele>
        <time>2019-07-07T09:46:33.840Z</time>
      </trkpt>
      <trkpt lat="42.96280167" lon="-0.21791333">
        <ele>1019.0</ele>
        <time>2019-07-07T09:46:34.811Z</time>
      </trkpt>
      <trkpt lat="42.96280167" lon="-0.21791333">
        <ele>1019.0</ele>
        <time>2019-07-07T09:46:35.817Z</time>
      </trkpt>
      <trkpt lat="42.962835" lon="-0.21795333">
        <ele>1019.0</ele>
        <time>2019-07-07T09:46:36.804Z</time>
      </trkpt>
      <trkpt lat="42.962835" lon="-0.21795333">
        <ele>1019.0</ele>
        <time>2019-07-07T09:46:37.810Z</time>
      </trkpt>
      <trkpt lat="42.96286333" lon="-0.21800167">
        <ele>1019.0</ele>
        <time>2019-07-07T09:46:38.824Z</time>
      </trkpt>
      <trkpt lat="42.962875" lon="-0.21803">
        <ele>1020.0</ele>
        <time>2019-07-07T09:46:39.804Z</time>
      </trkpt>
      <trkpt lat="42.962875" lon="-0.21803">
        <ele>1020.0</ele>
        <time>2019-07-07T09:46:40.810Z</time>
      </trkpt>
      <trkpt lat="42.962895" lon="-0.218085">
        <ele>1020.0</ele>
        <time>2019-07-07T09:46:41.819Z</time>
      </trkpt>
      <trkpt lat="42.9629" lon="-0.21811667">
        <ele>1020.0</ele>
        <time>2019-07-07T09:46:42.824Z</time>
      </trkpt>
      <trkpt lat="42.96290333" lon="-0.21815167">
        <ele>1020.0</ele>
        <time>2019-07-07T09:46:43.834Z</time>
      </trkpt>
      <trkpt lat="42.96290333" lon="-0.21815167">
        <ele>1020.0</ele>
        <time>2019-07-07T09:46:44.840Z</time>
      </trkpt>
      <trkpt lat="42.962905" lon="-0.21822833">
        <ele>1021.0</ele>
        <time>2019-07-07T09:46:45.829Z</time>
      </trkpt>
      <trkpt lat="42.962905" lon="-0.21822833">
        <ele>1021.0</ele>
        <time>2019-07-07T09:46:46.834Z</time>
      </trkpt>
      <trkpt lat="42.96290167" lon="-0.21830833">
        <ele>1021.0</ele>
        <time>2019-07-07T09:46:47.823Z</time>
      </trkpt>
      <trkpt lat="42.96290167" lon="-0.21830833">
        <ele>1021.0</ele>
        <time>2019-07-07T09:46:48.831Z</time>
      </trkpt>
      <trkpt lat="42.96289833" lon="-0.21837833">
        <ele>1022.0</ele>
        <time>2019-07-07T09:46:49.812Z</time>
      </trkpt>
      <trkpt lat="42.96289833" lon="-0.21837833">
        <ele>1022.0</ele>
        <time>2019-07-07T09:46:50.818Z</time>
      </trkpt>
      <trkpt lat="42.96289833" lon="-0.21845333">
        <ele>1022.0</ele>
        <time>2019-07-07T09:46:51.804Z</time>
      </trkpt>
      <trkpt lat="42.96289833" lon="-0.21845333">
        <ele>1022.0</ele>
        <time>2019-07-07T09:46:52.810Z</time>
      </trkpt>
      <trkpt lat="42.9629" lon="-0.21852333">
        <ele>1023.0</ele>
        <time>2019-07-07T09:46:53.824Z</time>
      </trkpt>
      <trkpt lat="42.96290833" lon="-0.21855167">
        <ele>1023.0</ele>
        <time>2019-07-07T09:46:54.804Z</time>
      </trkpt>
      <trkpt lat="42.96292333" lon="-0.21858167">
        <ele>1023.0</ele>
        <time>2019-07-07T09:46:55.804Z</time>
      </trkpt>
      <trkpt lat="42.96292333" lon="-0.21858167">
        <ele>1023.0</ele>
        <time>2019-07-07T09:46:56.810Z</time>
      </trkpt>
      <trkpt lat="42.96295667" lon="-0.21863833">
        <ele>1023.0</ele>
        <time>2019-07-07T09:46:57.814Z</time>
      </trkpt>
      <trkpt lat="42.96297333" lon="-0.21866167">
        <ele>1024.0</ele>
        <time>2019-07-07T09:46:58.824Z</time>
      </trkpt>
      <trkpt lat="42.96299333" lon="-0.21868333">
        <ele>1024.0</ele>
        <time>2019-07-07T09:46:59.824Z</time>
      </trkpt>
      <trkpt lat="42.96299333" lon="-0.21868333">
        <ele>1024.0</ele>
        <time>2019-07-07T09:47:00.829Z</time>
      </trkpt>
      <trkpt lat="42.96303" lon="-0.21871667">
        <ele>1025.0</ele>
        <time>2019-07-07T09:47:01.818Z</time>
      </trkpt>
      <trkpt lat="42.96303" lon="-0.21871667">
        <ele>1025.0</ele>
        <time>2019-07-07T09:47:02.824Z</time>
      </trkpt>
      <trkpt lat="42.96307333" lon="-0.21873833">
        <ele>1026.0</ele>
        <time>2019-07-07T09:47:03.824Z</time>
      </trkpt>
      <trkpt lat="42.963095" lon="-0.21874167">
        <ele>1026.0</ele>
        <time>2019-07-07T09:47:04.838Z</time>
      </trkpt>
      <trkpt lat="42.963095" lon="-0.21874167">
        <ele>1026.0</ele>
        <time>2019-07-07T09:47:05.804Z</time>
      </trkpt>
      <trkpt lat="42.96314333" lon="-0.21874833">
        <ele>1027.0</ele>
        <time>2019-07-07T09:47:06.833Z</time>
      </trkpt>
      <trkpt lat="42.96316667" lon="-0.21875">
        <ele>1028.0</ele>
        <time>2019-07-07T09:47:07.824Z</time>
      </trkpt>
      <trkpt lat="42.96316667" lon="-0.21875">
        <ele>1028.0</ele>
        <time>2019-07-07T09:47:08.830Z</time>
      </trkpt>
      <trkpt lat="42.96321" lon="-0.21873833">
        <ele>1029.0</ele>
        <time>2019-07-07T09:47:09.824Z</time>
      </trkpt>
      <trkpt lat="42.96321" lon="-0.21873833">
        <ele>1029.0</ele>
        <time>2019-07-07T09:47:10.830Z</time>
      </trkpt>
      <trkpt lat="42.96325333" lon="-0.21871167">
        <ele>1029.0</ele>
        <time>2019-07-07T09:47:11.811Z</time>
      </trkpt>
      <trkpt lat="42.96325333" lon="-0.21871167">
        <ele>1029.0</ele>
        <time>2019-07-07T09:47:12.816Z</time>
      </trkpt>
      <trkpt lat="42.96329833" lon="-0.21868167">
        <ele>1030.0</ele>
        <time>2019-07-07T09:47:13.824Z</time>
      </trkpt>
      <trkpt lat="42.96332" lon="-0.21866833">
        <ele>1030.0</ele>
        <time>2019-07-07T09:47:14.834Z</time>
      </trkpt>
      <trkpt lat="42.96332" lon="-0.21866833">
        <ele>1030.0</ele>
        <time>2019-07-07T09:47:15.840Z</time>
      </trkpt>
      <trkpt lat="42.963365" lon="-0.21863333">
        <ele>1030.0</ele>
        <time>2019-07-07T09:47:16.821Z</time>
      </trkpt>
      <trkpt lat="42.963365" lon="-0.21863333">
        <ele>1030.0</ele>
        <time>2019-07-07T09:47:17.827Z</time>
      </trkpt>
      <trkpt lat="42.96340833" lon="-0.218605">
        <ele>1030.0</ele>
        <time>2019-07-07T09:47:18.831Z</time>
      </trkpt>
      <trkpt lat="42.96340833" lon="-0.218605">
        <ele>1030.0</ele>
        <time>2019-07-07T09:47:19.836Z</time>
      </trkpt>
      <trkpt lat="42.96344667" lon="-0.21856167">
        <ele>1031.0</ele>
        <time>2019-07-07T09:47:20.821Z</time>
      </trkpt>
      <trkpt lat="42.96344667" lon="-0.21856167">
        <ele>1031.0</ele>
        <time>2019-07-07T09:47:21.827Z</time>
      </trkpt>
      <trkpt lat="42.96348333" lon="-0.218515">
        <ele>1031.0</ele>
        <time>2019-07-07T09:47:22.814Z</time>
      </trkpt>
      <trkpt lat="42.96348333" lon="-0.218515">
        <ele>1031.0</ele>
        <time>2019-07-07T09:47:23.820Z</time>
      </trkpt>
      <trkpt lat="42.96353167" lon="-0.21845667">
        <ele>1032.0</ele>
        <time>2019-07-07T09:47:24.833Z</time>
      </trkpt>
      <trkpt lat="42.96353167" lon="-0.21845667">
        <ele>1032.0</ele>
        <time>2019-07-07T09:47:25.839Z</time>
      </trkpt>
      <trkpt lat="42.963575" lon="-0.218405">
        <ele>1033.0</ele>
        <time>2019-07-07T09:47:26.804Z</time>
      </trkpt>
      <trkpt lat="42.963575" lon="-0.218405">
        <ele>1033.0</ele>
        <time>2019-07-07T09:47:27.810Z</time>
      </trkpt>
      <trkpt lat="42.96362333" lon="-0.21836">
        <ele>1034.0</ele>
        <time>2019-07-07T09:47:28.827Z</time>
      </trkpt>
      <trkpt lat="42.96364333" lon="-0.218335">
        <ele>1035.0</ele>
        <time>2019-07-07T09:47:29.811Z</time>
      </trkpt>
      <trkpt lat="42.96366167" lon="-0.21830833">
        <ele>1035.0</ele>
        <time>2019-07-07T09:47:30.824Z</time>
      </trkpt>
      <trkpt lat="42.96368167" lon="-0.218285">
        <ele>1035.0</ele>
        <time>2019-07-07T09:47:31.833Z</time>
      </trkpt>
      <trkpt lat="42.96368167" lon="-0.218285">
        <ele>1035.0</ele>
        <time>2019-07-07T09:47:32.839Z</time>
      </trkpt>
      <trkpt lat="42.96372" lon="-0.21824333">
        <ele>1035.0</ele>
        <time>2019-07-07T09:47:33.819Z</time>
      </trkpt>
      <trkpt lat="42.96373833" lon="-0.21821833">
        <ele>1035.0</ele>
        <time>2019-07-07T09:47:34.824Z</time>
      </trkpt>
      <trkpt lat="42.96373833" lon="-0.21821833">
        <ele>1035.0</ele>
        <time>2019-07-07T09:47:35.829Z</time>
      </trkpt>
      <trkpt lat="42.96377667" lon="-0.21817333">
        <ele>1035.0</ele>
        <time>2019-07-07T09:47:36.839Z</time>
      </trkpt>
      <trkpt lat="42.96377667" lon="-0.21817333">
        <ele>1035.0</ele>
        <time>2019-07-07T09:47:37.805Z</time>
      </trkpt>
      <trkpt lat="42.96382" lon="-0.21813333">
        <ele>1036.0</ele>
        <time>2019-07-07T09:47:38.833Z</time>
      </trkpt>
      <trkpt lat="42.96382" lon="-0.21813333">
        <ele>1036.0</ele>
        <time>2019-07-07T09:47:39.840Z</time>
      </trkpt>
      <trkpt lat="42.96385833" lon="-0.218095">
        <ele>1037.0</ele>
        <time>2019-07-07T09:47:40.824Z</time>
      </trkpt>
      <trkpt lat="42.96385833" lon="-0.218095">
        <ele>1037.0</ele>
        <time>2019-07-07T09:47:41.831Z</time>
      </trkpt>
      <trkpt lat="42.96389833" lon="-0.21805167">
        <ele>1037.0</ele>
        <time>2019-07-07T09:47:42.834Z</time>
      </trkpt>
      <trkpt lat="42.96392" lon="-0.21803167">
        <ele>1037.0</ele>
        <time>2019-07-07T09:47:43.804Z</time>
      </trkpt>
      <trkpt lat="42.96392" lon="-0.21803167">
        <ele>1037.0</ele>
        <time>2019-07-07T09:47:44.809Z</time>
      </trkpt>
      <trkpt lat="42.96396167" lon="-0.21798667">
        <ele>1038.0</ele>
        <time>2019-07-07T09:47:45.827Z</time>
      </trkpt>
      <trkpt lat="42.96396167" lon="-0.21798667">
        <ele>1038.0</ele>
        <time>2019-07-07T09:47:46.834Z</time>
      </trkpt>
      <trkpt lat="42.96400333" lon="-0.21794167">
        <ele>1038.0</ele>
        <time>2019-07-07T09:47:47.833Z</time>
      </trkpt>
      <trkpt lat="42.96402" lon="-0.21792167">
        <ele>1039.0</ele>
        <time>2019-07-07T09:47:48.802Z</time>
      </trkpt>
      <trkpt lat="42.96402" lon="-0.21792167">
        <ele>1039.0</ele>
        <time>2019-07-07T09:47:49.819Z</time>
      </trkpt>
      <trkpt lat="42.96406167" lon="-0.21788">
        <ele>1039.0</ele>
        <time>2019-07-07T09:47:50.834Z</time>
      </trkpt>
      <trkpt lat="42.96406167" lon="-0.21788">
        <ele>1039.0</ele>
        <time>2019-07-07T09:47:51.801Z</time>
      </trkpt>
      <trkpt lat="42.96409833" lon="-0.21783167">
        <ele>1040.0</ele>
        <time>2019-07-07T09:47:52.803Z</time>
      </trkpt>
      <trkpt lat="42.96411833" lon="-0.21780833">
        <ele>1040.0</ele>
        <time>2019-07-07T09:47:53.814Z</time>
      </trkpt>
      <trkpt lat="42.964135" lon="-0.21778333">
        <ele>1041.0</ele>
        <time>2019-07-07T09:47:54.834Z</time>
      </trkpt>
      <trkpt lat="42.964135" lon="-0.21778333">
        <ele>1041.0</ele>
        <time>2019-07-07T09:47:55.840Z</time>
      </trkpt>
      <trkpt lat="42.96417167" lon="-0.217745">
        <ele>1041.0</ele>
        <time>2019-07-07T09:47:56.813Z</time>
      </trkpt>
      <trkpt lat="42.96417167" lon="-0.217745">
        <ele>1041.0</ele>
        <time>2019-07-07T09:47:57.819Z</time>
      </trkpt>
      <trkpt lat="42.96420833" lon="-0.21770667">
        <ele>1042.0</ele>
        <time>2019-07-07T09:47:58.830Z</time>
      </trkpt>
      <trkpt lat="42.96422667" lon="-0.21768167">
        <ele>1043.0</ele>
        <time>2019-07-07T09:47:59.839Z</time>
      </trkpt>
      <trkpt lat="42.96422667" lon="-0.21768167">
        <ele>1043.0</ele>
        <time>2019-07-07T09:48:00.805Z</time>
      </trkpt>
      <trkpt lat="42.964265" lon="-0.21763333">
        <ele>1043.0</ele>
        <time>2019-07-07T09:48:01.811Z</time>
      </trkpt>
      <trkpt lat="42.964285" lon="-0.21761333">
        <ele>1043.0</ele>
        <time>2019-07-07T09:48:02.804Z</time>
      </trkpt>
      <trkpt lat="42.964285" lon="-0.21761333">
        <ele>1043.0</ele>
        <time>2019-07-07T09:48:03.809Z</time>
      </trkpt>
      <trkpt lat="42.96432333" lon="-0.21757167">
        <ele>1044.0</ele>
        <time>2019-07-07T09:48:04.824Z</time>
      </trkpt>
      <trkpt lat="42.96432333" lon="-0.21757167">
        <ele>1044.0</ele>
        <time>2019-07-07T09:48:05.830Z</time>
      </trkpt>
      <trkpt lat="42.96436667" lon="-0.21753333">
        <ele>1044.0</ele>
        <time>2019-07-07T09:48:06.831Z</time>
      </trkpt>
      <trkpt lat="42.96436667" lon="-0.21753333">
        <ele>1044.0</ele>
        <time>2019-07-07T09:48:07.838Z</time>
      </trkpt>
      <trkpt lat="42.96441167" lon="-0.21749333">
        <ele>1045.0</ele>
        <time>2019-07-07T09:48:08.814Z</time>
      </trkpt>
      <trkpt lat="42.96441167" lon="-0.21749333">
        <ele>1045.0</ele>
        <time>2019-07-07T09:48:09.820Z</time>
      </trkpt>
      <trkpt lat="42.96445667" lon="-0.217455">
        <ele>1045.0</ele>
        <time>2019-07-07T09:48:10.829Z</time>
      </trkpt>
      <trkpt lat="42.96445667" lon="-0.217455">
        <ele>1045.0</ele>
        <time>2019-07-07T09:48:11.835Z</time>
      </trkpt>
      <trkpt lat="42.9645" lon="-0.21743">
        <ele>1046.0</ele>
        <time>2019-07-07T09:48:12.814Z</time>
      </trkpt>
      <trkpt lat="42.9645" lon="-0.21743">
        <ele>1046.0</ele>
        <time>2019-07-07T09:48:13.819Z</time>
      </trkpt>
      <trkpt lat="42.96454167" lon="-0.21739333">
        <ele>1047.0</ele>
        <time>2019-07-07T09:48:14.824Z</time>
      </trkpt>
      <trkpt lat="42.96456167" lon="-0.21737333">
        <ele>1047.0</ele>
        <time>2019-07-07T09:48:15.834Z</time>
      </trkpt>
      <trkpt lat="42.96456167" lon="-0.21737333">
        <ele>1047.0</ele>
        <time>2019-07-07T09:48:16.840Z</time>
      </trkpt>
      <trkpt lat="42.9646" lon="-0.21733167">
        <ele>1048.0</ele>
        <time>2019-07-07T09:48:17.814Z</time>
      </trkpt>
      <trkpt lat="42.96462" lon="-0.21731167">
        <ele>1048.0</ele>
        <time>2019-07-07T09:48:18.830Z</time>
      </trkpt>
      <trkpt lat="42.96462" lon="-0.21731167">
        <ele>1048.0</ele>
        <time>2019-07-07T09:48:19.838Z</time>
      </trkpt>
      <trkpt lat="42.96465833" lon="-0.21726833">
        <ele>1049.0</ele>
        <time>2019-07-07T09:48:20.824Z</time>
      </trkpt>
      <trkpt lat="42.96467667" lon="-0.21725333">
        <ele>1050.0</ele>
        <time>2019-07-07T09:48:21.810Z</time>
      </trkpt>
      <trkpt lat="42.96467667" lon="-0.21725333">
        <ele>1050.0</ele>
        <time>2019-07-07T09:48:22.816Z</time>
      </trkpt>
      <trkpt lat="42.964705" lon="-0.21722667">
        <ele>1050.0</ele>
        <time>2019-07-07T09:48:23.830Z</time>
      </trkpt>
      <trkpt lat="42.96471333" lon="-0.21721667">
        <ele>1051.0</ele>
        <time>2019-07-07T09:48:24.834Z</time>
      </trkpt>
      <trkpt lat="42.96471333" lon="-0.21721667">
        <ele>1051.0</ele>
        <time>2019-07-07T09:48:25.840Z</time>
      </trkpt>
      <trkpt lat="42.96475667" lon="-0.21717333">
        <ele>1051.0</ele>
        <time>2019-07-07T09:48:26.821Z</time>
      </trkpt>
      <trkpt lat="42.96475667" lon="-0.21717333">
        <ele>1051.0</ele>
        <time>2019-07-07T09:48:27.827Z</time>
      </trkpt>
      <trkpt lat="42.96480333" lon="-0.21713333">
        <ele>1052.0</ele>
        <time>2019-07-07T09:48:28.804Z</time>
      </trkpt>
      <trkpt lat="42.96481667" lon="-0.217115">
        <ele>1052.0</ele>
        <time>2019-07-07T09:48:29.820Z</time>
      </trkpt>
      <trkpt lat="42.96483833" lon="-0.21708333">
        <ele>1053.0</ele>
        <time>2019-07-07T09:48:30.828Z</time>
      </trkpt>
      <trkpt lat="42.96486" lon="-0.21705167">
        <ele>1053.0</ele>
        <time>2019-07-07T09:48:31.840Z</time>
      </trkpt>
      <trkpt lat="42.96486" lon="-0.21705167">
        <ele>1053.0</ele>
        <time>2019-07-07T09:48:32.805Z</time>
      </trkpt>
      <trkpt lat="42.96490167" lon="-0.21699167">
        <ele>1054.0</ele>
        <time>2019-07-07T09:48:33.814Z</time>
      </trkpt>
      <trkpt lat="42.96492" lon="-0.216965">
        <ele>1054.0</ele>
        <time>2019-07-07T09:48:34.832Z</time>
      </trkpt>
      <trkpt lat="42.96492" lon="-0.216965">
        <ele>1054.0</ele>
        <time>2019-07-07T09:48:35.838Z</time>
      </trkpt>
      <trkpt lat="42.96496" lon="-0.21691">
        <ele>1054.0</ele>
        <time>2019-07-07T09:48:36.830Z</time>
      </trkpt>
      <trkpt lat="42.96496" lon="-0.21691">
        <ele>1054.0</ele>
        <time>2019-07-07T09:48:37.836Z</time>
      </trkpt>
      <trkpt lat="42.964995" lon="-0.216855">
        <ele>1055.0</ele>
        <time>2019-07-07T09:48:38.814Z</time>
      </trkpt>
      <trkpt lat="42.96501333" lon="-0.21682833">
        <ele>1055.0</ele>
        <time>2019-07-07T09:48:39.824Z</time>
      </trkpt>
      <trkpt lat="42.96501333" lon="-0.21682833">
        <ele>1055.0</ele>
        <time>2019-07-07T09:48:40.834Z</time>
      </trkpt>
      <trkpt lat="42.96505333" lon="-0.21676833">
        <ele>1056.0</ele>
        <time>2019-07-07T09:48:41.814Z</time>
      </trkpt>
      <trkpt lat="42.96505333" lon="-0.21676833">
        <ele>1056.0</ele>
        <time>2019-07-07T09:48:42.824Z</time>
      </trkpt>
      <trkpt lat="42.96509667" lon="-0.21671833">
        <ele>1057.0</ele>
        <time>2019-07-07T09:48:43.804Z</time>
      </trkpt>
      <trkpt lat="42.965115" lon="-0.21669333">
        <ele>1057.0</ele>
        <time>2019-07-07T09:48:44.814Z</time>
      </trkpt>
      <trkpt lat="42.96513167" lon="-0.21667">
        <ele>1057.0</ele>
        <time>2019-07-07T09:48:45.833Z</time>
      </trkpt>
      <trkpt lat="42.96513167" lon="-0.21667">
        <ele>1057.0</ele>
        <time>2019-07-07T09:48:46.802Z</time>
      </trkpt>
      <trkpt lat="42.96517" lon="-0.21662333">
        <ele>1058.0</ele>
        <time>2019-07-07T09:48:47.803Z</time>
      </trkpt>
      <trkpt lat="42.96519" lon="-0.21659667">
        <ele>1058.0</ele>
        <time>2019-07-07T09:48:48.820Z</time>
      </trkpt>
      <trkpt lat="42.96521" lon="-0.21657">
        <ele>1058.0</ele>
        <time>2019-07-07T09:48:49.803Z</time>
      </trkpt>
      <trkpt lat="42.96521" lon="-0.21657">
        <ele>1058.0</ele>
        <time>2019-07-07T09:48:50.809Z</time>
      </trkpt>
      <trkpt lat="42.96525" lon="-0.21651667">
        <ele>1059.0</ele>
        <time>2019-07-07T09:48:51.824Z</time>
      </trkpt>
      <trkpt lat="42.96525" lon="-0.21651667">
        <ele>1059.0</ele>
        <time>2019-07-07T09:48:52.834Z</time>
      </trkpt>
      <trkpt lat="42.96529167" lon="-0.216465">
        <ele>1059.0</ele>
        <time>2019-07-07T09:48:53.812Z</time>
      </trkpt>
      <trkpt lat="42.96531167" lon="-0.21644">
        <ele>1059.0</ele>
        <time>2019-07-07T09:48:54.834Z</time>
      </trkpt>
      <trkpt lat="42.96533333" lon="-0.21641667">
        <ele>1060.0</ele>
        <time>2019-07-07T09:48:55.834Z</time>
      </trkpt>
      <trkpt lat="42.96533333" lon="-0.21641667">
        <ele>1060.0</ele>
        <time>2019-07-07T09:48:56.840Z</time>
      </trkpt>
      <trkpt lat="42.96538667" lon="-0.21637">
        <ele>1060.0</ele>
        <time>2019-07-07T09:48:57.834Z</time>
      </trkpt>
      <trkpt lat="42.96541" lon="-0.21635333">
        <ele>1060.0</ele>
        <time>2019-07-07T09:48:58.812Z</time>
      </trkpt>
      <trkpt lat="42.96541" lon="-0.21635333">
        <ele>1060.0</ele>
        <time>2019-07-07T09:48:59.818Z</time>
      </trkpt>
      <trkpt lat="42.96545167" lon="-0.21631833">
        <ele>1060.0</ele>
        <time>2019-07-07T09:49:00.814Z</time>
      </trkpt>
      <trkpt lat="42.96545167" lon="-0.21631833">
        <ele>1060.0</ele>
        <time>2019-07-07T09:49:01.820Z</time>
      </trkpt>
      <trkpt lat="42.96549833" lon="-0.21628667">
        <ele>1061.0</ele>
        <time>2019-07-07T09:49:02.818Z</time>
      </trkpt>
      <trkpt lat="42.96549833" lon="-0.21628667">
        <ele>1061.0</ele>
        <time>2019-07-07T09:49:03.825Z</time>
      </trkpt>
      <trkpt lat="42.965545" lon="-0.21626">
        <ele>1061.0</ele>
        <time>2019-07-07T09:49:04.832Z</time>
      </trkpt>
      <trkpt lat="42.96556833" lon="-0.21625167">
        <ele>1062.0</ele>
        <time>2019-07-07T09:49:05.814Z</time>
      </trkpt>
      <trkpt lat="42.96556833" lon="-0.21625167">
        <ele>1062.0</ele>
        <time>2019-07-07T09:49:06.820Z</time>
      </trkpt>
      <trkpt lat="42.96561667" lon="-0.21623833">
        <ele>1062.0</ele>
        <time>2019-07-07T09:49:07.834Z</time>
      </trkpt>
      <trkpt lat="42.96564167" lon="-0.21623">
        <ele>1062.0</ele>
        <time>2019-07-07T09:49:08.803Z</time>
      </trkpt>
      <trkpt lat="42.96566833" lon="-0.21621833">
        <ele>1062.0</ele>
        <time>2019-07-07T09:49:09.813Z</time>
      </trkpt>
      <trkpt lat="42.96566833" lon="-0.21621833">
        <ele>1062.0</ele>
        <time>2019-07-07T09:49:10.819Z</time>
      </trkpt>
      <trkpt lat="42.96572" lon="-0.216195">
        <ele>1062.0</ele>
        <time>2019-07-07T09:49:11.829Z</time>
      </trkpt>
      <trkpt lat="42.96574333" lon="-0.21618333">
        <ele>1062.0</ele>
        <time>2019-07-07T09:49:12.834Z</time>
      </trkpt>
      <trkpt lat="42.96574333" lon="-0.21618333">
        <ele>1062.0</ele>
        <time>2019-07-07T09:49:13.840Z</time>
      </trkpt>
      <trkpt lat="42.96578667" lon="-0.21615667">
        <ele>1062.0</ele>
        <time>2019-07-07T09:49:14.814Z</time>
      </trkpt>
      <trkpt lat="42.96578667" lon="-0.21615667">
        <ele>1062.0</ele>
        <time>2019-07-07T09:49:15.820Z</time>
      </trkpt>
      <trkpt lat="42.96582833" lon="-0.21612333">
        <ele>1062.0</ele>
        <time>2019-07-07T09:49:16.803Z</time>
      </trkpt>
      <trkpt lat="42.96582833" lon="-0.21612333">
        <ele>1062.0</ele>
        <time>2019-07-07T09:49:17.809Z</time>
      </trkpt>
      <trkpt lat="42.965865" lon="-0.21608167">
        <ele>1063.0</ele>
        <time>2019-07-07T09:49:18.834Z</time>
      </trkpt>
      <trkpt lat="42.965865" lon="-0.21608167">
        <ele>1063.0</ele>
        <time>2019-07-07T09:49:19.801Z</time>
      </trkpt>
      <trkpt lat="42.96588667" lon="-0.21604">
        <ele>1063.0</ele>
        <time>2019-07-07T09:49:20.820Z</time>
      </trkpt>
      <trkpt lat="42.96589833" lon="-0.216015">
        <ele>1064.0</ele>
        <time>2019-07-07T09:49:21.814Z</time>
      </trkpt>
      <trkpt lat="42.96589833" lon="-0.216015">
        <ele>1064.0</ele>
        <time>2019-07-07T09:49:22.820Z</time>
      </trkpt>
      <trkpt lat="42.96591667" lon="-0.215955">
        <ele>1064.0</ele>
        <time>2019-07-07T09:49:23.834Z</time>
      </trkpt>
      <trkpt lat="42.96592833" lon="-0.21593">
        <ele>1065.0</ele>
        <time>2019-07-07T09:49:24.801Z</time>
      </trkpt>
      <trkpt lat="42.96592833" lon="-0.21593">
        <ele>1065.0</ele>
        <time>2019-07-07T09:49:25.807Z</time>
      </trkpt>
      <trkpt lat="42.96595167" lon="-0.21587167">
        <ele>1065.0</ele>
        <time>2019-07-07T09:49:26.811Z</time>
      </trkpt>
      <trkpt lat="42.965965" lon="-0.21582833">
        <ele>1066.0</ele>
        <time>2019-07-07T09:49:27.824Z</time>
      </trkpt>
      <trkpt lat="42.965965" lon="-0.21582833">
        <ele>1066.0</ele>
        <time>2019-07-07T09:49:28.829Z</time>
      </trkpt>
      <trkpt lat="42.96599167" lon="-0.21575333">
        <ele>1066.0</ele>
        <time>2019-07-07T09:49:29.803Z</time>
      </trkpt>
      <trkpt lat="42.96599167" lon="-0.21575333">
        <ele>1066.0</ele>
        <time>2019-07-07T09:49:30.808Z</time>
      </trkpt>
      <trkpt lat="42.96602" lon="-0.215685">
        <ele>1066.0</ele>
        <time>2019-07-07T09:49:31.806Z</time>
      </trkpt>
      <trkpt lat="42.96602" lon="-0.215685">
        <ele>1066.0</ele>
        <time>2019-07-07T09:49:32.812Z</time>
      </trkpt>
      <trkpt lat="42.966045" lon="-0.21561667">
        <ele>1067.0</ele>
        <time>2019-07-07T09:49:33.831Z</time>
      </trkpt>
      <trkpt lat="42.96605667" lon="-0.215585">
        <ele>1067.0</ele>
        <time>2019-07-07T09:49:34.804Z</time>
      </trkpt>
      <trkpt lat="42.96606833" lon="-0.21555">
        <ele>1067.0</ele>
        <time>2019-07-07T09:49:35.807Z</time>
      </trkpt>
      <trkpt lat="42.96606833" lon="-0.21555">
        <ele>1067.0</ele>
        <time>2019-07-07T09:49:36.813Z</time>
      </trkpt>
      <trkpt lat="42.96609" lon="-0.215485">
        <ele>1067.0</ele>
        <time>2019-07-07T09:49:37.834Z</time>
      </trkpt>
      <trkpt lat="42.96609833" lon="-0.215455">
        <ele>1067.0</ele>
        <time>2019-07-07T09:49:38.834Z</time>
      </trkpt>
      <trkpt lat="42.96609833" lon="-0.215455">
        <ele>1067.0</ele>
        <time>2019-07-07T09:49:39.840Z</time>
      </trkpt>
      <trkpt lat="42.96612" lon="-0.215395">
        <ele>1067.0</ele>
        <time>2019-07-07T09:49:40.804Z</time>
      </trkpt>
      <trkpt lat="42.96612" lon="-0.215395">
        <ele>1067.0</ele>
        <time>2019-07-07T09:49:41.810Z</time>
      </trkpt>
      <trkpt lat="42.96614667" lon="-0.21533833">
        <ele>1067.0</ele>
        <time>2019-07-07T09:49:42.840Z</time>
      </trkpt>
      <trkpt lat="42.96614667" lon="-0.21533833">
        <ele>1067.0</ele>
        <time>2019-07-07T09:49:43.806Z</time>
      </trkpt>
      <trkpt lat="42.96618167" lon="-0.21528833">
        <ele>1067.0</ele>
        <time>2019-07-07T09:49:44.817Z</time>
      </trkpt>
      <trkpt lat="42.9662" lon="-0.215265">
        <ele>1067.0</ele>
        <time>2019-07-07T09:49:45.834Z</time>
      </trkpt>
      <trkpt lat="42.96622333" lon="-0.21524333">
        <ele>1067.0</ele>
        <time>2019-07-07T09:49:46.814Z</time>
      </trkpt>
      <trkpt lat="42.96622333" lon="-0.21524333">
        <ele>1067.0</ele>
        <time>2019-07-07T09:49:47.825Z</time>
      </trkpt>
      <trkpt lat="42.96627333" lon="-0.21521667">
        <ele>1068.0</ele>
        <time>2019-07-07T09:49:48.834Z</time>
      </trkpt>
      <trkpt lat="42.9663" lon="-0.21521">
        <ele>1068.0</ele>
        <time>2019-07-07T09:49:49.833Z</time>
      </trkpt>
      <trkpt lat="42.9663" lon="-0.21521">
        <ele>1068.0</ele>
        <time>2019-07-07T09:49:50.840Z</time>
      </trkpt>
      <trkpt lat="42.96635167" lon="-0.21521167">
        <ele>1068.0</ele>
        <time>2019-07-07T09:49:51.814Z</time>
      </trkpt>
      <trkpt lat="42.966375" lon="-0.21522167">
        <ele>1069.0</ele>
        <time>2019-07-07T09:49:52.804Z</time>
      </trkpt>
      <trkpt lat="42.966375" lon="-0.21522167">
        <ele>1069.0</ele>
        <time>2019-07-07T09:49:53.810Z</time>
      </trkpt>
      <trkpt lat="42.966415" lon="-0.215255">
        <ele>1069.0</ele>
        <time>2019-07-07T09:49:54.824Z</time>
      </trkpt>
      <trkpt lat="42.966435" lon="-0.215275">
        <ele>1069.0</ele>
        <time>2019-07-07T09:49:55.839Z</time>
      </trkpt>
      <trkpt lat="42.966435" lon="-0.215275">
        <ele>1069.0</ele>
        <time>2019-07-07T09:49:56.805Z</time>
      </trkpt>
      <trkpt lat="42.96646833" lon="-0.21531667">
        <ele>1070.0</ele>
        <time>2019-07-07T09:49:57.814Z</time>
      </trkpt>
      <trkpt lat="42.96646833" lon="-0.21531667">
        <ele>1070.0</ele>
        <time>2019-07-07T09:49:58.819Z</time>
      </trkpt>
      <trkpt lat="42.96648667" lon="-0.21535833">
        <ele>1070.0</ele>
        <time>2019-07-07T09:49:59.802Z</time>
      </trkpt>
      <trkpt lat="42.96649" lon="-0.215385">
        <ele>1071.0</ele>
        <time>2019-07-07T09:50:00.822Z</time>
      </trkpt>
      <trkpt lat="42.96649" lon="-0.215385">
        <ele>1071.0</ele>
        <time>2019-07-07T09:50:01.829Z</time>
      </trkpt>
      <trkpt lat="42.96649167" lon="-0.21544667">
        <ele>1071.0</ele>
        <time>2019-07-07T09:50:02.814Z</time>
      </trkpt>
      <trkpt lat="42.96649167" lon="-0.21544667">
        <ele>1071.0</ele>
        <time>2019-07-07T09:50:03.820Z</time>
      </trkpt>
      <trkpt lat="42.96649167" lon="-0.215515">
        <ele>1072.0</ele>
        <time>2019-07-07T09:50:04.834Z</time>
      </trkpt>
      <trkpt lat="42.966485" lon="-0.21554833">
        <ele>1072.0</ele>
        <time>2019-07-07T09:50:05.814Z</time>
      </trkpt>
      <trkpt lat="42.966475" lon="-0.21558167">
        <ele>1072.0</ele>
        <time>2019-07-07T09:50:06.833Z</time>
      </trkpt>
      <trkpt lat="42.966475" lon="-0.21558167">
        <ele>1072.0</ele>
        <time>2019-07-07T09:50:07.840Z</time>
      </trkpt>
      <trkpt lat="42.966455" lon="-0.21564833">
        <ele>1073.0</ele>
        <time>2019-07-07T09:50:08.834Z</time>
      </trkpt>
      <trkpt lat="42.96644667" lon="-0.21568333">
        <ele>1073.0</ele>
        <time>2019-07-07T09:50:09.826Z</time>
      </trkpt>
      <trkpt lat="42.96644667" lon="-0.21568333">
        <ele>1073.0</ele>
        <time>2019-07-07T09:50:10.832Z</time>
      </trkpt>
      <trkpt lat="42.96642833" lon="-0.21575667">
        <ele>1074.0</ele>
        <time>2019-07-07T09:50:11.824Z</time>
      </trkpt>
      <trkpt lat="42.96642833" lon="-0.21575667">
        <ele>1074.0</ele>
        <time>2019-07-07T09:50:12.830Z</time>
      </trkpt>
      <trkpt lat="42.96641333" lon="-0.21582833">
        <ele>1074.0</ele>
        <time>2019-07-07T09:50:13.824Z</time>
      </trkpt>
      <trkpt lat="42.96641333" lon="-0.21582833">
        <ele>1074.0</ele>
        <time>2019-07-07T09:50:14.830Z</time>
      </trkpt>
      <trkpt lat="42.96640167" lon="-0.2159">
        <ele>1074.0</ele>
        <time>2019-07-07T09:50:15.824Z</time>
      </trkpt>
      <trkpt lat="42.96640167" lon="-0.2159">
        <ele>1074.0</ele>
        <time>2019-07-07T09:50:16.830Z</time>
      </trkpt>
      <trkpt lat="42.96639667" lon="-0.21596667">
        <ele>1075.0</ele>
        <time>2019-07-07T09:50:17.815Z</time>
      </trkpt>
      <trkpt lat="42.96639667" lon="-0.21596667">
        <ele>1075.0</ele>
        <time>2019-07-07T09:50:18.821Z</time>
      </trkpt>
      <trkpt lat="42.96639333" lon="-0.216035">
        <ele>1075.0</ele>
        <time>2019-07-07T09:50:19.825Z</time>
      </trkpt>
      <trkpt lat="42.96639333" lon="-0.216035">
        <ele>1075.0</ele>
        <time>2019-07-07T09:50:20.831Z</time>
      </trkpt>
      <trkpt lat="42.96639333" lon="-0.21609833">
        <ele>1075.0</ele>
        <time>2019-07-07T09:50:21.803Z</time>
      </trkpt>
      <trkpt lat="42.96639333" lon="-0.21609833">
        <ele>1075.0</ele>
        <time>2019-07-07T09:50:22.809Z</time>
      </trkpt>
      <trkpt lat="42.966395" lon="-0.21615833">
        <ele>1075.0</ele>
        <time>2019-07-07T09:50:23.803Z</time>
      </trkpt>
      <trkpt lat="42.966395" lon="-0.21618667">
        <ele>1075.0</ele>
        <time>2019-07-07T09:50:24.803Z</time>
      </trkpt>
      <trkpt lat="42.966395" lon="-0.21618667">
        <ele>1075.0</ele>
        <time>2019-07-07T09:50:25.809Z</time>
      </trkpt>
      <trkpt lat="42.966395" lon="-0.21624">
        <ele>1076.0</ele>
        <time>2019-07-07T09:50:26.823Z</time>
      </trkpt>
      <trkpt lat="42.966395" lon="-0.21624">
        <ele>1076.0</ele>
        <time>2019-07-07T09:50:27.829Z</time>
      </trkpt>
      <trkpt lat="42.96639167" lon="-0.216295">
        <ele>1076.0</ele>
        <time>2019-07-07T09:50:28.814Z</time>
      </trkpt>
      <trkpt lat="42.96639167" lon="-0.21632667">
        <ele>1076.0</ele>
        <time>2019-07-07T09:50:29.831Z</time>
      </trkpt>
      <trkpt lat="42.96639167" lon="-0.21632667">
        <ele>1076.0</ele>
        <time>2019-07-07T09:50:30.838Z</time>
      </trkpt>
      <trkpt lat="42.966395" lon="-0.216395">
        <ele>1076.0</ele>
        <time>2019-07-07T09:50:31.820Z</time>
      </trkpt>
      <trkpt lat="42.966395" lon="-0.216395">
        <ele>1076.0</ele>
        <time>2019-07-07T09:50:32.827Z</time>
      </trkpt>
      <trkpt lat="42.966395" lon="-0.21647833">
        <ele>1076.0</ele>
        <time>2019-07-07T09:50:33.839Z</time>
      </trkpt>
      <trkpt lat="42.966395" lon="-0.21647833">
        <ele>1076.0</ele>
        <time>2019-07-07T09:50:34.805Z</time>
      </trkpt>
      <trkpt lat="42.96639833" lon="-0.21655">
        <ele>1076.0</ele>
        <time>2019-07-07T09:50:35.834Z</time>
      </trkpt>
      <trkpt lat="42.96639667" lon="-0.216585">
        <ele>1076.0</ele>
        <time>2019-07-07T09:50:36.815Z</time>
      </trkpt>
      <trkpt lat="42.96639667" lon="-0.216585">
        <ele>1076.0</ele>
        <time>2019-07-07T09:50:37.820Z</time>
      </trkpt>
      <trkpt lat="42.966385" lon="-0.216655">
        <ele>1077.0</ele>
        <time>2019-07-07T09:50:38.840Z</time>
      </trkpt>
      <trkpt lat="42.96637667" lon="-0.21669">
        <ele>1077.0</ele>
        <time>2019-07-07T09:50:39.834Z</time>
      </trkpt>
      <trkpt lat="42.96637" lon="-0.21673">
        <ele>1077.0</ele>
        <time>2019-07-07T09:50:40.809Z</time>
      </trkpt>
      <trkpt lat="42.96637" lon="-0.21673">
        <ele>1077.0</ele>
        <time>2019-07-07T09:50:41.815Z</time>
      </trkpt>
      <trkpt lat="42.96635667" lon="-0.216805">
        <ele>1078.0</ele>
        <time>2019-07-07T09:50:42.819Z</time>
      </trkpt>
      <trkpt lat="42.96635667" lon="-0.216805">
        <ele>1078.0</ele>
        <time>2019-07-07T09:50:43.827Z</time>
      </trkpt>
      <trkpt lat="42.96634333" lon="-0.21687667">
        <ele>1078.0</ele>
        <time>2019-07-07T09:50:44.813Z</time>
      </trkpt>
      <trkpt lat="42.96633833" lon="-0.21691667">
        <ele>1079.0</ele>
        <time>2019-07-07T09:50:45.824Z</time>
      </trkpt>
      <trkpt lat="42.96633" lon="-0.21695167">
        <ele>1079.0</ele>
        <time>2019-07-07T09:50:46.834Z</time>
      </trkpt>
      <trkpt lat="42.96633" lon="-0.21695167">
        <ele>1079.0</ele>
        <time>2019-07-07T09:50:47.820Z</time>
      </trkpt>
      <trkpt lat="42.96631833" lon="-0.21702333">
        <ele>1080.0</ele>
        <time>2019-07-07T09:50:48.803Z</time>
      </trkpt>
      <trkpt lat="42.96631833" lon="-0.21702333">
        <ele>1080.0</ele>
        <time>2019-07-07T09:50:49.808Z</time>
      </trkpt>
      <trkpt lat="42.96630667" lon="-0.217095">
        <ele>1080.0</ele>
        <time>2019-07-07T09:50:50.814Z</time>
      </trkpt>
      <trkpt lat="42.96630667" lon="-0.217095">
        <ele>1080.0</ele>
        <time>2019-07-07T09:50:51.820Z</time>
      </trkpt>
      <trkpt lat="42.96628833" lon="-0.21716333">
        <ele>1081.0</ele>
        <time>2019-07-07T09:50:52.825Z</time>
      </trkpt>
      <trkpt lat="42.96628" lon="-0.217195">
        <ele>1081.0</ele>
        <time>2019-07-07T09:50:53.834Z</time>
      </trkpt>
      <trkpt lat="42.96628" lon="-0.217195">
        <ele>1081.0</ele>
        <time>2019-07-07T09:50:54.840Z</time>
      </trkpt>
      <trkpt lat="42.96626333" lon="-0.21726">
        <ele>1082.0</ele>
        <time>2019-07-07T09:50:55.813Z</time>
      </trkpt>
      <trkpt lat="42.96626333" lon="-0.21726">
        <ele>1082.0</ele>
        <time>2019-07-07T09:50:56.819Z</time>
      </trkpt>
      <trkpt lat="42.96624333" lon="-0.21733333">
        <ele>1082.0</ele>
        <time>2019-07-07T09:50:57.822Z</time>
      </trkpt>
      <trkpt lat="42.96624333" lon="-0.21733333">
        <ele>1082.0</ele>
        <time>2019-07-07T09:50:58.827Z</time>
      </trkpt>
      <trkpt lat="42.96622167" lon="-0.21740333">
        <ele>1083.0</ele>
        <time>2019-07-07T09:50:59.804Z</time>
      </trkpt>
      <trkpt lat="42.96622167" lon="-0.21740333">
        <ele>1083.0</ele>
        <time>2019-07-07T09:51:00.810Z</time>
      </trkpt>
      <trkpt lat="42.96620167" lon="-0.217475">
        <ele>1084.0</ele>
        <time>2019-07-07T09:51:01.839Z</time>
      </trkpt>
      <trkpt lat="42.96619333" lon="-0.21751667">
        <ele>1084.0</ele>
        <time>2019-07-07T09:51:02.803Z</time>
      </trkpt>
      <trkpt lat="42.96619333" lon="-0.21751667">
        <ele>1084.0</ele>
        <time>2019-07-07T09:51:03.809Z</time>
      </trkpt>
      <trkpt lat="42.96617167" lon="-0.21758667">
        <ele>1085.0</ele>
        <time>2019-07-07T09:51:04.814Z</time>
      </trkpt>
      <trkpt lat="42.96617167" lon="-0.21758667">
        <ele>1085.0</ele>
        <time>2019-07-07T09:51:05.820Z</time>
      </trkpt>
      <trkpt lat="42.96615" lon="-0.21765667">
        <ele>1086.0</ele>
        <time>2019-07-07T09:51:06.824Z</time>
      </trkpt>
      <trkpt lat="42.96614" lon="-0.21768833">
        <ele>1086.0</ele>
        <time>2019-07-07T09:51:07.824Z</time>
      </trkpt>
      <trkpt lat="42.96614" lon="-0.21768833">
        <ele>1086.0</ele>
        <time>2019-07-07T09:51:08.829Z</time>
      </trkpt>
      <trkpt lat="42.966115" lon="-0.217725">
        <ele>1088.0</ele>
        <time>2019-07-07T09:51:09.814Z</time>
      </trkpt>
      <trkpt lat="42.966115" lon="-0.217725">
        <ele>1088.0</ele>
        <time>2019-07-07T09:51:10.819Z</time>
      </trkpt>
      <trkpt lat="42.96609667" lon="-0.21778167">
        <ele>1089.0</ele>
        <time>2019-07-07T09:51:11.834Z</time>
      </trkpt>
      <trkpt lat="42.96609" lon="-0.21781167">
        <ele>1090.0</ele>
        <time>2019-07-07T09:51:12.824Z</time>
      </trkpt>
      <trkpt lat="42.96609" lon="-0.21781167">
        <ele>1090.0</ele>
        <time>2019-07-07T09:51:13.830Z</time>
      </trkpt>
      <trkpt lat="42.96608167" lon="-0.21787833">
        <ele>1090.0</ele>
        <time>2019-07-07T09:51:14.804Z</time>
      </trkpt>
      <trkpt lat="42.96608167" lon="-0.21787833">
        <ele>1090.0</ele>
        <time>2019-07-07T09:51:15.809Z</time>
      </trkpt>
      <trkpt lat="42.96608833" lon="-0.217955">
        <ele>1091.0</ele>
        <time>2019-07-07T09:51:16.821Z</time>
      </trkpt>
      <trkpt lat="42.96608833" lon="-0.217955">
        <ele>1091.0</ele>
        <time>2019-07-07T09:51:17.827Z</time>
      </trkpt>
      <trkpt lat="42.96607667" lon="-0.21802833">
        <ele>1091.0</ele>
        <time>2019-07-07T09:51:18.828Z</time>
      </trkpt>
      <trkpt lat="42.96607667" lon="-0.21802833">
        <ele>1091.0</ele>
        <time>2019-07-07T09:51:19.806Z</time>
      </trkpt>
      <trkpt lat="42.96607" lon="-0.2181">
        <ele>1091.0</ele>
        <time>2019-07-07T09:51:20.809Z</time>
      </trkpt>
      <trkpt lat="42.96607" lon="-0.2181">
        <ele>1091.0</ele>
        <time>2019-07-07T09:51:21.815Z</time>
      </trkpt>
      <trkpt lat="42.96606333" lon="-0.21816667">
        <ele>1092.0</ele>
        <time>2019-07-07T09:51:22.824Z</time>
      </trkpt>
      <trkpt lat="42.96606333" lon="-0.21819167">
        <ele>1092.0</ele>
        <time>2019-07-07T09:51:23.815Z</time>
      </trkpt>
      <trkpt lat="42.96606333" lon="-0.21819167">
        <ele>1092.0</ele>
        <time>2019-07-07T09:51:24.820Z</time>
      </trkpt>
      <trkpt lat="42.96605" lon="-0.21825833">
        <ele>1093.0</ele>
        <time>2019-07-07T09:51:25.834Z</time>
      </trkpt>
      <trkpt lat="42.96604333" lon="-0.21829167">
        <ele>1093.0</ele>
        <time>2019-07-07T09:51:26.812Z</time>
      </trkpt>
      <trkpt lat="42.96604333" lon="-0.21829167">
        <ele>1093.0</ele>
        <time>2019-07-07T09:51:27.817Z</time>
      </trkpt>
      <trkpt lat="42.96602667" lon="-0.21836167">
        <ele>1093.0</ele>
        <time>2019-07-07T09:51:28.819Z</time>
      </trkpt>
      <trkpt lat="42.96602" lon="-0.21839833">
        <ele>1093.0</ele>
        <time>2019-07-07T09:51:29.834Z</time>
      </trkpt>
      <trkpt lat="42.96602" lon="-0.21839833">
        <ele>1093.0</ele>
        <time>2019-07-07T09:51:30.839Z</time>
      </trkpt>
      <trkpt lat="42.966005" lon="-0.21847">
        <ele>1094.0</ele>
        <time>2019-07-07T09:51:31.824Z</time>
      </trkpt>
      <trkpt lat="42.966005" lon="-0.21847">
        <ele>1094.0</ele>
        <time>2019-07-07T09:51:32.831Z</time>
      </trkpt>
      <trkpt lat="42.96599167" lon="-0.21855167">
        <ele>1095.0</ele>
        <time>2019-07-07T09:51:33.812Z</time>
      </trkpt>
      <trkpt lat="42.96598333" lon="-0.21859333">
        <ele>1095.0</ele>
        <time>2019-07-07T09:51:34.820Z</time>
      </trkpt>
      <trkpt lat="42.965975" lon="-0.21862833">
        <ele>1095.0</ele>
        <time>2019-07-07T09:51:35.813Z</time>
      </trkpt>
      <trkpt lat="42.965975" lon="-0.21862833">
        <ele>1095.0</ele>
        <time>2019-07-07T09:51:36.820Z</time>
      </trkpt>
      <trkpt lat="42.965965" lon="-0.218695">
        <ele>1096.0</ele>
        <time>2019-07-07T09:51:37.814Z</time>
      </trkpt>
      <trkpt lat="42.965965" lon="-0.218695">
        <ele>1096.0</ele>
        <time>2019-07-07T09:51:38.819Z</time>
      </trkpt>
      <trkpt lat="42.965955" lon="-0.21876833">
        <ele>1097.0</ele>
        <time>2019-07-07T09:51:39.833Z</time>
      </trkpt>
      <trkpt lat="42.965955" lon="-0.21876833">
        <ele>1097.0</ele>
        <time>2019-07-07T09:51:40.802Z</time>
      </trkpt>
      <trkpt lat="42.965935" lon="-0.21883667">
        <ele>1097.0</ele>
        <time>2019-07-07T09:51:41.814Z</time>
      </trkpt>
      <trkpt lat="42.965925" lon="-0.21887167">
        <ele>1098.0</ele>
        <time>2019-07-07T09:51:42.803Z</time>
      </trkpt>
      <trkpt lat="42.965925" lon="-0.21887167">
        <ele>1098.0</ele>
        <time>2019-07-07T09:51:43.809Z</time>
      </trkpt>
      <trkpt lat="42.96590833" lon="-0.21894333">
        <ele>1098.0</ele>
        <time>2019-07-07T09:51:44.840Z</time>
      </trkpt>
      <trkpt lat="42.96590833" lon="-0.21894333">
        <ele>1098.0</ele>
        <time>2019-07-07T09:51:45.806Z</time>
      </trkpt>
      <trkpt lat="42.96589833" lon="-0.21901167">
        <ele>1099.0</ele>
        <time>2019-07-07T09:51:46.819Z</time>
      </trkpt>
      <trkpt lat="42.96589833" lon="-0.21901167">
        <ele>1099.0</ele>
        <time>2019-07-07T09:51:47.839Z</time>
      </trkpt>
      <trkpt lat="42.965895" lon="-0.219085">
        <ele>1099.0</ele>
        <time>2019-07-07T09:51:48.828Z</time>
      </trkpt>
      <trkpt lat="42.965895" lon="-0.219085">
        <ele>1099.0</ele>
        <time>2019-07-07T09:51:49.819Z</time>
      </trkpt>
      <trkpt lat="42.96589167" lon="-0.21915333">
        <ele>1100.0</ele>
        <time>2019-07-07T09:51:50.803Z</time>
      </trkpt>
      <trkpt lat="42.96589167" lon="-0.21918667">
        <ele>1100.0</ele>
        <time>2019-07-07T09:51:51.820Z</time>
      </trkpt>
      <trkpt lat="42.96589167" lon="-0.21918667">
        <ele>1100.0</ele>
        <time>2019-07-07T09:51:52.826Z</time>
      </trkpt>
      <trkpt lat="42.96589" lon="-0.21925333">
        <ele>1101.0</ele>
        <time>2019-07-07T09:51:53.812Z</time>
      </trkpt>
      <trkpt lat="42.96589" lon="-0.21925333">
        <ele>1101.0</ele>
        <time>2019-07-07T09:51:54.817Z</time>
      </trkpt>
      <trkpt lat="42.96588833" lon="-0.21932167">
        <ele>1102.0</ele>
        <time>2019-07-07T09:51:55.833Z</time>
      </trkpt>
      <trkpt lat="42.96588833" lon="-0.21935333">
        <ele>1102.0</ele>
        <time>2019-07-07T09:51:56.810Z</time>
      </trkpt>
      <trkpt lat="42.96588833" lon="-0.21935333">
        <ele>1102.0</ele>
        <time>2019-07-07T09:51:57.815Z</time>
      </trkpt>
      <trkpt lat="42.96589" lon="-0.21942">
        <ele>1103.0</ele>
        <time>2019-07-07T09:51:58.802Z</time>
      </trkpt>
      <trkpt lat="42.96588667" lon="-0.21945667">
        <ele>1103.0</ele>
        <time>2019-07-07T09:51:59.819Z</time>
      </trkpt>
      <trkpt lat="42.96588667" lon="-0.21945667">
        <ele>1103.0</ele>
        <time>2019-07-07T09:52:00.825Z</time>
      </trkpt>
      <trkpt lat="42.965875" lon="-0.21952667">
        <ele>1104.0</ele>
        <time>2019-07-07T09:52:01.803Z</time>
      </trkpt>
      <trkpt lat="42.965875" lon="-0.21952667">
        <ele>1104.0</ele>
        <time>2019-07-07T09:52:02.809Z</time>
      </trkpt>
      <trkpt lat="42.96586667" lon="-0.21959833">
        <ele>1104.0</ele>
        <time>2019-07-07T09:52:03.814Z</time>
      </trkpt>
      <trkpt lat="42.965865" lon="-0.21963333">
        <ele>1105.0</ele>
        <time>2019-07-07T09:52:04.803Z</time>
      </trkpt>
      <trkpt lat="42.965865" lon="-0.21963333">
        <ele>1105.0</ele>
        <time>2019-07-07T09:52:05.809Z</time>
      </trkpt>
      <trkpt lat="42.96584833" lon="-0.2197">
        <ele>1105.0</ele>
        <time>2019-07-07T09:52:06.821Z</time>
      </trkpt>
      <trkpt lat="42.96584833" lon="-0.2197">
        <ele>1105.0</ele>
        <time>2019-07-07T09:52:07.827Z</time>
      </trkpt>
      <trkpt lat="42.96582833" lon="-0.21978">
        <ele>1106.0</ele>
        <time>2019-07-07T09:52:08.840Z</time>
      </trkpt>
      <trkpt lat="42.96582833" lon="-0.21978">
        <ele>1106.0</ele>
        <time>2019-07-07T09:52:09.808Z</time>
      </trkpt>
      <trkpt lat="42.96579833" lon="-0.21985">
        <ele>1106.0</ele>
        <time>2019-07-07T09:52:10.824Z</time>
      </trkpt>
      <trkpt lat="42.96579833" lon="-0.21985">
        <ele>1106.0</ele>
        <time>2019-07-07T09:52:11.830Z</time>
      </trkpt>
      <trkpt lat="42.96576833" lon="-0.21990667">
        <ele>1107.0</ele>
        <time>2019-07-07T09:52:12.801Z</time>
      </trkpt>
      <trkpt lat="42.96576833" lon="-0.21990667">
        <ele>1107.0</ele>
        <time>2019-07-07T09:52:13.807Z</time>
      </trkpt>
      <trkpt lat="42.96573833" lon="-0.21996167">
        <ele>1107.0</ele>
        <time>2019-07-07T09:52:14.822Z</time>
      </trkpt>
      <trkpt lat="42.96573833" lon="-0.21996167">
        <ele>1107.0</ele>
        <time>2019-07-07T09:52:15.828Z</time>
      </trkpt>
      <trkpt lat="42.965705" lon="-0.22000667">
        <ele>1108.0</ele>
        <time>2019-07-07T09:52:16.814Z</time>
      </trkpt>
      <trkpt lat="42.965705" lon="-0.22000667">
        <ele>1108.0</ele>
        <time>2019-07-07T09:52:17.820Z</time>
      </trkpt>
      <trkpt lat="42.96567333" lon="-0.220055">
        <ele>1109.0</ele>
        <time>2019-07-07T09:52:18.813Z</time>
      </trkpt>
      <trkpt lat="42.96565667" lon="-0.22008">
        <ele>1110.0</ele>
        <time>2019-07-07T09:52:19.839Z</time>
      </trkpt>
      <trkpt lat="42.96565667" lon="-0.22008">
        <ele>1110.0</ele>
        <time>2019-07-07T09:52:20.805Z</time>
      </trkpt>
      <trkpt lat="42.965615" lon="-0.22013167">
        <ele>1110.0</ele>
        <time>2019-07-07T09:52:21.824Z</time>
      </trkpt>
      <trkpt lat="42.9656" lon="-0.220155">
        <ele>1111.0</ele>
        <time>2019-07-07T09:52:22.813Z</time>
      </trkpt>
      <trkpt lat="42.9656" lon="-0.220155">
        <ele>1111.0</ele>
        <time>2019-07-07T09:52:23.819Z</time>
      </trkpt>
      <trkpt lat="42.96557333" lon="-0.220215">
        <ele>1112.0</ele>
        <time>2019-07-07T09:52:24.804Z</time>
      </trkpt>
      <trkpt lat="42.96556" lon="-0.22025">
        <ele>1112.0</ele>
        <time>2019-07-07T09:52:25.820Z</time>
      </trkpt>
      <trkpt lat="42.96556" lon="-0.22025">
        <ele>1112.0</ele>
        <time>2019-07-07T09:52:26.826Z</time>
      </trkpt>
      <trkpt lat="42.965545" lon="-0.22032833">
        <ele>1112.0</ele>
        <time>2019-07-07T09:52:27.815Z</time>
      </trkpt>
      <trkpt lat="42.965545" lon="-0.22032833">
        <ele>1112.0</ele>
        <time>2019-07-07T09:52:28.822Z</time>
      </trkpt>
      <trkpt lat="42.96553667" lon="-0.22040333">
        <ele>1113.0</ele>
        <time>2019-07-07T09:52:29.804Z</time>
      </trkpt>
      <trkpt lat="42.96553333" lon="-0.22044">
        <ele>1113.0</ele>
        <time>2019-07-07T09:52:30.813Z</time>
      </trkpt>
      <trkpt lat="42.96553333" lon="-0.22044">
        <ele>1113.0</ele>
        <time>2019-07-07T09:52:31.819Z</time>
      </trkpt>
      <trkpt lat="42.965525" lon="-0.220515">
        <ele>1113.0</ele>
        <time>2019-07-07T09:52:32.831Z</time>
      </trkpt>
      <trkpt lat="42.96552" lon="-0.22055333">
        <ele>1113.0</ele>
        <time>2019-07-07T09:52:33.803Z</time>
      </trkpt>
      <trkpt lat="42.96552" lon="-0.22055333">
        <ele>1113.0</ele>
        <time>2019-07-07T09:52:34.813Z</time>
      </trkpt>
      <trkpt lat="42.96551" lon="-0.22063167">
        <ele>1113.0</ele>
        <time>2019-07-07T09:52:35.820Z</time>
      </trkpt>
      <trkpt lat="42.96550833" lon="-0.22067167">
        <ele>1113.0</ele>
        <time>2019-07-07T09:52:36.814Z</time>
      </trkpt>
      <trkpt lat="42.96550833" lon="-0.22067167">
        <ele>1113.0</ele>
        <time>2019-07-07T09:52:37.819Z</time>
      </trkpt>
      <trkpt lat="42.965505" lon="-0.22074667">
        <ele>1114.0</ele>
        <time>2019-07-07T09:52:38.803Z</time>
      </trkpt>
      <trkpt lat="42.96550167" lon="-0.22078333">
        <ele>1114.0</ele>
        <time>2019-07-07T09:52:39.825Z</time>
      </trkpt>
      <trkpt lat="42.96550167" lon="-0.22078333">
        <ele>1114.0</ele>
        <time>2019-07-07T09:52:40.831Z</time>
      </trkpt>
      <trkpt lat="42.96549833" lon="-0.22085333">
        <ele>1114.0</ele>
        <time>2019-07-07T09:52:41.803Z</time>
      </trkpt>
      <trkpt lat="42.96549667" lon="-0.22088667">
        <ele>1114.0</ele>
        <time>2019-07-07T09:52:42.812Z</time>
      </trkpt>
      <trkpt lat="42.96549667" lon="-0.22088667">
        <ele>1114.0</ele>
        <time>2019-07-07T09:52:43.817Z</time>
      </trkpt>
      <trkpt lat="42.96549" lon="-0.22095833">
        <ele>1114.0</ele>
        <time>2019-07-07T09:52:44.823Z</time>
      </trkpt>
      <trkpt lat="42.96549" lon="-0.22095833">
        <ele>1114.0</ele>
        <time>2019-07-07T09:52:45.829Z</time>
      </trkpt>
      <trkpt lat="42.965485" lon="-0.22103167">
        <ele>1115.0</ele>
        <time>2019-07-07T09:52:46.813Z</time>
      </trkpt>
      <trkpt lat="42.965485" lon="-0.22103167">
        <ele>1115.0</ele>
        <time>2019-07-07T09:52:47.835Z</time>
      </trkpt>
      <trkpt lat="42.96548833" lon="-0.22110833">
        <ele>1115.0</ele>
        <time>2019-07-07T09:52:48.842Z</time>
      </trkpt>
      <trkpt lat="42.96549167" lon="-0.22114667">
        <ele>1115.0</ele>
        <time>2019-07-07T09:52:49.803Z</time>
      </trkpt>
      <trkpt lat="42.96549167" lon="-0.22114667">
        <ele>1115.0</ele>
        <time>2019-07-07T09:52:50.808Z</time>
      </trkpt>
      <trkpt lat="42.96549833" lon="-0.22121833">
        <ele>1116.0</ele>
        <time>2019-07-07T09:52:51.804Z</time>
      </trkpt>
      <trkpt lat="42.96550167" lon="-0.22125333">
        <ele>1116.0</ele>
        <time>2019-07-07T09:52:52.818Z</time>
      </trkpt>
      <trkpt lat="42.96550167" lon="-0.22125333">
        <ele>1116.0</ele>
        <time>2019-07-07T09:52:53.824Z</time>
      </trkpt>
      <trkpt lat="42.96551833" lon="-0.22132167">
        <ele>1116.0</ele>
        <time>2019-07-07T09:52:54.814Z</time>
      </trkpt>
      <trkpt lat="42.96551833" lon="-0.22132167">
        <ele>1116.0</ele>
        <time>2019-07-07T09:52:55.819Z</time>
      </trkpt>
      <trkpt lat="42.96554167" lon="-0.22138667">
        <ele>1116.0</ele>
        <time>2019-07-07T09:52:56.814Z</time>
      </trkpt>
      <trkpt lat="42.96555333" lon="-0.22142333">
        <ele>1116.0</ele>
        <time>2019-07-07T09:52:57.824Z</time>
      </trkpt>
      <trkpt lat="42.96555333" lon="-0.22142333">
        <ele>1116.0</ele>
        <time>2019-07-07T09:52:58.829Z</time>
      </trkpt>
      <trkpt lat="42.965575" lon="-0.221495">
        <ele>1117.0</ele>
        <time>2019-07-07T09:52:59.823Z</time>
      </trkpt>
      <trkpt lat="42.965575" lon="-0.221495">
        <ele>1117.0</ele>
        <time>2019-07-07T09:53:00.829Z</time>
      </trkpt>
      <trkpt lat="42.965595" lon="-0.22157">
        <ele>1117.0</ele>
        <time>2019-07-07T09:53:01.808Z</time>
      </trkpt>
      <trkpt lat="42.965595" lon="-0.22157">
        <ele>1117.0</ele>
        <time>2019-07-07T09:53:02.814Z</time>
      </trkpt>
      <trkpt lat="42.965615" lon="-0.22165667">
        <ele>1117.0</ele>
        <time>2019-07-07T09:53:03.834Z</time>
      </trkpt>
      <trkpt lat="42.965625" lon="-0.22170167">
        <ele>1117.0</ele>
        <time>2019-07-07T09:53:04.835Z</time>
      </trkpt>
      <trkpt lat="42.965625" lon="-0.22170167">
        <ele>1117.0</ele>
        <time>2019-07-07T09:53:05.802Z</time>
      </trkpt>
      <trkpt lat="42.96563" lon="-0.221795">
        <ele>1118.0</ele>
        <time>2019-07-07T09:53:06.817Z</time>
      </trkpt>
      <trkpt lat="42.96563" lon="-0.221795">
        <ele>1118.0</ele>
        <time>2019-07-07T09:53:07.823Z</time>
      </trkpt>
      <trkpt lat="42.96562667" lon="-0.22188167">
        <ele>1118.0</ele>
        <time>2019-07-07T09:53:08.833Z</time>
      </trkpt>
      <trkpt lat="42.96562333" lon="-0.22192333">
        <ele>1118.0</ele>
        <time>2019-07-07T09:53:09.823Z</time>
      </trkpt>
      <trkpt lat="42.96562333" lon="-0.22192333">
        <ele>1118.0</ele>
        <time>2019-07-07T09:53:10.829Z</time>
      </trkpt>
      <trkpt lat="42.96560667" lon="-0.22201167">
        <ele>1119.0</ele>
        <time>2019-07-07T09:53:11.834Z</time>
      </trkpt>
      <trkpt lat="42.965595" lon="-0.22205667">
        <ele>1119.0</ele>
        <time>2019-07-07T09:53:12.813Z</time>
      </trkpt>
      <trkpt lat="42.965595" lon="-0.22205667">
        <ele>1119.0</ele>
        <time>2019-07-07T09:53:13.819Z</time>
      </trkpt>
      <trkpt lat="42.96556833" lon="-0.222145">
        <ele>1119.0</ele>
        <time>2019-07-07T09:53:14.819Z</time>
      </trkpt>
      <trkpt lat="42.96555333" lon="-0.22219">
        <ele>1119.0</ele>
        <time>2019-07-07T09:53:15.820Z</time>
      </trkpt>
      <trkpt lat="42.96555333" lon="-0.22219">
        <ele>1119.0</ele>
        <time>2019-07-07T09:53:16.835Z</time>
      </trkpt>
      <trkpt lat="42.96552167" lon="-0.22228">
        <ele>1119.0</ele>
        <time>2019-07-07T09:53:17.804Z</time>
      </trkpt>
      <trkpt lat="42.96551333" lon="-0.22232667">
        <ele>1120.0</ele>
        <time>2019-07-07T09:53:18.822Z</time>
      </trkpt>
      <trkpt lat="42.965495" lon="-0.22236667">
        <ele>1120.0</ele>
        <time>2019-07-07T09:53:19.833Z</time>
      </trkpt>
      <trkpt lat="42.965495" lon="-0.22236667">
        <ele>1120.0</ele>
        <time>2019-07-07T09:53:20.801Z</time>
      </trkpt>
      <trkpt lat="42.96545333" lon="-0.22245333">
        <ele>1120.0</ele>
        <time>2019-07-07T09:53:21.818Z</time>
      </trkpt>
      <trkpt lat="42.96545333" lon="-0.22245333">
        <ele>1120.0</ele>
        <time>2019-07-07T09:53:22.824Z</time>
      </trkpt>
      <trkpt lat="42.96541333" lon="-0.22253667">
        <ele>1120.0</ele>
        <time>2019-07-07T09:53:23.802Z</time>
      </trkpt>
      <trkpt lat="42.96541333" lon="-0.22253667">
        <ele>1120.0</ele>
        <time>2019-07-07T09:53:24.808Z</time>
      </trkpt>
      <trkpt lat="42.96537833" lon="-0.22263167">
        <ele>1120.0</ele>
        <time>2019-07-07T09:53:25.822Z</time>
      </trkpt>
      <trkpt lat="42.96537833" lon="-0.22263167">
        <ele>1120.0</ele>
        <time>2019-07-07T09:53:26.829Z</time>
      </trkpt>
      <trkpt lat="42.965345" lon="-0.22271833">
        <ele>1120.0</ele>
        <time>2019-07-07T09:53:27.814Z</time>
      </trkpt>
      <trkpt lat="42.965345" lon="-0.22271833">
        <ele>1120.0</ele>
        <time>2019-07-07T09:53:28.820Z</time>
      </trkpt>
      <trkpt lat="42.965315" lon="-0.22279667">
        <ele>1121.0</ele>
        <time>2019-07-07T09:53:29.840Z</time>
      </trkpt>
      <trkpt lat="42.96530167" lon="-0.22283">
        <ele>1121.0</ele>
        <time>2019-07-07T09:53:30.824Z</time>
      </trkpt>
      <trkpt lat="42.96530167" lon="-0.22283">
        <ele>1121.0</ele>
        <time>2019-07-07T09:53:31.829Z</time>
      </trkpt>
      <trkpt lat="42.96528333" lon="-0.22288667">
        <ele>1122.0</ele>
        <time>2019-07-07T09:53:32.804Z</time>
      </trkpt>
      <trkpt lat="42.96528333" lon="-0.22288667">
        <ele>1122.0</ele>
        <time>2019-07-07T09:53:33.809Z</time>
      </trkpt>
      <trkpt lat="42.96526167" lon="-0.22293333">
        <ele>1122.0</ele>
        <time>2019-07-07T09:53:34.824Z</time>
      </trkpt>
      <trkpt lat="42.96526167" lon="-0.22293333">
        <ele>1122.0</ele>
        <time>2019-07-07T09:53:35.830Z</time>
      </trkpt>
      <trkpt lat="42.965235" lon="-0.22297167">
        <ele>1122.0</ele>
        <time>2019-07-07T09:53:36.813Z</time>
      </trkpt>
      <trkpt lat="42.96522333" lon="-0.22299333">
        <ele>1123.0</ele>
        <time>2019-07-07T09:53:37.822Z</time>
      </trkpt>
      <trkpt lat="42.96522333" lon="-0.22299333">
        <ele>1123.0</ele>
        <time>2019-07-07T09:53:38.827Z</time>
      </trkpt>
      <trkpt lat="42.96520833" lon="-0.223045">
        <ele>1123.0</ele>
        <time>2019-07-07T09:53:39.834Z</time>
      </trkpt>
      <trkpt lat="42.96520167" lon="-0.22307333">
        <ele>1123.0</ele>
        <time>2019-07-07T09:53:40.821Z</time>
      </trkpt>
      <trkpt lat="42.96520167" lon="-0.22307333">
        <ele>1123.0</ele>
        <time>2019-07-07T09:53:41.828Z</time>
      </trkpt>
      <trkpt lat="42.96518833" lon="-0.22312">
        <ele>1123.0</ele>
        <time>2019-07-07T09:53:42.807Z</time>
      </trkpt>
      <trkpt lat="42.96518833" lon="-0.22312">
        <ele>1123.0</ele>
        <time>2019-07-07T09:53:43.812Z</time>
      </trkpt>
      <trkpt lat="42.96517667" lon="-0.22317">
        <ele>1124.0</ele>
        <time>2019-07-07T09:53:44.830Z</time>
      </trkpt>
      <trkpt lat="42.96517333" lon="-0.223195">
        <ele>1124.0</ele>
        <time>2019-07-07T09:53:45.807Z</time>
      </trkpt>
      <trkpt lat="42.96517333" lon="-0.223195">
        <ele>1124.0</ele>
        <time>2019-07-07T09:53:46.812Z</time>
      </trkpt>
      <trkpt lat="42.96515833" lon="-0.22324833">
        <ele>1124.0</ele>
        <time>2019-07-07T09:53:47.817Z</time>
      </trkpt>
      <trkpt lat="42.96515833" lon="-0.22324833">
        <ele>1124.0</ele>
        <time>2019-07-07T09:53:48.808Z</time>
      </trkpt>
      <trkpt lat="42.96514167" lon="-0.22329667">
        <ele>1125.0</ele>
        <time>2019-07-07T09:53:49.823Z</time>
      </trkpt>
      <trkpt lat="42.96513833" lon="-0.22332167">
        <ele>1125.0</ele>
        <time>2019-07-07T09:53:50.840Z</time>
      </trkpt>
      <trkpt lat="42.96513833" lon="-0.22332167">
        <ele>1125.0</ele>
        <time>2019-07-07T09:53:51.806Z</time>
      </trkpt>
      <trkpt lat="42.96512333" lon="-0.22336167">
        <ele>1125.0</ele>
        <time>2019-07-07T09:53:52.819Z</time>
      </trkpt>
      <trkpt lat="42.96512333" lon="-0.22336167">
        <ele>1125.0</ele>
        <time>2019-07-07T09:53:53.825Z</time>
      </trkpt>
      <trkpt lat="42.96510833" lon="-0.2234">
        <ele>1125.0</ele>
        <time>2019-07-07T09:53:54.829Z</time>
      </trkpt>
      <trkpt lat="42.96510833" lon="-0.2234">
        <ele>1125.0</ele>
        <time>2019-07-07T09:53:55.835Z</time>
      </trkpt>
      <trkpt lat="42.96509333" lon="-0.22344167">
        <ele>1125.0</ele>
        <time>2019-07-07T09:53:56.813Z</time>
      </trkpt>
      <trkpt lat="42.96509333" lon="-0.22344167">
        <ele>1125.0</ele>
        <time>2019-07-07T09:53:57.819Z</time>
      </trkpt>
      <trkpt lat="42.965095" lon="-0.22349">
        <ele>1126.0</ele>
        <time>2019-07-07T09:53:58.814Z</time>
      </trkpt>
      <trkpt lat="42.965095" lon="-0.22349">
        <ele>1126.0</ele>
        <time>2019-07-07T09:53:59.819Z</time>
      </trkpt>
      <trkpt lat="42.965095" lon="-0.22354">
        <ele>1126.0</ele>
        <time>2019-07-07T09:54:00.813Z</time>
      </trkpt>
      <trkpt lat="42.965095" lon="-0.22354">
        <ele>1126.0</ele>
        <time>2019-07-07T09:54:01.819Z</time>
      </trkpt>
      <trkpt lat="42.96509333" lon="-0.22359833">
        <ele>1127.0</ele>
        <time>2019-07-07T09:54:02.804Z</time>
      </trkpt>
      <trkpt lat="42.96509667" lon="-0.22362667">
        <ele>1127.0</ele>
        <time>2019-07-07T09:54:03.813Z</time>
      </trkpt>
      <trkpt lat="42.96509667" lon="-0.22362667">
        <ele>1127.0</ele>
        <time>2019-07-07T09:54:04.819Z</time>
      </trkpt>
      <trkpt lat="42.96510167" lon="-0.22368">
        <ele>1128.0</ele>
        <time>2019-07-07T09:54:05.834Z</time>
      </trkpt>
      <trkpt lat="42.96510667" lon="-0.223705">
        <ele>1128.0</ele>
        <time>2019-07-07T09:54:06.804Z</time>
      </trkpt>
      <trkpt lat="42.96510667" lon="-0.223705">
        <ele>1128.0</ele>
        <time>2019-07-07T09:54:07.809Z</time>
      </trkpt>
      <trkpt lat="42.96512333" lon="-0.22375667">
        <ele>1128.0</ele>
        <time>2019-07-07T09:54:08.831Z</time>
      </trkpt>
      <trkpt lat="42.96512333" lon="-0.22375667">
        <ele>1128.0</ele>
        <time>2019-07-07T09:54:09.838Z</time>
      </trkpt>
      <trkpt lat="42.96514667" lon="-0.22381">
        <ele>1129.0</ele>
        <time>2019-07-07T09:54:10.823Z</time>
      </trkpt>
      <trkpt lat="42.96514667" lon="-0.22381">
        <ele>1129.0</ele>
        <time>2019-07-07T09:54:11.829Z</time>
      </trkpt>
      <trkpt lat="42.96518333" lon="-0.223855">
        <ele>1129.0</ele>
        <time>2019-07-07T09:54:12.823Z</time>
      </trkpt>
      <trkpt lat="42.96518333" lon="-0.223855">
        <ele>1129.0</ele>
        <time>2019-07-07T09:54:13.829Z</time>
      </trkpt>
      <trkpt lat="42.96522167" lon="-0.22389667">
        <ele>1130.0</ele>
        <time>2019-07-07T09:54:14.814Z</time>
      </trkpt>
      <trkpt lat="42.96522167" lon="-0.22389667">
        <ele>1130.0</ele>
        <time>2019-07-07T09:54:15.830Z</time>
      </trkpt>
      <trkpt lat="42.96526167" lon="-0.223935">
        <ele>1131.0</ele>
        <time>2019-07-07T09:54:16.811Z</time>
      </trkpt>
      <trkpt lat="42.96526167" lon="-0.223935">
        <ele>1131.0</ele>
        <time>2019-07-07T09:54:17.817Z</time>
      </trkpt>
      <trkpt lat="42.96530833" lon="-0.22395833">
        <ele>1132.0</ele>
        <time>2019-07-07T09:54:18.824Z</time>
      </trkpt>
      <trkpt lat="42.96530833" lon="-0.22395833">
        <ele>1132.0</ele>
        <time>2019-07-07T09:54:19.832Z</time>
      </trkpt>
      <trkpt lat="42.96535167" lon="-0.22397">
        <ele>1132.0</ele>
        <time>2019-07-07T09:54:20.825Z</time>
      </trkpt>
      <trkpt lat="42.96537667" lon="-0.223975">
        <ele>1132.0</ele>
        <time>2019-07-07T09:54:21.834Z</time>
      </trkpt>
      <trkpt lat="42.96537667" lon="-0.223975">
        <ele>1132.0</ele>
        <time>2019-07-07T09:54:22.804Z</time>
      </trkpt>
      <trkpt lat="42.96542833" lon="-0.22398167">
        <ele>1132.0</ele>
        <time>2019-07-07T09:54:23.823Z</time>
      </trkpt>
      <trkpt lat="42.96542833" lon="-0.22398167">
        <ele>1132.0</ele>
        <time>2019-07-07T09:54:24.829Z</time>
      </trkpt>
      <trkpt lat="42.965475" lon="-0.22398833">
        <ele>1132.0</ele>
        <time>2019-07-07T09:54:25.813Z</time>
      </trkpt>
      <trkpt lat="42.96549667" lon="-0.22399">
        <ele>1132.0</ele>
        <time>2019-07-07T09:54:26.834Z</time>
      </trkpt>
      <trkpt lat="42.96552" lon="-0.22399167">
        <ele>1132.0</ele>
        <time>2019-07-07T09:54:27.808Z</time>
      </trkpt>
      <trkpt lat="42.96552" lon="-0.22399167">
        <ele>1132.0</ele>
        <time>2019-07-07T09:54:28.814Z</time>
      </trkpt>
      <trkpt lat="42.96556833" lon="-0.223995">
        <ele>1132.0</ele>
        <time>2019-07-07T09:54:29.833Z</time>
      </trkpt>
      <trkpt lat="42.96559333" lon="-0.224">
        <ele>1132.0</ele>
        <time>2019-07-07T09:54:30.824Z</time>
      </trkpt>
      <trkpt lat="42.96559333" lon="-0.224">
        <ele>1132.0</ele>
        <time>2019-07-07T09:54:31.831Z</time>
      </trkpt>
      <trkpt lat="42.96565" lon="-0.22400333">
        <ele>1132.0</ele>
        <time>2019-07-07T09:54:32.804Z</time>
      </trkpt>
      <trkpt lat="42.96565" lon="-0.22400333">
        <ele>1132.0</ele>
        <time>2019-07-07T09:54:33.809Z</time>
      </trkpt>
      <trkpt lat="42.9657" lon="-0.22400667">
        <ele>1132.0</ele>
        <time>2019-07-07T09:54:34.823Z</time>
      </trkpt>
      <trkpt lat="42.96572667" lon="-0.22400833">
        <ele>1132.0</ele>
        <time>2019-07-07T09:54:35.817Z</time>
      </trkpt>
      <trkpt lat="42.96572667" lon="-0.22400833">
        <ele>1132.0</ele>
        <time>2019-07-07T09:54:36.822Z</time>
      </trkpt>
      <trkpt lat="42.965775" lon="-0.22400667">
        <ele>1132.0</ele>
        <time>2019-07-07T09:54:37.823Z</time>
      </trkpt>
      <trkpt lat="42.965775" lon="-0.22400667">
        <ele>1132.0</ele>
        <time>2019-07-07T09:54:38.830Z</time>
      </trkpt>
      <trkpt lat="42.96582333" lon="-0.22399333">
        <ele>1132.0</ele>
        <time>2019-07-07T09:54:39.832Z</time>
      </trkpt>
      <trkpt lat="42.96582333" lon="-0.22399333">
        <ele>1132.0</ele>
        <time>2019-07-07T09:54:40.802Z</time>
      </trkpt>
      <trkpt lat="42.965875" lon="-0.22398">
        <ele>1132.0</ele>
        <time>2019-07-07T09:54:41.824Z</time>
      </trkpt>
      <trkpt lat="42.96590667" lon="-0.22397333">
        <ele>1133.0</ele>
        <time>2019-07-07T09:54:42.834Z</time>
      </trkpt>
      <trkpt lat="42.96590667" lon="-0.22397333">
        <ele>1133.0</ele>
        <time>2019-07-07T09:54:43.839Z</time>
      </trkpt>
      <trkpt lat="42.96596333" lon="-0.22395667">
        <ele>1133.0</ele>
        <time>2019-07-07T09:54:44.818Z</time>
      </trkpt>
      <trkpt lat="42.96596333" lon="-0.22395667">
        <ele>1133.0</ele>
        <time>2019-07-07T09:54:45.824Z</time>
      </trkpt>
      <trkpt lat="42.96600667" lon="-0.22394333">
        <ele>1136.0</ele>
        <time>2019-07-07T09:54:46.828Z</time>
      </trkpt>
      <trkpt lat="42.96600667" lon="-0.22394333">
        <ele>1136.0</ele>
        <time>2019-07-07T09:54:47.838Z</time>
      </trkpt>
      <trkpt lat="42.96606167" lon="-0.22393">
        <ele>1136.0</ele>
        <time>2019-07-07T09:54:48.807Z</time>
      </trkpt>
      <trkpt lat="42.96606167" lon="-0.22393">
        <ele>1136.0</ele>
        <time>2019-07-07T09:54:49.812Z</time>
      </trkpt>
      <trkpt lat="42.96613" lon="-0.22390833">
        <ele>1137.0</ele>
        <time>2019-07-07T09:54:50.834Z</time>
      </trkpt>
      <trkpt lat="42.96617" lon="-0.223885">
        <ele>1138.0</ele>
        <time>2019-07-07T09:54:51.834Z</time>
      </trkpt>
      <trkpt lat="42.96617" lon="-0.223885">
        <ele>1138.0</ele>
        <time>2019-07-07T09:54:52.841Z</time>
      </trkpt>
      <trkpt lat="42.96623667" lon="-0.22386">
        <ele>1137.0</ele>
        <time>2019-07-07T09:54:53.804Z</time>
      </trkpt>
      <trkpt lat="42.96623667" lon="-0.22386">
        <ele>1137.0</ele>
        <time>2019-07-07T09:54:54.809Z</time>
      </trkpt>
      <trkpt lat="42.96630667" lon="-0.22385">
        <ele>1137.0</ele>
        <time>2019-07-07T09:54:55.824Z</time>
      </trkpt>
      <trkpt lat="42.96630667" lon="-0.22385">
        <ele>1137.0</ele>
        <time>2019-07-07T09:54:56.830Z</time>
      </trkpt>
      <trkpt lat="42.96638" lon="-0.22385833">
        <ele>1138.0</ele>
        <time>2019-07-07T09:54:57.814Z</time>
      </trkpt>
      <trkpt lat="42.96641167" lon="-0.223865">
        <ele>1138.0</ele>
        <time>2019-07-07T09:54:58.832Z</time>
      </trkpt>
      <trkpt lat="42.96641167" lon="-0.223865">
        <ele>1138.0</ele>
        <time>2019-07-07T09:54:59.839Z</time>
      </trkpt>
      <trkpt lat="42.96646833" lon="-0.22387833">
        <ele>1138.0</ele>
        <time>2019-07-07T09:55:00.813Z</time>
      </trkpt>
      <trkpt lat="42.96646833" lon="-0.22387833">
        <ele>1138.0</ele>
        <time>2019-07-07T09:55:01.823Z</time>
      </trkpt>
      <trkpt lat="42.96652333" lon="-0.22390333">
        <ele>1138.0</ele>
        <time>2019-07-07T09:55:02.804Z</time>
      </trkpt>
      <trkpt lat="42.96652333" lon="-0.22390333">
        <ele>1138.0</ele>
        <time>2019-07-07T09:55:03.810Z</time>
      </trkpt>
      <trkpt lat="42.96658167" lon="-0.22392667">
        <ele>1139.0</ele>
        <time>2019-07-07T09:55:04.822Z</time>
      </trkpt>
      <trkpt lat="42.96661167" lon="-0.22394333">
        <ele>1139.0</ele>
        <time>2019-07-07T09:55:05.834Z</time>
      </trkpt>
      <trkpt lat="42.96664" lon="-0.22396">
        <ele>1140.0</ele>
        <time>2019-07-07T09:55:06.824Z</time>
      </trkpt>
      <trkpt lat="42.96664" lon="-0.22396">
        <ele>1140.0</ele>
        <time>2019-07-07T09:55:07.829Z</time>
      </trkpt>
      <trkpt lat="42.96669333" lon="-0.22400333">
        <ele>1140.0</ele>
        <time>2019-07-07T09:55:08.803Z</time>
      </trkpt>
      <trkpt lat="42.96669333" lon="-0.22400333">
        <ele>1140.0</ele>
        <time>2019-07-07T09:55:09.810Z</time>
      </trkpt>
      <trkpt lat="42.96674333" lon="-0.22405">
        <ele>1141.0</ele>
        <time>2019-07-07T09:55:10.823Z</time>
      </trkpt>
      <trkpt lat="42.96674333" lon="-0.22405">
        <ele>1141.0</ele>
        <time>2019-07-07T09:55:11.829Z</time>
      </trkpt>
      <trkpt lat="42.96679667" lon="-0.22410167">
        <ele>1141.0</ele>
        <time>2019-07-07T09:55:12.814Z</time>
      </trkpt>
      <trkpt lat="42.96679667" lon="-0.22410167">
        <ele>1141.0</ele>
        <time>2019-07-07T09:55:13.819Z</time>
      </trkpt>
      <trkpt lat="42.96685" lon="-0.22416167">
        <ele>1141.0</ele>
        <time>2019-07-07T09:55:14.834Z</time>
      </trkpt>
      <trkpt lat="42.966875" lon="-0.22419667">
        <ele>1141.0</ele>
        <time>2019-07-07T09:55:15.811Z</time>
      </trkpt>
      <trkpt lat="42.96690167" lon="-0.22422833">
        <ele>1141.0</ele>
        <time>2019-07-07T09:55:16.813Z</time>
      </trkpt>
      <trkpt lat="42.96692833" lon="-0.22426167">
        <ele>1141.0</ele>
        <time>2019-07-07T09:55:17.802Z</time>
      </trkpt>
      <trkpt lat="42.96692833" lon="-0.22426167">
        <ele>1141.0</ele>
        <time>2019-07-07T09:55:18.808Z</time>
      </trkpt>
      <trkpt lat="42.96698167" lon="-0.22433">
        <ele>1141.0</ele>
        <time>2019-07-07T09:55:19.803Z</time>
      </trkpt>
      <trkpt lat="42.96700833" lon="-0.22437">
        <ele>1141.0</ele>
        <time>2019-07-07T09:55:20.813Z</time>
      </trkpt>
      <trkpt lat="42.96700833" lon="-0.22437">
        <ele>1141.0</ele>
        <time>2019-07-07T09:55:21.819Z</time>
      </trkpt>
      <trkpt lat="42.96707" lon="-0.22445667">
        <ele>1141.0</ele>
        <time>2019-07-07T09:55:22.831Z</time>
      </trkpt>
      <trkpt lat="42.96709833" lon="-0.22449667">
        <ele>1142.0</ele>
        <time>2019-07-07T09:55:23.804Z</time>
      </trkpt>
      <trkpt lat="42.96709833" lon="-0.22449667">
        <ele>1142.0</ele>
        <time>2019-07-07T09:55:24.809Z</time>
      </trkpt>
      <trkpt lat="42.96715333" lon="-0.22457333">
        <ele>1142.0</ele>
        <time>2019-07-07T09:55:25.809Z</time>
      </trkpt>
      <trkpt lat="42.96715333" lon="-0.22457333">
        <ele>1142.0</ele>
        <time>2019-07-07T09:55:26.815Z</time>
      </trkpt>
      <trkpt lat="42.96719833" lon="-0.22464833">
        <ele>1143.0</ele>
        <time>2019-07-07T09:55:27.823Z</time>
      </trkpt>
      <trkpt lat="42.96719833" lon="-0.22464833">
        <ele>1143.0</ele>
        <time>2019-07-07T09:55:28.829Z</time>
      </trkpt>
      <trkpt lat="42.967235" lon="-0.22473">
        <ele>1143.0</ele>
        <time>2019-07-07T09:55:29.832Z</time>
      </trkpt>
      <trkpt lat="42.967235" lon="-0.22473">
        <ele>1143.0</ele>
        <time>2019-07-07T09:55:30.839Z</time>
      </trkpt>
      <trkpt lat="42.96726" lon="-0.22481">
        <ele>1143.0</ele>
        <time>2019-07-07T09:55:31.821Z</time>
      </trkpt>
      <trkpt lat="42.96726" lon="-0.22481">
        <ele>1143.0</ele>
        <time>2019-07-07T09:55:32.827Z</time>
      </trkpt>
      <trkpt lat="42.967275" lon="-0.22489">
        <ele>1144.0</ele>
        <time>2019-07-07T09:55:33.836Z</time>
      </trkpt>
      <trkpt lat="42.967275" lon="-0.22489">
        <ele>1144.0</ele>
        <time>2019-07-07T09:55:34.804Z</time>
      </trkpt>
      <trkpt lat="42.967285" lon="-0.22497167">
        <ele>1144.0</ele>
        <time>2019-07-07T09:55:35.830Z</time>
      </trkpt>
      <trkpt lat="42.96728833" lon="-0.225015">
        <ele>1144.0</ele>
        <time>2019-07-07T09:55:36.834Z</time>
      </trkpt>
      <trkpt lat="42.96728833" lon="-0.225015">
        <ele>1144.0</ele>
        <time>2019-07-07T09:55:37.803Z</time>
      </trkpt>
      <trkpt lat="42.96728833" lon="-0.22509833">
        <ele>1144.0</ele>
        <time>2019-07-07T09:55:38.836Z</time>
      </trkpt>
      <trkpt lat="42.96728833" lon="-0.22509833">
        <ele>1144.0</ele>
        <time>2019-07-07T09:55:39.805Z</time>
      </trkpt>
      <trkpt lat="42.96728" lon="-0.22517667">
        <ele>1145.0</ele>
        <time>2019-07-07T09:55:40.817Z</time>
      </trkpt>
      <trkpt lat="42.96727667" lon="-0.22521333">
        <ele>1145.0</ele>
        <time>2019-07-07T09:55:41.802Z</time>
      </trkpt>
      <trkpt lat="42.96727167" lon="-0.225245">
        <ele>1145.0</ele>
        <time>2019-07-07T09:55:42.821Z</time>
      </trkpt>
      <trkpt lat="42.96727167" lon="-0.225245">
        <ele>1145.0</ele>
        <time>2019-07-07T09:55:43.826Z</time>
      </trkpt>
      <trkpt lat="42.96725333" lon="-0.22530833">
        <ele>1146.0</ele>
        <time>2019-07-07T09:55:44.803Z</time>
      </trkpt>
      <trkpt lat="42.96725333" lon="-0.22530833">
        <ele>1146.0</ele>
        <time>2019-07-07T09:55:45.809Z</time>
      </trkpt>
      <trkpt lat="42.96723667" lon="-0.22538333">
        <ele>1147.0</ele>
        <time>2019-07-07T09:55:46.823Z</time>
      </trkpt>
      <trkpt lat="42.96723167" lon="-0.22542167">
        <ele>1148.0</ele>
        <time>2019-07-07T09:55:47.827Z</time>
      </trkpt>
      <trkpt lat="42.96723167" lon="-0.22542167">
        <ele>1148.0</ele>
        <time>2019-07-07T09:55:48.836Z</time>
      </trkpt>
      <trkpt lat="42.96722333" lon="-0.22548667">
        <ele>1149.0</ele>
        <time>2019-07-07T09:55:49.834Z</time>
      </trkpt>
      <trkpt lat="42.96722333" lon="-0.22548667">
        <ele>1149.0</ele>
        <time>2019-07-07T09:55:50.841Z</time>
      </trkpt>
      <trkpt lat="42.96721167" lon="-0.22554833">
        <ele>1149.0</ele>
        <time>2019-07-07T09:55:51.833Z</time>
      </trkpt>
      <trkpt lat="42.967205" lon="-0.22557833">
        <ele>1150.0</ele>
        <time>2019-07-07T09:55:52.814Z</time>
      </trkpt>
      <trkpt lat="42.967205" lon="-0.22557833">
        <ele>1150.0</ele>
        <time>2019-07-07T09:55:53.819Z</time>
      </trkpt>
      <trkpt lat="42.96718667" lon="-0.22564167">
        <ele>1150.0</ele>
        <time>2019-07-07T09:55:54.833Z</time>
      </trkpt>
      <trkpt lat="42.96718667" lon="-0.22564167">
        <ele>1150.0</ele>
        <time>2019-07-07T09:55:55.840Z</time>
      </trkpt>
      <trkpt lat="42.967175" lon="-0.22570667">
        <ele>1150.0</ele>
        <time>2019-07-07T09:55:56.835Z</time>
      </trkpt>
      <trkpt lat="42.967175" lon="-0.22570667">
        <ele>1150.0</ele>
        <time>2019-07-07T09:55:57.802Z</time>
      </trkpt>
      <trkpt lat="42.967165" lon="-0.22576333">
        <ele>1150.0</ele>
        <time>2019-07-07T09:55:58.821Z</time>
      </trkpt>
      <trkpt lat="42.96716" lon="-0.225795">
        <ele>1150.0</ele>
        <time>2019-07-07T09:55:59.819Z</time>
      </trkpt>
      <trkpt lat="42.96716" lon="-0.225795">
        <ele>1150.0</ele>
        <time>2019-07-07T09:56:00.825Z</time>
      </trkpt>
      <trkpt lat="42.96715833" lon="-0.22587">
        <ele>1151.0</ele>
        <time>2019-07-07T09:56:01.839Z</time>
      </trkpt>
      <trkpt lat="42.967155" lon="-0.22590167">
        <ele>1151.0</ele>
        <time>2019-07-07T09:56:02.813Z</time>
      </trkpt>
      <trkpt lat="42.967155" lon="-0.22590167">
        <ele>1151.0</ele>
        <time>2019-07-07T09:56:03.819Z</time>
      </trkpt>
      <trkpt lat="42.96714833" lon="-0.22597167">
        <ele>1152.0</ele>
        <time>2019-07-07T09:56:04.834Z</time>
      </trkpt>
      <trkpt lat="42.96714333" lon="-0.22600833">
        <ele>1152.0</ele>
        <time>2019-07-07T09:56:05.824Z</time>
      </trkpt>
      <trkpt lat="42.96714333" lon="-0.22600833">
        <ele>1152.0</ele>
        <time>2019-07-07T09:56:06.833Z</time>
      </trkpt>
      <trkpt lat="42.96712333" lon="-0.22607333">
        <ele>1153.0</ele>
        <time>2019-07-07T09:56:07.821Z</time>
      </trkpt>
      <trkpt lat="42.96712333" lon="-0.22607333">
        <ele>1153.0</ele>
        <time>2019-07-07T09:56:08.827Z</time>
      </trkpt>
      <trkpt lat="42.96711167" lon="-0.22613333">
        <ele>1154.0</ele>
        <time>2019-07-07T09:56:09.813Z</time>
      </trkpt>
      <trkpt lat="42.96711167" lon="-0.22613333">
        <ele>1154.0</ele>
        <time>2019-07-07T09:56:10.818Z</time>
      </trkpt>
      <trkpt lat="42.96710833" lon="-0.226195">
        <ele>1154.0</ele>
        <time>2019-07-07T09:56:11.832Z</time>
      </trkpt>
      <trkpt lat="42.96710333" lon="-0.22622833">
        <ele>1155.0</ele>
        <time>2019-07-07T09:56:12.823Z</time>
      </trkpt>
      <trkpt lat="42.96710333" lon="-0.22622833">
        <ele>1155.0</ele>
        <time>2019-07-07T09:56:13.829Z</time>
      </trkpt>
      <trkpt lat="42.96709833" lon="-0.2263">
        <ele>1155.0</ele>
        <time>2019-07-07T09:56:14.808Z</time>
      </trkpt>
      <trkpt lat="42.96709833" lon="-0.2263">
        <ele>1155.0</ele>
        <time>2019-07-07T09:56:15.814Z</time>
      </trkpt>
      <trkpt lat="42.96709" lon="-0.22637833">
        <ele>1156.0</ele>
        <time>2019-07-07T09:56:16.824Z</time>
      </trkpt>
      <trkpt lat="42.96708833" lon="-0.22641667">
        <ele>1156.0</ele>
        <time>2019-07-07T09:56:17.830Z</time>
      </trkpt>
      <trkpt lat="42.96708833" lon="-0.22641667">
        <ele>1156.0</ele>
        <time>2019-07-07T09:56:18.813Z</time>
      </trkpt>
      <trkpt lat="42.967095" lon="-0.226495">
        <ele>1157.0</ele>
        <time>2019-07-07T09:56:19.810Z</time>
      </trkpt>
      <trkpt lat="42.967095" lon="-0.226495">
        <ele>1157.0</ele>
        <time>2019-07-07T09:56:20.816Z</time>
      </trkpt>
      <trkpt lat="42.96709833" lon="-0.22656833">
        <ele>1158.0</ele>
        <time>2019-07-07T09:56:21.824Z</time>
      </trkpt>
      <trkpt lat="42.96710167" lon="-0.22660167">
        <ele>1158.0</ele>
        <time>2019-07-07T09:56:22.823Z</time>
      </trkpt>
      <trkpt lat="42.96710167" lon="-0.22660167">
        <ele>1158.0</ele>
        <time>2019-07-07T09:56:23.829Z</time>
      </trkpt>
      <trkpt lat="42.96711" lon="-0.22666833">
        <ele>1158.0</ele>
        <time>2019-07-07T09:56:24.809Z</time>
      </trkpt>
      <trkpt lat="42.96711" lon="-0.22666833">
        <ele>1158.0</ele>
        <time>2019-07-07T09:56:25.814Z</time>
      </trkpt>
      <trkpt lat="42.967125" lon="-0.22673667">
        <ele>1159.0</ele>
        <time>2019-07-07T09:56:26.839Z</time>
      </trkpt>
      <trkpt lat="42.967125" lon="-0.22673667">
        <ele>1159.0</ele>
        <time>2019-07-07T09:56:27.805Z</time>
      </trkpt>
      <trkpt lat="42.96714333" lon="-0.22680667">
        <ele>1159.0</ele>
        <time>2019-07-07T09:56:28.824Z</time>
      </trkpt>
      <trkpt lat="42.96714333" lon="-0.22680667">
        <ele>1159.0</ele>
        <time>2019-07-07T09:56:29.830Z</time>
      </trkpt>
      <trkpt lat="42.96715667" lon="-0.22687667">
        <ele>1159.0</ele>
        <time>2019-07-07T09:56:30.803Z</time>
      </trkpt>
      <trkpt lat="42.96715667" lon="-0.22687667">
        <ele>1159.0</ele>
        <time>2019-07-07T09:56:31.809Z</time>
      </trkpt>
      <trkpt lat="42.96717" lon="-0.22695167">
        <ele>1159.0</ele>
        <time>2019-07-07T09:56:32.831Z</time>
      </trkpt>
      <trkpt lat="42.96717" lon="-0.22695167">
        <ele>1159.0</ele>
        <time>2019-07-07T09:56:33.838Z</time>
      </trkpt>
      <trkpt lat="42.96718" lon="-0.22702167">
        <ele>1160.0</ele>
        <time>2019-07-07T09:56:34.823Z</time>
      </trkpt>
      <trkpt lat="42.96718" lon="-0.22702167">
        <ele>1160.0</ele>
        <time>2019-07-07T09:56:35.829Z</time>
      </trkpt>
      <trkpt lat="42.96718667" lon="-0.22709">
        <ele>1160.0</ele>
        <time>2019-07-07T09:56:36.804Z</time>
      </trkpt>
      <trkpt lat="42.96718667" lon="-0.22709">
        <ele>1160.0</ele>
        <time>2019-07-07T09:56:37.809Z</time>
      </trkpt>
      <trkpt lat="42.96718667" lon="-0.22716">
        <ele>1160.0</ele>
        <time>2019-07-07T09:56:38.823Z</time>
      </trkpt>
      <trkpt lat="42.96718167" lon="-0.22719667">
        <ele>1161.0</ele>
        <time>2019-07-07T09:56:39.833Z</time>
      </trkpt>
      <trkpt lat="42.96718167" lon="-0.22719667">
        <ele>1161.0</ele>
        <time>2019-07-07T09:56:40.839Z</time>
      </trkpt>
      <trkpt lat="42.96717" lon="-0.22727">
        <ele>1161.0</ele>
        <time>2019-07-07T09:56:41.819Z</time>
      </trkpt>
      <trkpt lat="42.96717" lon="-0.22727">
        <ele>1161.0</ele>
        <time>2019-07-07T09:56:42.825Z</time>
      </trkpt>
      <trkpt lat="42.96715" lon="-0.22733333">
        <ele>1161.0</ele>
        <time>2019-07-07T09:56:43.834Z</time>
      </trkpt>
      <trkpt lat="42.96714" lon="-0.227365">
        <ele>1161.0</ele>
        <time>2019-07-07T09:56:44.823Z</time>
      </trkpt>
      <trkpt lat="42.96712833" lon="-0.22739833">
        <ele>1161.0</ele>
        <time>2019-07-07T09:56:45.803Z</time>
      </trkpt>
      <trkpt lat="42.96712833" lon="-0.22739833">
        <ele>1161.0</ele>
        <time>2019-07-07T09:56:46.809Z</time>
      </trkpt>
      <trkpt lat="42.96710167" lon="-0.22746">
        <ele>1162.0</ele>
        <time>2019-07-07T09:56:47.803Z</time>
      </trkpt>
      <trkpt lat="42.96708667" lon="-0.22749">
        <ele>1162.0</ele>
        <time>2019-07-07T09:56:48.805Z</time>
      </trkpt>
      <trkpt lat="42.96708667" lon="-0.22749">
        <ele>1162.0</ele>
        <time>2019-07-07T09:56:49.812Z</time>
      </trkpt>
      <trkpt lat="42.96705167" lon="-0.22754167">
        <ele>1163.0</ele>
        <time>2019-07-07T09:56:50.815Z</time>
      </trkpt>
      <trkpt lat="42.96703167" lon="-0.22756">
        <ele>1163.0</ele>
        <time>2019-07-07T09:56:51.825Z</time>
      </trkpt>
      <trkpt lat="42.96703167" lon="-0.22756">
        <ele>1163.0</ele>
        <time>2019-07-07T09:56:52.830Z</time>
      </trkpt>
      <trkpt lat="42.96699333" lon="-0.2276">
        <ele>1164.0</ele>
        <time>2019-07-07T09:56:53.804Z</time>
      </trkpt>
      <trkpt lat="42.96697167" lon="-0.22761833">
        <ele>1164.0</ele>
        <time>2019-07-07T09:56:54.823Z</time>
      </trkpt>
      <trkpt lat="42.96697167" lon="-0.22761833">
        <ele>1164.0</ele>
        <time>2019-07-07T09:56:55.829Z</time>
      </trkpt>
      <trkpt lat="42.966935" lon="-0.22766167">
        <ele>1165.0</ele>
        <time>2019-07-07T09:56:56.833Z</time>
      </trkpt>
      <trkpt lat="42.966935" lon="-0.22766167">
        <ele>1165.0</ele>
        <time>2019-07-07T09:56:57.839Z</time>
      </trkpt>
      <trkpt lat="42.96690167" lon="-0.22770667">
        <ele>1165.0</ele>
        <time>2019-07-07T09:56:58.840Z</time>
      </trkpt>
      <trkpt lat="42.966885" lon="-0.22773">
        <ele>1166.0</ele>
        <time>2019-07-07T09:56:59.835Z</time>
      </trkpt>
      <trkpt lat="42.966885" lon="-0.22773">
        <ele>1166.0</ele>
        <time>2019-07-07T09:57:00.802Z</time>
      </trkpt>
      <trkpt lat="42.96684667" lon="-0.22776333">
        <ele>1166.0</ele>
        <time>2019-07-07T09:57:01.834Z</time>
      </trkpt>
      <trkpt lat="42.96684667" lon="-0.22776333">
        <ele>1166.0</ele>
        <time>2019-07-07T09:57:02.801Z</time>
      </trkpt>
      <trkpt lat="42.96680333" lon="-0.2278">
        <ele>1167.0</ele>
        <time>2019-07-07T09:57:03.811Z</time>
      </trkpt>
      <trkpt lat="42.96680333" lon="-0.2278">
        <ele>1167.0</ele>
        <time>2019-07-07T09:57:04.816Z</time>
      </trkpt>
      <trkpt lat="42.96676" lon="-0.22784">
        <ele>1168.0</ele>
        <time>2019-07-07T09:57:05.807Z</time>
      </trkpt>
      <trkpt lat="42.96674" lon="-0.22786">
        <ele>1168.0</ele>
        <time>2019-07-07T09:57:06.824Z</time>
      </trkpt>
      <trkpt lat="42.96674" lon="-0.22786">
        <ele>1168.0</ele>
        <time>2019-07-07T09:57:07.829Z</time>
      </trkpt>
      <trkpt lat="42.966695" lon="-0.22789167">
        <ele>1169.0</ele>
        <time>2019-07-07T09:57:08.807Z</time>
      </trkpt>
      <trkpt lat="42.966695" lon="-0.22789167">
        <ele>1169.0</ele>
        <time>2019-07-07T09:57:09.814Z</time>
      </trkpt>
      <trkpt lat="42.96664667" lon="-0.22791">
        <ele>1170.0</ele>
        <time>2019-07-07T09:57:10.835Z</time>
      </trkpt>
      <trkpt lat="42.96664667" lon="-0.22791">
        <ele>1170.0</ele>
        <time>2019-07-07T09:57:11.803Z</time>
      </trkpt>
      <trkpt lat="42.96659667" lon="-0.22792167">
        <ele>1170.0</ele>
        <time>2019-07-07T09:57:12.828Z</time>
      </trkpt>
      <trkpt lat="42.96659667" lon="-0.22792167">
        <ele>1170.0</ele>
        <time>2019-07-07T09:57:13.834Z</time>
      </trkpt>
      <trkpt lat="42.96654667" lon="-0.22792333">
        <ele>1171.0</ele>
        <time>2019-07-07T09:57:14.822Z</time>
      </trkpt>
      <trkpt lat="42.96654667" lon="-0.22792333">
        <ele>1171.0</ele>
        <time>2019-07-07T09:57:15.828Z</time>
      </trkpt>
      <trkpt lat="42.96649667" lon="-0.22792167">
        <ele>1172.0</ele>
        <time>2019-07-07T09:57:16.821Z</time>
      </trkpt>
      <trkpt lat="42.96649667" lon="-0.22792167">
        <ele>1172.0</ele>
        <time>2019-07-07T09:57:17.827Z</time>
      </trkpt>
      <trkpt lat="42.96644833" lon="-0.22790167">
        <ele>1173.0</ele>
        <time>2019-07-07T09:57:18.803Z</time>
      </trkpt>
      <trkpt lat="42.96644833" lon="-0.22790167">
        <ele>1173.0</ele>
        <time>2019-07-07T09:57:19.811Z</time>
      </trkpt>
      <trkpt lat="42.9664" lon="-0.22787833">
        <ele>1174.0</ele>
        <time>2019-07-07T09:57:20.825Z</time>
      </trkpt>
      <trkpt lat="42.9664" lon="-0.22787833">
        <ele>1174.0</ele>
        <time>2019-07-07T09:57:21.830Z</time>
      </trkpt>
      <trkpt lat="42.96635667" lon="-0.22785">
        <ele>1175.0</ele>
        <time>2019-07-07T09:57:22.824Z</time>
      </trkpt>
      <trkpt lat="42.96633333" lon="-0.227835">
        <ele>1176.0</ele>
        <time>2019-07-07T09:57:23.810Z</time>
      </trkpt>
      <trkpt lat="42.96633333" lon="-0.227835">
        <ele>1176.0</ele>
        <time>2019-07-07T09:57:24.816Z</time>
      </trkpt>
      <trkpt lat="42.96628167" lon="-0.22780333">
        <ele>1176.0</ele>
        <time>2019-07-07T09:57:25.813Z</time>
      </trkpt>
      <trkpt lat="42.96628167" lon="-0.22780333">
        <ele>1176.0</ele>
        <time>2019-07-07T09:57:26.819Z</time>
      </trkpt>
      <trkpt lat="42.96623667" lon="-0.22776167">
        <ele>1176.0</ele>
        <time>2019-07-07T09:57:27.832Z</time>
      </trkpt>
      <trkpt lat="42.96623667" lon="-0.22776167">
        <ele>1176.0</ele>
        <time>2019-07-07T09:57:28.839Z</time>
      </trkpt>
      <trkpt lat="42.96619667" lon="-0.22772167">
        <ele>1177.0</ele>
        <time>2019-07-07T09:57:29.838Z</time>
      </trkpt>
      <trkpt lat="42.96619667" lon="-0.22772167">
        <ele>1177.0</ele>
        <time>2019-07-07T09:57:30.808Z</time>
      </trkpt>
      <trkpt lat="42.96615" lon="-0.22767667">
        <ele>1177.0</ele>
        <time>2019-07-07T09:57:31.822Z</time>
      </trkpt>
      <trkpt lat="42.96612833" lon="-0.22765333">
        <ele>1177.0</ele>
        <time>2019-07-07T09:57:32.803Z</time>
      </trkpt>
      <trkpt lat="42.96612833" lon="-0.22765333">
        <ele>1177.0</ele>
        <time>2019-07-07T09:57:33.809Z</time>
      </trkpt>
      <trkpt lat="42.96608" lon="-0.22762">
        <ele>1177.0</ele>
        <time>2019-07-07T09:57:34.834Z</time>
      </trkpt>
      <trkpt lat="42.96605667" lon="-0.22760667">
        <ele>1177.0</ele>
        <time>2019-07-07T09:57:35.823Z</time>
      </trkpt>
      <trkpt lat="42.966035" lon="-0.22759167">
        <ele>1177.0</ele>
        <time>2019-07-07T09:57:36.807Z</time>
      </trkpt>
      <trkpt lat="42.966035" lon="-0.22759167">
        <ele>1177.0</ele>
        <time>2019-07-07T09:57:37.812Z</time>
      </trkpt>
      <trkpt lat="42.96599167" lon="-0.22756167">
        <ele>1177.0</ele>
        <time>2019-07-07T09:57:38.833Z</time>
      </trkpt>
      <trkpt lat="42.96596833" lon="-0.22755167">
        <ele>1177.0</ele>
        <time>2019-07-07T09:57:39.813Z</time>
      </trkpt>
      <trkpt lat="42.96596833" lon="-0.22755167">
        <ele>1177.0</ele>
        <time>2019-07-07T09:57:40.819Z</time>
      </trkpt>
      <trkpt lat="42.965915" lon="-0.227545">
        <ele>1177.0</ele>
        <time>2019-07-07T09:57:41.820Z</time>
      </trkpt>
      <trkpt lat="42.96588667" lon="-0.227545">
        <ele>1177.0</ele>
        <time>2019-07-07T09:57:42.832Z</time>
      </trkpt>
      <trkpt lat="42.96588667" lon="-0.227545">
        <ele>1177.0</ele>
        <time>2019-07-07T09:57:43.837Z</time>
      </trkpt>
      <trkpt lat="42.96583333" lon="-0.22754333">
        <ele>1177.0</ele>
        <time>2019-07-07T09:57:44.811Z</time>
      </trkpt>
      <trkpt lat="42.96583333" lon="-0.22754333">
        <ele>1177.0</ele>
        <time>2019-07-07T09:57:45.817Z</time>
      </trkpt>
      <trkpt lat="42.96578" lon="-0.22755">
        <ele>1178.0</ele>
        <time>2019-07-07T09:57:46.833Z</time>
      </trkpt>
      <trkpt lat="42.96578" lon="-0.22755">
        <ele>1178.0</ele>
        <time>2019-07-07T09:57:47.836Z</time>
      </trkpt>
      <trkpt lat="42.96572667" lon="-0.227565">
        <ele>1178.0</ele>
        <time>2019-07-07T09:57:48.817Z</time>
      </trkpt>
      <trkpt lat="42.96572667" lon="-0.227565">
        <ele>1178.0</ele>
        <time>2019-07-07T09:57:49.822Z</time>
      </trkpt>
      <trkpt lat="42.96567667" lon="-0.22758167">
        <ele>1178.0</ele>
        <time>2019-07-07T09:57:50.808Z</time>
      </trkpt>
      <trkpt lat="42.96565333" lon="-0.22759667">
        <ele>1178.0</ele>
        <time>2019-07-07T09:57:51.841Z</time>
      </trkpt>
      <trkpt lat="42.96565333" lon="-0.22759667">
        <ele>1178.0</ele>
        <time>2019-07-07T09:57:52.807Z</time>
      </trkpt>
      <trkpt lat="42.96560667" lon="-0.22763">
        <ele>1179.0</ele>
        <time>2019-07-07T09:57:53.803Z</time>
      </trkpt>
      <trkpt lat="42.96558333" lon="-0.22764833">
        <ele>1179.0</ele>
        <time>2019-07-07T09:57:54.812Z</time>
      </trkpt>
      <trkpt lat="42.96556167" lon="-0.22766833">
        <ele>1179.0</ele>
        <time>2019-07-07T09:57:55.803Z</time>
      </trkpt>
      <trkpt lat="42.96556167" lon="-0.22766833">
        <ele>1179.0</ele>
        <time>2019-07-07T09:57:56.809Z</time>
      </trkpt>
      <trkpt lat="42.96551667" lon="-0.22771667">
        <ele>1180.0</ele>
        <time>2019-07-07T09:57:57.818Z</time>
      </trkpt>
      <trkpt lat="42.96551667" lon="-0.22771667">
        <ele>1180.0</ele>
        <time>2019-07-07T09:57:58.824Z</time>
      </trkpt>
      <trkpt lat="42.96547833" lon="-0.227785">
        <ele>1180.0</ele>
        <time>2019-07-07T09:57:59.814Z</time>
      </trkpt>
      <trkpt lat="42.96547833" lon="-0.227785">
        <ele>1180.0</ele>
        <time>2019-07-07T09:58:00.820Z</time>
      </trkpt>
      <trkpt lat="42.96545" lon="-0.227845">
        <ele>1181.0</ele>
        <time>2019-07-07T09:58:01.804Z</time>
      </trkpt>
      <trkpt lat="42.96545" lon="-0.227845">
        <ele>1181.0</ele>
        <time>2019-07-07T09:58:02.809Z</time>
      </trkpt>
      <trkpt lat="42.965425" lon="-0.22790333">
        <ele>1181.0</ele>
        <time>2019-07-07T09:58:03.813Z</time>
      </trkpt>
      <trkpt lat="42.965425" lon="-0.22790333">
        <ele>1181.0</ele>
        <time>2019-07-07T09:58:04.818Z</time>
      </trkpt>
      <trkpt lat="42.9654" lon="-0.22796167">
        <ele>1182.0</ele>
        <time>2019-07-07T09:58:05.824Z</time>
      </trkpt>
      <trkpt lat="42.96538833" lon="-0.22799333">
        <ele>1183.0</ele>
        <time>2019-07-07T09:58:06.803Z</time>
      </trkpt>
      <trkpt lat="42.96538833" lon="-0.22799333">
        <ele>1183.0</ele>
        <time>2019-07-07T09:58:07.808Z</time>
      </trkpt>
      <trkpt lat="42.96536833" lon="-0.228065">
        <ele>1183.0</ele>
        <time>2019-07-07T09:58:08.834Z</time>
      </trkpt>
      <trkpt lat="42.96536167" lon="-0.22809667">
        <ele>1183.0</ele>
        <time>2019-07-07T09:58:09.832Z</time>
      </trkpt>
      <trkpt lat="42.96535" lon="-0.22812833">
        <ele>1184.0</ele>
        <time>2019-07-07T09:58:10.803Z</time>
      </trkpt>
      <trkpt lat="42.96535" lon="-0.22812833">
        <ele>1184.0</ele>
        <time>2019-07-07T09:58:11.809Z</time>
      </trkpt>
      <trkpt lat="42.96532667" lon="-0.22818833">
        <ele>1184.0</ele>
        <time>2019-07-07T09:58:12.819Z</time>
      </trkpt>
      <trkpt lat="42.96532667" lon="-0.22818833">
        <ele>1184.0</ele>
        <time>2019-07-07T09:58:13.825Z</time>
      </trkpt>
      <trkpt lat="42.96530333" lon="-0.22825">
        <ele>1185.0</ele>
        <time>2019-07-07T09:58:14.836Z</time>
      </trkpt>
      <trkpt lat="42.96529167" lon="-0.22828333">
        <ele>1185.0</ele>
        <time>2019-07-07T09:58:15.813Z</time>
      </trkpt>
      <trkpt lat="42.96529167" lon="-0.22828333">
        <ele>1185.0</ele>
        <time>2019-07-07T09:58:16.818Z</time>
      </trkpt>
      <trkpt lat="42.96527167" lon="-0.22835333">
        <ele>1185.0</ele>
        <time>2019-07-07T09:58:17.834Z</time>
      </trkpt>
      <trkpt lat="42.96526167" lon="-0.22838667">
        <ele>1185.0</ele>
        <time>2019-07-07T09:58:18.813Z</time>
      </trkpt>
      <trkpt lat="42.96526167" lon="-0.22838667">
        <ele>1185.0</ele>
        <time>2019-07-07T09:58:19.819Z</time>
      </trkpt>
      <trkpt lat="42.96524167" lon="-0.228455">
        <ele>1185.0</ele>
        <time>2019-07-07T09:58:20.802Z</time>
      </trkpt>
      <trkpt lat="42.96523333" lon="-0.22848667">
        <ele>1185.0</ele>
        <time>2019-07-07T09:58:21.816Z</time>
      </trkpt>
      <trkpt lat="42.96523333" lon="-0.22848667">
        <ele>1185.0</ele>
        <time>2019-07-07T09:58:22.821Z</time>
      </trkpt>
      <trkpt lat="42.96521833" lon="-0.228555">
        <ele>1186.0</ele>
        <time>2019-07-07T09:58:23.823Z</time>
      </trkpt>
      <trkpt lat="42.96520833" lon="-0.22858667">
        <ele>1186.0</ele>
        <time>2019-07-07T09:58:24.836Z</time>
      </trkpt>
      <trkpt lat="42.96520833" lon="-0.22858667">
        <ele>1186.0</ele>
        <time>2019-07-07T09:58:25.801Z</time>
      </trkpt>
      <trkpt lat="42.96519" lon="-0.228645">
        <ele>1186.0</ele>
        <time>2019-07-07T09:58:26.834Z</time>
      </trkpt>
      <trkpt lat="42.96518" lon="-0.22867667">
        <ele>1186.0</ele>
        <time>2019-07-07T09:58:27.813Z</time>
      </trkpt>
      <trkpt lat="42.96518" lon="-0.22867667">
        <ele>1186.0</ele>
        <time>2019-07-07T09:58:28.819Z</time>
      </trkpt>
      <trkpt lat="42.96515833" lon="-0.22873833">
        <ele>1186.0</ele>
        <time>2019-07-07T09:58:29.803Z</time>
      </trkpt>
      <trkpt lat="42.96514833" lon="-0.22876333">
        <ele>1187.0</ele>
        <time>2019-07-07T09:58:30.839Z</time>
      </trkpt>
      <trkpt lat="42.96514833" lon="-0.22876333">
        <ele>1187.0</ele>
        <time>2019-07-07T09:58:31.805Z</time>
      </trkpt>
      <trkpt lat="42.96513167" lon="-0.228825">
        <ele>1187.0</ele>
        <time>2019-07-07T09:58:32.822Z</time>
      </trkpt>
      <trkpt lat="42.96513167" lon="-0.228825">
        <ele>1187.0</ele>
        <time>2019-07-07T09:58:33.828Z</time>
      </trkpt>
      <trkpt lat="42.96511833" lon="-0.22888333">
        <ele>1188.0</ele>
        <time>2019-07-07T09:58:34.814Z</time>
      </trkpt>
      <trkpt lat="42.96511833" lon="-0.22888333">
        <ele>1188.0</ele>
        <time>2019-07-07T09:58:35.820Z</time>
      </trkpt>
      <trkpt lat="42.96510333" lon="-0.228945">
        <ele>1188.0</ele>
        <time>2019-07-07T09:58:36.833Z</time>
      </trkpt>
      <trkpt lat="42.96510333" lon="-0.228945">
        <ele>1188.0</ele>
        <time>2019-07-07T09:58:37.839Z</time>
      </trkpt>
      <trkpt lat="42.96508167" lon="-0.22900667">
        <ele>1188.0</ele>
        <time>2019-07-07T09:58:38.836Z</time>
      </trkpt>
      <trkpt lat="42.96507167" lon="-0.22904">
        <ele>1188.0</ele>
        <time>2019-07-07T09:58:39.801Z</time>
      </trkpt>
      <trkpt lat="42.96507167" lon="-0.22904">
        <ele>1188.0</ele>
        <time>2019-07-07T09:58:40.808Z</time>
      </trkpt>
      <trkpt lat="42.96505333" lon="-0.22910667">
        <ele>1189.0</ele>
        <time>2019-07-07T09:58:41.803Z</time>
      </trkpt>
      <trkpt lat="42.96504167" lon="-0.22913833">
        <ele>1189.0</ele>
        <time>2019-07-07T09:58:42.832Z</time>
      </trkpt>
      <trkpt lat="42.96504167" lon="-0.22913833">
        <ele>1189.0</ele>
        <time>2019-07-07T09:58:43.837Z</time>
      </trkpt>
      <trkpt lat="42.96502" lon="-0.2292">
        <ele>1189.0</ele>
        <time>2019-07-07T09:58:44.816Z</time>
      </trkpt>
      <trkpt lat="42.96502" lon="-0.2292">
        <ele>1189.0</ele>
        <time>2019-07-07T09:58:45.821Z</time>
      </trkpt>
      <trkpt lat="42.96499167" lon="-0.22925833">
        <ele>1191.0</ele>
        <time>2019-07-07T09:58:46.839Z</time>
      </trkpt>
      <trkpt lat="42.96499167" lon="-0.22925833">
        <ele>1191.0</ele>
        <time>2019-07-07T09:58:47.834Z</time>
      </trkpt>
      <trkpt lat="42.964965" lon="-0.22931667">
        <ele>1191.0</ele>
        <time>2019-07-07T09:58:48.837Z</time>
      </trkpt>
      <trkpt lat="42.964965" lon="-0.22931667">
        <ele>1191.0</ele>
        <time>2019-07-07T09:58:49.805Z</time>
      </trkpt>
      <trkpt lat="42.96493333" lon="-0.22937">
        <ele>1192.0</ele>
        <time>2019-07-07T09:58:50.829Z</time>
      </trkpt>
      <trkpt lat="42.96491833" lon="-0.229395">
        <ele>1192.0</ele>
        <time>2019-07-07T09:58:51.809Z</time>
      </trkpt>
      <trkpt lat="42.96491833" lon="-0.229395">
        <ele>1192.0</ele>
        <time>2019-07-07T09:58:52.815Z</time>
      </trkpt>
      <trkpt lat="42.96488167" lon="-0.22944833">
        <ele>1193.0</ele>
        <time>2019-07-07T09:58:53.824Z</time>
      </trkpt>
      <trkpt lat="42.96486167" lon="-0.22947333">
        <ele>1193.0</ele>
        <time>2019-07-07T09:58:54.811Z</time>
      </trkpt>
      <trkpt lat="42.96486167" lon="-0.22947333">
        <ele>1193.0</ele>
        <time>2019-07-07T09:58:55.817Z</time>
      </trkpt>
      <trkpt lat="42.96482" lon="-0.22952167">
        <ele>1193.0</ele>
        <time>2019-07-07T09:58:56.823Z</time>
      </trkpt>
      <trkpt lat="42.96482" lon="-0.22952167">
        <ele>1193.0</ele>
        <time>2019-07-07T09:58:57.829Z</time>
      </trkpt>
      <trkpt lat="42.96477833" lon="-0.22956">
        <ele>1193.0</ele>
        <time>2019-07-07T09:58:58.834Z</time>
      </trkpt>
      <trkpt lat="42.96476" lon="-0.22957833">
        <ele>1194.0</ele>
        <time>2019-07-07T09:58:59.822Z</time>
      </trkpt>
      <trkpt lat="42.96476" lon="-0.22957833">
        <ele>1194.0</ele>
        <time>2019-07-07T09:59:00.827Z</time>
      </trkpt>
      <trkpt lat="42.96472" lon="-0.22960833">
        <ele>1194.0</ele>
        <time>2019-07-07T09:59:01.812Z</time>
      </trkpt>
      <trkpt lat="42.96472" lon="-0.22960833">
        <ele>1194.0</ele>
        <time>2019-07-07T09:59:02.818Z</time>
      </trkpt>
      <trkpt lat="42.96468" lon="-0.22963667">
        <ele>1195.0</ele>
        <time>2019-07-07T09:59:03.833Z</time>
      </trkpt>
      <trkpt lat="42.96468" lon="-0.22963667">
        <ele>1195.0</ele>
        <time>2019-07-07T09:59:04.838Z</time>
      </trkpt>
      <trkpt lat="42.96464" lon="-0.22967">
        <ele>1195.0</ele>
        <time>2019-07-07T09:59:05.839Z</time>
      </trkpt>
      <trkpt lat="42.96464" lon="-0.22967">
        <ele>1195.0</ele>
        <time>2019-07-07T09:59:06.806Z</time>
      </trkpt>
      <trkpt lat="42.9646" lon="-0.229705">
        <ele>1196.0</ele>
        <time>2019-07-07T09:59:07.824Z</time>
      </trkpt>
      <trkpt lat="42.9646" lon="-0.229705">
        <ele>1196.0</ele>
        <time>2019-07-07T09:59:08.830Z</time>
      </trkpt>
      <trkpt lat="42.96456167" lon="-0.229745">
        <ele>1197.0</ele>
        <time>2019-07-07T09:59:09.804Z</time>
      </trkpt>
      <trkpt lat="42.96454167" lon="-0.22976167">
        <ele>1197.0</ele>
        <time>2019-07-07T09:59:10.833Z</time>
      </trkpt>
      <trkpt lat="42.96452333" lon="-0.22978">
        <ele>1197.0</ele>
        <time>2019-07-07T09:59:11.837Z</time>
      </trkpt>
      <trkpt lat="42.96452333" lon="-0.22978">
        <ele>1197.0</ele>
        <time>2019-07-07T09:59:12.802Z</time>
      </trkpt>
      <trkpt lat="42.96448333" lon="-0.22982">
        <ele>1197.0</ele>
        <time>2019-07-07T09:59:13.814Z</time>
      </trkpt>
      <trkpt lat="42.96448333" lon="-0.22982">
        <ele>1197.0</ele>
        <time>2019-07-07T09:59:14.819Z</time>
      </trkpt>
      <trkpt lat="42.96444333" lon="-0.22986167">
        <ele>1198.0</ele>
        <time>2019-07-07T09:59:15.839Z</time>
      </trkpt>
      <trkpt lat="42.96444333" lon="-0.22986167">
        <ele>1198.0</ele>
        <time>2019-07-07T09:59:16.807Z</time>
      </trkpt>
      <trkpt lat="42.964405" lon="-0.22991167">
        <ele>1198.0</ele>
        <time>2019-07-07T09:59:17.839Z</time>
      </trkpt>
      <trkpt lat="42.964405" lon="-0.22991167">
        <ele>1198.0</ele>
        <time>2019-07-07T09:59:18.806Z</time>
      </trkpt>
      <trkpt lat="42.96437" lon="-0.22996167">
        <ele>1199.0</ele>
        <time>2019-07-07T09:59:19.831Z</time>
      </trkpt>
      <trkpt lat="42.964355" lon="-0.22998833">
        <ele>1199.0</ele>
        <time>2019-07-07T09:59:20.840Z</time>
      </trkpt>
      <trkpt lat="42.96434" lon="-0.23001833">
        <ele>1199.0</ele>
        <time>2019-07-07T09:59:21.833Z</time>
      </trkpt>
      <trkpt lat="42.96434" lon="-0.23001833">
        <ele>1199.0</ele>
        <time>2019-07-07T09:59:22.839Z</time>
      </trkpt>
      <trkpt lat="42.964315" lon="-0.23008">
        <ele>1200.0</ele>
        <time>2019-07-07T09:59:23.813Z</time>
      </trkpt>
      <trkpt lat="42.96430333" lon="-0.23011">
        <ele>1200.0</ele>
        <time>2019-07-07T09:59:24.806Z</time>
      </trkpt>
      <trkpt lat="42.96430333" lon="-0.23011">
        <ele>1200.0</ele>
        <time>2019-07-07T09:59:25.811Z</time>
      </trkpt>
      <trkpt lat="42.964285" lon="-0.23017833">
        <ele>1200.0</ele>
        <time>2019-07-07T09:59:26.819Z</time>
      </trkpt>
      <trkpt lat="42.964275" lon="-0.23021">
        <ele>1200.0</ele>
        <time>2019-07-07T09:59:27.804Z</time>
      </trkpt>
      <trkpt lat="42.964275" lon="-0.23021">
        <ele>1200.0</ele>
        <time>2019-07-07T09:59:28.810Z</time>
      </trkpt>
      <trkpt lat="42.96426" lon="-0.23027833">
        <ele>1201.0</ele>
        <time>2019-07-07T09:59:29.809Z</time>
      </trkpt>
      <trkpt lat="42.96426" lon="-0.23027833">
        <ele>1201.0</ele>
        <time>2019-07-07T09:59:30.814Z</time>
      </trkpt>
      <trkpt lat="42.96424833" lon="-0.230345">
        <ele>1201.0</ele>
        <time>2019-07-07T09:59:31.835Z</time>
      </trkpt>
      <trkpt lat="42.964245" lon="-0.23038">
        <ele>1201.0</ele>
        <time>2019-07-07T09:59:32.823Z</time>
      </trkpt>
      <trkpt lat="42.964245" lon="-0.23038">
        <ele>1201.0</ele>
        <time>2019-07-07T09:59:33.829Z</time>
      </trkpt>
      <trkpt lat="42.96423167" lon="-0.23044833">
        <ele>1201.0</ele>
        <time>2019-07-07T09:59:34.832Z</time>
      </trkpt>
      <trkpt lat="42.964225" lon="-0.23048167">
        <ele>1202.0</ele>
        <time>2019-07-07T09:59:35.823Z</time>
      </trkpt>
      <trkpt lat="42.96422" lon="-0.23051667">
        <ele>1202.0</ele>
        <time>2019-07-07T09:59:36.831Z</time>
      </trkpt>
      <trkpt lat="42.96422" lon="-0.23051667">
        <ele>1202.0</ele>
        <time>2019-07-07T09:59:37.837Z</time>
      </trkpt>
      <trkpt lat="42.96421" lon="-0.23057833">
        <ele>1202.0</ele>
        <time>2019-07-07T09:59:38.821Z</time>
      </trkpt>
      <trkpt lat="42.96421" lon="-0.23057833">
        <ele>1202.0</ele>
        <time>2019-07-07T09:59:39.828Z</time>
      </trkpt>
      <trkpt lat="42.96419" lon="-0.23064333">
        <ele>1202.0</ele>
        <time>2019-07-07T09:59:40.804Z</time>
      </trkpt>
      <trkpt lat="42.96419" lon="-0.23064333">
        <ele>1202.0</ele>
        <time>2019-07-07T09:59:41.810Z</time>
      </trkpt>
      <trkpt lat="42.96416667" lon="-0.23070333">
        <ele>1203.0</ele>
        <time>2019-07-07T09:59:42.823Z</time>
      </trkpt>
      <trkpt lat="42.96416667" lon="-0.23070333">
        <ele>1203.0</ele>
        <time>2019-07-07T09:59:43.829Z</time>
      </trkpt>
      <trkpt lat="42.96414" lon="-0.23076">
        <ele>1203.0</ele>
        <time>2019-07-07T09:59:44.825Z</time>
      </trkpt>
      <trkpt lat="42.96414" lon="-0.23076">
        <ele>1203.0</ele>
        <time>2019-07-07T09:59:45.830Z</time>
      </trkpt>
      <trkpt lat="42.96409833" lon="-0.23080833">
        <ele>1204.0</ele>
        <time>2019-07-07T09:59:46.823Z</time>
      </trkpt>
      <trkpt lat="42.96409833" lon="-0.23080833">
        <ele>1204.0</ele>
        <time>2019-07-07T09:59:47.839Z</time>
      </trkpt>
      <trkpt lat="42.96405667" lon="-0.23084667">
        <ele>1204.0</ele>
        <time>2019-07-07T09:59:48.803Z</time>
      </trkpt>
      <trkpt lat="42.96405667" lon="-0.23084667">
        <ele>1204.0</ele>
        <time>2019-07-07T09:59:49.809Z</time>
      </trkpt>
      <trkpt lat="42.96401333" lon="-0.23087167">
        <ele>1205.0</ele>
        <time>2019-07-07T09:59:50.819Z</time>
      </trkpt>
      <trkpt lat="42.96399" lon="-0.23087833">
        <ele>1205.0</ele>
        <time>2019-07-07T09:59:51.824Z</time>
      </trkpt>
      <trkpt lat="42.96399" lon="-0.23087833">
        <ele>1205.0</ele>
        <time>2019-07-07T09:59:52.829Z</time>
      </trkpt>
      <trkpt lat="42.96393833" lon="-0.23089167">
        <ele>1206.0</ele>
        <time>2019-07-07T09:59:53.833Z</time>
      </trkpt>
      <trkpt lat="42.96393833" lon="-0.23089167">
        <ele>1206.0</ele>
        <time>2019-07-07T09:59:54.839Z</time>
      </trkpt>
      <trkpt lat="42.96388667" lon="-0.23089667">
        <ele>1207.0</ele>
        <time>2019-07-07T09:59:55.814Z</time>
      </trkpt>
      <trkpt lat="42.96388667" lon="-0.23089667">
        <ele>1207.0</ele>
        <time>2019-07-07T09:59:56.820Z</time>
      </trkpt>
      <trkpt lat="42.96383667" lon="-0.230895">
        <ele>1207.0</ele>
        <time>2019-07-07T09:59:57.814Z</time>
      </trkpt>
      <trkpt lat="42.96383667" lon="-0.230895">
        <ele>1207.0</ele>
        <time>2019-07-07T09:59:58.819Z</time>
      </trkpt>
      <trkpt lat="42.96379333" lon="-0.23089167">
        <ele>1208.0</ele>
        <time>2019-07-07T09:59:59.824Z</time>
      </trkpt>
      <trkpt lat="42.96379333" lon="-0.23089167">
        <ele>1208.0</ele>
        <time>2019-07-07T10:00:00.829Z</time>
      </trkpt>
      <trkpt lat="42.963755" lon="-0.23088">
        <ele>1209.0</ele>
        <time>2019-07-07T10:00:01.822Z</time>
      </trkpt>
      <trkpt lat="42.963755" lon="-0.23088">
        <ele>1209.0</ele>
        <time>2019-07-07T10:00:02.828Z</time>
      </trkpt>
      <trkpt lat="42.96371167" lon="-0.23086667">
        <ele>1209.0</ele>
        <time>2019-07-07T10:00:03.814Z</time>
      </trkpt>
      <trkpt lat="42.96371167" lon="-0.23086667">
        <ele>1209.0</ele>
        <time>2019-07-07T10:00:04.819Z</time>
      </trkpt>
      <trkpt lat="42.96367" lon="-0.23087667">
        <ele>1209.0</ele>
        <time>2019-07-07T10:00:05.803Z</time>
      </trkpt>
      <trkpt lat="42.96364667" lon="-0.23088333">
        <ele>1209.0</ele>
        <time>2019-07-07T10:00:06.815Z</time>
      </trkpt>
      <trkpt lat="42.96364667" lon="-0.23088333">
        <ele>1209.0</ele>
        <time>2019-07-07T10:00:07.821Z</time>
      </trkpt>
      <trkpt lat="42.96359667" lon="-0.23089333">
        <ele>1210.0</ele>
        <time>2019-07-07T10:00:08.815Z</time>
      </trkpt>
      <trkpt lat="42.96359667" lon="-0.23089333">
        <ele>1210.0</ele>
        <time>2019-07-07T10:00:09.821Z</time>
      </trkpt>
      <trkpt lat="42.963545" lon="-0.230905">
        <ele>1210.0</ele>
        <time>2019-07-07T10:00:10.803Z</time>
      </trkpt>
      <trkpt lat="42.963545" lon="-0.230905">
        <ele>1210.0</ele>
        <time>2019-07-07T10:00:11.810Z</time>
      </trkpt>
      <trkpt lat="42.963495" lon="-0.23092667">
        <ele>1210.0</ele>
        <time>2019-07-07T10:00:12.803Z</time>
      </trkpt>
      <trkpt lat="42.963495" lon="-0.23092667">
        <ele>1210.0</ele>
        <time>2019-07-07T10:00:13.810Z</time>
      </trkpt>
      <trkpt lat="42.96344667" lon="-0.23095">
        <ele>1210.0</ele>
        <time>2019-07-07T10:00:14.804Z</time>
      </trkpt>
      <trkpt lat="42.96342333" lon="-0.230965">
        <ele>1210.0</ele>
        <time>2019-07-07T10:00:15.801Z</time>
      </trkpt>
      <trkpt lat="42.96342333" lon="-0.230965">
        <ele>1210.0</ele>
        <time>2019-07-07T10:00:16.807Z</time>
      </trkpt>
      <trkpt lat="42.96338333" lon="-0.23100333">
        <ele>1210.0</ele>
        <time>2019-07-07T10:00:17.803Z</time>
      </trkpt>
      <trkpt lat="42.96338333" lon="-0.23100333">
        <ele>1210.0</ele>
        <time>2019-07-07T10:00:18.809Z</time>
      </trkpt>
      <trkpt lat="42.96334333" lon="-0.23105167">
        <ele>1210.0</ele>
        <time>2019-07-07T10:00:19.814Z</time>
      </trkpt>
      <trkpt lat="42.96334333" lon="-0.23105167">
        <ele>1210.0</ele>
        <time>2019-07-07T10:00:20.819Z</time>
      </trkpt>
      <trkpt lat="42.96329833" lon="-0.23109333">
        <ele>1211.0</ele>
        <time>2019-07-07T10:00:21.824Z</time>
      </trkpt>
      <trkpt lat="42.96329833" lon="-0.23109333">
        <ele>1211.0</ele>
        <time>2019-07-07T10:00:22.830Z</time>
      </trkpt>
      <trkpt lat="42.96325333" lon="-0.231135">
        <ele>1212.0</ele>
        <time>2019-07-07T10:00:23.814Z</time>
      </trkpt>
      <trkpt lat="42.96323167" lon="-0.23115333">
        <ele>1212.0</ele>
        <time>2019-07-07T10:00:24.813Z</time>
      </trkpt>
      <trkpt lat="42.96323167" lon="-0.23115333">
        <ele>1212.0</ele>
        <time>2019-07-07T10:00:25.820Z</time>
      </trkpt>
      <trkpt lat="42.96319" lon="-0.23119833">
        <ele>1212.0</ele>
        <time>2019-07-07T10:00:26.807Z</time>
      </trkpt>
      <trkpt lat="42.96316833" lon="-0.23121667">
        <ele>1212.0</ele>
        <time>2019-07-07T10:00:27.813Z</time>
      </trkpt>
      <trkpt lat="42.96316833" lon="-0.23121667">
        <ele>1212.0</ele>
        <time>2019-07-07T10:00:28.820Z</time>
      </trkpt>
      <trkpt lat="42.96312667" lon="-0.231255">
        <ele>1213.0</ele>
        <time>2019-07-07T10:00:29.836Z</time>
      </trkpt>
      <trkpt lat="42.963105" lon="-0.231275">
        <ele>1213.0</ele>
        <time>2019-07-07T10:00:30.823Z</time>
      </trkpt>
      <trkpt lat="42.963085" lon="-0.231295">
        <ele>1213.0</ele>
        <time>2019-07-07T10:00:31.803Z</time>
      </trkpt>
      <trkpt lat="42.963085" lon="-0.231295">
        <ele>1213.0</ele>
        <time>2019-07-07T10:00:32.810Z</time>
      </trkpt>
      <trkpt lat="42.96304667" lon="-0.23133333">
        <ele>1214.0</ele>
        <time>2019-07-07T10:00:33.834Z</time>
      </trkpt>
      <trkpt lat="42.96302667" lon="-0.23135167">
        <ele>1214.0</ele>
        <time>2019-07-07T10:00:34.832Z</time>
      </trkpt>
      <trkpt lat="42.96302667" lon="-0.23135167">
        <ele>1214.0</ele>
        <time>2019-07-07T10:00:35.838Z</time>
      </trkpt>
      <trkpt lat="42.96298333" lon="-0.23138833">
        <ele>1215.0</ele>
        <time>2019-07-07T10:00:36.802Z</time>
      </trkpt>
      <trkpt lat="42.96296333" lon="-0.23141">
        <ele>1215.0</ele>
        <time>2019-07-07T10:00:37.829Z</time>
      </trkpt>
      <trkpt lat="42.96296333" lon="-0.23141">
        <ele>1215.0</ele>
        <time>2019-07-07T10:00:38.835Z</time>
      </trkpt>
      <trkpt lat="42.96292333" lon="-0.23146">
        <ele>1215.0</ele>
        <time>2019-07-07T10:00:39.812Z</time>
      </trkpt>
      <trkpt lat="42.96290667" lon="-0.23148">
        <ele>1215.0</ele>
        <time>2019-07-07T10:00:40.814Z</time>
      </trkpt>
      <trkpt lat="42.96290667" lon="-0.23148">
        <ele>1215.0</ele>
        <time>2019-07-07T10:00:41.819Z</time>
      </trkpt>
      <trkpt lat="42.96286833" lon="-0.23152333">
        <ele>1216.0</ele>
        <time>2019-07-07T10:00:42.803Z</time>
      </trkpt>
      <trkpt lat="42.96286833" lon="-0.23152333">
        <ele>1216.0</ele>
        <time>2019-07-07T10:00:43.810Z</time>
      </trkpt>
      <trkpt lat="42.96283" lon="-0.23157167">
        <ele>1217.0</ele>
        <time>2019-07-07T10:00:44.834Z</time>
      </trkpt>
      <trkpt lat="42.96281333" lon="-0.23160167">
        <ele>1217.0</ele>
        <time>2019-07-07T10:00:45.817Z</time>
      </trkpt>
      <trkpt lat="42.96281333" lon="-0.23160167">
        <ele>1217.0</ele>
        <time>2019-07-07T10:00:46.823Z</time>
      </trkpt>
      <trkpt lat="42.96278" lon="-0.23165833">
        <ele>1217.0</ele>
        <time>2019-07-07T10:00:47.818Z</time>
      </trkpt>
      <trkpt lat="42.96278" lon="-0.23165833">
        <ele>1217.0</ele>
        <time>2019-07-07T10:00:48.804Z</time>
      </trkpt>
      <trkpt lat="42.96274833" lon="-0.23171333">
        <ele>1218.0</ele>
        <time>2019-07-07T10:00:49.837Z</time>
      </trkpt>
      <trkpt lat="42.96274833" lon="-0.23171333">
        <ele>1218.0</ele>
        <time>2019-07-07T10:00:50.804Z</time>
      </trkpt>
      <trkpt lat="42.96272" lon="-0.23177333">
        <ele>1219.0</ele>
        <time>2019-07-07T10:00:51.824Z</time>
      </trkpt>
      <trkpt lat="42.962705" lon="-0.23180167">
        <ele>1220.0</ele>
        <time>2019-07-07T10:00:52.833Z</time>
      </trkpt>
      <trkpt lat="42.962705" lon="-0.23180167">
        <ele>1220.0</ele>
        <time>2019-07-07T10:00:53.840Z</time>
      </trkpt>
      <trkpt lat="42.96268167" lon="-0.23186667">
        <ele>1220.0</ele>
        <time>2019-07-07T10:00:54.817Z</time>
      </trkpt>
      <trkpt lat="42.96267" lon="-0.23190167">
        <ele>1221.0</ele>
        <time>2019-07-07T10:00:55.833Z</time>
      </trkpt>
      <trkpt lat="42.96267" lon="-0.23190167">
        <ele>1221.0</ele>
        <time>2019-07-07T10:00:56.839Z</time>
      </trkpt>
      <trkpt lat="42.96265333" lon="-0.23196833">
        <ele>1221.0</ele>
        <time>2019-07-07T10:00:57.810Z</time>
      </trkpt>
      <trkpt lat="42.96265333" lon="-0.23196833">
        <ele>1221.0</ele>
        <time>2019-07-07T10:00:58.815Z</time>
      </trkpt>
      <trkpt lat="42.96263333" lon="-0.23203">
        <ele>1221.0</ele>
        <time>2019-07-07T10:00:59.814Z</time>
      </trkpt>
      <trkpt lat="42.96262333" lon="-0.23206167">
        <ele>1222.0</ele>
        <time>2019-07-07T10:01:00.810Z</time>
      </trkpt>
      <trkpt lat="42.96262333" lon="-0.23206167">
        <ele>1222.0</ele>
        <time>2019-07-07T10:01:01.822Z</time>
      </trkpt>
      <trkpt lat="42.962605" lon="-0.232125">
        <ele>1222.0</ele>
        <time>2019-07-07T10:01:02.803Z</time>
      </trkpt>
      <trkpt lat="42.962605" lon="-0.232125">
        <ele>1222.0</ele>
        <time>2019-07-07T10:01:03.809Z</time>
      </trkpt>
      <trkpt lat="42.96259" lon="-0.23218833">
        <ele>1222.0</ele>
        <time>2019-07-07T10:01:04.814Z</time>
      </trkpt>
      <trkpt lat="42.96258167" lon="-0.23222">
        <ele>1222.0</ele>
        <time>2019-07-07T10:01:05.833Z</time>
      </trkpt>
      <trkpt lat="42.96258167" lon="-0.23222">
        <ele>1222.0</ele>
        <time>2019-07-07T10:01:06.839Z</time>
      </trkpt>
      <trkpt lat="42.96256833" lon="-0.23228333">
        <ele>1222.0</ele>
        <time>2019-07-07T10:01:07.823Z</time>
      </trkpt>
      <trkpt lat="42.96256833" lon="-0.23228333">
        <ele>1222.0</ele>
        <time>2019-07-07T10:01:08.829Z</time>
      </trkpt>
      <trkpt lat="42.96255" lon="-0.23234833">
        <ele>1223.0</ele>
        <time>2019-07-07T10:01:09.823Z</time>
      </trkpt>
      <trkpt lat="42.96255" lon="-0.23234833">
        <ele>1223.0</ele>
        <time>2019-07-07T10:01:10.829Z</time>
      </trkpt>
      <trkpt lat="42.96253333" lon="-0.23241167">
        <ele>1223.0</ele>
        <time>2019-07-07T10:01:11.803Z</time>
      </trkpt>
      <trkpt lat="42.962525" lon="-0.23244333">
        <ele>1223.0</ele>
        <time>2019-07-07T10:01:12.833Z</time>
      </trkpt>
      <trkpt lat="42.962525" lon="-0.23244333">
        <ele>1223.0</ele>
        <time>2019-07-07T10:01:13.802Z</time>
      </trkpt>
      <trkpt lat="42.96250667" lon="-0.23250833">
        <ele>1223.0</ele>
        <time>2019-07-07T10:01:14.833Z</time>
      </trkpt>
      <trkpt lat="42.96250667" lon="-0.23250833">
        <ele>1223.0</ele>
        <time>2019-07-07T10:01:15.839Z</time>
      </trkpt>
      <trkpt lat="42.96249" lon="-0.23257167">
        <ele>1224.0</ele>
        <time>2019-07-07T10:01:16.821Z</time>
      </trkpt>
      <trkpt lat="42.96249" lon="-0.23257167">
        <ele>1224.0</ele>
        <time>2019-07-07T10:01:17.827Z</time>
      </trkpt>
      <trkpt lat="42.962475" lon="-0.23263167">
        <ele>1224.0</ele>
        <time>2019-07-07T10:01:18.827Z</time>
      </trkpt>
      <trkpt lat="42.962475" lon="-0.23263167">
        <ele>1224.0</ele>
        <time>2019-07-07T10:01:19.834Z</time>
      </trkpt>
      <trkpt lat="42.96245833" lon="-0.232695">
        <ele>1225.0</ele>
        <time>2019-07-07T10:01:20.824Z</time>
      </trkpt>
      <trkpt lat="42.96245" lon="-0.23272833">
        <ele>1225.0</ele>
        <time>2019-07-07T10:01:21.824Z</time>
      </trkpt>
      <trkpt lat="42.96245" lon="-0.23272833">
        <ele>1225.0</ele>
        <time>2019-07-07T10:01:22.830Z</time>
      </trkpt>
      <trkpt lat="42.96243333" lon="-0.23279">
        <ele>1226.0</ele>
        <time>2019-07-07T10:01:23.809Z</time>
      </trkpt>
      <trkpt lat="42.962425" lon="-0.232825">
        <ele>1226.0</ele>
        <time>2019-07-07T10:01:24.833Z</time>
      </trkpt>
      <trkpt lat="42.96241333" lon="-0.23286167">
        <ele>1227.0</ele>
        <time>2019-07-07T10:01:25.811Z</time>
      </trkpt>
      <trkpt lat="42.96241333" lon="-0.23286167">
        <ele>1227.0</ele>
        <time>2019-07-07T10:01:26.817Z</time>
      </trkpt>
      <trkpt lat="42.96239833" lon="-0.23293">
        <ele>1227.0</ele>
        <time>2019-07-07T10:01:27.811Z</time>
      </trkpt>
      <trkpt lat="42.96239833" lon="-0.23293">
        <ele>1227.0</ele>
        <time>2019-07-07T10:01:28.818Z</time>
      </trkpt>
      <trkpt lat="42.96238667" lon="-0.23299333">
        <ele>1227.0</ele>
        <time>2019-07-07T10:01:29.834Z</time>
      </trkpt>
      <trkpt lat="42.96238667" lon="-0.23299333">
        <ele>1227.0</ele>
        <time>2019-07-07T10:01:30.840Z</time>
      </trkpt>
      <trkpt lat="42.96237833" lon="-0.233065">
        <ele>1228.0</ele>
        <time>2019-07-07T10:01:31.838Z</time>
      </trkpt>
      <trkpt lat="42.96237833" lon="-0.233065">
        <ele>1228.0</ele>
        <time>2019-07-07T10:01:32.804Z</time>
      </trkpt>
      <trkpt lat="42.962365" lon="-0.233135">
        <ele>1229.0</ele>
        <time>2019-07-07T10:01:33.814Z</time>
      </trkpt>
      <trkpt lat="42.96236167" lon="-0.23317333">
        <ele>1228.0</ele>
        <time>2019-07-07T10:01:34.804Z</time>
      </trkpt>
      <trkpt lat="42.96235667" lon="-0.23320833">
        <ele>1229.0</ele>
        <time>2019-07-07T10:01:35.839Z</time>
      </trkpt>
      <trkpt lat="42.96235667" lon="-0.23320833">
        <ele>1229.0</ele>
        <time>2019-07-07T10:01:36.806Z</time>
      </trkpt>
      <trkpt lat="42.96235667" lon="-0.23328333">
        <ele>1229.0</ele>
        <time>2019-07-07T10:01:37.803Z</time>
      </trkpt>
      <trkpt lat="42.96235667" lon="-0.23328333">
        <ele>1229.0</ele>
        <time>2019-07-07T10:01:38.810Z</time>
      </trkpt>
      <trkpt lat="42.962355" lon="-0.233355">
        <ele>1230.0</ele>
        <time>2019-07-07T10:01:39.813Z</time>
      </trkpt>
      <trkpt lat="42.962355" lon="-0.233355">
        <ele>1230.0</ele>
        <time>2019-07-07T10:01:40.819Z</time>
      </trkpt>
      <trkpt lat="42.96235667" lon="-0.23342667">
        <ele>1230.0</ele>
        <time>2019-07-07T10:01:41.834Z</time>
      </trkpt>
      <trkpt lat="42.96235833" lon="-0.23346167">
        <ele>1231.0</ele>
        <time>2019-07-07T10:01:42.818Z</time>
      </trkpt>
      <trkpt lat="42.96235833" lon="-0.23346167">
        <ele>1231.0</ele>
        <time>2019-07-07T10:01:43.824Z</time>
      </trkpt>
      <trkpt lat="42.96237" lon="-0.23353167">
        <ele>1231.0</ele>
        <time>2019-07-07T10:01:44.814Z</time>
      </trkpt>
      <trkpt lat="42.96237833" lon="-0.23356333">
        <ele>1232.0</ele>
        <time>2019-07-07T10:01:45.824Z</time>
      </trkpt>
      <trkpt lat="42.96237833" lon="-0.23356333">
        <ele>1232.0</ele>
        <time>2019-07-07T10:01:46.830Z</time>
      </trkpt>
      <trkpt lat="42.962395" lon="-0.23363">
        <ele>1232.0</ele>
        <time>2019-07-07T10:01:47.805Z</time>
      </trkpt>
      <trkpt lat="42.96240333" lon="-0.23366333">
        <ele>1232.0</ele>
        <time>2019-07-07T10:01:48.811Z</time>
      </trkpt>
      <trkpt lat="42.96240333" lon="-0.23366333">
        <ele>1232.0</ele>
        <time>2019-07-07T10:01:49.821Z</time>
      </trkpt>
      <trkpt lat="42.96242167" lon="-0.23372667">
        <ele>1233.0</ele>
        <time>2019-07-07T10:01:50.805Z</time>
      </trkpt>
      <trkpt lat="42.96243" lon="-0.23375833">
        <ele>1233.0</ele>
        <time>2019-07-07T10:01:51.827Z</time>
      </trkpt>
      <trkpt lat="42.96243833" lon="-0.23379">
        <ele>1233.0</ele>
        <time>2019-07-07T10:01:52.813Z</time>
      </trkpt>
      <trkpt lat="42.96243833" lon="-0.23379">
        <ele>1233.0</ele>
        <time>2019-07-07T10:01:53.819Z</time>
      </trkpt>
      <trkpt lat="42.96245833" lon="-0.23385333">
        <ele>1233.0</ele>
        <time>2019-07-07T10:01:54.824Z</time>
      </trkpt>
      <trkpt lat="42.96245833" lon="-0.23385333">
        <ele>1233.0</ele>
        <time>2019-07-07T10:01:55.830Z</time>
      </trkpt>
      <trkpt lat="42.96247833" lon="-0.23391833">
        <ele>1234.0</ele>
        <time>2019-07-07T10:01:56.829Z</time>
      </trkpt>
      <trkpt lat="42.96249" lon="-0.23395167">
        <ele>1234.0</ele>
        <time>2019-07-07T10:01:57.833Z</time>
      </trkpt>
      <trkpt lat="42.96250167" lon="-0.233985">
        <ele>1234.0</ele>
        <time>2019-07-07T10:01:58.809Z</time>
      </trkpt>
      <trkpt lat="42.96251667" lon="-0.23402">
        <ele>1234.0</ele>
        <time>2019-07-07T10:01:59.826Z</time>
      </trkpt>
      <trkpt lat="42.96251667" lon="-0.23402">
        <ele>1234.0</ele>
        <time>2019-07-07T10:02:00.832Z</time>
      </trkpt>
      <trkpt lat="42.962545" lon="-0.23408">
        <ele>1235.0</ele>
        <time>2019-07-07T10:02:01.833Z</time>
      </trkpt>
      <trkpt lat="42.962545" lon="-0.23408">
        <ele>1235.0</ele>
        <time>2019-07-07T10:02:02.839Z</time>
      </trkpt>
      <trkpt lat="42.96256833" lon="-0.23414167">
        <ele>1235.0</ele>
        <time>2019-07-07T10:02:03.830Z</time>
      </trkpt>
      <trkpt lat="42.96256833" lon="-0.23414167">
        <ele>1235.0</ele>
        <time>2019-07-07T10:02:04.836Z</time>
      </trkpt>
      <trkpt lat="42.96259167" lon="-0.23420167">
        <ele>1236.0</ele>
        <time>2019-07-07T10:02:05.813Z</time>
      </trkpt>
      <trkpt lat="42.96260167" lon="-0.23423167">
        <ele>1236.0</ele>
        <time>2019-07-07T10:02:06.833Z</time>
      </trkpt>
      <trkpt lat="42.96260167" lon="-0.23423167">
        <ele>1236.0</ele>
        <time>2019-07-07T10:02:07.839Z</time>
      </trkpt>
      <trkpt lat="42.96262" lon="-0.234295">
        <ele>1237.0</ele>
        <time>2019-07-07T10:02:08.814Z</time>
      </trkpt>
      <trkpt lat="42.96262" lon="-0.234295">
        <ele>1237.0</ele>
        <time>2019-07-07T10:02:09.819Z</time>
      </trkpt>
      <trkpt lat="42.96264" lon="-0.234355">
        <ele>1237.0</ele>
        <time>2019-07-07T10:02:10.803Z</time>
      </trkpt>
      <trkpt lat="42.96264" lon="-0.234355">
        <ele>1237.0</ele>
        <time>2019-07-07T10:02:11.810Z</time>
      </trkpt>
      <trkpt lat="42.96266" lon="-0.23441833">
        <ele>1238.0</ele>
        <time>2019-07-07T10:02:12.823Z</time>
      </trkpt>
      <trkpt lat="42.96266" lon="-0.23441833">
        <ele>1238.0</ele>
        <time>2019-07-07T10:02:13.829Z</time>
      </trkpt>
      <trkpt lat="42.96268" lon="-0.23448">
        <ele>1238.0</ele>
        <time>2019-07-07T10:02:14.823Z</time>
      </trkpt>
      <trkpt lat="42.96268" lon="-0.23448">
        <ele>1238.0</ele>
        <time>2019-07-07T10:02:15.829Z</time>
      </trkpt>
      <trkpt lat="42.96269833" lon="-0.234545">
        <ele>1238.0</ele>
        <time>2019-07-07T10:02:16.831Z</time>
      </trkpt>
      <trkpt lat="42.96270833" lon="-0.23457667">
        <ele>1239.0</ele>
        <time>2019-07-07T10:02:17.823Z</time>
      </trkpt>
      <trkpt lat="42.96270833" lon="-0.23457667">
        <ele>1239.0</ele>
        <time>2019-07-07T10:02:18.828Z</time>
      </trkpt>
      <trkpt lat="42.96273" lon="-0.23464">
        <ele>1239.0</ele>
        <time>2019-07-07T10:02:19.804Z</time>
      </trkpt>
      <trkpt lat="42.96274" lon="-0.23467">
        <ele>1239.0</ele>
        <time>2019-07-07T10:02:20.824Z</time>
      </trkpt>
      <trkpt lat="42.96275" lon="-0.2347">
        <ele>1240.0</ele>
        <time>2019-07-07T10:02:21.813Z</time>
      </trkpt>
      <trkpt lat="42.96275" lon="-0.2347">
        <ele>1240.0</ele>
        <time>2019-07-07T10:02:22.819Z</time>
      </trkpt>
      <trkpt lat="42.96277" lon="-0.234765">
        <ele>1240.0</ele>
        <time>2019-07-07T10:02:23.837Z</time>
      </trkpt>
      <trkpt lat="42.96277833" lon="-0.23479667">
        <ele>1240.0</ele>
        <time>2019-07-07T10:02:24.829Z</time>
      </trkpt>
      <trkpt lat="42.96277833" lon="-0.23479667">
        <ele>1240.0</ele>
        <time>2019-07-07T10:02:25.835Z</time>
      </trkpt>
      <trkpt lat="42.962795" lon="-0.23486167">
        <ele>1240.0</ele>
        <time>2019-07-07T10:02:26.814Z</time>
      </trkpt>
      <trkpt lat="42.96280333" lon="-0.23489333">
        <ele>1241.0</ele>
        <time>2019-07-07T10:02:27.803Z</time>
      </trkpt>
      <trkpt lat="42.96280333" lon="-0.23489333">
        <ele>1241.0</ele>
        <time>2019-07-07T10:02:28.811Z</time>
      </trkpt>
      <trkpt lat="42.96282333" lon="-0.23496167">
        <ele>1241.0</ele>
        <time>2019-07-07T10:02:29.832Z</time>
      </trkpt>
      <trkpt lat="42.96282333" lon="-0.23496167">
        <ele>1241.0</ele>
        <time>2019-07-07T10:02:30.838Z</time>
      </trkpt>
      <trkpt lat="42.962845" lon="-0.23502667">
        <ele>1241.0</ele>
        <time>2019-07-07T10:02:31.824Z</time>
      </trkpt>
      <trkpt lat="42.962845" lon="-0.23502667">
        <ele>1241.0</ele>
        <time>2019-07-07T10:02:32.829Z</time>
      </trkpt>
      <trkpt lat="42.96286167" lon="-0.23509">
        <ele>1242.0</ele>
        <time>2019-07-07T10:02:33.810Z</time>
      </trkpt>
      <trkpt lat="42.96286833" lon="-0.23512">
        <ele>1242.0</ele>
        <time>2019-07-07T10:02:34.827Z</time>
      </trkpt>
      <trkpt lat="42.96286833" lon="-0.23512">
        <ele>1242.0</ele>
        <time>2019-07-07T10:02:35.833Z</time>
      </trkpt>
      <trkpt lat="42.96288833" lon="-0.23518">
        <ele>1243.0</ele>
        <time>2019-07-07T10:02:36.813Z</time>
      </trkpt>
      <trkpt lat="42.96288833" lon="-0.23518">
        <ele>1243.0</ele>
        <time>2019-07-07T10:02:37.819Z</time>
      </trkpt>
      <trkpt lat="42.96290333" lon="-0.235245">
        <ele>1243.0</ele>
        <time>2019-07-07T10:02:38.806Z</time>
      </trkpt>
      <trkpt lat="42.96290333" lon="-0.235245">
        <ele>1243.0</ele>
        <time>2019-07-07T10:02:39.812Z</time>
      </trkpt>
      <trkpt lat="42.96292667" lon="-0.23531167">
        <ele>1243.0</ele>
        <time>2019-07-07T10:02:40.834Z</time>
      </trkpt>
      <trkpt lat="42.96292667" lon="-0.23531167">
        <ele>1243.0</ele>
        <time>2019-07-07T10:02:41.839Z</time>
      </trkpt>
      <trkpt lat="42.96294" lon="-0.23537">
        <ele>1243.0</ele>
        <time>2019-07-07T10:02:42.823Z</time>
      </trkpt>
      <trkpt lat="42.96294" lon="-0.23537">
        <ele>1243.0</ele>
        <time>2019-07-07T10:02:43.829Z</time>
      </trkpt>
      <trkpt lat="42.962955" lon="-0.23542667">
        <ele>1244.0</ele>
        <time>2019-07-07T10:02:44.819Z</time>
      </trkpt>
      <trkpt lat="42.96296333" lon="-0.23545833">
        <ele>1244.0</ele>
        <time>2019-07-07T10:02:45.810Z</time>
      </trkpt>
      <trkpt lat="42.96296333" lon="-0.23545833">
        <ele>1244.0</ele>
        <time>2019-07-07T10:02:46.816Z</time>
      </trkpt>
      <trkpt lat="42.96298167" lon="-0.23552167">
        <ele>1245.0</ele>
        <time>2019-07-07T10:02:47.805Z</time>
      </trkpt>
      <trkpt lat="42.96298167" lon="-0.23552167">
        <ele>1245.0</ele>
        <time>2019-07-07T10:02:48.819Z</time>
      </trkpt>
      <trkpt lat="42.963" lon="-0.23557667">
        <ele>1245.0</ele>
        <time>2019-07-07T10:02:49.834Z</time>
      </trkpt>
      <trkpt lat="42.963" lon="-0.23557667">
        <ele>1245.0</ele>
        <time>2019-07-07T10:02:50.840Z</time>
      </trkpt>
      <trkpt lat="42.96301833" lon="-0.235645">
        <ele>1246.0</ele>
        <time>2019-07-07T10:02:51.814Z</time>
      </trkpt>
      <trkpt lat="42.96301833" lon="-0.235645">
        <ele>1246.0</ele>
        <time>2019-07-07T10:02:52.820Z</time>
      </trkpt>
      <trkpt lat="42.96303833" lon="-0.23569833">
        <ele>1246.0</ele>
        <time>2019-07-07T10:02:53.803Z</time>
      </trkpt>
      <trkpt lat="42.96303833" lon="-0.23569833">
        <ele>1246.0</ele>
        <time>2019-07-07T10:02:54.811Z</time>
      </trkpt>
      <trkpt lat="42.96305167" lon="-0.23576167">
        <ele>1247.0</ele>
        <time>2019-07-07T10:02:55.801Z</time>
      </trkpt>
      <trkpt lat="42.96305167" lon="-0.23576167">
        <ele>1247.0</ele>
        <time>2019-07-07T10:02:56.810Z</time>
      </trkpt>
      <trkpt lat="42.96306667" lon="-0.23583">
        <ele>1247.0</ele>
        <time>2019-07-07T10:02:57.824Z</time>
      </trkpt>
      <trkpt lat="42.96306667" lon="-0.23583">
        <ele>1247.0</ele>
        <time>2019-07-07T10:02:58.830Z</time>
      </trkpt>
      <trkpt lat="42.96308167" lon="-0.23589">
        <ele>1247.0</ele>
        <time>2019-07-07T10:02:59.838Z</time>
      </trkpt>
      <trkpt lat="42.96308167" lon="-0.23589">
        <ele>1247.0</ele>
        <time>2019-07-07T10:03:00.805Z</time>
      </trkpt>
      <trkpt lat="42.9631" lon="-0.23595667">
        <ele>1248.0</ele>
        <time>2019-07-07T10:03:01.834Z</time>
      </trkpt>
      <trkpt lat="42.9631" lon="-0.23595667">
        <ele>1248.0</ele>
        <time>2019-07-07T10:03:02.840Z</time>
      </trkpt>
      <trkpt lat="42.96312333" lon="-0.23602333">
        <ele>1248.0</ele>
        <time>2019-07-07T10:03:03.810Z</time>
      </trkpt>
      <trkpt lat="42.96312333" lon="-0.23602333">
        <ele>1248.0</ele>
        <time>2019-07-07T10:03:04.816Z</time>
      </trkpt>
      <trkpt lat="42.96314167" lon="-0.23608833">
        <ele>1249.0</ele>
        <time>2019-07-07T10:03:05.830Z</time>
      </trkpt>
      <trkpt lat="42.96315333" lon="-0.23612">
        <ele>1249.0</ele>
        <time>2019-07-07T10:03:06.810Z</time>
      </trkpt>
      <trkpt lat="42.96315333" lon="-0.23612">
        <ele>1249.0</ele>
        <time>2019-07-07T10:03:07.816Z</time>
      </trkpt>
      <trkpt lat="42.963175" lon="-0.23618333">
        <ele>1249.0</ele>
        <time>2019-07-07T10:03:08.812Z</time>
      </trkpt>
      <trkpt lat="42.96318833" lon="-0.236215">
        <ele>1249.0</ele>
        <time>2019-07-07T10:03:09.840Z</time>
      </trkpt>
      <trkpt lat="42.96318833" lon="-0.236215">
        <ele>1249.0</ele>
        <time>2019-07-07T10:03:10.807Z</time>
      </trkpt>
      <trkpt lat="42.96322" lon="-0.23628333">
        <ele>1250.0</ele>
        <time>2019-07-07T10:03:11.819Z</time>
      </trkpt>
      <trkpt lat="42.96323833" lon="-0.23631833">
        <ele>1250.0</ele>
        <time>2019-07-07T10:03:12.821Z</time>
      </trkpt>
      <trkpt lat="42.96323833" lon="-0.23631833">
        <ele>1250.0</ele>
        <time>2019-07-07T10:03:13.827Z</time>
      </trkpt>
      <trkpt lat="42.96326667" lon="-0.23638333">
        <ele>1251.0</ele>
        <time>2019-07-07T10:03:14.814Z</time>
      </trkpt>
      <trkpt lat="42.96328167" lon="-0.23641167">
        <ele>1251.0</ele>
        <time>2019-07-07T10:03:15.838Z</time>
      </trkpt>
      <trkpt lat="42.96328167" lon="-0.23641167">
        <ele>1251.0</ele>
        <time>2019-07-07T10:03:16.804Z</time>
      </trkpt>
      <trkpt lat="42.96331" lon="-0.23646333">
        <ele>1253.0</ele>
        <time>2019-07-07T10:03:17.811Z</time>
      </trkpt>
      <trkpt lat="42.96332333" lon="-0.23649">
        <ele>1253.0</ele>
        <time>2019-07-07T10:03:18.813Z</time>
      </trkpt>
      <trkpt lat="42.96332333" lon="-0.23649">
        <ele>1253.0</ele>
        <time>2019-07-07T10:03:19.826Z</time>
      </trkpt>
      <trkpt lat="42.96335333" lon="-0.23654333">
        <ele>1254.0</ele>
        <time>2019-07-07T10:03:20.828Z</time>
      </trkpt>
      <trkpt lat="42.96336667" lon="-0.23657">
        <ele>1254.0</ele>
        <time>2019-07-07T10:03:21.835Z</time>
      </trkpt>
      <trkpt lat="42.96336667" lon="-0.23657">
        <ele>1254.0</ele>
        <time>2019-07-07T10:03:22.841Z</time>
      </trkpt>
      <trkpt lat="42.96339833" lon="-0.23662333">
        <ele>1255.0</ele>
        <time>2019-07-07T10:03:23.836Z</time>
      </trkpt>
      <trkpt lat="42.96339833" lon="-0.23662333">
        <ele>1255.0</ele>
        <time>2019-07-07T10:03:24.806Z</time>
      </trkpt>
      <trkpt lat="42.96342833" lon="-0.23667667">
        <ele>1255.0</ele>
        <time>2019-07-07T10:03:25.804Z</time>
      </trkpt>
      <trkpt lat="42.96342833" lon="-0.23667667">
        <ele>1255.0</ele>
        <time>2019-07-07T10:03:26.811Z</time>
      </trkpt>
      <trkpt lat="42.96345667" lon="-0.23673333">
        <ele>1256.0</ele>
        <time>2019-07-07T10:03:27.830Z</time>
      </trkpt>
      <trkpt lat="42.96345667" lon="-0.23673333">
        <ele>1256.0</ele>
        <time>2019-07-07T10:03:28.836Z</time>
      </trkpt>
      <trkpt lat="42.96348167" lon="-0.23679667">
        <ele>1256.0</ele>
        <time>2019-07-07T10:03:29.830Z</time>
      </trkpt>
      <trkpt lat="42.96348167" lon="-0.23679667">
        <ele>1256.0</ele>
        <time>2019-07-07T10:03:30.836Z</time>
      </trkpt>
      <trkpt lat="42.96350833" lon="-0.23685667">
        <ele>1257.0</ele>
        <time>2019-07-07T10:03:31.835Z</time>
      </trkpt>
      <trkpt lat="42.96350833" lon="-0.23685667">
        <ele>1257.0</ele>
        <time>2019-07-07T10:03:32.801Z</time>
      </trkpt>
      <trkpt lat="42.96353667" lon="-0.23691667">
        <ele>1257.0</ele>
        <time>2019-07-07T10:03:33.834Z</time>
      </trkpt>
      <trkpt lat="42.96353667" lon="-0.23691667">
        <ele>1257.0</ele>
        <time>2019-07-07T10:03:34.839Z</time>
      </trkpt>
      <trkpt lat="42.96356" lon="-0.23698167">
        <ele>1257.0</ele>
        <time>2019-07-07T10:03:35.834Z</time>
      </trkpt>
      <trkpt lat="42.96357167" lon="-0.23701333">
        <ele>1257.0</ele>
        <time>2019-07-07T10:03:36.824Z</time>
      </trkpt>
      <trkpt lat="42.96357167" lon="-0.23701333">
        <ele>1257.0</ele>
        <time>2019-07-07T10:03:37.829Z</time>
      </trkpt>
      <trkpt lat="42.96359333" lon="-0.237075">
        <ele>1258.0</ele>
        <time>2019-07-07T10:03:38.812Z</time>
      </trkpt>
      <trkpt lat="42.963605" lon="-0.237105">
        <ele>1258.0</ele>
        <time>2019-07-07T10:03:39.823Z</time>
      </trkpt>
      <trkpt lat="42.963605" lon="-0.237105">
        <ele>1258.0</ele>
        <time>2019-07-07T10:03:40.804Z</time>
      </trkpt>
      <trkpt lat="42.96362833" lon="-0.237165">
        <ele>1259.0</ele>
        <time>2019-07-07T10:03:41.828Z</time>
      </trkpt>
      <trkpt lat="42.96364333" lon="-0.23719">
        <ele>1259.0</ele>
        <time>2019-07-07T10:03:42.824Z</time>
      </trkpt>
      <trkpt lat="42.96364333" lon="-0.23719">
        <ele>1259.0</ele>
        <time>2019-07-07T10:03:43.830Z</time>
      </trkpt>
      <trkpt lat="42.96366667" lon="-0.23724667">
        <ele>1260.0</ele>
        <time>2019-07-07T10:03:44.814Z</time>
      </trkpt>
      <trkpt lat="42.96368167" lon="-0.237275">
        <ele>1260.0</ele>
        <time>2019-07-07T10:03:45.833Z</time>
      </trkpt>
      <trkpt lat="42.96368167" lon="-0.237275">
        <ele>1260.0</ele>
        <time>2019-07-07T10:03:46.839Z</time>
      </trkpt>
      <trkpt lat="42.96370333" lon="-0.23733667">
        <ele>1260.0</ele>
        <time>2019-07-07T10:03:47.813Z</time>
      </trkpt>
      <trkpt lat="42.96370333" lon="-0.23733667">
        <ele>1260.0</ele>
        <time>2019-07-07T10:03:48.839Z</time>
      </trkpt>
      <trkpt lat="42.96372167" lon="-0.2374">
        <ele>1260.0</ele>
        <time>2019-07-07T10:03:49.813Z</time>
      </trkpt>
      <trkpt lat="42.96373167" lon="-0.23743167">
        <ele>1260.0</ele>
        <time>2019-07-07T10:03:50.818Z</time>
      </trkpt>
      <trkpt lat="42.96373167" lon="-0.23743167">
        <ele>1260.0</ele>
        <time>2019-07-07T10:03:51.823Z</time>
      </trkpt>
      <trkpt lat="42.96375167" lon="-0.23749833">
        <ele>1260.0</ele>
        <time>2019-07-07T10:03:52.804Z</time>
      </trkpt>
      <trkpt lat="42.96376333" lon="-0.23753">
        <ele>1261.0</ele>
        <time>2019-07-07T10:03:53.834Z</time>
      </trkpt>
      <trkpt lat="42.96376333" lon="-0.23753">
        <ele>1261.0</ele>
        <time>2019-07-07T10:03:54.840Z</time>
      </trkpt>
      <trkpt lat="42.96378333" lon="-0.23759">
        <ele>1261.0</ele>
        <time>2019-07-07T10:03:55.814Z</time>
      </trkpt>
      <trkpt lat="42.96378333" lon="-0.23759">
        <ele>1261.0</ele>
        <time>2019-07-07T10:03:56.820Z</time>
      </trkpt>
      <trkpt lat="42.96379833" lon="-0.23765">
        <ele>1262.0</ele>
        <time>2019-07-07T10:03:57.814Z</time>
      </trkpt>
      <trkpt lat="42.96379833" lon="-0.23765">
        <ele>1262.0</ele>
        <time>2019-07-07T10:03:58.819Z</time>
      </trkpt>
      <trkpt lat="42.96382" lon="-0.23771">
        <ele>1262.0</ele>
        <time>2019-07-07T10:03:59.834Z</time>
      </trkpt>
      <trkpt lat="42.96382833" lon="-0.23774167">
        <ele>1263.0</ele>
        <time>2019-07-07T10:04:00.813Z</time>
      </trkpt>
      <trkpt lat="42.96382833" lon="-0.23774167">
        <ele>1263.0</ele>
        <time>2019-07-07T10:04:01.819Z</time>
      </trkpt>
      <trkpt lat="42.96384" lon="-0.23780333">
        <ele>1264.0</ele>
        <time>2019-07-07T10:04:02.814Z</time>
      </trkpt>
      <trkpt lat="42.96385" lon="-0.237835">
        <ele>1264.0</ele>
        <time>2019-07-07T10:04:03.818Z</time>
      </trkpt>
      <trkpt lat="42.96386167" lon="-0.237865">
        <ele>1264.0</ele>
        <time>2019-07-07T10:04:04.837Z</time>
      </trkpt>
      <trkpt lat="42.96386167" lon="-0.237865">
        <ele>1264.0</ele>
        <time>2019-07-07T10:04:05.803Z</time>
      </trkpt>
      <trkpt lat="42.96388167" lon="-0.23792167">
        <ele>1265.0</ele>
        <time>2019-07-07T10:04:06.803Z</time>
      </trkpt>
      <trkpt lat="42.96388167" lon="-0.23792167">
        <ele>1265.0</ele>
        <time>2019-07-07T10:04:07.811Z</time>
      </trkpt>
      <trkpt lat="42.96389667" lon="-0.237985">
        <ele>1265.0</ele>
        <time>2019-07-07T10:04:08.831Z</time>
      </trkpt>
      <trkpt lat="42.963905" lon="-0.238015">
        <ele>1266.0</ele>
        <time>2019-07-07T10:04:09.834Z</time>
      </trkpt>
      <trkpt lat="42.963905" lon="-0.238015">
        <ele>1266.0</ele>
        <time>2019-07-07T10:04:10.840Z</time>
      </trkpt>
      <trkpt lat="42.96392" lon="-0.23807167">
        <ele>1266.0</ele>
        <time>2019-07-07T10:04:11.824Z</time>
      </trkpt>
      <trkpt lat="42.96393" lon="-0.23810333">
        <ele>1266.0</ele>
        <time>2019-07-07T10:04:12.824Z</time>
      </trkpt>
      <trkpt lat="42.96393" lon="-0.23810333">
        <ele>1266.0</ele>
        <time>2019-07-07T10:04:13.830Z</time>
      </trkpt>
      <trkpt lat="42.96395" lon="-0.23816167">
        <ele>1267.0</ele>
        <time>2019-07-07T10:04:14.839Z</time>
      </trkpt>
      <trkpt lat="42.96395667" lon="-0.238195">
        <ele>1267.0</ele>
        <time>2019-07-07T10:04:15.824Z</time>
      </trkpt>
      <trkpt lat="42.96395667" lon="-0.238195">
        <ele>1267.0</ele>
        <time>2019-07-07T10:04:16.830Z</time>
      </trkpt>
      <trkpt lat="42.96397" lon="-0.23825833">
        <ele>1268.0</ele>
        <time>2019-07-07T10:04:17.801Z</time>
      </trkpt>
      <trkpt lat="42.96398333" lon="-0.2383">
        <ele>1268.0</ele>
        <time>2019-07-07T10:04:18.804Z</time>
      </trkpt>
      <trkpt lat="42.96398333" lon="-0.2383">
        <ele>1268.0</ele>
        <time>2019-07-07T10:04:19.811Z</time>
      </trkpt>
      <trkpt lat="42.96399833" lon="-0.238375">
        <ele>1269.0</ele>
        <time>2019-07-07T10:04:20.803Z</time>
      </trkpt>
      <trkpt lat="42.96400167" lon="-0.23840833">
        <ele>1270.0</ele>
        <time>2019-07-07T10:04:21.824Z</time>
      </trkpt>
      <trkpt lat="42.96400167" lon="-0.23840833">
        <ele>1270.0</ele>
        <time>2019-07-07T10:04:22.830Z</time>
      </trkpt>
      <trkpt lat="42.964005" lon="-0.23848">
        <ele>1271.0</ele>
        <time>2019-07-07T10:04:23.804Z</time>
      </trkpt>
      <trkpt lat="42.964005" lon="-0.23848">
        <ele>1271.0</ele>
        <time>2019-07-07T10:04:24.810Z</time>
      </trkpt>
      <trkpt lat="42.963995" lon="-0.23855167">
        <ele>1272.0</ele>
        <time>2019-07-07T10:04:25.813Z</time>
      </trkpt>
      <trkpt lat="42.963995" lon="-0.23855167">
        <ele>1272.0</ele>
        <time>2019-07-07T10:04:26.819Z</time>
      </trkpt>
      <trkpt lat="42.96398333" lon="-0.23862">
        <ele>1272.0</ele>
        <time>2019-07-07T10:04:27.804Z</time>
      </trkpt>
      <trkpt lat="42.96398333" lon="-0.23862">
        <ele>1272.0</ele>
        <time>2019-07-07T10:04:28.810Z</time>
      </trkpt>
      <trkpt lat="42.96396833" lon="-0.23868333">
        <ele>1272.0</ele>
        <time>2019-07-07T10:04:29.804Z</time>
      </trkpt>
      <trkpt lat="42.96395833" lon="-0.23871333">
        <ele>1272.0</ele>
        <time>2019-07-07T10:04:30.824Z</time>
      </trkpt>
      <trkpt lat="42.96395833" lon="-0.23871333">
        <ele>1272.0</ele>
        <time>2019-07-07T10:04:31.829Z</time>
      </trkpt>
      <trkpt lat="42.96393" lon="-0.23876667">
        <ele>1273.0</ele>
        <time>2019-07-07T10:04:32.808Z</time>
      </trkpt>
      <trkpt lat="42.96393" lon="-0.23876667">
        <ele>1273.0</ele>
        <time>2019-07-07T10:04:33.814Z</time>
      </trkpt>
      <trkpt lat="42.96390167" lon="-0.23881833">
        <ele>1274.0</ele>
        <time>2019-07-07T10:04:34.803Z</time>
      </trkpt>
      <trkpt lat="42.96390167" lon="-0.23881833">
        <ele>1274.0</ele>
        <time>2019-07-07T10:04:35.809Z</time>
      </trkpt>
      <trkpt lat="42.963885" lon="-0.23886333">
        <ele>1275.0</ele>
        <time>2019-07-07T10:04:36.814Z</time>
      </trkpt>
      <trkpt lat="42.963885" lon="-0.23886333">
        <ele>1275.0</ele>
        <time>2019-07-07T10:04:37.820Z</time>
      </trkpt>
      <trkpt lat="42.963875" lon="-0.23892667">
        <ele>1277.0</ele>
        <time>2019-07-07T10:04:38.816Z</time>
      </trkpt>
      <trkpt lat="42.96386833" lon="-0.23895667">
        <ele>1277.0</ele>
        <time>2019-07-07T10:04:39.809Z</time>
      </trkpt>
      <trkpt lat="42.96386833" lon="-0.23895667">
        <ele>1277.0</ele>
        <time>2019-07-07T10:04:40.815Z</time>
      </trkpt>
      <trkpt lat="42.96386333" lon="-0.23901833">
        <ele>1278.0</ele>
        <time>2019-07-07T10:04:41.834Z</time>
      </trkpt>
      <trkpt lat="42.96386333" lon="-0.23905">
        <ele>1278.0</ele>
        <time>2019-07-07T10:04:42.814Z</time>
      </trkpt>
      <trkpt lat="42.96386333" lon="-0.23905">
        <ele>1278.0</ele>
        <time>2019-07-07T10:04:43.820Z</time>
      </trkpt>
      <trkpt lat="42.963865" lon="-0.23911167">
        <ele>1278.0</ele>
        <time>2019-07-07T10:04:44.834Z</time>
      </trkpt>
      <trkpt lat="42.963865" lon="-0.23913833">
        <ele>1278.0</ele>
        <time>2019-07-07T10:04:45.813Z</time>
      </trkpt>
      <trkpt lat="42.963865" lon="-0.23913833">
        <ele>1278.0</ele>
        <time>2019-07-07T10:04:46.819Z</time>
      </trkpt>
      <trkpt lat="42.96387833" lon="-0.23919667">
        <ele>1278.0</ele>
        <time>2019-07-07T10:04:47.803Z</time>
      </trkpt>
      <trkpt lat="42.96387833" lon="-0.23919667">
        <ele>1278.0</ele>
        <time>2019-07-07T10:04:48.836Z</time>
      </trkpt>
      <trkpt lat="42.96389667" lon="-0.23926333">
        <ele>1278.0</ele>
        <time>2019-07-07T10:04:49.814Z</time>
      </trkpt>
      <trkpt lat="42.96389667" lon="-0.23926333">
        <ele>1278.0</ele>
        <time>2019-07-07T10:04:50.820Z</time>
      </trkpt>
      <trkpt lat="42.96391833" lon="-0.23933167">
        <ele>1278.0</ele>
        <time>2019-07-07T10:04:51.813Z</time>
      </trkpt>
      <trkpt lat="42.96391833" lon="-0.23933167">
        <ele>1278.0</ele>
        <time>2019-07-07T10:04:52.819Z</time>
      </trkpt>
      <trkpt lat="42.96394" lon="-0.23939">
        <ele>1278.0</ele>
        <time>2019-07-07T10:04:53.835Z</time>
      </trkpt>
      <trkpt lat="42.96395" lon="-0.23941667">
        <ele>1278.0</ele>
        <time>2019-07-07T10:04:54.834Z</time>
      </trkpt>
      <trkpt lat="42.96395" lon="-0.23941667">
        <ele>1278.0</ele>
        <time>2019-07-07T10:04:55.840Z</time>
      </trkpt>
      <trkpt lat="42.96396667" lon="-0.23948">
        <ele>1279.0</ele>
        <time>2019-07-07T10:04:56.823Z</time>
      </trkpt>
      <trkpt lat="42.96396667" lon="-0.23948">
        <ele>1279.0</ele>
        <time>2019-07-07T10:04:57.829Z</time>
      </trkpt>
      <trkpt lat="42.96398833" lon="-0.23954">
        <ele>1279.0</ele>
        <time>2019-07-07T10:04:58.818Z</time>
      </trkpt>
      <trkpt lat="42.964" lon="-0.23956833">
        <ele>1279.0</ele>
        <time>2019-07-07T10:04:59.813Z</time>
      </trkpt>
      <trkpt lat="42.96401167" lon="-0.23959333">
        <ele>1280.0</ele>
        <time>2019-07-07T10:05:00.828Z</time>
      </trkpt>
      <trkpt lat="42.96401167" lon="-0.23959333">
        <ele>1280.0</ele>
        <time>2019-07-07T10:05:01.834Z</time>
      </trkpt>
      <trkpt lat="42.96403667" lon="-0.239645">
        <ele>1280.0</ele>
        <time>2019-07-07T10:05:02.813Z</time>
      </trkpt>
      <trkpt lat="42.96403667" lon="-0.239645">
        <ele>1280.0</ele>
        <time>2019-07-07T10:05:03.819Z</time>
      </trkpt>
      <trkpt lat="42.96406667" lon="-0.23969333">
        <ele>1281.0</ele>
        <time>2019-07-07T10:05:04.833Z</time>
      </trkpt>
      <trkpt lat="42.96406667" lon="-0.23969333">
        <ele>1281.0</ele>
        <time>2019-07-07T10:05:05.838Z</time>
      </trkpt>
      <trkpt lat="42.96409833" lon="-0.23974667">
        <ele>1281.0</ele>
        <time>2019-07-07T10:05:06.824Z</time>
      </trkpt>
      <trkpt lat="42.96411167" lon="-0.23977">
        <ele>1281.0</ele>
        <time>2019-07-07T10:05:07.804Z</time>
      </trkpt>
      <trkpt lat="42.96411167" lon="-0.23977">
        <ele>1281.0</ele>
        <time>2019-07-07T10:05:08.811Z</time>
      </trkpt>
      <trkpt lat="42.96413667" lon="-0.23982333">
        <ele>1282.0</ele>
        <time>2019-07-07T10:05:09.803Z</time>
      </trkpt>
      <trkpt lat="42.96413667" lon="-0.23982333">
        <ele>1282.0</ele>
        <time>2019-07-07T10:05:10.811Z</time>
      </trkpt>
      <trkpt lat="42.96416" lon="-0.23988333">
        <ele>1282.0</ele>
        <time>2019-07-07T10:05:11.828Z</time>
      </trkpt>
      <trkpt lat="42.96416667" lon="-0.23991333">
        <ele>1282.0</ele>
        <time>2019-07-07T10:05:12.832Z</time>
      </trkpt>
      <trkpt lat="42.96416667" lon="-0.23991333">
        <ele>1282.0</ele>
        <time>2019-07-07T10:05:13.838Z</time>
      </trkpt>
      <trkpt lat="42.964175" lon="-0.23997667">
        <ele>1283.0</ele>
        <time>2019-07-07T10:05:14.803Z</time>
      </trkpt>
      <trkpt lat="42.964175" lon="-0.23997667">
        <ele>1283.0</ele>
        <time>2019-07-07T10:05:15.810Z</time>
      </trkpt>
      <trkpt lat="42.96417667" lon="-0.24004167">
        <ele>1283.0</ele>
        <time>2019-07-07T10:05:16.824Z</time>
      </trkpt>
      <trkpt lat="42.96417667" lon="-0.24004167">
        <ele>1283.0</ele>
        <time>2019-07-07T10:05:17.829Z</time>
      </trkpt>
      <trkpt lat="42.96417" lon="-0.24010833">
        <ele>1284.0</ele>
        <time>2019-07-07T10:05:18.804Z</time>
      </trkpt>
      <trkpt lat="42.964165" lon="-0.24014">
        <ele>1284.0</ele>
        <time>2019-07-07T10:05:19.803Z</time>
      </trkpt>
      <trkpt lat="42.964165" lon="-0.24014">
        <ele>1284.0</ele>
        <time>2019-07-07T10:05:20.811Z</time>
      </trkpt>
      <trkpt lat="42.96415167" lon="-0.240205">
        <ele>1284.0</ele>
        <time>2019-07-07T10:05:21.824Z</time>
      </trkpt>
      <trkpt lat="42.96414167" lon="-0.24023667">
        <ele>1285.0</ele>
        <time>2019-07-07T10:05:22.837Z</time>
      </trkpt>
      <trkpt lat="42.96414167" lon="-0.24023667">
        <ele>1285.0</ele>
        <time>2019-07-07T10:05:23.803Z</time>
      </trkpt>
      <trkpt lat="42.96411667" lon="-0.24029167">
        <ele>1285.0</ele>
        <time>2019-07-07T10:05:24.818Z</time>
      </trkpt>
      <trkpt lat="42.96411667" lon="-0.24029167">
        <ele>1285.0</ele>
        <time>2019-07-07T10:05:25.824Z</time>
      </trkpt>
      <trkpt lat="42.96409" lon="-0.24034333">
        <ele>1285.0</ele>
        <time>2019-07-07T10:05:26.803Z</time>
      </trkpt>
      <trkpt lat="42.96409" lon="-0.24034333">
        <ele>1285.0</ele>
        <time>2019-07-07T10:05:27.809Z</time>
      </trkpt>
      <trkpt lat="42.96406167" lon="-0.24039833">
        <ele>1286.0</ele>
        <time>2019-07-07T10:05:28.814Z</time>
      </trkpt>
      <trkpt lat="42.96404667" lon="-0.24042167">
        <ele>1286.0</ele>
        <time>2019-07-07T10:05:29.834Z</time>
      </trkpt>
      <trkpt lat="42.96404667" lon="-0.24042167">
        <ele>1286.0</ele>
        <time>2019-07-07T10:05:30.840Z</time>
      </trkpt>
      <trkpt lat="42.964015" lon="-0.24046833">
        <ele>1286.0</ele>
        <time>2019-07-07T10:05:31.814Z</time>
      </trkpt>
      <trkpt lat="42.964" lon="-0.24049333">
        <ele>1286.0</ele>
        <time>2019-07-07T10:05:32.834Z</time>
      </trkpt>
      <trkpt lat="42.964" lon="-0.24049333">
        <ele>1286.0</ele>
        <time>2019-07-07T10:05:33.840Z</time>
      </trkpt>
      <trkpt lat="42.96397" lon="-0.24054333">
        <ele>1287.0</ele>
        <time>2019-07-07T10:05:34.823Z</time>
      </trkpt>
      <trkpt lat="42.96397" lon="-0.24054333">
        <ele>1287.0</ele>
        <time>2019-07-07T10:05:35.829Z</time>
      </trkpt>
      <trkpt lat="42.96394333" lon="-0.24059667">
        <ele>1287.0</ele>
        <time>2019-07-07T10:05:36.814Z</time>
      </trkpt>
      <trkpt lat="42.96394333" lon="-0.24059667">
        <ele>1287.0</ele>
        <time>2019-07-07T10:05:37.820Z</time>
      </trkpt>
      <trkpt lat="42.96391833" lon="-0.24065167">
        <ele>1287.0</ele>
        <time>2019-07-07T10:05:38.804Z</time>
      </trkpt>
      <trkpt lat="42.96390333" lon="-0.24067833">
        <ele>1288.0</ele>
        <time>2019-07-07T10:05:39.804Z</time>
      </trkpt>
      <trkpt lat="42.96390333" lon="-0.24067833">
        <ele>1288.0</ele>
        <time>2019-07-07T10:05:40.810Z</time>
      </trkpt>
      <trkpt lat="42.96387333" lon="-0.24072833">
        <ele>1288.0</ele>
        <time>2019-07-07T10:05:41.803Z</time>
      </trkpt>
      <trkpt lat="42.96387333" lon="-0.24072833">
        <ele>1288.0</ele>
        <time>2019-07-07T10:05:42.809Z</time>
      </trkpt>
      <trkpt lat="42.96384333" lon="-0.24078167">
        <ele>1288.0</ele>
        <time>2019-07-07T10:05:43.824Z</time>
      </trkpt>
      <trkpt lat="42.96384333" lon="-0.24078167">
        <ele>1288.0</ele>
        <time>2019-07-07T10:05:44.829Z</time>
      </trkpt>
      <trkpt lat="42.96381833" lon="-0.24083">
        <ele>1289.0</ele>
        <time>2019-07-07T10:05:45.813Z</time>
      </trkpt>
      <trkpt lat="42.96381833" lon="-0.24083">
        <ele>1289.0</ele>
        <time>2019-07-07T10:05:46.819Z</time>
      </trkpt>
      <trkpt lat="42.96378667" lon="-0.240885">
        <ele>1289.0</ele>
        <time>2019-07-07T10:05:47.803Z</time>
      </trkpt>
      <trkpt lat="42.96378667" lon="-0.240885">
        <ele>1289.0</ele>
        <time>2019-07-07T10:05:48.826Z</time>
      </trkpt>
      <trkpt lat="42.96375167" lon="-0.24093333">
        <ele>1290.0</ele>
        <time>2019-07-07T10:05:49.834Z</time>
      </trkpt>
      <trkpt lat="42.963735" lon="-0.24095667">
        <ele>1290.0</ele>
        <time>2019-07-07T10:05:50.804Z</time>
      </trkpt>
      <trkpt lat="42.963735" lon="-0.24095667">
        <ele>1290.0</ele>
        <time>2019-07-07T10:05:51.813Z</time>
      </trkpt>
      <trkpt lat="42.9637" lon="-0.24099333">
        <ele>1290.0</ele>
        <time>2019-07-07T10:05:52.837Z</time>
      </trkpt>
      <trkpt lat="42.96368167" lon="-0.24101">
        <ele>1291.0</ele>
        <time>2019-07-07T10:05:53.834Z</time>
      </trkpt>
      <trkpt lat="42.96368167" lon="-0.24101">
        <ele>1291.0</ele>
        <time>2019-07-07T10:05:54.840Z</time>
      </trkpt>
      <trkpt lat="42.96364" lon="-0.24103333">
        <ele>1291.0</ele>
        <time>2019-07-07T10:05:55.824Z</time>
      </trkpt>
      <trkpt lat="42.96364" lon="-0.24103333">
        <ele>1291.0</ele>
        <time>2019-07-07T10:05:56.830Z</time>
      </trkpt>
      <trkpt lat="42.96359833" lon="-0.24106167">
        <ele>1291.0</ele>
        <time>2019-07-07T10:05:57.811Z</time>
      </trkpt>
      <trkpt lat="42.96359833" lon="-0.24106167">
        <ele>1291.0</ele>
        <time>2019-07-07T10:05:58.817Z</time>
      </trkpt>
      <trkpt lat="42.96355" lon="-0.24108">
        <ele>1292.0</ele>
        <time>2019-07-07T10:05:59.813Z</time>
      </trkpt>
      <trkpt lat="42.963525" lon="-0.24108333">
        <ele>1292.0</ele>
        <time>2019-07-07T10:06:00.833Z</time>
      </trkpt>
      <trkpt lat="42.96350333" lon="-0.24108667">
        <ele>1292.0</ele>
        <time>2019-07-07T10:06:01.834Z</time>
      </trkpt>
      <trkpt lat="42.96350333" lon="-0.24108667">
        <ele>1292.0</ele>
        <time>2019-07-07T10:06:02.840Z</time>
      </trkpt>
      <trkpt lat="42.96345667" lon="-0.241095">
        <ele>1292.0</ele>
        <time>2019-07-07T10:06:03.824Z</time>
      </trkpt>
      <trkpt lat="42.96345667" lon="-0.241095">
        <ele>1292.0</ele>
        <time>2019-07-07T10:06:04.840Z</time>
      </trkpt>
      <trkpt lat="42.96341167" lon="-0.24109333">
        <ele>1293.0</ele>
        <time>2019-07-07T10:06:05.834Z</time>
      </trkpt>
      <trkpt lat="42.96338667" lon="-0.24108833">
        <ele>1292.0</ele>
        <time>2019-07-07T10:06:06.840Z</time>
      </trkpt>
      <trkpt lat="42.96338667" lon="-0.24108833">
        <ele>1292.0</ele>
        <time>2019-07-07T10:06:07.806Z</time>
      </trkpt>
      <trkpt lat="42.96333833" lon="-0.24108">
        <ele>1293.0</ele>
        <time>2019-07-07T10:06:08.826Z</time>
      </trkpt>
      <trkpt lat="42.96333833" lon="-0.24108">
        <ele>1293.0</ele>
        <time>2019-07-07T10:06:09.832Z</time>
      </trkpt>
      <trkpt lat="42.96329167" lon="-0.24107833">
        <ele>1294.0</ele>
        <time>2019-07-07T10:06:10.833Z</time>
      </trkpt>
      <trkpt lat="42.96329167" lon="-0.24107833">
        <ele>1294.0</ele>
        <time>2019-07-07T10:06:11.840Z</time>
      </trkpt>
      <trkpt lat="42.96325" lon="-0.24108333">
        <ele>1294.0</ele>
        <time>2019-07-07T10:06:12.803Z</time>
      </trkpt>
      <trkpt lat="42.96325" lon="-0.24108333">
        <ele>1294.0</ele>
        <time>2019-07-07T10:06:13.809Z</time>
      </trkpt>
      <trkpt lat="42.96321" lon="-0.24108667">
        <ele>1295.0</ele>
        <time>2019-07-07T10:06:14.813Z</time>
      </trkpt>
      <trkpt lat="42.96319" lon="-0.24109167">
        <ele>1295.0</ele>
        <time>2019-07-07T10:06:15.824Z</time>
      </trkpt>
      <trkpt lat="42.96319" lon="-0.24109167">
        <ele>1295.0</ele>
        <time>2019-07-07T10:06:16.830Z</time>
      </trkpt>
      <trkpt lat="42.96314333" lon="-0.24110667">
        <ele>1295.0</ele>
        <time>2019-07-07T10:06:17.823Z</time>
      </trkpt>
      <trkpt lat="42.96314333" lon="-0.24110667">
        <ele>1295.0</ele>
        <time>2019-07-07T10:06:18.829Z</time>
      </trkpt>
      <trkpt lat="42.96309833" lon="-0.241125">
        <ele>1296.0</ele>
        <time>2019-07-07T10:06:19.807Z</time>
      </trkpt>
      <trkpt lat="42.96309833" lon="-0.241125">
        <ele>1296.0</ele>
        <time>2019-07-07T10:06:20.814Z</time>
      </trkpt>
      <trkpt lat="42.963055" lon="-0.24115">
        <ele>1296.0</ele>
        <time>2019-07-07T10:06:21.801Z</time>
      </trkpt>
      <trkpt lat="42.963055" lon="-0.24115">
        <ele>1296.0</ele>
        <time>2019-07-07T10:06:22.808Z</time>
      </trkpt>
      <trkpt lat="42.96301333" lon="-0.24117833">
        <ele>1296.0</ele>
        <time>2019-07-07T10:06:23.834Z</time>
      </trkpt>
      <trkpt lat="42.96301333" lon="-0.24117833">
        <ele>1296.0</ele>
        <time>2019-07-07T10:06:24.840Z</time>
      </trkpt>
      <trkpt lat="42.962975" lon="-0.24121167">
        <ele>1296.0</ele>
        <time>2019-07-07T10:06:25.840Z</time>
      </trkpt>
      <trkpt lat="42.962975" lon="-0.24121167">
        <ele>1296.0</ele>
        <time>2019-07-07T10:06:26.806Z</time>
      </trkpt>
      <trkpt lat="42.96293833" lon="-0.24124667">
        <ele>1297.0</ele>
        <time>2019-07-07T10:06:27.824Z</time>
      </trkpt>
      <trkpt lat="42.96293833" lon="-0.24124667">
        <ele>1297.0</ele>
        <time>2019-07-07T10:06:28.830Z</time>
      </trkpt>
      <trkpt lat="42.962905" lon="-0.24128">
        <ele>1298.0</ele>
        <time>2019-07-07T10:06:29.804Z</time>
      </trkpt>
      <trkpt lat="42.96289" lon="-0.24129833">
        <ele>1298.0</ele>
        <time>2019-07-07T10:06:30.822Z</time>
      </trkpt>
      <trkpt lat="42.96287333" lon="-0.24131667">
        <ele>1299.0</ele>
        <time>2019-07-07T10:06:31.823Z</time>
      </trkpt>
      <trkpt lat="42.96287333" lon="-0.24131667">
        <ele>1299.0</ele>
        <time>2019-07-07T10:06:32.829Z</time>
      </trkpt>
      <trkpt lat="42.96284" lon="-0.24136167">
        <ele>1299.0</ele>
        <time>2019-07-07T10:06:33.834Z</time>
      </trkpt>
      <trkpt lat="42.96282333" lon="-0.24138167">
        <ele>1299.0</ele>
        <time>2019-07-07T10:06:34.819Z</time>
      </trkpt>
      <trkpt lat="42.96282333" lon="-0.24138167">
        <ele>1299.0</ele>
        <time>2019-07-07T10:06:35.825Z</time>
      </trkpt>
      <trkpt lat="42.96278833" lon="-0.24142667">
        <ele>1300.0</ele>
        <time>2019-07-07T10:06:36.814Z</time>
      </trkpt>
      <trkpt lat="42.96278833" lon="-0.24142667">
        <ele>1300.0</ele>
        <time>2019-07-07T10:06:37.820Z</time>
      </trkpt>
      <trkpt lat="42.96276833" lon="-0.24147667">
        <ele>1300.0</ele>
        <time>2019-07-07T10:06:38.812Z</time>
      </trkpt>
      <trkpt lat="42.96276" lon="-0.24150167">
        <ele>1300.0</ele>
        <time>2019-07-07T10:06:39.838Z</time>
      </trkpt>
      <trkpt lat="42.96276" lon="-0.24150167">
        <ele>1300.0</ele>
        <time>2019-07-07T10:06:40.804Z</time>
      </trkpt>
      <trkpt lat="42.96274333" lon="-0.24155333">
        <ele>1301.0</ele>
        <time>2019-07-07T10:06:41.825Z</time>
      </trkpt>
      <trkpt lat="42.96273667" lon="-0.24158333">
        <ele>1301.0</ele>
        <time>2019-07-07T10:06:42.813Z</time>
      </trkpt>
      <trkpt lat="42.96273667" lon="-0.24158333">
        <ele>1301.0</ele>
        <time>2019-07-07T10:06:43.819Z</time>
      </trkpt>
      <trkpt lat="42.962725" lon="-0.24164667">
        <ele>1302.0</ele>
        <time>2019-07-07T10:06:44.837Z</time>
      </trkpt>
      <trkpt lat="42.96272167" lon="-0.24167833">
        <ele>1302.0</ele>
        <time>2019-07-07T10:06:45.813Z</time>
      </trkpt>
      <trkpt lat="42.96272167" lon="-0.24167833">
        <ele>1302.0</ele>
        <time>2019-07-07T10:06:46.819Z</time>
      </trkpt>
      <trkpt lat="42.96272" lon="-0.24174333">
        <ele>1302.0</ele>
        <time>2019-07-07T10:06:47.820Z</time>
      </trkpt>
      <trkpt lat="42.96272" lon="-0.24174333">
        <ele>1302.0</ele>
        <time>2019-07-07T10:06:48.826Z</time>
      </trkpt>
      <trkpt lat="42.96272333" lon="-0.24180667">
        <ele>1302.0</ele>
        <time>2019-07-07T10:06:49.834Z</time>
      </trkpt>
      <trkpt lat="42.962725" lon="-0.24184333">
        <ele>1302.0</ele>
        <time>2019-07-07T10:06:50.814Z</time>
      </trkpt>
      <trkpt lat="42.962725" lon="-0.24184333">
        <ele>1302.0</ele>
        <time>2019-07-07T10:06:51.820Z</time>
      </trkpt>
      <trkpt lat="42.96273167" lon="-0.24191167">
        <ele>1302.0</ele>
        <time>2019-07-07T10:06:52.834Z</time>
      </trkpt>
      <trkpt lat="42.96273833" lon="-0.241945">
        <ele>1302.0</ele>
        <time>2019-07-07T10:06:53.804Z</time>
      </trkpt>
      <trkpt lat="42.96273833" lon="-0.241945">
        <ele>1302.0</ele>
        <time>2019-07-07T10:06:54.810Z</time>
      </trkpt>
      <trkpt lat="42.96275667" lon="-0.242">
        <ele>1302.0</ele>
        <time>2019-07-07T10:06:55.834Z</time>
      </trkpt>
      <trkpt lat="42.96276667" lon="-0.24202667">
        <ele>1303.0</ele>
        <time>2019-07-07T10:06:56.835Z</time>
      </trkpt>
      <trkpt lat="42.96276667" lon="-0.24202667">
        <ele>1303.0</ele>
        <time>2019-07-07T10:06:57.840Z</time>
      </trkpt>
      <trkpt lat="42.962785" lon="-0.24208333">
        <ele>1303.0</ele>
        <time>2019-07-07T10:06:58.820Z</time>
      </trkpt>
      <trkpt lat="42.962785" lon="-0.24208333">
        <ele>1303.0</ele>
        <time>2019-07-07T10:06:59.827Z</time>
      </trkpt>
      <trkpt lat="42.96280333" lon="-0.24213667">
        <ele>1304.0</ele>
        <time>2019-07-07T10:07:00.805Z</time>
      </trkpt>
      <trkpt lat="42.96280333" lon="-0.24213667">
        <ele>1304.0</ele>
        <time>2019-07-07T10:07:01.812Z</time>
      </trkpt>
      <trkpt lat="42.96283167" lon="-0.24218167">
        <ele>1304.0</ele>
        <time>2019-07-07T10:07:02.833Z</time>
      </trkpt>
      <trkpt lat="42.96284833" lon="-0.2422">
        <ele>1305.0</ele>
        <time>2019-07-07T10:07:03.804Z</time>
      </trkpt>
      <trkpt lat="42.962865" lon="-0.24221833">
        <ele>1305.0</ele>
        <time>2019-07-07T10:07:04.833Z</time>
      </trkpt>
      <trkpt lat="42.962865" lon="-0.24221833">
        <ele>1305.0</ele>
        <time>2019-07-07T10:07:05.839Z</time>
      </trkpt>
      <trkpt lat="42.9629" lon="-0.24225">
        <ele>1306.0</ele>
        <time>2019-07-07T10:07:06.838Z</time>
      </trkpt>
      <trkpt lat="42.9629" lon="-0.24225">
        <ele>1306.0</ele>
        <time>2019-07-07T10:07:07.804Z</time>
      </trkpt>
      <trkpt lat="42.96293167" lon="-0.242275">
        <ele>1307.0</ele>
        <time>2019-07-07T10:07:08.822Z</time>
      </trkpt>
      <trkpt lat="42.96295167" lon="-0.24228833">
        <ele>1307.0</ele>
        <time>2019-07-07T10:07:09.805Z</time>
      </trkpt>
      <trkpt lat="42.96295167" lon="-0.24228833">
        <ele>1307.0</ele>
        <time>2019-07-07T10:07:10.812Z</time>
      </trkpt>
      <trkpt lat="42.96299167" lon="-0.24230167">
        <ele>1308.0</ele>
        <time>2019-07-07T10:07:11.819Z</time>
      </trkpt>
      <trkpt lat="42.96301333" lon="-0.242305">
        <ele>1309.0</ele>
        <time>2019-07-07T10:07:12.813Z</time>
      </trkpt>
      <trkpt lat="42.96301333" lon="-0.242305">
        <ele>1309.0</ele>
        <time>2019-07-07T10:07:13.819Z</time>
      </trkpt>
      <trkpt lat="42.96305333" lon="-0.24230833">
        <ele>1309.0</ele>
        <time>2019-07-07T10:07:14.804Z</time>
      </trkpt>
      <trkpt lat="42.96305333" lon="-0.24230833">
        <ele>1309.0</ele>
        <time>2019-07-07T10:07:15.811Z</time>
      </trkpt>
      <trkpt lat="42.9631" lon="-0.24230667">
        <ele>1310.0</ele>
        <time>2019-07-07T10:07:16.824Z</time>
      </trkpt>
      <trkpt lat="42.96312333" lon="-0.242305">
        <ele>1310.0</ele>
        <time>2019-07-07T10:07:17.828Z</time>
      </trkpt>
      <trkpt lat="42.96314833" lon="-0.24230667">
        <ele>1311.0</ele>
        <time>2019-07-07T10:07:18.814Z</time>
      </trkpt>
      <trkpt lat="42.96317333" lon="-0.242305">
        <ele>1311.0</ele>
        <time>2019-07-07T10:07:19.824Z</time>
      </trkpt>
      <trkpt lat="42.96317333" lon="-0.242305">
        <ele>1311.0</ele>
        <time>2019-07-07T10:07:20.830Z</time>
      </trkpt>
      <trkpt lat="42.96322167" lon="-0.24231667">
        <ele>1312.0</ele>
        <time>2019-07-07T10:07:21.811Z</time>
      </trkpt>
      <trkpt lat="42.96322167" lon="-0.24231667">
        <ele>1312.0</ele>
        <time>2019-07-07T10:07:22.839Z</time>
      </trkpt>
      <trkpt lat="42.96327" lon="-0.242335">
        <ele>1312.0</ele>
        <time>2019-07-07T10:07:23.814Z</time>
      </trkpt>
      <trkpt lat="42.96327" lon="-0.242335">
        <ele>1312.0</ele>
        <time>2019-07-07T10:07:24.820Z</time>
      </trkpt>
      <trkpt lat="42.96331833" lon="-0.24236">
        <ele>1312.0</ele>
        <time>2019-07-07T10:07:25.839Z</time>
      </trkpt>
      <trkpt lat="42.96331833" lon="-0.24236">
        <ele>1312.0</ele>
        <time>2019-07-07T10:07:26.809Z</time>
      </trkpt>
      <trkpt lat="42.963355" lon="-0.24239833">
        <ele>1313.0</ele>
        <time>2019-07-07T10:07:27.819Z</time>
      </trkpt>
      <trkpt lat="42.963355" lon="-0.24239833">
        <ele>1313.0</ele>
        <time>2019-07-07T10:07:28.825Z</time>
      </trkpt>
      <trkpt lat="42.963395" lon="-0.24243333">
        <ele>1313.0</ele>
        <time>2019-07-07T10:07:29.824Z</time>
      </trkpt>
      <trkpt lat="42.963395" lon="-0.24243333">
        <ele>1313.0</ele>
        <time>2019-07-07T10:07:30.830Z</time>
      </trkpt>
      <trkpt lat="42.963425" lon="-0.24247833">
        <ele>1313.0</ele>
        <time>2019-07-07T10:07:31.822Z</time>
      </trkpt>
      <trkpt lat="42.96344" lon="-0.24250833">
        <ele>1313.0</ele>
        <time>2019-07-07T10:07:32.804Z</time>
      </trkpt>
      <trkpt lat="42.96344" lon="-0.24250833">
        <ele>1313.0</ele>
        <time>2019-07-07T10:07:33.815Z</time>
      </trkpt>
      <trkpt lat="42.96346167" lon="-0.24257">
        <ele>1314.0</ele>
        <time>2019-07-07T10:07:34.833Z</time>
      </trkpt>
      <trkpt lat="42.96346167" lon="-0.24257">
        <ele>1314.0</ele>
        <time>2019-07-07T10:07:35.801Z</time>
      </trkpt>
      <trkpt lat="42.96347333" lon="-0.242635">
        <ele>1315.0</ele>
        <time>2019-07-07T10:07:36.814Z</time>
      </trkpt>
      <trkpt lat="42.96347333" lon="-0.242635">
        <ele>1315.0</ele>
        <time>2019-07-07T10:07:37.820Z</time>
      </trkpt>
      <trkpt lat="42.96348" lon="-0.24270333">
        <ele>1316.0</ele>
        <time>2019-07-07T10:07:38.814Z</time>
      </trkpt>
      <trkpt lat="42.96348" lon="-0.24270333">
        <ele>1316.0</ele>
        <time>2019-07-07T10:07:39.822Z</time>
      </trkpt>
      <trkpt lat="42.96347333" lon="-0.24277">
        <ele>1317.0</ele>
        <time>2019-07-07T10:07:40.814Z</time>
      </trkpt>
      <trkpt lat="42.96347333" lon="-0.24277">
        <ele>1317.0</ele>
        <time>2019-07-07T10:07:41.820Z</time>
      </trkpt>
      <trkpt lat="42.96345833" lon="-0.24283">
        <ele>1317.0</ele>
        <time>2019-07-07T10:07:42.813Z</time>
      </trkpt>
      <trkpt lat="42.96345833" lon="-0.24283">
        <ele>1317.0</ele>
        <time>2019-07-07T10:07:43.819Z</time>
      </trkpt>
      <trkpt lat="42.96343833" lon="-0.24288833">
        <ele>1317.0</ele>
        <time>2019-07-07T10:07:44.824Z</time>
      </trkpt>
      <trkpt lat="42.96343833" lon="-0.24288833">
        <ele>1317.0</ele>
        <time>2019-07-07T10:07:45.830Z</time>
      </trkpt>
      <trkpt lat="42.96341333" lon="-0.24294167">
        <ele>1318.0</ele>
        <time>2019-07-07T10:07:46.804Z</time>
      </trkpt>
      <trkpt lat="42.96341333" lon="-0.24294167">
        <ele>1318.0</ele>
        <time>2019-07-07T10:07:47.829Z</time>
      </trkpt>
      <trkpt lat="42.96338667" lon="-0.242995">
        <ele>1318.0</ele>
        <time>2019-07-07T10:07:48.813Z</time>
      </trkpt>
      <trkpt lat="42.96338667" lon="-0.242995">
        <ele>1318.0</ele>
        <time>2019-07-07T10:07:49.821Z</time>
      </trkpt>
      <trkpt lat="42.96335667" lon="-0.24305167">
        <ele>1318.0</ele>
        <time>2019-07-07T10:07:50.821Z</time>
      </trkpt>
      <trkpt lat="42.96334" lon="-0.24307833">
        <ele>1318.0</ele>
        <time>2019-07-07T10:07:51.804Z</time>
      </trkpt>
      <trkpt lat="42.96334" lon="-0.24307833">
        <ele>1318.0</ele>
        <time>2019-07-07T10:07:52.810Z</time>
      </trkpt>
      <trkpt lat="42.96330667" lon="-0.24312833">
        <ele>1318.0</ele>
        <time>2019-07-07T10:07:53.824Z</time>
      </trkpt>
      <trkpt lat="42.96329" lon="-0.24315167">
        <ele>1318.0</ele>
        <time>2019-07-07T10:07:54.835Z</time>
      </trkpt>
      <trkpt lat="42.96329" lon="-0.24315167">
        <ele>1318.0</ele>
        <time>2019-07-07T10:07:55.801Z</time>
      </trkpt>
      <trkpt lat="42.96325333" lon="-0.24319333">
        <ele>1319.0</ele>
        <time>2019-07-07T10:07:56.802Z</time>
      </trkpt>
      <trkpt lat="42.96325333" lon="-0.24319333">
        <ele>1319.0</ele>
        <time>2019-07-07T10:07:57.809Z</time>
      </trkpt>
      <trkpt lat="42.96321833" lon="-0.24324167">
        <ele>1320.0</ele>
        <time>2019-07-07T10:07:58.813Z</time>
      </trkpt>
      <trkpt lat="42.96320167" lon="-0.24326667">
        <ele>1320.0</ele>
        <time>2019-07-07T10:07:59.804Z</time>
      </trkpt>
      <trkpt lat="42.96320167" lon="-0.24326667">
        <ele>1320.0</ele>
        <time>2019-07-07T10:08:00.809Z</time>
      </trkpt>
      <trkpt lat="42.96316833" lon="-0.243315">
        <ele>1320.0</ele>
        <time>2019-07-07T10:08:01.824Z</time>
      </trkpt>
      <trkpt lat="42.96316833" lon="-0.243315">
        <ele>1320.0</ele>
        <time>2019-07-07T10:08:02.830Z</time>
      </trkpt>
      <trkpt lat="42.96313833" lon="-0.24336167">
        <ele>1321.0</ele>
        <time>2019-07-07T10:08:03.819Z</time>
      </trkpt>
      <trkpt lat="42.96313833" lon="-0.24336167">
        <ele>1321.0</ele>
        <time>2019-07-07T10:08:04.825Z</time>
      </trkpt>
      <trkpt lat="42.96310833" lon="-0.24341">
        <ele>1321.0</ele>
        <time>2019-07-07T10:08:05.823Z</time>
      </trkpt>
      <trkpt lat="42.96309667" lon="-0.24343">
        <ele>1321.0</ele>
        <time>2019-07-07T10:08:06.823Z</time>
      </trkpt>
      <trkpt lat="42.96309667" lon="-0.24343">
        <ele>1321.0</ele>
        <time>2019-07-07T10:08:07.829Z</time>
      </trkpt>
      <trkpt lat="42.963065" lon="-0.24347833">
        <ele>1322.0</ele>
        <time>2019-07-07T10:08:08.813Z</time>
      </trkpt>
      <trkpt lat="42.963065" lon="-0.24347833">
        <ele>1322.0</ele>
        <time>2019-07-07T10:08:09.821Z</time>
      </trkpt>
      <trkpt lat="42.963045" lon="-0.24352333">
        <ele>1322.0</ele>
        <time>2019-07-07T10:08:10.810Z</time>
      </trkpt>
      <trkpt lat="42.963045" lon="-0.24352333">
        <ele>1322.0</ele>
        <time>2019-07-07T10:08:11.816Z</time>
      </trkpt>
      <trkpt lat="42.963025" lon="-0.24356667">
        <ele>1323.0</ele>
        <time>2019-07-07T10:08:12.834Z</time>
      </trkpt>
      <trkpt lat="42.96301333" lon="-0.24359">
        <ele>1323.0</ele>
        <time>2019-07-07T10:08:13.801Z</time>
      </trkpt>
      <trkpt lat="42.96301333" lon="-0.24359">
        <ele>1323.0</ele>
        <time>2019-07-07T10:08:14.809Z</time>
      </trkpt>
      <trkpt lat="42.96299167" lon="-0.243645">
        <ele>1324.0</ele>
        <time>2019-07-07T10:08:15.823Z</time>
      </trkpt>
      <trkpt lat="42.96299167" lon="-0.243645">
        <ele>1324.0</ele>
        <time>2019-07-07T10:08:16.829Z</time>
      </trkpt>
      <trkpt lat="42.96296833" lon="-0.24369833">
        <ele>1325.0</ele>
        <time>2019-07-07T10:08:17.813Z</time>
      </trkpt>
      <trkpt lat="42.96295667" lon="-0.24372833">
        <ele>1324.0</ele>
        <time>2019-07-07T10:08:18.804Z</time>
      </trkpt>
      <trkpt lat="42.96295667" lon="-0.24372833">
        <ele>1324.0</ele>
        <time>2019-07-07T10:08:19.812Z</time>
      </trkpt>
      <trkpt lat="42.96293333" lon="-0.243795">
        <ele>1324.0</ele>
        <time>2019-07-07T10:08:20.825Z</time>
      </trkpt>
      <trkpt lat="42.96293333" lon="-0.243795">
        <ele>1324.0</ele>
        <time>2019-07-07T10:08:21.831Z</time>
      </trkpt>
      <trkpt lat="42.96291" lon="-0.24385333">
        <ele>1325.0</ele>
        <time>2019-07-07T10:08:22.803Z</time>
      </trkpt>
      <trkpt lat="42.96291" lon="-0.24385333">
        <ele>1325.0</ele>
        <time>2019-07-07T10:08:23.810Z</time>
      </trkpt>
      <trkpt lat="42.96289167" lon="-0.24390833">
        <ele>1325.0</ele>
        <time>2019-07-07T10:08:24.824Z</time>
      </trkpt>
      <trkpt lat="42.96289167" lon="-0.24390833">
        <ele>1325.0</ele>
        <time>2019-07-07T10:08:25.829Z</time>
      </trkpt>
      <trkpt lat="42.96287167" lon="-0.24396">
        <ele>1326.0</ele>
        <time>2019-07-07T10:08:26.804Z</time>
      </trkpt>
      <trkpt lat="42.96286167" lon="-0.24398667">
        <ele>1326.0</ele>
        <time>2019-07-07T10:08:27.824Z</time>
      </trkpt>
      <trkpt lat="42.96285167" lon="-0.24401167">
        <ele>1326.0</ele>
        <time>2019-07-07T10:08:28.838Z</time>
      </trkpt>
      <trkpt lat="42.96285167" lon="-0.24401167">
        <ele>1326.0</ele>
        <time>2019-07-07T10:08:29.804Z</time>
      </trkpt>
      <trkpt lat="42.96283" lon="-0.244065">
        <ele>1326.0</ele>
        <time>2019-07-07T10:08:30.802Z</time>
      </trkpt>
      <trkpt lat="42.96283" lon="-0.244065">
        <ele>1326.0</ele>
        <time>2019-07-07T10:08:31.808Z</time>
      </trkpt>
      <trkpt lat="42.96280667" lon="-0.244115">
        <ele>1327.0</ele>
        <time>2019-07-07T10:08:32.831Z</time>
      </trkpt>
      <trkpt lat="42.96279667" lon="-0.24414167">
        <ele>1327.0</ele>
        <time>2019-07-07T10:08:33.806Z</time>
      </trkpt>
      <trkpt lat="42.96279667" lon="-0.24414167">
        <ele>1327.0</ele>
        <time>2019-07-07T10:08:34.814Z</time>
      </trkpt>
      <trkpt lat="42.962775" lon="-0.24419167">
        <ele>1328.0</ele>
        <time>2019-07-07T10:08:35.834Z</time>
      </trkpt>
      <trkpt lat="42.962775" lon="-0.24419167">
        <ele>1328.0</ele>
        <time>2019-07-07T10:08:36.840Z</time>
      </trkpt>
      <trkpt lat="42.96275167" lon="-0.24424333">
        <ele>1328.0</ele>
        <time>2019-07-07T10:08:37.811Z</time>
      </trkpt>
      <trkpt lat="42.96275167" lon="-0.24424333">
        <ele>1328.0</ele>
        <time>2019-07-07T10:08:38.817Z</time>
      </trkpt>
      <trkpt lat="42.96273333" lon="-0.24429667">
        <ele>1328.0</ele>
        <time>2019-07-07T10:08:39.834Z</time>
      </trkpt>
      <trkpt lat="42.96272333" lon="-0.24432333">
        <ele>1328.0</ele>
        <time>2019-07-07T10:08:40.823Z</time>
      </trkpt>
      <trkpt lat="42.96272333" lon="-0.24432333">
        <ele>1328.0</ele>
        <time>2019-07-07T10:08:41.829Z</time>
      </trkpt>
      <trkpt lat="42.96270167" lon="-0.24437667">
        <ele>1329.0</ele>
        <time>2019-07-07T10:08:42.821Z</time>
      </trkpt>
      <trkpt lat="42.96270167" lon="-0.24437667">
        <ele>1329.0</ele>
        <time>2019-07-07T10:08:43.827Z</time>
      </trkpt>
      <trkpt lat="42.96267833" lon="-0.24442667">
        <ele>1329.0</ele>
        <time>2019-07-07T10:08:44.804Z</time>
      </trkpt>
      <trkpt lat="42.96266667" lon="-0.24445">
        <ele>1329.0</ele>
        <time>2019-07-07T10:08:45.823Z</time>
      </trkpt>
      <trkpt lat="42.96265667" lon="-0.244475">
        <ele>1330.0</ele>
        <time>2019-07-07T10:08:46.804Z</time>
      </trkpt>
      <trkpt lat="42.96265667" lon="-0.244475">
        <ele>1330.0</ele>
        <time>2019-07-07T10:08:47.817Z</time>
      </trkpt>
      <trkpt lat="42.962635" lon="-0.24452833">
        <ele>1330.0</ele>
        <time>2019-07-07T10:08:48.824Z</time>
      </trkpt>
      <trkpt lat="42.962635" lon="-0.24452833">
        <ele>1330.0</ele>
        <time>2019-07-07T10:08:49.825Z</time>
      </trkpt>
      <trkpt lat="42.96261" lon="-0.24458">
        <ele>1330.0</ele>
        <time>2019-07-07T10:08:50.824Z</time>
      </trkpt>
      <trkpt lat="42.96261" lon="-0.24458">
        <ele>1330.0</ele>
        <time>2019-07-07T10:08:51.829Z</time>
      </trkpt>
      <trkpt lat="42.96258333" lon="-0.24463167">
        <ele>1331.0</ele>
        <time>2019-07-07T10:08:52.804Z</time>
      </trkpt>
      <trkpt lat="42.96258333" lon="-0.24463167">
        <ele>1331.0</ele>
        <time>2019-07-07T10:08:53.810Z</time>
      </trkpt>
      <trkpt lat="42.96255667" lon="-0.24467833">
        <ele>1331.0</ele>
        <time>2019-07-07T10:08:54.833Z</time>
      </trkpt>
      <trkpt lat="42.96255667" lon="-0.24467833">
        <ele>1331.0</ele>
        <time>2019-07-07T10:08:55.839Z</time>
      </trkpt>
      <trkpt lat="42.96253" lon="-0.24471833">
        <ele>1331.0</ele>
        <time>2019-07-07T10:08:56.814Z</time>
      </trkpt>
      <trkpt lat="42.96253" lon="-0.24471833">
        <ele>1331.0</ele>
        <time>2019-07-07T10:08:57.820Z</time>
      </trkpt>
      <trkpt lat="42.96250333" lon="-0.24476">
        <ele>1332.0</ele>
        <time>2019-07-07T10:08:58.830Z</time>
      </trkpt>
      <trkpt lat="42.96248667" lon="-0.24478">
        <ele>1332.0</ele>
        <time>2019-07-07T10:08:59.815Z</time>
      </trkpt>
      <trkpt lat="42.96248667" lon="-0.24478">
        <ele>1332.0</ele>
        <time>2019-07-07T10:09:00.822Z</time>
      </trkpt>
      <trkpt lat="42.96245667" lon="-0.244825">
        <ele>1332.0</ele>
        <time>2019-07-07T10:09:01.804Z</time>
      </trkpt>
      <trkpt lat="42.96244" lon="-0.24484833">
        <ele>1333.0</ele>
        <time>2019-07-07T10:09:02.803Z</time>
      </trkpt>
      <trkpt lat="42.96242333" lon="-0.24487">
        <ele>1333.0</ele>
        <time>2019-07-07T10:09:03.814Z</time>
      </trkpt>
      <trkpt lat="42.962405" lon="-0.24488833">
        <ele>1333.0</ele>
        <time>2019-07-07T10:09:04.804Z</time>
      </trkpt>
      <trkpt lat="42.962405" lon="-0.24488833">
        <ele>1333.0</ele>
        <time>2019-07-07T10:09:05.810Z</time>
      </trkpt>
      <trkpt lat="42.96237167" lon="-0.24493167">
        <ele>1334.0</ele>
        <time>2019-07-07T10:09:06.824Z</time>
      </trkpt>
      <trkpt lat="42.962355" lon="-0.24495333">
        <ele>1334.0</ele>
        <time>2019-07-07T10:09:07.814Z</time>
      </trkpt>
      <trkpt lat="42.962355" lon="-0.24495333">
        <ele>1334.0</ele>
        <time>2019-07-07T10:09:08.819Z</time>
      </trkpt>
      <trkpt lat="42.96231833" lon="-0.24499333">
        <ele>1334.0</ele>
        <time>2019-07-07T10:09:09.830Z</time>
      </trkpt>
      <trkpt lat="42.96230167" lon="-0.24501833">
        <ele>1334.0</ele>
        <time>2019-07-07T10:09:10.804Z</time>
      </trkpt>
      <trkpt lat="42.96230167" lon="-0.24501833">
        <ele>1334.0</ele>
        <time>2019-07-07T10:09:11.810Z</time>
      </trkpt>
      <trkpt lat="42.96226167" lon="-0.24504833">
        <ele>1334.0</ele>
        <time>2019-07-07T10:09:12.834Z</time>
      </trkpt>
      <trkpt lat="42.96226167" lon="-0.24504833">
        <ele>1334.0</ele>
        <time>2019-07-07T10:09:13.839Z</time>
      </trkpt>
      <trkpt lat="42.962225" lon="-0.24508333">
        <ele>1335.0</ele>
        <time>2019-07-07T10:09:14.804Z</time>
      </trkpt>
      <trkpt lat="42.962225" lon="-0.24508333">
        <ele>1335.0</ele>
        <time>2019-07-07T10:09:15.815Z</time>
      </trkpt>
      <trkpt lat="42.96218333" lon="-0.24511">
        <ele>1335.0</ele>
        <time>2019-07-07T10:09:16.838Z</time>
      </trkpt>
      <trkpt lat="42.96216333" lon="-0.24512833">
        <ele>1335.0</ele>
        <time>2019-07-07T10:09:17.824Z</time>
      </trkpt>
      <trkpt lat="42.96216333" lon="-0.24512833">
        <ele>1335.0</ele>
        <time>2019-07-07T10:09:18.803Z</time>
      </trkpt>
      <trkpt lat="42.96212167" lon="-0.245165">
        <ele>1335.0</ele>
        <time>2019-07-07T10:09:19.834Z</time>
      </trkpt>
      <trkpt lat="42.96212167" lon="-0.245165">
        <ele>1335.0</ele>
        <time>2019-07-07T10:09:20.840Z</time>
      </trkpt>
      <trkpt lat="42.96208167" lon="-0.24519667">
        <ele>1335.0</ele>
        <time>2019-07-07T10:09:21.824Z</time>
      </trkpt>
      <trkpt lat="42.96208167" lon="-0.24519667">
        <ele>1335.0</ele>
        <time>2019-07-07T10:09:22.830Z</time>
      </trkpt>
      <trkpt lat="42.96204" lon="-0.24522833">
        <ele>1336.0</ele>
        <time>2019-07-07T10:09:23.813Z</time>
      </trkpt>
      <trkpt lat="42.96202167" lon="-0.24524667">
        <ele>1336.0</ele>
        <time>2019-07-07T10:09:24.833Z</time>
      </trkpt>
      <trkpt lat="42.96200167" lon="-0.24526667">
        <ele>1336.0</ele>
        <time>2019-07-07T10:09:25.803Z</time>
      </trkpt>
      <trkpt lat="42.96200167" lon="-0.24526667">
        <ele>1336.0</ele>
        <time>2019-07-07T10:09:26.812Z</time>
      </trkpt>
      <trkpt lat="42.96196333" lon="-0.24530667">
        <ele>1337.0</ele>
        <time>2019-07-07T10:09:27.824Z</time>
      </trkpt>
      <trkpt lat="42.961945" lon="-0.24532667">
        <ele>1337.0</ele>
        <time>2019-07-07T10:09:28.801Z</time>
      </trkpt>
      <trkpt lat="42.961925" lon="-0.245345">
        <ele>1337.0</ele>
        <time>2019-07-07T10:09:29.833Z</time>
      </trkpt>
      <trkpt lat="42.961925" lon="-0.245345">
        <ele>1337.0</ele>
        <time>2019-07-07T10:09:30.840Z</time>
      </trkpt>
      <trkpt lat="42.96188833" lon="-0.24538667">
        <ele>1337.0</ele>
        <time>2019-07-07T10:09:31.804Z</time>
      </trkpt>
      <trkpt lat="42.96186833" lon="-0.24540833">
        <ele>1338.0</ele>
        <time>2019-07-07T10:09:32.802Z</time>
      </trkpt>
      <trkpt lat="42.96184833" lon="-0.24543">
        <ele>1338.0</ele>
        <time>2019-07-07T10:09:33.804Z</time>
      </trkpt>
      <trkpt lat="42.96184833" lon="-0.24543">
        <ele>1338.0</ele>
        <time>2019-07-07T10:09:34.810Z</time>
      </trkpt>
      <trkpt lat="42.96180833" lon="-0.24546833">
        <ele>1338.0</ele>
        <time>2019-07-07T10:09:35.823Z</time>
      </trkpt>
      <trkpt lat="42.96178833" lon="-0.24548667">
        <ele>1338.0</ele>
        <time>2019-07-07T10:09:36.804Z</time>
      </trkpt>
      <trkpt lat="42.96178833" lon="-0.24548667">
        <ele>1338.0</ele>
        <time>2019-07-07T10:09:37.813Z</time>
      </trkpt>
      <trkpt lat="42.96175167" lon="-0.245525">
        <ele>1339.0</ele>
        <time>2019-07-07T10:09:38.823Z</time>
      </trkpt>
      <trkpt lat="42.961735" lon="-0.245545">
        <ele>1339.0</ele>
        <time>2019-07-07T10:09:39.834Z</time>
      </trkpt>
      <trkpt lat="42.961735" lon="-0.245545">
        <ele>1339.0</ele>
        <time>2019-07-07T10:09:40.840Z</time>
      </trkpt>
      <trkpt lat="42.96169833" lon="-0.24558167">
        <ele>1340.0</ele>
        <time>2019-07-07T10:09:41.824Z</time>
      </trkpt>
      <trkpt lat="42.96168" lon="-0.2456">
        <ele>1340.0</ele>
        <time>2019-07-07T10:09:42.803Z</time>
      </trkpt>
      <trkpt lat="42.96168" lon="-0.2456">
        <ele>1340.0</ele>
        <time>2019-07-07T10:09:43.814Z</time>
      </trkpt>
      <trkpt lat="42.96164167" lon="-0.24564333">
        <ele>1341.0</ele>
        <time>2019-07-07T10:09:44.837Z</time>
      </trkpt>
      <trkpt lat="42.96164167" lon="-0.24564333">
        <ele>1341.0</ele>
        <time>2019-07-07T10:09:45.803Z</time>
      </trkpt>
      <trkpt lat="42.961605" lon="-0.24568167">
        <ele>1341.0</ele>
        <time>2019-07-07T10:09:46.821Z</time>
      </trkpt>
      <trkpt lat="42.961605" lon="-0.24568167">
        <ele>1341.0</ele>
        <time>2019-07-07T10:09:47.815Z</time>
      </trkpt>
      <trkpt lat="42.96156833" lon="-0.24572">
        <ele>1342.0</ele>
        <time>2019-07-07T10:09:48.803Z</time>
      </trkpt>
      <trkpt lat="42.96156833" lon="-0.24572">
        <ele>1342.0</ele>
        <time>2019-07-07T10:09:49.814Z</time>
      </trkpt>
      <trkpt lat="42.96153167" lon="-0.245755">
        <ele>1342.0</ele>
        <time>2019-07-07T10:09:50.834Z</time>
      </trkpt>
      <trkpt lat="42.96153167" lon="-0.245755">
        <ele>1342.0</ele>
        <time>2019-07-07T10:09:51.801Z</time>
      </trkpt>
      <trkpt lat="42.961495" lon="-0.24578833">
        <ele>1343.0</ele>
        <time>2019-07-07T10:09:52.803Z</time>
      </trkpt>
      <trkpt lat="42.961495" lon="-0.24578833">
        <ele>1343.0</ele>
        <time>2019-07-07T10:09:53.809Z</time>
      </trkpt>
      <trkpt lat="42.96146" lon="-0.24582667">
        <ele>1344.0</ele>
        <time>2019-07-07T10:09:54.801Z</time>
      </trkpt>
      <trkpt lat="42.96146" lon="-0.24582667">
        <ele>1344.0</ele>
        <time>2019-07-07T10:09:55.809Z</time>
      </trkpt>
      <trkpt lat="42.961425" lon="-0.24586667">
        <ele>1344.0</ele>
        <time>2019-07-07T10:09:56.832Z</time>
      </trkpt>
      <trkpt lat="42.961425" lon="-0.24586667">
        <ele>1344.0</ele>
        <time>2019-07-07T10:09:57.839Z</time>
      </trkpt>
      <trkpt lat="42.96139167" lon="-0.24591">
        <ele>1345.0</ele>
        <time>2019-07-07T10:09:58.811Z</time>
      </trkpt>
      <trkpt lat="42.96139167" lon="-0.24591">
        <ele>1345.0</ele>
        <time>2019-07-07T10:09:59.818Z</time>
      </trkpt>
      <trkpt lat="42.96135667" lon="-0.24596">
        <ele>1345.0</ele>
        <time>2019-07-07T10:10:00.834Z</time>
      </trkpt>
      <trkpt lat="42.96135667" lon="-0.24596">
        <ele>1345.0</ele>
        <time>2019-07-07T10:10:01.840Z</time>
      </trkpt>
      <trkpt lat="42.96132333" lon="-0.24601167">
        <ele>1346.0</ele>
        <time>2019-07-07T10:10:02.801Z</time>
      </trkpt>
      <trkpt lat="42.96132333" lon="-0.24601167">
        <ele>1346.0</ele>
        <time>2019-07-07T10:10:03.807Z</time>
      </trkpt>
      <trkpt lat="42.961295" lon="-0.24606">
        <ele>1346.0</ele>
        <time>2019-07-07T10:10:04.823Z</time>
      </trkpt>
      <trkpt lat="42.961295" lon="-0.24606">
        <ele>1346.0</ele>
        <time>2019-07-07T10:10:05.829Z</time>
      </trkpt>
      <trkpt lat="42.961265" lon="-0.24611333">
        <ele>1347.0</ele>
        <time>2019-07-07T10:10:06.804Z</time>
      </trkpt>
      <trkpt lat="42.961265" lon="-0.24611333">
        <ele>1347.0</ele>
        <time>2019-07-07T10:10:07.811Z</time>
      </trkpt>
      <trkpt lat="42.96124" lon="-0.24617333">
        <ele>1347.0</ele>
        <time>2019-07-07T10:10:08.834Z</time>
      </trkpt>
      <trkpt lat="42.96123" lon="-0.24620333">
        <ele>1347.0</ele>
        <time>2019-07-07T10:10:09.814Z</time>
      </trkpt>
      <trkpt lat="42.96123" lon="-0.24620333">
        <ele>1347.0</ele>
        <time>2019-07-07T10:10:10.820Z</time>
      </trkpt>
      <trkpt lat="42.96121333" lon="-0.24626333">
        <ele>1347.0</ele>
        <time>2019-07-07T10:10:11.802Z</time>
      </trkpt>
      <trkpt lat="42.96120333" lon="-0.246295">
        <ele>1348.0</ele>
        <time>2019-07-07T10:10:12.814Z</time>
      </trkpt>
      <trkpt lat="42.96120333" lon="-0.246295">
        <ele>1348.0</ele>
        <time>2019-07-07T10:10:13.820Z</time>
      </trkpt>
      <trkpt lat="42.96118667" lon="-0.24635833">
        <ele>1348.0</ele>
        <time>2019-07-07T10:10:14.804Z</time>
      </trkpt>
      <trkpt lat="42.96117667" lon="-0.24639">
        <ele>1349.0</ele>
        <time>2019-07-07T10:10:15.820Z</time>
      </trkpt>
      <trkpt lat="42.96116667" lon="-0.24642">
        <ele>1349.0</ele>
        <time>2019-07-07T10:10:16.826Z</time>
      </trkpt>
      <trkpt lat="42.96116667" lon="-0.24642">
        <ele>1349.0</ele>
        <time>2019-07-07T10:10:17.831Z</time>
      </trkpt>
      <trkpt lat="42.96114833" lon="-0.24648167">
        <ele>1349.0</ele>
        <time>2019-07-07T10:10:18.814Z</time>
      </trkpt>
      <trkpt lat="42.96114833" lon="-0.24648167">
        <ele>1349.0</ele>
        <time>2019-07-07T10:10:19.831Z</time>
      </trkpt>
      <trkpt lat="42.96112833" lon="-0.24654167">
        <ele>1350.0</ele>
        <time>2019-07-07T10:10:20.814Z</time>
      </trkpt>
      <trkpt lat="42.96112833" lon="-0.24654167">
        <ele>1350.0</ele>
        <time>2019-07-07T10:10:21.820Z</time>
      </trkpt>
      <trkpt lat="42.96110833" lon="-0.246605">
        <ele>1350.0</ele>
        <time>2019-07-07T10:10:22.803Z</time>
      </trkpt>
      <trkpt lat="42.96110833" lon="-0.246605">
        <ele>1350.0</ele>
        <time>2019-07-07T10:10:23.810Z</time>
      </trkpt>
      <trkpt lat="42.96109333" lon="-0.24667167">
        <ele>1351.0</ele>
        <time>2019-07-07T10:10:24.833Z</time>
      </trkpt>
      <trkpt lat="42.96109333" lon="-0.24667167">
        <ele>1351.0</ele>
        <time>2019-07-07T10:10:25.840Z</time>
      </trkpt>
      <trkpt lat="42.96107333" lon="-0.24673167">
        <ele>1351.0</ele>
        <time>2019-07-07T10:10:26.809Z</time>
      </trkpt>
      <trkpt lat="42.96107333" lon="-0.24673167">
        <ele>1351.0</ele>
        <time>2019-07-07T10:10:27.815Z</time>
      </trkpt>
      <trkpt lat="42.96105333" lon="-0.24679">
        <ele>1352.0</ele>
        <time>2019-07-07T10:10:28.834Z</time>
      </trkpt>
      <trkpt lat="42.961045" lon="-0.24682">
        <ele>1352.0</ele>
        <time>2019-07-07T10:10:29.813Z</time>
      </trkpt>
      <trkpt lat="42.961035" lon="-0.24685">
        <ele>1352.0</ele>
        <time>2019-07-07T10:10:30.839Z</time>
      </trkpt>
      <trkpt lat="42.961035" lon="-0.24685">
        <ele>1352.0</ele>
        <time>2019-07-07T10:10:31.807Z</time>
      </trkpt>
      <trkpt lat="42.96101833" lon="-0.24691333">
        <ele>1352.0</ele>
        <time>2019-07-07T10:10:32.814Z</time>
      </trkpt>
      <trkpt lat="42.96101833" lon="-0.24691333">
        <ele>1352.0</ele>
        <time>2019-07-07T10:10:33.820Z</time>
      </trkpt>
      <trkpt lat="42.961" lon="-0.246975">
        <ele>1353.0</ele>
        <time>2019-07-07T10:10:34.838Z</time>
      </trkpt>
      <trkpt lat="42.96098833" lon="-0.24700667">
        <ele>1353.0</ele>
        <time>2019-07-07T10:10:35.814Z</time>
      </trkpt>
      <trkpt lat="42.96097667" lon="-0.24703667">
        <ele>1353.0</ele>
        <time>2019-07-07T10:10:36.804Z</time>
      </trkpt>
      <trkpt lat="42.96097667" lon="-0.24703667">
        <ele>1353.0</ele>
        <time>2019-07-07T10:10:37.810Z</time>
      </trkpt>
      <trkpt lat="42.96095833" lon="-0.247095">
        <ele>1353.0</ele>
        <time>2019-07-07T10:10:38.825Z</time>
      </trkpt>
      <trkpt lat="42.96095833" lon="-0.247095">
        <ele>1353.0</ele>
        <time>2019-07-07T10:10:39.831Z</time>
      </trkpt>
      <trkpt lat="42.96094167" lon="-0.24715833">
        <ele>1354.0</ele>
        <time>2019-07-07T10:10:40.814Z</time>
      </trkpt>
      <trkpt lat="42.96093333" lon="-0.24719">
        <ele>1354.0</ele>
        <time>2019-07-07T10:10:41.828Z</time>
      </trkpt>
      <trkpt lat="42.960925" lon="-0.24721833">
        <ele>1354.0</ele>
        <time>2019-07-07T10:10:42.840Z</time>
      </trkpt>
      <trkpt lat="42.960925" lon="-0.24721833">
        <ele>1354.0</ele>
        <time>2019-07-07T10:10:43.806Z</time>
      </trkpt>
      <trkpt lat="42.96091" lon="-0.24728">
        <ele>1355.0</ele>
        <time>2019-07-07T10:10:44.823Z</time>
      </trkpt>
      <trkpt lat="42.96090333" lon="-0.24731">
        <ele>1355.0</ele>
        <time>2019-07-07T10:10:45.834Z</time>
      </trkpt>
      <trkpt lat="42.96090333" lon="-0.24731">
        <ele>1355.0</ele>
        <time>2019-07-07T10:10:46.840Z</time>
      </trkpt>
      <trkpt lat="42.96088833" lon="-0.24737">
        <ele>1356.0</ele>
        <time>2019-07-07T10:10:47.838Z</time>
      </trkpt>
      <trkpt lat="42.960885" lon="-0.24740333">
        <ele>1356.0</ele>
        <time>2019-07-07T10:10:48.822Z</time>
      </trkpt>
      <trkpt lat="42.960885" lon="-0.24740333">
        <ele>1356.0</ele>
        <time>2019-07-07T10:10:49.828Z</time>
      </trkpt>
      <trkpt lat="42.960875" lon="-0.24746333">
        <ele>1356.0</ele>
        <time>2019-07-07T10:10:50.834Z</time>
      </trkpt>
      <trkpt lat="42.960875" lon="-0.24746333">
        <ele>1356.0</ele>
        <time>2019-07-07T10:10:51.840Z</time>
      </trkpt>
      <trkpt lat="42.960865" lon="-0.247525">
        <ele>1357.0</ele>
        <time>2019-07-07T10:10:52.830Z</time>
      </trkpt>
      <trkpt lat="42.960865" lon="-0.247525">
        <ele>1357.0</ele>
        <time>2019-07-07T10:10:53.836Z</time>
      </trkpt>
      <trkpt lat="42.960855" lon="-0.24758833">
        <ele>1357.0</ele>
        <time>2019-07-07T10:10:54.809Z</time>
      </trkpt>
      <trkpt lat="42.96085" lon="-0.24762">
        <ele>1357.0</ele>
        <time>2019-07-07T10:10:55.824Z</time>
      </trkpt>
      <trkpt lat="42.96085" lon="-0.24762">
        <ele>1357.0</ele>
        <time>2019-07-07T10:10:56.830Z</time>
      </trkpt>
      <trkpt lat="42.96084" lon="-0.247685">
        <ele>1358.0</ele>
        <time>2019-07-07T10:10:57.823Z</time>
      </trkpt>
      <trkpt lat="42.96083167" lon="-0.24771667">
        <ele>1358.0</ele>
        <time>2019-07-07T10:10:58.803Z</time>
      </trkpt>
      <trkpt lat="42.96083167" lon="-0.24771667">
        <ele>1358.0</ele>
        <time>2019-07-07T10:10:59.809Z</time>
      </trkpt>
      <trkpt lat="42.960815" lon="-0.24778333">
        <ele>1358.0</ele>
        <time>2019-07-07T10:11:00.821Z</time>
      </trkpt>
      <trkpt lat="42.960815" lon="-0.24778333">
        <ele>1358.0</ele>
        <time>2019-07-07T10:11:01.827Z</time>
      </trkpt>
      <trkpt lat="42.96079333" lon="-0.24784667">
        <ele>1358.0</ele>
        <time>2019-07-07T10:11:02.803Z</time>
      </trkpt>
      <trkpt lat="42.96078167" lon="-0.24787667">
        <ele>1359.0</ele>
        <time>2019-07-07T10:11:03.814Z</time>
      </trkpt>
      <trkpt lat="42.96078167" lon="-0.24787667">
        <ele>1359.0</ele>
        <time>2019-07-07T10:11:04.820Z</time>
      </trkpt>
      <trkpt lat="42.96075333" lon="-0.247935">
        <ele>1359.0</ele>
        <time>2019-07-07T10:11:05.814Z</time>
      </trkpt>
      <trkpt lat="42.96073833" lon="-0.24796333">
        <ele>1359.0</ele>
        <time>2019-07-07T10:11:06.823Z</time>
      </trkpt>
      <trkpt lat="42.96073833" lon="-0.24796333">
        <ele>1359.0</ele>
        <time>2019-07-07T10:11:07.829Z</time>
      </trkpt>
      <trkpt lat="42.96071333" lon="-0.24802">
        <ele>1359.0</ele>
        <time>2019-07-07T10:11:08.837Z</time>
      </trkpt>
      <trkpt lat="42.96071333" lon="-0.24802">
        <ele>1359.0</ele>
        <time>2019-07-07T10:11:09.803Z</time>
      </trkpt>
      <trkpt lat="42.96069167" lon="-0.24807833">
        <ele>1360.0</ele>
        <time>2019-07-07T10:11:10.814Z</time>
      </trkpt>
      <trkpt lat="42.96069167" lon="-0.24807833">
        <ele>1360.0</ele>
        <time>2019-07-07T10:11:11.820Z</time>
      </trkpt>
      <trkpt lat="42.96066667" lon="-0.24813667">
        <ele>1360.0</ele>
        <time>2019-07-07T10:11:12.833Z</time>
      </trkpt>
      <trkpt lat="42.96066667" lon="-0.24813667">
        <ele>1360.0</ele>
        <time>2019-07-07T10:11:13.839Z</time>
      </trkpt>
      <trkpt lat="42.96064167" lon="-0.248195">
        <ele>1361.0</ele>
        <time>2019-07-07T10:11:14.815Z</time>
      </trkpt>
      <trkpt lat="42.96062833" lon="-0.248225">
        <ele>1361.0</ele>
        <time>2019-07-07T10:11:15.834Z</time>
      </trkpt>
      <trkpt lat="42.96062833" lon="-0.248225">
        <ele>1361.0</ele>
        <time>2019-07-07T10:11:16.839Z</time>
      </trkpt>
      <trkpt lat="42.96060167" lon="-0.24828">
        <ele>1361.0</ele>
        <time>2019-07-07T10:11:17.814Z</time>
      </trkpt>
      <trkpt lat="42.96058333" lon="-0.24830833">
        <ele>1361.0</ele>
        <time>2019-07-07T10:11:18.820Z</time>
      </trkpt>
      <trkpt lat="42.96056833" lon="-0.24833667">
        <ele>1361.0</ele>
        <time>2019-07-07T10:11:19.813Z</time>
      </trkpt>
      <trkpt lat="42.96056833" lon="-0.24833667">
        <ele>1361.0</ele>
        <time>2019-07-07T10:11:20.820Z</time>
      </trkpt>
      <trkpt lat="42.96053333" lon="-0.24838333">
        <ele>1362.0</ele>
        <time>2019-07-07T10:11:21.841Z</time>
      </trkpt>
      <trkpt lat="42.96051667" lon="-0.24840667">
        <ele>1362.0</ele>
        <time>2019-07-07T10:11:22.803Z</time>
      </trkpt>
      <trkpt lat="42.96051667" lon="-0.24840667">
        <ele>1362.0</ele>
        <time>2019-07-07T10:11:23.809Z</time>
      </trkpt>
      <trkpt lat="42.96047833" lon="-0.24844833">
        <ele>1362.0</ele>
        <time>2019-07-07T10:11:24.812Z</time>
      </trkpt>
      <trkpt lat="42.96046" lon="-0.24847">
        <ele>1362.0</ele>
        <time>2019-07-07T10:11:25.839Z</time>
      </trkpt>
      <trkpt lat="42.96046" lon="-0.24847">
        <ele>1362.0</ele>
        <time>2019-07-07T10:11:26.805Z</time>
      </trkpt>
      <trkpt lat="42.96042" lon="-0.24851333">
        <ele>1363.0</ele>
        <time>2019-07-07T10:11:27.819Z</time>
      </trkpt>
      <trkpt lat="42.96040167" lon="-0.248535">
        <ele>1363.0</ele>
        <time>2019-07-07T10:11:28.832Z</time>
      </trkpt>
      <trkpt lat="42.96040167" lon="-0.248535">
        <ele>1363.0</ele>
        <time>2019-07-07T10:11:29.838Z</time>
      </trkpt>
      <trkpt lat="42.96036667" lon="-0.24858333">
        <ele>1363.0</ele>
        <time>2019-07-07T10:11:30.804Z</time>
      </trkpt>
      <trkpt lat="42.96035167" lon="-0.24860833">
        <ele>1363.0</ele>
        <time>2019-07-07T10:11:31.819Z</time>
      </trkpt>
      <trkpt lat="42.96035167" lon="-0.24860833">
        <ele>1363.0</ele>
        <time>2019-07-07T10:11:32.825Z</time>
      </trkpt>
      <trkpt lat="42.96032167" lon="-0.24866">
        <ele>1364.0</ele>
        <time>2019-07-07T10:11:33.814Z</time>
      </trkpt>
      <trkpt lat="42.96030667" lon="-0.24868667">
        <ele>1364.0</ele>
        <time>2019-07-07T10:11:34.803Z</time>
      </trkpt>
      <trkpt lat="42.96030667" lon="-0.24868667">
        <ele>1364.0</ele>
        <time>2019-07-07T10:11:35.809Z</time>
      </trkpt>
      <trkpt lat="42.96028167" lon="-0.248745">
        <ele>1364.0</ele>
        <time>2019-07-07T10:11:36.836Z</time>
      </trkpt>
      <trkpt lat="42.96028167" lon="-0.248745">
        <ele>1364.0</ele>
        <time>2019-07-07T10:11:37.802Z</time>
      </trkpt>
      <trkpt lat="42.96025833" lon="-0.248805">
        <ele>1365.0</ele>
        <time>2019-07-07T10:11:38.813Z</time>
      </trkpt>
      <trkpt lat="42.96024667" lon="-0.24883667">
        <ele>1365.0</ele>
        <time>2019-07-07T10:11:39.815Z</time>
      </trkpt>
      <trkpt lat="42.96024667" lon="-0.24883667">
        <ele>1365.0</ele>
        <time>2019-07-07T10:11:40.821Z</time>
      </trkpt>
      <trkpt lat="42.960225" lon="-0.2489">
        <ele>1366.0</ele>
        <time>2019-07-07T10:11:41.824Z</time>
      </trkpt>
      <trkpt lat="42.96021167" lon="-0.24893167">
        <ele>1366.0</ele>
        <time>2019-07-07T10:11:42.832Z</time>
      </trkpt>
      <trkpt lat="42.96021167" lon="-0.24893167">
        <ele>1366.0</ele>
        <time>2019-07-07T10:11:43.838Z</time>
      </trkpt>
      <trkpt lat="42.96019333" lon="-0.24899667">
        <ele>1366.0</ele>
        <time>2019-07-07T10:11:44.811Z</time>
      </trkpt>
      <trkpt lat="42.96019333" lon="-0.24899667">
        <ele>1366.0</ele>
        <time>2019-07-07T10:11:45.817Z</time>
      </trkpt>
      <trkpt lat="42.96017333" lon="-0.24906">
        <ele>1367.0</ele>
        <time>2019-07-07T10:11:46.834Z</time>
      </trkpt>
      <trkpt lat="42.96017333" lon="-0.24906">
        <ele>1367.0</ele>
        <time>2019-07-07T10:11:47.814Z</time>
      </trkpt>
      <trkpt lat="42.96015333" lon="-0.24912667">
        <ele>1368.0</ele>
        <time>2019-07-07T10:11:48.813Z</time>
      </trkpt>
      <trkpt lat="42.96014333" lon="-0.24915833">
        <ele>1368.0</ele>
        <time>2019-07-07T10:11:49.814Z</time>
      </trkpt>
      <trkpt lat="42.96014333" lon="-0.24915833">
        <ele>1368.0</ele>
        <time>2019-07-07T10:11:50.819Z</time>
      </trkpt>
      <trkpt lat="42.96012333" lon="-0.24922333">
        <ele>1368.0</ele>
        <time>2019-07-07T10:11:51.804Z</time>
      </trkpt>
      <trkpt lat="42.96012333" lon="-0.24922333">
        <ele>1368.0</ele>
        <time>2019-07-07T10:11:52.810Z</time>
      </trkpt>
      <trkpt lat="42.96010667" lon="-0.24928833">
        <ele>1369.0</ele>
        <time>2019-07-07T10:11:53.834Z</time>
      </trkpt>
      <trkpt lat="42.96010667" lon="-0.24928833">
        <ele>1369.0</ele>
        <time>2019-07-07T10:11:54.839Z</time>
      </trkpt>
      <trkpt lat="42.96008833" lon="-0.249355">
        <ele>1369.0</ele>
        <time>2019-07-07T10:11:55.839Z</time>
      </trkpt>
      <trkpt lat="42.96008833" lon="-0.249355">
        <ele>1369.0</ele>
        <time>2019-07-07T10:11:56.804Z</time>
      </trkpt>
      <trkpt lat="42.96007333" lon="-0.24941833">
        <ele>1370.0</ele>
        <time>2019-07-07T10:11:57.815Z</time>
      </trkpt>
      <trkpt lat="42.96007333" lon="-0.24941833">
        <ele>1370.0</ele>
        <time>2019-07-07T10:11:58.821Z</time>
      </trkpt>
      <trkpt lat="42.96006333" lon="-0.249485">
        <ele>1370.0</ele>
        <time>2019-07-07T10:11:59.812Z</time>
      </trkpt>
      <trkpt lat="42.96005833" lon="-0.24951833">
        <ele>1370.0</ele>
        <time>2019-07-07T10:12:00.814Z</time>
      </trkpt>
      <trkpt lat="42.96005833" lon="-0.24951833">
        <ele>1370.0</ele>
        <time>2019-07-07T10:12:01.820Z</time>
      </trkpt>
      <trkpt lat="42.96005667" lon="-0.249585">
        <ele>1371.0</ele>
        <time>2019-07-07T10:12:02.824Z</time>
      </trkpt>
      <trkpt lat="42.960055" lon="-0.24961833">
        <ele>1371.0</ele>
        <time>2019-07-07T10:12:03.834Z</time>
      </trkpt>
      <trkpt lat="42.960055" lon="-0.24961833">
        <ele>1371.0</ele>
        <time>2019-07-07T10:12:04.840Z</time>
      </trkpt>
      <trkpt lat="42.96005833" lon="-0.24968333">
        <ele>1372.0</ele>
        <time>2019-07-07T10:12:05.814Z</time>
      </trkpt>
      <trkpt lat="42.96006333" lon="-0.249715">
        <ele>1372.0</ele>
        <time>2019-07-07T10:12:06.814Z</time>
      </trkpt>
      <trkpt lat="42.96006333" lon="-0.249715">
        <ele>1372.0</ele>
        <time>2019-07-07T10:12:07.819Z</time>
      </trkpt>
      <trkpt lat="42.96007" lon="-0.24978">
        <ele>1372.0</ele>
        <time>2019-07-07T10:12:08.824Z</time>
      </trkpt>
      <trkpt lat="42.960075" lon="-0.24981167">
        <ele>1372.0</ele>
        <time>2019-07-07T10:12:09.814Z</time>
      </trkpt>
      <trkpt lat="42.960075" lon="-0.24981167">
        <ele>1372.0</ele>
        <time>2019-07-07T10:12:10.819Z</time>
      </trkpt>
      <trkpt lat="42.960085" lon="-0.24987333">
        <ele>1373.0</ele>
        <time>2019-07-07T10:12:11.804Z</time>
      </trkpt>
      <trkpt lat="42.96009167" lon="-0.249905">
        <ele>1373.0</ele>
        <time>2019-07-07T10:12:12.824Z</time>
      </trkpt>
      <trkpt lat="42.96009167" lon="-0.249905">
        <ele>1373.0</ele>
        <time>2019-07-07T10:12:13.830Z</time>
      </trkpt>
      <trkpt lat="42.96010833" lon="-0.249965">
        <ele>1373.0</ele>
        <time>2019-07-07T10:12:14.803Z</time>
      </trkpt>
      <trkpt lat="42.96010833" lon="-0.249965">
        <ele>1373.0</ele>
        <time>2019-07-07T10:12:15.810Z</time>
      </trkpt>
      <trkpt lat="42.96012667" lon="-0.25002833">
        <ele>1374.0</ele>
        <time>2019-07-07T10:12:16.834Z</time>
      </trkpt>
      <trkpt lat="42.96012667" lon="-0.25002833">
        <ele>1374.0</ele>
        <time>2019-07-07T10:12:17.839Z</time>
      </trkpt>
      <trkpt lat="42.96014667" lon="-0.25008833">
        <ele>1374.0</ele>
        <time>2019-07-07T10:12:18.834Z</time>
      </trkpt>
      <trkpt lat="42.96014667" lon="-0.25008833">
        <ele>1374.0</ele>
        <time>2019-07-07T10:12:19.840Z</time>
      </trkpt>
      <trkpt lat="42.960175" lon="-0.25014167">
        <ele>1374.0</ele>
        <time>2019-07-07T10:12:20.824Z</time>
      </trkpt>
      <trkpt lat="42.960175" lon="-0.25014167">
        <ele>1374.0</ele>
        <time>2019-07-07T10:12:21.831Z</time>
      </trkpt>
      <trkpt lat="42.96020333" lon="-0.25019333">
        <ele>1375.0</ele>
        <time>2019-07-07T10:12:22.813Z</time>
      </trkpt>
      <trkpt lat="42.96022" lon="-0.25021667">
        <ele>1375.0</ele>
        <time>2019-07-07T10:12:23.813Z</time>
      </trkpt>
      <trkpt lat="42.96023833" lon="-0.25023833">
        <ele>1376.0</ele>
        <time>2019-07-07T10:12:24.834Z</time>
      </trkpt>
      <trkpt lat="42.96023833" lon="-0.25023833">
        <ele>1376.0</ele>
        <time>2019-07-07T10:12:25.840Z</time>
      </trkpt>
      <trkpt lat="42.96027167" lon="-0.25027667">
        <ele>1376.0</ele>
        <time>2019-07-07T10:12:26.804Z</time>
      </trkpt>
      <trkpt lat="42.96027167" lon="-0.25027667">
        <ele>1376.0</ele>
        <time>2019-07-07T10:12:27.810Z</time>
      </trkpt>
      <trkpt lat="42.96030333" lon="-0.25030667">
        <ele>1377.0</ele>
        <time>2019-07-07T10:12:28.833Z</time>
      </trkpt>
      <trkpt lat="42.96030333" lon="-0.25030667">
        <ele>1377.0</ele>
        <time>2019-07-07T10:12:29.841Z</time>
      </trkpt>
      <trkpt lat="42.960345" lon="-0.25032667">
        <ele>1377.0</ele>
        <time>2019-07-07T10:12:30.805Z</time>
      </trkpt>
      <trkpt lat="42.960345" lon="-0.25032667">
        <ele>1377.0</ele>
        <time>2019-07-07T10:12:31.816Z</time>
      </trkpt>
      <trkpt lat="42.96038833" lon="-0.250335">
        <ele>1378.0</ele>
        <time>2019-07-07T10:12:32.830Z</time>
      </trkpt>
      <trkpt lat="42.96038833" lon="-0.250335">
        <ele>1378.0</ele>
        <time>2019-07-07T10:12:33.836Z</time>
      </trkpt>
      <trkpt lat="42.960435" lon="-0.25034">
        <ele>1379.0</ele>
        <time>2019-07-07T10:12:34.818Z</time>
      </trkpt>
      <trkpt lat="42.960435" lon="-0.25034">
        <ele>1379.0</ele>
        <time>2019-07-07T10:12:35.824Z</time>
      </trkpt>
      <trkpt lat="42.96048667" lon="-0.250335">
        <ele>1379.0</ele>
        <time>2019-07-07T10:12:36.803Z</time>
      </trkpt>
      <trkpt lat="42.96051333" lon="-0.25033333">
        <ele>1379.0</ele>
        <time>2019-07-07T10:12:37.824Z</time>
      </trkpt>
      <trkpt lat="42.96051333" lon="-0.25033333">
        <ele>1379.0</ele>
        <time>2019-07-07T10:12:38.829Z</time>
      </trkpt>
      <trkpt lat="42.960565" lon="-0.25033167">
        <ele>1380.0</ele>
        <time>2019-07-07T10:12:39.813Z</time>
      </trkpt>
      <trkpt lat="42.960565" lon="-0.25033167">
        <ele>1380.0</ele>
        <time>2019-07-07T10:12:40.819Z</time>
      </trkpt>
      <trkpt lat="42.96061333" lon="-0.25033333">
        <ele>1380.0</ele>
        <time>2019-07-07T10:12:41.815Z</time>
      </trkpt>
      <trkpt lat="42.96063833" lon="-0.25033333">
        <ele>1381.0</ele>
        <time>2019-07-07T10:12:42.831Z</time>
      </trkpt>
      <trkpt lat="42.96063833" lon="-0.25033333">
        <ele>1381.0</ele>
        <time>2019-07-07T10:12:43.837Z</time>
      </trkpt>
      <trkpt lat="42.96068333" lon="-0.25034333">
        <ele>1381.0</ele>
        <time>2019-07-07T10:12:44.803Z</time>
      </trkpt>
      <trkpt lat="42.96070667" lon="-0.25034667">
        <ele>1381.0</ele>
        <time>2019-07-07T10:12:45.822Z</time>
      </trkpt>
      <trkpt lat="42.96070667" lon="-0.25034667">
        <ele>1381.0</ele>
        <time>2019-07-07T10:12:46.828Z</time>
      </trkpt>
      <trkpt lat="42.96075333" lon="-0.25035833">
        <ele>1382.0</ele>
        <time>2019-07-07T10:12:47.812Z</time>
      </trkpt>
      <trkpt lat="42.96077833" lon="-0.250365">
        <ele>1382.0</ele>
        <time>2019-07-07T10:12:48.811Z</time>
      </trkpt>
      <trkpt lat="42.96080333" lon="-0.25036833">
        <ele>1383.0</ele>
        <time>2019-07-07T10:12:49.830Z</time>
      </trkpt>
      <trkpt lat="42.96080333" lon="-0.25036833">
        <ele>1383.0</ele>
        <time>2019-07-07T10:12:50.836Z</time>
      </trkpt>
      <trkpt lat="42.96085333" lon="-0.25037333">
        <ele>1383.0</ele>
        <time>2019-07-07T10:12:51.804Z</time>
      </trkpt>
      <trkpt lat="42.96085333" lon="-0.25037333">
        <ele>1383.0</ele>
        <time>2019-07-07T10:12:52.810Z</time>
      </trkpt>
      <trkpt lat="42.960905" lon="-0.25037667">
        <ele>1384.0</ele>
        <time>2019-07-07T10:12:53.813Z</time>
      </trkpt>
      <trkpt lat="42.96093" lon="-0.250375">
        <ele>1384.0</ele>
        <time>2019-07-07T10:12:54.804Z</time>
      </trkpt>
      <trkpt lat="42.96093" lon="-0.250375">
        <ele>1384.0</ele>
        <time>2019-07-07T10:12:55.810Z</time>
      </trkpt>
      <trkpt lat="42.96098167" lon="-0.25039167">
        <ele>1385.0</ele>
        <time>2019-07-07T10:12:56.815Z</time>
      </trkpt>
      <trkpt lat="42.961005" lon="-0.25040667">
        <ele>1385.0</ele>
        <time>2019-07-07T10:12:57.832Z</time>
      </trkpt>
      <trkpt lat="42.961005" lon="-0.25040667">
        <ele>1385.0</ele>
        <time>2019-07-07T10:12:58.838Z</time>
      </trkpt>
      <trkpt lat="42.96105167" lon="-0.25044667">
        <ele>1385.0</ele>
        <time>2019-07-07T10:12:59.829Z</time>
      </trkpt>
      <trkpt lat="42.96105167" lon="-0.25044667">
        <ele>1385.0</ele>
        <time>2019-07-07T10:13:00.835Z</time>
      </trkpt>
      <trkpt lat="42.96109333" lon="-0.25049667">
        <ele>1385.0</ele>
        <time>2019-07-07T10:13:01.824Z</time>
      </trkpt>
      <trkpt lat="42.96109333" lon="-0.25049667">
        <ele>1385.0</ele>
        <time>2019-07-07T10:13:02.830Z</time>
      </trkpt>
      <trkpt lat="42.96112833" lon="-0.25055667">
        <ele>1385.0</ele>
        <time>2019-07-07T10:13:03.810Z</time>
      </trkpt>
      <trkpt lat="42.96114167" lon="-0.25058833">
        <ele>1385.0</ele>
        <time>2019-07-07T10:13:04.824Z</time>
      </trkpt>
      <trkpt lat="42.96114167" lon="-0.25058833">
        <ele>1385.0</ele>
        <time>2019-07-07T10:13:05.829Z</time>
      </trkpt>
      <trkpt lat="42.96116167" lon="-0.250655">
        <ele>1386.0</ele>
        <time>2019-07-07T10:13:06.805Z</time>
      </trkpt>
      <trkpt lat="42.96116167" lon="-0.250655">
        <ele>1386.0</ele>
        <time>2019-07-07T10:13:07.811Z</time>
      </trkpt>
      <trkpt lat="42.961175" lon="-0.250725">
        <ele>1386.0</ele>
        <time>2019-07-07T10:13:08.824Z</time>
      </trkpt>
      <trkpt lat="42.96117833" lon="-0.25076167">
        <ele>1386.0</ele>
        <time>2019-07-07T10:13:09.820Z</time>
      </trkpt>
      <trkpt lat="42.96117833" lon="-0.25076167">
        <ele>1386.0</ele>
        <time>2019-07-07T10:13:10.826Z</time>
      </trkpt>
      <trkpt lat="42.96117333" lon="-0.25083333">
        <ele>1387.0</ele>
        <time>2019-07-07T10:13:11.804Z</time>
      </trkpt>
      <trkpt lat="42.96116833" lon="-0.25086667">
        <ele>1387.0</ele>
        <time>2019-07-07T10:13:12.808Z</time>
      </trkpt>
      <trkpt lat="42.96116833" lon="-0.25086667">
        <ele>1387.0</ele>
        <time>2019-07-07T10:13:13.814Z</time>
      </trkpt>
      <trkpt lat="42.96116167" lon="-0.250935">
        <ele>1388.0</ele>
        <time>2019-07-07T10:13:14.804Z</time>
      </trkpt>
      <trkpt lat="42.96116167" lon="-0.250935">
        <ele>1388.0</ele>
        <time>2019-07-07T10:13:15.814Z</time>
      </trkpt>
      <trkpt lat="42.96115167" lon="-0.251">
        <ele>1388.0</ele>
        <time>2019-07-07T10:13:16.831Z</time>
      </trkpt>
      <trkpt lat="42.96115167" lon="-0.251">
        <ele>1388.0</ele>
        <time>2019-07-07T10:13:17.837Z</time>
      </trkpt>
      <trkpt lat="42.96114167" lon="-0.25106833">
        <ele>1389.0</ele>
        <time>2019-07-07T10:13:18.835Z</time>
      </trkpt>
      <trkpt lat="42.96114167" lon="-0.25106833">
        <ele>1389.0</ele>
        <time>2019-07-07T10:13:19.840Z</time>
      </trkpt>
      <trkpt lat="42.96112333" lon="-0.25113167">
        <ele>1389.0</ele>
        <time>2019-07-07T10:13:20.805Z</time>
      </trkpt>
      <trkpt lat="42.96112333" lon="-0.25113167">
        <ele>1389.0</ele>
        <time>2019-07-07T10:13:21.813Z</time>
      </trkpt>
      <trkpt lat="42.961105" lon="-0.25119167">
        <ele>1390.0</ele>
        <time>2019-07-07T10:13:22.802Z</time>
      </trkpt>
      <trkpt lat="42.961095" lon="-0.25121833">
        <ele>1390.0</ele>
        <time>2019-07-07T10:13:23.814Z</time>
      </trkpt>
      <trkpt lat="42.961095" lon="-0.25121833">
        <ele>1390.0</ele>
        <time>2019-07-07T10:13:24.820Z</time>
      </trkpt>
      <trkpt lat="42.96107667" lon="-0.25126667">
        <ele>1391.0</ele>
        <time>2019-07-07T10:13:25.804Z</time>
      </trkpt>
      <trkpt lat="42.96107" lon="-0.25129167">
        <ele>1391.0</ele>
        <time>2019-07-07T10:13:26.825Z</time>
      </trkpt>
      <trkpt lat="42.96107" lon="-0.25129167">
        <ele>1391.0</ele>
        <time>2019-07-07T10:13:27.831Z</time>
      </trkpt>
      <trkpt lat="42.96105667" lon="-0.25134167">
        <ele>1392.0</ele>
        <time>2019-07-07T10:13:28.824Z</time>
      </trkpt>
      <trkpt lat="42.96105667" lon="-0.25134167">
        <ele>1392.0</ele>
        <time>2019-07-07T10:13:29.830Z</time>
      </trkpt>
      <trkpt lat="42.96104333" lon="-0.25139167">
        <ele>1392.0</ele>
        <time>2019-07-07T10:13:30.824Z</time>
      </trkpt>
      <trkpt lat="42.96104333" lon="-0.25139167">
        <ele>1392.0</ele>
        <time>2019-07-07T10:13:31.830Z</time>
      </trkpt>
      <trkpt lat="42.961025" lon="-0.25143833">
        <ele>1393.0</ele>
        <time>2019-07-07T10:13:32.814Z</time>
      </trkpt>
      <trkpt lat="42.961025" lon="-0.25143833">
        <ele>1393.0</ele>
        <time>2019-07-07T10:13:33.819Z</time>
      </trkpt>
      <trkpt lat="42.96100667" lon="-0.25149667">
        <ele>1393.0</ele>
        <time>2019-07-07T10:13:34.834Z</time>
      </trkpt>
      <trkpt lat="42.96100167" lon="-0.25152667">
        <ele>1393.0</ele>
        <time>2019-07-07T10:13:35.824Z</time>
      </trkpt>
      <trkpt lat="42.96100167" lon="-0.25152667">
        <ele>1393.0</ele>
        <time>2019-07-07T10:13:36.829Z</time>
      </trkpt>
      <trkpt lat="42.96098667" lon="-0.25158667">
        <ele>1394.0</ele>
        <time>2019-07-07T10:13:37.823Z</time>
      </trkpt>
      <trkpt lat="42.96097833" lon="-0.25161667">
        <ele>1394.0</ele>
        <time>2019-07-07T10:13:38.824Z</time>
      </trkpt>
      <trkpt lat="42.96097833" lon="-0.25161667">
        <ele>1394.0</ele>
        <time>2019-07-07T10:13:39.829Z</time>
      </trkpt>
      <trkpt lat="42.96097" lon="-0.25167833">
        <ele>1394.0</ele>
        <time>2019-07-07T10:13:40.814Z</time>
      </trkpt>
      <trkpt lat="42.96096667" lon="-0.25171">
        <ele>1394.0</ele>
        <time>2019-07-07T10:13:41.824Z</time>
      </trkpt>
      <trkpt lat="42.96096667" lon="-0.25171">
        <ele>1394.0</ele>
        <time>2019-07-07T10:13:42.830Z</time>
      </trkpt>
      <trkpt lat="42.960965" lon="-0.25177333">
        <ele>1394.0</ele>
        <time>2019-07-07T10:13:43.803Z</time>
      </trkpt>
      <trkpt lat="42.96096667" lon="-0.25180167">
        <ele>1395.0</ele>
        <time>2019-07-07T10:13:44.824Z</time>
      </trkpt>
      <trkpt lat="42.96097167" lon="-0.25182833">
        <ele>1395.0</ele>
        <time>2019-07-07T10:13:45.814Z</time>
      </trkpt>
      <trkpt lat="42.96097167" lon="-0.25182833">
        <ele>1395.0</ele>
        <time>2019-07-07T10:13:46.819Z</time>
      </trkpt>
      <trkpt lat="42.960985" lon="-0.25188">
        <ele>1396.0</ele>
        <time>2019-07-07T10:13:47.834Z</time>
      </trkpt>
      <trkpt lat="42.960985" lon="-0.25188">
        <ele>1396.0</ele>
        <time>2019-07-07T10:13:48.824Z</time>
      </trkpt>
      <trkpt lat="42.96099833" lon="-0.25192333">
        <ele>1397.0</ele>
        <time>2019-07-07T10:13:49.833Z</time>
      </trkpt>
      <trkpt lat="42.96099833" lon="-0.25192333">
        <ele>1397.0</ele>
        <time>2019-07-07T10:13:50.839Z</time>
      </trkpt>
      <trkpt lat="42.96102167" lon="-0.25195833">
        <ele>1398.0</ele>
        <time>2019-07-07T10:13:51.824Z</time>
      </trkpt>
      <trkpt lat="42.96103333" lon="-0.25197333">
        <ele>1398.0</ele>
        <time>2019-07-07T10:13:52.808Z</time>
      </trkpt>
      <trkpt lat="42.96103333" lon="-0.25197333">
        <ele>1398.0</ele>
        <time>2019-07-07T10:13:53.817Z</time>
      </trkpt>
      <trkpt lat="42.96106167" lon="-0.25201">
        <ele>1399.0</ele>
        <time>2019-07-07T10:13:54.829Z</time>
      </trkpt>
      <trkpt lat="42.96106167" lon="-0.25201">
        <ele>1399.0</ele>
        <time>2019-07-07T10:13:55.835Z</time>
      </trkpt>
      <trkpt lat="42.96109" lon="-0.25204833">
        <ele>1399.0</ele>
        <time>2019-07-07T10:13:56.803Z</time>
      </trkpt>
      <trkpt lat="42.96109" lon="-0.25204833">
        <ele>1399.0</ele>
        <time>2019-07-07T10:13:57.810Z</time>
      </trkpt>
      <trkpt lat="42.96112" lon="-0.25209">
        <ele>1399.0</ele>
        <time>2019-07-07T10:13:58.836Z</time>
      </trkpt>
      <trkpt lat="42.961135" lon="-0.25211333">
        <ele>1399.0</ele>
        <time>2019-07-07T10:13:59.803Z</time>
      </trkpt>
      <trkpt lat="42.961135" lon="-0.25211333">
        <ele>1399.0</ele>
        <time>2019-07-07T10:14:00.809Z</time>
      </trkpt>
      <trkpt lat="42.961165" lon="-0.25215667">
        <ele>1399.0</ele>
        <time>2019-07-07T10:14:01.834Z</time>
      </trkpt>
      <trkpt lat="42.961165" lon="-0.25215667">
        <ele>1399.0</ele>
        <time>2019-07-07T10:14:02.839Z</time>
      </trkpt>
      <trkpt lat="42.96119167" lon="-0.25219833">
        <ele>1400.0</ele>
        <time>2019-07-07T10:14:03.813Z</time>
      </trkpt>
      <trkpt lat="42.961205" lon="-0.25222333">
        <ele>1400.0</ele>
        <time>2019-07-07T10:14:04.834Z</time>
      </trkpt>
      <trkpt lat="42.961205" lon="-0.25222333">
        <ele>1400.0</ele>
        <time>2019-07-07T10:14:05.840Z</time>
      </trkpt>
      <trkpt lat="42.96123" lon="-0.25227">
        <ele>1401.0</ele>
        <time>2019-07-07T10:14:06.834Z</time>
      </trkpt>
      <trkpt lat="42.96123" lon="-0.25227">
        <ele>1401.0</ele>
        <time>2019-07-07T10:14:07.839Z</time>
      </trkpt>
      <trkpt lat="42.961245" lon="-0.25233">
        <ele>1401.0</ele>
        <time>2019-07-07T10:14:08.824Z</time>
      </trkpt>
      <trkpt lat="42.96125167" lon="-0.25236167">
        <ele>1401.0</ele>
        <time>2019-07-07T10:14:09.813Z</time>
      </trkpt>
      <trkpt lat="42.96125167" lon="-0.25236167">
        <ele>1401.0</ele>
        <time>2019-07-07T10:14:10.820Z</time>
      </trkpt>
      <trkpt lat="42.96126" lon="-0.25242333">
        <ele>1402.0</ele>
        <time>2019-07-07T10:14:11.819Z</time>
      </trkpt>
      <trkpt lat="42.96126167" lon="-0.25245667">
        <ele>1402.0</ele>
        <time>2019-07-07T10:14:12.803Z</time>
      </trkpt>
      <trkpt lat="42.96126167" lon="-0.25245667">
        <ele>1402.0</ele>
        <time>2019-07-07T10:14:13.809Z</time>
      </trkpt>
      <trkpt lat="42.96126" lon="-0.25252333">
        <ele>1402.0</ele>
        <time>2019-07-07T10:14:14.824Z</time>
      </trkpt>
      <trkpt lat="42.96126" lon="-0.25252333">
        <ele>1402.0</ele>
        <time>2019-07-07T10:14:15.829Z</time>
      </trkpt>
      <trkpt lat="42.96125" lon="-0.25259">
        <ele>1403.0</ele>
        <time>2019-07-07T10:14:16.814Z</time>
      </trkpt>
      <trkpt lat="42.96125" lon="-0.25259">
        <ele>1403.0</ele>
        <time>2019-07-07T10:14:17.819Z</time>
      </trkpt>
      <trkpt lat="42.96123333" lon="-0.25266">
        <ele>1403.0</ele>
        <time>2019-07-07T10:14:18.813Z</time>
      </trkpt>
      <trkpt lat="42.96123333" lon="-0.25266">
        <ele>1403.0</ele>
        <time>2019-07-07T10:14:19.831Z</time>
      </trkpt>
      <trkpt lat="42.96121833" lon="-0.25271333">
        <ele>1404.0</ele>
        <time>2019-07-07T10:14:20.803Z</time>
      </trkpt>
      <trkpt lat="42.96121833" lon="-0.25271333">
        <ele>1404.0</ele>
        <time>2019-07-07T10:14:21.811Z</time>
      </trkpt>
      <trkpt lat="42.96120667" lon="-0.252765">
        <ele>1404.0</ele>
        <time>2019-07-07T10:14:22.824Z</time>
      </trkpt>
      <trkpt lat="42.96120667" lon="-0.252765">
        <ele>1404.0</ele>
        <time>2019-07-07T10:14:23.829Z</time>
      </trkpt>
      <trkpt lat="42.96119833" lon="-0.252815">
        <ele>1405.0</ele>
        <time>2019-07-07T10:14:24.803Z</time>
      </trkpt>
      <trkpt lat="42.96119833" lon="-0.252815">
        <ele>1405.0</ele>
        <time>2019-07-07T10:14:25.809Z</time>
      </trkpt>
      <trkpt lat="42.96118667" lon="-0.25286333">
        <ele>1405.0</ele>
        <time>2019-07-07T10:14:26.834Z</time>
      </trkpt>
      <trkpt lat="42.96118333" lon="-0.25289167">
        <ele>1406.0</ele>
        <time>2019-07-07T10:14:27.822Z</time>
      </trkpt>
      <trkpt lat="42.96118333" lon="-0.25289167">
        <ele>1406.0</ele>
        <time>2019-07-07T10:14:28.828Z</time>
      </trkpt>
      <trkpt lat="42.961175" lon="-0.25295167">
        <ele>1406.0</ele>
        <time>2019-07-07T10:14:29.841Z</time>
      </trkpt>
      <trkpt lat="42.961175" lon="-0.25295167">
        <ele>1406.0</ele>
        <time>2019-07-07T10:14:30.807Z</time>
      </trkpt>
      <trkpt lat="42.96117" lon="-0.25301833">
        <ele>1406.0</ele>
        <time>2019-07-07T10:14:31.805Z</time>
      </trkpt>
      <trkpt lat="42.96117" lon="-0.25304833">
        <ele>1406.0</ele>
        <time>2019-07-07T10:14:32.807Z</time>
      </trkpt>
      <trkpt lat="42.96117" lon="-0.25304833">
        <ele>1406.0</ele>
        <time>2019-07-07T10:14:33.813Z</time>
      </trkpt>
      <trkpt lat="42.96117167" lon="-0.25311333">
        <ele>1407.0</ele>
        <time>2019-07-07T10:14:34.834Z</time>
      </trkpt>
      <trkpt lat="42.96117167" lon="-0.25311333">
        <ele>1407.0</ele>
        <time>2019-07-07T10:14:35.840Z</time>
      </trkpt>
      <trkpt lat="42.961175" lon="-0.25317667">
        <ele>1407.0</ele>
        <time>2019-07-07T10:14:36.824Z</time>
      </trkpt>
      <trkpt lat="42.961175" lon="-0.25317667">
        <ele>1407.0</ele>
        <time>2019-07-07T10:14:37.829Z</time>
      </trkpt>
      <trkpt lat="42.96117667" lon="-0.25323833">
        <ele>1407.0</ele>
        <time>2019-07-07T10:14:38.834Z</time>
      </trkpt>
      <trkpt lat="42.96117667" lon="-0.25323833">
        <ele>1407.0</ele>
        <time>2019-07-07T10:14:39.841Z</time>
      </trkpt>
      <trkpt lat="42.96117667" lon="-0.25330167">
        <ele>1407.0</ele>
        <time>2019-07-07T10:14:40.824Z</time>
      </trkpt>
      <trkpt lat="42.96117667" lon="-0.25333167">
        <ele>1408.0</ele>
        <time>2019-07-07T10:14:41.804Z</time>
      </trkpt>
      <trkpt lat="42.96117833" lon="-0.25336167">
        <ele>1408.0</ele>
        <time>2019-07-07T10:14:42.823Z</time>
      </trkpt>
      <trkpt lat="42.96117833" lon="-0.25336167">
        <ele>1408.0</ele>
        <time>2019-07-07T10:14:43.829Z</time>
      </trkpt>
      <trkpt lat="42.96118333" lon="-0.25342167">
        <ele>1408.0</ele>
        <time>2019-07-07T10:14:44.834Z</time>
      </trkpt>
      <trkpt lat="42.96118333" lon="-0.25342167">
        <ele>1408.0</ele>
        <time>2019-07-07T10:14:45.839Z</time>
      </trkpt>
      <trkpt lat="42.96118667" lon="-0.25348">
        <ele>1409.0</ele>
        <time>2019-07-07T10:14:46.814Z</time>
      </trkpt>
      <trkpt lat="42.96118667" lon="-0.25348">
        <ele>1409.0</ele>
        <time>2019-07-07T10:14:47.818Z</time>
      </trkpt>
      <trkpt lat="42.96119" lon="-0.25354">
        <ele>1409.0</ele>
        <time>2019-07-07T10:14:48.823Z</time>
      </trkpt>
      <trkpt lat="42.96119" lon="-0.25354">
        <ele>1409.0</ele>
        <time>2019-07-07T10:14:49.830Z</time>
      </trkpt>
      <trkpt lat="42.96119333" lon="-0.25360167">
        <ele>1409.0</ele>
        <time>2019-07-07T10:14:50.820Z</time>
      </trkpt>
      <trkpt lat="42.96119333" lon="-0.25363333">
        <ele>1410.0</ele>
        <time>2019-07-07T10:14:51.823Z</time>
      </trkpt>
      <trkpt lat="42.96119333" lon="-0.25363333">
        <ele>1410.0</ele>
        <time>2019-07-07T10:14:52.831Z</time>
      </trkpt>
      <trkpt lat="42.96119167" lon="-0.253695">
        <ele>1410.0</ele>
        <time>2019-07-07T10:14:53.824Z</time>
      </trkpt>
      <trkpt lat="42.96119167" lon="-0.253695">
        <ele>1410.0</ele>
        <time>2019-07-07T10:14:54.833Z</time>
      </trkpt>
      <trkpt lat="42.96118333" lon="-0.253755">
        <ele>1411.0</ele>
        <time>2019-07-07T10:14:55.804Z</time>
      </trkpt>
      <trkpt lat="42.96118333" lon="-0.253755">
        <ele>1411.0</ele>
        <time>2019-07-07T10:14:56.821Z</time>
      </trkpt>
      <trkpt lat="42.96117167" lon="-0.25381667">
        <ele>1411.0</ele>
        <time>2019-07-07T10:14:57.803Z</time>
      </trkpt>
      <trkpt lat="42.96117167" lon="-0.25381667">
        <ele>1411.0</ele>
        <time>2019-07-07T10:14:58.811Z</time>
      </trkpt>
      <trkpt lat="42.961155" lon="-0.253875">
        <ele>1411.0</ele>
        <time>2019-07-07T10:14:59.812Z</time>
      </trkpt>
      <trkpt lat="42.961155" lon="-0.253875">
        <ele>1411.0</ele>
        <time>2019-07-07T10:15:00.820Z</time>
      </trkpt>
      <trkpt lat="42.96113167" lon="-0.25392667">
        <ele>1412.0</ele>
        <time>2019-07-07T10:15:01.813Z</time>
      </trkpt>
      <trkpt lat="42.96113167" lon="-0.25392667">
        <ele>1412.0</ele>
        <time>2019-07-07T10:15:02.821Z</time>
      </trkpt>
      <trkpt lat="42.96110167" lon="-0.25397">
        <ele>1412.0</ele>
        <time>2019-07-07T10:15:03.824Z</time>
      </trkpt>
      <trkpt lat="42.96110167" lon="-0.25397">
        <ele>1412.0</ele>
        <time>2019-07-07T10:15:04.831Z</time>
      </trkpt>
      <trkpt lat="42.96106667" lon="-0.25400833">
        <ele>1413.0</ele>
        <time>2019-07-07T10:15:05.815Z</time>
      </trkpt>
      <trkpt lat="42.96105" lon="-0.25402167">
        <ele>1413.0</ele>
        <time>2019-07-07T10:15:06.824Z</time>
      </trkpt>
      <trkpt lat="42.96105" lon="-0.25402167">
        <ele>1413.0</ele>
        <time>2019-07-07T10:15:07.831Z</time>
      </trkpt>
      <trkpt lat="42.96101333" lon="-0.25405">
        <ele>1414.0</ele>
        <time>2019-07-07T10:15:08.810Z</time>
      </trkpt>
      <trkpt lat="42.96101333" lon="-0.25405">
        <ele>1414.0</ele>
        <time>2019-07-07T10:15:09.821Z</time>
      </trkpt>
      <trkpt lat="42.960975" lon="-0.25407333">
        <ele>1415.0</ele>
        <time>2019-07-07T10:15:10.836Z</time>
      </trkpt>
      <trkpt lat="42.96095667" lon="-0.25408333">
        <ele>1415.0</ele>
        <time>2019-07-07T10:15:11.808Z</time>
      </trkpt>
      <trkpt lat="42.96095667" lon="-0.25408333">
        <ele>1415.0</ele>
        <time>2019-07-07T10:15:12.818Z</time>
      </trkpt>
      <trkpt lat="42.96091667" lon="-0.25410667">
        <ele>1416.0</ele>
        <time>2019-07-07T10:15:13.803Z</time>
      </trkpt>
      <trkpt lat="42.96091667" lon="-0.25410667">
        <ele>1416.0</ele>
        <time>2019-07-07T10:15:14.815Z</time>
      </trkpt>
      <trkpt lat="42.960875" lon="-0.25413667">
        <ele>1416.0</ele>
        <time>2019-07-07T10:15:15.838Z</time>
      </trkpt>
      <trkpt lat="42.960875" lon="-0.25413667">
        <ele>1416.0</ele>
        <time>2019-07-07T10:15:16.805Z</time>
      </trkpt>
      <trkpt lat="42.960835" lon="-0.25417">
        <ele>1417.0</ele>
        <time>2019-07-07T10:15:17.833Z</time>
      </trkpt>
      <trkpt lat="42.96081333" lon="-0.25418333">
        <ele>1417.0</ele>
        <time>2019-07-07T10:15:18.813Z</time>
      </trkpt>
      <trkpt lat="42.96081333" lon="-0.25418333">
        <ele>1417.0</ele>
        <time>2019-07-07T10:15:19.824Z</time>
      </trkpt>
      <trkpt lat="42.960775" lon="-0.25421333">
        <ele>1418.0</ele>
        <time>2019-07-07T10:15:20.805Z</time>
      </trkpt>
      <trkpt lat="42.960755" lon="-0.25422667">
        <ele>1418.0</ele>
        <time>2019-07-07T10:15:21.824Z</time>
      </trkpt>
      <trkpt lat="42.960755" lon="-0.25422667">
        <ele>1418.0</ele>
        <time>2019-07-07T10:15:22.830Z</time>
      </trkpt>
      <trkpt lat="42.96071667" lon="-0.25426333">
        <ele>1418.0</ele>
        <time>2019-07-07T10:15:23.813Z</time>
      </trkpt>
      <trkpt lat="42.9607" lon="-0.254285">
        <ele>1418.0</ele>
        <time>2019-07-07T10:15:24.834Z</time>
      </trkpt>
      <trkpt lat="42.9607" lon="-0.254285">
        <ele>1418.0</ele>
        <time>2019-07-07T10:15:25.802Z</time>
      </trkpt>
      <trkpt lat="42.96066667" lon="-0.25433">
        <ele>1419.0</ele>
        <time>2019-07-07T10:15:26.814Z</time>
      </trkpt>
      <trkpt lat="42.96064833" lon="-0.25435">
        <ele>1419.0</ele>
        <time>2019-07-07T10:15:27.824Z</time>
      </trkpt>
      <trkpt lat="42.96064833" lon="-0.25435">
        <ele>1419.0</ele>
        <time>2019-07-07T10:15:28.831Z</time>
      </trkpt>
      <trkpt lat="42.960615" lon="-0.25439167">
        <ele>1420.0</ele>
        <time>2019-07-07T10:15:29.813Z</time>
      </trkpt>
      <trkpt lat="42.960615" lon="-0.25439167">
        <ele>1420.0</ele>
        <time>2019-07-07T10:15:30.820Z</time>
      </trkpt>
      <trkpt lat="42.96058333" lon="-0.25443333">
        <ele>1420.0</ele>
        <time>2019-07-07T10:15:31.803Z</time>
      </trkpt>
      <trkpt lat="42.96058333" lon="-0.25443333">
        <ele>1420.0</ele>
        <time>2019-07-07T10:15:32.810Z</time>
      </trkpt>
      <trkpt lat="42.96054833" lon="-0.254475">
        <ele>1421.0</ele>
        <time>2019-07-07T10:15:33.824Z</time>
      </trkpt>
      <trkpt lat="42.96053167" lon="-0.25449667">
        <ele>1421.0</ele>
        <time>2019-07-07T10:15:34.824Z</time>
      </trkpt>
      <trkpt lat="42.96053167" lon="-0.25449667">
        <ele>1421.0</ele>
        <time>2019-07-07T10:15:35.830Z</time>
      </trkpt>
      <trkpt lat="42.96050167" lon="-0.25454333">
        <ele>1421.0</ele>
        <time>2019-07-07T10:15:36.833Z</time>
      </trkpt>
      <trkpt lat="42.96048667" lon="-0.25456333">
        <ele>1421.0</ele>
        <time>2019-07-07T10:15:37.814Z</time>
      </trkpt>
      <trkpt lat="42.96048667" lon="-0.25456333">
        <ele>1421.0</ele>
        <time>2019-07-07T10:15:38.820Z</time>
      </trkpt>
      <trkpt lat="42.96045333" lon="-0.25460333">
        <ele>1422.0</ele>
        <time>2019-07-07T10:15:39.833Z</time>
      </trkpt>
      <trkpt lat="42.96043833" lon="-0.254625">
        <ele>1422.0</ele>
        <time>2019-07-07T10:15:40.803Z</time>
      </trkpt>
      <trkpt lat="42.96043833" lon="-0.254625">
        <ele>1422.0</ele>
        <time>2019-07-07T10:15:41.810Z</time>
      </trkpt>
      <trkpt lat="42.96040833" lon="-0.25467333">
        <ele>1422.0</ele>
        <time>2019-07-07T10:15:42.814Z</time>
      </trkpt>
      <trkpt lat="42.96040833" lon="-0.25467333">
        <ele>1422.0</ele>
        <time>2019-07-07T10:15:43.819Z</time>
      </trkpt>
      <trkpt lat="42.96038" lon="-0.25471833">
        <ele>1423.0</ele>
        <time>2019-07-07T10:15:44.834Z</time>
      </trkpt>
      <trkpt lat="42.96038" lon="-0.25471833">
        <ele>1423.0</ele>
        <time>2019-07-07T10:15:45.840Z</time>
      </trkpt>
      <trkpt lat="42.96035667" lon="-0.25477333">
        <ele>1423.0</ele>
        <time>2019-07-07T10:15:46.833Z</time>
      </trkpt>
      <trkpt lat="42.96035667" lon="-0.25477333">
        <ele>1423.0</ele>
        <time>2019-07-07T10:15:47.821Z</time>
      </trkpt>
      <trkpt lat="42.960335" lon="-0.25482833">
        <ele>1424.0</ele>
        <time>2019-07-07T10:15:48.813Z</time>
      </trkpt>
      <trkpt lat="42.960325" lon="-0.254855">
        <ele>1424.0</ele>
        <time>2019-07-07T10:15:49.803Z</time>
      </trkpt>
      <trkpt lat="42.960325" lon="-0.254855">
        <ele>1424.0</ele>
        <time>2019-07-07T10:15:50.809Z</time>
      </trkpt>
      <trkpt lat="42.96031333" lon="-0.25491833">
        <ele>1424.0</ele>
        <time>2019-07-07T10:15:51.803Z</time>
      </trkpt>
      <trkpt lat="42.96030833" lon="-0.25495">
        <ele>1424.0</ele>
        <time>2019-07-07T10:15:52.831Z</time>
      </trkpt>
      <trkpt lat="42.96030833" lon="-0.25495">
        <ele>1424.0</ele>
        <time>2019-07-07T10:15:53.837Z</time>
      </trkpt>
      <trkpt lat="42.96029667" lon="-0.25501">
        <ele>1425.0</ele>
        <time>2019-07-07T10:15:54.815Z</time>
      </trkpt>
      <trkpt lat="42.96029667" lon="-0.25501">
        <ele>1425.0</ele>
        <time>2019-07-07T10:15:55.822Z</time>
      </trkpt>
      <trkpt lat="42.96028667" lon="-0.25507333">
        <ele>1425.0</ele>
        <time>2019-07-07T10:15:56.834Z</time>
      </trkpt>
      <trkpt lat="42.96028667" lon="-0.25507333">
        <ele>1425.0</ele>
        <time>2019-07-07T10:15:57.840Z</time>
      </trkpt>
      <trkpt lat="42.96028167" lon="-0.25513833">
        <ele>1426.0</ele>
        <time>2019-07-07T10:15:58.812Z</time>
      </trkpt>
      <trkpt lat="42.96028" lon="-0.25517167">
        <ele>1426.0</ele>
        <time>2019-07-07T10:15:59.804Z</time>
      </trkpt>
      <trkpt lat="42.96028" lon="-0.25517167">
        <ele>1426.0</ele>
        <time>2019-07-07T10:16:00.810Z</time>
      </trkpt>
      <trkpt lat="42.96027667" lon="-0.255235">
        <ele>1426.0</ele>
        <time>2019-07-07T10:16:01.820Z</time>
      </trkpt>
      <trkpt lat="42.96027667" lon="-0.255235">
        <ele>1426.0</ele>
        <time>2019-07-07T10:16:02.827Z</time>
      </trkpt>
      <trkpt lat="42.960275" lon="-0.25529833">
        <ele>1427.0</ele>
        <time>2019-07-07T10:16:03.803Z</time>
      </trkpt>
      <trkpt lat="42.960275" lon="-0.25529833">
        <ele>1427.0</ele>
        <time>2019-07-07T10:16:04.810Z</time>
      </trkpt>
      <trkpt lat="42.96027333" lon="-0.25536333">
        <ele>1427.0</ele>
        <time>2019-07-07T10:16:05.831Z</time>
      </trkpt>
      <trkpt lat="42.96027167" lon="-0.255395">
        <ele>1427.0</ele>
        <time>2019-07-07T10:16:06.804Z</time>
      </trkpt>
      <trkpt lat="42.96027167" lon="-0.255395">
        <ele>1427.0</ele>
        <time>2019-07-07T10:16:07.810Z</time>
      </trkpt>
      <trkpt lat="42.960275" lon="-0.255455">
        <ele>1428.0</ele>
        <time>2019-07-07T10:16:08.822Z</time>
      </trkpt>
      <trkpt lat="42.96027667" lon="-0.255485">
        <ele>1428.0</ele>
        <time>2019-07-07T10:16:09.834Z</time>
      </trkpt>
      <trkpt lat="42.96027667" lon="-0.255485">
        <ele>1428.0</ele>
        <time>2019-07-07T10:16:10.840Z</time>
      </trkpt>
      <trkpt lat="42.96028333" lon="-0.255545">
        <ele>1428.0</ele>
        <time>2019-07-07T10:16:11.824Z</time>
      </trkpt>
      <trkpt lat="42.96029" lon="-0.25557667">
        <ele>1428.0</ele>
        <time>2019-07-07T10:16:12.808Z</time>
      </trkpt>
      <trkpt lat="42.96029" lon="-0.25557667">
        <ele>1428.0</ele>
        <time>2019-07-07T10:16:13.816Z</time>
      </trkpt>
      <trkpt lat="42.96030167" lon="-0.255635">
        <ele>1429.0</ele>
        <time>2019-07-07T10:16:14.834Z</time>
      </trkpt>
      <trkpt lat="42.96030833" lon="-0.255665">
        <ele>1429.0</ele>
        <time>2019-07-07T10:16:15.803Z</time>
      </trkpt>
      <trkpt lat="42.96030833" lon="-0.255665">
        <ele>1429.0</ele>
        <time>2019-07-07T10:16:16.810Z</time>
      </trkpt>
      <trkpt lat="42.960325" lon="-0.25572167">
        <ele>1429.0</ele>
        <time>2019-07-07T10:16:17.823Z</time>
      </trkpt>
      <trkpt lat="42.960335" lon="-0.25574833">
        <ele>1430.0</ele>
        <time>2019-07-07T10:16:18.827Z</time>
      </trkpt>
      <trkpt lat="42.96034667" lon="-0.255775">
        <ele>1430.0</ele>
        <time>2019-07-07T10:16:19.824Z</time>
      </trkpt>
      <trkpt lat="42.96034667" lon="-0.255775">
        <ele>1430.0</ele>
        <time>2019-07-07T10:16:20.830Z</time>
      </trkpt>
      <trkpt lat="42.96037167" lon="-0.255825">
        <ele>1430.0</ele>
        <time>2019-07-07T10:16:21.813Z</time>
      </trkpt>
      <trkpt lat="42.96038833" lon="-0.25584833">
        <ele>1430.0</ele>
        <time>2019-07-07T10:16:22.834Z</time>
      </trkpt>
      <trkpt lat="42.96038833" lon="-0.25584833">
        <ele>1430.0</ele>
        <time>2019-07-07T10:16:23.840Z</time>
      </trkpt>
      <trkpt lat="42.96042" lon="-0.25589167">
        <ele>1431.0</ele>
        <time>2019-07-07T10:16:24.824Z</time>
      </trkpt>
      <trkpt lat="42.96043667" lon="-0.25591">
        <ele>1431.0</ele>
        <time>2019-07-07T10:16:25.812Z</time>
      </trkpt>
      <trkpt lat="42.96043667" lon="-0.25591">
        <ele>1431.0</ele>
        <time>2019-07-07T10:16:26.819Z</time>
      </trkpt>
      <trkpt lat="42.96047333" lon="-0.255945">
        <ele>1432.0</ele>
        <time>2019-07-07T10:16:27.834Z</time>
      </trkpt>
      <trkpt lat="42.96047333" lon="-0.255945">
        <ele>1432.0</ele>
        <time>2019-07-07T10:16:28.840Z</time>
      </trkpt>
      <trkpt lat="42.96051167" lon="-0.25597833">
        <ele>1432.0</ele>
        <time>2019-07-07T10:16:29.827Z</time>
      </trkpt>
      <trkpt lat="42.96053167" lon="-0.25599333">
        <ele>1433.0</ele>
        <time>2019-07-07T10:16:30.834Z</time>
      </trkpt>
      <trkpt lat="42.96053167" lon="-0.25599333">
        <ele>1433.0</ele>
        <time>2019-07-07T10:16:31.840Z</time>
      </trkpt>
      <trkpt lat="42.96057333" lon="-0.25602667">
        <ele>1433.0</ele>
        <time>2019-07-07T10:16:32.829Z</time>
      </trkpt>
      <trkpt lat="42.96057333" lon="-0.25602667">
        <ele>1433.0</ele>
        <time>2019-07-07T10:16:33.835Z</time>
      </trkpt>
      <trkpt lat="42.960615" lon="-0.25606167">
        <ele>1434.0</ele>
        <time>2019-07-07T10:16:34.810Z</time>
      </trkpt>
      <trkpt lat="42.960615" lon="-0.25606167">
        <ele>1434.0</ele>
        <time>2019-07-07T10:16:35.817Z</time>
      </trkpt>
      <trkpt lat="42.96065167" lon="-0.25610167">
        <ele>1434.0</ele>
        <time>2019-07-07T10:16:36.829Z</time>
      </trkpt>
      <trkpt lat="42.96065167" lon="-0.25610167">
        <ele>1434.0</ele>
        <time>2019-07-07T10:16:37.835Z</time>
      </trkpt>
      <trkpt lat="42.96069" lon="-0.25614">
        <ele>1434.0</ele>
        <time>2019-07-07T10:16:38.815Z</time>
      </trkpt>
      <trkpt lat="42.96069" lon="-0.25614">
        <ele>1434.0</ele>
        <time>2019-07-07T10:16:39.825Z</time>
      </trkpt>
      <trkpt lat="42.96072333" lon="-0.25618333">
        <ele>1435.0</ele>
        <time>2019-07-07T10:16:40.812Z</time>
      </trkpt>
      <trkpt lat="42.960735" lon="-0.25620833">
        <ele>1435.0</ele>
        <time>2019-07-07T10:16:41.814Z</time>
      </trkpt>
      <trkpt lat="42.96074833" lon="-0.25623333">
        <ele>1435.0</ele>
        <time>2019-07-07T10:16:42.834Z</time>
      </trkpt>
      <trkpt lat="42.96074833" lon="-0.25623333">
        <ele>1435.0</ele>
        <time>2019-07-07T10:16:43.840Z</time>
      </trkpt>
      <trkpt lat="42.96077333" lon="-0.25627667">
        <ele>1436.0</ele>
        <time>2019-07-07T10:16:44.818Z</time>
      </trkpt>
      <trkpt lat="42.960785" lon="-0.2563">
        <ele>1436.0</ele>
        <time>2019-07-07T10:16:45.830Z</time>
      </trkpt>
      <trkpt lat="42.960785" lon="-0.2563">
        <ele>1436.0</ele>
        <time>2019-07-07T10:16:46.837Z</time>
      </trkpt>
      <trkpt lat="42.96080667" lon="-0.25635833">
        <ele>1437.0</ele>
        <time>2019-07-07T10:16:47.834Z</time>
      </trkpt>
      <trkpt lat="42.96081167" lon="-0.25638833">
        <ele>1437.0</ele>
        <time>2019-07-07T10:16:48.826Z</time>
      </trkpt>
      <trkpt lat="42.960815" lon="-0.25642167">
        <ele>1437.0</ele>
        <time>2019-07-07T10:16:49.825Z</time>
      </trkpt>
      <trkpt lat="42.960815" lon="-0.25642167">
        <ele>1437.0</ele>
        <time>2019-07-07T10:16:50.831Z</time>
      </trkpt>
      <trkpt lat="42.96082167" lon="-0.25648667">
        <ele>1438.0</ele>
        <time>2019-07-07T10:16:51.803Z</time>
      </trkpt>
      <trkpt lat="42.960825" lon="-0.25652">
        <ele>1438.0</ele>
        <time>2019-07-07T10:16:52.820Z</time>
      </trkpt>
      <trkpt lat="42.960825" lon="-0.25652">
        <ele>1438.0</ele>
        <time>2019-07-07T10:16:53.827Z</time>
      </trkpt>
      <trkpt lat="42.96082833" lon="-0.25659">
        <ele>1438.0</ele>
        <time>2019-07-07T10:16:54.803Z</time>
      </trkpt>
      <trkpt lat="42.96082833" lon="-0.25659">
        <ele>1438.0</ele>
        <time>2019-07-07T10:16:55.810Z</time>
      </trkpt>
      <trkpt lat="42.96083" lon="-0.25665667">
        <ele>1439.0</ele>
        <time>2019-07-07T10:16:56.814Z</time>
      </trkpt>
      <trkpt lat="42.96083167" lon="-0.25669">
        <ele>1439.0</ele>
        <time>2019-07-07T10:16:57.830Z</time>
      </trkpt>
      <trkpt lat="42.96083167" lon="-0.25669">
        <ele>1439.0</ele>
        <time>2019-07-07T10:16:58.836Z</time>
      </trkpt>
      <trkpt lat="42.96083333" lon="-0.25675333">
        <ele>1440.0</ele>
        <time>2019-07-07T10:16:59.823Z</time>
      </trkpt>
      <trkpt lat="42.96083333" lon="-0.25678667">
        <ele>1440.0</ele>
        <time>2019-07-07T10:17:00.832Z</time>
      </trkpt>
      <trkpt lat="42.96083333" lon="-0.25678667">
        <ele>1440.0</ele>
        <time>2019-07-07T10:17:01.838Z</time>
      </trkpt>
      <trkpt lat="42.96082667" lon="-0.256855">
        <ele>1441.0</ele>
        <time>2019-07-07T10:17:02.803Z</time>
      </trkpt>
      <trkpt lat="42.96082667" lon="-0.256855">
        <ele>1441.0</ele>
        <time>2019-07-07T10:17:03.815Z</time>
      </trkpt>
      <trkpt lat="42.96082" lon="-0.25691833">
        <ele>1441.0</ele>
        <time>2019-07-07T10:17:04.803Z</time>
      </trkpt>
      <trkpt lat="42.96082" lon="-0.25691833">
        <ele>1441.0</ele>
        <time>2019-07-07T10:17:05.810Z</time>
      </trkpt>
      <trkpt lat="42.96081333" lon="-0.25698167">
        <ele>1442.0</ele>
        <time>2019-07-07T10:17:06.828Z</time>
      </trkpt>
      <trkpt lat="42.96081333" lon="-0.25698167">
        <ele>1442.0</ele>
        <time>2019-07-07T10:17:07.833Z</time>
      </trkpt>
      <trkpt lat="42.96081" lon="-0.25704667">
        <ele>1442.0</ele>
        <time>2019-07-07T10:17:08.803Z</time>
      </trkpt>
      <trkpt lat="42.96081" lon="-0.25708">
        <ele>1443.0</ele>
        <time>2019-07-07T10:17:09.819Z</time>
      </trkpt>
      <trkpt lat="42.96081" lon="-0.25708">
        <ele>1443.0</ele>
        <time>2019-07-07T10:17:10.825Z</time>
      </trkpt>
      <trkpt lat="42.96081167" lon="-0.257145">
        <ele>1443.0</ele>
        <time>2019-07-07T10:17:11.813Z</time>
      </trkpt>
      <trkpt lat="42.96081167" lon="-0.257175">
        <ele>1444.0</ele>
        <time>2019-07-07T10:17:12.834Z</time>
      </trkpt>
      <trkpt lat="42.96081167" lon="-0.257175">
        <ele>1444.0</ele>
        <time>2019-07-07T10:17:13.840Z</time>
      </trkpt>
      <trkpt lat="42.96081667" lon="-0.25723833">
        <ele>1444.0</ele>
        <time>2019-07-07T10:17:14.819Z</time>
      </trkpt>
      <trkpt lat="42.96082" lon="-0.25727">
        <ele>1444.0</ele>
        <time>2019-07-07T10:17:15.824Z</time>
      </trkpt>
      <trkpt lat="42.96082" lon="-0.25727">
        <ele>1444.0</ele>
        <time>2019-07-07T10:17:16.831Z</time>
      </trkpt>
      <trkpt lat="42.960825" lon="-0.25733667">
        <ele>1445.0</ele>
        <time>2019-07-07T10:17:17.824Z</time>
      </trkpt>
      <trkpt lat="42.960825" lon="-0.25736833">
        <ele>1445.0</ele>
        <time>2019-07-07T10:17:18.803Z</time>
      </trkpt>
      <trkpt lat="42.960825" lon="-0.25736833">
        <ele>1445.0</ele>
        <time>2019-07-07T10:17:19.810Z</time>
      </trkpt>
      <trkpt lat="42.96081833" lon="-0.25743333">
        <ele>1445.0</ele>
        <time>2019-07-07T10:17:20.834Z</time>
      </trkpt>
      <trkpt lat="42.96081833" lon="-0.25743333">
        <ele>1445.0</ele>
        <time>2019-07-07T10:17:21.840Z</time>
      </trkpt>
      <trkpt lat="42.96080333" lon="-0.2575">
        <ele>1446.0</ele>
        <time>2019-07-07T10:17:22.829Z</time>
      </trkpt>
      <trkpt lat="42.96080333" lon="-0.2575">
        <ele>1446.0</ele>
        <time>2019-07-07T10:17:23.838Z</time>
      </trkpt>
      <trkpt lat="42.96079667" lon="-0.25756333">
        <ele>1447.0</ele>
        <time>2019-07-07T10:17:24.813Z</time>
      </trkpt>
      <trkpt lat="42.96079667" lon="-0.25756333">
        <ele>1447.0</ele>
        <time>2019-07-07T10:17:25.822Z</time>
      </trkpt>
      <trkpt lat="42.9608" lon="-0.25763333">
        <ele>1447.0</ele>
        <time>2019-07-07T10:17:26.837Z</time>
      </trkpt>
      <trkpt lat="42.960795" lon="-0.25766167">
        <ele>1447.0</ele>
        <time>2019-07-07T10:17:27.816Z</time>
      </trkpt>
      <trkpt lat="42.960795" lon="-0.25766167">
        <ele>1447.0</ele>
        <time>2019-07-07T10:17:28.823Z</time>
      </trkpt>
      <trkpt lat="42.96078167" lon="-0.25772333">
        <ele>1448.0</ele>
        <time>2019-07-07T10:17:29.834Z</time>
      </trkpt>
      <trkpt lat="42.960775" lon="-0.25775333">
        <ele>1448.0</ele>
        <time>2019-07-07T10:17:30.803Z</time>
      </trkpt>
      <trkpt lat="42.960775" lon="-0.25775333">
        <ele>1448.0</ele>
        <time>2019-07-07T10:17:31.809Z</time>
      </trkpt>
      <trkpt lat="42.96076167" lon="-0.25782167">
        <ele>1448.0</ele>
        <time>2019-07-07T10:17:32.831Z</time>
      </trkpt>
      <trkpt lat="42.96076167" lon="-0.25782167">
        <ele>1448.0</ele>
        <time>2019-07-07T10:17:33.838Z</time>
      </trkpt>
      <trkpt lat="42.96074667" lon="-0.25788833">
        <ele>1449.0</ele>
        <time>2019-07-07T10:17:34.824Z</time>
      </trkpt>
      <trkpt lat="42.96074667" lon="-0.25788833">
        <ele>1449.0</ele>
        <time>2019-07-07T10:17:35.830Z</time>
      </trkpt>
      <trkpt lat="42.96072833" lon="-0.25795167">
        <ele>1449.0</ele>
        <time>2019-07-07T10:17:36.803Z</time>
      </trkpt>
      <trkpt lat="42.96072833" lon="-0.25795167">
        <ele>1449.0</ele>
        <time>2019-07-07T10:17:37.810Z</time>
      </trkpt>
      <trkpt lat="42.96071167" lon="-0.25801833">
        <ele>1449.0</ele>
        <time>2019-07-07T10:17:38.833Z</time>
      </trkpt>
      <trkpt lat="42.960705" lon="-0.25805167">
        <ele>1450.0</ele>
        <time>2019-07-07T10:17:39.821Z</time>
      </trkpt>
      <trkpt lat="42.960705" lon="-0.25805167">
        <ele>1450.0</ele>
        <time>2019-07-07T10:17:40.827Z</time>
      </trkpt>
      <trkpt lat="42.96069" lon="-0.258115">
        <ele>1450.0</ele>
        <time>2019-07-07T10:17:41.804Z</time>
      </trkpt>
      <trkpt lat="42.96068167" lon="-0.25814667">
        <ele>1450.0</ele>
        <time>2019-07-07T10:17:42.834Z</time>
      </trkpt>
      <trkpt lat="42.96068167" lon="-0.25814667">
        <ele>1450.0</ele>
        <time>2019-07-07T10:17:43.840Z</time>
      </trkpt>
      <trkpt lat="42.96066333" lon="-0.25820833">
        <ele>1451.0</ele>
        <time>2019-07-07T10:17:44.804Z</time>
      </trkpt>
      <trkpt lat="42.96065667" lon="-0.25824">
        <ele>1451.0</ele>
        <time>2019-07-07T10:17:45.829Z</time>
      </trkpt>
      <trkpt lat="42.96065667" lon="-0.25824">
        <ele>1451.0</ele>
        <time>2019-07-07T10:17:46.835Z</time>
      </trkpt>
      <trkpt lat="42.96063833" lon="-0.25830333">
        <ele>1451.0</ele>
        <time>2019-07-07T10:17:47.803Z</time>
      </trkpt>
      <trkpt lat="42.96063167" lon="-0.258335">
        <ele>1452.0</ele>
        <time>2019-07-07T10:17:48.832Z</time>
      </trkpt>
      <trkpt lat="42.96063167" lon="-0.258335">
        <ele>1452.0</ele>
        <time>2019-07-07T10:17:49.824Z</time>
      </trkpt>
      <trkpt lat="42.96062" lon="-0.25840167">
        <ele>1452.0</ele>
        <time>2019-07-07T10:17:50.839Z</time>
      </trkpt>
      <trkpt lat="42.96062" lon="-0.25840167">
        <ele>1452.0</ele>
        <time>2019-07-07T10:17:51.805Z</time>
      </trkpt>
      <trkpt lat="42.96061333" lon="-0.25846667">
        <ele>1452.0</ele>
        <time>2019-07-07T10:17:52.823Z</time>
      </trkpt>
      <trkpt lat="42.96061333" lon="-0.25846667">
        <ele>1452.0</ele>
        <time>2019-07-07T10:17:53.830Z</time>
      </trkpt>
      <trkpt lat="42.96060333" lon="-0.25853333">
        <ele>1453.0</ele>
        <time>2019-07-07T10:17:54.814Z</time>
      </trkpt>
      <trkpt lat="42.96060333" lon="-0.25853333">
        <ele>1453.0</ele>
        <time>2019-07-07T10:17:55.822Z</time>
      </trkpt>
      <trkpt lat="42.96058833" lon="-0.25859833">
        <ele>1453.0</ele>
        <time>2019-07-07T10:17:56.823Z</time>
      </trkpt>
      <trkpt lat="42.96058833" lon="-0.25859833">
        <ele>1453.0</ele>
        <time>2019-07-07T10:17:57.829Z</time>
      </trkpt>
      <trkpt lat="42.96057167" lon="-0.25865833">
        <ele>1453.0</ele>
        <time>2019-07-07T10:17:58.803Z</time>
      </trkpt>
      <trkpt lat="42.96056167" lon="-0.25869">
        <ele>1453.0</ele>
        <time>2019-07-07T10:17:59.837Z</time>
      </trkpt>
      <trkpt lat="42.96056167" lon="-0.25869">
        <ele>1453.0</ele>
        <time>2019-07-07T10:18:00.803Z</time>
      </trkpt>
      <trkpt lat="42.96054167" lon="-0.25875167">
        <ele>1454.0</ele>
        <time>2019-07-07T10:18:01.813Z</time>
      </trkpt>
      <trkpt lat="42.96052833" lon="-0.25878167">
        <ele>1454.0</ele>
        <time>2019-07-07T10:18:02.814Z</time>
      </trkpt>
      <trkpt lat="42.96052833" lon="-0.25878167">
        <ele>1454.0</ele>
        <time>2019-07-07T10:18:03.821Z</time>
      </trkpt>
      <trkpt lat="42.96050333" lon="-0.25883833">
        <ele>1455.0</ele>
        <time>2019-07-07T10:18:04.814Z</time>
      </trkpt>
      <trkpt lat="42.96050333" lon="-0.25883833">
        <ele>1455.0</ele>
        <time>2019-07-07T10:18:05.822Z</time>
      </trkpt>
      <trkpt lat="42.96048" lon="-0.25889667">
        <ele>1455.0</ele>
        <time>2019-07-07T10:18:06.823Z</time>
      </trkpt>
      <trkpt lat="42.96048" lon="-0.25889667">
        <ele>1455.0</ele>
        <time>2019-07-07T10:18:07.831Z</time>
      </trkpt>
      <trkpt lat="42.96045667" lon="-0.25895667">
        <ele>1456.0</ele>
        <time>2019-07-07T10:18:08.818Z</time>
      </trkpt>
      <trkpt lat="42.96045667" lon="-0.25895667">
        <ele>1456.0</ele>
        <time>2019-07-07T10:18:09.824Z</time>
      </trkpt>
      <trkpt lat="42.96043667" lon="-0.25901833">
        <ele>1456.0</ele>
        <time>2019-07-07T10:18:10.804Z</time>
      </trkpt>
      <trkpt lat="42.96043667" lon="-0.25901833">
        <ele>1456.0</ele>
        <time>2019-07-07T10:18:11.811Z</time>
      </trkpt>
      <trkpt lat="42.96041833" lon="-0.25908">
        <ele>1457.0</ele>
        <time>2019-07-07T10:18:12.824Z</time>
      </trkpt>
      <trkpt lat="42.96041833" lon="-0.25908">
        <ele>1457.0</ele>
        <time>2019-07-07T10:18:13.830Z</time>
      </trkpt>
      <trkpt lat="42.96039667" lon="-0.25914">
        <ele>1457.0</ele>
        <time>2019-07-07T10:18:14.804Z</time>
      </trkpt>
      <trkpt lat="42.96039667" lon="-0.25914">
        <ele>1457.0</ele>
        <time>2019-07-07T10:18:15.809Z</time>
      </trkpt>
      <trkpt lat="42.96038333" lon="-0.25920333">
        <ele>1457.0</ele>
        <time>2019-07-07T10:18:16.834Z</time>
      </trkpt>
      <trkpt lat="42.960375" lon="-0.25923667">
        <ele>1458.0</ele>
        <time>2019-07-07T10:18:17.813Z</time>
      </trkpt>
      <trkpt lat="42.96037" lon="-0.25927">
        <ele>1458.0</ele>
        <time>2019-07-07T10:18:18.834Z</time>
      </trkpt>
      <trkpt lat="42.960365" lon="-0.25930333">
        <ele>1458.0</ele>
        <time>2019-07-07T10:18:19.824Z</time>
      </trkpt>
      <trkpt lat="42.960365" lon="-0.25930333">
        <ele>1458.0</ele>
        <time>2019-07-07T10:18:20.817Z</time>
      </trkpt>
      <trkpt lat="42.96036" lon="-0.25936833">
        <ele>1459.0</ele>
        <time>2019-07-07T10:18:21.839Z</time>
      </trkpt>
      <trkpt lat="42.96036" lon="-0.25936833">
        <ele>1459.0</ele>
        <time>2019-07-07T10:18:22.806Z</time>
      </trkpt>
      <trkpt lat="42.96035667" lon="-0.259435">
        <ele>1459.0</ele>
        <time>2019-07-07T10:18:23.831Z</time>
      </trkpt>
      <trkpt lat="42.960355" lon="-0.25947">
        <ele>1459.0</ele>
        <time>2019-07-07T10:18:24.813Z</time>
      </trkpt>
      <trkpt lat="42.960355" lon="-0.25947">
        <ele>1459.0</ele>
        <time>2019-07-07T10:18:25.823Z</time>
      </trkpt>
      <trkpt lat="42.96035667" lon="-0.25954167">
        <ele>1460.0</ele>
        <time>2019-07-07T10:18:26.840Z</time>
      </trkpt>
      <trkpt lat="42.96035667" lon="-0.25954167">
        <ele>1460.0</ele>
        <time>2019-07-07T10:18:27.807Z</time>
      </trkpt>
      <trkpt lat="42.96036" lon="-0.25960833">
        <ele>1460.0</ele>
        <time>2019-07-07T10:18:28.834Z</time>
      </trkpt>
      <trkpt lat="42.96036333" lon="-0.25964333">
        <ele>1460.0</ele>
        <time>2019-07-07T10:18:29.823Z</time>
      </trkpt>
      <trkpt lat="42.96036333" lon="-0.25964333">
        <ele>1460.0</ele>
        <time>2019-07-07T10:18:30.829Z</time>
      </trkpt>
      <trkpt lat="42.96037" lon="-0.25971">
        <ele>1461.0</ele>
        <time>2019-07-07T10:18:31.828Z</time>
      </trkpt>
      <trkpt lat="42.960375" lon="-0.25974333">
        <ele>1461.0</ele>
        <time>2019-07-07T10:18:32.803Z</time>
      </trkpt>
      <trkpt lat="42.960375" lon="-0.25974333">
        <ele>1461.0</ele>
        <time>2019-07-07T10:18:33.810Z</time>
      </trkpt>
      <trkpt lat="42.96038833" lon="-0.25980833">
        <ele>1461.0</ele>
        <time>2019-07-07T10:18:34.834Z</time>
      </trkpt>
      <trkpt lat="42.96038833" lon="-0.25980833">
        <ele>1461.0</ele>
        <time>2019-07-07T10:18:35.840Z</time>
      </trkpt>
      <trkpt lat="42.96040667" lon="-0.25987333">
        <ele>1461.0</ele>
        <time>2019-07-07T10:18:36.824Z</time>
      </trkpt>
      <trkpt lat="42.96040667" lon="-0.25987333">
        <ele>1461.0</ele>
        <time>2019-07-07T10:18:37.830Z</time>
      </trkpt>
      <trkpt lat="42.96042833" lon="-0.25993167">
        <ele>1462.0</ele>
        <time>2019-07-07T10:18:38.824Z</time>
      </trkpt>
      <trkpt lat="42.96044167" lon="-0.25995833">
        <ele>1462.0</ele>
        <time>2019-07-07T10:18:39.824Z</time>
      </trkpt>
      <trkpt lat="42.96044167" lon="-0.25995833">
        <ele>1462.0</ele>
        <time>2019-07-07T10:18:40.830Z</time>
      </trkpt>
      <trkpt lat="42.96047333" lon="-0.26001167">
        <ele>1462.0</ele>
        <time>2019-07-07T10:18:41.803Z</time>
      </trkpt>
      <trkpt lat="42.96047333" lon="-0.26001167">
        <ele>1462.0</ele>
        <time>2019-07-07T10:18:42.809Z</time>
      </trkpt>
      <trkpt lat="42.96051" lon="-0.26005833">
        <ele>1463.0</ele>
        <time>2019-07-07T10:18:43.824Z</time>
      </trkpt>
      <trkpt lat="42.96051" lon="-0.26005833">
        <ele>1463.0</ele>
        <time>2019-07-07T10:18:44.831Z</time>
      </trkpt>
      <trkpt lat="42.96054167" lon="-0.260105">
        <ele>1463.0</ele>
        <time>2019-07-07T10:18:45.803Z</time>
      </trkpt>
      <trkpt lat="42.96054167" lon="-0.260105">
        <ele>1463.0</ele>
        <time>2019-07-07T10:18:46.812Z</time>
      </trkpt>
      <trkpt lat="42.960575" lon="-0.26015">
        <ele>1463.0</ele>
        <time>2019-07-07T10:18:47.802Z</time>
      </trkpt>
      <trkpt lat="42.96058833" lon="-0.26017667">
        <ele>1464.0</ele>
        <time>2019-07-07T10:18:48.811Z</time>
      </trkpt>
      <trkpt lat="42.96059667" lon="-0.26020333">
        <ele>1464.0</ele>
        <time>2019-07-07T10:18:49.803Z</time>
      </trkpt>
      <trkpt lat="42.96060667" lon="-0.26023667">
        <ele>1464.0</ele>
        <time>2019-07-07T10:18:50.814Z</time>
      </trkpt>
      <trkpt lat="42.96060667" lon="-0.26023667">
        <ele>1464.0</ele>
        <time>2019-07-07T10:18:51.822Z</time>
      </trkpt>
      <trkpt lat="42.96061667" lon="-0.26030833">
        <ele>1465.0</ele>
        <time>2019-07-07T10:18:52.823Z</time>
      </trkpt>
      <trkpt lat="42.96061667" lon="-0.26030833">
        <ele>1465.0</ele>
        <time>2019-07-07T10:18:53.830Z</time>
      </trkpt>
      <trkpt lat="42.96062833" lon="-0.26037833">
        <ele>1465.0</ele>
        <time>2019-07-07T10:18:54.823Z</time>
      </trkpt>
      <trkpt lat="42.96062833" lon="-0.26037833">
        <ele>1465.0</ele>
        <time>2019-07-07T10:18:55.829Z</time>
      </trkpt>
      <trkpt lat="42.960635" lon="-0.26045">
        <ele>1466.0</ele>
        <time>2019-07-07T10:18:56.838Z</time>
      </trkpt>
      <trkpt lat="42.960635" lon="-0.26045">
        <ele>1466.0</ele>
        <time>2019-07-07T10:18:57.804Z</time>
      </trkpt>
      <trkpt lat="42.96064167" lon="-0.26052167">
        <ele>1467.0</ele>
        <time>2019-07-07T10:18:58.803Z</time>
      </trkpt>
      <trkpt lat="42.96064333" lon="-0.26055833">
        <ele>1467.0</ele>
        <time>2019-07-07T10:18:59.821Z</time>
      </trkpt>
      <trkpt lat="42.96064333" lon="-0.26055833">
        <ele>1467.0</ele>
        <time>2019-07-07T10:19:00.827Z</time>
      </trkpt>
      <trkpt lat="42.96065" lon="-0.260625">
        <ele>1468.0</ele>
        <time>2019-07-07T10:19:01.827Z</time>
      </trkpt>
      <trkpt lat="42.96065" lon="-0.260625">
        <ele>1468.0</ele>
        <time>2019-07-07T10:19:02.833Z</time>
      </trkpt>
      <trkpt lat="42.96065333" lon="-0.26069167">
        <ele>1468.0</ele>
        <time>2019-07-07T10:19:03.813Z</time>
      </trkpt>
      <trkpt lat="42.96065333" lon="-0.26069167">
        <ele>1468.0</ele>
        <time>2019-07-07T10:19:04.820Z</time>
      </trkpt>
      <trkpt lat="42.96065333" lon="-0.26075">
        <ele>1469.0</ele>
        <time>2019-07-07T10:19:05.818Z</time>
      </trkpt>
      <trkpt lat="42.96065" lon="-0.26078167">
        <ele>1469.0</ele>
        <time>2019-07-07T10:19:06.813Z</time>
      </trkpt>
      <trkpt lat="42.96065" lon="-0.26078167">
        <ele>1469.0</ele>
        <time>2019-07-07T10:19:07.823Z</time>
      </trkpt>
      <trkpt lat="42.96064667" lon="-0.26084333">
        <ele>1470.0</ele>
        <time>2019-07-07T10:19:08.809Z</time>
      </trkpt>
      <trkpt lat="42.96064" lon="-0.26087333">
        <ele>1470.0</ele>
        <time>2019-07-07T10:19:09.834Z</time>
      </trkpt>
      <trkpt lat="42.96064" lon="-0.26087333">
        <ele>1470.0</ele>
        <time>2019-07-07T10:19:10.839Z</time>
      </trkpt>
      <trkpt lat="42.96062833" lon="-0.26093167">
        <ele>1470.0</ele>
        <time>2019-07-07T10:19:11.813Z</time>
      </trkpt>
      <trkpt lat="42.96062833" lon="-0.26095667">
        <ele>1470.0</ele>
        <time>2019-07-07T10:19:12.803Z</time>
      </trkpt>
      <trkpt lat="42.96062833" lon="-0.26095667">
        <ele>1470.0</ele>
        <time>2019-07-07T10:19:13.809Z</time>
      </trkpt>
      <trkpt lat="42.960635" lon="-0.26100667">
        <ele>1470.0</ele>
        <time>2019-07-07T10:19:14.804Z</time>
      </trkpt>
      <trkpt lat="42.96063667" lon="-0.26103">
        <ele>1471.0</ele>
        <time>2019-07-07T10:19:15.813Z</time>
      </trkpt>
      <trkpt lat="42.96063667" lon="-0.26103">
        <ele>1471.0</ele>
        <time>2019-07-07T10:19:16.822Z</time>
      </trkpt>
      <trkpt lat="42.96063833" lon="-0.261075">
        <ele>1471.0</ele>
        <time>2019-07-07T10:19:17.810Z</time>
      </trkpt>
      <trkpt lat="42.96063833" lon="-0.261075">
        <ele>1471.0</ele>
        <time>2019-07-07T10:19:18.817Z</time>
      </trkpt>
      <trkpt lat="42.96063333" lon="-0.26112">
        <ele>1471.0</ele>
        <time>2019-07-07T10:19:19.803Z</time>
      </trkpt>
      <trkpt lat="42.96063333" lon="-0.26112">
        <ele>1471.0</ele>
        <time>2019-07-07T10:19:20.809Z</time>
      </trkpt>
      <trkpt lat="42.96064167" lon="-0.26114833">
        <ele>1471.0</ele>
        <time>2019-07-07T10:19:21.825Z</time>
      </trkpt>
      <trkpt lat="42.96064833" lon="-0.26115167">
        <ele>1471.0</ele>
        <time>2019-07-07T10:19:22.804Z</time>
      </trkpt>
      <trkpt lat="42.96065" lon="-0.26115333">
        <ele>1471.0</ele>
        <time>2019-07-07T10:19:23.834Z</time>
      </trkpt>
      <trkpt lat="42.96065" lon="-0.26115333">
        <ele>1471.0</ele>
        <time>2019-07-07T10:19:24.840Z</time>
      </trkpt>
      <trkpt lat="42.96064833" lon="-0.26114833">
        <ele>1472.0</ele>
        <time>2019-07-07T10:19:25.819Z</time>
      </trkpt>
      <trkpt lat="42.96064833" lon="-0.26114833">
        <ele>1472.0</ele>
        <time>2019-07-07T10:19:26.836Z</time>
      </trkpt>
      <trkpt lat="42.96067833" lon="-0.26135167">
        <ele>1471.0</ele>
        <time>2019-07-07T10:19:27.840Z</time>
      </trkpt>
      <trkpt lat="42.960685" lon="-0.26139833">
        <ele>1471.0</ele>
        <time>2019-07-07T10:19:28.801Z</time>
      </trkpt>
      <trkpt lat="42.960685" lon="-0.26139833">
        <ele>1471.0</ele>
        <time>2019-07-07T10:19:29.836Z</time>
      </trkpt>
      <trkpt lat="42.9607" lon="-0.26149667">
        <ele>1470.0</ele>
        <time>2019-07-07T10:19:30.827Z</time>
      </trkpt>
      <trkpt lat="42.9607" lon="-0.26149667">
        <ele>1470.0</ele>
        <time>2019-07-07T10:19:31.839Z</time>
      </trkpt>
      <trkpt lat="42.960715" lon="-0.26158333">
        <ele>1470.0</ele>
        <time>2019-07-07T10:19:32.837Z</time>
      </trkpt>
      <trkpt lat="42.960715" lon="-0.26158333">
        <ele>1470.0</ele>
        <time>2019-07-07T10:19:33.807Z</time>
      </trkpt>
      <trkpt lat="42.96073167" lon="-0.26165833">
        <ele>1469.0</ele>
        <time>2019-07-07T10:19:34.843Z</time>
      </trkpt>
      <trkpt lat="42.96074" lon="-0.26169">
        <ele>1469.0</ele>
        <time>2019-07-07T10:19:35.809Z</time>
      </trkpt>
      <trkpt lat="42.96074" lon="-0.26169">
        <ele>1469.0</ele>
        <time>2019-07-07T10:19:36.819Z</time>
      </trkpt>
      <trkpt lat="42.96075833" lon="-0.26173833">
        <ele>1468.0</ele>
        <time>2019-07-07T10:19:37.807Z</time>
      </trkpt>
      <trkpt lat="42.96075833" lon="-0.26173833">
        <ele>1468.0</ele>
        <time>2019-07-07T10:19:38.819Z</time>
      </trkpt>
      <trkpt lat="42.960765" lon="-0.261755">
        <ele>1469.0</ele>
        <time>2019-07-07T10:19:39.804Z</time>
      </trkpt>
      <trkpt lat="42.96076667" lon="-0.26175833">
        <ele>1469.0</ele>
        <time>2019-07-07T10:19:40.827Z</time>
      </trkpt>
      <trkpt lat="42.96076667" lon="-0.26175833">
        <ele>1469.0</ele>
        <time>2019-07-07T10:19:41.826Z</time>
      </trkpt>
      <trkpt lat="42.96076667" lon="-0.26175833">
        <ele>1469.0</ele>
        <time>2019-07-07T10:19:42.818Z</time>
      </trkpt>
      <trkpt lat="42.96080167" lon="-0.26189833">
        <ele>1469.0</ele>
        <time>2019-07-07T10:19:43.803Z</time>
      </trkpt>
      <trkpt lat="42.96080167" lon="-0.26189833">
        <ele>1469.0</ele>
        <time>2019-07-07T10:19:44.810Z</time>
      </trkpt>
      <trkpt lat="42.960805" lon="-0.26194167">
        <ele>1468.0</ele>
        <time>2019-07-07T10:19:45.835Z</time>
      </trkpt>
      <trkpt lat="42.96080833" lon="-0.26196167">
        <ele>1468.0</ele>
        <time>2019-07-07T10:19:46.814Z</time>
      </trkpt>
      <trkpt lat="42.96080833" lon="-0.26196167">
        <ele>1468.0</ele>
        <time>2019-07-07T10:19:47.831Z</time>
      </trkpt>
      <trkpt lat="42.960815" lon="-0.26199667">
        <ele>1468.0</ele>
        <time>2019-07-07T10:19:48.824Z</time>
      </trkpt>
      <trkpt lat="42.960815" lon="-0.26201167">
        <ele>1468.0</ele>
        <time>2019-07-07T10:19:49.814Z</time>
      </trkpt>
      <trkpt lat="42.960815" lon="-0.26201167">
        <ele>1468.0</ele>
        <time>2019-07-07T10:19:50.820Z</time>
      </trkpt>
      <trkpt lat="42.96081167" lon="-0.26203167">
        <ele>1468.0</ele>
        <time>2019-07-07T10:19:51.805Z</time>
      </trkpt>
      <trkpt lat="42.96073667" lon="-0.26195333">
        <ele>1464.0</ele>
        <time>2019-07-07T10:19:52.804Z</time>
      </trkpt>
      <trkpt lat="42.96073667" lon="-0.26195333">
        <ele>1464.0</ele>
        <time>2019-07-07T10:19:53.840Z</time>
      </trkpt>
      <trkpt lat="42.96071167" lon="-0.262">
        <ele>1463.0</ele>
        <time>2019-07-07T10:19:54.804Z</time>
      </trkpt>
      <trkpt lat="42.96069667" lon="-0.26204">
        <ele>1463.0</ele>
        <time>2019-07-07T10:19:55.829Z</time>
      </trkpt>
      <trkpt lat="42.96068333" lon="-0.26209333">
        <ele>1463.0</ele>
        <time>2019-07-07T10:19:56.832Z</time>
      </trkpt>
      <trkpt lat="42.96068333" lon="-0.26209333">
        <ele>1463.0</ele>
        <time>2019-07-07T10:19:57.828Z</time>
      </trkpt>
      <trkpt lat="42.96066667" lon="-0.26223">
        <ele>1463.0</ele>
        <time>2019-07-07T10:19:58.805Z</time>
      </trkpt>
      <trkpt lat="42.96066167" lon="-0.26230667">
        <ele>1462.0</ele>
        <time>2019-07-07T10:19:59.829Z</time>
      </trkpt>
      <trkpt lat="42.96066167" lon="-0.26230667">
        <ele>1462.0</ele>
        <time>2019-07-07T10:20:00.813Z</time>
      </trkpt>
      <trkpt lat="42.96065167" lon="-0.26249">
        <ele>1462.0</ele>
        <time>2019-07-07T10:20:01.826Z</time>
      </trkpt>
      <trkpt lat="42.96064167" lon="-0.26259">
        <ele>1462.0</ele>
        <time>2019-07-07T10:20:02.823Z</time>
      </trkpt>
      <trkpt lat="42.96064167" lon="-0.26259">
        <ele>1462.0</ele>
        <time>2019-07-07T10:20:03.837Z</time>
      </trkpt>
      <trkpt lat="42.96062333" lon="-0.262795">
        <ele>1461.0</ele>
        <time>2019-07-07T10:20:04.812Z</time>
      </trkpt>
      <trkpt lat="42.96062333" lon="-0.262795">
        <ele>1461.0</ele>
        <time>2019-07-07T10:20:05.833Z</time>
      </trkpt>
      <trkpt lat="42.96059333" lon="-0.26302333">
        <ele>1461.0</ele>
        <time>2019-07-07T10:20:06.805Z</time>
      </trkpt>
      <trkpt lat="42.96057667" lon="-0.26314167">
        <ele>1460.0</ele>
        <time>2019-07-07T10:20:07.818Z</time>
      </trkpt>
      <trkpt lat="42.96056" lon="-0.26326667">
        <ele>1460.0</ele>
        <time>2019-07-07T10:20:08.808Z</time>
      </trkpt>
      <trkpt lat="42.96056" lon="-0.26326667">
        <ele>1460.0</ele>
        <time>2019-07-07T10:20:09.822Z</time>
      </trkpt>
      <trkpt lat="42.96052" lon="-0.26353333">
        <ele>1459.0</ele>
        <time>2019-07-07T10:20:10.840Z</time>
      </trkpt>
      <trkpt lat="42.96049167" lon="-0.26367">
        <ele>1459.0</ele>
        <time>2019-07-07T10:20:11.801Z</time>
      </trkpt>
      <trkpt lat="42.96049167" lon="-0.26367">
        <ele>1459.0</ele>
        <time>2019-07-07T10:20:12.803Z</time>
      </trkpt>
      <trkpt lat="42.96040833" lon="-0.26394667">
        <ele>1458.0</ele>
        <time>2019-07-07T10:20:13.818Z</time>
      </trkpt>
      <trkpt lat="42.96036" lon="-0.26408667">
        <ele>1457.0</ele>
        <time>2019-07-07T10:20:14.810Z</time>
      </trkpt>
      <trkpt lat="42.96036" lon="-0.26408667">
        <ele>1457.0</ele>
        <time>2019-07-07T10:20:15.823Z</time>
      </trkpt>
      <trkpt lat="42.960245" lon="-0.26436333">
        <ele>1456.0</ele>
        <time>2019-07-07T10:20:16.807Z</time>
      </trkpt>
      <trkpt lat="42.960245" lon="-0.26436333">
        <ele>1456.0</ele>
        <time>2019-07-07T10:20:17.803Z</time>
      </trkpt>
      <trkpt lat="42.96010667" lon="-0.26463333">
        <ele>1455.0</ele>
        <time>2019-07-07T10:20:18.813Z</time>
      </trkpt>
      <trkpt lat="42.96010667" lon="-0.26463333">
        <ele>1455.0</ele>
        <time>2019-07-07T10:20:19.805Z</time>
      </trkpt>
      <trkpt lat="42.959995" lon="-0.26493833">
        <ele>1454.0</ele>
        <time>2019-07-07T10:20:20.823Z</time>
      </trkpt>
      <trkpt lat="42.959995" lon="-0.26493833">
        <ele>1454.0</ele>
        <time>2019-07-07T10:20:21.808Z</time>
      </trkpt>
      <trkpt lat="42.95993" lon="-0.26529333">
        <ele>1453.0</ele>
        <time>2019-07-07T10:20:22.829Z</time>
      </trkpt>
      <trkpt lat="42.95990167" lon="-0.26547333">
        <ele>1452.0</ele>
        <time>2019-07-07T10:20:23.815Z</time>
      </trkpt>
      <trkpt lat="42.95987333" lon="-0.26565333">
        <ele>1451.0</ele>
        <time>2019-07-07T10:20:24.812Z</time>
      </trkpt>
      <trkpt lat="42.95987333" lon="-0.26565333">
        <ele>1451.0</ele>
        <time>2019-07-07T10:20:25.806Z</time>
      </trkpt>
      <trkpt lat="42.95980667" lon="-0.26601833">
        <ele>1449.0</ele>
        <time>2019-07-07T10:20:26.805Z</time>
      </trkpt>
      <trkpt lat="42.95980667" lon="-0.26601833">
        <ele>1449.0</ele>
        <time>2019-07-07T10:20:27.803Z</time>
      </trkpt>
      <trkpt lat="42.959735" lon="-0.26638">
        <ele>1448.0</ele>
        <time>2019-07-07T10:20:28.813Z</time>
      </trkpt>
      <trkpt lat="42.95969833" lon="-0.26655833">
        <ele>1447.0</ele>
        <time>2019-07-07T10:20:29.825Z</time>
      </trkpt>
      <trkpt lat="42.95969833" lon="-0.26655833">
        <ele>1447.0</ele>
        <time>2019-07-07T10:20:30.814Z</time>
      </trkpt>
      <trkpt lat="42.959625" lon="-0.26690667">
        <ele>1445.0</ele>
        <time>2019-07-07T10:20:31.830Z</time>
      </trkpt>
      <trkpt lat="42.959595" lon="-0.26708">
        <ele>1445.0</ele>
        <time>2019-07-07T10:20:32.832Z</time>
      </trkpt>
      <trkpt lat="42.959595" lon="-0.26708">
        <ele>1445.0</ele>
        <time>2019-07-07T10:20:33.811Z</time>
      </trkpt>
      <trkpt lat="42.95953" lon="-0.26741667">
        <ele>1443.0</ele>
        <time>2019-07-07T10:20:34.807Z</time>
      </trkpt>
      <trkpt lat="42.95953" lon="-0.26741667">
        <ele>1443.0</ele>
        <time>2019-07-07T10:20:35.835Z</time>
      </trkpt>
      <trkpt lat="42.95947833" lon="-0.26774167">
        <ele>1442.0</ele>
        <time>2019-07-07T10:20:36.806Z</time>
      </trkpt>
      <trkpt lat="42.95947833" lon="-0.26774167">
        <ele>1442.0</ele>
        <time>2019-07-07T10:20:37.833Z</time>
      </trkpt>
      <trkpt lat="42.95946" lon="-0.26805667">
        <ele>1442.0</ele>
        <time>2019-07-07T10:20:38.809Z</time>
      </trkpt>
      <trkpt lat="42.95944667" lon="-0.26820333">
        <ele>1441.0</ele>
        <time>2019-07-07T10:20:39.828Z</time>
      </trkpt>
      <trkpt lat="42.95944667" lon="-0.26820333">
        <ele>1441.0</ele>
        <time>2019-07-07T10:20:40.814Z</time>
      </trkpt>
      <trkpt lat="42.95939833" lon="-0.26846833">
        <ele>1441.0</ele>
        <time>2019-07-07T10:20:41.814Z</time>
      </trkpt>
      <trkpt lat="42.95939833" lon="-0.26846833">
        <ele>1441.0</ele>
        <time>2019-07-07T10:20:42.818Z</time>
      </trkpt>
      <trkpt lat="42.95929333" lon="-0.268685">
        <ele>1440.0</ele>
        <time>2019-07-07T10:20:43.838Z</time>
      </trkpt>
      <trkpt lat="42.959225" lon="-0.26879833">
        <ele>1440.0</ele>
        <time>2019-07-07T10:20:44.837Z</time>
      </trkpt>
      <trkpt lat="42.959225" lon="-0.26879833">
        <ele>1440.0</ele>
        <time>2019-07-07T10:20:45.834Z</time>
      </trkpt>
      <trkpt lat="42.95909" lon="-0.26901833">
        <ele>1439.0</ele>
        <time>2019-07-07T10:20:46.807Z</time>
      </trkpt>
      <trkpt lat="42.95909" lon="-0.26901833">
        <ele>1439.0</ele>
        <time>2019-07-07T10:20:47.811Z</time>
      </trkpt>
      <trkpt lat="42.95893" lon="-0.26922">
        <ele>1439.0</ele>
        <time>2019-07-07T10:20:48.822Z</time>
      </trkpt>
      <trkpt lat="42.958865" lon="-0.26932">
        <ele>1439.0</ele>
        <time>2019-07-07T10:20:49.820Z</time>
      </trkpt>
      <trkpt lat="42.958865" lon="-0.26932">
        <ele>1439.0</ele>
        <time>2019-07-07T10:20:50.818Z</time>
      </trkpt>
      <trkpt lat="42.95879333" lon="-0.269545">
        <ele>1438.0</ele>
        <time>2019-07-07T10:20:51.802Z</time>
      </trkpt>
      <trkpt lat="42.95879333" lon="-0.269545">
        <ele>1438.0</ele>
        <time>2019-07-07T10:20:52.832Z</time>
      </trkpt>
      <trkpt lat="42.95873" lon="-0.26978833">
        <ele>1438.0</ele>
        <time>2019-07-07T10:20:53.801Z</time>
      </trkpt>
      <trkpt lat="42.95873" lon="-0.26978833">
        <ele>1438.0</ele>
        <time>2019-07-07T10:20:54.814Z</time>
      </trkpt>
      <trkpt lat="42.95865167" lon="-0.270025">
        <ele>1437.0</ele>
        <time>2019-07-07T10:20:55.831Z</time>
      </trkpt>
      <trkpt lat="42.9586" lon="-0.27013167">
        <ele>1437.0</ele>
        <time>2019-07-07T10:20:56.813Z</time>
      </trkpt>
      <trkpt lat="42.9586" lon="-0.27013167">
        <ele>1437.0</ele>
        <time>2019-07-07T10:20:57.824Z</time>
      </trkpt>
      <trkpt lat="42.95847667" lon="-0.27032">
        <ele>1436.0</ele>
        <time>2019-07-07T10:20:58.841Z</time>
      </trkpt>
      <trkpt lat="42.958415" lon="-0.27042">
        <ele>1436.0</ele>
        <time>2019-07-07T10:20:59.810Z</time>
      </trkpt>
      <trkpt lat="42.958415" lon="-0.27042">
        <ele>1436.0</ele>
        <time>2019-07-07T10:21:00.824Z</time>
      </trkpt>
      <trkpt lat="42.95834167" lon="-0.27065">
        <ele>1435.0</ele>
        <time>2019-07-07T10:21:01.842Z</time>
      </trkpt>
      <trkpt lat="42.95834167" lon="-0.270775">
        <ele>1435.0</ele>
        <time>2019-07-07T10:21:02.818Z</time>
      </trkpt>
      <trkpt lat="42.95834167" lon="-0.270775">
        <ele>1435.0</ele>
        <time>2019-07-07T10:21:03.804Z</time>
      </trkpt>
      <trkpt lat="42.95836833" lon="-0.27102667">
        <ele>1435.0</ele>
        <time>2019-07-07T10:21:04.826Z</time>
      </trkpt>
      <trkpt lat="42.95836833" lon="-0.27102667">
        <ele>1435.0</ele>
        <time>2019-07-07T10:21:05.803Z</time>
      </trkpt>
      <trkpt lat="42.95839333" lon="-0.27127833">
        <ele>1434.0</ele>
        <time>2019-07-07T10:21:06.831Z</time>
      </trkpt>
      <trkpt lat="42.958405" lon="-0.27140833">
        <ele>1434.0</ele>
        <time>2019-07-07T10:21:07.821Z</time>
      </trkpt>
      <trkpt lat="42.958405" lon="-0.27140833">
        <ele>1434.0</ele>
        <time>2019-07-07T10:21:08.813Z</time>
      </trkpt>
      <trkpt lat="42.95840833" lon="-0.271665">
        <ele>1434.0</ele>
        <time>2019-07-07T10:21:09.835Z</time>
      </trkpt>
      <trkpt lat="42.95839167" lon="-0.27178833">
        <ele>1433.0</ele>
        <time>2019-07-07T10:21:10.835Z</time>
      </trkpt>
      <trkpt lat="42.95839167" lon="-0.27178833">
        <ele>1433.0</ele>
        <time>2019-07-07T10:21:11.803Z</time>
      </trkpt>
      <trkpt lat="42.95832667" lon="-0.272015">
        <ele>1433.0</ele>
        <time>2019-07-07T10:21:12.822Z</time>
      </trkpt>
      <trkpt lat="42.95832667" lon="-0.272015">
        <ele>1433.0</ele>
        <time>2019-07-07T10:21:13.822Z</time>
      </trkpt>
      <trkpt lat="42.958255" lon="-0.27223">
        <ele>1433.0</ele>
        <time>2019-07-07T10:21:14.842Z</time>
      </trkpt>
      <trkpt lat="42.958255" lon="-0.27223">
        <ele>1433.0</ele>
        <time>2019-07-07T10:21:15.826Z</time>
      </trkpt>
      <trkpt lat="42.95819333" lon="-0.27244667">
        <ele>1432.0</ele>
        <time>2019-07-07T10:21:16.808Z</time>
      </trkpt>
      <trkpt lat="42.95815833" lon="-0.272555">
        <ele>1432.0</ele>
        <time>2019-07-07T10:21:17.813Z</time>
      </trkpt>
      <trkpt lat="42.95815833" lon="-0.272555">
        <ele>1432.0</ele>
        <time>2019-07-07T10:21:18.812Z</time>
      </trkpt>
      <trkpt lat="42.95811167" lon="-0.27278">
        <ele>1432.0</ele>
        <time>2019-07-07T10:21:19.828Z</time>
      </trkpt>
      <trkpt lat="42.95810667" lon="-0.27289833">
        <ele>1432.0</ele>
        <time>2019-07-07T10:21:20.810Z</time>
      </trkpt>
      <trkpt lat="42.95810667" lon="-0.27289833">
        <ele>1432.0</ele>
        <time>2019-07-07T10:21:21.824Z</time>
      </trkpt>
      <trkpt lat="42.95812667" lon="-0.27313167">
        <ele>1432.0</ele>
        <time>2019-07-07T10:21:22.840Z</time>
      </trkpt>
      <trkpt lat="42.95814167" lon="-0.27324333">
        <ele>1432.0</ele>
        <time>2019-07-07T10:21:23.809Z</time>
      </trkpt>
      <trkpt lat="42.95814167" lon="-0.27324333">
        <ele>1432.0</ele>
        <time>2019-07-07T10:21:24.820Z</time>
      </trkpt>
      <trkpt lat="42.95817667" lon="-0.27346667">
        <ele>1432.0</ele>
        <time>2019-07-07T10:21:25.836Z</time>
      </trkpt>
      <trkpt lat="42.95820667" lon="-0.27357667">
        <ele>1432.0</ele>
        <time>2019-07-07T10:21:26.819Z</time>
      </trkpt>
      <trkpt lat="42.95820667" lon="-0.27357667">
        <ele>1432.0</ele>
        <time>2019-07-07T10:21:27.836Z</time>
      </trkpt>
      <trkpt lat="42.95828667" lon="-0.2738">
        <ele>1431.0</ele>
        <time>2019-07-07T10:21:28.808Z</time>
      </trkpt>
      <trkpt lat="42.958335" lon="-0.27391167">
        <ele>1431.0</ele>
        <time>2019-07-07T10:21:29.832Z</time>
      </trkpt>
      <trkpt lat="42.958335" lon="-0.27391167">
        <ele>1431.0</ele>
        <time>2019-07-07T10:21:30.835Z</time>
      </trkpt>
      <trkpt lat="42.95843167" lon="-0.27412667">
        <ele>1430.0</ele>
        <time>2019-07-07T10:21:31.810Z</time>
      </trkpt>
      <trkpt lat="42.95846167" lon="-0.27423667">
        <ele>1430.0</ele>
        <time>2019-07-07T10:21:32.833Z</time>
      </trkpt>
      <trkpt lat="42.95846167" lon="-0.27423667">
        <ele>1430.0</ele>
        <time>2019-07-07T10:21:33.836Z</time>
      </trkpt>
      <trkpt lat="42.95847" lon="-0.27446833">
        <ele>1429.0</ele>
        <time>2019-07-07T10:21:34.809Z</time>
      </trkpt>
      <trkpt lat="42.95847" lon="-0.27446833">
        <ele>1429.0</ele>
        <time>2019-07-07T10:21:35.823Z</time>
      </trkpt>
      <trkpt lat="42.95839333" lon="-0.27468333">
        <ele>1429.0</ele>
        <time>2019-07-07T10:21:36.804Z</time>
      </trkpt>
      <trkpt lat="42.958345" lon="-0.274785">
        <ele>1428.0</ele>
        <time>2019-07-07T10:21:37.808Z</time>
      </trkpt>
      <trkpt lat="42.958305" lon="-0.27489667">
        <ele>1428.0</ele>
        <time>2019-07-07T10:21:38.840Z</time>
      </trkpt>
      <trkpt lat="42.958305" lon="-0.27489667">
        <ele>1428.0</ele>
        <time>2019-07-07T10:21:39.812Z</time>
      </trkpt>
      <trkpt lat="42.95825" lon="-0.27515333">
        <ele>1427.0</ele>
        <time>2019-07-07T10:21:40.821Z</time>
      </trkpt>
      <trkpt lat="42.958235" lon="-0.27528833">
        <ele>1426.0</ele>
        <time>2019-07-07T10:21:41.809Z</time>
      </trkpt>
      <trkpt lat="42.95821333" lon="-0.27542667">
        <ele>1426.0</ele>
        <time>2019-07-07T10:21:42.823Z</time>
      </trkpt>
      <trkpt lat="42.95821333" lon="-0.27542667">
        <ele>1426.0</ele>
        <time>2019-07-07T10:21:43.813Z</time>
      </trkpt>
      <trkpt lat="42.95815333" lon="-0.27569333">
        <ele>1425.0</ele>
        <time>2019-07-07T10:21:44.804Z</time>
      </trkpt>
      <trkpt lat="42.95815333" lon="-0.27569333">
        <ele>1425.0</ele>
        <time>2019-07-07T10:21:45.813Z</time>
      </trkpt>
      <trkpt lat="42.95808333" lon="-0.27596167">
        <ele>1424.0</ele>
        <time>2019-07-07T10:21:46.809Z</time>
      </trkpt>
      <trkpt lat="42.95808333" lon="-0.27596167">
        <ele>1424.0</ele>
        <time>2019-07-07T10:21:47.832Z</time>
      </trkpt>
      <trkpt lat="42.95802" lon="-0.27622">
        <ele>1423.0</ele>
        <time>2019-07-07T10:21:48.825Z</time>
      </trkpt>
      <trkpt lat="42.95802" lon="-0.27622">
        <ele>1423.0</ele>
        <time>2019-07-07T10:21:49.803Z</time>
      </trkpt>
      <trkpt lat="42.95796667" lon="-0.276435">
        <ele>1422.0</ele>
        <time>2019-07-07T10:21:50.822Z</time>
      </trkpt>
      <trkpt lat="42.95796667" lon="-0.276435">
        <ele>1422.0</ele>
        <time>2019-07-07T10:21:51.823Z</time>
      </trkpt>
      <trkpt lat="42.95784667" lon="-0.276585">
        <ele>1421.0</ele>
        <time>2019-07-07T10:21:52.807Z</time>
      </trkpt>
      <trkpt lat="42.957765" lon="-0.27661833">
        <ele>1420.0</ele>
        <time>2019-07-07T10:21:53.809Z</time>
      </trkpt>
      <trkpt lat="42.957765" lon="-0.27661833">
        <ele>1420.0</ele>
        <time>2019-07-07T10:21:54.813Z</time>
      </trkpt>
      <trkpt lat="42.95759333" lon="-0.27656">
        <ele>1419.0</ele>
        <time>2019-07-07T10:21:55.829Z</time>
      </trkpt>
      <trkpt lat="42.95759333" lon="-0.27656">
        <ele>1419.0</ele>
        <time>2019-07-07T10:21:56.821Z</time>
      </trkpt>
      <trkpt lat="42.95742333" lon="-0.27643">
        <ele>1417.0</ele>
        <time>2019-07-07T10:21:57.836Z</time>
      </trkpt>
      <trkpt lat="42.95742333" lon="-0.27643">
        <ele>1417.0</ele>
        <time>2019-07-07T10:21:58.813Z</time>
      </trkpt>
      <trkpt lat="42.95720833" lon="-0.27635167">
        <ele>1416.0</ele>
        <time>2019-07-07T10:21:59.830Z</time>
      </trkpt>
      <trkpt lat="42.95720833" lon="-0.27635167">
        <ele>1416.0</ele>
        <time>2019-07-07T10:22:00.826Z</time>
      </trkpt>
      <trkpt lat="42.956985" lon="-0.27631833">
        <ele>1414.0</ele>
        <time>2019-07-07T10:22:01.841Z</time>
      </trkpt>
      <trkpt lat="42.95686333" lon="-0.27628833">
        <ele>1414.0</ele>
        <time>2019-07-07T10:22:02.816Z</time>
      </trkpt>
      <trkpt lat="42.95686333" lon="-0.27628833">
        <ele>1414.0</ele>
        <time>2019-07-07T10:22:03.838Z</time>
      </trkpt>
      <trkpt lat="42.95663" lon="-0.27623">
        <ele>1412.0</ele>
        <time>2019-07-07T10:22:04.838Z</time>
      </trkpt>
      <trkpt lat="42.95651333" lon="-0.27624333">
        <ele>1410.0</ele>
        <time>2019-07-07T10:22:05.830Z</time>
      </trkpt>
      <trkpt lat="42.95651333" lon="-0.27624333">
        <ele>1410.0</ele>
        <time>2019-07-07T10:22:06.834Z</time>
      </trkpt>
      <trkpt lat="42.95626667" lon="-0.27637833">
        <ele>1408.0</ele>
        <time>2019-07-07T10:22:07.811Z</time>
      </trkpt>
      <trkpt lat="42.95614833" lon="-0.27647167">
        <ele>1407.0</ele>
        <time>2019-07-07T10:22:08.812Z</time>
      </trkpt>
      <trkpt lat="42.95614833" lon="-0.27647167">
        <ele>1407.0</ele>
        <time>2019-07-07T10:22:09.840Z</time>
      </trkpt>
      <trkpt lat="42.95592333" lon="-0.27666333">
        <ele>1404.0</ele>
        <time>2019-07-07T10:22:10.821Z</time>
      </trkpt>
      <trkpt lat="42.95592333" lon="-0.27666333">
        <ele>1404.0</ele>
        <time>2019-07-07T10:22:11.835Z</time>
      </trkpt>
      <trkpt lat="42.95573333" lon="-0.27686333">
        <ele>1402.0</ele>
        <time>2019-07-07T10:22:12.808Z</time>
      </trkpt>
      <trkpt lat="42.95573333" lon="-0.27686333">
        <ele>1402.0</ele>
        <time>2019-07-07T10:22:13.802Z</time>
      </trkpt>
      <trkpt lat="42.95555833" lon="-0.27704333">
        <ele>1400.0</ele>
        <time>2019-07-07T10:22:14.817Z</time>
      </trkpt>
      <trkpt lat="42.95555833" lon="-0.27704333">
        <ele>1400.0</ele>
        <time>2019-07-07T10:22:15.803Z</time>
      </trkpt>
      <trkpt lat="42.955405" lon="-0.27724667">
        <ele>1398.0</ele>
        <time>2019-07-07T10:22:16.841Z</time>
      </trkpt>
      <trkpt lat="42.95535333" lon="-0.27738">
        <ele>1396.0</ele>
        <time>2019-07-07T10:22:17.822Z</time>
      </trkpt>
      <trkpt lat="42.95535667" lon="-0.27753833">
        <ele>1395.0</ele>
        <time>2019-07-07T10:22:18.815Z</time>
      </trkpt>
      <trkpt lat="42.95535667" lon="-0.27753833">
        <ele>1395.0</ele>
        <time>2019-07-07T10:22:19.824Z</time>
      </trkpt>
      <trkpt lat="42.95539833" lon="-0.277865">
        <ele>1393.0</ele>
        <time>2019-07-07T10:22:20.817Z</time>
      </trkpt>
      <trkpt lat="42.95539833" lon="-0.277865">
        <ele>1393.0</ele>
        <time>2019-07-07T10:22:21.813Z</time>
      </trkpt>
      <trkpt lat="42.955435" lon="-0.27818667">
        <ele>1391.0</ele>
        <time>2019-07-07T10:22:22.828Z</time>
      </trkpt>
      <trkpt lat="42.955435" lon="-0.27818667">
        <ele>1391.0</ele>
        <time>2019-07-07T10:22:23.821Z</time>
      </trkpt>
      <trkpt lat="42.95541667" lon="-0.27851667">
        <ele>1388.0</ele>
        <time>2019-07-07T10:22:24.842Z</time>
      </trkpt>
      <trkpt lat="42.95540833" lon="-0.27868833">
        <ele>1387.0</ele>
        <time>2019-07-07T10:22:25.825Z</time>
      </trkpt>
      <trkpt lat="42.95540833" lon="-0.27868833">
        <ele>1387.0</ele>
        <time>2019-07-07T10:22:26.803Z</time>
      </trkpt>
      <trkpt lat="42.95539667" lon="-0.279035">
        <ele>1385.0</ele>
        <time>2019-07-07T10:22:27.831Z</time>
      </trkpt>
      <trkpt lat="42.95539667" lon="-0.279035">
        <ele>1385.0</ele>
        <time>2019-07-07T10:22:28.823Z</time>
      </trkpt>
      <trkpt lat="42.95537167" lon="-0.27939333">
        <ele>1383.0</ele>
        <time>2019-07-07T10:22:29.811Z</time>
      </trkpt>
      <trkpt lat="42.95535" lon="-0.27956667">
        <ele>1381.0</ele>
        <time>2019-07-07T10:22:30.818Z</time>
      </trkpt>
      <trkpt lat="42.95535" lon="-0.27956667">
        <ele>1381.0</ele>
        <time>2019-07-07T10:22:31.840Z</time>
      </trkpt>
      <trkpt lat="42.95530333" lon="-0.27986667">
        <ele>1379.0</ele>
        <time>2019-07-07T10:22:32.822Z</time>
      </trkpt>
      <trkpt lat="42.95530333" lon="-0.27986667">
        <ele>1379.0</ele>
        <time>2019-07-07T10:22:33.813Z</time>
      </trkpt>
      <trkpt lat="42.95527167" lon="-0.28015667">
        <ele>1377.0</ele>
        <time>2019-07-07T10:22:34.829Z</time>
      </trkpt>
      <trkpt lat="42.95527167" lon="-0.28015667">
        <ele>1377.0</ele>
        <time>2019-07-07T10:22:35.803Z</time>
      </trkpt>
      <trkpt lat="42.955205" lon="-0.28044167">
        <ele>1375.0</ele>
        <time>2019-07-07T10:22:36.827Z</time>
      </trkpt>
      <trkpt lat="42.95514667" lon="-0.28057833">
        <ele>1374.0</ele>
        <time>2019-07-07T10:22:37.832Z</time>
      </trkpt>
      <trkpt lat="42.95508833" lon="-0.28069833">
        <ele>1372.0</ele>
        <time>2019-07-07T10:22:38.834Z</time>
      </trkpt>
      <trkpt lat="42.95508833" lon="-0.28069833">
        <ele>1372.0</ele>
        <time>2019-07-07T10:22:39.823Z</time>
      </trkpt>
      <trkpt lat="42.95498167" lon="-0.28093333">
        <ele>1370.0</ele>
        <time>2019-07-07T10:22:40.841Z</time>
      </trkpt>
      <trkpt lat="42.95498167" lon="-0.28093333">
        <ele>1370.0</ele>
        <time>2019-07-07T10:22:41.809Z</time>
      </trkpt>
      <trkpt lat="42.95495167" lon="-0.28119833">
        <ele>1368.0</ele>
        <time>2019-07-07T10:22:42.824Z</time>
      </trkpt>
      <trkpt lat="42.95495167" lon="-0.28119833">
        <ele>1368.0</ele>
        <time>2019-07-07T10:22:43.824Z</time>
      </trkpt>
      <trkpt lat="42.95501667" lon="-0.28145333">
        <ele>1366.0</ele>
        <time>2019-07-07T10:22:44.808Z</time>
      </trkpt>
      <trkpt lat="42.95501667" lon="-0.28145333">
        <ele>1366.0</ele>
        <time>2019-07-07T10:22:45.823Z</time>
      </trkpt>
      <trkpt lat="42.95509167" lon="-0.28172167">
        <ele>1364.0</ele>
        <time>2019-07-07T10:22:46.806Z</time>
      </trkpt>
      <trkpt lat="42.95509167" lon="-0.28172167">
        <ele>1364.0</ele>
        <time>2019-07-07T10:22:47.812Z</time>
      </trkpt>
      <trkpt lat="42.95509167" lon="-0.28203333">
        <ele>1362.0</ele>
        <time>2019-07-07T10:22:48.805Z</time>
      </trkpt>
      <trkpt lat="42.95509167" lon="-0.28203333">
        <ele>1362.0</ele>
        <time>2019-07-07T10:22:49.812Z</time>
      </trkpt>
      <trkpt lat="42.95508833" lon="-0.28235167">
        <ele>1360.0</ele>
        <time>2019-07-07T10:22:50.828Z</time>
      </trkpt>
      <trkpt lat="42.95508833" lon="-0.28235167">
        <ele>1360.0</ele>
        <time>2019-07-07T10:22:51.818Z</time>
      </trkpt>
      <trkpt lat="42.95507833" lon="-0.28268">
        <ele>1358.0</ele>
        <time>2019-07-07T10:22:52.841Z</time>
      </trkpt>
      <trkpt lat="42.95506333" lon="-0.282845">
        <ele>1357.0</ele>
        <time>2019-07-07T10:22:53.821Z</time>
      </trkpt>
      <trkpt lat="42.95506333" lon="-0.282845">
        <ele>1357.0</ele>
        <time>2019-07-07T10:22:54.813Z</time>
      </trkpt>
      <trkpt lat="42.95502667" lon="-0.28315167">
        <ele>1356.0</ele>
        <time>2019-07-07T10:22:55.820Z</time>
      </trkpt>
      <trkpt lat="42.95502667" lon="-0.28315167">
        <ele>1356.0</ele>
        <time>2019-07-07T10:22:56.815Z</time>
      </trkpt>
      <trkpt lat="42.95499167" lon="-0.28340667">
        <ele>1354.0</ele>
        <time>2019-07-07T10:22:57.833Z</time>
      </trkpt>
      <trkpt lat="42.95499167" lon="-0.28340667">
        <ele>1354.0</ele>
        <time>2019-07-07T10:22:58.813Z</time>
      </trkpt>
      <trkpt lat="42.95504833" lon="-0.28363">
        <ele>1353.0</ele>
        <time>2019-07-07T10:22:59.842Z</time>
      </trkpt>
      <trkpt lat="42.95504833" lon="-0.28363">
        <ele>1353.0</ele>
        <time>2019-07-07T10:23:00.823Z</time>
      </trkpt>
      <trkpt lat="42.95511167" lon="-0.28385333">
        <ele>1351.0</ele>
        <time>2019-07-07T10:23:01.842Z</time>
      </trkpt>
      <trkpt lat="42.95511667" lon="-0.283975">
        <ele>1351.0</ele>
        <time>2019-07-07T10:23:02.831Z</time>
      </trkpt>
      <trkpt lat="42.95511667" lon="-0.283975">
        <ele>1351.0</ele>
        <time>2019-07-07T10:23:03.813Z</time>
      </trkpt>
      <trkpt lat="42.95509333" lon="-0.28421167">
        <ele>1350.0</ele>
        <time>2019-07-07T10:23:04.830Z</time>
      </trkpt>
      <trkpt lat="42.95509333" lon="-0.28421167">
        <ele>1350.0</ele>
        <time>2019-07-07T10:23:05.822Z</time>
      </trkpt>
      <trkpt lat="42.95506167" lon="-0.28443667">
        <ele>1349.0</ele>
        <time>2019-07-07T10:23:06.802Z</time>
      </trkpt>
      <trkpt lat="42.95502167" lon="-0.28454167">
        <ele>1349.0</ele>
        <time>2019-07-07T10:23:07.830Z</time>
      </trkpt>
      <trkpt lat="42.95498167" lon="-0.28464167">
        <ele>1349.0</ele>
        <time>2019-07-07T10:23:08.822Z</time>
      </trkpt>
      <trkpt lat="42.95498167" lon="-0.28464167">
        <ele>1349.0</ele>
        <time>2019-07-07T10:23:09.811Z</time>
      </trkpt>
      <trkpt lat="42.95488167" lon="-0.28482167">
        <ele>1348.0</ele>
        <time>2019-07-07T10:23:10.828Z</time>
      </trkpt>
      <trkpt lat="42.95488167" lon="-0.28482167">
        <ele>1348.0</ele>
        <time>2019-07-07T10:23:11.820Z</time>
      </trkpt>
      <trkpt lat="42.954775" lon="-0.28500333">
        <ele>1347.0</ele>
        <time>2019-07-07T10:23:12.842Z</time>
      </trkpt>
      <trkpt lat="42.95472" lon="-0.28509333">
        <ele>1347.0</ele>
        <time>2019-07-07T10:23:13.811Z</time>
      </trkpt>
      <trkpt lat="42.95467167" lon="-0.28518333">
        <ele>1347.0</ele>
        <time>2019-07-07T10:23:14.820Z</time>
      </trkpt>
      <trkpt lat="42.95467167" lon="-0.28518333">
        <ele>1347.0</ele>
        <time>2019-07-07T10:23:15.823Z</time>
      </trkpt>
      <trkpt lat="42.95460667" lon="-0.28537167">
        <ele>1346.0</ele>
        <time>2019-07-07T10:23:16.802Z</time>
      </trkpt>
      <trkpt lat="42.95460667" lon="-0.28537167">
        <ele>1346.0</ele>
        <time>2019-07-07T10:23:17.824Z</time>
      </trkpt>
      <trkpt lat="42.95454333" lon="-0.28554833">
        <ele>1346.0</ele>
        <time>2019-07-07T10:23:18.838Z</time>
      </trkpt>
      <trkpt lat="42.95449167" lon="-0.28563333">
        <ele>1346.0</ele>
        <time>2019-07-07T10:23:19.841Z</time>
      </trkpt>
      <trkpt lat="42.95449167" lon="-0.28563333">
        <ele>1346.0</ele>
        <time>2019-07-07T10:23:20.803Z</time>
      </trkpt>
      <trkpt lat="42.95439167" lon="-0.28580167">
        <ele>1346.0</ele>
        <time>2019-07-07T10:23:21.821Z</time>
      </trkpt>
      <trkpt lat="42.95439167" lon="-0.28580167">
        <ele>1346.0</ele>
        <time>2019-07-07T10:23:22.824Z</time>
      </trkpt>
      <trkpt lat="42.95429833" lon="-0.28597">
        <ele>1346.0</ele>
        <time>2019-07-07T10:23:23.810Z</time>
      </trkpt>
      <trkpt lat="42.95429833" lon="-0.28597">
        <ele>1346.0</ele>
        <time>2019-07-07T10:23:24.824Z</time>
      </trkpt>
      <trkpt lat="42.95423" lon="-0.28615167">
        <ele>1346.0</ele>
        <time>2019-07-07T10:23:25.805Z</time>
      </trkpt>
      <trkpt lat="42.95419833" lon="-0.28624667">
        <ele>1345.0</ele>
        <time>2019-07-07T10:23:26.823Z</time>
      </trkpt>
      <trkpt lat="42.95419833" lon="-0.28624667">
        <ele>1345.0</ele>
        <time>2019-07-07T10:23:27.804Z</time>
      </trkpt>
      <trkpt lat="42.95411" lon="-0.28642167">
        <ele>1346.0</ele>
        <time>2019-07-07T10:23:28.822Z</time>
      </trkpt>
      <trkpt lat="42.95411" lon="-0.28642167">
        <ele>1346.0</ele>
        <time>2019-07-07T10:23:29.813Z</time>
      </trkpt>
      <trkpt lat="42.95402167" lon="-0.28657833">
        <ele>1345.0</ele>
        <time>2019-07-07T10:23:30.829Z</time>
      </trkpt>
      <trkpt lat="42.95402167" lon="-0.28657833">
        <ele>1345.0</ele>
        <time>2019-07-07T10:23:31.834Z</time>
      </trkpt>
      <trkpt lat="42.95395167" lon="-0.28673833">
        <ele>1345.0</ele>
        <time>2019-07-07T10:23:32.809Z</time>
      </trkpt>
      <trkpt lat="42.95395167" lon="-0.28673833">
        <ele>1345.0</ele>
        <time>2019-07-07T10:23:33.823Z</time>
      </trkpt>
      <trkpt lat="42.95393" lon="-0.286955">
        <ele>1345.0</ele>
        <time>2019-07-07T10:23:34.812Z</time>
      </trkpt>
      <trkpt lat="42.95393" lon="-0.286955">
        <ele>1345.0</ele>
        <time>2019-07-07T10:23:35.811Z</time>
      </trkpt>
      <trkpt lat="42.953985" lon="-0.28715167">
        <ele>1345.0</ele>
        <time>2019-07-07T10:23:36.831Z</time>
      </trkpt>
      <trkpt lat="42.953985" lon="-0.28715167">
        <ele>1345.0</ele>
        <time>2019-07-07T10:23:37.836Z</time>
      </trkpt>
      <trkpt lat="42.95407" lon="-0.28732333">
        <ele>1345.0</ele>
        <time>2019-07-07T10:23:38.810Z</time>
      </trkpt>
      <trkpt lat="42.95407" lon="-0.28732333">
        <ele>1345.0</ele>
        <time>2019-07-07T10:23:39.813Z</time>
      </trkpt>
      <trkpt lat="42.95413667" lon="-0.2875">
        <ele>1345.0</ele>
        <time>2019-07-07T10:23:40.831Z</time>
      </trkpt>
      <trkpt lat="42.95413667" lon="-0.2875">
        <ele>1345.0</ele>
        <time>2019-07-07T10:23:41.821Z</time>
      </trkpt>
      <trkpt lat="42.95420167" lon="-0.28767333">
        <ele>1345.0</ele>
        <time>2019-07-07T10:23:42.804Z</time>
      </trkpt>
      <trkpt lat="42.95420167" lon="-0.28767333">
        <ele>1345.0</ele>
        <time>2019-07-07T10:23:43.803Z</time>
      </trkpt>
      <trkpt lat="42.95426167" lon="-0.287845">
        <ele>1345.0</ele>
        <time>2019-07-07T10:23:44.817Z</time>
      </trkpt>
      <trkpt lat="42.95426167" lon="-0.287845">
        <ele>1345.0</ele>
        <time>2019-07-07T10:23:45.808Z</time>
      </trkpt>
      <trkpt lat="42.954315" lon="-0.288025">
        <ele>1345.0</ele>
        <time>2019-07-07T10:23:46.831Z</time>
      </trkpt>
      <trkpt lat="42.954315" lon="-0.288025">
        <ele>1345.0</ele>
        <time>2019-07-07T10:23:47.826Z</time>
      </trkpt>
      <trkpt lat="42.95435167" lon="-0.28821167">
        <ele>1345.0</ele>
        <time>2019-07-07T10:23:48.828Z</time>
      </trkpt>
      <trkpt lat="42.95436333" lon="-0.28830667">
        <ele>1345.0</ele>
        <time>2019-07-07T10:23:49.832Z</time>
      </trkpt>
      <trkpt lat="42.95436333" lon="-0.28830667">
        <ele>1345.0</ele>
        <time>2019-07-07T10:23:50.835Z</time>
      </trkpt>
      <trkpt lat="42.95439" lon="-0.288495">
        <ele>1345.0</ele>
        <time>2019-07-07T10:23:51.812Z</time>
      </trkpt>
      <trkpt lat="42.95439" lon="-0.288495">
        <ele>1345.0</ele>
        <time>2019-07-07T10:23:52.803Z</time>
      </trkpt>
      <trkpt lat="42.95445" lon="-0.28867167">
        <ele>1345.0</ele>
        <time>2019-07-07T10:23:53.818Z</time>
      </trkpt>
      <trkpt lat="42.95445" lon="-0.28867167">
        <ele>1345.0</ele>
        <time>2019-07-07T10:23:54.820Z</time>
      </trkpt>
      <trkpt lat="42.95453667" lon="-0.28882833">
        <ele>1345.0</ele>
        <time>2019-07-07T10:23:55.837Z</time>
      </trkpt>
      <trkpt lat="42.95453667" lon="-0.28882833">
        <ele>1345.0</ele>
        <time>2019-07-07T10:23:56.813Z</time>
      </trkpt>
      <trkpt lat="42.95465333" lon="-0.28897167">
        <ele>1344.0</ele>
        <time>2019-07-07T10:23:57.830Z</time>
      </trkpt>
      <trkpt lat="42.95465333" lon="-0.28897167">
        <ele>1344.0</ele>
        <time>2019-07-07T10:23:58.808Z</time>
      </trkpt>
      <trkpt lat="42.95477" lon="-0.28909333">
        <ele>1344.0</ele>
        <time>2019-07-07T10:23:59.828Z</time>
      </trkpt>
      <trkpt lat="42.95482667" lon="-0.28915">
        <ele>1344.0</ele>
        <time>2019-07-07T10:24:00.842Z</time>
      </trkpt>
      <trkpt lat="42.95482667" lon="-0.28915">
        <ele>1344.0</ele>
        <time>2019-07-07T10:24:01.833Z</time>
      </trkpt>
      <trkpt lat="42.95493" lon="-0.28927833">
        <ele>1344.0</ele>
        <time>2019-07-07T10:24:02.810Z</time>
      </trkpt>
      <trkpt lat="42.95493" lon="-0.28927833">
        <ele>1344.0</ele>
        <time>2019-07-07T10:24:03.818Z</time>
      </trkpt>
      <trkpt lat="42.95497167" lon="-0.289445">
        <ele>1343.0</ele>
        <time>2019-07-07T10:24:04.841Z</time>
      </trkpt>
      <trkpt lat="42.95497167" lon="-0.289445">
        <ele>1343.0</ele>
        <time>2019-07-07T10:24:05.838Z</time>
      </trkpt>
      <trkpt lat="42.95499167" lon="-0.289635">
        <ele>1343.0</ele>
        <time>2019-07-07T10:24:06.823Z</time>
      </trkpt>
      <trkpt lat="42.95499167" lon="-0.289635">
        <ele>1343.0</ele>
        <time>2019-07-07T10:24:07.811Z</time>
      </trkpt>
      <trkpt lat="42.95502333" lon="-0.28980667">
        <ele>1343.0</ele>
        <time>2019-07-07T10:24:08.830Z</time>
      </trkpt>
      <trkpt lat="42.95507333" lon="-0.28988">
        <ele>1342.0</ele>
        <time>2019-07-07T10:24:09.832Z</time>
      </trkpt>
      <trkpt lat="42.95507333" lon="-0.28988">
        <ele>1342.0</ele>
        <time>2019-07-07T10:24:10.839Z</time>
      </trkpt>
      <trkpt lat="42.95518333" lon="-0.28998833">
        <ele>1342.0</ele>
        <time>2019-07-07T10:24:11.822Z</time>
      </trkpt>
      <trkpt lat="42.95518333" lon="-0.28998833">
        <ele>1342.0</ele>
        <time>2019-07-07T10:24:12.822Z</time>
      </trkpt>
      <trkpt lat="42.955295" lon="-0.29009167">
        <ele>1342.0</ele>
        <time>2019-07-07T10:24:13.802Z</time>
      </trkpt>
      <trkpt lat="42.955295" lon="-0.29009167">
        <ele>1342.0</ele>
        <time>2019-07-07T10:24:14.813Z</time>
      </trkpt>
      <trkpt lat="42.95540167" lon="-0.290205">
        <ele>1342.0</ele>
        <time>2019-07-07T10:24:15.832Z</time>
      </trkpt>
      <trkpt lat="42.95540167" lon="-0.290205">
        <ele>1342.0</ele>
        <time>2019-07-07T10:24:16.809Z</time>
      </trkpt>
      <trkpt lat="42.955515" lon="-0.29032167">
        <ele>1342.0</ele>
        <time>2019-07-07T10:24:17.825Z</time>
      </trkpt>
      <trkpt lat="42.95557167" lon="-0.29038167">
        <ele>1342.0</ele>
        <time>2019-07-07T10:24:18.840Z</time>
      </trkpt>
      <trkpt lat="42.95557167" lon="-0.29038167">
        <ele>1342.0</ele>
        <time>2019-07-07T10:24:19.803Z</time>
      </trkpt>
      <trkpt lat="42.95567667" lon="-0.29049667">
        <ele>1342.0</ele>
        <time>2019-07-07T10:24:20.821Z</time>
      </trkpt>
      <trkpt lat="42.95567667" lon="-0.29049667">
        <ele>1342.0</ele>
        <time>2019-07-07T10:24:21.810Z</time>
      </trkpt>
      <trkpt lat="42.955785" lon="-0.29060333">
        <ele>1341.0</ele>
        <time>2019-07-07T10:24:22.832Z</time>
      </trkpt>
      <trkpt lat="42.95583333" lon="-0.29066167">
        <ele>1341.0</ele>
        <time>2019-07-07T10:24:23.840Z</time>
      </trkpt>
      <trkpt lat="42.95583333" lon="-0.29066167">
        <ele>1341.0</ele>
        <time>2019-07-07T10:24:24.813Z</time>
      </trkpt>
      <trkpt lat="42.95593167" lon="-0.290755">
        <ele>1341.0</ele>
        <time>2019-07-07T10:24:25.827Z</time>
      </trkpt>
      <trkpt lat="42.95593167" lon="-0.290755">
        <ele>1341.0</ele>
        <time>2019-07-07T10:24:26.823Z</time>
      </trkpt>
      <trkpt lat="42.95605167" lon="-0.29084">
        <ele>1341.0</ele>
        <time>2019-07-07T10:24:27.802Z</time>
      </trkpt>
      <trkpt lat="42.95605167" lon="-0.29084">
        <ele>1341.0</ele>
        <time>2019-07-07T10:24:28.803Z</time>
      </trkpt>
      <trkpt lat="42.95618667" lon="-0.29088333">
        <ele>1340.0</ele>
        <time>2019-07-07T10:24:29.837Z</time>
      </trkpt>
      <trkpt lat="42.95618667" lon="-0.29088333">
        <ele>1340.0</ele>
        <time>2019-07-07T10:24:30.803Z</time>
      </trkpt>
      <trkpt lat="42.956315" lon="-0.29088">
        <ele>1340.0</ele>
        <time>2019-07-07T10:24:31.821Z</time>
      </trkpt>
      <trkpt lat="42.95638" lon="-0.290875">
        <ele>1340.0</ele>
        <time>2019-07-07T10:24:32.822Z</time>
      </trkpt>
      <trkpt lat="42.95638" lon="-0.290875">
        <ele>1340.0</ele>
        <time>2019-07-07T10:24:33.824Z</time>
      </trkpt>
      <trkpt lat="42.95650167" lon="-0.290865">
        <ele>1340.0</ele>
        <time>2019-07-07T10:24:34.801Z</time>
      </trkpt>
      <trkpt lat="42.95656667" lon="-0.29085833">
        <ele>1340.0</ele>
        <time>2019-07-07T10:24:35.810Z</time>
      </trkpt>
      <trkpt lat="42.95656667" lon="-0.29085833">
        <ele>1340.0</ele>
        <time>2019-07-07T10:24:36.824Z</time>
      </trkpt>
      <trkpt lat="42.95669833" lon="-0.29084667">
        <ele>1341.0</ele>
        <time>2019-07-07T10:24:37.804Z</time>
      </trkpt>
      <trkpt lat="42.95677" lon="-0.29083667">
        <ele>1341.0</ele>
        <time>2019-07-07T10:24:38.815Z</time>
      </trkpt>
      <trkpt lat="42.95677" lon="-0.29083667">
        <ele>1341.0</ele>
        <time>2019-07-07T10:24:39.802Z</time>
      </trkpt>
      <trkpt lat="42.956905" lon="-0.29082">
        <ele>1341.0</ele>
        <time>2019-07-07T10:24:40.818Z</time>
      </trkpt>
      <trkpt lat="42.95696833" lon="-0.29080833">
        <ele>1342.0</ele>
        <time>2019-07-07T10:24:41.819Z</time>
      </trkpt>
      <trkpt lat="42.95696833" lon="-0.29080833">
        <ele>1342.0</ele>
        <time>2019-07-07T10:24:42.813Z</time>
      </trkpt>
      <trkpt lat="42.95709667" lon="-0.29077833">
        <ele>1342.0</ele>
        <time>2019-07-07T10:24:43.830Z</time>
      </trkpt>
      <trkpt lat="42.95709667" lon="-0.29077833">
        <ele>1342.0</ele>
        <time>2019-07-07T10:24:44.803Z</time>
      </trkpt>
      <trkpt lat="42.95721667" lon="-0.290765">
        <ele>1343.0</ele>
        <time>2019-07-07T10:24:45.822Z</time>
      </trkpt>
      <trkpt lat="42.95721667" lon="-0.290765">
        <ele>1343.0</ele>
        <time>2019-07-07T10:24:46.824Z</time>
      </trkpt>
      <trkpt lat="42.95734833" lon="-0.290735">
        <ele>1343.0</ele>
        <time>2019-07-07T10:24:47.834Z</time>
      </trkpt>
      <trkpt lat="42.95734833" lon="-0.290735">
        <ele>1343.0</ele>
        <time>2019-07-07T10:24:48.821Z</time>
      </trkpt>
      <trkpt lat="42.95744333" lon="-0.29079">
        <ele>1344.0</ele>
        <time>2019-07-07T10:24:49.816Z</time>
      </trkpt>
      <trkpt lat="42.95749667" lon="-0.29083667">
        <ele>1345.0</ele>
        <time>2019-07-07T10:24:50.805Z</time>
      </trkpt>
      <trkpt lat="42.95749667" lon="-0.29083667">
        <ele>1345.0</ele>
        <time>2019-07-07T10:24:51.812Z</time>
      </trkpt>
      <trkpt lat="42.95759333" lon="-0.29094333">
        <ele>1346.0</ele>
        <time>2019-07-07T10:24:52.828Z</time>
      </trkpt>
      <trkpt lat="42.95764" lon="-0.29099833">
        <ele>1347.0</ele>
        <time>2019-07-07T10:24:53.816Z</time>
      </trkpt>
      <trkpt lat="42.95764" lon="-0.29099833">
        <ele>1347.0</ele>
        <time>2019-07-07T10:24:54.802Z</time>
      </trkpt>
      <trkpt lat="42.95774167" lon="-0.29110167">
        <ele>1348.0</ele>
        <time>2019-07-07T10:24:55.819Z</time>
      </trkpt>
      <trkpt lat="42.95774167" lon="-0.29110167">
        <ele>1348.0</ele>
        <time>2019-07-07T10:24:56.804Z</time>
      </trkpt>
      <trkpt lat="42.95784667" lon="-0.291125">
        <ele>1348.0</ele>
        <time>2019-07-07T10:24:57.829Z</time>
      </trkpt>
      <trkpt lat="42.957905" lon="-0.29113333">
        <ele>1349.0</ele>
        <time>2019-07-07T10:24:58.838Z</time>
      </trkpt>
      <trkpt lat="42.957905" lon="-0.29113333">
        <ele>1349.0</ele>
        <time>2019-07-07T10:24:59.803Z</time>
      </trkpt>
      <trkpt lat="42.958015" lon="-0.29119333">
        <ele>1350.0</ele>
        <time>2019-07-07T10:25:00.808Z</time>
      </trkpt>
      <trkpt lat="42.958015" lon="-0.29119333">
        <ele>1350.0</ele>
        <time>2019-07-07T10:25:01.833Z</time>
      </trkpt>
      <trkpt lat="42.95809" lon="-0.29130167">
        <ele>1351.0</ele>
        <time>2019-07-07T10:25:02.816Z</time>
      </trkpt>
      <trkpt lat="42.95809" lon="-0.29138667">
        <ele>1352.0</ele>
        <time>2019-07-07T10:25:03.832Z</time>
      </trkpt>
      <trkpt lat="42.95808833" lon="-0.29145667">
        <ele>1353.0</ele>
        <time>2019-07-07T10:25:04.831Z</time>
      </trkpt>
      <trkpt lat="42.95808833" lon="-0.29145667">
        <ele>1353.0</ele>
        <time>2019-07-07T10:25:05.823Z</time>
      </trkpt>
      <trkpt lat="42.95807833" lon="-0.291595">
        <ele>1356.0</ele>
        <time>2019-07-07T10:25:06.817Z</time>
      </trkpt>
      <trkpt lat="42.95808333" lon="-0.29166333">
        <ele>1357.0</ele>
        <time>2019-07-07T10:25:07.817Z</time>
      </trkpt>
      <trkpt lat="42.95808333" lon="-0.29166333">
        <ele>1357.0</ele>
        <time>2019-07-07T10:25:08.803Z</time>
      </trkpt>
      <trkpt lat="42.95813167" lon="-0.29179333">
        <ele>1358.0</ele>
        <time>2019-07-07T10:25:09.822Z</time>
      </trkpt>
      <trkpt lat="42.95813167" lon="-0.29179333">
        <ele>1358.0</ele>
        <time>2019-07-07T10:25:10.834Z</time>
      </trkpt>
      <trkpt lat="42.95820333" lon="-0.29191667">
        <ele>1359.0</ele>
        <time>2019-07-07T10:25:11.811Z</time>
      </trkpt>
      <trkpt lat="42.95820333" lon="-0.29191667">
        <ele>1359.0</ele>
        <time>2019-07-07T10:25:12.813Z</time>
      </trkpt>
      <trkpt lat="42.95827167" lon="-0.292055">
        <ele>1359.0</ele>
        <time>2019-07-07T10:25:13.834Z</time>
      </trkpt>
      <trkpt lat="42.9583" lon="-0.29213333">
        <ele>1359.0</ele>
        <time>2019-07-07T10:25:14.814Z</time>
      </trkpt>
      <trkpt lat="42.9583" lon="-0.29213333">
        <ele>1359.0</ele>
        <time>2019-07-07T10:25:15.824Z</time>
      </trkpt>
      <trkpt lat="42.95834167" lon="-0.29229833">
        <ele>1360.0</ele>
        <time>2019-07-07T10:25:16.815Z</time>
      </trkpt>
      <trkpt lat="42.95834167" lon="-0.29229833">
        <ele>1360.0</ele>
        <time>2019-07-07T10:25:17.813Z</time>
      </trkpt>
      <trkpt lat="42.95833833" lon="-0.29245167">
        <ele>1361.0</ele>
        <time>2019-07-07T10:25:18.819Z</time>
      </trkpt>
      <trkpt lat="42.95833833" lon="-0.29245167">
        <ele>1361.0</ele>
        <time>2019-07-07T10:25:19.810Z</time>
      </trkpt>
      <trkpt lat="42.95830833" lon="-0.2926">
        <ele>1362.0</ele>
        <time>2019-07-07T10:25:20.831Z</time>
      </trkpt>
      <trkpt lat="42.95830833" lon="-0.2926">
        <ele>1362.0</ele>
        <time>2019-07-07T10:25:21.813Z</time>
      </trkpt>
      <trkpt lat="42.958305" lon="-0.29275667">
        <ele>1362.0</ele>
        <time>2019-07-07T10:25:22.827Z</time>
      </trkpt>
      <trkpt lat="42.958305" lon="-0.29275667">
        <ele>1362.0</ele>
        <time>2019-07-07T10:25:23.813Z</time>
      </trkpt>
      <trkpt lat="42.958325" lon="-0.29290833">
        <ele>1363.0</ele>
        <time>2019-07-07T10:25:24.832Z</time>
      </trkpt>
      <trkpt lat="42.958325" lon="-0.29290833">
        <ele>1363.0</ele>
        <time>2019-07-07T10:25:25.803Z</time>
      </trkpt>
      <trkpt lat="42.9584" lon="-0.29304">
        <ele>1363.0</ele>
        <time>2019-07-07T10:25:26.819Z</time>
      </trkpt>
      <trkpt lat="42.9584" lon="-0.29304">
        <ele>1363.0</ele>
        <time>2019-07-07T10:25:27.801Z</time>
      </trkpt>
      <trkpt lat="42.95850167" lon="-0.29313333">
        <ele>1364.0</ele>
        <time>2019-07-07T10:25:28.841Z</time>
      </trkpt>
      <trkpt lat="42.95855167" lon="-0.29318">
        <ele>1364.0</ele>
        <time>2019-07-07T10:25:29.838Z</time>
      </trkpt>
      <trkpt lat="42.95855167" lon="-0.29318">
        <ele>1364.0</ele>
        <time>2019-07-07T10:25:30.813Z</time>
      </trkpt>
      <trkpt lat="42.95864667" lon="-0.293295">
        <ele>1365.0</ele>
        <time>2019-07-07T10:25:31.828Z</time>
      </trkpt>
      <trkpt lat="42.95869333" lon="-0.29336167">
        <ele>1365.0</ele>
        <time>2019-07-07T10:25:32.829Z</time>
      </trkpt>
      <trkpt lat="42.95869333" lon="-0.29336167">
        <ele>1365.0</ele>
        <time>2019-07-07T10:25:33.813Z</time>
      </trkpt>
      <trkpt lat="42.95878" lon="-0.29349">
        <ele>1365.0</ele>
        <time>2019-07-07T10:25:34.825Z</time>
      </trkpt>
      <trkpt lat="42.95881167" lon="-0.29356167">
        <ele>1366.0</ele>
        <time>2019-07-07T10:25:35.817Z</time>
      </trkpt>
      <trkpt lat="42.95881167" lon="-0.29356167">
        <ele>1366.0</ele>
        <time>2019-07-07T10:25:36.823Z</time>
      </trkpt>
      <trkpt lat="42.95888333" lon="-0.29370167">
        <ele>1366.0</ele>
        <time>2019-07-07T10:25:37.808Z</time>
      </trkpt>
      <trkpt lat="42.95892667" lon="-0.29376333">
        <ele>1367.0</ele>
        <time>2019-07-07T10:25:38.801Z</time>
      </trkpt>
      <trkpt lat="42.95892667" lon="-0.29376333">
        <ele>1367.0</ele>
        <time>2019-07-07T10:25:39.804Z</time>
      </trkpt>
      <trkpt lat="42.95900833" lon="-0.29387833">
        <ele>1367.0</ele>
        <time>2019-07-07T10:25:40.822Z</time>
      </trkpt>
      <trkpt lat="42.95905167" lon="-0.29393">
        <ele>1367.0</ele>
        <time>2019-07-07T10:25:41.818Z</time>
      </trkpt>
      <trkpt lat="42.95905167" lon="-0.29393">
        <ele>1367.0</ele>
        <time>2019-07-07T10:25:42.823Z</time>
      </trkpt>
      <trkpt lat="42.95914167" lon="-0.29403333">
        <ele>1367.0</ele>
        <time>2019-07-07T10:25:43.841Z</time>
      </trkpt>
      <trkpt lat="42.95914167" lon="-0.29403333">
        <ele>1367.0</ele>
        <time>2019-07-07T10:25:44.826Z</time>
      </trkpt>
      <trkpt lat="42.95923333" lon="-0.29414333">
        <ele>1367.0</ele>
        <time>2019-07-07T10:25:45.812Z</time>
      </trkpt>
      <trkpt lat="42.95923333" lon="-0.29414333">
        <ele>1367.0</ele>
        <time>2019-07-07T10:25:46.838Z</time>
      </trkpt>
      <trkpt lat="42.959315" lon="-0.29426667">
        <ele>1367.0</ele>
        <time>2019-07-07T10:25:47.803Z</time>
      </trkpt>
      <trkpt lat="42.959315" lon="-0.29426667">
        <ele>1367.0</ele>
        <time>2019-07-07T10:25:49.192Z</time>
      </trkpt>
      <trkpt lat="42.95937333" lon="-0.29439333">
        <ele>1368.0</ele>
        <time>2019-07-07T10:25:49.811Z</time>
      </trkpt>
      <trkpt lat="42.95937333" lon="-0.29439333">
        <ele>1368.0</ele>
        <time>2019-07-07T10:25:50.834Z</time>
      </trkpt>
      <trkpt lat="42.95941333" lon="-0.29453667">
        <ele>1368.0</ele>
        <time>2019-07-07T10:25:51.821Z</time>
      </trkpt>
      <trkpt lat="42.95941333" lon="-0.29453667">
        <ele>1368.0</ele>
        <time>2019-07-07T10:25:52.813Z</time>
      </trkpt>
      <trkpt lat="42.95943667" lon="-0.29468333">
        <ele>1368.0</ele>
        <time>2019-07-07T10:25:53.834Z</time>
      </trkpt>
      <trkpt lat="42.95943667" lon="-0.29468333">
        <ele>1368.0</ele>
        <time>2019-07-07T10:25:54.801Z</time>
      </trkpt>
      <trkpt lat="42.95944833" lon="-0.29481167">
        <ele>1369.0</ele>
        <time>2019-07-07T10:25:55.812Z</time>
      </trkpt>
      <trkpt lat="42.95946" lon="-0.29486333">
        <ele>1369.0</ele>
        <time>2019-07-07T10:25:56.833Z</time>
      </trkpt>
      <trkpt lat="42.95946" lon="-0.29486333">
        <ele>1369.0</ele>
        <time>2019-07-07T10:25:57.836Z</time>
      </trkpt>
      <trkpt lat="42.95949667" lon="-0.29496167">
        <ele>1369.0</ele>
        <time>2019-07-07T10:25:58.820Z</time>
      </trkpt>
      <trkpt lat="42.95951167" lon="-0.29502167">
        <ele>1369.0</ele>
        <time>2019-07-07T10:25:59.820Z</time>
      </trkpt>
      <trkpt lat="42.95951167" lon="-0.29502167">
        <ele>1369.0</ele>
        <time>2019-07-07T10:26:00.823Z</time>
      </trkpt>
      <trkpt lat="42.95954167" lon="-0.29514333">
        <ele>1369.0</ele>
        <time>2019-07-07T10:26:01.828Z</time>
      </trkpt>
      <trkpt lat="42.95954167" lon="-0.29514333">
        <ele>1369.0</ele>
        <time>2019-07-07T10:26:02.803Z</time>
      </trkpt>
      <trkpt lat="42.95957333" lon="-0.29525833">
        <ele>1370.0</ele>
        <time>2019-07-07T10:26:03.824Z</time>
      </trkpt>
      <trkpt lat="42.95957333" lon="-0.29525833">
        <ele>1370.0</ele>
        <time>2019-07-07T10:26:04.802Z</time>
      </trkpt>
      <trkpt lat="42.95960333" lon="-0.295375">
        <ele>1370.0</ele>
        <time>2019-07-07T10:26:05.818Z</time>
      </trkpt>
      <trkpt lat="42.95960333" lon="-0.295375">
        <ele>1370.0</ele>
        <time>2019-07-07T10:26:06.821Z</time>
      </trkpt>
      <trkpt lat="42.95960333" lon="-0.295375">
        <ele>1370.0</ele>
        <time>2019-07-07T10:26:07.828Z</time>
      </trkpt>
      <trkpt lat="42.95960333" lon="-0.295375">
        <ele>1370.0</ele>
        <time>2019-07-07T10:26:08.839Z</time>
      </trkpt>
      <trkpt lat="42.95960333" lon="-0.295375">
        <ele>1370.0</ele>
        <time>2019-07-07T10:26:09.805Z</time>
      </trkpt>
      <trkpt lat="42.95960333" lon="-0.295375">
        <ele>1370.0</ele>
        <time>2019-07-07T10:26:10.810Z</time>
      </trkpt>
      <trkpt lat="42.95960333" lon="-0.295375">
        <ele>1370.0</ele>
        <time>2019-07-07T10:26:11.817Z</time>
      </trkpt>
      <trkpt lat="42.95960333" lon="-0.295375">
        <ele>1370.0</ele>
        <time>2019-07-07T10:26:12.808Z</time>
      </trkpt>
      <trkpt lat="42.95960333" lon="-0.295375">
        <ele>1370.0</ele>
        <time>2019-07-07T10:26:13.807Z</time>
      </trkpt>
      <trkpt lat="42.95960333" lon="-0.295375">
        <ele>1370.0</ele>
        <time>2019-07-07T10:26:14.807Z</time>
      </trkpt>
      <trkpt lat="42.95960333" lon="-0.295375">
        <ele>1370.0</ele>
        <time>2019-07-07T10:26:15.804Z</time>
      </trkpt>
      <trkpt lat="42.95960333" lon="-0.295375">
        <ele>1370.0</ele>
        <time>2019-07-07T10:26:16.808Z</time>
      </trkpt>
      <trkpt lat="42.95960333" lon="-0.295375">
        <ele>1370.0</ele>
        <time>2019-07-07T10:26:17.806Z</time>
      </trkpt>
      <trkpt lat="42.95960333" lon="-0.295375">
        <ele>1370.0</ele>
        <time>2019-07-07T10:26:18.806Z</time>
      </trkpt>
      <trkpt lat="42.95960333" lon="-0.295375">
        <ele>1370.0</ele>
        <time>2019-07-07T10:26:19.826Z</time>
      </trkpt>
      <trkpt lat="42.95960333" lon="-0.295375">
        <ele>1370.0</ele>
        <time>2019-07-07T10:26:20.807Z</time>
      </trkpt>
      <trkpt lat="42.96025167" lon="-0.29585167">
        <ele>1375.0</ele>
        <time>2019-07-07T10:26:21.801Z</time>
      </trkpt>
      <trkpt lat="42.96025167" lon="-0.29585167">
        <ele>1375.0</ele>
        <time>2019-07-07T10:26:22.803Z</time>
      </trkpt>
      <trkpt lat="42.96033333" lon="-0.29595">
        <ele>1372.0</ele>
        <time>2019-07-07T10:26:23.810Z</time>
      </trkpt>
      <trkpt lat="42.96033333" lon="-0.29595">
        <ele>1372.0</ele>
        <time>2019-07-07T10:26:24.817Z</time>
      </trkpt>
      <trkpt lat="42.960415" lon="-0.29604667">
        <ele>1372.0</ele>
        <time>2019-07-07T10:26:25.810Z</time>
      </trkpt>
      <trkpt lat="42.96045167" lon="-0.296105">
        <ele>1371.0</ele>
        <time>2019-07-07T10:26:26.827Z</time>
      </trkpt>
      <trkpt lat="42.96045167" lon="-0.296105">
        <ele>1371.0</ele>
        <time>2019-07-07T10:26:27.841Z</time>
      </trkpt>
      <trkpt lat="42.96051833" lon="-0.29623">
        <ele>1372.0</ele>
        <time>2019-07-07T10:26:28.818Z</time>
      </trkpt>
      <trkpt lat="42.96051833" lon="-0.29623">
        <ele>1372.0</ele>
        <time>2019-07-07T10:26:29.806Z</time>
      </trkpt>
      <trkpt lat="42.96058333" lon="-0.29635833">
        <ele>1372.0</ele>
        <time>2019-07-07T10:26:30.822Z</time>
      </trkpt>
      <trkpt lat="42.96058333" lon="-0.29635833">
        <ele>1372.0</ele>
        <time>2019-07-07T10:26:31.803Z</time>
      </trkpt>
      <trkpt lat="42.96063667" lon="-0.29649833">
        <ele>1371.0</ele>
        <time>2019-07-07T10:26:32.828Z</time>
      </trkpt>
      <trkpt lat="42.96066333" lon="-0.296565">
        <ele>1371.0</ele>
        <time>2019-07-07T10:26:33.835Z</time>
      </trkpt>
      <trkpt lat="42.96066333" lon="-0.296565">
        <ele>1371.0</ele>
        <time>2019-07-07T10:26:34.817Z</time>
      </trkpt>
      <trkpt lat="42.96071667" lon="-0.296705">
        <ele>1371.0</ele>
        <time>2019-07-07T10:26:35.824Z</time>
      </trkpt>
      <trkpt lat="42.96071667" lon="-0.296705">
        <ele>1371.0</ele>
        <time>2019-07-07T10:26:36.832Z</time>
      </trkpt>
      <trkpt lat="42.96077" lon="-0.296835">
        <ele>1372.0</ele>
        <time>2019-07-07T10:26:37.819Z</time>
      </trkpt>
      <trkpt lat="42.96077" lon="-0.296835">
        <ele>1372.0</ele>
        <time>2019-07-07T10:26:38.808Z</time>
      </trkpt>
      <trkpt lat="42.960825" lon="-0.296965">
        <ele>1372.0</ele>
        <time>2019-07-07T10:26:39.836Z</time>
      </trkpt>
      <trkpt lat="42.960825" lon="-0.296965">
        <ele>1372.0</ele>
        <time>2019-07-07T10:26:40.818Z</time>
      </trkpt>
      <trkpt lat="42.96088167" lon="-0.29709167">
        <ele>1373.0</ele>
        <time>2019-07-07T10:26:41.818Z</time>
      </trkpt>
      <trkpt lat="42.96088167" lon="-0.29709167">
        <ele>1373.0</ele>
        <time>2019-07-07T10:26:42.813Z</time>
      </trkpt>
      <trkpt lat="42.96094" lon="-0.297215">
        <ele>1373.0</ele>
        <time>2019-07-07T10:26:43.820Z</time>
      </trkpt>
      <trkpt lat="42.96097167" lon="-0.29727833">
        <ele>1373.0</ele>
        <time>2019-07-07T10:26:44.814Z</time>
      </trkpt>
      <trkpt lat="42.96097167" lon="-0.29727833">
        <ele>1373.0</ele>
        <time>2019-07-07T10:26:45.840Z</time>
      </trkpt>
      <trkpt lat="42.96105333" lon="-0.29739333">
        <ele>1373.0</ele>
        <time>2019-07-07T10:26:46.830Z</time>
      </trkpt>
      <trkpt lat="42.96105333" lon="-0.29739333">
        <ele>1373.0</ele>
        <time>2019-07-07T10:26:47.830Z</time>
      </trkpt>
      <trkpt lat="42.961145" lon="-0.29749167">
        <ele>1373.0</ele>
        <time>2019-07-07T10:26:48.829Z</time>
      </trkpt>
      <trkpt lat="42.96119167" lon="-0.29753667">
        <ele>1373.0</ele>
        <time>2019-07-07T10:26:49.842Z</time>
      </trkpt>
      <trkpt lat="42.96119167" lon="-0.29753667">
        <ele>1373.0</ele>
        <time>2019-07-07T10:26:50.823Z</time>
      </trkpt>
      <trkpt lat="42.961285" lon="-0.29762667">
        <ele>1374.0</ele>
        <time>2019-07-07T10:26:51.841Z</time>
      </trkpt>
      <trkpt lat="42.96133333" lon="-0.29767167">
        <ele>1374.0</ele>
        <time>2019-07-07T10:26:52.823Z</time>
      </trkpt>
      <trkpt lat="42.96133333" lon="-0.29767167">
        <ele>1374.0</ele>
        <time>2019-07-07T10:26:53.819Z</time>
      </trkpt>
      <trkpt lat="42.961435" lon="-0.29775167">
        <ele>1375.0</ele>
        <time>2019-07-07T10:26:54.838Z</time>
      </trkpt>
      <trkpt lat="42.961435" lon="-0.29775167">
        <ele>1375.0</ele>
        <time>2019-07-07T10:26:55.823Z</time>
      </trkpt>
      <trkpt lat="42.96154167" lon="-0.29780833">
        <ele>1375.0</ele>
        <time>2019-07-07T10:26:56.802Z</time>
      </trkpt>
      <trkpt lat="42.96154167" lon="-0.29780833">
        <ele>1375.0</ele>
        <time>2019-07-07T10:26:57.803Z</time>
      </trkpt>
      <trkpt lat="42.96165" lon="-0.29786">
        <ele>1375.0</ele>
        <time>2019-07-07T10:26:58.836Z</time>
      </trkpt>
      <trkpt lat="42.96170333" lon="-0.29788833">
        <ele>1375.0</ele>
        <time>2019-07-07T10:26:59.817Z</time>
      </trkpt>
      <trkpt lat="42.96170333" lon="-0.29788833">
        <ele>1375.0</ele>
        <time>2019-07-07T10:27:00.813Z</time>
      </trkpt>
      <trkpt lat="42.961795" lon="-0.297985">
        <ele>1375.0</ele>
        <time>2019-07-07T10:27:01.832Z</time>
      </trkpt>
      <trkpt lat="42.96183" lon="-0.298045">
        <ele>1376.0</ele>
        <time>2019-07-07T10:27:02.840Z</time>
      </trkpt>
      <trkpt lat="42.96183" lon="-0.298045">
        <ele>1376.0</ele>
        <time>2019-07-07T10:27:03.823Z</time>
      </trkpt>
      <trkpt lat="42.96190167" lon="-0.29817333">
        <ele>1376.0</ele>
        <time>2019-07-07T10:27:04.815Z</time>
      </trkpt>
      <trkpt lat="42.96193667" lon="-0.298235">
        <ele>1376.0</ele>
        <time>2019-07-07T10:27:05.811Z</time>
      </trkpt>
      <trkpt lat="42.96193667" lon="-0.298235">
        <ele>1376.0</ele>
        <time>2019-07-07T10:27:06.813Z</time>
      </trkpt>
      <trkpt lat="42.961995" lon="-0.29836667">
        <ele>1376.0</ele>
        <time>2019-07-07T10:27:07.826Z</time>
      </trkpt>
      <trkpt lat="42.96202667" lon="-0.29843333">
        <ele>1376.0</ele>
        <time>2019-07-07T10:27:08.811Z</time>
      </trkpt>
      <trkpt lat="42.96202667" lon="-0.29843333">
        <ele>1376.0</ele>
        <time>2019-07-07T10:27:09.814Z</time>
      </trkpt>
      <trkpt lat="42.96209" lon="-0.298565">
        <ele>1377.0</ele>
        <time>2019-07-07T10:27:10.830Z</time>
      </trkpt>
      <trkpt lat="42.96209" lon="-0.298565">
        <ele>1377.0</ele>
        <time>2019-07-07T10:27:11.825Z</time>
      </trkpt>
      <trkpt lat="42.96215667" lon="-0.29869333">
        <ele>1377.0</ele>
        <time>2019-07-07T10:27:12.812Z</time>
      </trkpt>
      <trkpt lat="42.96215667" lon="-0.29869333">
        <ele>1377.0</ele>
        <time>2019-07-07T10:27:13.802Z</time>
      </trkpt>
      <trkpt lat="42.96223667" lon="-0.298815">
        <ele>1377.0</ele>
        <time>2019-07-07T10:27:14.821Z</time>
      </trkpt>
      <trkpt lat="42.96223667" lon="-0.298815">
        <ele>1377.0</ele>
        <time>2019-07-07T10:27:15.821Z</time>
      </trkpt>
      <trkpt lat="42.96232167" lon="-0.29892667">
        <ele>1377.0</ele>
        <time>2019-07-07T10:27:16.840Z</time>
      </trkpt>
      <trkpt lat="42.96232167" lon="-0.29892667">
        <ele>1377.0</ele>
        <time>2019-07-07T10:27:17.813Z</time>
      </trkpt>
      <trkpt lat="42.96239333" lon="-0.299045">
        <ele>1377.0</ele>
        <time>2019-07-07T10:27:18.824Z</time>
      </trkpt>
      <trkpt lat="42.96239333" lon="-0.299045">
        <ele>1377.0</ele>
        <time>2019-07-07T10:27:19.804Z</time>
      </trkpt>
      <trkpt lat="42.96245667" lon="-0.29917667">
        <ele>1378.0</ele>
        <time>2019-07-07T10:27:20.824Z</time>
      </trkpt>
      <trkpt lat="42.96245667" lon="-0.29917667">
        <ele>1378.0</ele>
        <time>2019-07-07T10:27:21.815Z</time>
      </trkpt>
      <trkpt lat="42.96252833" lon="-0.29930333">
        <ele>1378.0</ele>
        <time>2019-07-07T10:27:22.836Z</time>
      </trkpt>
      <trkpt lat="42.96252833" lon="-0.29930333">
        <ele>1378.0</ele>
        <time>2019-07-07T10:27:23.824Z</time>
      </trkpt>
      <trkpt lat="42.96259167" lon="-0.29943">
        <ele>1378.0</ele>
        <time>2019-07-07T10:27:24.806Z</time>
      </trkpt>
      <trkpt lat="42.96261667" lon="-0.29949167">
        <ele>1379.0</ele>
        <time>2019-07-07T10:27:25.822Z</time>
      </trkpt>
      <trkpt lat="42.96263833" lon="-0.29956333">
        <ele>1379.0</ele>
        <time>2019-07-07T10:27:26.813Z</time>
      </trkpt>
      <trkpt lat="42.96263833" lon="-0.29956333">
        <ele>1379.0</ele>
        <time>2019-07-07T10:27:27.823Z</time>
      </trkpt>
      <trkpt lat="42.962675" lon="-0.299705">
        <ele>1379.0</ele>
        <time>2019-07-07T10:27:28.840Z</time>
      </trkpt>
      <trkpt lat="42.96269167" lon="-0.29977833">
        <ele>1379.0</ele>
        <time>2019-07-07T10:27:29.829Z</time>
      </trkpt>
      <trkpt lat="42.96269167" lon="-0.29977833">
        <ele>1379.0</ele>
        <time>2019-07-07T10:27:30.840Z</time>
      </trkpt>
      <trkpt lat="42.96271833" lon="-0.299935">
        <ele>1380.0</ele>
        <time>2019-07-07T10:27:31.813Z</time>
      </trkpt>
      <trkpt lat="42.96271833" lon="-0.299935">
        <ele>1380.0</ele>
        <time>2019-07-07T10:27:32.805Z</time>
      </trkpt>
      <trkpt lat="42.96275" lon="-0.30008667">
        <ele>1380.0</ele>
        <time>2019-07-07T10:27:33.835Z</time>
      </trkpt>
      <trkpt lat="42.96275" lon="-0.30008667">
        <ele>1380.0</ele>
        <time>2019-07-07T10:27:34.826Z</time>
      </trkpt>
      <trkpt lat="42.962795" lon="-0.30023">
        <ele>1380.0</ele>
        <time>2019-07-07T10:27:35.805Z</time>
      </trkpt>
      <trkpt lat="42.962795" lon="-0.30023">
        <ele>1380.0</ele>
        <time>2019-07-07T10:27:36.803Z</time>
      </trkpt>
      <trkpt lat="42.96286" lon="-0.300365">
        <ele>1381.0</ele>
        <time>2019-07-07T10:27:37.822Z</time>
      </trkpt>
      <trkpt lat="42.96289667" lon="-0.30043167">
        <ele>1381.0</ele>
        <time>2019-07-07T10:27:38.820Z</time>
      </trkpt>
      <trkpt lat="42.962935" lon="-0.30049667">
        <ele>1381.0</ele>
        <time>2019-07-07T10:27:39.830Z</time>
      </trkpt>
      <trkpt lat="42.962935" lon="-0.30049667">
        <ele>1381.0</ele>
        <time>2019-07-07T10:27:40.804Z</time>
      </trkpt>
      <trkpt lat="42.963" lon="-0.30063">
        <ele>1382.0</ele>
        <time>2019-07-07T10:27:41.828Z</time>
      </trkpt>
      <trkpt lat="42.96302667" lon="-0.3007">
        <ele>1382.0</ele>
        <time>2019-07-07T10:27:42.812Z</time>
      </trkpt>
      <trkpt lat="42.96302667" lon="-0.3007">
        <ele>1382.0</ele>
        <time>2019-07-07T10:27:43.813Z</time>
      </trkpt>
      <trkpt lat="42.96307333" lon="-0.30085">
        <ele>1382.0</ele>
        <time>2019-07-07T10:27:44.836Z</time>
      </trkpt>
      <trkpt lat="42.96307333" lon="-0.30085">
        <ele>1382.0</ele>
        <time>2019-07-07T10:27:45.825Z</time>
      </trkpt>
      <trkpt lat="42.96312" lon="-0.30099">
        <ele>1383.0</ele>
        <time>2019-07-07T10:27:46.816Z</time>
      </trkpt>
      <trkpt lat="42.96312" lon="-0.30099">
        <ele>1383.0</ele>
        <time>2019-07-07T10:27:47.817Z</time>
      </trkpt>
      <trkpt lat="42.96317" lon="-0.30112167">
        <ele>1383.0</ele>
        <time>2019-07-07T10:27:48.825Z</time>
      </trkpt>
      <trkpt lat="42.963195" lon="-0.30119">
        <ele>1383.0</ele>
        <time>2019-07-07T10:27:49.823Z</time>
      </trkpt>
      <trkpt lat="42.963195" lon="-0.30119">
        <ele>1383.0</ele>
        <time>2019-07-07T10:27:50.803Z</time>
      </trkpt>
      <trkpt lat="42.96324667" lon="-0.30132667">
        <ele>1383.0</ele>
        <time>2019-07-07T10:27:51.830Z</time>
      </trkpt>
      <trkpt lat="42.96324667" lon="-0.30132667">
        <ele>1383.0</ele>
        <time>2019-07-07T10:27:52.813Z</time>
      </trkpt>
      <trkpt lat="42.9633" lon="-0.30146">
        <ele>1384.0</ele>
        <time>2019-07-07T10:27:53.826Z</time>
      </trkpt>
      <trkpt lat="42.9633" lon="-0.30146">
        <ele>1384.0</ele>
        <time>2019-07-07T10:27:54.803Z</time>
      </trkpt>
      <trkpt lat="42.96334667" lon="-0.3016">
        <ele>1384.0</ele>
        <time>2019-07-07T10:27:55.821Z</time>
      </trkpt>
      <trkpt lat="42.96334667" lon="-0.3016">
        <ele>1384.0</ele>
        <time>2019-07-07T10:27:56.814Z</time>
      </trkpt>
      <trkpt lat="42.96339" lon="-0.30175">
        <ele>1385.0</ele>
        <time>2019-07-07T10:27:57.830Z</time>
      </trkpt>
      <trkpt lat="42.96339" lon="-0.30175">
        <ele>1385.0</ele>
        <time>2019-07-07T10:27:58.837Z</time>
      </trkpt>
      <trkpt lat="42.96342667" lon="-0.30189667">
        <ele>1385.0</ele>
        <time>2019-07-07T10:27:59.814Z</time>
      </trkpt>
      <trkpt lat="42.96342667" lon="-0.30189667">
        <ele>1385.0</ele>
        <time>2019-07-07T10:28:00.803Z</time>
      </trkpt>
      <trkpt lat="42.96346" lon="-0.30203833">
        <ele>1386.0</ele>
        <time>2019-07-07T10:28:01.818Z</time>
      </trkpt>
      <trkpt lat="42.96347667" lon="-0.30211333">
        <ele>1386.0</ele>
        <time>2019-07-07T10:28:02.820Z</time>
      </trkpt>
      <trkpt lat="42.96347667" lon="-0.30211333">
        <ele>1386.0</ele>
        <time>2019-07-07T10:28:03.823Z</time>
      </trkpt>
      <trkpt lat="42.96351667" lon="-0.30225833">
        <ele>1386.0</ele>
        <time>2019-07-07T10:28:04.838Z</time>
      </trkpt>
      <trkpt lat="42.96351667" lon="-0.30225833">
        <ele>1386.0</ele>
        <time>2019-07-07T10:28:05.833Z</time>
      </trkpt>
      <trkpt lat="42.96355167" lon="-0.302405">
        <ele>1387.0</ele>
        <time>2019-07-07T10:28:06.808Z</time>
      </trkpt>
      <trkpt lat="42.96355167" lon="-0.302405">
        <ele>1387.0</ele>
        <time>2019-07-07T10:28:07.811Z</time>
      </trkpt>
      <trkpt lat="42.96358333" lon="-0.30255333">
        <ele>1387.0</ele>
        <time>2019-07-07T10:28:08.830Z</time>
      </trkpt>
      <trkpt lat="42.96358333" lon="-0.30255333">
        <ele>1387.0</ele>
        <time>2019-07-07T10:28:09.833Z</time>
      </trkpt>
      <trkpt lat="42.96362" lon="-0.30270333">
        <ele>1387.0</ele>
        <time>2019-07-07T10:28:10.802Z</time>
      </trkpt>
      <trkpt lat="42.96362" lon="-0.30270333">
        <ele>1387.0</ele>
        <time>2019-07-07T10:28:11.804Z</time>
      </trkpt>
      <trkpt lat="42.96366333" lon="-0.30284667">
        <ele>1388.0</ele>
        <time>2019-07-07T10:28:12.815Z</time>
      </trkpt>
      <trkpt lat="42.96366333" lon="-0.30284667">
        <ele>1388.0</ele>
        <time>2019-07-07T10:28:13.813Z</time>
      </trkpt>
      <trkpt lat="42.96370333" lon="-0.30299">
        <ele>1388.0</ele>
        <time>2019-07-07T10:28:14.828Z</time>
      </trkpt>
      <trkpt lat="42.96370333" lon="-0.30299">
        <ele>1388.0</ele>
        <time>2019-07-07T10:28:15.823Z</time>
      </trkpt>
      <trkpt lat="42.96374333" lon="-0.303125">
        <ele>1388.0</ele>
        <time>2019-07-07T10:28:16.841Z</time>
      </trkpt>
      <trkpt lat="42.96374333" lon="-0.303125">
        <ele>1388.0</ele>
        <time>2019-07-07T10:28:17.805Z</time>
      </trkpt>
      <trkpt lat="42.96380167" lon="-0.30323667">
        <ele>1388.0</ele>
        <time>2019-07-07T10:28:18.824Z</time>
      </trkpt>
      <trkpt lat="42.96380167" lon="-0.30323667">
        <ele>1388.0</ele>
        <time>2019-07-07T10:28:19.824Z</time>
      </trkpt>
      <trkpt lat="42.96389333" lon="-0.30328">
        <ele>1389.0</ele>
        <time>2019-07-07T10:28:20.818Z</time>
      </trkpt>
      <trkpt lat="42.96389333" lon="-0.30328">
        <ele>1389.0</ele>
        <time>2019-07-07T10:28:21.838Z</time>
      </trkpt>
      <trkpt lat="42.96400333" lon="-0.30325167">
        <ele>1389.0</ele>
        <time>2019-07-07T10:28:22.810Z</time>
      </trkpt>
      <trkpt lat="42.96400333" lon="-0.30325167">
        <ele>1389.0</ele>
        <time>2019-07-07T10:28:23.814Z</time>
      </trkpt>
      <trkpt lat="42.96411333" lon="-0.30323">
        <ele>1390.0</ele>
        <time>2019-07-07T10:28:24.833Z</time>
      </trkpt>
      <trkpt lat="42.96411333" lon="-0.30323">
        <ele>1390.0</ele>
        <time>2019-07-07T10:28:25.835Z</time>
      </trkpt>
      <trkpt lat="42.964225" lon="-0.30319333">
        <ele>1390.0</ele>
        <time>2019-07-07T10:28:26.808Z</time>
      </trkpt>
      <trkpt lat="42.964225" lon="-0.30319333">
        <ele>1390.0</ele>
        <time>2019-07-07T10:28:27.835Z</time>
      </trkpt>
      <trkpt lat="42.96431833" lon="-0.30312167">
        <ele>1391.0</ele>
        <time>2019-07-07T10:28:28.813Z</time>
      </trkpt>
      <trkpt lat="42.96431833" lon="-0.30312167">
        <ele>1391.0</ele>
        <time>2019-07-07T10:28:29.826Z</time>
      </trkpt>
      <trkpt lat="42.96437667" lon="-0.30302167">
        <ele>1391.0</ele>
        <time>2019-07-07T10:28:30.813Z</time>
      </trkpt>
      <trkpt lat="42.96437667" lon="-0.30302167">
        <ele>1391.0</ele>
        <time>2019-07-07T10:28:31.814Z</time>
      </trkpt>
      <trkpt lat="42.96443833" lon="-0.302935">
        <ele>1392.0</ele>
        <time>2019-07-07T10:28:32.831Z</time>
      </trkpt>
      <trkpt lat="42.96443833" lon="-0.302935">
        <ele>1392.0</ele>
        <time>2019-07-07T10:28:33.812Z</time>
      </trkpt>
      <trkpt lat="42.96452333" lon="-0.302865">
        <ele>1393.0</ele>
        <time>2019-07-07T10:28:34.829Z</time>
      </trkpt>
      <trkpt lat="42.96452333" lon="-0.302865">
        <ele>1393.0</ele>
        <time>2019-07-07T10:28:35.801Z</time>
      </trkpt>
      <trkpt lat="42.96461167" lon="-0.30280167">
        <ele>1393.0</ele>
        <time>2019-07-07T10:28:36.817Z</time>
      </trkpt>
      <trkpt lat="42.96465167" lon="-0.30276833">
        <ele>1393.0</ele>
        <time>2019-07-07T10:28:37.807Z</time>
      </trkpt>
      <trkpt lat="42.96465167" lon="-0.30276833">
        <ele>1393.0</ele>
        <time>2019-07-07T10:28:38.832Z</time>
      </trkpt>
      <trkpt lat="42.96472667" lon="-0.302695">
        <ele>1394.0</ele>
        <time>2019-07-07T10:28:39.829Z</time>
      </trkpt>
      <trkpt lat="42.96472667" lon="-0.302695">
        <ele>1394.0</ele>
        <time>2019-07-07T10:28:40.811Z</time>
      </trkpt>
      <trkpt lat="42.96479833" lon="-0.30261833">
        <ele>1395.0</ele>
        <time>2019-07-07T10:28:41.827Z</time>
      </trkpt>
      <trkpt lat="42.96479833" lon="-0.30261833">
        <ele>1395.0</ele>
        <time>2019-07-07T10:28:42.806Z</time>
      </trkpt>
      <trkpt lat="42.964875" lon="-0.30255167">
        <ele>1396.0</ele>
        <time>2019-07-07T10:28:43.821Z</time>
      </trkpt>
      <trkpt lat="42.964915" lon="-0.30252333">
        <ele>1396.0</ele>
        <time>2019-07-07T10:28:44.828Z</time>
      </trkpt>
      <trkpt lat="42.964915" lon="-0.30252333">
        <ele>1396.0</ele>
        <time>2019-07-07T10:28:45.811Z</time>
      </trkpt>
      <trkpt lat="42.96499167" lon="-0.302465">
        <ele>1397.0</ele>
        <time>2019-07-07T10:28:46.827Z</time>
      </trkpt>
      <trkpt lat="42.96499167" lon="-0.302465">
        <ele>1397.0</ele>
        <time>2019-07-07T10:28:47.838Z</time>
      </trkpt>
      <trkpt lat="42.96506333" lon="-0.30241167">
        <ele>1397.0</ele>
        <time>2019-07-07T10:28:48.822Z</time>
      </trkpt>
      <trkpt lat="42.96509833" lon="-0.30238333">
        <ele>1397.0</ele>
        <time>2019-07-07T10:28:49.829Z</time>
      </trkpt>
      <trkpt lat="42.96509833" lon="-0.30238333">
        <ele>1397.0</ele>
        <time>2019-07-07T10:28:50.820Z</time>
      </trkpt>
      <trkpt lat="42.96516" lon="-0.30233">
        <ele>1398.0</ele>
        <time>2019-07-07T10:28:51.839Z</time>
      </trkpt>
      <trkpt lat="42.96516" lon="-0.30233">
        <ele>1398.0</ele>
        <time>2019-07-07T10:28:52.822Z</time>
      </trkpt>
      <trkpt lat="42.96521667" lon="-0.30227833">
        <ele>1398.0</ele>
        <time>2019-07-07T10:28:53.837Z</time>
      </trkpt>
      <trkpt lat="42.96521667" lon="-0.30227833">
        <ele>1398.0</ele>
        <time>2019-07-07T10:28:54.803Z</time>
      </trkpt>
      <trkpt lat="42.96527167" lon="-0.30223167">
        <ele>1399.0</ele>
        <time>2019-07-07T10:28:55.819Z</time>
      </trkpt>
      <trkpt lat="42.96527167" lon="-0.30223167">
        <ele>1399.0</ele>
        <time>2019-07-07T10:28:56.813Z</time>
      </trkpt>
      <trkpt lat="42.96532167" lon="-0.30219167">
        <ele>1399.0</ele>
        <time>2019-07-07T10:28:57.830Z</time>
      </trkpt>
      <trkpt lat="42.96532167" lon="-0.30219167">
        <ele>1399.0</ele>
        <time>2019-07-07T10:28:58.819Z</time>
      </trkpt>
      <trkpt lat="42.96538" lon="-0.30215667">
        <ele>1400.0</ele>
        <time>2019-07-07T10:28:59.803Z</time>
      </trkpt>
      <trkpt lat="42.96538" lon="-0.30215667">
        <ele>1400.0</ele>
        <time>2019-07-07T10:29:00.803Z</time>
      </trkpt>
      <trkpt lat="42.96543833" lon="-0.30212">
        <ele>1400.0</ele>
        <time>2019-07-07T10:29:01.822Z</time>
      </trkpt>
      <trkpt lat="42.96546833" lon="-0.30210167">
        <ele>1401.0</ele>
        <time>2019-07-07T10:29:02.820Z</time>
      </trkpt>
      <trkpt lat="42.96549833" lon="-0.30208333">
        <ele>1401.0</ele>
        <time>2019-07-07T10:29:03.825Z</time>
      </trkpt>
      <trkpt lat="42.96549833" lon="-0.30208333">
        <ele>1401.0</ele>
        <time>2019-07-07T10:29:04.803Z</time>
      </trkpt>
      <trkpt lat="42.965555" lon="-0.30204667">
        <ele>1401.0</ele>
        <time>2019-07-07T10:29:05.818Z</time>
      </trkpt>
      <trkpt lat="42.965555" lon="-0.30204667">
        <ele>1401.0</ele>
        <time>2019-07-07T10:29:06.823Z</time>
      </trkpt>
      <trkpt lat="42.96561667" lon="-0.30200333">
        <ele>1402.0</ele>
        <time>2019-07-07T10:29:07.842Z</time>
      </trkpt>
      <trkpt lat="42.965645" lon="-0.301985">
        <ele>1402.0</ele>
        <time>2019-07-07T10:29:08.838Z</time>
      </trkpt>
      <trkpt lat="42.965645" lon="-0.301985">
        <ele>1402.0</ele>
        <time>2019-07-07T10:29:09.838Z</time>
      </trkpt>
      <trkpt lat="42.9657" lon="-0.30194833">
        <ele>1402.0</ele>
        <time>2019-07-07T10:29:10.811Z</time>
      </trkpt>
      <trkpt lat="42.9657" lon="-0.30194833">
        <ele>1402.0</ele>
        <time>2019-07-07T10:29:11.813Z</time>
      </trkpt>
      <trkpt lat="42.965755" lon="-0.30190667">
        <ele>1403.0</ele>
        <time>2019-07-07T10:29:12.828Z</time>
      </trkpt>
      <trkpt lat="42.965755" lon="-0.30190667">
        <ele>1403.0</ele>
        <time>2019-07-07T10:29:13.823Z</time>
      </trkpt>
      <trkpt lat="42.96581833" lon="-0.30187333">
        <ele>1404.0</ele>
        <time>2019-07-07T10:29:14.806Z</time>
      </trkpt>
      <trkpt lat="42.96581833" lon="-0.30187333">
        <ele>1404.0</ele>
        <time>2019-07-07T10:29:15.804Z</time>
      </trkpt>
      <trkpt lat="42.96588833" lon="-0.30184">
        <ele>1404.0</ele>
        <time>2019-07-07T10:29:16.820Z</time>
      </trkpt>
      <trkpt lat="42.96592667" lon="-0.30182167">
        <ele>1405.0</ele>
        <time>2019-07-07T10:29:17.830Z</time>
      </trkpt>
      <trkpt lat="42.96592667" lon="-0.30182167">
        <ele>1405.0</ele>
        <time>2019-07-07T10:29:18.836Z</time>
      </trkpt>
      <trkpt lat="42.96600667" lon="-0.30181833">
        <ele>1405.0</ele>
        <time>2019-07-07T10:29:19.811Z</time>
      </trkpt>
      <trkpt lat="42.96604667" lon="-0.301835">
        <ele>1405.0</ele>
        <time>2019-07-07T10:29:20.820Z</time>
      </trkpt>
      <trkpt lat="42.96604667" lon="-0.301835">
        <ele>1405.0</ele>
        <time>2019-07-07T10:29:21.823Z</time>
      </trkpt>
      <trkpt lat="42.966125" lon="-0.30189">
        <ele>1405.0</ele>
        <time>2019-07-07T10:29:22.837Z</time>
      </trkpt>
      <trkpt lat="42.966125" lon="-0.30189">
        <ele>1405.0</ele>
        <time>2019-07-07T10:29:23.824Z</time>
      </trkpt>
      <trkpt lat="42.96619667" lon="-0.30197333">
        <ele>1405.0</ele>
        <time>2019-07-07T10:29:24.805Z</time>
      </trkpt>
      <trkpt lat="42.96619667" lon="-0.30197333">
        <ele>1405.0</ele>
        <time>2019-07-07T10:29:25.813Z</time>
      </trkpt>
      <trkpt lat="42.966255" lon="-0.30207333">
        <ele>1405.0</ele>
        <time>2019-07-07T10:29:26.830Z</time>
      </trkpt>
      <trkpt lat="42.966255" lon="-0.30207333">
        <ele>1405.0</ele>
        <time>2019-07-07T10:29:27.801Z</time>
      </trkpt>
      <trkpt lat="42.96631667" lon="-0.30218333">
        <ele>1405.0</ele>
        <time>2019-07-07T10:29:28.817Z</time>
      </trkpt>
      <trkpt lat="42.96631667" lon="-0.30218333">
        <ele>1405.0</ele>
        <time>2019-07-07T10:29:29.816Z</time>
      </trkpt>
      <trkpt lat="42.96637167" lon="-0.30229167">
        <ele>1405.0</ele>
        <time>2019-07-07T10:29:30.840Z</time>
      </trkpt>
      <trkpt lat="42.96637167" lon="-0.30229167">
        <ele>1405.0</ele>
        <time>2019-07-07T10:29:31.813Z</time>
      </trkpt>
      <trkpt lat="42.96641667" lon="-0.30239167">
        <ele>1405.0</ele>
        <time>2019-07-07T10:29:32.828Z</time>
      </trkpt>
      <trkpt lat="42.96641667" lon="-0.30239167">
        <ele>1405.0</ele>
        <time>2019-07-07T10:29:33.813Z</time>
      </trkpt>
      <trkpt lat="42.96647167" lon="-0.30249">
        <ele>1406.0</ele>
        <time>2019-07-07T10:29:34.833Z</time>
      </trkpt>
      <trkpt lat="42.96647167" lon="-0.30249">
        <ele>1406.0</ele>
        <time>2019-07-07T10:29:35.824Z</time>
      </trkpt>
      <trkpt lat="42.96653333" lon="-0.30258667">
        <ele>1406.0</ele>
        <time>2019-07-07T10:29:36.837Z</time>
      </trkpt>
      <trkpt lat="42.96653333" lon="-0.30258667">
        <ele>1406.0</ele>
        <time>2019-07-07T10:29:37.823Z</time>
      </trkpt>
      <trkpt lat="42.96660833" lon="-0.30266333">
        <ele>1406.0</ele>
        <time>2019-07-07T10:29:38.838Z</time>
      </trkpt>
      <trkpt lat="42.96664667" lon="-0.302685">
        <ele>1406.0</ele>
        <time>2019-07-07T10:29:39.826Z</time>
      </trkpt>
      <trkpt lat="42.96664667" lon="-0.302685">
        <ele>1406.0</ele>
        <time>2019-07-07T10:29:40.811Z</time>
      </trkpt>
      <trkpt lat="42.966735" lon="-0.30271167">
        <ele>1406.0</ele>
        <time>2019-07-07T10:29:41.832Z</time>
      </trkpt>
      <trkpt lat="42.966735" lon="-0.30271167">
        <ele>1406.0</ele>
        <time>2019-07-07T10:29:42.813Z</time>
      </trkpt>
      <trkpt lat="42.966825" lon="-0.30272167">
        <ele>1406.0</ele>
        <time>2019-07-07T10:29:43.831Z</time>
      </trkpt>
      <trkpt lat="42.96687167" lon="-0.302715">
        <ele>1406.0</ele>
        <time>2019-07-07T10:29:44.841Z</time>
      </trkpt>
      <trkpt lat="42.96687167" lon="-0.302715">
        <ele>1406.0</ele>
        <time>2019-07-07T10:29:45.814Z</time>
      </trkpt>
      <trkpt lat="42.96698167" lon="-0.30268">
        <ele>1406.0</ele>
        <time>2019-07-07T10:29:46.830Z</time>
      </trkpt>
      <trkpt lat="42.96698167" lon="-0.30268">
        <ele>1406.0</ele>
        <time>2019-07-07T10:29:47.835Z</time>
      </trkpt>
      <trkpt lat="42.967095" lon="-0.302605">
        <ele>1406.0</ele>
        <time>2019-07-07T10:29:48.881Z</time>
      </trkpt>
      <trkpt lat="42.96715167" lon="-0.30255833">
        <ele>1406.0</ele>
        <time>2019-07-07T10:29:49.833Z</time>
      </trkpt>
      <trkpt lat="42.96715167" lon="-0.30255833">
        <ele>1406.0</ele>
        <time>2019-07-07T10:29:50.827Z</time>
      </trkpt>
      <trkpt lat="42.967255" lon="-0.30246167">
        <ele>1406.0</ele>
        <time>2019-07-07T10:29:51.805Z</time>
      </trkpt>
      <trkpt lat="42.967255" lon="-0.30246167">
        <ele>1406.0</ele>
        <time>2019-07-07T10:29:52.820Z</time>
      </trkpt>
      <trkpt lat="42.967355" lon="-0.30236167">
        <ele>1407.0</ele>
        <time>2019-07-07T10:29:53.839Z</time>
      </trkpt>
      <trkpt lat="42.967355" lon="-0.30236167">
        <ele>1407.0</ele>
        <time>2019-07-07T10:29:54.813Z</time>
      </trkpt>
      <trkpt lat="42.967455" lon="-0.30226167">
        <ele>1407.0</ele>
        <time>2019-07-07T10:29:55.838Z</time>
      </trkpt>
      <trkpt lat="42.967455" lon="-0.30226167">
        <ele>1407.0</ele>
        <time>2019-07-07T10:29:56.812Z</time>
      </trkpt>
      <trkpt lat="42.96755333" lon="-0.302165">
        <ele>1407.0</ele>
        <time>2019-07-07T10:29:57.827Z</time>
      </trkpt>
      <trkpt lat="42.96755333" lon="-0.302165">
        <ele>1407.0</ele>
        <time>2019-07-07T10:29:58.803Z</time>
      </trkpt>
      <trkpt lat="42.96764667" lon="-0.30208667">
        <ele>1407.0</ele>
        <time>2019-07-07T10:29:59.830Z</time>
      </trkpt>
      <trkpt lat="42.96769667" lon="-0.30205">
        <ele>1408.0</ele>
        <time>2019-07-07T10:30:00.832Z</time>
      </trkpt>
      <trkpt lat="42.96775167" lon="-0.30201333">
        <ele>1408.0</ele>
        <time>2019-07-07T10:30:01.815Z</time>
      </trkpt>
      <trkpt lat="42.96775167" lon="-0.30201333">
        <ele>1408.0</ele>
        <time>2019-07-07T10:30:02.803Z</time>
      </trkpt>
      <trkpt lat="42.96786167" lon="-0.301965">
        <ele>1408.0</ele>
        <time>2019-07-07T10:30:03.816Z</time>
      </trkpt>
      <trkpt lat="42.96786167" lon="-0.301965">
        <ele>1408.0</ele>
        <time>2019-07-07T10:30:04.801Z</time>
      </trkpt>
      <trkpt lat="42.96797167" lon="-0.30195167">
        <ele>1408.0</ele>
        <time>2019-07-07T10:30:05.816Z</time>
      </trkpt>
      <trkpt lat="42.96797167" lon="-0.30195167">
        <ele>1408.0</ele>
        <time>2019-07-07T10:30:06.840Z</time>
      </trkpt>
      <trkpt lat="42.96808333" lon="-0.30196667">
        <ele>1409.0</ele>
        <time>2019-07-07T10:30:07.816Z</time>
      </trkpt>
      <trkpt lat="42.96814" lon="-0.30198">
        <ele>1409.0</ele>
        <time>2019-07-07T10:30:08.828Z</time>
      </trkpt>
      <trkpt lat="42.96814" lon="-0.30198">
        <ele>1409.0</ele>
        <time>2019-07-07T10:30:09.806Z</time>
      </trkpt>
      <trkpt lat="42.96825" lon="-0.301995">
        <ele>1410.0</ele>
        <time>2019-07-07T10:30:10.826Z</time>
      </trkpt>
      <trkpt lat="42.9683" lon="-0.30199333">
        <ele>1411.0</ele>
        <time>2019-07-07T10:30:11.815Z</time>
      </trkpt>
      <trkpt lat="42.9683" lon="-0.30199333">
        <ele>1411.0</ele>
        <time>2019-07-07T10:30:12.823Z</time>
      </trkpt>
      <trkpt lat="42.96838333" lon="-0.30194667">
        <ele>1412.0</ele>
        <time>2019-07-07T10:30:13.840Z</time>
      </trkpt>
      <trkpt lat="42.96842" lon="-0.30190333">
        <ele>1413.0</ele>
        <time>2019-07-07T10:30:14.807Z</time>
      </trkpt>
      <trkpt lat="42.96842" lon="-0.30190333">
        <ele>1413.0</ele>
        <time>2019-07-07T10:30:15.803Z</time>
      </trkpt>
      <trkpt lat="42.96848333" lon="-0.30181333">
        <ele>1414.0</ele>
        <time>2019-07-07T10:30:16.820Z</time>
      </trkpt>
      <trkpt lat="42.96850833" lon="-0.30176">
        <ele>1414.0</ele>
        <time>2019-07-07T10:30:17.832Z</time>
      </trkpt>
      <trkpt lat="42.96850833" lon="-0.30176">
        <ele>1414.0</ele>
        <time>2019-07-07T10:30:18.824Z</time>
      </trkpt>
      <trkpt lat="42.96857167" lon="-0.30163833">
        <ele>1415.0</ele>
        <time>2019-07-07T10:30:19.841Z</time>
      </trkpt>
      <trkpt lat="42.96857167" lon="-0.30163833">
        <ele>1415.0</ele>
        <time>2019-07-07T10:30:20.833Z</time>
      </trkpt>
      <trkpt lat="42.96864167" lon="-0.30153167">
        <ele>1415.0</ele>
        <time>2019-07-07T10:30:21.807Z</time>
      </trkpt>
      <trkpt lat="42.96864167" lon="-0.30153167">
        <ele>1415.0</ele>
        <time>2019-07-07T10:30:22.803Z</time>
      </trkpt>
      <trkpt lat="42.96872167" lon="-0.30143833">
        <ele>1416.0</ele>
        <time>2019-07-07T10:30:23.819Z</time>
      </trkpt>
      <trkpt lat="42.96872167" lon="-0.30143833">
        <ele>1416.0</ele>
        <time>2019-07-07T10:30:24.810Z</time>
      </trkpt>
      <trkpt lat="42.96881167" lon="-0.30134667">
        <ele>1416.0</ele>
        <time>2019-07-07T10:30:25.818Z</time>
      </trkpt>
      <trkpt lat="42.96881167" lon="-0.30134667">
        <ele>1416.0</ele>
        <time>2019-07-07T10:30:26.833Z</time>
      </trkpt>
      <trkpt lat="42.9689" lon="-0.30127">
        <ele>1417.0</ele>
        <time>2019-07-07T10:30:27.817Z</time>
      </trkpt>
      <trkpt lat="42.9689" lon="-0.30127">
        <ele>1417.0</ele>
        <time>2019-07-07T10:30:28.813Z</time>
      </trkpt>
      <trkpt lat="42.96898833" lon="-0.30119833">
        <ele>1418.0</ele>
        <time>2019-07-07T10:30:29.839Z</time>
      </trkpt>
      <trkpt lat="42.96898833" lon="-0.30119833">
        <ele>1418.0</ele>
        <time>2019-07-07T10:30:30.813Z</time>
      </trkpt>
      <trkpt lat="42.96909167" lon="-0.30114667">
        <ele>1419.0</ele>
        <time>2019-07-07T10:30:31.828Z</time>
      </trkpt>
      <trkpt lat="42.96914167" lon="-0.30112167">
        <ele>1419.0</ele>
        <time>2019-07-07T10:30:32.839Z</time>
      </trkpt>
      <trkpt lat="42.96914167" lon="-0.30112167">
        <ele>1419.0</ele>
        <time>2019-07-07T10:30:33.803Z</time>
      </trkpt>
      <trkpt lat="42.96923833" lon="-0.30105833">
        <ele>1420.0</ele>
        <time>2019-07-07T10:30:34.815Z</time>
      </trkpt>
      <trkpt lat="42.96923833" lon="-0.30105833">
        <ele>1420.0</ele>
        <time>2019-07-07T10:30:35.834Z</time>
      </trkpt>
      <trkpt lat="42.96932" lon="-0.30098">
        <ele>1421.0</ele>
        <time>2019-07-07T10:30:36.814Z</time>
      </trkpt>
      <trkpt lat="42.96937" lon="-0.30093833">
        <ele>1422.0</ele>
        <time>2019-07-07T10:30:37.807Z</time>
      </trkpt>
      <trkpt lat="42.96941833" lon="-0.30090167">
        <ele>1422.0</ele>
        <time>2019-07-07T10:30:38.830Z</time>
      </trkpt>
      <trkpt lat="42.96941833" lon="-0.30090167">
        <ele>1422.0</ele>
        <time>2019-07-07T10:30:39.818Z</time>
      </trkpt>
      <trkpt lat="42.96952333" lon="-0.30082167">
        <ele>1423.0</ele>
        <time>2019-07-07T10:30:40.825Z</time>
      </trkpt>
      <trkpt lat="42.96957333" lon="-0.30078167">
        <ele>1424.0</ele>
        <time>2019-07-07T10:30:41.832Z</time>
      </trkpt>
      <trkpt lat="42.96957333" lon="-0.30078167">
        <ele>1424.0</ele>
        <time>2019-07-07T10:30:42.803Z</time>
      </trkpt>
      <trkpt lat="42.96966833" lon="-0.30071333">
        <ele>1425.0</ele>
        <time>2019-07-07T10:30:43.819Z</time>
      </trkpt>
      <trkpt lat="42.96966833" lon="-0.30071333">
        <ele>1425.0</ele>
        <time>2019-07-07T10:30:44.803Z</time>
      </trkpt>
      <trkpt lat="42.96975333" lon="-0.30063667">
        <ele>1426.0</ele>
        <time>2019-07-07T10:30:45.821Z</time>
      </trkpt>
      <trkpt lat="42.96975333" lon="-0.30063667">
        <ele>1426.0</ele>
        <time>2019-07-07T10:30:46.828Z</time>
      </trkpt>
      <trkpt lat="42.96983167" lon="-0.300565">
        <ele>1427.0</ele>
        <time>2019-07-07T10:30:47.837Z</time>
      </trkpt>
      <trkpt lat="42.96983167" lon="-0.300565">
        <ele>1427.0</ele>
        <time>2019-07-07T10:30:48.833Z</time>
      </trkpt>
      <trkpt lat="42.96991833" lon="-0.30053">
        <ele>1428.0</ele>
        <time>2019-07-07T10:30:49.808Z</time>
      </trkpt>
      <trkpt lat="42.96991833" lon="-0.30053">
        <ele>1428.0</ele>
        <time>2019-07-07T10:30:50.802Z</time>
      </trkpt>
      <trkpt lat="42.97000167" lon="-0.30053">
        <ele>1429.0</ele>
        <time>2019-07-07T10:30:51.816Z</time>
      </trkpt>
      <trkpt lat="42.97004167" lon="-0.30054833">
        <ele>1430.0</ele>
        <time>2019-07-07T10:30:52.809Z</time>
      </trkpt>
      <trkpt lat="42.97004167" lon="-0.30054833">
        <ele>1430.0</ele>
        <time>2019-07-07T10:30:53.827Z</time>
      </trkpt>
      <trkpt lat="42.97010167" lon="-0.30061">
        <ele>1431.0</ele>
        <time>2019-07-07T10:30:54.805Z</time>
      </trkpt>
      <trkpt lat="42.97010167" lon="-0.30061">
        <ele>1431.0</ele>
        <time>2019-07-07T10:30:55.824Z</time>
      </trkpt>
      <trkpt lat="42.970145" lon="-0.300695">
        <ele>1431.0</ele>
        <time>2019-07-07T10:30:56.841Z</time>
      </trkpt>
      <trkpt lat="42.970145" lon="-0.300695">
        <ele>1431.0</ele>
        <time>2019-07-07T10:30:57.813Z</time>
      </trkpt>
      <trkpt lat="42.97018333" lon="-0.300785">
        <ele>1430.0</ele>
        <time>2019-07-07T10:30:58.819Z</time>
      </trkpt>
      <trkpt lat="42.97020167" lon="-0.30083">
        <ele>1430.0</ele>
        <time>2019-07-07T10:30:59.814Z</time>
      </trkpt>
      <trkpt lat="42.97020167" lon="-0.30083">
        <ele>1430.0</ele>
        <time>2019-07-07T10:31:00.833Z</time>
      </trkpt>
      <trkpt lat="42.97024667" lon="-0.30091333">
        <ele>1430.0</ele>
        <time>2019-07-07T10:31:01.809Z</time>
      </trkpt>
      <trkpt lat="42.97027" lon="-0.300955">
        <ele>1430.0</ele>
        <time>2019-07-07T10:31:02.808Z</time>
      </trkpt>
      <trkpt lat="42.97027" lon="-0.300955">
        <ele>1430.0</ele>
        <time>2019-07-07T10:31:03.813Z</time>
      </trkpt>
      <trkpt lat="42.97032333" lon="-0.30104667">
        <ele>1430.0</ele>
        <time>2019-07-07T10:31:04.818Z</time>
      </trkpt>
      <trkpt lat="42.97035333" lon="-0.30109167">
        <ele>1430.0</ele>
        <time>2019-07-07T10:31:05.827Z</time>
      </trkpt>
      <trkpt lat="42.97038333" lon="-0.30113667">
        <ele>1430.0</ele>
        <time>2019-07-07T10:31:06.837Z</time>
      </trkpt>
      <trkpt lat="42.97038333" lon="-0.30113667">
        <ele>1430.0</ele>
        <time>2019-07-07T10:31:07.802Z</time>
      </trkpt>
      <trkpt lat="42.97046" lon="-0.30121333">
        <ele>1430.0</ele>
        <time>2019-07-07T10:31:08.819Z</time>
      </trkpt>
      <trkpt lat="42.97046" lon="-0.30121333">
        <ele>1430.0</ele>
        <time>2019-07-07T10:31:09.824Z</time>
      </trkpt>
      <trkpt lat="42.97054" lon="-0.30128167">
        <ele>1430.0</ele>
        <time>2019-07-07T10:31:10.841Z</time>
      </trkpt>
      <trkpt lat="42.97058" lon="-0.30132">
        <ele>1430.0</ele>
        <time>2019-07-07T10:31:11.816Z</time>
      </trkpt>
      <trkpt lat="42.97058" lon="-0.30132">
        <ele>1430.0</ele>
        <time>2019-07-07T10:31:12.803Z</time>
      </trkpt>
      <trkpt lat="42.97066833" lon="-0.301395">
        <ele>1431.0</ele>
        <time>2019-07-07T10:31:13.835Z</time>
      </trkpt>
      <trkpt lat="42.970705" lon="-0.30143">
        <ele>1430.0</ele>
        <time>2019-07-07T10:31:14.831Z</time>
      </trkpt>
      <trkpt lat="42.970705" lon="-0.30143">
        <ele>1430.0</ele>
        <time>2019-07-07T10:31:15.823Z</time>
      </trkpt>
      <trkpt lat="42.97078333" lon="-0.30150333">
        <ele>1430.0</ele>
        <time>2019-07-07T10:31:16.839Z</time>
      </trkpt>
      <trkpt lat="42.97078333" lon="-0.30150333">
        <ele>1430.0</ele>
        <time>2019-07-07T10:31:17.824Z</time>
      </trkpt>
      <trkpt lat="42.970865" lon="-0.301585">
        <ele>1430.0</ele>
        <time>2019-07-07T10:31:18.840Z</time>
      </trkpt>
      <trkpt lat="42.97090667" lon="-0.30163">
        <ele>1430.0</ele>
        <time>2019-07-07T10:31:19.833Z</time>
      </trkpt>
      <trkpt lat="42.97090667" lon="-0.30163">
        <ele>1430.0</ele>
        <time>2019-07-07T10:31:20.833Z</time>
      </trkpt>
      <trkpt lat="42.97099333" lon="-0.30171833">
        <ele>1429.0</ele>
        <time>2019-07-07T10:31:21.808Z</time>
      </trkpt>
      <trkpt lat="42.97099333" lon="-0.30171833">
        <ele>1429.0</ele>
        <time>2019-07-07T10:31:22.834Z</time>
      </trkpt>
      <trkpt lat="42.97108333" lon="-0.30179667">
        <ele>1429.0</ele>
        <time>2019-07-07T10:31:23.830Z</time>
      </trkpt>
      <trkpt lat="42.97108333" lon="-0.30179667">
        <ele>1429.0</ele>
        <time>2019-07-07T10:31:24.830Z</time>
      </trkpt>
      <trkpt lat="42.97117667" lon="-0.301865">
        <ele>1429.0</ele>
        <time>2019-07-07T10:31:25.809Z</time>
      </trkpt>
      <trkpt lat="42.97117667" lon="-0.301865">
        <ele>1429.0</ele>
        <time>2019-07-07T10:31:26.804Z</time>
      </trkpt>
      <trkpt lat="42.971265" lon="-0.30194333">
        <ele>1430.0</ele>
        <time>2019-07-07T10:31:27.820Z</time>
      </trkpt>
      <trkpt lat="42.971265" lon="-0.30194333">
        <ele>1430.0</ele>
        <time>2019-07-07T10:31:28.823Z</time>
      </trkpt>
      <trkpt lat="42.971345" lon="-0.30203167">
        <ele>1430.0</ele>
        <time>2019-07-07T10:31:29.841Z</time>
      </trkpt>
      <trkpt lat="42.971345" lon="-0.30203167">
        <ele>1430.0</ele>
        <time>2019-07-07T10:31:30.832Z</time>
      </trkpt>
      <trkpt lat="42.971415" lon="-0.30213667">
        <ele>1430.0</ele>
        <time>2019-07-07T10:31:31.817Z</time>
      </trkpt>
      <trkpt lat="42.97144833" lon="-0.30219">
        <ele>1430.0</ele>
        <time>2019-07-07T10:31:32.832Z</time>
      </trkpt>
      <trkpt lat="42.97144833" lon="-0.30219">
        <ele>1430.0</ele>
        <time>2019-07-07T10:31:33.821Z</time>
      </trkpt>
      <trkpt lat="42.97151667" lon="-0.30229667">
        <ele>1430.0</ele>
        <time>2019-07-07T10:31:34.843Z</time>
      </trkpt>
      <trkpt lat="42.97154667" lon="-0.30234667">
        <ele>1430.0</ele>
        <time>2019-07-07T10:31:35.821Z</time>
      </trkpt>
      <trkpt lat="42.97154667" lon="-0.30234667">
        <ele>1430.0</ele>
        <time>2019-07-07T10:31:36.810Z</time>
      </trkpt>
      <trkpt lat="42.971605" lon="-0.30244167">
        <ele>1431.0</ele>
        <time>2019-07-07T10:31:37.827Z</time>
      </trkpt>
      <trkpt lat="42.971605" lon="-0.30244167">
        <ele>1431.0</ele>
        <time>2019-07-07T10:31:38.823Z</time>
      </trkpt>
      <trkpt lat="42.97165" lon="-0.30254167">
        <ele>1431.0</ele>
        <time>2019-07-07T10:31:39.807Z</time>
      </trkpt>
      <trkpt lat="42.97165" lon="-0.30254167">
        <ele>1431.0</ele>
        <time>2019-07-07T10:31:40.813Z</time>
      </trkpt>
      <trkpt lat="42.97168167" lon="-0.30263333">
        <ele>1431.0</ele>
        <time>2019-07-07T10:31:41.825Z</time>
      </trkpt>
      <trkpt lat="42.97170167" lon="-0.30268167">
        <ele>1431.0</ele>
        <time>2019-07-07T10:31:42.840Z</time>
      </trkpt>
      <trkpt lat="42.97171833" lon="-0.30272833">
        <ele>1431.0</ele>
        <time>2019-07-07T10:31:43.810Z</time>
      </trkpt>
      <trkpt lat="42.97171833" lon="-0.30272833">
        <ele>1431.0</ele>
        <time>2019-07-07T10:31:44.803Z</time>
      </trkpt>
      <trkpt lat="42.97175667" lon="-0.30282">
        <ele>1432.0</ele>
        <time>2019-07-07T10:31:45.818Z</time>
      </trkpt>
      <trkpt lat="42.97175667" lon="-0.30282">
        <ele>1432.0</ele>
        <time>2019-07-07T10:31:46.840Z</time>
      </trkpt>
      <trkpt lat="42.9718" lon="-0.302905">
        <ele>1432.0</ele>
        <time>2019-07-07T10:31:47.907Z</time>
      </trkpt>
      <trkpt lat="42.9718" lon="-0.302905">
        <ele>1432.0</ele>
        <time>2019-07-07T10:31:48.811Z</time>
      </trkpt>
      <trkpt lat="42.97185167" lon="-0.30298167">
        <ele>1432.0</ele>
        <time>2019-07-07T10:31:49.827Z</time>
      </trkpt>
      <trkpt lat="42.97185167" lon="-0.30298167">
        <ele>1432.0</ele>
        <time>2019-07-07T10:31:50.813Z</time>
      </trkpt>
      <trkpt lat="42.97190833" lon="-0.303055">
        <ele>1433.0</ele>
        <time>2019-07-07T10:31:51.830Z</time>
      </trkpt>
      <trkpt lat="42.97190833" lon="-0.303055">
        <ele>1433.0</ele>
        <time>2019-07-07T10:31:52.802Z</time>
      </trkpt>
      <trkpt lat="42.97196" lon="-0.30313667">
        <ele>1433.0</ele>
        <time>2019-07-07T10:31:53.819Z</time>
      </trkpt>
      <trkpt lat="42.97196" lon="-0.30313667">
        <ele>1433.0</ele>
        <time>2019-07-07T10:31:54.828Z</time>
      </trkpt>
      <trkpt lat="42.97201" lon="-0.30321667">
        <ele>1434.0</ele>
        <time>2019-07-07T10:31:55.806Z</time>
      </trkpt>
      <trkpt lat="42.97201" lon="-0.30321667">
        <ele>1434.0</ele>
        <time>2019-07-07T10:31:56.813Z</time>
      </trkpt>
      <trkpt lat="42.97205667" lon="-0.30330167">
        <ele>1434.0</ele>
        <time>2019-07-07T10:31:57.829Z</time>
      </trkpt>
      <trkpt lat="42.97205667" lon="-0.30330167">
        <ele>1434.0</ele>
        <time>2019-07-07T10:31:58.811Z</time>
      </trkpt>
      <trkpt lat="42.97210833" lon="-0.30339">
        <ele>1434.0</ele>
        <time>2019-07-07T10:31:59.817Z</time>
      </trkpt>
      <trkpt lat="42.97210833" lon="-0.30339">
        <ele>1434.0</ele>
        <time>2019-07-07T10:32:00.823Z</time>
      </trkpt>
      <trkpt lat="42.97216833" lon="-0.30345833">
        <ele>1435.0</ele>
        <time>2019-07-07T10:32:01.845Z</time>
      </trkpt>
      <trkpt lat="42.97219667" lon="-0.30348833">
        <ele>1435.0</ele>
        <time>2019-07-07T10:32:02.818Z</time>
      </trkpt>
      <trkpt lat="42.972225" lon="-0.303525">
        <ele>1435.0</ele>
        <time>2019-07-07T10:32:03.839Z</time>
      </trkpt>
      <trkpt lat="42.972225" lon="-0.303525">
        <ele>1435.0</ele>
        <time>2019-07-07T10:32:04.833Z</time>
      </trkpt>
      <trkpt lat="42.97228333" lon="-0.303605">
        <ele>1436.0</ele>
        <time>2019-07-07T10:32:05.807Z</time>
      </trkpt>
      <trkpt lat="42.97228333" lon="-0.303605">
        <ele>1436.0</ele>
        <time>2019-07-07T10:32:06.813Z</time>
      </trkpt>
      <trkpt lat="42.97233667" lon="-0.30369333">
        <ele>1436.0</ele>
        <time>2019-07-07T10:32:07.840Z</time>
      </trkpt>
      <trkpt lat="42.97233667" lon="-0.30369333">
        <ele>1436.0</ele>
        <time>2019-07-07T10:32:08.821Z</time>
      </trkpt>
      <trkpt lat="42.97237833" lon="-0.30379833">
        <ele>1437.0</ele>
        <time>2019-07-07T10:32:09.840Z</time>
      </trkpt>
      <trkpt lat="42.97240167" lon="-0.30385333">
        <ele>1437.0</ele>
        <time>2019-07-07T10:32:10.837Z</time>
      </trkpt>
      <trkpt lat="42.97240167" lon="-0.30385333">
        <ele>1437.0</ele>
        <time>2019-07-07T10:32:11.813Z</time>
      </trkpt>
      <trkpt lat="42.97246667" lon="-0.303955">
        <ele>1437.0</ele>
        <time>2019-07-07T10:32:12.826Z</time>
      </trkpt>
      <trkpt lat="42.9725" lon="-0.304">
        <ele>1437.0</ele>
        <time>2019-07-07T10:32:13.832Z</time>
      </trkpt>
      <trkpt lat="42.9725" lon="-0.304">
        <ele>1437.0</ele>
        <time>2019-07-07T10:32:14.834Z</time>
      </trkpt>
      <trkpt lat="42.97256167" lon="-0.30408333">
        <ele>1437.0</ele>
        <time>2019-07-07T10:32:15.814Z</time>
      </trkpt>
      <trkpt lat="42.97256167" lon="-0.30408333">
        <ele>1437.0</ele>
        <time>2019-07-07T10:32:16.803Z</time>
      </trkpt>
      <trkpt lat="42.97262333" lon="-0.30417">
        <ele>1437.0</ele>
        <time>2019-07-07T10:32:17.818Z</time>
      </trkpt>
      <trkpt lat="42.97262333" lon="-0.30417">
        <ele>1437.0</ele>
        <time>2019-07-07T10:32:18.833Z</time>
      </trkpt>
      <trkpt lat="42.97268833" lon="-0.304265">
        <ele>1438.0</ele>
        <time>2019-07-07T10:32:19.841Z</time>
      </trkpt>
      <trkpt lat="42.97268833" lon="-0.304265">
        <ele>1438.0</ele>
        <time>2019-07-07T10:32:20.803Z</time>
      </trkpt>
      <trkpt lat="42.97276667" lon="-0.30435167">
        <ele>1438.0</ele>
        <time>2019-07-07T10:32:21.823Z</time>
      </trkpt>
      <trkpt lat="42.97281167" lon="-0.30438">
        <ele>1438.0</ele>
        <time>2019-07-07T10:32:22.815Z</time>
      </trkpt>
      <trkpt lat="42.97281167" lon="-0.30438">
        <ele>1438.0</ele>
        <time>2019-07-07T10:32:23.833Z</time>
      </trkpt>
      <trkpt lat="42.97290333" lon="-0.30441">
        <ele>1439.0</ele>
        <time>2019-07-07T10:32:24.809Z</time>
      </trkpt>
      <trkpt lat="42.97290333" lon="-0.30441">
        <ele>1439.0</ele>
        <time>2019-07-07T10:32:25.804Z</time>
      </trkpt>
      <trkpt lat="42.97299667" lon="-0.30441667">
        <ele>1439.0</ele>
        <time>2019-07-07T10:32:26.827Z</time>
      </trkpt>
      <trkpt lat="42.97299667" lon="-0.30441667">
        <ele>1439.0</ele>
        <time>2019-07-07T10:32:27.830Z</time>
      </trkpt>
      <trkpt lat="42.97309167" lon="-0.30440167">
        <ele>1440.0</ele>
        <time>2019-07-07T10:32:28.811Z</time>
      </trkpt>
      <trkpt lat="42.97314167" lon="-0.30439">
        <ele>1440.0</ele>
        <time>2019-07-07T10:32:29.826Z</time>
      </trkpt>
      <trkpt lat="42.97314167" lon="-0.30439">
        <ele>1440.0</ele>
        <time>2019-07-07T10:32:30.823Z</time>
      </trkpt>
      <trkpt lat="42.97324167" lon="-0.30440667">
        <ele>1441.0</ele>
        <time>2019-07-07T10:32:31.841Z</time>
      </trkpt>
      <trkpt lat="42.97324167" lon="-0.30440667">
        <ele>1441.0</ele>
        <time>2019-07-07T10:32:32.827Z</time>
      </trkpt>
      <trkpt lat="42.97333667" lon="-0.30446667">
        <ele>1441.0</ele>
        <time>2019-07-07T10:32:33.841Z</time>
      </trkpt>
      <trkpt lat="42.97333667" lon="-0.30446667">
        <ele>1441.0</ele>
        <time>2019-07-07T10:32:34.830Z</time>
      </trkpt>
      <trkpt lat="42.97343167" lon="-0.30453833">
        <ele>1441.0</ele>
        <time>2019-07-07T10:32:35.817Z</time>
      </trkpt>
      <trkpt lat="42.97348167" lon="-0.30456167">
        <ele>1441.0</ele>
        <time>2019-07-07T10:32:36.821Z</time>
      </trkpt>
      <trkpt lat="42.97348167" lon="-0.30456167">
        <ele>1441.0</ele>
        <time>2019-07-07T10:32:37.834Z</time>
      </trkpt>
      <trkpt lat="42.97358" lon="-0.30459167">
        <ele>1441.0</ele>
        <time>2019-07-07T10:32:38.819Z</time>
      </trkpt>
      <trkpt lat="42.97358" lon="-0.30459167">
        <ele>1441.0</ele>
        <time>2019-07-07T10:32:39.805Z</time>
      </trkpt>
      <trkpt lat="42.97367833" lon="-0.304605">
        <ele>1442.0</ele>
        <time>2019-07-07T10:32:40.831Z</time>
      </trkpt>
      <trkpt lat="42.97372833" lon="-0.30460333">
        <ele>1442.0</ele>
        <time>2019-07-07T10:32:41.832Z</time>
      </trkpt>
      <trkpt lat="42.97377667" lon="-0.304605">
        <ele>1443.0</ele>
        <time>2019-07-07T10:32:42.838Z</time>
      </trkpt>
      <trkpt lat="42.97377667" lon="-0.304605">
        <ele>1443.0</ele>
        <time>2019-07-07T10:32:43.831Z</time>
      </trkpt>
      <trkpt lat="42.973875" lon="-0.30463">
        <ele>1443.0</ele>
        <time>2019-07-07T10:32:44.819Z</time>
      </trkpt>
      <trkpt lat="42.973875" lon="-0.30463">
        <ele>1443.0</ele>
        <time>2019-07-07T10:32:45.823Z</time>
      </trkpt>
      <trkpt lat="42.97396333" lon="-0.30470167">
        <ele>1443.0</ele>
        <time>2019-07-07T10:32:46.839Z</time>
      </trkpt>
      <trkpt lat="42.97396333" lon="-0.30470167">
        <ele>1443.0</ele>
        <time>2019-07-07T10:32:47.837Z</time>
      </trkpt>
      <trkpt lat="42.97403667" lon="-0.30480167">
        <ele>1443.0</ele>
        <time>2019-07-07T10:32:48.820Z</time>
      </trkpt>
      <trkpt lat="42.97407333" lon="-0.304855">
        <ele>1443.0</ele>
        <time>2019-07-07T10:32:49.829Z</time>
      </trkpt>
      <trkpt lat="42.97407333" lon="-0.304855">
        <ele>1443.0</ele>
        <time>2019-07-07T10:32:50.833Z</time>
      </trkpt>
      <trkpt lat="42.97414667" lon="-0.30495833">
        <ele>1443.0</ele>
        <time>2019-07-07T10:32:51.810Z</time>
      </trkpt>
      <trkpt lat="42.97414667" lon="-0.30495833">
        <ele>1443.0</ele>
        <time>2019-07-07T10:32:52.813Z</time>
      </trkpt>
      <trkpt lat="42.97422167" lon="-0.305065">
        <ele>1443.0</ele>
        <time>2019-07-07T10:32:53.826Z</time>
      </trkpt>
      <trkpt lat="42.97422167" lon="-0.305065">
        <ele>1443.0</ele>
        <time>2019-07-07T10:32:54.818Z</time>
      </trkpt>
      <trkpt lat="42.9743" lon="-0.30517">
        <ele>1443.0</ele>
        <time>2019-07-07T10:32:55.832Z</time>
      </trkpt>
      <trkpt lat="42.97434333" lon="-0.305215">
        <ele>1443.0</ele>
        <time>2019-07-07T10:32:56.841Z</time>
      </trkpt>
      <trkpt lat="42.97434333" lon="-0.305215">
        <ele>1443.0</ele>
        <time>2019-07-07T10:32:57.810Z</time>
      </trkpt>
      <trkpt lat="42.97443833" lon="-0.30528667">
        <ele>1444.0</ele>
        <time>2019-07-07T10:32:58.828Z</time>
      </trkpt>
      <trkpt lat="42.97443833" lon="-0.30528667">
        <ele>1444.0</ele>
        <time>2019-07-07T10:32:59.823Z</time>
      </trkpt>
      <trkpt lat="42.97453167" lon="-0.30535333">
        <ele>1444.0</ele>
        <time>2019-07-07T10:33:00.836Z</time>
      </trkpt>
      <trkpt lat="42.97453167" lon="-0.30535333">
        <ele>1444.0</ele>
        <time>2019-07-07T10:33:01.804Z</time>
      </trkpt>
      <trkpt lat="42.97462833" lon="-0.305425">
        <ele>1444.0</ele>
        <time>2019-07-07T10:33:02.822Z</time>
      </trkpt>
      <trkpt lat="42.97462833" lon="-0.305425">
        <ele>1444.0</ele>
        <time>2019-07-07T10:33:03.803Z</time>
      </trkpt>
      <trkpt lat="42.97472333" lon="-0.30551667">
        <ele>1444.0</ele>
        <time>2019-07-07T10:33:04.822Z</time>
      </trkpt>
      <trkpt lat="42.97476667" lon="-0.30557333">
        <ele>1444.0</ele>
        <time>2019-07-07T10:33:05.830Z</time>
      </trkpt>
      <trkpt lat="42.97476667" lon="-0.30557333">
        <ele>1444.0</ele>
        <time>2019-07-07T10:33:06.823Z</time>
      </trkpt>
      <trkpt lat="42.97483" lon="-0.30570333">
        <ele>1444.0</ele>
        <time>2019-07-07T10:33:07.843Z</time>
      </trkpt>
      <trkpt lat="42.97485167" lon="-0.30577667">
        <ele>1444.0</ele>
        <time>2019-07-07T10:33:08.838Z</time>
      </trkpt>
      <trkpt lat="42.97485167" lon="-0.30577667">
        <ele>1444.0</ele>
        <time>2019-07-07T10:33:09.834Z</time>
      </trkpt>
      <trkpt lat="42.97486833" lon="-0.30592833">
        <ele>1444.0</ele>
        <time>2019-07-07T10:33:10.817Z</time>
      </trkpt>
      <trkpt lat="42.97486833" lon="-0.30592833">
        <ele>1444.0</ele>
        <time>2019-07-07T10:33:11.833Z</time>
      </trkpt>
      <trkpt lat="42.97486833" lon="-0.30608667">
        <ele>1444.0</ele>
        <time>2019-07-07T10:33:12.810Z</time>
      </trkpt>
      <trkpt lat="42.974865" lon="-0.306165">
        <ele>1444.0</ele>
        <time>2019-07-07T10:33:13.821Z</time>
      </trkpt>
      <trkpt lat="42.974865" lon="-0.306165">
        <ele>1444.0</ele>
        <time>2019-07-07T10:33:14.805Z</time>
      </trkpt>
      <trkpt lat="42.97485167" lon="-0.306315">
        <ele>1444.0</ele>
        <time>2019-07-07T10:33:15.818Z</time>
      </trkpt>
      <trkpt lat="42.97485167" lon="-0.306315">
        <ele>1444.0</ele>
        <time>2019-07-07T10:33:16.834Z</time>
      </trkpt>
      <trkpt lat="42.97483667" lon="-0.30646333">
        <ele>1444.0</ele>
        <time>2019-07-07T10:33:17.809Z</time>
      </trkpt>
      <trkpt lat="42.97482667" lon="-0.30654167">
        <ele>1444.0</ele>
        <time>2019-07-07T10:33:18.842Z</time>
      </trkpt>
      <trkpt lat="42.97482667" lon="-0.30654167">
        <ele>1444.0</ele>
        <time>2019-07-07T10:33:19.833Z</time>
      </trkpt>
      <trkpt lat="42.97481" lon="-0.30668833">
        <ele>1444.0</ele>
        <time>2019-07-07T10:33:20.812Z</time>
      </trkpt>
      <trkpt lat="42.97481" lon="-0.30668833">
        <ele>1444.0</ele>
        <time>2019-07-07T10:33:21.823Z</time>
      </trkpt>
      <trkpt lat="42.97478667" lon="-0.30683167">
        <ele>1444.0</ele>
        <time>2019-07-07T10:33:22.840Z</time>
      </trkpt>
      <trkpt lat="42.97478667" lon="-0.30683167">
        <ele>1444.0</ele>
        <time>2019-07-07T10:33:23.822Z</time>
      </trkpt>
      <trkpt lat="42.974765" lon="-0.30696333">
        <ele>1445.0</ele>
        <time>2019-07-07T10:33:24.840Z</time>
      </trkpt>
      <trkpt lat="42.974765" lon="-0.30696333">
        <ele>1445.0</ele>
        <time>2019-07-07T10:33:25.821Z</time>
      </trkpt>
      <trkpt lat="42.97474333" lon="-0.30709">
        <ele>1445.0</ele>
        <time>2019-07-07T10:33:26.838Z</time>
      </trkpt>
      <trkpt lat="42.97474333" lon="-0.30709">
        <ele>1445.0</ele>
        <time>2019-07-07T10:33:27.813Z</time>
      </trkpt>
      <trkpt lat="42.97471833" lon="-0.30720167">
        <ele>1446.0</ele>
        <time>2019-07-07T10:33:28.830Z</time>
      </trkpt>
      <trkpt lat="42.97470667" lon="-0.30725833">
        <ele>1446.0</ele>
        <time>2019-07-07T10:33:29.839Z</time>
      </trkpt>
      <trkpt lat="42.97470667" lon="-0.30725833">
        <ele>1446.0</ele>
        <time>2019-07-07T10:33:30.813Z</time>
      </trkpt>
      <trkpt lat="42.97468167" lon="-0.30737833">
        <ele>1447.0</ele>
        <time>2019-07-07T10:33:31.832Z</time>
      </trkpt>
      <trkpt lat="42.97468167" lon="-0.30737833">
        <ele>1447.0</ele>
        <time>2019-07-07T10:33:32.809Z</time>
      </trkpt>
      <trkpt lat="42.974645" lon="-0.30748667">
        <ele>1447.0</ele>
        <time>2019-07-07T10:33:33.831Z</time>
      </trkpt>
      <trkpt lat="42.974645" lon="-0.30748667">
        <ele>1447.0</ele>
        <time>2019-07-07T10:33:34.817Z</time>
      </trkpt>
      <trkpt lat="42.9746" lon="-0.30760167">
        <ele>1448.0</ele>
        <time>2019-07-07T10:33:35.835Z</time>
      </trkpt>
      <trkpt lat="42.9746" lon="-0.30760167">
        <ele>1448.0</ele>
        <time>2019-07-07T10:33:36.813Z</time>
      </trkpt>
      <trkpt lat="42.97454333" lon="-0.307705">
        <ele>1448.0</ele>
        <time>2019-07-07T10:33:37.831Z</time>
      </trkpt>
      <trkpt lat="42.97452333" lon="-0.30776">
        <ele>1448.0</ele>
        <time>2019-07-07T10:33:38.807Z</time>
      </trkpt>
      <trkpt lat="42.97452333" lon="-0.30776">
        <ele>1448.0</ele>
        <time>2019-07-07T10:33:39.828Z</time>
      </trkpt>
      <trkpt lat="42.97451" lon="-0.30788333">
        <ele>1449.0</ele>
        <time>2019-07-07T10:33:40.841Z</time>
      </trkpt>
      <trkpt lat="42.97451" lon="-0.30788333">
        <ele>1449.0</ele>
        <time>2019-07-07T10:33:41.814Z</time>
      </trkpt>
      <trkpt lat="42.97453833" lon="-0.30801167">
        <ele>1449.0</ele>
        <time>2019-07-07T10:33:42.809Z</time>
      </trkpt>
      <trkpt lat="42.97453833" lon="-0.30801167">
        <ele>1449.0</ele>
        <time>2019-07-07T10:33:43.831Z</time>
      </trkpt>
      <trkpt lat="42.97459" lon="-0.30813">
        <ele>1450.0</ele>
        <time>2019-07-07T10:33:44.823Z</time>
      </trkpt>
      <trkpt lat="42.97459" lon="-0.30813">
        <ele>1450.0</ele>
        <time>2019-07-07T10:33:45.823Z</time>
      </trkpt>
      <trkpt lat="42.974645" lon="-0.30824667">
        <ele>1451.0</ele>
        <time>2019-07-07T10:33:46.835Z</time>
      </trkpt>
      <trkpt lat="42.974645" lon="-0.30824667">
        <ele>1451.0</ele>
        <time>2019-07-07T10:33:47.837Z</time>
      </trkpt>
      <trkpt lat="42.97470167" lon="-0.30838333">
        <ele>1451.0</ele>
        <time>2019-07-07T10:33:48.841Z</time>
      </trkpt>
      <trkpt lat="42.97473167" lon="-0.30843833">
        <ele>1451.0</ele>
        <time>2019-07-07T10:33:49.839Z</time>
      </trkpt>
      <trkpt lat="42.97473167" lon="-0.30843833">
        <ele>1451.0</ele>
        <time>2019-07-07T10:33:50.803Z</time>
      </trkpt>
      <trkpt lat="42.974795" lon="-0.30855">
        <ele>1452.0</ele>
        <time>2019-07-07T10:33:51.820Z</time>
      </trkpt>
      <trkpt lat="42.974795" lon="-0.30855">
        <ele>1452.0</ele>
        <time>2019-07-07T10:33:52.812Z</time>
      </trkpt>
      <trkpt lat="42.97486167" lon="-0.30865833">
        <ele>1452.0</ele>
        <time>2019-07-07T10:33:53.831Z</time>
      </trkpt>
      <trkpt lat="42.9749" lon="-0.308705">
        <ele>1452.0</ele>
        <time>2019-07-07T10:33:54.809Z</time>
      </trkpt>
      <trkpt lat="42.9749" lon="-0.308705">
        <ele>1452.0</ele>
        <time>2019-07-07T10:33:55.834Z</time>
      </trkpt>
      <trkpt lat="42.974985" lon="-0.30879">
        <ele>1452.0</ele>
        <time>2019-07-07T10:33:56.825Z</time>
      </trkpt>
      <trkpt lat="42.974985" lon="-0.30879">
        <ele>1452.0</ele>
        <time>2019-07-07T10:33:57.822Z</time>
      </trkpt>
      <trkpt lat="42.97506833" lon="-0.30887333">
        <ele>1452.0</ele>
        <time>2019-07-07T10:33:58.841Z</time>
      </trkpt>
      <trkpt lat="42.97511167" lon="-0.30891333">
        <ele>1452.0</ele>
        <time>2019-07-07T10:33:59.830Z</time>
      </trkpt>
      <trkpt lat="42.97511167" lon="-0.30891333">
        <ele>1452.0</ele>
        <time>2019-07-07T10:34:00.804Z</time>
      </trkpt>
      <trkpt lat="42.97519" lon="-0.309005">
        <ele>1453.0</ele>
        <time>2019-07-07T10:34:01.827Z</time>
      </trkpt>
      <trkpt lat="42.97522833" lon="-0.30904833">
        <ele>1453.0</ele>
        <time>2019-07-07T10:34:02.814Z</time>
      </trkpt>
      <trkpt lat="42.97526333" lon="-0.30908833">
        <ele>1453.0</ele>
        <time>2019-07-07T10:34:03.830Z</time>
      </trkpt>
      <trkpt lat="42.97526333" lon="-0.30908833">
        <ele>1453.0</ele>
        <time>2019-07-07T10:34:04.829Z</time>
      </trkpt>
      <trkpt lat="42.97531833" lon="-0.309175">
        <ele>1453.0</ele>
        <time>2019-07-07T10:34:05.808Z</time>
      </trkpt>
      <trkpt lat="42.97531833" lon="-0.309175">
        <ele>1453.0</ele>
        <time>2019-07-07T10:34:06.823Z</time>
      </trkpt>
      <trkpt lat="42.975375" lon="-0.309275">
        <ele>1454.0</ele>
        <time>2019-07-07T10:34:07.839Z</time>
      </trkpt>
      <trkpt lat="42.975375" lon="-0.309275">
        <ele>1454.0</ele>
        <time>2019-07-07T10:34:08.806Z</time>
      </trkpt>
      <trkpt lat="42.975425" lon="-0.30937167">
        <ele>1454.0</ele>
        <time>2019-07-07T10:34:09.827Z</time>
      </trkpt>
      <trkpt lat="42.97545" lon="-0.30942">
        <ele>1454.0</ele>
        <time>2019-07-07T10:34:10.841Z</time>
      </trkpt>
      <trkpt lat="42.97545" lon="-0.30942">
        <ele>1454.0</ele>
        <time>2019-07-07T10:34:11.823Z</time>
      </trkpt>
      <trkpt lat="42.97549833" lon="-0.30952167">
        <ele>1454.0</ele>
        <time>2019-07-07T10:34:12.841Z</time>
      </trkpt>
      <trkpt lat="42.97551833" lon="-0.30957">
        <ele>1454.0</ele>
        <time>2019-07-07T10:34:13.820Z</time>
      </trkpt>
      <trkpt lat="42.97554" lon="-0.30961833">
        <ele>1454.0</ele>
        <time>2019-07-07T10:34:14.842Z</time>
      </trkpt>
      <trkpt lat="42.97554" lon="-0.30961833">
        <ele>1454.0</ele>
        <time>2019-07-07T10:34:15.823Z</time>
      </trkpt>
      <trkpt lat="42.97558667" lon="-0.30971">
        <ele>1455.0</ele>
        <time>2019-07-07T10:34:16.809Z</time>
      </trkpt>
      <trkpt lat="42.975615" lon="-0.30975333">
        <ele>1455.0</ele>
        <time>2019-07-07T10:34:17.831Z</time>
      </trkpt>
      <trkpt lat="42.975615" lon="-0.30975333">
        <ele>1455.0</ele>
        <time>2019-07-07T10:34:18.804Z</time>
      </trkpt>
      <trkpt lat="42.97567333" lon="-0.30984167">
        <ele>1455.0</ele>
        <time>2019-07-07T10:34:19.815Z</time>
      </trkpt>
      <trkpt lat="42.97567333" lon="-0.30984167">
        <ele>1455.0</ele>
        <time>2019-07-07T10:34:20.835Z</time>
      </trkpt>
      <trkpt lat="42.97573667" lon="-0.30991833">
        <ele>1456.0</ele>
        <time>2019-07-07T10:34:21.833Z</time>
      </trkpt>
      <trkpt lat="42.97573667" lon="-0.30991833">
        <ele>1456.0</ele>
        <time>2019-07-07T10:34:22.834Z</time>
      </trkpt>
      <trkpt lat="42.97578667" lon="-0.30998667">
        <ele>1456.0</ele>
        <time>2019-07-07T10:34:23.820Z</time>
      </trkpt>
      <trkpt lat="42.97578667" lon="-0.30998667">
        <ele>1456.0</ele>
        <time>2019-07-07T10:34:24.824Z</time>
      </trkpt>
      <trkpt lat="42.97584667" lon="-0.31005">
        <ele>1456.0</ele>
        <time>2019-07-07T10:34:25.823Z</time>
      </trkpt>
      <trkpt lat="42.97587667" lon="-0.31007833">
        <ele>1456.0</ele>
        <time>2019-07-07T10:34:26.827Z</time>
      </trkpt>
      <trkpt lat="42.97587667" lon="-0.31007833">
        <ele>1456.0</ele>
        <time>2019-07-07T10:34:27.809Z</time>
      </trkpt>
      <trkpt lat="42.97593333" lon="-0.310125">
        <ele>1457.0</ele>
        <time>2019-07-07T10:34:28.831Z</time>
      </trkpt>
      <trkpt lat="42.97593333" lon="-0.310125">
        <ele>1457.0</ele>
        <time>2019-07-07T10:34:29.814Z</time>
      </trkpt>
      <trkpt lat="42.975985" lon="-0.31015833">
        <ele>1457.0</ele>
        <time>2019-07-07T10:34:30.831Z</time>
      </trkpt>
      <trkpt lat="42.975985" lon="-0.31015833">
        <ele>1457.0</ele>
        <time>2019-07-07T10:34:31.834Z</time>
      </trkpt>
      <trkpt lat="42.97603333" lon="-0.31019833">
        <ele>1458.0</ele>
        <time>2019-07-07T10:34:32.817Z</time>
      </trkpt>
      <trkpt lat="42.97603333" lon="-0.31019833">
        <ele>1458.0</ele>
        <time>2019-07-07T10:34:33.813Z</time>
      </trkpt>
      <trkpt lat="42.97608833" lon="-0.31024333">
        <ele>1459.0</ele>
        <time>2019-07-07T10:34:34.818Z</time>
      </trkpt>
      <trkpt lat="42.97611167" lon="-0.310265">
        <ele>1459.0</ele>
        <time>2019-07-07T10:34:35.838Z</time>
      </trkpt>
      <trkpt lat="42.97611167" lon="-0.310265">
        <ele>1459.0</ele>
        <time>2019-07-07T10:34:36.834Z</time>
      </trkpt>
      <trkpt lat="42.976155" lon="-0.31032667">
        <ele>1460.0</ele>
        <time>2019-07-07T10:34:37.818Z</time>
      </trkpt>
      <trkpt lat="42.97617333" lon="-0.31036667">
        <ele>1460.0</ele>
        <time>2019-07-07T10:34:38.801Z</time>
      </trkpt>
      <trkpt lat="42.97617333" lon="-0.31036667">
        <ele>1460.0</ele>
        <time>2019-07-07T10:34:39.833Z</time>
      </trkpt>
      <trkpt lat="42.97619833" lon="-0.31045833">
        <ele>1461.0</ele>
        <time>2019-07-07T10:34:40.814Z</time>
      </trkpt>
      <trkpt lat="42.97620833" lon="-0.31050333">
        <ele>1462.0</ele>
        <time>2019-07-07T10:34:41.830Z</time>
      </trkpt>
      <trkpt lat="42.97620833" lon="-0.31050333">
        <ele>1462.0</ele>
        <time>2019-07-07T10:34:42.833Z</time>
      </trkpt>
      <trkpt lat="42.97622333" lon="-0.31058667">
        <ele>1462.0</ele>
        <time>2019-07-07T10:34:43.824Z</time>
      </trkpt>
      <trkpt lat="42.97622667" lon="-0.31062667">
        <ele>1463.0</ele>
        <time>2019-07-07T10:34:44.830Z</time>
      </trkpt>
      <trkpt lat="42.97622667" lon="-0.31062667">
        <ele>1463.0</ele>
        <time>2019-07-07T10:34:45.804Z</time>
      </trkpt>
      <trkpt lat="42.97621833" lon="-0.31070667">
        <ele>1463.0</ele>
        <time>2019-07-07T10:34:46.821Z</time>
      </trkpt>
      <trkpt lat="42.97621833" lon="-0.31070667">
        <ele>1463.0</ele>
        <time>2019-07-07T10:34:47.802Z</time>
      </trkpt>
      <trkpt lat="42.97620167" lon="-0.31079167">
        <ele>1464.0</ele>
        <time>2019-07-07T10:34:48.872Z</time>
      </trkpt>
      <trkpt lat="42.97620167" lon="-0.31087167">
        <ele>1464.0</ele>
        <time>2019-07-07T10:34:49.828Z</time>
      </trkpt>
      <trkpt lat="42.97619333" lon="-0.31093167">
        <ele>1465.0</ele>
        <time>2019-07-07T10:34:50.820Z</time>
      </trkpt>
      <trkpt lat="42.97619333" lon="-0.31093167">
        <ele>1465.0</ele>
        <time>2019-07-07T10:34:51.823Z</time>
      </trkpt>
      <trkpt lat="42.97618167" lon="-0.31101667">
        <ele>1466.0</ele>
        <time>2019-07-07T10:34:52.836Z</time>
      </trkpt>
      <trkpt lat="42.97617" lon="-0.31105167">
        <ele>1466.0</ele>
        <time>2019-07-07T10:34:53.813Z</time>
      </trkpt>
      <trkpt lat="42.97616" lon="-0.31109333">
        <ele>1466.0</ele>
        <time>2019-07-07T10:34:54.803Z</time>
      </trkpt>
      <trkpt lat="42.97616" lon="-0.31109333">
        <ele>1466.0</ele>
        <time>2019-07-07T10:34:55.833Z</time>
      </trkpt>
      <trkpt lat="42.97614833" lon="-0.31117667">
        <ele>1467.0</ele>
        <time>2019-07-07T10:34:56.822Z</time>
      </trkpt>
      <trkpt lat="42.97614833" lon="-0.31117667">
        <ele>1467.0</ele>
        <time>2019-07-07T10:34:57.804Z</time>
      </trkpt>
      <trkpt lat="42.976125" lon="-0.31125833">
        <ele>1468.0</ele>
        <time>2019-07-07T10:34:58.822Z</time>
      </trkpt>
      <trkpt lat="42.976125" lon="-0.31125833">
        <ele>1468.0</ele>
        <time>2019-07-07T10:34:59.810Z</time>
      </trkpt>
      <trkpt lat="42.97611167" lon="-0.31134167">
        <ele>1468.0</ele>
        <time>2019-07-07T10:35:00.822Z</time>
      </trkpt>
      <trkpt lat="42.97611167" lon="-0.31134167">
        <ele>1468.0</ele>
        <time>2019-07-07T10:35:01.823Z</time>
      </trkpt>
      <trkpt lat="42.97608833" lon="-0.31141167">
        <ele>1469.0</ele>
        <time>2019-07-07T10:35:02.842Z</time>
      </trkpt>
      <trkpt lat="42.97608833" lon="-0.31141167">
        <ele>1469.0</ele>
        <time>2019-07-07T10:35:03.813Z</time>
      </trkpt>
      <trkpt lat="42.97607167" lon="-0.31149">
        <ele>1469.0</ele>
        <time>2019-07-07T10:35:04.829Z</time>
      </trkpt>
      <trkpt lat="42.97606833" lon="-0.31152667">
        <ele>1469.0</ele>
        <time>2019-07-07T10:35:05.835Z</time>
      </trkpt>
      <trkpt lat="42.97606833" lon="-0.31152667">
        <ele>1469.0</ele>
        <time>2019-07-07T10:35:06.804Z</time>
      </trkpt>
      <trkpt lat="42.97605833" lon="-0.31158667">
        <ele>1470.0</ele>
        <time>2019-07-07T10:35:07.820Z</time>
      </trkpt>
      <trkpt lat="42.97605667" lon="-0.31161333">
        <ele>1470.0</ele>
        <time>2019-07-07T10:35:08.831Z</time>
      </trkpt>
      <trkpt lat="42.97605667" lon="-0.31161333">
        <ele>1470.0</ele>
        <time>2019-07-07T10:35:09.810Z</time>
      </trkpt>
      <trkpt lat="42.97605333" lon="-0.31167667">
        <ele>1470.0</ele>
        <time>2019-07-07T10:35:10.813Z</time>
      </trkpt>
      <trkpt lat="42.97605333" lon="-0.31167667">
        <ele>1470.0</ele>
        <time>2019-07-07T10:35:11.822Z</time>
      </trkpt>
      <trkpt lat="42.976035" lon="-0.31176833">
        <ele>1470.0</ele>
        <time>2019-07-07T10:35:12.842Z</time>
      </trkpt>
      <trkpt lat="42.976035" lon="-0.31176833">
        <ele>1470.0</ele>
        <time>2019-07-07T10:35:13.823Z</time>
      </trkpt>
      <trkpt lat="42.97600167" lon="-0.31188">
        <ele>1471.0</ele>
        <time>2019-07-07T10:35:14.842Z</time>
      </trkpt>
      <trkpt lat="42.97600167" lon="-0.31188">
        <ele>1471.0</ele>
        <time>2019-07-07T10:35:15.833Z</time>
      </trkpt>
      <trkpt lat="42.97596667" lon="-0.31196333">
        <ele>1471.0</ele>
        <time>2019-07-07T10:35:16.812Z</time>
      </trkpt>
      <trkpt lat="42.97596667" lon="-0.31196333">
        <ele>1471.0</ele>
        <time>2019-07-07T10:35:17.833Z</time>
      </trkpt>
      <trkpt lat="42.975935" lon="-0.31206667">
        <ele>1472.0</ele>
        <time>2019-07-07T10:35:18.812Z</time>
      </trkpt>
      <trkpt lat="42.975935" lon="-0.31206667">
        <ele>1472.0</ele>
        <time>2019-07-07T10:35:19.832Z</time>
      </trkpt>
      <trkpt lat="42.97592333" lon="-0.31216167">
        <ele>1472.0</ele>
        <time>2019-07-07T10:35:20.811Z</time>
      </trkpt>
      <trkpt lat="42.97592333" lon="-0.31216167">
        <ele>1472.0</ele>
        <time>2019-07-07T10:35:21.823Z</time>
      </trkpt>
      <trkpt lat="42.97589667" lon="-0.31228">
        <ele>1472.0</ele>
        <time>2019-07-07T10:35:22.843Z</time>
      </trkpt>
      <trkpt lat="42.97589667" lon="-0.31228">
        <ele>1472.0</ele>
        <time>2019-07-07T10:35:23.824Z</time>
      </trkpt>
      <trkpt lat="42.975855" lon="-0.312385">
        <ele>1473.0</ele>
        <time>2019-07-07T10:35:24.841Z</time>
      </trkpt>
      <trkpt lat="42.97583833" lon="-0.31243167">
        <ele>1473.0</ele>
        <time>2019-07-07T10:35:25.840Z</time>
      </trkpt>
      <trkpt lat="42.97583833" lon="-0.31243167">
        <ele>1473.0</ele>
        <time>2019-07-07T10:35:26.811Z</time>
      </trkpt>
      <trkpt lat="42.97580167" lon="-0.31250833">
        <ele>1473.0</ele>
        <time>2019-07-07T10:35:27.824Z</time>
      </trkpt>
      <trkpt lat="42.97580167" lon="-0.31250833">
        <ele>1473.0</ele>
        <time>2019-07-07T10:35:28.820Z</time>
      </trkpt>
      <trkpt lat="42.97576167" lon="-0.31257">
        <ele>1473.0</ele>
        <time>2019-07-07T10:35:29.835Z</time>
      </trkpt>
      <trkpt lat="42.97576167" lon="-0.31257">
        <ele>1473.0</ele>
        <time>2019-07-07T10:35:30.830Z</time>
      </trkpt>
      <trkpt lat="42.97573167" lon="-0.31262833">
        <ele>1474.0</ele>
        <time>2019-07-07T10:35:31.826Z</time>
      </trkpt>
      <trkpt lat="42.97573167" lon="-0.31262833">
        <ele>1474.0</ele>
        <time>2019-07-07T10:35:32.830Z</time>
      </trkpt>
      <trkpt lat="42.97571833" lon="-0.31271333">
        <ele>1474.0</ele>
        <time>2019-07-07T10:35:33.803Z</time>
      </trkpt>
      <trkpt lat="42.97571833" lon="-0.31271333">
        <ele>1474.0</ele>
        <time>2019-07-07T10:35:34.838Z</time>
      </trkpt>
      <trkpt lat="42.97570667" lon="-0.31283333">
        <ele>1474.0</ele>
        <time>2019-07-07T10:35:35.823Z</time>
      </trkpt>
      <trkpt lat="42.97570667" lon="-0.31283333">
        <ele>1474.0</ele>
        <time>2019-07-07T10:35:36.820Z</time>
      </trkpt>
      <trkpt lat="42.97572833" lon="-0.31292167">
        <ele>1475.0</ele>
        <time>2019-07-07T10:35:37.835Z</time>
      </trkpt>
      <trkpt lat="42.97574167" lon="-0.31296667">
        <ele>1475.0</ele>
        <time>2019-07-07T10:35:38.820Z</time>
      </trkpt>
      <trkpt lat="42.975745" lon="-0.31302333">
        <ele>1475.0</ele>
        <time>2019-07-07T10:35:39.828Z</time>
      </trkpt>
      <trkpt lat="42.975745" lon="-0.31302333">
        <ele>1475.0</ele>
        <time>2019-07-07T10:35:40.833Z</time>
      </trkpt>
      <trkpt lat="42.97575667" lon="-0.31314">
        <ele>1475.0</ele>
        <time>2019-07-07T10:35:41.813Z</time>
      </trkpt>
      <trkpt lat="42.97575667" lon="-0.31314">
        <ele>1475.0</ele>
        <time>2019-07-07T10:35:42.803Z</time>
      </trkpt>
      <trkpt lat="42.97577667" lon="-0.31324667">
        <ele>1476.0</ele>
        <time>2019-07-07T10:35:43.820Z</time>
      </trkpt>
      <trkpt lat="42.97578667" lon="-0.3133">
        <ele>1476.0</ele>
        <time>2019-07-07T10:35:44.832Z</time>
      </trkpt>
      <trkpt lat="42.97578667" lon="-0.3133">
        <ele>1476.0</ele>
        <time>2019-07-07T10:35:45.804Z</time>
      </trkpt>
      <trkpt lat="42.97579" lon="-0.31342167">
        <ele>1478.0</ele>
        <time>2019-07-07T10:35:46.837Z</time>
      </trkpt>
      <trkpt lat="42.97579" lon="-0.31342167">
        <ele>1478.0</ele>
        <time>2019-07-07T10:35:47.837Z</time>
      </trkpt>
      <trkpt lat="42.97578167" lon="-0.31353333">
        <ele>1479.0</ele>
        <time>2019-07-07T10:35:48.834Z</time>
      </trkpt>
      <trkpt lat="42.97578167" lon="-0.31353333">
        <ele>1479.0</ele>
        <time>2019-07-07T10:35:49.807Z</time>
      </trkpt>
      <trkpt lat="42.975775" lon="-0.313635">
        <ele>1480.0</ele>
        <time>2019-07-07T10:35:50.817Z</time>
      </trkpt>
      <trkpt lat="42.975775" lon="-0.313635">
        <ele>1480.0</ele>
        <time>2019-07-07T10:35:51.814Z</time>
      </trkpt>
      <trkpt lat="42.975755" lon="-0.313735">
        <ele>1481.0</ele>
        <time>2019-07-07T10:35:52.831Z</time>
      </trkpt>
      <trkpt lat="42.975755" lon="-0.313735">
        <ele>1481.0</ele>
        <time>2019-07-07T10:35:53.804Z</time>
      </trkpt>
      <trkpt lat="42.975745" lon="-0.31383">
        <ele>1482.0</ele>
        <time>2019-07-07T10:35:54.820Z</time>
      </trkpt>
      <trkpt lat="42.975745" lon="-0.31383">
        <ele>1482.0</ele>
        <time>2019-07-07T10:35:55.804Z</time>
      </trkpt>
      <trkpt lat="42.97574333" lon="-0.313925">
        <ele>1483.0</ele>
        <time>2019-07-07T10:35:56.825Z</time>
      </trkpt>
      <trkpt lat="42.97574333" lon="-0.313925">
        <ele>1483.0</ele>
        <time>2019-07-07T10:35:57.811Z</time>
      </trkpt>
      <trkpt lat="42.97573833" lon="-0.31401667">
        <ele>1484.0</ele>
        <time>2019-07-07T10:35:58.830Z</time>
      </trkpt>
      <trkpt lat="42.97573833" lon="-0.31401667">
        <ele>1484.0</ele>
        <time>2019-07-07T10:35:59.808Z</time>
      </trkpt>
      <trkpt lat="42.97573167" lon="-0.31411">
        <ele>1485.0</ele>
        <time>2019-07-07T10:36:00.819Z</time>
      </trkpt>
      <trkpt lat="42.97573167" lon="-0.31411">
        <ele>1485.0</ele>
        <time>2019-07-07T10:36:01.804Z</time>
      </trkpt>
      <trkpt lat="42.97572167" lon="-0.31419333">
        <ele>1486.0</ele>
        <time>2019-07-07T10:36:02.821Z</time>
      </trkpt>
      <trkpt lat="42.97572167" lon="-0.31419333">
        <ele>1486.0</ele>
        <time>2019-07-07T10:36:03.813Z</time>
      </trkpt>
      <trkpt lat="42.97570833" lon="-0.31427333">
        <ele>1487.0</ele>
        <time>2019-07-07T10:36:04.831Z</time>
      </trkpt>
      <trkpt lat="42.97570167" lon="-0.314315">
        <ele>1487.0</ele>
        <time>2019-07-07T10:36:05.821Z</time>
      </trkpt>
      <trkpt lat="42.97570167" lon="-0.314315">
        <ele>1487.0</ele>
        <time>2019-07-07T10:36:06.820Z</time>
      </trkpt>
      <trkpt lat="42.97567667" lon="-0.31439833">
        <ele>1488.0</ele>
        <time>2019-07-07T10:36:07.841Z</time>
      </trkpt>
      <trkpt lat="42.97566" lon="-0.314435">
        <ele>1488.0</ele>
        <time>2019-07-07T10:36:08.819Z</time>
      </trkpt>
      <trkpt lat="42.975645" lon="-0.31447167">
        <ele>1489.0</ele>
        <time>2019-07-07T10:36:09.802Z</time>
      </trkpt>
      <trkpt lat="42.975645" lon="-0.31447167">
        <ele>1489.0</ele>
        <time>2019-07-07T10:36:10.824Z</time>
      </trkpt>
      <trkpt lat="42.97561833" lon="-0.31455">
        <ele>1490.0</ele>
        <time>2019-07-07T10:36:11.801Z</time>
      </trkpt>
      <trkpt lat="42.97561333" lon="-0.31459667">
        <ele>1490.0</ele>
        <time>2019-07-07T10:36:12.813Z</time>
      </trkpt>
      <trkpt lat="42.97561333" lon="-0.31459667">
        <ele>1490.0</ele>
        <time>2019-07-07T10:36:13.827Z</time>
      </trkpt>
      <trkpt lat="42.97562333" lon="-0.31469333">
        <ele>1491.0</ele>
        <time>2019-07-07T10:36:14.803Z</time>
      </trkpt>
      <trkpt lat="42.97562333" lon="-0.31469333">
        <ele>1491.0</ele>
        <time>2019-07-07T10:36:15.808Z</time>
      </trkpt>
      <trkpt lat="42.97565167" lon="-0.314775">
        <ele>1491.0</ele>
        <time>2019-07-07T10:36:16.823Z</time>
      </trkpt>
      <trkpt lat="42.97565167" lon="-0.314775">
        <ele>1491.0</ele>
        <time>2019-07-07T10:36:17.823Z</time>
      </trkpt>
      <trkpt lat="42.97568833" lon="-0.31486">
        <ele>1492.0</ele>
        <time>2019-07-07T10:36:18.846Z</time>
      </trkpt>
      <trkpt lat="42.97568833" lon="-0.31486">
        <ele>1492.0</ele>
        <time>2019-07-07T10:36:19.823Z</time>
      </trkpt>
      <trkpt lat="42.97570333" lon="-0.31496167">
        <ele>1492.0</ele>
        <time>2019-07-07T10:36:20.834Z</time>
      </trkpt>
      <trkpt lat="42.97570333" lon="-0.31496167">
        <ele>1492.0</ele>
        <time>2019-07-07T10:36:21.805Z</time>
      </trkpt>
      <trkpt lat="42.97570667" lon="-0.31507667">
        <ele>1493.0</ele>
        <time>2019-07-07T10:36:22.819Z</time>
      </trkpt>
      <trkpt lat="42.97570667" lon="-0.31507667">
        <ele>1493.0</ele>
        <time>2019-07-07T10:36:23.823Z</time>
      </trkpt>
      <trkpt lat="42.97571" lon="-0.315175">
        <ele>1493.0</ele>
        <time>2019-07-07T10:36:24.840Z</time>
      </trkpt>
      <trkpt lat="42.97571" lon="-0.315175">
        <ele>1493.0</ele>
        <time>2019-07-07T10:36:25.813Z</time>
      </trkpt>
      <trkpt lat="42.97571" lon="-0.315285">
        <ele>1494.0</ele>
        <time>2019-07-07T10:36:26.834Z</time>
      </trkpt>
      <trkpt lat="42.97571" lon="-0.315285">
        <ele>1494.0</ele>
        <time>2019-07-07T10:36:27.816Z</time>
      </trkpt>
      <trkpt lat="42.97571833" lon="-0.31541333">
        <ele>1494.0</ele>
        <time>2019-07-07T10:36:28.829Z</time>
      </trkpt>
      <trkpt lat="42.97572167" lon="-0.315475">
        <ele>1495.0</ele>
        <time>2019-07-07T10:36:29.803Z</time>
      </trkpt>
      <trkpt lat="42.97572167" lon="-0.315475">
        <ele>1495.0</ele>
        <time>2019-07-07T10:36:30.813Z</time>
      </trkpt>
      <trkpt lat="42.97573" lon="-0.315585">
        <ele>1495.0</ele>
        <time>2019-07-07T10:36:31.807Z</time>
      </trkpt>
      <trkpt lat="42.97573833" lon="-0.31564167">
        <ele>1495.0</ele>
        <time>2019-07-07T10:36:32.829Z</time>
      </trkpt>
      <trkpt lat="42.97573833" lon="-0.31564167">
        <ele>1495.0</ele>
        <time>2019-07-07T10:36:33.812Z</time>
      </trkpt>
      <trkpt lat="42.97575" lon="-0.31576">
        <ele>1495.0</ele>
        <time>2019-07-07T10:36:34.826Z</time>
      </trkpt>
      <trkpt lat="42.97575333" lon="-0.31582">
        <ele>1495.0</ele>
        <time>2019-07-07T10:36:35.819Z</time>
      </trkpt>
      <trkpt lat="42.97575333" lon="-0.31582">
        <ele>1495.0</ele>
        <time>2019-07-07T10:36:36.804Z</time>
      </trkpt>
      <trkpt lat="42.975765" lon="-0.31595333">
        <ele>1495.0</ele>
        <time>2019-07-07T10:36:37.819Z</time>
      </trkpt>
      <trkpt lat="42.97577167" lon="-0.31601667">
        <ele>1495.0</ele>
        <time>2019-07-07T10:36:38.801Z</time>
      </trkpt>
      <trkpt lat="42.97577167" lon="-0.31601667">
        <ele>1495.0</ele>
        <time>2019-07-07T10:36:39.809Z</time>
      </trkpt>
      <trkpt lat="42.97579667" lon="-0.31613667">
        <ele>1495.0</ele>
        <time>2019-07-07T10:36:40.821Z</time>
      </trkpt>
      <trkpt lat="42.97580833" lon="-0.31619333">
        <ele>1495.0</ele>
        <time>2019-07-07T10:36:41.817Z</time>
      </trkpt>
      <trkpt lat="42.97580833" lon="-0.31619333">
        <ele>1495.0</ele>
        <time>2019-07-07T10:36:42.823Z</time>
      </trkpt>
      <trkpt lat="42.97582167" lon="-0.31632">
        <ele>1494.0</ele>
        <time>2019-07-07T10:36:43.838Z</time>
      </trkpt>
      <trkpt lat="42.97582167" lon="-0.31632">
        <ele>1494.0</ele>
        <time>2019-07-07T10:36:44.814Z</time>
      </trkpt>
      <trkpt lat="42.975835" lon="-0.31643">
        <ele>1494.0</ele>
        <time>2019-07-07T10:36:45.806Z</time>
      </trkpt>
      <trkpt lat="42.975835" lon="-0.31643">
        <ele>1494.0</ele>
        <time>2019-07-07T10:36:46.824Z</time>
      </trkpt>
      <trkpt lat="42.97582333" lon="-0.31656">
        <ele>1494.0</ele>
        <time>2019-07-07T10:36:47.845Z</time>
      </trkpt>
      <trkpt lat="42.97581333" lon="-0.31662667">
        <ele>1494.0</ele>
        <time>2019-07-07T10:36:48.810Z</time>
      </trkpt>
      <trkpt lat="42.97581333" lon="-0.31662667">
        <ele>1494.0</ele>
        <time>2019-07-07T10:36:49.813Z</time>
      </trkpt>
      <trkpt lat="42.975795" lon="-0.31676">
        <ele>1494.0</ele>
        <time>2019-07-07T10:36:50.833Z</time>
      </trkpt>
      <trkpt lat="42.975795" lon="-0.31676">
        <ele>1494.0</ele>
        <time>2019-07-07T10:36:51.831Z</time>
      </trkpt>
      <trkpt lat="42.975765" lon="-0.31688833">
        <ele>1494.0</ele>
        <time>2019-07-07T10:36:52.808Z</time>
      </trkpt>
      <trkpt lat="42.975765" lon="-0.31688833">
        <ele>1494.0</ele>
        <time>2019-07-07T10:36:53.813Z</time>
      </trkpt>
      <trkpt lat="42.97572" lon="-0.31702">
        <ele>1494.0</ele>
        <time>2019-07-07T10:36:54.801Z</time>
      </trkpt>
      <trkpt lat="42.97570167" lon="-0.31707333">
        <ele>1494.0</ele>
        <time>2019-07-07T10:36:55.807Z</time>
      </trkpt>
      <trkpt lat="42.97570167" lon="-0.31707333">
        <ele>1494.0</ele>
        <time>2019-07-07T10:36:56.808Z</time>
      </trkpt>
      <trkpt lat="42.97566833" lon="-0.31717833">
        <ele>1494.0</ele>
        <time>2019-07-07T10:36:57.829Z</time>
      </trkpt>
      <trkpt lat="42.97566833" lon="-0.31717833">
        <ele>1494.0</ele>
        <time>2019-07-07T10:36:58.813Z</time>
      </trkpt>
      <trkpt lat="42.975625" lon="-0.31726333">
        <ele>1495.0</ele>
        <time>2019-07-07T10:36:59.840Z</time>
      </trkpt>
      <trkpt lat="42.975625" lon="-0.31726333">
        <ele>1495.0</ele>
        <time>2019-07-07T10:37:00.838Z</time>
      </trkpt>
      <trkpt lat="42.97558167" lon="-0.31733333">
        <ele>1495.0</ele>
        <time>2019-07-07T10:37:01.817Z</time>
      </trkpt>
      <trkpt lat="42.97558167" lon="-0.31733333">
        <ele>1495.0</ele>
        <time>2019-07-07T10:37:02.834Z</time>
      </trkpt>
      <trkpt lat="42.975545" lon="-0.31739667">
        <ele>1496.0</ele>
        <time>2019-07-07T10:37:03.806Z</time>
      </trkpt>
      <trkpt lat="42.975545" lon="-0.31739667">
        <ele>1496.0</ele>
        <time>2019-07-07T10:37:04.824Z</time>
      </trkpt>
      <trkpt lat="42.97549667" lon="-0.31747333">
        <ele>1496.0</ele>
        <time>2019-07-07T10:37:05.802Z</time>
      </trkpt>
      <trkpt lat="42.97549667" lon="-0.31747333">
        <ele>1496.0</ele>
        <time>2019-07-07T10:37:06.804Z</time>
      </trkpt>
      <trkpt lat="42.97545167" lon="-0.31754">
        <ele>1496.0</ele>
        <time>2019-07-07T10:37:07.816Z</time>
      </trkpt>
      <trkpt lat="42.97545167" lon="-0.31754">
        <ele>1496.0</ele>
        <time>2019-07-07T10:37:08.836Z</time>
      </trkpt>
      <trkpt lat="42.97541333" lon="-0.317595">
        <ele>1496.0</ele>
        <time>2019-07-07T10:37:09.841Z</time>
      </trkpt>
      <trkpt lat="42.97541333" lon="-0.317595">
        <ele>1496.0</ele>
        <time>2019-07-07T10:37:10.822Z</time>
      </trkpt>
      <trkpt lat="42.975365" lon="-0.317645">
        <ele>1497.0</ele>
        <time>2019-07-07T10:37:11.833Z</time>
      </trkpt>
      <trkpt lat="42.975365" lon="-0.317645">
        <ele>1497.0</ele>
        <time>2019-07-07T10:37:12.803Z</time>
      </trkpt>
      <trkpt lat="42.97531833" lon="-0.31769833">
        <ele>1497.0</ele>
        <time>2019-07-07T10:37:13.822Z</time>
      </trkpt>
      <trkpt lat="42.97531833" lon="-0.31769833">
        <ele>1497.0</ele>
        <time>2019-07-07T10:37:14.831Z</time>
      </trkpt>
      <trkpt lat="42.97527833" lon="-0.31773833">
        <ele>1497.0</ele>
        <time>2019-07-07T10:37:15.810Z</time>
      </trkpt>
      <trkpt lat="42.97527833" lon="-0.31773833">
        <ele>1497.0</ele>
        <time>2019-07-07T10:37:16.804Z</time>
      </trkpt>
      <trkpt lat="42.975225" lon="-0.317775">
        <ele>1497.0</ele>
        <time>2019-07-07T10:37:17.820Z</time>
      </trkpt>
      <trkpt lat="42.975225" lon="-0.317775">
        <ele>1497.0</ele>
        <time>2019-07-07T10:37:18.833Z</time>
      </trkpt>
      <trkpt lat="42.975175" lon="-0.317815">
        <ele>1497.0</ele>
        <time>2019-07-07T10:37:19.806Z</time>
      </trkpt>
      <trkpt lat="42.975175" lon="-0.317815">
        <ele>1497.0</ele>
        <time>2019-07-07T10:37:20.835Z</time>
      </trkpt>
      <trkpt lat="42.97513" lon="-0.31784667">
        <ele>1497.0</ele>
        <time>2019-07-07T10:37:21.806Z</time>
      </trkpt>
      <trkpt lat="42.97513" lon="-0.31784667">
        <ele>1497.0</ele>
        <time>2019-07-07T10:37:22.815Z</time>
      </trkpt>
      <trkpt lat="42.975085" lon="-0.31786333">
        <ele>1498.0</ele>
        <time>2019-07-07T10:37:23.832Z</time>
      </trkpt>
      <trkpt lat="42.975085" lon="-0.31786333">
        <ele>1498.0</ele>
        <time>2019-07-07T10:37:24.834Z</time>
      </trkpt>
      <trkpt lat="42.97502667" lon="-0.317895">
        <ele>1498.0</ele>
        <time>2019-07-07T10:37:25.812Z</time>
      </trkpt>
      <trkpt lat="42.975" lon="-0.31790833">
        <ele>1498.0</ele>
        <time>2019-07-07T10:37:26.840Z</time>
      </trkpt>
      <trkpt lat="42.975" lon="-0.31790833">
        <ele>1498.0</ele>
        <time>2019-07-07T10:37:27.829Z</time>
      </trkpt>
      <trkpt lat="42.97495" lon="-0.31792667">
        <ele>1498.0</ele>
        <time>2019-07-07T10:37:28.805Z</time>
      </trkpt>
      <trkpt lat="42.97492" lon="-0.31793667">
        <ele>1498.0</ele>
        <time>2019-07-07T10:37:29.819Z</time>
      </trkpt>
      <trkpt lat="42.97492" lon="-0.31793667">
        <ele>1498.0</ele>
        <time>2019-07-07T10:37:30.803Z</time>
      </trkpt>
      <trkpt lat="42.97487" lon="-0.31796167">
        <ele>1499.0</ele>
        <time>2019-07-07T10:37:31.836Z</time>
      </trkpt>
      <trkpt lat="42.97484167" lon="-0.31797667">
        <ele>1499.0</ele>
        <time>2019-07-07T10:37:32.841Z</time>
      </trkpt>
      <trkpt lat="42.97484167" lon="-0.31797667">
        <ele>1499.0</ele>
        <time>2019-07-07T10:37:33.803Z</time>
      </trkpt>
      <trkpt lat="42.97478833" lon="-0.31800833">
        <ele>1499.0</ele>
        <time>2019-07-07T10:37:34.822Z</time>
      </trkpt>
      <trkpt lat="42.97476167" lon="-0.31802">
        <ele>1499.0</ele>
        <time>2019-07-07T10:37:35.822Z</time>
      </trkpt>
      <trkpt lat="42.97476167" lon="-0.31802">
        <ele>1499.0</ele>
        <time>2019-07-07T10:37:36.811Z</time>
      </trkpt>
      <trkpt lat="42.974705" lon="-0.31805833">
        <ele>1499.0</ele>
        <time>2019-07-07T10:37:37.832Z</time>
      </trkpt>
      <trkpt lat="42.974675" lon="-0.31807833">
        <ele>1499.0</ele>
        <time>2019-07-07T10:37:38.836Z</time>
      </trkpt>
      <trkpt lat="42.974675" lon="-0.31807833">
        <ele>1499.0</ele>
        <time>2019-07-07T10:37:39.834Z</time>
      </trkpt>
      <trkpt lat="42.974625" lon="-0.31812833">
        <ele>1500.0</ele>
        <time>2019-07-07T10:37:40.812Z</time>
      </trkpt>
      <trkpt lat="42.974605" lon="-0.318155">
        <ele>1500.0</ele>
        <time>2019-07-07T10:37:41.841Z</time>
      </trkpt>
      <trkpt lat="42.974605" lon="-0.318155">
        <ele>1500.0</ele>
        <time>2019-07-07T10:37:42.813Z</time>
      </trkpt>
      <trkpt lat="42.974565" lon="-0.31821333">
        <ele>1500.0</ele>
        <time>2019-07-07T10:37:43.812Z</time>
      </trkpt>
      <trkpt lat="42.974565" lon="-0.31821333">
        <ele>1500.0</ele>
        <time>2019-07-07T10:37:44.831Z</time>
      </trkpt>
      <trkpt lat="42.974525" lon="-0.31824333">
        <ele>1500.0</ele>
        <time>2019-07-07T10:37:45.804Z</time>
      </trkpt>
      <trkpt lat="42.974525" lon="-0.31824333">
        <ele>1500.0</ele>
        <time>2019-07-07T10:37:46.813Z</time>
      </trkpt>
      <trkpt lat="42.97447833" lon="-0.31824833">
        <ele>1501.0</ele>
        <time>2019-07-07T10:37:47.836Z</time>
      </trkpt>
      <trkpt lat="42.97444333" lon="-0.318255">
        <ele>1501.0</ele>
        <time>2019-07-07T10:37:48.817Z</time>
      </trkpt>
      <trkpt lat="42.97441333" lon="-0.31825333">
        <ele>1501.0</ele>
        <time>2019-07-07T10:37:49.830Z</time>
      </trkpt>
      <trkpt lat="42.97441333" lon="-0.31825333">
        <ele>1501.0</ele>
        <time>2019-07-07T10:37:50.805Z</time>
      </trkpt>
      <trkpt lat="42.97434833" lon="-0.31824167">
        <ele>1502.0</ele>
        <time>2019-07-07T10:37:51.820Z</time>
      </trkpt>
      <trkpt lat="42.97434833" lon="-0.31824167">
        <ele>1502.0</ele>
        <time>2019-07-07T10:37:52.823Z</time>
      </trkpt>
      <trkpt lat="42.97428833" lon="-0.31822667">
        <ele>1502.0</ele>
        <time>2019-07-07T10:37:53.843Z</time>
      </trkpt>
      <trkpt lat="42.97428833" lon="-0.31822667">
        <ele>1502.0</ele>
        <time>2019-07-07T10:37:54.833Z</time>
      </trkpt>
      <trkpt lat="42.97422833" lon="-0.318215">
        <ele>1502.0</ele>
        <time>2019-07-07T10:37:55.821Z</time>
      </trkpt>
      <trkpt lat="42.97419667" lon="-0.31821167">
        <ele>1503.0</ele>
        <time>2019-07-07T10:37:56.833Z</time>
      </trkpt>
      <trkpt lat="42.97419667" lon="-0.31821167">
        <ele>1503.0</ele>
        <time>2019-07-07T10:37:57.806Z</time>
      </trkpt>
      <trkpt lat="42.97413833" lon="-0.31820333">
        <ele>1503.0</ele>
        <time>2019-07-07T10:37:58.827Z</time>
      </trkpt>
      <trkpt lat="42.97413833" lon="-0.31820333">
        <ele>1503.0</ele>
        <time>2019-07-07T10:37:59.812Z</time>
      </trkpt>
      <trkpt lat="42.97407833" lon="-0.31818833">
        <ele>1503.0</ele>
        <time>2019-07-07T10:38:00.826Z</time>
      </trkpt>
      <trkpt lat="42.97407833" lon="-0.31818833">
        <ele>1503.0</ele>
        <time>2019-07-07T10:38:01.808Z</time>
      </trkpt>
      <trkpt lat="42.97402333" lon="-0.31817">
        <ele>1504.0</ele>
        <time>2019-07-07T10:38:02.820Z</time>
      </trkpt>
      <trkpt lat="42.97402333" lon="-0.31817">
        <ele>1504.0</ele>
        <time>2019-07-07T10:38:03.806Z</time>
      </trkpt>
      <trkpt lat="42.97396167" lon="-0.31816167">
        <ele>1504.0</ele>
        <time>2019-07-07T10:38:04.829Z</time>
      </trkpt>
      <trkpt lat="42.97396167" lon="-0.31816167">
        <ele>1504.0</ele>
        <time>2019-07-07T10:38:05.804Z</time>
      </trkpt>
      <trkpt lat="42.97389667" lon="-0.318155">
        <ele>1505.0</ele>
        <time>2019-07-07T10:38:06.818Z</time>
      </trkpt>
      <trkpt lat="42.97389667" lon="-0.318155">
        <ele>1505.0</ele>
        <time>2019-07-07T10:38:07.822Z</time>
      </trkpt>
      <trkpt lat="42.97383667" lon="-0.31814667">
        <ele>1505.0</ele>
        <time>2019-07-07T10:38:08.841Z</time>
      </trkpt>
      <trkpt lat="42.97380667" lon="-0.31814">
        <ele>1505.0</ele>
        <time>2019-07-07T10:38:09.837Z</time>
      </trkpt>
      <trkpt lat="42.97380667" lon="-0.31814">
        <ele>1505.0</ele>
        <time>2019-07-07T10:38:10.810Z</time>
      </trkpt>
      <trkpt lat="42.97374667" lon="-0.318115">
        <ele>1506.0</ele>
        <time>2019-07-07T10:38:11.824Z</time>
      </trkpt>
      <trkpt lat="42.97371833" lon="-0.3181">
        <ele>1506.0</ele>
        <time>2019-07-07T10:38:12.810Z</time>
      </trkpt>
      <trkpt lat="42.97371833" lon="-0.3181">
        <ele>1506.0</ele>
        <time>2019-07-07T10:38:13.836Z</time>
      </trkpt>
      <trkpt lat="42.97365833" lon="-0.318065">
        <ele>1506.0</ele>
        <time>2019-07-07T10:38:14.812Z</time>
      </trkpt>
      <trkpt lat="42.97365833" lon="-0.318065">
        <ele>1506.0</ele>
        <time>2019-07-07T10:38:15.813Z</time>
      </trkpt>
      <trkpt lat="42.97361" lon="-0.318015">
        <ele>1507.0</ele>
        <time>2019-07-07T10:38:16.829Z</time>
      </trkpt>
      <trkpt lat="42.973585" lon="-0.31799667">
        <ele>1507.0</ele>
        <time>2019-07-07T10:38:17.821Z</time>
      </trkpt>
      <trkpt lat="42.973585" lon="-0.31799667">
        <ele>1507.0</ele>
        <time>2019-07-07T10:38:18.813Z</time>
      </trkpt>
      <trkpt lat="42.97353833" lon="-0.31796167">
        <ele>1507.0</ele>
        <time>2019-07-07T10:38:19.841Z</time>
      </trkpt>
      <trkpt lat="42.97353833" lon="-0.31796167">
        <ele>1507.0</ele>
        <time>2019-07-07T10:38:20.833Z</time>
      </trkpt>
      <trkpt lat="42.97349" lon="-0.31793833">
        <ele>1508.0</ele>
        <time>2019-07-07T10:38:21.806Z</time>
      </trkpt>
      <trkpt lat="42.97349" lon="-0.31793833">
        <ele>1508.0</ele>
        <time>2019-07-07T10:38:22.813Z</time>
      </trkpt>
      <trkpt lat="42.97344" lon="-0.31792833">
        <ele>1508.0</ele>
        <time>2019-07-07T10:38:23.835Z</time>
      </trkpt>
      <trkpt lat="42.97341667" lon="-0.31792667">
        <ele>1508.0</ele>
        <time>2019-07-07T10:38:24.819Z</time>
      </trkpt>
      <trkpt lat="42.97341667" lon="-0.31792667">
        <ele>1508.0</ele>
        <time>2019-07-07T10:38:25.827Z</time>
      </trkpt>
      <trkpt lat="42.97337667" lon="-0.317915">
        <ele>1508.0</ele>
        <time>2019-07-07T10:38:26.802Z</time>
      </trkpt>
      <trkpt lat="42.97337667" lon="-0.317915">
        <ele>1508.0</ele>
        <time>2019-07-07T10:38:27.803Z</time>
      </trkpt>
      <trkpt lat="42.97333667" lon="-0.31789167">
        <ele>1509.0</ele>
        <time>2019-07-07T10:38:28.820Z</time>
      </trkpt>
      <trkpt lat="42.973315" lon="-0.317885">
        <ele>1509.0</ele>
        <time>2019-07-07T10:38:29.810Z</time>
      </trkpt>
      <trkpt lat="42.973315" lon="-0.317885">
        <ele>1509.0</ele>
        <time>2019-07-07T10:38:30.809Z</time>
      </trkpt>
      <trkpt lat="42.97326" lon="-0.31788667">
        <ele>1509.0</ele>
        <time>2019-07-07T10:38:31.842Z</time>
      </trkpt>
      <trkpt lat="42.97323667" lon="-0.31788167">
        <ele>1509.0</ele>
        <time>2019-07-07T10:38:32.822Z</time>
      </trkpt>
      <trkpt lat="42.97323667" lon="-0.31788167">
        <ele>1509.0</ele>
        <time>2019-07-07T10:38:33.828Z</time>
      </trkpt>
      <trkpt lat="42.97318167" lon="-0.317885">
        <ele>1510.0</ele>
        <time>2019-07-07T10:38:34.808Z</time>
      </trkpt>
      <trkpt lat="42.97318167" lon="-0.317885">
        <ele>1510.0</ele>
        <time>2019-07-07T10:38:35.809Z</time>
      </trkpt>
      <trkpt lat="42.97303167" lon="-0.31799">
        <ele>1511.0</ele>
        <time>2019-07-07T10:38:36.834Z</time>
      </trkpt>
      <trkpt lat="42.97303167" lon="-0.31799">
        <ele>1511.0</ele>
        <time>2019-07-07T10:38:37.833Z</time>
      </trkpt>
      <trkpt lat="42.97297" lon="-0.318025">
        <ele>1513.0</ele>
        <time>2019-07-07T10:38:38.813Z</time>
      </trkpt>
      <trkpt lat="42.97296" lon="-0.31805333">
        <ele>1514.0</ele>
        <time>2019-07-07T10:38:39.831Z</time>
      </trkpt>
      <trkpt lat="42.97296" lon="-0.31805333">
        <ele>1514.0</ele>
        <time>2019-07-07T10:38:40.812Z</time>
      </trkpt>
      <trkpt lat="42.97291667" lon="-0.31805833">
        <ele>1515.0</ele>
        <time>2019-07-07T10:38:41.827Z</time>
      </trkpt>
      <trkpt lat="42.97289" lon="-0.31805667">
        <ele>1515.0</ele>
        <time>2019-07-07T10:38:42.814Z</time>
      </trkpt>
      <trkpt lat="42.97289" lon="-0.31805667">
        <ele>1515.0</ele>
        <time>2019-07-07T10:38:43.806Z</time>
      </trkpt>
      <trkpt lat="42.97283833" lon="-0.31805667">
        <ele>1516.0</ele>
        <time>2019-07-07T10:38:44.820Z</time>
      </trkpt>
      <trkpt lat="42.97283833" lon="-0.31805667">
        <ele>1516.0</ele>
        <time>2019-07-07T10:38:45.813Z</time>
      </trkpt>
      <trkpt lat="42.97278667" lon="-0.31807">
        <ele>1517.0</ele>
        <time>2019-07-07T10:38:46.836Z</time>
      </trkpt>
      <trkpt lat="42.97278667" lon="-0.31807">
        <ele>1517.0</ele>
        <time>2019-07-07T10:38:47.805Z</time>
      </trkpt>
      <trkpt lat="42.97274167" lon="-0.31808833">
        <ele>1518.0</ele>
        <time>2019-07-07T10:38:48.835Z</time>
      </trkpt>
      <trkpt lat="42.97271833" lon="-0.3181">
        <ele>1518.0</ele>
        <time>2019-07-07T10:38:49.841Z</time>
      </trkpt>
      <trkpt lat="42.97271833" lon="-0.3181">
        <ele>1518.0</ele>
        <time>2019-07-07T10:38:50.808Z</time>
      </trkpt>
      <trkpt lat="42.97268" lon="-0.31813667">
        <ele>1519.0</ele>
        <time>2019-07-07T10:38:51.826Z</time>
      </trkpt>
      <trkpt lat="42.97266167" lon="-0.31815833">
        <ele>1520.0</ele>
        <time>2019-07-07T10:38:52.823Z</time>
      </trkpt>
      <trkpt lat="42.97266167" lon="-0.31815833">
        <ele>1520.0</ele>
        <time>2019-07-07T10:38:53.814Z</time>
      </trkpt>
      <trkpt lat="42.97263667" lon="-0.31820167">
        <ele>1521.0</ele>
        <time>2019-07-07T10:38:54.827Z</time>
      </trkpt>
      <trkpt lat="42.97263667" lon="-0.31820167">
        <ele>1521.0</ele>
        <time>2019-07-07T10:38:55.803Z</time>
      </trkpt>
      <trkpt lat="42.97261167" lon="-0.31826667">
        <ele>1522.0</ele>
        <time>2019-07-07T10:38:56.815Z</time>
      </trkpt>
      <trkpt lat="42.97261167" lon="-0.31826667">
        <ele>1522.0</ele>
        <time>2019-07-07T10:38:57.833Z</time>
      </trkpt>
      <trkpt lat="42.9726" lon="-0.31833">
        <ele>1523.0</ele>
        <time>2019-07-07T10:38:58.812Z</time>
      </trkpt>
      <trkpt lat="42.9726" lon="-0.31833">
        <ele>1523.0</ele>
        <time>2019-07-07T10:38:59.831Z</time>
      </trkpt>
      <trkpt lat="42.97259333" lon="-0.31841">
        <ele>1525.0</ele>
        <time>2019-07-07T10:39:00.805Z</time>
      </trkpt>
      <trkpt lat="42.97259333" lon="-0.31841">
        <ele>1525.0</ele>
        <time>2019-07-07T10:39:01.820Z</time>
      </trkpt>
      <trkpt lat="42.97258833" lon="-0.31848833">
        <ele>1526.0</ele>
        <time>2019-07-07T10:39:02.836Z</time>
      </trkpt>
      <trkpt lat="42.97258833" lon="-0.31851667">
        <ele>1526.0</ele>
        <time>2019-07-07T10:39:03.812Z</time>
      </trkpt>
      <trkpt lat="42.97258833" lon="-0.31851667">
        <ele>1526.0</ele>
        <time>2019-07-07T10:39:04.831Z</time>
      </trkpt>
      <trkpt lat="42.97258" lon="-0.31858333">
        <ele>1527.0</ele>
        <time>2019-07-07T10:39:05.822Z</time>
      </trkpt>
      <trkpt lat="42.97258" lon="-0.31858333">
        <ele>1527.0</ele>
        <time>2019-07-07T10:39:06.810Z</time>
      </trkpt>
      <trkpt lat="42.972575" lon="-0.31864">
        <ele>1528.0</ele>
        <time>2019-07-07T10:39:07.828Z</time>
      </trkpt>
      <trkpt lat="42.97257333" lon="-0.31866833">
        <ele>1529.0</ele>
        <time>2019-07-07T10:39:08.835Z</time>
      </trkpt>
      <trkpt lat="42.97257333" lon="-0.31866833">
        <ele>1529.0</ele>
        <time>2019-07-07T10:39:09.813Z</time>
      </trkpt>
      <trkpt lat="42.97256333" lon="-0.31872833">
        <ele>1530.0</ele>
        <time>2019-07-07T10:39:10.839Z</time>
      </trkpt>
      <trkpt lat="42.97256333" lon="-0.31872833">
        <ele>1530.0</ele>
        <time>2019-07-07T10:39:11.814Z</time>
      </trkpt>
      <trkpt lat="42.97255" lon="-0.31879667">
        <ele>1531.0</ele>
        <time>2019-07-07T10:39:12.833Z</time>
      </trkpt>
      <trkpt lat="42.97255" lon="-0.31879667">
        <ele>1531.0</ele>
        <time>2019-07-07T10:39:13.823Z</time>
      </trkpt>
      <trkpt lat="42.97254" lon="-0.31887">
        <ele>1531.0</ele>
        <time>2019-07-07T10:39:14.822Z</time>
      </trkpt>
      <trkpt lat="42.97254" lon="-0.31887">
        <ele>1531.0</ele>
        <time>2019-07-07T10:39:15.833Z</time>
      </trkpt>
      <trkpt lat="42.972525" lon="-0.31894333">
        <ele>1532.0</ele>
        <time>2019-07-07T10:39:16.806Z</time>
      </trkpt>
      <trkpt lat="42.972515" lon="-0.31898333">
        <ele>1533.0</ele>
        <time>2019-07-07T10:39:17.837Z</time>
      </trkpt>
      <trkpt lat="42.972515" lon="-0.31898333">
        <ele>1533.0</ele>
        <time>2019-07-07T10:39:18.823Z</time>
      </trkpt>
      <trkpt lat="42.97249333" lon="-0.31906333">
        <ele>1533.0</ele>
        <time>2019-07-07T10:39:19.804Z</time>
      </trkpt>
      <trkpt lat="42.97249333" lon="-0.31906333">
        <ele>1533.0</ele>
        <time>2019-07-07T10:39:20.823Z</time>
      </trkpt>
      <trkpt lat="42.97248" lon="-0.31914167">
        <ele>1534.0</ele>
        <time>2019-07-07T10:39:21.841Z</time>
      </trkpt>
      <trkpt lat="42.97248" lon="-0.31914167">
        <ele>1534.0</ele>
        <time>2019-07-07T10:39:22.833Z</time>
      </trkpt>
      <trkpt lat="42.97247" lon="-0.31921667">
        <ele>1535.0</ele>
        <time>2019-07-07T10:39:23.824Z</time>
      </trkpt>
      <trkpt lat="42.97247" lon="-0.31921667">
        <ele>1535.0</ele>
        <time>2019-07-07T10:39:24.840Z</time>
      </trkpt>
      <trkpt lat="42.97246333" lon="-0.31928667">
        <ele>1535.0</ele>
        <time>2019-07-07T10:39:25.816Z</time>
      </trkpt>
      <trkpt lat="42.97246333" lon="-0.31932167">
        <ele>1536.0</ele>
        <time>2019-07-07T10:39:26.832Z</time>
      </trkpt>
      <trkpt lat="42.97246333" lon="-0.31932167">
        <ele>1536.0</ele>
        <time>2019-07-07T10:39:27.833Z</time>
      </trkpt>
      <trkpt lat="42.972455" lon="-0.319395">
        <ele>1536.0</ele>
        <time>2019-07-07T10:39:28.827Z</time>
      </trkpt>
      <trkpt lat="42.972455" lon="-0.319395">
        <ele>1536.0</ele>
        <time>2019-07-07T10:39:29.811Z</time>
      </trkpt>
      <trkpt lat="42.97245167" lon="-0.31946167">
        <ele>1537.0</ele>
        <time>2019-07-07T10:39:30.805Z</time>
      </trkpt>
      <trkpt lat="42.97245167" lon="-0.31946167">
        <ele>1537.0</ele>
        <time>2019-07-07T10:39:31.823Z</time>
      </trkpt>
      <trkpt lat="42.97243833" lon="-0.319535">
        <ele>1538.0</ele>
        <time>2019-07-07T10:39:32.839Z</time>
      </trkpt>
      <trkpt lat="42.97243833" lon="-0.319535">
        <ele>1538.0</ele>
        <time>2019-07-07T10:39:33.803Z</time>
      </trkpt>
      <trkpt lat="42.97242" lon="-0.31960833">
        <ele>1538.0</ele>
        <time>2019-07-07T10:39:34.819Z</time>
      </trkpt>
      <trkpt lat="42.97242" lon="-0.31960833">
        <ele>1538.0</ele>
        <time>2019-07-07T10:39:35.832Z</time>
      </trkpt>
      <trkpt lat="42.97240167" lon="-0.319685">
        <ele>1539.0</ele>
        <time>2019-07-07T10:39:36.812Z</time>
      </trkpt>
      <trkpt lat="42.97240167" lon="-0.319685">
        <ele>1539.0</ele>
        <time>2019-07-07T10:39:37.833Z</time>
      </trkpt>
      <trkpt lat="42.97238167" lon="-0.31976167">
        <ele>1540.0</ele>
        <time>2019-07-07T10:39:38.809Z</time>
      </trkpt>
      <trkpt lat="42.972375" lon="-0.31979667">
        <ele>1540.0</ele>
        <time>2019-07-07T10:39:39.803Z</time>
      </trkpt>
      <trkpt lat="42.972375" lon="-0.31979667">
        <ele>1540.0</ele>
        <time>2019-07-07T10:39:40.823Z</time>
      </trkpt>
      <trkpt lat="42.97238" lon="-0.31986">
        <ele>1541.0</ele>
        <time>2019-07-07T10:39:41.807Z</time>
      </trkpt>
      <trkpt lat="42.97238" lon="-0.31986">
        <ele>1541.0</ele>
        <time>2019-07-07T10:39:42.808Z</time>
      </trkpt>
      <trkpt lat="42.97238833" lon="-0.319915">
        <ele>1542.0</ele>
        <time>2019-07-07T10:39:43.825Z</time>
      </trkpt>
      <trkpt lat="42.97238833" lon="-0.319915">
        <ele>1542.0</ele>
        <time>2019-07-07T10:39:44.837Z</time>
      </trkpt>
      <trkpt lat="42.97238167" lon="-0.31998167">
        <ele>1543.0</ele>
        <time>2019-07-07T10:39:45.816Z</time>
      </trkpt>
      <trkpt lat="42.97238167" lon="-0.31998167">
        <ele>1543.0</ele>
        <time>2019-07-07T10:39:46.824Z</time>
      </trkpt>
      <trkpt lat="42.97237333" lon="-0.32005">
        <ele>1543.0</ele>
        <time>2019-07-07T10:39:47.868Z</time>
      </trkpt>
      <trkpt lat="42.97237333" lon="-0.32005">
        <ele>1543.0</ele>
        <time>2019-07-07T10:39:48.837Z</time>
      </trkpt>
      <trkpt lat="42.972365" lon="-0.32012167">
        <ele>1544.0</ele>
        <time>2019-07-07T10:39:49.827Z</time>
      </trkpt>
      <trkpt lat="42.972365" lon="-0.32012167">
        <ele>1544.0</ele>
        <time>2019-07-07T10:39:50.809Z</time>
      </trkpt>
      <trkpt lat="42.97235667" lon="-0.320195">
        <ele>1544.0</ele>
        <time>2019-07-07T10:39:51.824Z</time>
      </trkpt>
      <trkpt lat="42.97235667" lon="-0.320195">
        <ele>1544.0</ele>
        <time>2019-07-07T10:39:52.833Z</time>
      </trkpt>
      <trkpt lat="42.97234833" lon="-0.32026333">
        <ele>1545.0</ele>
        <time>2019-07-07T10:39:53.808Z</time>
      </trkpt>
      <trkpt lat="42.97234833" lon="-0.32026333">
        <ele>1545.0</ele>
        <time>2019-07-07T10:39:54.833Z</time>
      </trkpt>
      <trkpt lat="42.97234" lon="-0.32034333">
        <ele>1545.0</ele>
        <time>2019-07-07T10:39:55.815Z</time>
      </trkpt>
      <trkpt lat="42.97234" lon="-0.32034333">
        <ele>1545.0</ele>
        <time>2019-07-07T10:39:56.814Z</time>
      </trkpt>
      <trkpt lat="42.97234333" lon="-0.32041">
        <ele>1546.0</ele>
        <time>2019-07-07T10:39:57.829Z</time>
      </trkpt>
      <trkpt lat="42.97235" lon="-0.32044333">
        <ele>1547.0</ele>
        <time>2019-07-07T10:39:58.804Z</time>
      </trkpt>
      <trkpt lat="42.97235167" lon="-0.32047833">
        <ele>1547.0</ele>
        <time>2019-07-07T10:39:59.832Z</time>
      </trkpt>
      <trkpt lat="42.97235167" lon="-0.32047833">
        <ele>1547.0</ele>
        <time>2019-07-07T10:40:00.814Z</time>
      </trkpt>
      <trkpt lat="42.97235833" lon="-0.320545">
        <ele>1548.0</ele>
        <time>2019-07-07T10:40:01.833Z</time>
      </trkpt>
      <trkpt lat="42.97235833" lon="-0.32058167">
        <ele>1548.0</ele>
        <time>2019-07-07T10:40:02.823Z</time>
      </trkpt>
      <trkpt lat="42.97235833" lon="-0.32058167">
        <ele>1548.0</ele>
        <time>2019-07-07T10:40:03.813Z</time>
      </trkpt>
      <trkpt lat="42.972355" lon="-0.32065833">
        <ele>1549.0</ele>
        <time>2019-07-07T10:40:04.830Z</time>
      </trkpt>
      <trkpt lat="42.972355" lon="-0.32065833">
        <ele>1549.0</ele>
        <time>2019-07-07T10:40:05.813Z</time>
      </trkpt>
      <trkpt lat="42.97235333" lon="-0.32072833">
        <ele>1550.0</ele>
        <time>2019-07-07T10:40:06.829Z</time>
      </trkpt>
      <trkpt lat="42.97235167" lon="-0.320765">
        <ele>1550.0</ele>
        <time>2019-07-07T10:40:07.822Z</time>
      </trkpt>
      <trkpt lat="42.97235" lon="-0.32080667">
        <ele>1550.0</ele>
        <time>2019-07-07T10:40:08.827Z</time>
      </trkpt>
      <trkpt lat="42.97235" lon="-0.32080667">
        <ele>1550.0</ele>
        <time>2019-07-07T10:40:09.822Z</time>
      </trkpt>
      <trkpt lat="42.972345" lon="-0.32088167">
        <ele>1551.0</ele>
        <time>2019-07-07T10:40:10.814Z</time>
      </trkpt>
      <trkpt lat="42.972345" lon="-0.32088167">
        <ele>1551.0</ele>
        <time>2019-07-07T10:40:11.810Z</time>
      </trkpt>
      <trkpt lat="42.97233667" lon="-0.32094667">
        <ele>1552.0</ele>
        <time>2019-07-07T10:40:12.831Z</time>
      </trkpt>
      <trkpt lat="42.97233667" lon="-0.32094667">
        <ele>1552.0</ele>
        <time>2019-07-07T10:40:13.838Z</time>
      </trkpt>
      <trkpt lat="42.97232333" lon="-0.32102833">
        <ele>1552.0</ele>
        <time>2019-07-07T10:40:14.825Z</time>
      </trkpt>
      <trkpt lat="42.97232333" lon="-0.32102833">
        <ele>1552.0</ele>
        <time>2019-07-07T10:40:15.823Z</time>
      </trkpt>
      <trkpt lat="42.97231333" lon="-0.321095">
        <ele>1553.0</ele>
        <time>2019-07-07T10:40:16.840Z</time>
      </trkpt>
      <trkpt lat="42.97231333" lon="-0.321095">
        <ele>1553.0</ele>
        <time>2019-07-07T10:40:17.804Z</time>
      </trkpt>
      <trkpt lat="42.972295" lon="-0.321165">
        <ele>1553.0</ele>
        <time>2019-07-07T10:40:18.825Z</time>
      </trkpt>
      <trkpt lat="42.972295" lon="-0.321165">
        <ele>1553.0</ele>
        <time>2019-07-07T10:40:19.833Z</time>
      </trkpt>
      <trkpt lat="42.97227833" lon="-0.32122833">
        <ele>1554.0</ele>
        <time>2019-07-07T10:40:20.806Z</time>
      </trkpt>
      <trkpt lat="42.97227833" lon="-0.32122833">
        <ele>1554.0</ele>
        <time>2019-07-07T10:40:21.824Z</time>
      </trkpt>
      <trkpt lat="42.97225833" lon="-0.32129333">
        <ele>1554.0</ele>
        <time>2019-07-07T10:40:22.837Z</time>
      </trkpt>
      <trkpt lat="42.97224167" lon="-0.321325">
        <ele>1555.0</ele>
        <time>2019-07-07T10:40:23.801Z</time>
      </trkpt>
      <trkpt lat="42.97224167" lon="-0.321325">
        <ele>1555.0</ele>
        <time>2019-07-07T10:40:24.811Z</time>
      </trkpt>
      <trkpt lat="42.97221" lon="-0.32138167">
        <ele>1556.0</ele>
        <time>2019-07-07T10:40:25.830Z</time>
      </trkpt>
      <trkpt lat="42.97219333" lon="-0.32141333">
        <ele>1556.0</ele>
        <time>2019-07-07T10:40:26.834Z</time>
      </trkpt>
      <trkpt lat="42.97219333" lon="-0.32141333">
        <ele>1556.0</ele>
        <time>2019-07-07T10:40:27.828Z</time>
      </trkpt>
      <trkpt lat="42.97216167" lon="-0.321475">
        <ele>1556.0</ele>
        <time>2019-07-07T10:40:28.814Z</time>
      </trkpt>
      <trkpt lat="42.97216167" lon="-0.321475">
        <ele>1556.0</ele>
        <time>2019-07-07T10:40:29.836Z</time>
      </trkpt>
      <trkpt lat="42.97213" lon="-0.32153333">
        <ele>1557.0</ele>
        <time>2019-07-07T10:40:30.815Z</time>
      </trkpt>
      <trkpt lat="42.97213" lon="-0.32153333">
        <ele>1557.0</ele>
        <time>2019-07-07T10:40:31.833Z</time>
      </trkpt>
      <trkpt lat="42.97210167" lon="-0.32158667">
        <ele>1558.0</ele>
        <time>2019-07-07T10:40:32.805Z</time>
      </trkpt>
      <trkpt lat="42.97210167" lon="-0.32158667">
        <ele>1558.0</ele>
        <time>2019-07-07T10:40:33.805Z</time>
      </trkpt>
      <trkpt lat="42.97205833" lon="-0.32165167">
        <ele>1558.0</ele>
        <time>2019-07-07T10:40:34.824Z</time>
      </trkpt>
      <trkpt lat="42.97205833" lon="-0.32165167">
        <ele>1558.0</ele>
        <time>2019-07-07T10:40:35.810Z</time>
      </trkpt>
      <trkpt lat="42.97202333" lon="-0.32172333">
        <ele>1559.0</ele>
        <time>2019-07-07T10:40:36.834Z</time>
      </trkpt>
      <trkpt lat="42.97202333" lon="-0.32172333">
        <ele>1559.0</ele>
        <time>2019-07-07T10:40:37.804Z</time>
      </trkpt>
      <trkpt lat="42.97199667" lon="-0.321795">
        <ele>1560.0</ele>
        <time>2019-07-07T10:40:38.824Z</time>
      </trkpt>
      <trkpt lat="42.971985" lon="-0.32183167">
        <ele>1560.0</ele>
        <time>2019-07-07T10:40:39.806Z</time>
      </trkpt>
      <trkpt lat="42.971985" lon="-0.32183167">
        <ele>1560.0</ele>
        <time>2019-07-07T10:40:40.823Z</time>
      </trkpt>
      <trkpt lat="42.97196333" lon="-0.32190667">
        <ele>1561.0</ele>
        <time>2019-07-07T10:40:41.826Z</time>
      </trkpt>
      <trkpt lat="42.97196333" lon="-0.32190667">
        <ele>1561.0</ele>
        <time>2019-07-07T10:40:42.824Z</time>
      </trkpt>
      <trkpt lat="42.97194167" lon="-0.321975">
        <ele>1561.0</ele>
        <time>2019-07-07T10:40:43.841Z</time>
      </trkpt>
      <trkpt lat="42.97194167" lon="-0.321975">
        <ele>1561.0</ele>
        <time>2019-07-07T10:40:44.803Z</time>
      </trkpt>
      <trkpt lat="42.97191333" lon="-0.32202833">
        <ele>1561.0</ele>
        <time>2019-07-07T10:40:45.817Z</time>
      </trkpt>
      <trkpt lat="42.97191333" lon="-0.32202833">
        <ele>1561.0</ele>
        <time>2019-07-07T10:40:46.825Z</time>
      </trkpt>
      <trkpt lat="42.97187833" lon="-0.32207333">
        <ele>1562.0</ele>
        <time>2019-07-07T10:40:47.826Z</time>
      </trkpt>
      <trkpt lat="42.97187833" lon="-0.32207333">
        <ele>1562.0</ele>
        <time>2019-07-07T10:40:48.813Z</time>
      </trkpt>
      <trkpt lat="42.97183667" lon="-0.32210833">
        <ele>1563.0</ele>
        <time>2019-07-07T10:40:49.832Z</time>
      </trkpt>
      <trkpt lat="42.97183667" lon="-0.32210833">
        <ele>1563.0</ele>
        <time>2019-07-07T10:40:50.803Z</time>
      </trkpt>
      <trkpt lat="42.97179" lon="-0.32214167">
        <ele>1563.0</ele>
        <time>2019-07-07T10:40:51.828Z</time>
      </trkpt>
      <trkpt lat="42.97179" lon="-0.32214167">
        <ele>1563.0</ele>
        <time>2019-07-07T10:40:52.813Z</time>
      </trkpt>
      <trkpt lat="42.971745" lon="-0.32217333">
        <ele>1564.0</ele>
        <time>2019-07-07T10:40:53.837Z</time>
      </trkpt>
      <trkpt lat="42.97172167" lon="-0.32219">
        <ele>1564.0</ele>
        <time>2019-07-07T10:40:54.830Z</time>
      </trkpt>
      <trkpt lat="42.97172167" lon="-0.32219">
        <ele>1564.0</ele>
        <time>2019-07-07T10:40:55.831Z</time>
      </trkpt>
      <trkpt lat="42.97166833" lon="-0.322215">
        <ele>1565.0</ele>
        <time>2019-07-07T10:40:56.804Z</time>
      </trkpt>
      <trkpt lat="42.97166833" lon="-0.322215">
        <ele>1565.0</ele>
        <time>2019-07-07T10:40:57.813Z</time>
      </trkpt>
      <trkpt lat="42.971615" lon="-0.32224667">
        <ele>1566.0</ele>
        <time>2019-07-07T10:40:58.806Z</time>
      </trkpt>
      <trkpt lat="42.97158833" lon="-0.322265">
        <ele>1566.0</ele>
        <time>2019-07-07T10:40:59.817Z</time>
      </trkpt>
      <trkpt lat="42.97158833" lon="-0.322265">
        <ele>1566.0</ele>
        <time>2019-07-07T10:41:00.831Z</time>
      </trkpt>
      <trkpt lat="42.97154167" lon="-0.32231">
        <ele>1567.0</ele>
        <time>2019-07-07T10:41:01.826Z</time>
      </trkpt>
      <trkpt lat="42.97154167" lon="-0.32231">
        <ele>1567.0</ele>
        <time>2019-07-07T10:41:02.840Z</time>
      </trkpt>
      <trkpt lat="42.971505" lon="-0.32237167">
        <ele>1567.0</ele>
        <time>2019-07-07T10:41:03.820Z</time>
      </trkpt>
      <trkpt lat="42.971505" lon="-0.32237167">
        <ele>1567.0</ele>
        <time>2019-07-07T10:41:04.833Z</time>
      </trkpt>
      <trkpt lat="42.97148" lon="-0.32243667">
        <ele>1568.0</ele>
        <time>2019-07-07T10:41:05.809Z</time>
      </trkpt>
      <trkpt lat="42.97146833" lon="-0.32247">
        <ele>1568.0</ele>
        <time>2019-07-07T10:41:06.817Z</time>
      </trkpt>
      <trkpt lat="42.97146833" lon="-0.32247">
        <ele>1568.0</ele>
        <time>2019-07-07T10:41:07.809Z</time>
      </trkpt>
      <trkpt lat="42.97145333" lon="-0.32253167">
        <ele>1569.0</ele>
        <time>2019-07-07T10:41:08.822Z</time>
      </trkpt>
      <trkpt lat="42.97145333" lon="-0.32253167">
        <ele>1569.0</ele>
        <time>2019-07-07T10:41:09.803Z</time>
      </trkpt>
      <trkpt lat="42.97144167" lon="-0.32260333">
        <ele>1569.0</ele>
        <time>2019-07-07T10:41:10.820Z</time>
      </trkpt>
      <trkpt lat="42.97144167" lon="-0.32260333">
        <ele>1569.0</ele>
        <time>2019-07-07T10:41:11.833Z</time>
      </trkpt>
      <trkpt lat="42.971435" lon="-0.322675">
        <ele>1570.0</ele>
        <time>2019-07-07T10:41:12.809Z</time>
      </trkpt>
      <trkpt lat="42.971435" lon="-0.322675">
        <ele>1570.0</ele>
        <time>2019-07-07T10:41:13.804Z</time>
      </trkpt>
      <trkpt lat="42.97143833" lon="-0.32274333">
        <ele>1570.0</ele>
        <time>2019-07-07T10:41:14.821Z</time>
      </trkpt>
      <trkpt lat="42.97143833" lon="-0.32274333">
        <ele>1570.0</ele>
        <time>2019-07-07T10:41:15.811Z</time>
      </trkpt>
      <trkpt lat="42.97145" lon="-0.322815">
        <ele>1571.0</ele>
        <time>2019-07-07T10:41:16.829Z</time>
      </trkpt>
      <trkpt lat="42.97145" lon="-0.322815">
        <ele>1571.0</ele>
        <time>2019-07-07T10:41:17.833Z</time>
      </trkpt>
      <trkpt lat="42.97146667" lon="-0.32288167">
        <ele>1571.0</ele>
        <time>2019-07-07T10:41:18.809Z</time>
      </trkpt>
      <trkpt lat="42.97146667" lon="-0.32288167">
        <ele>1571.0</ele>
        <time>2019-07-07T10:41:19.837Z</time>
      </trkpt>
      <trkpt lat="42.97148167" lon="-0.32294167">
        <ele>1572.0</ele>
        <time>2019-07-07T10:41:20.830Z</time>
      </trkpt>
      <trkpt lat="42.97148167" lon="-0.32294167">
        <ele>1572.0</ele>
        <time>2019-07-07T10:41:21.833Z</time>
      </trkpt>
      <trkpt lat="42.97149833" lon="-0.32300333">
        <ele>1572.0</ele>
        <time>2019-07-07T10:41:22.809Z</time>
      </trkpt>
      <trkpt lat="42.97151" lon="-0.32303667">
        <ele>1573.0</ele>
        <time>2019-07-07T10:41:23.827Z</time>
      </trkpt>
      <trkpt lat="42.97151" lon="-0.32303667">
        <ele>1573.0</ele>
        <time>2019-07-07T10:41:24.833Z</time>
      </trkpt>
      <trkpt lat="42.97153167" lon="-0.323115">
        <ele>1573.0</ele>
        <time>2019-07-07T10:41:25.807Z</time>
      </trkpt>
      <trkpt lat="42.97153167" lon="-0.323115">
        <ele>1573.0</ele>
        <time>2019-07-07T10:41:26.822Z</time>
      </trkpt>
      <trkpt lat="42.97152833" lon="-0.32319167">
        <ele>1573.0</ele>
        <time>2019-07-07T10:41:27.842Z</time>
      </trkpt>
      <trkpt lat="42.97151833" lon="-0.32323167">
        <ele>1573.0</ele>
        <time>2019-07-07T10:41:28.812Z</time>
      </trkpt>
      <trkpt lat="42.97151333" lon="-0.32327333">
        <ele>1574.0</ele>
        <time>2019-07-07T10:41:29.811Z</time>
      </trkpt>
      <trkpt lat="42.97151333" lon="-0.32327333">
        <ele>1574.0</ele>
        <time>2019-07-07T10:41:30.802Z</time>
      </trkpt>
      <trkpt lat="42.97149667" lon="-0.32335">
        <ele>1574.0</ele>
        <time>2019-07-07T10:41:31.820Z</time>
      </trkpt>
      <trkpt lat="42.97149333" lon="-0.323385">
        <ele>1574.0</ele>
        <time>2019-07-07T10:41:32.826Z</time>
      </trkpt>
      <trkpt lat="42.97149333" lon="-0.323385">
        <ele>1574.0</ele>
        <time>2019-07-07T10:41:33.808Z</time>
      </trkpt>
      <trkpt lat="42.97147667" lon="-0.32345667">
        <ele>1575.0</ele>
        <time>2019-07-07T10:41:34.826Z</time>
      </trkpt>
      <trkpt lat="42.97147667" lon="-0.32345667">
        <ele>1575.0</ele>
        <time>2019-07-07T10:41:35.813Z</time>
      </trkpt>
      <trkpt lat="42.97146" lon="-0.32352">
        <ele>1576.0</ele>
        <time>2019-07-07T10:41:36.801Z</time>
      </trkpt>
      <trkpt lat="42.97146" lon="-0.32352">
        <ele>1576.0</ele>
        <time>2019-07-07T10:41:37.833Z</time>
      </trkpt>
      <trkpt lat="42.97143667" lon="-0.32358667">
        <ele>1576.0</ele>
        <time>2019-07-07T10:41:38.807Z</time>
      </trkpt>
      <trkpt lat="42.97142333" lon="-0.32361333">
        <ele>1576.0</ele>
        <time>2019-07-07T10:41:39.828Z</time>
      </trkpt>
      <trkpt lat="42.97142333" lon="-0.32361333">
        <ele>1576.0</ele>
        <time>2019-07-07T10:41:40.828Z</time>
      </trkpt>
      <trkpt lat="42.97138333" lon="-0.32367333">
        <ele>1577.0</ele>
        <time>2019-07-07T10:41:41.804Z</time>
      </trkpt>
      <trkpt lat="42.97138333" lon="-0.32367333">
        <ele>1577.0</ele>
        <time>2019-07-07T10:41:42.834Z</time>
      </trkpt>
      <trkpt lat="42.97134333" lon="-0.32372">
        <ele>1577.0</ele>
        <time>2019-07-07T10:41:43.807Z</time>
      </trkpt>
      <trkpt lat="42.97132" lon="-0.32374167">
        <ele>1578.0</ele>
        <time>2019-07-07T10:41:44.810Z</time>
      </trkpt>
      <trkpt lat="42.97132" lon="-0.32374167">
        <ele>1578.0</ele>
        <time>2019-07-07T10:41:45.839Z</time>
      </trkpt>
      <trkpt lat="42.97128833" lon="-0.32374667">
        <ele>1578.0</ele>
        <time>2019-07-07T10:41:46.820Z</time>
      </trkpt>
      <trkpt lat="42.97128833" lon="-0.32374667">
        <ele>1578.0</ele>
        <time>2019-07-07T10:41:47.809Z</time>
      </trkpt>
      <trkpt lat="42.97123" lon="-0.32377833">
        <ele>1579.0</ele>
        <time>2019-07-07T10:41:48.838Z</time>
      </trkpt>
      <trkpt lat="42.97120333" lon="-0.32379">
        <ele>1579.0</ele>
        <time>2019-07-07T10:41:49.827Z</time>
      </trkpt>
      <trkpt lat="42.97120333" lon="-0.32379">
        <ele>1579.0</ele>
        <time>2019-07-07T10:41:50.826Z</time>
      </trkpt>
      <trkpt lat="42.97115167" lon="-0.323825">
        <ele>1579.0</ele>
        <time>2019-07-07T10:41:51.841Z</time>
      </trkpt>
      <trkpt lat="42.97115167" lon="-0.323825">
        <ele>1579.0</ele>
        <time>2019-07-07T10:41:52.823Z</time>
      </trkpt>
      <trkpt lat="42.97109833" lon="-0.32386167">
        <ele>1579.0</ele>
        <time>2019-07-07T10:41:53.805Z</time>
      </trkpt>
      <trkpt lat="42.97107667" lon="-0.32388167">
        <ele>1580.0</ele>
        <time>2019-07-07T10:41:54.814Z</time>
      </trkpt>
      <trkpt lat="42.971055" lon="-0.32390333">
        <ele>1580.0</ele>
        <time>2019-07-07T10:41:55.818Z</time>
      </trkpt>
      <trkpt lat="42.971055" lon="-0.32390333">
        <ele>1580.0</ele>
        <time>2019-07-07T10:41:56.812Z</time>
      </trkpt>
      <trkpt lat="42.97101" lon="-0.32396">
        <ele>1581.0</ele>
        <time>2019-07-07T10:41:57.823Z</time>
      </trkpt>
      <trkpt lat="42.97101" lon="-0.32396">
        <ele>1581.0</ele>
        <time>2019-07-07T10:41:58.833Z</time>
      </trkpt>
      <trkpt lat="42.97099667" lon="-0.32401167">
        <ele>1581.0</ele>
        <time>2019-07-07T10:41:59.812Z</time>
      </trkpt>
      <trkpt lat="42.97099667" lon="-0.32401167">
        <ele>1581.0</ele>
        <time>2019-07-07T10:42:00.823Z</time>
      </trkpt>
      <trkpt lat="42.97098333" lon="-0.32408667">
        <ele>1582.0</ele>
        <time>2019-07-07T10:42:01.801Z</time>
      </trkpt>
      <trkpt lat="42.97098333" lon="-0.32408667">
        <ele>1582.0</ele>
        <time>2019-07-07T10:42:02.835Z</time>
      </trkpt>
      <trkpt lat="42.97100333" lon="-0.32415167">
        <ele>1582.0</ele>
        <time>2019-07-07T10:42:03.841Z</time>
      </trkpt>
      <trkpt lat="42.97100333" lon="-0.32415167">
        <ele>1582.0</ele>
        <time>2019-07-07T10:42:04.830Z</time>
      </trkpt>
      <trkpt lat="42.97102" lon="-0.32422333">
        <ele>1582.0</ele>
        <time>2019-07-07T10:42:05.804Z</time>
      </trkpt>
      <trkpt lat="42.97102" lon="-0.32422333">
        <ele>1582.0</ele>
        <time>2019-07-07T10:42:06.823Z</time>
      </trkpt>
      <trkpt lat="42.97104833" lon="-0.32426833">
        <ele>1583.0</ele>
        <time>2019-07-07T10:42:07.840Z</time>
      </trkpt>
      <trkpt lat="42.97106333" lon="-0.324285">
        <ele>1583.0</ele>
        <time>2019-07-07T10:42:08.811Z</time>
      </trkpt>
      <trkpt lat="42.97106333" lon="-0.324285">
        <ele>1583.0</ele>
        <time>2019-07-07T10:42:09.819Z</time>
      </trkpt>
      <trkpt lat="42.97108833" lon="-0.32432167">
        <ele>1583.0</ele>
        <time>2019-07-07T10:42:10.829Z</time>
      </trkpt>
      <trkpt lat="42.97108833" lon="-0.32432167">
        <ele>1583.0</ele>
        <time>2019-07-07T10:42:11.823Z</time>
      </trkpt>
      <trkpt lat="42.97112" lon="-0.324355">
        <ele>1583.0</ele>
        <time>2019-07-07T10:42:12.840Z</time>
      </trkpt>
      <trkpt lat="42.97112" lon="-0.324355">
        <ele>1583.0</ele>
        <time>2019-07-07T10:42:13.833Z</time>
      </trkpt>
      <trkpt lat="42.97116" lon="-0.32439833">
        <ele>1584.0</ele>
        <time>2019-07-07T10:42:14.838Z</time>
      </trkpt>
      <trkpt lat="42.97116" lon="-0.32439833">
        <ele>1584.0</ele>
        <time>2019-07-07T10:42:15.833Z</time>
      </trkpt>
      <trkpt lat="42.97121" lon="-0.32443">
        <ele>1584.0</ele>
        <time>2019-07-07T10:42:16.827Z</time>
      </trkpt>
      <trkpt lat="42.97123333" lon="-0.32444333">
        <ele>1585.0</ele>
        <time>2019-07-07T10:42:17.802Z</time>
      </trkpt>
      <trkpt lat="42.97123333" lon="-0.32444333">
        <ele>1585.0</ele>
        <time>2019-07-07T10:42:18.819Z</time>
      </trkpt>
      <trkpt lat="42.97127167" lon="-0.32448">
        <ele>1585.0</ele>
        <time>2019-07-07T10:42:19.842Z</time>
      </trkpt>
      <trkpt lat="42.97127167" lon="-0.32448">
        <ele>1585.0</ele>
        <time>2019-07-07T10:42:20.833Z</time>
      </trkpt>
      <trkpt lat="42.97130667" lon="-0.32452">
        <ele>1586.0</ele>
        <time>2019-07-07T10:42:21.810Z</time>
      </trkpt>
      <trkpt lat="42.97130667" lon="-0.32452">
        <ele>1586.0</ele>
        <time>2019-07-07T10:42:22.825Z</time>
      </trkpt>
      <trkpt lat="42.97134667" lon="-0.32454667">
        <ele>1586.0</ele>
        <time>2019-07-07T10:42:23.839Z</time>
      </trkpt>
      <trkpt lat="42.97134667" lon="-0.32454667">
        <ele>1586.0</ele>
        <time>2019-07-07T10:42:24.813Z</time>
      </trkpt>
      <trkpt lat="42.97139667" lon="-0.32456">
        <ele>1587.0</ele>
        <time>2019-07-07T10:42:25.831Z</time>
      </trkpt>
      <trkpt lat="42.97142167" lon="-0.32456667">
        <ele>1587.0</ele>
        <time>2019-07-07T10:42:26.807Z</time>
      </trkpt>
      <trkpt lat="42.97142167" lon="-0.32456667">
        <ele>1587.0</ele>
        <time>2019-07-07T10:42:27.823Z</time>
      </trkpt>
      <trkpt lat="42.971475" lon="-0.32457167">
        <ele>1588.0</ele>
        <time>2019-07-07T10:42:28.810Z</time>
      </trkpt>
      <trkpt lat="42.97150167" lon="-0.324565">
        <ele>1588.0</ele>
        <time>2019-07-07T10:42:29.826Z</time>
      </trkpt>
      <trkpt lat="42.97150167" lon="-0.324565">
        <ele>1588.0</ele>
        <time>2019-07-07T10:42:30.811Z</time>
      </trkpt>
      <trkpt lat="42.97155333" lon="-0.324555">
        <ele>1589.0</ele>
        <time>2019-07-07T10:42:31.828Z</time>
      </trkpt>
      <trkpt lat="42.97158167" lon="-0.32455167">
        <ele>1589.0</ele>
        <time>2019-07-07T10:42:32.811Z</time>
      </trkpt>
      <trkpt lat="42.97158167" lon="-0.32455167">
        <ele>1589.0</ele>
        <time>2019-07-07T10:42:33.834Z</time>
      </trkpt>
      <trkpt lat="42.97163333" lon="-0.32455167">
        <ele>1590.0</ele>
        <time>2019-07-07T10:42:34.814Z</time>
      </trkpt>
      <trkpt lat="42.97163333" lon="-0.32455167">
        <ele>1590.0</ele>
        <time>2019-07-07T10:42:35.823Z</time>
      </trkpt>
      <trkpt lat="42.97168833" lon="-0.32456167">
        <ele>1590.0</ele>
        <time>2019-07-07T10:42:36.812Z</time>
      </trkpt>
      <trkpt lat="42.97168833" lon="-0.32456167">
        <ele>1590.0</ele>
        <time>2019-07-07T10:42:37.834Z</time>
      </trkpt>
      <trkpt lat="42.97173833" lon="-0.324585">
        <ele>1590.0</ele>
        <time>2019-07-07T10:42:38.803Z</time>
      </trkpt>
      <trkpt lat="42.97173833" lon="-0.324585">
        <ele>1590.0</ele>
        <time>2019-07-07T10:42:39.812Z</time>
      </trkpt>
      <trkpt lat="42.97178833" lon="-0.32461833">
        <ele>1590.0</ele>
        <time>2019-07-07T10:42:40.830Z</time>
      </trkpt>
      <trkpt lat="42.97181167" lon="-0.324635">
        <ele>1590.0</ele>
        <time>2019-07-07T10:42:41.805Z</time>
      </trkpt>
      <trkpt lat="42.97181167" lon="-0.324635">
        <ele>1590.0</ele>
        <time>2019-07-07T10:42:42.812Z</time>
      </trkpt>
      <trkpt lat="42.97186333" lon="-0.324655">
        <ele>1590.0</ele>
        <time>2019-07-07T10:42:43.806Z</time>
      </trkpt>
      <trkpt lat="42.97186333" lon="-0.324655">
        <ele>1590.0</ele>
        <time>2019-07-07T10:42:44.832Z</time>
      </trkpt>
      <trkpt lat="42.97191167" lon="-0.32465167">
        <ele>1591.0</ele>
        <time>2019-07-07T10:42:45.809Z</time>
      </trkpt>
      <trkpt lat="42.97191167" lon="-0.32465167">
        <ele>1591.0</ele>
        <time>2019-07-07T10:42:46.825Z</time>
      </trkpt>
      <trkpt lat="42.97196167" lon="-0.32464333">
        <ele>1591.0</ele>
        <time>2019-07-07T10:42:47.833Z</time>
      </trkpt>
      <trkpt lat="42.97196167" lon="-0.32464333">
        <ele>1591.0</ele>
        <time>2019-07-07T10:42:48.832Z</time>
      </trkpt>
      <trkpt lat="42.97201333" lon="-0.32462833">
        <ele>1591.0</ele>
        <time>2019-07-07T10:42:49.805Z</time>
      </trkpt>
      <trkpt lat="42.97204" lon="-0.32462167">
        <ele>1592.0</ele>
        <time>2019-07-07T10:42:50.828Z</time>
      </trkpt>
      <trkpt lat="42.97204" lon="-0.32462167">
        <ele>1592.0</ele>
        <time>2019-07-07T10:42:51.834Z</time>
      </trkpt>
      <trkpt lat="42.97209167" lon="-0.32461333">
        <ele>1592.0</ele>
        <time>2019-07-07T10:42:52.807Z</time>
      </trkpt>
      <trkpt lat="42.97209167" lon="-0.32461333">
        <ele>1592.0</ele>
        <time>2019-07-07T10:42:53.833Z</time>
      </trkpt>
      <trkpt lat="42.972145" lon="-0.32461">
        <ele>1593.0</ele>
        <time>2019-07-07T10:42:54.805Z</time>
      </trkpt>
      <trkpt lat="42.972145" lon="-0.32461">
        <ele>1593.0</ele>
        <time>2019-07-07T10:42:55.834Z</time>
      </trkpt>
      <trkpt lat="42.97219667" lon="-0.324615">
        <ele>1594.0</ele>
        <time>2019-07-07T10:42:56.806Z</time>
      </trkpt>
      <trkpt lat="42.97219667" lon="-0.324615">
        <ele>1594.0</ele>
        <time>2019-07-07T10:42:57.823Z</time>
      </trkpt>
      <trkpt lat="42.97224833" lon="-0.32461833">
        <ele>1595.0</ele>
        <time>2019-07-07T10:42:58.838Z</time>
      </trkpt>
      <trkpt lat="42.97224833" lon="-0.32461833">
        <ele>1595.0</ele>
        <time>2019-07-07T10:42:59.818Z</time>
      </trkpt>
      <trkpt lat="42.97229333" lon="-0.32463167">
        <ele>1596.0</ele>
        <time>2019-07-07T10:43:00.809Z</time>
      </trkpt>
      <trkpt lat="42.972315" lon="-0.32464333">
        <ele>1596.0</ele>
        <time>2019-07-07T10:43:01.806Z</time>
      </trkpt>
      <trkpt lat="42.97233833" lon="-0.32466">
        <ele>1596.0</ele>
        <time>2019-07-07T10:43:02.842Z</time>
      </trkpt>
      <trkpt lat="42.97233833" lon="-0.32466">
        <ele>1596.0</ele>
        <time>2019-07-07T10:43:03.824Z</time>
      </trkpt>
      <trkpt lat="42.97238" lon="-0.32470167">
        <ele>1597.0</ele>
        <time>2019-07-07T10:43:04.841Z</time>
      </trkpt>
      <trkpt lat="42.97238" lon="-0.32470167">
        <ele>1597.0</ele>
        <time>2019-07-07T10:43:05.819Z</time>
      </trkpt>
      <trkpt lat="42.97242" lon="-0.32475167">
        <ele>1597.0</ele>
        <time>2019-07-07T10:43:06.832Z</time>
      </trkpt>
      <trkpt lat="42.97242" lon="-0.32475167">
        <ele>1597.0</ele>
        <time>2019-07-07T10:43:07.813Z</time>
      </trkpt>
      <trkpt lat="42.97245167" lon="-0.32481333">
        <ele>1598.0</ele>
        <time>2019-07-07T10:43:08.828Z</time>
      </trkpt>
      <trkpt lat="42.97246667" lon="-0.324845">
        <ele>1598.0</ele>
        <time>2019-07-07T10:43:09.841Z</time>
      </trkpt>
      <trkpt lat="42.97246667" lon="-0.324845">
        <ele>1598.0</ele>
        <time>2019-07-07T10:43:10.816Z</time>
      </trkpt>
      <trkpt lat="42.972495" lon="-0.324915">
        <ele>1599.0</ele>
        <time>2019-07-07T10:43:11.802Z</time>
      </trkpt>
      <trkpt lat="42.972495" lon="-0.324915">
        <ele>1599.0</ele>
        <time>2019-07-07T10:43:12.824Z</time>
      </trkpt>
      <trkpt lat="42.97251833" lon="-0.32499">
        <ele>1599.0</ele>
        <time>2019-07-07T10:43:13.840Z</time>
      </trkpt>
      <trkpt lat="42.97252833" lon="-0.32502667">
        <ele>1599.0</ele>
        <time>2019-07-07T10:43:14.833Z</time>
      </trkpt>
      <trkpt lat="42.97252833" lon="-0.32502667">
        <ele>1599.0</ele>
        <time>2019-07-07T10:43:15.829Z</time>
      </trkpt>
      <trkpt lat="42.972545" lon="-0.32510167">
        <ele>1600.0</ele>
        <time>2019-07-07T10:43:16.813Z</time>
      </trkpt>
      <trkpt lat="42.972545" lon="-0.32510167">
        <ele>1600.0</ele>
        <time>2019-07-07T10:43:17.833Z</time>
      </trkpt>
      <trkpt lat="42.97255333" lon="-0.32517333">
        <ele>1600.0</ele>
        <time>2019-07-07T10:43:18.808Z</time>
      </trkpt>
      <trkpt lat="42.97255333" lon="-0.32517333">
        <ele>1600.0</ele>
        <time>2019-07-07T10:43:19.801Z</time>
      </trkpt>
      <trkpt lat="42.97255167" lon="-0.32524833">
        <ele>1601.0</ele>
        <time>2019-07-07T10:43:20.826Z</time>
      </trkpt>
      <trkpt lat="42.97255167" lon="-0.32524833">
        <ele>1601.0</ele>
        <time>2019-07-07T10:43:21.834Z</time>
      </trkpt>
      <trkpt lat="42.97254167" lon="-0.325325">
        <ele>1601.0</ele>
        <time>2019-07-07T10:43:22.817Z</time>
      </trkpt>
      <trkpt lat="42.97254167" lon="-0.325325">
        <ele>1601.0</ele>
        <time>2019-07-07T10:43:23.812Z</time>
      </trkpt>
      <trkpt lat="42.97252667" lon="-0.32540333">
        <ele>1601.0</ele>
        <time>2019-07-07T10:43:24.823Z</time>
      </trkpt>
      <trkpt lat="42.97252667" lon="-0.32540333">
        <ele>1601.0</ele>
        <time>2019-07-07T10:43:25.807Z</time>
      </trkpt>
      <trkpt lat="42.97250333" lon="-0.32548">
        <ele>1602.0</ele>
        <time>2019-07-07T10:43:26.820Z</time>
      </trkpt>
      <trkpt lat="42.97250333" lon="-0.32548">
        <ele>1602.0</ele>
        <time>2019-07-07T10:43:27.834Z</time>
      </trkpt>
      <trkpt lat="42.97247333" lon="-0.32555333">
        <ele>1602.0</ele>
        <time>2019-07-07T10:43:28.809Z</time>
      </trkpt>
      <trkpt lat="42.97245667" lon="-0.32558833">
        <ele>1602.0</ele>
        <time>2019-07-07T10:43:29.806Z</time>
      </trkpt>
      <trkpt lat="42.97245667" lon="-0.32558833">
        <ele>1602.0</ele>
        <time>2019-07-07T10:43:30.816Z</time>
      </trkpt>
      <trkpt lat="42.97241667" lon="-0.32566167">
        <ele>1602.0</ele>
        <time>2019-07-07T10:43:31.830Z</time>
      </trkpt>
      <trkpt lat="42.97241667" lon="-0.32566167">
        <ele>1602.0</ele>
        <time>2019-07-07T10:43:32.815Z</time>
      </trkpt>
      <trkpt lat="42.97237167" lon="-0.32573">
        <ele>1602.0</ele>
        <time>2019-07-07T10:43:33.828Z</time>
      </trkpt>
      <trkpt lat="42.97237167" lon="-0.32573">
        <ele>1602.0</ele>
        <time>2019-07-07T10:43:34.834Z</time>
      </trkpt>
      <trkpt lat="42.97231833" lon="-0.32579333">
        <ele>1603.0</ele>
        <time>2019-07-07T10:43:35.830Z</time>
      </trkpt>
      <trkpt lat="42.97231833" lon="-0.32579333">
        <ele>1603.0</ele>
        <time>2019-07-07T10:43:36.826Z</time>
      </trkpt>
      <trkpt lat="42.97225833" lon="-0.32584833">
        <ele>1603.0</ele>
        <time>2019-07-07T10:43:37.842Z</time>
      </trkpt>
      <trkpt lat="42.97225833" lon="-0.32584833">
        <ele>1603.0</ele>
        <time>2019-07-07T10:43:38.836Z</time>
      </trkpt>
      <trkpt lat="42.97219667" lon="-0.32590167">
        <ele>1603.0</ele>
        <time>2019-07-07T10:43:39.809Z</time>
      </trkpt>
      <trkpt lat="42.97219667" lon="-0.32590167">
        <ele>1603.0</ele>
        <time>2019-07-07T10:43:40.813Z</time>
      </trkpt>
      <trkpt lat="42.97213" lon="-0.32595667">
        <ele>1603.0</ele>
        <time>2019-07-07T10:43:41.835Z</time>
      </trkpt>
      <trkpt lat="42.972095" lon="-0.32598333">
        <ele>1603.0</ele>
        <time>2019-07-07T10:43:42.807Z</time>
      </trkpt>
      <trkpt lat="42.972095" lon="-0.32598333">
        <ele>1603.0</ele>
        <time>2019-07-07T10:43:43.803Z</time>
      </trkpt>
      <trkpt lat="42.97202667" lon="-0.32603333">
        <ele>1603.0</ele>
        <time>2019-07-07T10:43:44.818Z</time>
      </trkpt>
      <trkpt lat="42.97202667" lon="-0.32603333">
        <ele>1603.0</ele>
        <time>2019-07-07T10:43:45.813Z</time>
      </trkpt>
      <trkpt lat="42.97195833" lon="-0.32609167">
        <ele>1603.0</ele>
        <time>2019-07-07T10:43:46.838Z</time>
      </trkpt>
      <trkpt lat="42.97195833" lon="-0.32609167">
        <ele>1603.0</ele>
        <time>2019-07-07T10:43:47.807Z</time>
      </trkpt>
      <trkpt lat="42.97189" lon="-0.326155">
        <ele>1603.0</ele>
        <time>2019-07-07T10:43:48.811Z</time>
      </trkpt>
      <trkpt lat="42.97189" lon="-0.326155">
        <ele>1603.0</ele>
        <time>2019-07-07T10:43:49.838Z</time>
      </trkpt>
      <trkpt lat="42.971825" lon="-0.32623">
        <ele>1602.0</ele>
        <time>2019-07-07T10:43:50.814Z</time>
      </trkpt>
      <trkpt lat="42.971825" lon="-0.32623">
        <ele>1602.0</ele>
        <time>2019-07-07T10:43:51.838Z</time>
      </trkpt>
      <trkpt lat="42.97176667" lon="-0.326315">
        <ele>1603.0</ele>
        <time>2019-07-07T10:43:52.814Z</time>
      </trkpt>
      <trkpt lat="42.97174167" lon="-0.32636167">
        <ele>1602.0</ele>
        <time>2019-07-07T10:43:53.828Z</time>
      </trkpt>
      <trkpt lat="42.97174167" lon="-0.32636167">
        <ele>1602.0</ele>
        <time>2019-07-07T10:43:54.834Z</time>
      </trkpt>
      <trkpt lat="42.97169333" lon="-0.32645667">
        <ele>1603.0</ele>
        <time>2019-07-07T10:43:55.810Z</time>
      </trkpt>
      <trkpt lat="42.97169333" lon="-0.32645667">
        <ele>1603.0</ele>
        <time>2019-07-07T10:43:56.812Z</time>
      </trkpt>
      <trkpt lat="42.971645" lon="-0.32654833">
        <ele>1603.0</ele>
        <time>2019-07-07T10:43:57.828Z</time>
      </trkpt>
      <trkpt lat="42.971645" lon="-0.32654833">
        <ele>1603.0</ele>
        <time>2019-07-07T10:43:58.833Z</time>
      </trkpt>
      <trkpt lat="42.97159" lon="-0.32663833">
        <ele>1603.0</ele>
        <time>2019-07-07T10:43:59.829Z</time>
      </trkpt>
      <trkpt lat="42.97159" lon="-0.32663833">
        <ele>1603.0</ele>
        <time>2019-07-07T10:44:00.823Z</time>
      </trkpt>
      <trkpt lat="42.97153167" lon="-0.32672667">
        <ele>1603.0</ele>
        <time>2019-07-07T10:44:01.841Z</time>
      </trkpt>
      <trkpt lat="42.97150167" lon="-0.32677">
        <ele>1603.0</ele>
        <time>2019-07-07T10:44:02.833Z</time>
      </trkpt>
      <trkpt lat="42.97150167" lon="-0.32677">
        <ele>1603.0</ele>
        <time>2019-07-07T10:44:03.813Z</time>
      </trkpt>
      <trkpt lat="42.971445" lon="-0.32686167">
        <ele>1603.0</ele>
        <time>2019-07-07T10:44:04.829Z</time>
      </trkpt>
      <trkpt lat="42.971445" lon="-0.32686167">
        <ele>1603.0</ele>
        <time>2019-07-07T10:44:05.823Z</time>
      </trkpt>
      <trkpt lat="42.97139333" lon="-0.32696">
        <ele>1603.0</ele>
        <time>2019-07-07T10:44:06.840Z</time>
      </trkpt>
      <trkpt lat="42.97139333" lon="-0.32696">
        <ele>1603.0</ele>
        <time>2019-07-07T10:44:07.833Z</time>
      </trkpt>
      <trkpt lat="42.97135" lon="-0.32706667">
        <ele>1603.0</ele>
        <time>2019-07-07T10:44:08.808Z</time>
      </trkpt>
      <trkpt lat="42.97135" lon="-0.32706667">
        <ele>1603.0</ele>
        <time>2019-07-07T10:44:09.836Z</time>
      </trkpt>
      <trkpt lat="42.97130833" lon="-0.32717833">
        <ele>1603.0</ele>
        <time>2019-07-07T10:44:10.836Z</time>
      </trkpt>
      <trkpt lat="42.97130833" lon="-0.32717833">
        <ele>1603.0</ele>
        <time>2019-07-07T10:44:11.839Z</time>
      </trkpt>
      <trkpt lat="42.971275" lon="-0.32729333">
        <ele>1604.0</ele>
        <time>2019-07-07T10:44:12.817Z</time>
      </trkpt>
      <trkpt lat="42.971275" lon="-0.32729333">
        <ele>1604.0</ele>
        <time>2019-07-07T10:44:13.822Z</time>
      </trkpt>
      <trkpt lat="42.97124833" lon="-0.32740833">
        <ele>1604.0</ele>
        <time>2019-07-07T10:44:14.841Z</time>
      </trkpt>
      <trkpt lat="42.97124833" lon="-0.32740833">
        <ele>1604.0</ele>
        <time>2019-07-07T10:44:15.830Z</time>
      </trkpt>
      <trkpt lat="42.971245" lon="-0.32752833">
        <ele>1604.0</ele>
        <time>2019-07-07T10:44:16.809Z</time>
      </trkpt>
      <trkpt lat="42.971255" lon="-0.327585">
        <ele>1605.0</ele>
        <time>2019-07-07T10:44:17.812Z</time>
      </trkpt>
      <trkpt lat="42.971255" lon="-0.327585">
        <ele>1605.0</ele>
        <time>2019-07-07T10:44:18.813Z</time>
      </trkpt>
      <trkpt lat="42.97129167" lon="-0.32769">
        <ele>1605.0</ele>
        <time>2019-07-07T10:44:19.830Z</time>
      </trkpt>
      <trkpt lat="42.97129167" lon="-0.32769">
        <ele>1605.0</ele>
        <time>2019-07-07T10:44:20.821Z</time>
      </trkpt>
      <trkpt lat="42.97134167" lon="-0.32777833">
        <ele>1605.0</ele>
        <time>2019-07-07T10:44:21.835Z</time>
      </trkpt>
      <trkpt lat="42.97134167" lon="-0.32777833">
        <ele>1605.0</ele>
        <time>2019-07-07T10:44:22.814Z</time>
      </trkpt>
      <trkpt lat="42.9714" lon="-0.327855">
        <ele>1606.0</ele>
        <time>2019-07-07T10:44:23.818Z</time>
      </trkpt>
      <trkpt lat="42.97143" lon="-0.32788833">
        <ele>1606.0</ele>
        <time>2019-07-07T10:44:24.806Z</time>
      </trkpt>
      <trkpt lat="42.97143" lon="-0.32788833">
        <ele>1606.0</ele>
        <time>2019-07-07T10:44:25.803Z</time>
      </trkpt>
      <trkpt lat="42.97148667" lon="-0.32795833">
        <ele>1606.0</ele>
        <time>2019-07-07T10:44:26.809Z</time>
      </trkpt>
      <trkpt lat="42.97148667" lon="-0.32795833">
        <ele>1606.0</ele>
        <time>2019-07-07T10:44:27.833Z</time>
      </trkpt>
      <trkpt lat="42.971535" lon="-0.32803">
        <ele>1607.0</ele>
        <time>2019-07-07T10:44:28.810Z</time>
      </trkpt>
      <trkpt lat="42.97155833" lon="-0.32807">
        <ele>1607.0</ele>
        <time>2019-07-07T10:44:29.828Z</time>
      </trkpt>
      <trkpt lat="42.97155833" lon="-0.32807">
        <ele>1607.0</ele>
        <time>2019-07-07T10:44:30.804Z</time>
      </trkpt>
      <trkpt lat="42.9716" lon="-0.32815833">
        <ele>1608.0</ele>
        <time>2019-07-07T10:44:31.808Z</time>
      </trkpt>
      <trkpt lat="42.97161167" lon="-0.328205">
        <ele>1609.0</ele>
        <time>2019-07-07T10:44:32.821Z</time>
      </trkpt>
      <trkpt lat="42.97161667" lon="-0.32825667">
        <ele>1609.0</ele>
        <time>2019-07-07T10:44:33.838Z</time>
      </trkpt>
      <trkpt lat="42.97161667" lon="-0.32825667">
        <ele>1609.0</ele>
        <time>2019-07-07T10:44:34.803Z</time>
      </trkpt>
      <trkpt lat="42.97160667" lon="-0.32835">
        <ele>1610.0</ele>
        <time>2019-07-07T10:44:35.817Z</time>
      </trkpt>
      <trkpt lat="42.97160667" lon="-0.32835">
        <ele>1610.0</ele>
        <time>2019-07-07T10:44:36.813Z</time>
      </trkpt>
      <trkpt lat="42.97158667" lon="-0.32844167">
        <ele>1610.0</ele>
        <time>2019-07-07T10:44:37.827Z</time>
      </trkpt>
      <trkpt lat="42.97157333" lon="-0.32848667">
        <ele>1611.0</ele>
        <time>2019-07-07T10:44:38.805Z</time>
      </trkpt>
      <trkpt lat="42.97157333" lon="-0.32848667">
        <ele>1611.0</ele>
        <time>2019-07-07T10:44:39.823Z</time>
      </trkpt>
      <trkpt lat="42.97154833" lon="-0.328585">
        <ele>1611.0</ele>
        <time>2019-07-07T10:44:40.811Z</time>
      </trkpt>
      <trkpt lat="42.97154833" lon="-0.328585">
        <ele>1611.0</ele>
        <time>2019-07-07T10:44:41.814Z</time>
      </trkpt>
      <trkpt lat="42.97153667" lon="-0.32869">
        <ele>1612.0</ele>
        <time>2019-07-07T10:44:42.831Z</time>
      </trkpt>
      <trkpt lat="42.97153667" lon="-0.32869">
        <ele>1612.0</ele>
        <time>2019-07-07T10:44:43.803Z</time>
      </trkpt>
      <trkpt lat="42.971535" lon="-0.32879">
        <ele>1612.0</ele>
        <time>2019-07-07T10:44:44.837Z</time>
      </trkpt>
      <trkpt lat="42.971535" lon="-0.32879">
        <ele>1612.0</ele>
        <time>2019-07-07T10:44:45.830Z</time>
      </trkpt>
      <trkpt lat="42.97154167" lon="-0.32887833">
        <ele>1613.0</ele>
        <time>2019-07-07T10:44:46.809Z</time>
      </trkpt>
      <trkpt lat="42.97154167" lon="-0.32887833">
        <ele>1613.0</ele>
        <time>2019-07-07T10:44:47.806Z</time>
      </trkpt>
      <trkpt lat="42.97155167" lon="-0.32895167">
        <ele>1614.0</ele>
        <time>2019-07-07T10:44:48.828Z</time>
      </trkpt>
      <trkpt lat="42.97156" lon="-0.32899">
        <ele>1614.0</ele>
        <time>2019-07-07T10:44:49.841Z</time>
      </trkpt>
      <trkpt lat="42.97156" lon="-0.32899">
        <ele>1614.0</ele>
        <time>2019-07-07T10:44:50.823Z</time>
      </trkpt>
      <trkpt lat="42.97157333" lon="-0.32905333">
        <ele>1615.0</ele>
        <time>2019-07-07T10:44:51.841Z</time>
      </trkpt>
      <trkpt lat="42.97157333" lon="-0.32905333">
        <ele>1615.0</ele>
        <time>2019-07-07T10:44:52.832Z</time>
      </trkpt>
      <trkpt lat="42.97159833" lon="-0.32911833">
        <ele>1616.0</ele>
        <time>2019-07-07T10:44:53.809Z</time>
      </trkpt>
      <trkpt lat="42.97159833" lon="-0.32911833">
        <ele>1616.0</ele>
        <time>2019-07-07T10:44:54.814Z</time>
      </trkpt>
      <trkpt lat="42.97162167" lon="-0.32919667">
        <ele>1617.0</ele>
        <time>2019-07-07T10:44:55.824Z</time>
      </trkpt>
      <trkpt lat="42.97163" lon="-0.32923833">
        <ele>1617.0</ele>
        <time>2019-07-07T10:44:56.833Z</time>
      </trkpt>
      <trkpt lat="42.97163" lon="-0.32923833">
        <ele>1617.0</ele>
        <time>2019-07-07T10:44:57.804Z</time>
      </trkpt>
      <trkpt lat="42.97164" lon="-0.32932333">
        <ele>1617.0</ele>
        <time>2019-07-07T10:44:58.820Z</time>
      </trkpt>
      <trkpt lat="42.97164667" lon="-0.329365">
        <ele>1617.0</ele>
        <time>2019-07-07T10:44:59.816Z</time>
      </trkpt>
      <trkpt lat="42.97164667" lon="-0.329365">
        <ele>1617.0</ele>
        <time>2019-07-07T10:45:00.815Z</time>
      </trkpt>
      <trkpt lat="42.97166" lon="-0.32944833">
        <ele>1618.0</ele>
        <time>2019-07-07T10:45:01.832Z</time>
      </trkpt>
      <trkpt lat="42.97166667" lon="-0.32948833">
        <ele>1618.0</ele>
        <time>2019-07-07T10:45:02.829Z</time>
      </trkpt>
      <trkpt lat="42.97166667" lon="-0.32948833">
        <ele>1618.0</ele>
        <time>2019-07-07T10:45:03.836Z</time>
      </trkpt>
      <trkpt lat="42.97168167" lon="-0.32956">
        <ele>1619.0</ele>
        <time>2019-07-07T10:45:04.812Z</time>
      </trkpt>
      <trkpt lat="42.97168167" lon="-0.32956">
        <ele>1619.0</ele>
        <time>2019-07-07T10:45:05.833Z</time>
      </trkpt>
      <trkpt lat="42.97169833" lon="-0.329635">
        <ele>1619.0</ele>
        <time>2019-07-07T10:45:06.809Z</time>
      </trkpt>
      <trkpt lat="42.97170833" lon="-0.32967">
        <ele>1619.0</ele>
        <time>2019-07-07T10:45:07.829Z</time>
      </trkpt>
      <trkpt lat="42.97170833" lon="-0.32967">
        <ele>1619.0</ele>
        <time>2019-07-07T10:45:08.823Z</time>
      </trkpt>
      <trkpt lat="42.971725" lon="-0.32974667">
        <ele>1620.0</ele>
        <time>2019-07-07T10:45:09.840Z</time>
      </trkpt>
      <trkpt lat="42.971735" lon="-0.32978333">
        <ele>1620.0</ele>
        <time>2019-07-07T10:45:10.838Z</time>
      </trkpt>
      <trkpt lat="42.971735" lon="-0.32978333">
        <ele>1620.0</ele>
        <time>2019-07-07T10:45:11.802Z</time>
      </trkpt>
      <trkpt lat="42.97175167" lon="-0.32986">
        <ele>1620.0</ele>
        <time>2019-07-07T10:45:12.829Z</time>
      </trkpt>
      <trkpt lat="42.97175167" lon="-0.32986">
        <ele>1620.0</ele>
        <time>2019-07-07T10:45:13.833Z</time>
      </trkpt>
      <trkpt lat="42.97177" lon="-0.329935">
        <ele>1620.0</ele>
        <time>2019-07-07T10:45:14.810Z</time>
      </trkpt>
      <trkpt lat="42.97177" lon="-0.329935">
        <ele>1620.0</ele>
        <time>2019-07-07T10:45:15.803Z</time>
      </trkpt>
      <trkpt lat="42.97179167" lon="-0.33000833">
        <ele>1621.0</ele>
        <time>2019-07-07T10:45:16.817Z</time>
      </trkpt>
      <trkpt lat="42.97179167" lon="-0.33000833">
        <ele>1621.0</ele>
        <time>2019-07-07T10:45:17.813Z</time>
      </trkpt>
      <trkpt lat="42.97181667" lon="-0.330085">
        <ele>1621.0</ele>
        <time>2019-07-07T10:45:18.841Z</time>
      </trkpt>
      <trkpt lat="42.97181667" lon="-0.330085">
        <ele>1621.0</ele>
        <time>2019-07-07T10:45:19.821Z</time>
      </trkpt>
      <trkpt lat="42.97184833" lon="-0.33015833">
        <ele>1621.0</ele>
        <time>2019-07-07T10:45:20.813Z</time>
      </trkpt>
      <trkpt lat="42.97184833" lon="-0.33015833">
        <ele>1621.0</ele>
        <time>2019-07-07T10:45:21.821Z</time>
      </trkpt>
      <trkpt lat="42.971885" lon="-0.33023">
        <ele>1622.0</ele>
        <time>2019-07-07T10:45:22.835Z</time>
      </trkpt>
      <trkpt lat="42.971885" lon="-0.33023">
        <ele>1622.0</ele>
        <time>2019-07-07T10:45:23.803Z</time>
      </trkpt>
      <trkpt lat="42.97192333" lon="-0.33028833">
        <ele>1622.0</ele>
        <time>2019-07-07T10:45:24.814Z</time>
      </trkpt>
      <trkpt lat="42.97192333" lon="-0.33028833">
        <ele>1622.0</ele>
        <time>2019-07-07T10:45:25.814Z</time>
      </trkpt>
      <trkpt lat="42.97195667" lon="-0.33034667">
        <ele>1622.0</ele>
        <time>2019-07-07T10:45:26.831Z</time>
      </trkpt>
      <trkpt lat="42.97195667" lon="-0.33034667">
        <ele>1622.0</ele>
        <time>2019-07-07T10:45:27.804Z</time>
      </trkpt>
      <trkpt lat="42.97198833" lon="-0.33040167">
        <ele>1623.0</ele>
        <time>2019-07-07T10:45:28.817Z</time>
      </trkpt>
      <trkpt lat="42.97200167" lon="-0.33043333">
        <ele>1624.0</ele>
        <time>2019-07-07T10:45:29.814Z</time>
      </trkpt>
      <trkpt lat="42.97200167" lon="-0.33043333">
        <ele>1624.0</ele>
        <time>2019-07-07T10:45:30.809Z</time>
      </trkpt>
      <trkpt lat="42.97202167" lon="-0.33048833">
        <ele>1624.0</ele>
        <time>2019-07-07T10:45:31.820Z</time>
      </trkpt>
      <trkpt lat="42.97202167" lon="-0.33048833">
        <ele>1624.0</ele>
        <time>2019-07-07T10:45:32.815Z</time>
      </trkpt>
      <trkpt lat="42.97204167" lon="-0.33054833">
        <ele>1625.0</ele>
        <time>2019-07-07T10:45:33.840Z</time>
      </trkpt>
      <trkpt lat="42.97204167" lon="-0.33054833">
        <ele>1625.0</ele>
        <time>2019-07-07T10:45:34.815Z</time>
      </trkpt>
      <trkpt lat="42.97206667" lon="-0.33059833">
        <ele>1626.0</ele>
        <time>2019-07-07T10:45:35.830Z</time>
      </trkpt>
      <trkpt lat="42.97206667" lon="-0.33059833">
        <ele>1626.0</ele>
        <time>2019-07-07T10:45:36.803Z</time>
      </trkpt>
      <trkpt lat="42.97209" lon="-0.33064167">
        <ele>1626.0</ele>
        <time>2019-07-07T10:45:37.821Z</time>
      </trkpt>
      <trkpt lat="42.97209" lon="-0.33064167">
        <ele>1626.0</ele>
        <time>2019-07-07T10:45:38.834Z</time>
      </trkpt>
      <trkpt lat="42.97211667" lon="-0.33070333">
        <ele>1627.0</ele>
        <time>2019-07-07T10:45:39.812Z</time>
      </trkpt>
      <trkpt lat="42.97211667" lon="-0.33070333">
        <ele>1627.0</ele>
        <time>2019-07-07T10:45:40.811Z</time>
      </trkpt>
      <trkpt lat="42.97215" lon="-0.33076">
        <ele>1627.0</ele>
        <time>2019-07-07T10:45:41.830Z</time>
      </trkpt>
      <trkpt lat="42.97216833" lon="-0.330785">
        <ele>1627.0</ele>
        <time>2019-07-07T10:45:42.806Z</time>
      </trkpt>
      <trkpt lat="42.97216833" lon="-0.330785">
        <ele>1627.0</ele>
        <time>2019-07-07T10:45:43.823Z</time>
      </trkpt>
      <trkpt lat="42.97220833" lon="-0.33083333">
        <ele>1627.0</ele>
        <time>2019-07-07T10:45:44.803Z</time>
      </trkpt>
      <trkpt lat="42.97220833" lon="-0.33083333">
        <ele>1627.0</ele>
        <time>2019-07-07T10:45:45.823Z</time>
      </trkpt>
      <trkpt lat="42.972245" lon="-0.33088333">
        <ele>1628.0</ele>
        <time>2019-07-07T10:45:46.841Z</time>
      </trkpt>
      <trkpt lat="42.972245" lon="-0.33088333">
        <ele>1628.0</ele>
        <time>2019-07-07T10:45:47.812Z</time>
      </trkpt>
      <trkpt lat="42.97227167" lon="-0.33094333">
        <ele>1628.0</ele>
        <time>2019-07-07T10:45:48.806Z</time>
      </trkpt>
      <trkpt lat="42.97227167" lon="-0.33094333">
        <ele>1628.0</ele>
        <time>2019-07-07T10:45:49.833Z</time>
      </trkpt>
      <trkpt lat="42.97229333" lon="-0.331015">
        <ele>1628.0</ele>
        <time>2019-07-07T10:45:50.807Z</time>
      </trkpt>
      <trkpt lat="42.97229333" lon="-0.331015">
        <ele>1628.0</ele>
        <time>2019-07-07T10:45:51.833Z</time>
      </trkpt>
      <trkpt lat="42.97231" lon="-0.331085">
        <ele>1629.0</ele>
        <time>2019-07-07T10:45:52.807Z</time>
      </trkpt>
      <trkpt lat="42.97231" lon="-0.331085">
        <ele>1629.0</ele>
        <time>2019-07-07T10:45:53.833Z</time>
      </trkpt>
      <trkpt lat="42.97231667" lon="-0.33115">
        <ele>1629.0</ele>
        <time>2019-07-07T10:45:54.801Z</time>
      </trkpt>
      <trkpt lat="42.97231667" lon="-0.33115">
        <ele>1629.0</ele>
        <time>2019-07-07T10:45:55.813Z</time>
      </trkpt>
      <trkpt lat="42.97231167" lon="-0.331205">
        <ele>1630.0</ele>
        <time>2019-07-07T10:45:56.828Z</time>
      </trkpt>
      <trkpt lat="42.97231167" lon="-0.331205">
        <ele>1630.0</ele>
        <time>2019-07-07T10:45:57.814Z</time>
      </trkpt>
      <trkpt lat="42.97230167" lon="-0.331265">
        <ele>1630.0</ele>
        <time>2019-07-07T10:45:58.827Z</time>
      </trkpt>
      <trkpt lat="42.972295" lon="-0.331295">
        <ele>1630.0</ele>
        <time>2019-07-07T10:45:59.808Z</time>
      </trkpt>
      <trkpt lat="42.972295" lon="-0.331295">
        <ele>1630.0</ele>
        <time>2019-07-07T10:46:00.833Z</time>
      </trkpt>
      <trkpt lat="42.97227833" lon="-0.33135667">
        <ele>1631.0</ele>
        <time>2019-07-07T10:46:01.808Z</time>
      </trkpt>
      <trkpt lat="42.97227833" lon="-0.33135667">
        <ele>1631.0</ele>
        <time>2019-07-07T10:46:02.823Z</time>
      </trkpt>
      <trkpt lat="42.97226" lon="-0.33142333">
        <ele>1631.0</ele>
        <time>2019-07-07T10:46:03.841Z</time>
      </trkpt>
      <trkpt lat="42.97226" lon="-0.33142333">
        <ele>1631.0</ele>
        <time>2019-07-07T10:46:04.815Z</time>
      </trkpt>
      <trkpt lat="42.972245" lon="-0.33148667">
        <ele>1632.0</ele>
        <time>2019-07-07T10:46:05.831Z</time>
      </trkpt>
      <trkpt lat="42.972245" lon="-0.33148667">
        <ele>1632.0</ele>
        <time>2019-07-07T10:46:06.809Z</time>
      </trkpt>
      <trkpt lat="42.97223167" lon="-0.33155167">
        <ele>1632.0</ele>
        <time>2019-07-07T10:46:07.827Z</time>
      </trkpt>
      <trkpt lat="42.97222667" lon="-0.33158667">
        <ele>1632.0</ele>
        <time>2019-07-07T10:46:08.834Z</time>
      </trkpt>
      <trkpt lat="42.97222" lon="-0.33162167">
        <ele>1633.0</ele>
        <time>2019-07-07T10:46:09.809Z</time>
      </trkpt>
      <trkpt lat="42.97222" lon="-0.33162167">
        <ele>1633.0</ele>
        <time>2019-07-07T10:46:10.832Z</time>
      </trkpt>
      <trkpt lat="42.97222" lon="-0.33168833">
        <ele>1633.0</ele>
        <time>2019-07-07T10:46:11.807Z</time>
      </trkpt>
      <trkpt lat="42.97222" lon="-0.33168833">
        <ele>1633.0</ele>
        <time>2019-07-07T10:46:12.806Z</time>
      </trkpt>
      <trkpt lat="42.97222333" lon="-0.33176">
        <ele>1634.0</ele>
        <time>2019-07-07T10:46:13.824Z</time>
      </trkpt>
      <trkpt lat="42.97222333" lon="-0.33176">
        <ele>1634.0</ele>
        <time>2019-07-07T10:46:14.823Z</time>
      </trkpt>
      <trkpt lat="42.97223667" lon="-0.331835">
        <ele>1635.0</ele>
        <time>2019-07-07T10:46:15.801Z</time>
      </trkpt>
      <trkpt lat="42.97224667" lon="-0.33187167">
        <ele>1635.0</ele>
        <time>2019-07-07T10:46:16.840Z</time>
      </trkpt>
      <trkpt lat="42.97224667" lon="-0.33187167">
        <ele>1635.0</ele>
        <time>2019-07-07T10:46:17.834Z</time>
      </trkpt>
      <trkpt lat="42.97228" lon="-0.33193167">
        <ele>1636.0</ele>
        <time>2019-07-07T10:46:18.809Z</time>
      </trkpt>
      <trkpt lat="42.97228" lon="-0.33193167">
        <ele>1636.0</ele>
        <time>2019-07-07T10:46:19.840Z</time>
      </trkpt>
      <trkpt lat="42.97232333" lon="-0.33197">
        <ele>1636.0</ele>
        <time>2019-07-07T10:46:20.819Z</time>
      </trkpt>
      <trkpt lat="42.97232333" lon="-0.33197">
        <ele>1636.0</ele>
        <time>2019-07-07T10:46:21.834Z</time>
      </trkpt>
      <trkpt lat="42.97237167" lon="-0.33199">
        <ele>1637.0</ele>
        <time>2019-07-07T10:46:22.816Z</time>
      </trkpt>
      <trkpt lat="42.97237167" lon="-0.33199">
        <ele>1637.0</ele>
        <time>2019-07-07T10:46:23.834Z</time>
      </trkpt>
      <trkpt lat="42.97242333" lon="-0.33199">
        <ele>1638.0</ele>
        <time>2019-07-07T10:46:24.806Z</time>
      </trkpt>
      <trkpt lat="42.97245" lon="-0.33198333">
        <ele>1638.0</ele>
        <time>2019-07-07T10:46:25.820Z</time>
      </trkpt>
      <trkpt lat="42.972475" lon="-0.33198">
        <ele>1638.0</ele>
        <time>2019-07-07T10:46:26.824Z</time>
      </trkpt>
      <trkpt lat="42.972475" lon="-0.33198">
        <ele>1638.0</ele>
        <time>2019-07-07T10:46:27.815Z</time>
      </trkpt>
      <trkpt lat="42.97252667" lon="-0.33196167">
        <ele>1639.0</ele>
        <time>2019-07-07T10:46:28.826Z</time>
      </trkpt>
      <trkpt lat="42.97252667" lon="-0.33196167">
        <ele>1639.0</ele>
        <time>2019-07-07T10:46:29.837Z</time>
      </trkpt>
      <trkpt lat="42.97257667" lon="-0.331945">
        <ele>1640.0</ele>
        <time>2019-07-07T10:46:30.811Z</time>
      </trkpt>
      <trkpt lat="42.97257667" lon="-0.331945">
        <ele>1640.0</ele>
        <time>2019-07-07T10:46:31.839Z</time>
      </trkpt>
      <trkpt lat="42.97262667" lon="-0.331935">
        <ele>1640.0</ele>
        <time>2019-07-07T10:46:32.812Z</time>
      </trkpt>
      <trkpt lat="42.97262667" lon="-0.331935">
        <ele>1640.0</ele>
        <time>2019-07-07T10:46:33.839Z</time>
      </trkpt>
      <trkpt lat="42.97267833" lon="-0.33192833">
        <ele>1641.0</ele>
        <time>2019-07-07T10:46:34.819Z</time>
      </trkpt>
      <trkpt lat="42.972705" lon="-0.33192333">
        <ele>1641.0</ele>
        <time>2019-07-07T10:46:35.837Z</time>
      </trkpt>
      <trkpt lat="42.972705" lon="-0.33192333">
        <ele>1641.0</ele>
        <time>2019-07-07T10:46:36.833Z</time>
      </trkpt>
      <trkpt lat="42.97275667" lon="-0.33191833">
        <ele>1642.0</ele>
        <time>2019-07-07T10:46:37.813Z</time>
      </trkpt>
      <trkpt lat="42.97278333" lon="-0.33191667">
        <ele>1642.0</ele>
        <time>2019-07-07T10:46:38.841Z</time>
      </trkpt>
      <trkpt lat="42.97280667" lon="-0.33191667">
        <ele>1643.0</ele>
        <time>2019-07-07T10:46:39.808Z</time>
      </trkpt>
      <trkpt lat="42.97280667" lon="-0.33191667">
        <ele>1643.0</ele>
        <time>2019-07-07T10:46:40.803Z</time>
      </trkpt>
      <trkpt lat="42.97285833" lon="-0.33192">
        <ele>1643.0</ele>
        <time>2019-07-07T10:46:41.827Z</time>
      </trkpt>
      <trkpt lat="42.97285833" lon="-0.33192">
        <ele>1643.0</ele>
        <time>2019-07-07T10:46:42.833Z</time>
      </trkpt>
      <trkpt lat="42.97291" lon="-0.33192333">
        <ele>1644.0</ele>
        <time>2019-07-07T10:46:43.809Z</time>
      </trkpt>
      <trkpt lat="42.97293667" lon="-0.33192667">
        <ele>1644.0</ele>
        <time>2019-07-07T10:46:44.809Z</time>
      </trkpt>
      <trkpt lat="42.97293667" lon="-0.33192667">
        <ele>1644.0</ele>
        <time>2019-07-07T10:46:45.813Z</time>
      </trkpt>
      <trkpt lat="42.97298833" lon="-0.33193333">
        <ele>1644.0</ele>
        <time>2019-07-07T10:46:46.831Z</time>
      </trkpt>
      <trkpt lat="42.97298833" lon="-0.33193333">
        <ele>1644.0</ele>
        <time>2019-07-07T10:46:47.809Z</time>
      </trkpt>
      <trkpt lat="42.97304" lon="-0.33194333">
        <ele>1645.0</ele>
        <time>2019-07-07T10:46:48.817Z</time>
      </trkpt>
      <trkpt lat="42.97306667" lon="-0.33195">
        <ele>1645.0</ele>
        <time>2019-07-07T10:46:49.837Z</time>
      </trkpt>
      <trkpt lat="42.97306667" lon="-0.33195">
        <ele>1645.0</ele>
        <time>2019-07-07T10:46:50.824Z</time>
      </trkpt>
      <trkpt lat="42.97311667" lon="-0.33196333">
        <ele>1646.0</ele>
        <time>2019-07-07T10:46:51.841Z</time>
      </trkpt>
      <trkpt lat="42.97311667" lon="-0.33196333">
        <ele>1646.0</ele>
        <time>2019-07-07T10:46:52.840Z</time>
      </trkpt>
      <trkpt lat="42.97316667" lon="-0.33197833">
        <ele>1646.0</ele>
        <time>2019-07-07T10:46:53.817Z</time>
      </trkpt>
      <trkpt lat="42.97319333" lon="-0.33198667">
        <ele>1646.0</ele>
        <time>2019-07-07T10:46:54.827Z</time>
      </trkpt>
      <trkpt lat="42.97321833" lon="-0.33199833">
        <ele>1647.0</ele>
        <time>2019-07-07T10:46:55.827Z</time>
      </trkpt>
      <trkpt lat="42.97321833" lon="-0.33199833">
        <ele>1647.0</ele>
        <time>2019-07-07T10:46:56.815Z</time>
      </trkpt>
      <trkpt lat="42.97326833" lon="-0.33201667">
        <ele>1647.0</ele>
        <time>2019-07-07T10:46:57.831Z</time>
      </trkpt>
      <trkpt lat="42.97326833" lon="-0.33201667">
        <ele>1647.0</ele>
        <time>2019-07-07T10:46:58.803Z</time>
      </trkpt>
      <trkpt lat="42.97331833" lon="-0.33204167">
        <ele>1647.0</ele>
        <time>2019-07-07T10:46:59.820Z</time>
      </trkpt>
      <trkpt lat="42.973345" lon="-0.33206">
        <ele>1647.0</ele>
        <time>2019-07-07T10:47:00.831Z</time>
      </trkpt>
      <trkpt lat="42.973345" lon="-0.33206">
        <ele>1647.0</ele>
        <time>2019-07-07T10:47:01.836Z</time>
      </trkpt>
      <trkpt lat="42.97339333" lon="-0.33209667">
        <ele>1648.0</ele>
        <time>2019-07-07T10:47:02.802Z</time>
      </trkpt>
      <trkpt lat="42.97339333" lon="-0.33209667">
        <ele>1648.0</ele>
        <time>2019-07-07T10:47:03.816Z</time>
      </trkpt>
      <trkpt lat="42.973445" lon="-0.33212667">
        <ele>1648.0</ele>
        <time>2019-07-07T10:47:04.839Z</time>
      </trkpt>
      <trkpt lat="42.973445" lon="-0.33212667">
        <ele>1648.0</ele>
        <time>2019-07-07T10:47:05.814Z</time>
      </trkpt>
      <trkpt lat="42.973495" lon="-0.33217167">
        <ele>1648.0</ele>
        <time>2019-07-07T10:47:06.826Z</time>
      </trkpt>
      <trkpt lat="42.973495" lon="-0.33217167">
        <ele>1648.0</ele>
        <time>2019-07-07T10:47:07.813Z</time>
      </trkpt>
      <trkpt lat="42.97354333" lon="-0.33221833">
        <ele>1648.0</ele>
        <time>2019-07-07T10:47:08.828Z</time>
      </trkpt>
      <trkpt lat="42.97357" lon="-0.33224">
        <ele>1649.0</ele>
        <time>2019-07-07T10:47:09.824Z</time>
      </trkpt>
      <trkpt lat="42.97357" lon="-0.33224">
        <ele>1649.0</ele>
        <time>2019-07-07T10:47:10.834Z</time>
      </trkpt>
      <trkpt lat="42.97362167" lon="-0.33229">
        <ele>1649.0</ele>
        <time>2019-07-07T10:47:11.810Z</time>
      </trkpt>
      <trkpt lat="42.97362167" lon="-0.33229">
        <ele>1649.0</ele>
        <time>2019-07-07T10:47:12.801Z</time>
      </trkpt>
      <trkpt lat="42.97367667" lon="-0.33234">
        <ele>1649.0</ele>
        <time>2019-07-07T10:47:13.818Z</time>
      </trkpt>
      <trkpt lat="42.97370333" lon="-0.33236667">
        <ele>1649.0</ele>
        <time>2019-07-07T10:47:14.804Z</time>
      </trkpt>
      <trkpt lat="42.97370333" lon="-0.33236667">
        <ele>1649.0</ele>
        <time>2019-07-07T10:47:15.823Z</time>
      </trkpt>
      <trkpt lat="42.97375667" lon="-0.33242167">
        <ele>1650.0</ele>
        <time>2019-07-07T10:47:16.839Z</time>
      </trkpt>
      <trkpt lat="42.97375667" lon="-0.33242167">
        <ele>1650.0</ele>
        <time>2019-07-07T10:47:17.817Z</time>
      </trkpt>
      <trkpt lat="42.97380333" lon="-0.33247833">
        <ele>1650.0</ele>
        <time>2019-07-07T10:47:18.835Z</time>
      </trkpt>
      <trkpt lat="42.97382833" lon="-0.332505">
        <ele>1650.0</ele>
        <time>2019-07-07T10:47:19.817Z</time>
      </trkpt>
      <trkpt lat="42.97382833" lon="-0.332505">
        <ele>1650.0</ele>
        <time>2019-07-07T10:47:20.833Z</time>
      </trkpt>
      <trkpt lat="42.97387667" lon="-0.33255667">
        <ele>1650.0</ele>
        <time>2019-07-07T10:47:21.808Z</time>
      </trkpt>
      <trkpt lat="42.97390167" lon="-0.33258167">
        <ele>1651.0</ele>
        <time>2019-07-07T10:47:22.828Z</time>
      </trkpt>
      <trkpt lat="42.973925" lon="-0.332605">
        <ele>1651.0</ele>
        <time>2019-07-07T10:47:23.838Z</time>
      </trkpt>
      <trkpt lat="42.973925" lon="-0.332605">
        <ele>1651.0</ele>
        <time>2019-07-07T10:47:24.822Z</time>
      </trkpt>
      <trkpt lat="42.97397" lon="-0.332665">
        <ele>1651.0</ele>
        <time>2019-07-07T10:47:25.837Z</time>
      </trkpt>
      <trkpt lat="42.97399167" lon="-0.33269667">
        <ele>1651.0</ele>
        <time>2019-07-07T10:47:26.838Z</time>
      </trkpt>
      <trkpt lat="42.97399167" lon="-0.33269667">
        <ele>1651.0</ele>
        <time>2019-07-07T10:47:27.838Z</time>
      </trkpt>
      <trkpt lat="42.97403833" lon="-0.33276333">
        <ele>1652.0</ele>
        <time>2019-07-07T10:47:28.819Z</time>
      </trkpt>
      <trkpt lat="42.97403833" lon="-0.33276333">
        <ele>1652.0</ele>
        <time>2019-07-07T10:47:29.835Z</time>
      </trkpt>
      <trkpt lat="42.97407333" lon="-0.33283667">
        <ele>1652.0</ele>
        <time>2019-07-07T10:47:30.809Z</time>
      </trkpt>
      <trkpt lat="42.97409" lon="-0.33287333">
        <ele>1652.0</ele>
        <time>2019-07-07T10:47:31.832Z</time>
      </trkpt>
      <trkpt lat="42.97409" lon="-0.33287333">
        <ele>1652.0</ele>
        <time>2019-07-07T10:47:32.823Z</time>
      </trkpt>
      <trkpt lat="42.97411833" lon="-0.33294667">
        <ele>1652.0</ele>
        <time>2019-07-07T10:47:33.838Z</time>
      </trkpt>
      <trkpt lat="42.97411833" lon="-0.33294667">
        <ele>1652.0</ele>
        <time>2019-07-07T10:47:34.832Z</time>
      </trkpt>
      <trkpt lat="42.97415" lon="-0.333015">
        <ele>1653.0</ele>
        <time>2019-07-07T10:47:35.810Z</time>
      </trkpt>
      <trkpt lat="42.97415" lon="-0.333015">
        <ele>1653.0</ele>
        <time>2019-07-07T10:47:36.815Z</time>
      </trkpt>
      <trkpt lat="42.974175" lon="-0.33308167">
        <ele>1654.0</ele>
        <time>2019-07-07T10:47:37.832Z</time>
      </trkpt>
      <trkpt lat="42.974185" lon="-0.333115">
        <ele>1654.0</ele>
        <time>2019-07-07T10:47:38.830Z</time>
      </trkpt>
      <trkpt lat="42.97419333" lon="-0.33315">
        <ele>1654.0</ele>
        <time>2019-07-07T10:47:39.837Z</time>
      </trkpt>
      <trkpt lat="42.97419333" lon="-0.33315">
        <ele>1654.0</ele>
        <time>2019-07-07T10:47:40.834Z</time>
      </trkpt>
      <trkpt lat="42.974215" lon="-0.33322">
        <ele>1655.0</ele>
        <time>2019-07-07T10:47:41.809Z</time>
      </trkpt>
      <trkpt lat="42.974215" lon="-0.33322">
        <ele>1655.0</ele>
        <time>2019-07-07T10:47:42.804Z</time>
      </trkpt>
      <trkpt lat="42.97423667" lon="-0.33328833">
        <ele>1655.0</ele>
        <time>2019-07-07T10:47:43.820Z</time>
      </trkpt>
      <trkpt lat="42.97424667" lon="-0.33332167">
        <ele>1656.0</ele>
        <time>2019-07-07T10:47:44.834Z</time>
      </trkpt>
      <trkpt lat="42.97424667" lon="-0.33332167">
        <ele>1656.0</ele>
        <time>2019-07-07T10:47:45.833Z</time>
      </trkpt>
      <trkpt lat="42.97426833" lon="-0.33339">
        <ele>1656.0</ele>
        <time>2019-07-07T10:47:46.813Z</time>
      </trkpt>
      <trkpt lat="42.97426833" lon="-0.33339">
        <ele>1656.0</ele>
        <time>2019-07-07T10:47:47.806Z</time>
      </trkpt>
      <trkpt lat="42.97428667" lon="-0.33346">
        <ele>1656.0</ele>
        <time>2019-07-07T10:47:48.807Z</time>
      </trkpt>
      <trkpt lat="42.97429833" lon="-0.333495">
        <ele>1656.0</ele>
        <time>2019-07-07T10:47:49.841Z</time>
      </trkpt>
      <trkpt lat="42.97429833" lon="-0.333495">
        <ele>1656.0</ele>
        <time>2019-07-07T10:47:50.815Z</time>
      </trkpt>
      <trkpt lat="42.97432667" lon="-0.33356167">
        <ele>1657.0</ele>
        <time>2019-07-07T10:47:51.834Z</time>
      </trkpt>
      <trkpt lat="42.97432667" lon="-0.33356167">
        <ele>1657.0</ele>
        <time>2019-07-07T10:47:52.833Z</time>
      </trkpt>
      <trkpt lat="42.97435167" lon="-0.33363">
        <ele>1657.0</ele>
        <time>2019-07-07T10:47:53.807Z</time>
      </trkpt>
      <trkpt lat="42.97435167" lon="-0.33363">
        <ele>1657.0</ele>
        <time>2019-07-07T10:47:54.816Z</time>
      </trkpt>
      <trkpt lat="42.974375" lon="-0.33369833">
        <ele>1658.0</ele>
        <time>2019-07-07T10:47:55.828Z</time>
      </trkpt>
      <trkpt lat="42.97438667" lon="-0.333735">
        <ele>1658.0</ele>
        <time>2019-07-07T10:47:56.840Z</time>
      </trkpt>
      <trkpt lat="42.97438667" lon="-0.333735">
        <ele>1658.0</ele>
        <time>2019-07-07T10:47:57.805Z</time>
      </trkpt>
      <trkpt lat="42.97440667" lon="-0.33380333">
        <ele>1658.0</ele>
        <time>2019-07-07T10:47:58.819Z</time>
      </trkpt>
      <trkpt lat="42.974415" lon="-0.333845">
        <ele>1658.0</ele>
        <time>2019-07-07T10:47:59.802Z</time>
      </trkpt>
      <trkpt lat="42.974415" lon="-0.333845">
        <ele>1658.0</ele>
        <time>2019-07-07T10:48:00.818Z</time>
      </trkpt>
      <trkpt lat="42.97443667" lon="-0.33391333">
        <ele>1659.0</ele>
        <time>2019-07-07T10:48:01.832Z</time>
      </trkpt>
      <trkpt lat="42.97445" lon="-0.333945">
        <ele>1659.0</ele>
        <time>2019-07-07T10:48:02.824Z</time>
      </trkpt>
      <trkpt lat="42.97445" lon="-0.333945">
        <ele>1659.0</ele>
        <time>2019-07-07T10:48:03.814Z</time>
      </trkpt>
      <trkpt lat="42.974475" lon="-0.33401167">
        <ele>1659.0</ele>
        <time>2019-07-07T10:48:04.831Z</time>
      </trkpt>
      <trkpt lat="42.974475" lon="-0.33401167">
        <ele>1659.0</ele>
        <time>2019-07-07T10:48:05.817Z</time>
      </trkpt>
      <trkpt lat="42.974505" lon="-0.33407167">
        <ele>1660.0</ele>
        <time>2019-07-07T10:48:06.830Z</time>
      </trkpt>
      <trkpt lat="42.97452167" lon="-0.33409833">
        <ele>1660.0</ele>
        <time>2019-07-07T10:48:07.843Z</time>
      </trkpt>
      <trkpt lat="42.97454" lon="-0.334125">
        <ele>1661.0</ele>
        <time>2019-07-07T10:48:08.831Z</time>
      </trkpt>
      <trkpt lat="42.97455833" lon="-0.33415">
        <ele>1661.0</ele>
        <time>2019-07-07T10:48:09.831Z</time>
      </trkpt>
      <trkpt lat="42.97455833" lon="-0.33415">
        <ele>1661.0</ele>
        <time>2019-07-07T10:48:10.836Z</time>
      </trkpt>
      <trkpt lat="42.9746" lon="-0.3342">
        <ele>1661.0</ele>
        <time>2019-07-07T10:48:11.817Z</time>
      </trkpt>
      <trkpt lat="42.9746" lon="-0.3342">
        <ele>1661.0</ele>
        <time>2019-07-07T10:48:12.826Z</time>
      </trkpt>
      <trkpt lat="42.97464167" lon="-0.334245">
        <ele>1662.0</ele>
        <time>2019-07-07T10:48:13.840Z</time>
      </trkpt>
      <trkpt lat="42.97466167" lon="-0.33427">
        <ele>1662.0</ele>
        <time>2019-07-07T10:48:14.824Z</time>
      </trkpt>
      <trkpt lat="42.97466167" lon="-0.33427">
        <ele>1662.0</ele>
        <time>2019-07-07T10:48:15.820Z</time>
      </trkpt>
      <trkpt lat="42.9747" lon="-0.33431833">
        <ele>1663.0</ele>
        <time>2019-07-07T10:48:16.807Z</time>
      </trkpt>
      <trkpt lat="42.9747" lon="-0.33431833">
        <ele>1663.0</ele>
        <time>2019-07-07T10:48:17.823Z</time>
      </trkpt>
      <trkpt lat="42.97474167" lon="-0.33436667">
        <ele>1664.0</ele>
        <time>2019-07-07T10:48:18.821Z</time>
      </trkpt>
      <trkpt lat="42.97474167" lon="-0.33436667">
        <ele>1664.0</ele>
        <time>2019-07-07T10:48:19.818Z</time>
      </trkpt>
      <trkpt lat="42.974785" lon="-0.33441667">
        <ele>1665.0</ele>
        <time>2019-07-07T10:48:20.821Z</time>
      </trkpt>
      <trkpt lat="42.974785" lon="-0.33441667">
        <ele>1665.0</ele>
        <time>2019-07-07T10:48:21.834Z</time>
      </trkpt>
      <trkpt lat="42.974825" lon="-0.334465">
        <ele>1665.0</ele>
        <time>2019-07-07T10:48:22.807Z</time>
      </trkpt>
      <trkpt lat="42.974825" lon="-0.334465">
        <ele>1665.0</ele>
        <time>2019-07-07T10:48:23.823Z</time>
      </trkpt>
      <trkpt lat="42.97486" lon="-0.33452">
        <ele>1666.0</ele>
        <time>2019-07-07T10:48:24.839Z</time>
      </trkpt>
      <trkpt lat="42.97486" lon="-0.33452">
        <ele>1666.0</ele>
        <time>2019-07-07T10:48:25.803Z</time>
      </trkpt>
      <trkpt lat="42.97489333" lon="-0.33457833">
        <ele>1666.0</ele>
        <time>2019-07-07T10:48:26.821Z</time>
      </trkpt>
      <trkpt lat="42.97489333" lon="-0.33457833">
        <ele>1666.0</ele>
        <time>2019-07-07T10:48:27.833Z</time>
      </trkpt>
      <trkpt lat="42.97492167" lon="-0.33464167">
        <ele>1666.0</ele>
        <time>2019-07-07T10:48:28.806Z</time>
      </trkpt>
      <trkpt lat="42.97492167" lon="-0.33464167">
        <ele>1666.0</ele>
        <time>2019-07-07T10:48:29.824Z</time>
      </trkpt>
      <trkpt lat="42.97494667" lon="-0.334705">
        <ele>1667.0</ele>
        <time>2019-07-07T10:48:30.812Z</time>
      </trkpt>
      <trkpt lat="42.97494667" lon="-0.334705">
        <ele>1667.0</ele>
        <time>2019-07-07T10:48:31.833Z</time>
      </trkpt>
      <trkpt lat="42.97497333" lon="-0.33477167">
        <ele>1668.0</ele>
        <time>2019-07-07T10:48:32.814Z</time>
      </trkpt>
      <trkpt lat="42.97497333" lon="-0.33477167">
        <ele>1668.0</ele>
        <time>2019-07-07T10:48:33.833Z</time>
      </trkpt>
      <trkpt lat="42.97499833" lon="-0.33483667">
        <ele>1668.0</ele>
        <time>2019-07-07T10:48:34.812Z</time>
      </trkpt>
      <trkpt lat="42.97499833" lon="-0.33483667">
        <ele>1668.0</ele>
        <time>2019-07-07T10:48:35.836Z</time>
      </trkpt>
      <trkpt lat="42.97501667" lon="-0.33490667">
        <ele>1669.0</ele>
        <time>2019-07-07T10:48:36.807Z</time>
      </trkpt>
      <trkpt lat="42.97502333" lon="-0.33494167">
        <ele>1669.0</ele>
        <time>2019-07-07T10:48:37.808Z</time>
      </trkpt>
      <trkpt lat="42.97502333" lon="-0.33494167">
        <ele>1669.0</ele>
        <time>2019-07-07T10:48:38.823Z</time>
      </trkpt>
      <trkpt lat="42.97504" lon="-0.335015">
        <ele>1669.0</ele>
        <time>2019-07-07T10:48:39.805Z</time>
      </trkpt>
      <trkpt lat="42.97504" lon="-0.335015">
        <ele>1669.0</ele>
        <time>2019-07-07T10:48:40.813Z</time>
      </trkpt>
      <trkpt lat="42.97505333" lon="-0.33508167">
        <ele>1670.0</ele>
        <time>2019-07-07T10:48:41.833Z</time>
      </trkpt>
      <trkpt lat="42.97506167" lon="-0.33511667">
        <ele>1670.0</ele>
        <time>2019-07-07T10:48:42.801Z</time>
      </trkpt>
      <trkpt lat="42.97506167" lon="-0.33511667">
        <ele>1670.0</ele>
        <time>2019-07-07T10:48:43.823Z</time>
      </trkpt>
      <trkpt lat="42.97507667" lon="-0.335185">
        <ele>1671.0</ele>
        <time>2019-07-07T10:48:44.834Z</time>
      </trkpt>
      <trkpt lat="42.97507667" lon="-0.335185">
        <ele>1671.0</ele>
        <time>2019-07-07T10:48:45.814Z</time>
      </trkpt>
      <trkpt lat="42.97509" lon="-0.33525167">
        <ele>1671.0</ele>
        <time>2019-07-07T10:48:46.826Z</time>
      </trkpt>
      <trkpt lat="42.97509" lon="-0.33525167">
        <ele>1671.0</ele>
        <time>2019-07-07T10:48:47.814Z</time>
      </trkpt>
      <trkpt lat="42.97510167" lon="-0.33531833">
        <ele>1672.0</ele>
        <time>2019-07-07T10:48:48.898Z</time>
      </trkpt>
      <trkpt lat="42.97510833" lon="-0.33535167">
        <ele>1672.0</ele>
        <time>2019-07-07T10:48:49.843Z</time>
      </trkpt>
      <trkpt lat="42.97510833" lon="-0.33535167">
        <ele>1672.0</ele>
        <time>2019-07-07T10:48:50.813Z</time>
      </trkpt>
      <trkpt lat="42.97512167" lon="-0.33541667">
        <ele>1673.0</ele>
        <time>2019-07-07T10:48:51.831Z</time>
      </trkpt>
      <trkpt lat="42.97512167" lon="-0.33541667">
        <ele>1673.0</ele>
        <time>2019-07-07T10:48:52.834Z</time>
      </trkpt>
      <trkpt lat="42.97513" lon="-0.33548833">
        <ele>1673.0</ele>
        <time>2019-07-07T10:48:53.809Z</time>
      </trkpt>
      <trkpt lat="42.97513" lon="-0.33548833">
        <ele>1673.0</ele>
        <time>2019-07-07T10:48:54.823Z</time>
      </trkpt>
      <trkpt lat="42.97514167" lon="-0.33556">
        <ele>1673.0</ele>
        <time>2019-07-07T10:48:55.801Z</time>
      </trkpt>
      <trkpt lat="42.97514167" lon="-0.33556">
        <ele>1673.0</ele>
        <time>2019-07-07T10:48:56.823Z</time>
      </trkpt>
      <trkpt lat="42.97515333" lon="-0.33563">
        <ele>1674.0</ele>
        <time>2019-07-07T10:48:57.841Z</time>
      </trkpt>
      <trkpt lat="42.97515667" lon="-0.33566667">
        <ele>1674.0</ele>
        <time>2019-07-07T10:48:58.806Z</time>
      </trkpt>
      <trkpt lat="42.97516333" lon="-0.335705">
        <ele>1674.0</ele>
        <time>2019-07-07T10:48:59.813Z</time>
      </trkpt>
      <trkpt lat="42.97516333" lon="-0.335705">
        <ele>1674.0</ele>
        <time>2019-07-07T10:49:00.822Z</time>
      </trkpt>
      <trkpt lat="42.97517167" lon="-0.33578">
        <ele>1675.0</ele>
        <time>2019-07-07T10:49:01.838Z</time>
      </trkpt>
      <trkpt lat="42.97517667" lon="-0.335815">
        <ele>1675.0</ele>
        <time>2019-07-07T10:49:02.807Z</time>
      </trkpt>
      <trkpt lat="42.97517667" lon="-0.335815">
        <ele>1675.0</ele>
        <time>2019-07-07T10:49:03.815Z</time>
      </trkpt>
      <trkpt lat="42.97518667" lon="-0.33588833">
        <ele>1676.0</ele>
        <time>2019-07-07T10:49:04.828Z</time>
      </trkpt>
      <trkpt lat="42.97519167" lon="-0.33591667">
        <ele>1676.0</ele>
        <time>2019-07-07T10:49:05.824Z</time>
      </trkpt>
      <trkpt lat="42.97519167" lon="-0.33591667">
        <ele>1676.0</ele>
        <time>2019-07-07T10:49:06.834Z</time>
      </trkpt>
      <trkpt lat="42.97520167" lon="-0.335985">
        <ele>1676.0</ele>
        <time>2019-07-07T10:49:07.830Z</time>
      </trkpt>
      <trkpt lat="42.97520667" lon="-0.33601667">
        <ele>1677.0</ele>
        <time>2019-07-07T10:49:08.808Z</time>
      </trkpt>
      <trkpt lat="42.97521167" lon="-0.33605167">
        <ele>1677.0</ele>
        <time>2019-07-07T10:49:09.820Z</time>
      </trkpt>
      <trkpt lat="42.97521167" lon="-0.33605167">
        <ele>1677.0</ele>
        <time>2019-07-07T10:49:10.823Z</time>
      </trkpt>
      <trkpt lat="42.97522" lon="-0.33612">
        <ele>1678.0</ele>
        <time>2019-07-07T10:49:11.836Z</time>
      </trkpt>
      <trkpt lat="42.97522" lon="-0.33612">
        <ele>1678.0</ele>
        <time>2019-07-07T10:49:12.803Z</time>
      </trkpt>
      <trkpt lat="42.97522833" lon="-0.336185">
        <ele>1678.0</ele>
        <time>2019-07-07T10:49:13.821Z</time>
      </trkpt>
      <trkpt lat="42.97522833" lon="-0.336185">
        <ele>1678.0</ele>
        <time>2019-07-07T10:49:14.817Z</time>
      </trkpt>
      <trkpt lat="42.97523333" lon="-0.336255">
        <ele>1679.0</ele>
        <time>2019-07-07T10:49:15.842Z</time>
      </trkpt>
      <trkpt lat="42.97523333" lon="-0.336255">
        <ele>1679.0</ele>
        <time>2019-07-07T10:49:16.803Z</time>
      </trkpt>
      <trkpt lat="42.975235" lon="-0.336325">
        <ele>1679.0</ele>
        <time>2019-07-07T10:49:17.833Z</time>
      </trkpt>
      <trkpt lat="42.975235" lon="-0.33636">
        <ele>1679.0</ele>
        <time>2019-07-07T10:49:18.823Z</time>
      </trkpt>
      <trkpt lat="42.975235" lon="-0.336395">
        <ele>1680.0</ele>
        <time>2019-07-07T10:49:19.842Z</time>
      </trkpt>
      <trkpt lat="42.975235" lon="-0.336395">
        <ele>1680.0</ele>
        <time>2019-07-07T10:49:20.802Z</time>
      </trkpt>
      <trkpt lat="42.97523167" lon="-0.33646833">
        <ele>1680.0</ele>
        <time>2019-07-07T10:49:21.816Z</time>
      </trkpt>
      <trkpt lat="42.97523167" lon="-0.33646833">
        <ele>1680.0</ele>
        <time>2019-07-07T10:49:22.814Z</time>
      </trkpt>
      <trkpt lat="42.97522833" lon="-0.33653833">
        <ele>1680.0</ele>
        <time>2019-07-07T10:49:23.825Z</time>
      </trkpt>
      <trkpt lat="42.975225" lon="-0.33657667">
        <ele>1680.0</ele>
        <time>2019-07-07T10:49:24.830Z</time>
      </trkpt>
      <trkpt lat="42.975225" lon="-0.33657667">
        <ele>1680.0</ele>
        <time>2019-07-07T10:49:25.833Z</time>
      </trkpt>
      <trkpt lat="42.97521833" lon="-0.33664667">
        <ele>1681.0</ele>
        <time>2019-07-07T10:49:26.808Z</time>
      </trkpt>
      <trkpt lat="42.97521833" lon="-0.33664667">
        <ele>1681.0</ele>
        <time>2019-07-07T10:49:27.816Z</time>
      </trkpt>
      <trkpt lat="42.97522" lon="-0.33671667">
        <ele>1682.0</ele>
        <time>2019-07-07T10:49:28.832Z</time>
      </trkpt>
      <trkpt lat="42.97522" lon="-0.33675">
        <ele>1682.0</ele>
        <time>2019-07-07T10:49:29.828Z</time>
      </trkpt>
      <trkpt lat="42.97522" lon="-0.33675">
        <ele>1682.0</ele>
        <time>2019-07-07T10:49:30.807Z</time>
      </trkpt>
      <trkpt lat="42.97523" lon="-0.33681333">
        <ele>1683.0</ele>
        <time>2019-07-07T10:49:31.832Z</time>
      </trkpt>
      <trkpt lat="42.975235" lon="-0.33684167">
        <ele>1683.0</ele>
        <time>2019-07-07T10:49:32.838Z</time>
      </trkpt>
      <trkpt lat="42.975235" lon="-0.33684167">
        <ele>1683.0</ele>
        <time>2019-07-07T10:49:33.816Z</time>
      </trkpt>
      <trkpt lat="42.97524333" lon="-0.33690667">
        <ele>1683.0</ele>
        <time>2019-07-07T10:49:34.831Z</time>
      </trkpt>
      <trkpt lat="42.97524333" lon="-0.33690667">
        <ele>1683.0</ele>
        <time>2019-07-07T10:49:35.823Z</time>
      </trkpt>
      <trkpt lat="42.97525667" lon="-0.33697167">
        <ele>1684.0</ele>
        <time>2019-07-07T10:49:36.839Z</time>
      </trkpt>
      <trkpt lat="42.97525667" lon="-0.33697167">
        <ele>1684.0</ele>
        <time>2019-07-07T10:49:37.803Z</time>
      </trkpt>
      <trkpt lat="42.97528333" lon="-0.33703167">
        <ele>1684.0</ele>
        <time>2019-07-07T10:49:38.820Z</time>
      </trkpt>
      <trkpt lat="42.97528333" lon="-0.33703167">
        <ele>1684.0</ele>
        <time>2019-07-07T10:49:39.832Z</time>
      </trkpt>
      <trkpt lat="42.97530333" lon="-0.33709833">
        <ele>1684.0</ele>
        <time>2019-07-07T10:49:40.825Z</time>
      </trkpt>
      <trkpt lat="42.97531667" lon="-0.33712667">
        <ele>1684.0</ele>
        <time>2019-07-07T10:49:41.817Z</time>
      </trkpt>
      <trkpt lat="42.97531667" lon="-0.33712667">
        <ele>1684.0</ele>
        <time>2019-07-07T10:49:42.834Z</time>
      </trkpt>
      <trkpt lat="42.975345" lon="-0.33717833">
        <ele>1685.0</ele>
        <time>2019-07-07T10:49:43.811Z</time>
      </trkpt>
      <trkpt lat="42.97536167" lon="-0.337205">
        <ele>1685.0</ele>
        <time>2019-07-07T10:49:44.811Z</time>
      </trkpt>
      <trkpt lat="42.97536167" lon="-0.337205">
        <ele>1685.0</ele>
        <time>2019-07-07T10:49:45.813Z</time>
      </trkpt>
      <trkpt lat="42.975395" lon="-0.33725667">
        <ele>1686.0</ele>
        <time>2019-07-07T10:49:46.829Z</time>
      </trkpt>
      <trkpt lat="42.975395" lon="-0.33725667">
        <ele>1686.0</ele>
        <time>2019-07-07T10:49:47.833Z</time>
      </trkpt>
      <trkpt lat="42.97543167" lon="-0.33730667">
        <ele>1686.0</ele>
        <time>2019-07-07T10:49:48.828Z</time>
      </trkpt>
      <trkpt lat="42.97545" lon="-0.33733">
        <ele>1686.0</ele>
        <time>2019-07-07T10:49:49.840Z</time>
      </trkpt>
      <trkpt lat="42.97545" lon="-0.33733">
        <ele>1686.0</ele>
        <time>2019-07-07T10:49:50.835Z</time>
      </trkpt>
      <trkpt lat="42.97549" lon="-0.33737333">
        <ele>1686.0</ele>
        <time>2019-07-07T10:49:51.818Z</time>
      </trkpt>
      <trkpt lat="42.97549" lon="-0.33737333">
        <ele>1686.0</ele>
        <time>2019-07-07T10:49:52.822Z</time>
      </trkpt>
      <trkpt lat="42.97553167" lon="-0.337415">
        <ele>1686.0</ele>
        <time>2019-07-07T10:49:53.840Z</time>
      </trkpt>
      <trkpt lat="42.97553167" lon="-0.337415">
        <ele>1686.0</ele>
        <time>2019-07-07T10:49:54.814Z</time>
      </trkpt>
      <trkpt lat="42.975575" lon="-0.33745167">
        <ele>1686.0</ele>
        <time>2019-07-07T10:49:55.834Z</time>
      </trkpt>
      <trkpt lat="42.975575" lon="-0.33745167">
        <ele>1686.0</ele>
        <time>2019-07-07T10:49:56.809Z</time>
      </trkpt>
      <trkpt lat="42.97561833" lon="-0.33748833">
        <ele>1687.0</ele>
        <time>2019-07-07T10:49:57.831Z</time>
      </trkpt>
      <trkpt lat="42.97561833" lon="-0.33748833">
        <ele>1687.0</ele>
        <time>2019-07-07T10:49:58.823Z</time>
      </trkpt>
      <trkpt lat="42.97566167" lon="-0.337525">
        <ele>1687.0</ele>
        <time>2019-07-07T10:49:59.819Z</time>
      </trkpt>
      <trkpt lat="42.97566167" lon="-0.337525">
        <ele>1687.0</ele>
        <time>2019-07-07T10:50:00.833Z</time>
      </trkpt>
      <trkpt lat="42.97570667" lon="-0.33756">
        <ele>1688.0</ele>
        <time>2019-07-07T10:50:01.809Z</time>
      </trkpt>
      <trkpt lat="42.97572833" lon="-0.33757667">
        <ele>1688.0</ele>
        <time>2019-07-07T10:50:02.802Z</time>
      </trkpt>
      <trkpt lat="42.97572833" lon="-0.33757667">
        <ele>1688.0</ele>
        <time>2019-07-07T10:50:03.823Z</time>
      </trkpt>
      <trkpt lat="42.97577167" lon="-0.33761">
        <ele>1688.0</ele>
        <time>2019-07-07T10:50:04.838Z</time>
      </trkpt>
      <trkpt lat="42.975795" lon="-0.33762667">
        <ele>1689.0</ele>
        <time>2019-07-07T10:50:05.833Z</time>
      </trkpt>
      <trkpt lat="42.975795" lon="-0.33762667">
        <ele>1689.0</ele>
        <time>2019-07-07T10:50:06.823Z</time>
      </trkpt>
      <trkpt lat="42.97583667" lon="-0.33766">
        <ele>1689.0</ele>
        <time>2019-07-07T10:50:07.831Z</time>
      </trkpt>
      <trkpt lat="42.97585667" lon="-0.33767833">
        <ele>1689.0</ele>
        <time>2019-07-07T10:50:08.810Z</time>
      </trkpt>
      <trkpt lat="42.97585667" lon="-0.33767833">
        <ele>1689.0</ele>
        <time>2019-07-07T10:50:09.824Z</time>
      </trkpt>
      <trkpt lat="42.97590167" lon="-0.33771333">
        <ele>1690.0</ele>
        <time>2019-07-07T10:50:10.806Z</time>
      </trkpt>
      <trkpt lat="42.97590167" lon="-0.33771333">
        <ele>1690.0</ele>
        <time>2019-07-07T10:50:11.833Z</time>
      </trkpt>
      <trkpt lat="42.975945" lon="-0.337745">
        <ele>1690.0</ele>
        <time>2019-07-07T10:50:12.803Z</time>
      </trkpt>
      <trkpt lat="42.975945" lon="-0.337745">
        <ele>1690.0</ele>
        <time>2019-07-07T10:50:13.823Z</time>
      </trkpt>
      <trkpt lat="42.97598833" lon="-0.33778167">
        <ele>1691.0</ele>
        <time>2019-07-07T10:50:14.840Z</time>
      </trkpt>
      <trkpt lat="42.97598833" lon="-0.33778167">
        <ele>1691.0</ele>
        <time>2019-07-07T10:50:15.804Z</time>
      </trkpt>
      <trkpt lat="42.97603333" lon="-0.33781">
        <ele>1691.0</ele>
        <time>2019-07-07T10:50:16.820Z</time>
      </trkpt>
      <trkpt lat="42.97603333" lon="-0.33781">
        <ele>1691.0</ele>
        <time>2019-07-07T10:50:17.803Z</time>
      </trkpt>
      <trkpt lat="42.97607667" lon="-0.33784333">
        <ele>1692.0</ele>
        <time>2019-07-07T10:50:18.817Z</time>
      </trkpt>
      <trkpt lat="42.97609333" lon="-0.337865">
        <ele>1692.0</ele>
        <time>2019-07-07T10:50:19.841Z</time>
      </trkpt>
      <trkpt lat="42.97609333" lon="-0.337865">
        <ele>1692.0</ele>
        <time>2019-07-07T10:50:20.823Z</time>
      </trkpt>
      <trkpt lat="42.97612667" lon="-0.33791167">
        <ele>1692.0</ele>
        <time>2019-07-07T10:50:21.839Z</time>
      </trkpt>
      <trkpt lat="42.97612667" lon="-0.33791167">
        <ele>1692.0</ele>
        <time>2019-07-07T10:50:22.806Z</time>
      </trkpt>
      <trkpt lat="42.97616667" lon="-0.33796">
        <ele>1693.0</ele>
        <time>2019-07-07T10:50:23.825Z</time>
      </trkpt>
      <trkpt lat="42.97616667" lon="-0.33796">
        <ele>1693.0</ele>
        <time>2019-07-07T10:50:24.814Z</time>
      </trkpt>
      <trkpt lat="42.97620333" lon="-0.33802333">
        <ele>1693.0</ele>
        <time>2019-07-07T10:50:25.834Z</time>
      </trkpt>
      <trkpt lat="42.97622" lon="-0.33805833">
        <ele>1694.0</ele>
        <time>2019-07-07T10:50:26.842Z</time>
      </trkpt>
      <trkpt lat="42.97622" lon="-0.33805833">
        <ele>1694.0</ele>
        <time>2019-07-07T10:50:27.803Z</time>
      </trkpt>
      <trkpt lat="42.97624833" lon="-0.33812167">
        <ele>1694.0</ele>
        <time>2019-07-07T10:50:28.821Z</time>
      </trkpt>
      <trkpt lat="42.976265" lon="-0.33815167">
        <ele>1695.0</ele>
        <time>2019-07-07T10:50:29.842Z</time>
      </trkpt>
      <trkpt lat="42.976265" lon="-0.33815167">
        <ele>1695.0</ele>
        <time>2019-07-07T10:50:30.811Z</time>
      </trkpt>
      <trkpt lat="42.97629333" lon="-0.33820833">
        <ele>1695.0</ele>
        <time>2019-07-07T10:50:31.831Z</time>
      </trkpt>
      <trkpt lat="42.976305" lon="-0.33824167">
        <ele>1696.0</ele>
        <time>2019-07-07T10:50:32.838Z</time>
      </trkpt>
      <trkpt lat="42.976305" lon="-0.33824167">
        <ele>1696.0</ele>
        <time>2019-07-07T10:50:33.818Z</time>
      </trkpt>
      <trkpt lat="42.97632333" lon="-0.338315">
        <ele>1697.0</ele>
        <time>2019-07-07T10:50:34.832Z</time>
      </trkpt>
      <trkpt lat="42.97632333" lon="-0.338315">
        <ele>1697.0</ele>
        <time>2019-07-07T10:50:35.821Z</time>
      </trkpt>
      <trkpt lat="42.97634167" lon="-0.33838167">
        <ele>1697.0</ele>
        <time>2019-07-07T10:50:36.839Z</time>
      </trkpt>
      <trkpt lat="42.97634167" lon="-0.33838167">
        <ele>1697.0</ele>
        <time>2019-07-07T10:50:37.834Z</time>
      </trkpt>
      <trkpt lat="42.97635167" lon="-0.338465">
        <ele>1698.0</ele>
        <time>2019-07-07T10:50:38.810Z</time>
      </trkpt>
      <trkpt lat="42.97635167" lon="-0.338465">
        <ele>1698.0</ele>
        <time>2019-07-07T10:50:39.818Z</time>
      </trkpt>
      <trkpt lat="42.976365" lon="-0.338545">
        <ele>1698.0</ele>
        <time>2019-07-07T10:50:40.832Z</time>
      </trkpt>
      <trkpt lat="42.976365" lon="-0.338545">
        <ele>1698.0</ele>
        <time>2019-07-07T10:50:41.824Z</time>
      </trkpt>
      <trkpt lat="42.97637833" lon="-0.33861333">
        <ele>1699.0</ele>
        <time>2019-07-07T10:50:42.802Z</time>
      </trkpt>
      <trkpt lat="42.97637833" lon="-0.33861333">
        <ele>1699.0</ele>
        <time>2019-07-07T10:50:43.823Z</time>
      </trkpt>
      <trkpt lat="42.97639" lon="-0.338685">
        <ele>1699.0</ele>
        <time>2019-07-07T10:50:44.802Z</time>
      </trkpt>
      <trkpt lat="42.97639" lon="-0.338685">
        <ele>1699.0</ele>
        <time>2019-07-07T10:50:45.833Z</time>
      </trkpt>
      <trkpt lat="42.97640167" lon="-0.33875667">
        <ele>1699.0</ele>
        <time>2019-07-07T10:50:46.813Z</time>
      </trkpt>
      <trkpt lat="42.97640167" lon="-0.33875667">
        <ele>1699.0</ele>
        <time>2019-07-07T10:50:47.822Z</time>
      </trkpt>
      <trkpt lat="42.97641667" lon="-0.33882167">
        <ele>1700.0</ele>
        <time>2019-07-07T10:50:48.849Z</time>
      </trkpt>
      <trkpt lat="42.97642333" lon="-0.33885667">
        <ele>1700.0</ele>
        <time>2019-07-07T10:50:49.835Z</time>
      </trkpt>
      <trkpt lat="42.97642333" lon="-0.33885667">
        <ele>1700.0</ele>
        <time>2019-07-07T10:50:50.835Z</time>
      </trkpt>
      <trkpt lat="42.97644333" lon="-0.33892">
        <ele>1700.0</ele>
        <time>2019-07-07T10:50:51.807Z</time>
      </trkpt>
      <trkpt lat="42.97645833" lon="-0.338945">
        <ele>1700.0</ele>
        <time>2019-07-07T10:50:52.827Z</time>
      </trkpt>
      <trkpt lat="42.97645833" lon="-0.338945">
        <ele>1700.0</ele>
        <time>2019-07-07T10:50:53.820Z</time>
      </trkpt>
      <trkpt lat="42.97648333" lon="-0.33900167">
        <ele>1700.0</ele>
        <time>2019-07-07T10:50:54.838Z</time>
      </trkpt>
      <trkpt lat="42.97648333" lon="-0.33900167">
        <ele>1700.0</ele>
        <time>2019-07-07T10:50:55.823Z</time>
      </trkpt>
      <trkpt lat="42.97651" lon="-0.339055">
        <ele>1701.0</ele>
        <time>2019-07-07T10:50:56.836Z</time>
      </trkpt>
      <trkpt lat="42.97651" lon="-0.339055">
        <ele>1701.0</ele>
        <time>2019-07-07T10:50:57.808Z</time>
      </trkpt>
      <trkpt lat="42.976535" lon="-0.33911">
        <ele>1701.0</ele>
        <time>2019-07-07T10:50:58.826Z</time>
      </trkpt>
      <trkpt lat="42.97655" lon="-0.33913833">
        <ele>1701.0</ele>
        <time>2019-07-07T10:50:59.824Z</time>
      </trkpt>
      <trkpt lat="42.97655" lon="-0.33913833">
        <ele>1701.0</ele>
        <time>2019-07-07T10:51:00.823Z</time>
      </trkpt>
      <trkpt lat="42.976575" lon="-0.33919333">
        <ele>1702.0</ele>
        <time>2019-07-07T10:51:01.833Z</time>
      </trkpt>
      <trkpt lat="42.97658833" lon="-0.33922">
        <ele>1702.0</ele>
        <time>2019-07-07T10:51:02.810Z</time>
      </trkpt>
      <trkpt lat="42.97658833" lon="-0.33922">
        <ele>1702.0</ele>
        <time>2019-07-07T10:51:03.823Z</time>
      </trkpt>
      <trkpt lat="42.976615" lon="-0.33927833">
        <ele>1703.0</ele>
        <time>2019-07-07T10:51:04.838Z</time>
      </trkpt>
      <trkpt lat="42.97662833" lon="-0.33930667">
        <ele>1703.0</ele>
        <time>2019-07-07T10:51:05.833Z</time>
      </trkpt>
      <trkpt lat="42.97662833" lon="-0.33930667">
        <ele>1703.0</ele>
        <time>2019-07-07T10:51:06.808Z</time>
      </trkpt>
      <trkpt lat="42.976655" lon="-0.33936">
        <ele>1703.0</ele>
        <time>2019-07-07T10:51:07.829Z</time>
      </trkpt>
      <trkpt lat="42.976655" lon="-0.33936">
        <ele>1703.0</ele>
        <time>2019-07-07T10:51:08.824Z</time>
      </trkpt>
      <trkpt lat="42.97667667" lon="-0.33942">
        <ele>1704.0</ele>
        <time>2019-07-07T10:51:09.838Z</time>
      </trkpt>
      <trkpt lat="42.97667667" lon="-0.33942">
        <ele>1704.0</ele>
        <time>2019-07-07T10:51:10.803Z</time>
      </trkpt>
      <trkpt lat="42.97668667" lon="-0.33948333">
        <ele>1704.0</ele>
        <time>2019-07-07T10:51:11.816Z</time>
      </trkpt>
      <trkpt lat="42.97668667" lon="-0.33948333">
        <ele>1704.0</ele>
        <time>2019-07-07T10:51:12.830Z</time>
      </trkpt>
      <trkpt lat="42.97669333" lon="-0.339545">
        <ele>1705.0</ele>
        <time>2019-07-07T10:51:13.809Z</time>
      </trkpt>
      <trkpt lat="42.97669333" lon="-0.339545">
        <ele>1705.0</ele>
        <time>2019-07-07T10:51:14.814Z</time>
      </trkpt>
      <trkpt lat="42.97669333" lon="-0.33961333">
        <ele>1705.0</ele>
        <time>2019-07-07T10:51:15.836Z</time>
      </trkpt>
      <trkpt lat="42.97669333" lon="-0.33961333">
        <ele>1705.0</ele>
        <time>2019-07-07T10:51:16.834Z</time>
      </trkpt>
      <trkpt lat="42.976685" lon="-0.339675">
        <ele>1706.0</ele>
        <time>2019-07-07T10:51:17.804Z</time>
      </trkpt>
      <trkpt lat="42.976685" lon="-0.339675">
        <ele>1706.0</ele>
        <time>2019-07-07T10:51:18.803Z</time>
      </trkpt>
      <trkpt lat="42.97666833" lon="-0.33973167">
        <ele>1705.0</ele>
        <time>2019-07-07T10:51:19.830Z</time>
      </trkpt>
      <trkpt lat="42.97665833" lon="-0.33974833">
        <ele>1705.0</ele>
        <time>2019-07-07T10:51:20.823Z</time>
      </trkpt>
      <trkpt lat="42.97665833" lon="-0.33974833">
        <ele>1705.0</ele>
        <time>2019-07-07T10:51:21.833Z</time>
      </trkpt>
      <trkpt lat="42.976635" lon="-0.33975">
        <ele>1705.0</ele>
        <time>2019-07-07T10:51:22.809Z</time>
      </trkpt>
      <trkpt lat="42.976635" lon="-0.33975">
        <ele>1705.0</ele>
        <time>2019-07-07T10:51:23.817Z</time>
      </trkpt>
      <trkpt lat="42.97662667" lon="-0.33974167">
        <ele>1705.0</ele>
        <time>2019-07-07T10:51:24.832Z</time>
      </trkpt>
      <trkpt lat="42.97662667" lon="-0.33974167">
        <ele>1705.0</ele>
        <time>2019-07-07T10:51:25.824Z</time>
      </trkpt>
      <trkpt lat="42.97657167" lon="-0.33980833">
        <ele>1705.0</ele>
        <time>2019-07-07T10:51:26.830Z</time>
      </trkpt>
      <trkpt lat="42.97657167" lon="-0.33980833">
        <ele>1705.0</ele>
        <time>2019-07-07T10:51:27.823Z</time>
      </trkpt>
      <trkpt lat="42.97653333" lon="-0.33988333">
        <ele>1705.0</ele>
        <time>2019-07-07T10:51:28.823Z</time>
      </trkpt>
      <trkpt lat="42.97651167" lon="-0.33993">
        <ele>1705.0</ele>
        <time>2019-07-07T10:51:29.803Z</time>
      </trkpt>
      <trkpt lat="42.97651167" lon="-0.33993">
        <ele>1705.0</ele>
        <time>2019-07-07T10:51:30.818Z</time>
      </trkpt>
      <trkpt lat="42.97646" lon="-0.34003333">
        <ele>1705.0</ele>
        <time>2019-07-07T10:51:31.837Z</time>
      </trkpt>
      <trkpt lat="42.97643" lon="-0.34009833">
        <ele>1704.0</ele>
        <time>2019-07-07T10:51:32.813Z</time>
      </trkpt>
      <trkpt lat="42.97643" lon="-0.34009833">
        <ele>1704.0</ele>
        <time>2019-07-07T10:51:33.817Z</time>
      </trkpt>
      <trkpt lat="42.97637667" lon="-0.34023833">
        <ele>1704.0</ele>
        <time>2019-07-07T10:51:34.838Z</time>
      </trkpt>
      <trkpt lat="42.976355" lon="-0.34030333">
        <ele>1704.0</ele>
        <time>2019-07-07T10:51:35.805Z</time>
      </trkpt>
      <trkpt lat="42.976355" lon="-0.34030333">
        <ele>1704.0</ele>
        <time>2019-07-07T10:51:36.807Z</time>
      </trkpt>
      <trkpt lat="42.97632833" lon="-0.34041">
        <ele>1704.0</ele>
        <time>2019-07-07T10:51:37.826Z</time>
      </trkpt>
      <trkpt lat="42.97632833" lon="-0.34041">
        <ele>1704.0</ele>
        <time>2019-07-07T10:51:38.802Z</time>
      </trkpt>
      <trkpt lat="42.97629833" lon="-0.34050167">
        <ele>1703.0</ele>
        <time>2019-07-07T10:51:39.823Z</time>
      </trkpt>
      <trkpt lat="42.97629833" lon="-0.34050167">
        <ele>1703.0</ele>
        <time>2019-07-07T10:51:40.817Z</time>
      </trkpt>
      <trkpt lat="42.97627667" lon="-0.34057667">
        <ele>1703.0</ele>
        <time>2019-07-07T10:51:41.836Z</time>
      </trkpt>
      <trkpt lat="42.97627667" lon="-0.34057667">
        <ele>1703.0</ele>
        <time>2019-07-07T10:51:42.805Z</time>
      </trkpt>
      <trkpt lat="42.97626333" lon="-0.340625">
        <ele>1703.0</ele>
        <time>2019-07-07T10:51:43.802Z</time>
      </trkpt>
      <trkpt lat="42.97626333" lon="-0.340625">
        <ele>1703.0</ele>
        <time>2019-07-07T10:51:44.809Z</time>
      </trkpt>
      <trkpt lat="42.976265" lon="-0.34064833">
        <ele>1703.0</ele>
        <time>2019-07-07T10:51:45.803Z</time>
      </trkpt>
      <trkpt lat="42.976265" lon="-0.34064833">
        <ele>1703.0</ele>
        <time>2019-07-07T10:51:46.835Z</time>
      </trkpt>
      <trkpt lat="42.97626167" lon="-0.34065667">
        <ele>1703.0</ele>
        <time>2019-07-07T10:51:47.816Z</time>
      </trkpt>
      <trkpt lat="42.97626167" lon="-0.34065667">
        <ele>1703.0</ele>
        <time>2019-07-07T10:51:48.827Z</time>
      </trkpt>
      <trkpt lat="42.97626167" lon="-0.34065667">
        <ele>1703.0</ele>
        <time>2019-07-07T10:51:49.807Z</time>
      </trkpt>
      <trkpt lat="42.97626167" lon="-0.34065667">
        <ele>1703.0</ele>
        <time>2019-07-07T10:51:50.835Z</time>
      </trkpt>
      <trkpt lat="42.97633333" lon="-0.34080333">
        <ele>1699.0</ele>
        <time>2019-07-07T10:51:51.828Z</time>
      </trkpt>
      <trkpt lat="42.97633333" lon="-0.34080333">
        <ele>1699.0</ele>
        <time>2019-07-07T10:51:52.814Z</time>
      </trkpt>
      <trkpt lat="42.97636667" lon="-0.34092667">
        <ele>1698.0</ele>
        <time>2019-07-07T10:51:53.818Z</time>
      </trkpt>
      <trkpt lat="42.97636667" lon="-0.34092667">
        <ele>1698.0</ele>
        <time>2019-07-07T10:51:54.825Z</time>
      </trkpt>
      <trkpt lat="42.976405" lon="-0.34108333">
        <ele>1696.0</ele>
        <time>2019-07-07T10:51:55.815Z</time>
      </trkpt>
      <trkpt lat="42.976435" lon="-0.34116833">
        <ele>1696.0</ele>
        <time>2019-07-07T10:51:56.834Z</time>
      </trkpt>
      <trkpt lat="42.976435" lon="-0.34116833">
        <ele>1696.0</ele>
        <time>2019-07-07T10:51:57.840Z</time>
      </trkpt>
      <trkpt lat="42.97651333" lon="-0.341355">
        <ele>1694.0</ele>
        <time>2019-07-07T10:51:58.820Z</time>
      </trkpt>
      <trkpt lat="42.97651333" lon="-0.341355">
        <ele>1694.0</ele>
        <time>2019-07-07T10:51:59.826Z</time>
      </trkpt>
      <trkpt lat="42.97662" lon="-0.341545">
        <ele>1692.0</ele>
        <time>2019-07-07T10:52:00.830Z</time>
      </trkpt>
      <trkpt lat="42.97668167" lon="-0.34164">
        <ele>1691.0</ele>
        <time>2019-07-07T10:52:01.840Z</time>
      </trkpt>
      <trkpt lat="42.97675167" lon="-0.341735">
        <ele>1691.0</ele>
        <time>2019-07-07T10:52:02.830Z</time>
      </trkpt>
      <trkpt lat="42.97675167" lon="-0.341735">
        <ele>1691.0</ele>
        <time>2019-07-07T10:52:03.835Z</time>
      </trkpt>
      <trkpt lat="42.97689667" lon="-0.34194">
        <ele>1689.0</ele>
        <time>2019-07-07T10:52:04.810Z</time>
      </trkpt>
      <trkpt lat="42.97689667" lon="-0.34194">
        <ele>1689.0</ele>
        <time>2019-07-07T10:52:05.815Z</time>
      </trkpt>
      <trkpt lat="42.97701167" lon="-0.3422">
        <ele>1687.0</ele>
        <time>2019-07-07T10:52:06.810Z</time>
      </trkpt>
      <trkpt lat="42.97701167" lon="-0.3422">
        <ele>1687.0</ele>
        <time>2019-07-07T10:52:07.816Z</time>
      </trkpt>
      <trkpt lat="42.97708667" lon="-0.34249667">
        <ele>1685.0</ele>
        <time>2019-07-07T10:52:08.820Z</time>
      </trkpt>
      <trkpt lat="42.97708667" lon="-0.34249667">
        <ele>1685.0</ele>
        <time>2019-07-07T10:52:09.825Z</time>
      </trkpt>
      <trkpt lat="42.97714" lon="-0.342785">
        <ele>1683.0</ele>
        <time>2019-07-07T10:52:10.820Z</time>
      </trkpt>
      <trkpt lat="42.97714" lon="-0.342785">
        <ele>1683.0</ele>
        <time>2019-07-07T10:52:11.825Z</time>
      </trkpt>
      <trkpt lat="42.97722167" lon="-0.34302167">
        <ele>1681.0</ele>
        <time>2019-07-07T10:52:12.840Z</time>
      </trkpt>
      <trkpt lat="42.97728333" lon="-0.34310667">
        <ele>1680.0</ele>
        <time>2019-07-07T10:52:13.819Z</time>
      </trkpt>
      <trkpt lat="42.97735667" lon="-0.34316333">
        <ele>1680.0</ele>
        <time>2019-07-07T10:52:14.820Z</time>
      </trkpt>
      <trkpt lat="42.97735667" lon="-0.34316333">
        <ele>1680.0</ele>
        <time>2019-07-07T10:52:15.825Z</time>
      </trkpt>
      <trkpt lat="42.97752333" lon="-0.34319667">
        <ele>1678.0</ele>
        <time>2019-07-07T10:52:16.840Z</time>
      </trkpt>
      <trkpt lat="42.97752333" lon="-0.34319667">
        <ele>1678.0</ele>
        <time>2019-07-07T10:52:17.805Z</time>
      </trkpt>
      <trkpt lat="42.97769833" lon="-0.34315833">
        <ele>1676.0</ele>
        <time>2019-07-07T10:52:18.830Z</time>
      </trkpt>
      <trkpt lat="42.97769833" lon="-0.34315833">
        <ele>1676.0</ele>
        <time>2019-07-07T10:52:19.835Z</time>
      </trkpt>
      <trkpt lat="42.97786333" lon="-0.343055">
        <ele>1675.0</ele>
        <time>2019-07-07T10:52:20.830Z</time>
      </trkpt>
      <trkpt lat="42.97786333" lon="-0.343055">
        <ele>1675.0</ele>
        <time>2019-07-07T10:52:21.835Z</time>
      </trkpt>
      <trkpt lat="42.97802667" lon="-0.34289">
        <ele>1672.0</ele>
        <time>2019-07-07T10:52:22.820Z</time>
      </trkpt>
      <trkpt lat="42.97802667" lon="-0.34289">
        <ele>1672.0</ele>
        <time>2019-07-07T10:52:23.827Z</time>
      </trkpt>
      <trkpt lat="42.97822333" lon="-0.342785">
        <ele>1671.0</ele>
        <time>2019-07-07T10:52:24.820Z</time>
      </trkpt>
      <trkpt lat="42.97822333" lon="-0.342785">
        <ele>1671.0</ele>
        <time>2019-07-07T10:52:25.826Z</time>
      </trkpt>
      <trkpt lat="42.97843167" lon="-0.34277833">
        <ele>1669.0</ele>
        <time>2019-07-07T10:52:26.810Z</time>
      </trkpt>
      <trkpt lat="42.97843167" lon="-0.34277833">
        <ele>1669.0</ele>
        <time>2019-07-07T10:52:27.815Z</time>
      </trkpt>
      <trkpt lat="42.97864833" lon="-0.342775">
        <ele>1667.0</ele>
        <time>2019-07-07T10:52:28.804Z</time>
      </trkpt>
      <trkpt lat="42.97864833" lon="-0.342775">
        <ele>1667.0</ele>
        <time>2019-07-07T10:52:29.809Z</time>
      </trkpt>
      <trkpt lat="42.97883833" lon="-0.34273">
        <ele>1666.0</ele>
        <time>2019-07-07T10:52:30.830Z</time>
      </trkpt>
      <trkpt lat="42.97883833" lon="-0.34273">
        <ele>1666.0</ele>
        <time>2019-07-07T10:52:31.835Z</time>
      </trkpt>
      <trkpt lat="42.97898833" lon="-0.34275833">
        <ele>1665.0</ele>
        <time>2019-07-07T10:52:32.817Z</time>
      </trkpt>
      <trkpt lat="42.97898833" lon="-0.34275833">
        <ele>1665.0</ele>
        <time>2019-07-07T10:52:33.823Z</time>
      </trkpt>
      <trkpt lat="42.979025" lon="-0.34293667">
        <ele>1663.0</ele>
        <time>2019-07-07T10:52:34.840Z</time>
      </trkpt>
      <trkpt lat="42.979025" lon="-0.34293667">
        <ele>1663.0</ele>
        <time>2019-07-07T10:52:35.805Z</time>
      </trkpt>
      <trkpt lat="42.978925" lon="-0.34307833">
        <ele>1661.0</ele>
        <time>2019-07-07T10:52:36.835Z</time>
      </trkpt>
      <trkpt lat="42.978925" lon="-0.34307833">
        <ele>1661.0</ele>
        <time>2019-07-07T10:52:37.801Z</time>
      </trkpt>
      <trkpt lat="42.97875667" lon="-0.34307">
        <ele>1660.0</ele>
        <time>2019-07-07T10:52:38.829Z</time>
      </trkpt>
      <trkpt lat="42.97875667" lon="-0.34307">
        <ele>1660.0</ele>
        <time>2019-07-07T10:52:39.834Z</time>
      </trkpt>
      <trkpt lat="42.97857167" lon="-0.34302167">
        <ele>1659.0</ele>
        <time>2019-07-07T10:52:40.820Z</time>
      </trkpt>
      <trkpt lat="42.97857167" lon="-0.34302167">
        <ele>1659.0</ele>
        <time>2019-07-07T10:52:41.826Z</time>
      </trkpt>
      <trkpt lat="42.97838333" lon="-0.34305333">
        <ele>1658.0</ele>
        <time>2019-07-07T10:52:42.830Z</time>
      </trkpt>
      <trkpt lat="42.97829667" lon="-0.343105">
        <ele>1657.0</ele>
        <time>2019-07-07T10:52:43.840Z</time>
      </trkpt>
      <trkpt lat="42.97829667" lon="-0.343105">
        <ele>1657.0</ele>
        <time>2019-07-07T10:52:44.805Z</time>
      </trkpt>
      <trkpt lat="42.97818" lon="-0.343315">
        <ele>1656.0</ele>
        <time>2019-07-07T10:52:45.835Z</time>
      </trkpt>
      <trkpt lat="42.97815" lon="-0.34345">
        <ele>1655.0</ele>
        <time>2019-07-07T10:52:46.820Z</time>
      </trkpt>
      <trkpt lat="42.97815" lon="-0.34345">
        <ele>1655.0</ele>
        <time>2019-07-07T10:52:47.806Z</time>
      </trkpt>
      <trkpt lat="42.97804333" lon="-0.34372167">
        <ele>1654.0</ele>
        <time>2019-07-07T10:52:48.821Z</time>
      </trkpt>
      <trkpt lat="42.97798167" lon="-0.343855">
        <ele>1653.0</ele>
        <time>2019-07-07T10:52:49.840Z</time>
      </trkpt>
      <trkpt lat="42.97791667" lon="-0.34399667">
        <ele>1652.0</ele>
        <time>2019-07-07T10:52:50.839Z</time>
      </trkpt>
      <trkpt lat="42.97791667" lon="-0.34399667">
        <ele>1652.0</ele>
        <time>2019-07-07T10:52:51.804Z</time>
      </trkpt>
      <trkpt lat="42.97777" lon="-0.34427833">
        <ele>1650.0</ele>
        <time>2019-07-07T10:52:52.820Z</time>
      </trkpt>
      <trkpt lat="42.97777" lon="-0.34427833">
        <ele>1650.0</ele>
        <time>2019-07-07T10:52:53.826Z</time>
      </trkpt>
      <trkpt lat="42.97759833" lon="-0.34454333">
        <ele>1648.0</ele>
        <time>2019-07-07T10:52:54.816Z</time>
      </trkpt>
      <trkpt lat="42.977515" lon="-0.344675">
        <ele>1646.0</ele>
        <time>2019-07-07T10:52:55.839Z</time>
      </trkpt>
      <trkpt lat="42.977515" lon="-0.344675">
        <ele>1646.0</ele>
        <time>2019-07-07T10:52:56.804Z</time>
      </trkpt>
      <trkpt lat="42.97737333" lon="-0.34495333">
        <ele>1644.0</ele>
        <time>2019-07-07T10:52:57.830Z</time>
      </trkpt>
      <trkpt lat="42.97730167" lon="-0.34508667">
        <ele>1643.0</ele>
        <time>2019-07-07T10:52:58.810Z</time>
      </trkpt>
      <trkpt lat="42.97730167" lon="-0.34508667">
        <ele>1643.0</ele>
        <time>2019-07-07T10:52:59.815Z</time>
      </trkpt>
      <trkpt lat="42.97713" lon="-0.34527833">
        <ele>1641.0</ele>
        <time>2019-07-07T10:53:00.820Z</time>
      </trkpt>
      <trkpt lat="42.97702833" lon="-0.34533333">
        <ele>1641.0</ele>
        <time>2019-07-07T10:53:01.801Z</time>
      </trkpt>
      <trkpt lat="42.97702833" lon="-0.34533333">
        <ele>1641.0</ele>
        <time>2019-07-07T10:53:02.806Z</time>
      </trkpt>
      <trkpt lat="42.97681167" lon="-0.345345">
        <ele>1640.0</ele>
        <time>2019-07-07T10:53:03.830Z</time>
      </trkpt>
      <trkpt lat="42.97681167" lon="-0.345345">
        <ele>1640.0</ele>
        <time>2019-07-07T10:53:04.835Z</time>
      </trkpt>
      <trkpt lat="42.97660333" lon="-0.34525333">
        <ele>1639.0</ele>
        <time>2019-07-07T10:53:05.806Z</time>
      </trkpt>
      <trkpt lat="42.97651" lon="-0.34518667">
        <ele>1638.0</ele>
        <time>2019-07-07T10:53:06.835Z</time>
      </trkpt>
      <trkpt lat="42.97651" lon="-0.34518667">
        <ele>1638.0</ele>
        <time>2019-07-07T10:53:07.801Z</time>
      </trkpt>
      <trkpt lat="42.976365" lon="-0.34501333">
        <ele>1637.0</ele>
        <time>2019-07-07T10:53:08.830Z</time>
      </trkpt>
      <trkpt lat="42.976365" lon="-0.34501333">
        <ele>1637.0</ele>
        <time>2019-07-07T10:53:09.835Z</time>
      </trkpt>
      <trkpt lat="42.976225" lon="-0.34489">
        <ele>1635.0</ele>
        <time>2019-07-07T10:53:10.820Z</time>
      </trkpt>
      <trkpt lat="42.976225" lon="-0.34489">
        <ele>1635.0</ele>
        <time>2019-07-07T10:53:11.827Z</time>
      </trkpt>
      <trkpt lat="42.97608167" lon="-0.34493333">
        <ele>1633.0</ele>
        <time>2019-07-07T10:53:12.840Z</time>
      </trkpt>
      <trkpt lat="42.97602167" lon="-0.34501167">
        <ele>1633.0</ele>
        <time>2019-07-07T10:53:13.820Z</time>
      </trkpt>
      <trkpt lat="42.97602167" lon="-0.34501167">
        <ele>1633.0</ele>
        <time>2019-07-07T10:53:14.826Z</time>
      </trkpt>
      <trkpt lat="42.97590167" lon="-0.34519167">
        <ele>1631.0</ele>
        <time>2019-07-07T10:53:15.820Z</time>
      </trkpt>
      <trkpt lat="42.97581333" lon="-0.34527">
        <ele>1630.0</ele>
        <time>2019-07-07T10:53:16.820Z</time>
      </trkpt>
      <trkpt lat="42.97581333" lon="-0.34527">
        <ele>1630.0</ele>
        <time>2019-07-07T10:53:17.838Z</time>
      </trkpt>
      <trkpt lat="42.97561333" lon="-0.34533833">
        <ele>1628.0</ele>
        <time>2019-07-07T10:53:18.831Z</time>
      </trkpt>
      <trkpt lat="42.97551" lon="-0.34532167">
        <ele>1628.0</ele>
        <time>2019-07-07T10:53:19.830Z</time>
      </trkpt>
      <trkpt lat="42.97551" lon="-0.34532167">
        <ele>1628.0</ele>
        <time>2019-07-07T10:53:20.835Z</time>
      </trkpt>
      <trkpt lat="42.97534" lon="-0.34516167">
        <ele>1627.0</ele>
        <time>2019-07-07T10:53:21.840Z</time>
      </trkpt>
      <trkpt lat="42.97527333" lon="-0.34504167">
        <ele>1626.0</ele>
        <time>2019-07-07T10:53:22.821Z</time>
      </trkpt>
      <trkpt lat="42.97527333" lon="-0.34504167">
        <ele>1626.0</ele>
        <time>2019-07-07T10:53:23.827Z</time>
      </trkpt>
      <trkpt lat="42.97513167" lon="-0.34479833">
        <ele>1625.0</ele>
        <time>2019-07-07T10:53:24.819Z</time>
      </trkpt>
      <trkpt lat="42.97513167" lon="-0.34479833">
        <ele>1625.0</ele>
        <time>2019-07-07T10:53:25.825Z</time>
      </trkpt>
      <trkpt lat="42.97493667" lon="-0.34460833">
        <ele>1623.0</ele>
        <time>2019-07-07T10:53:26.810Z</time>
      </trkpt>
      <trkpt lat="42.97493667" lon="-0.34460833">
        <ele>1623.0</ele>
        <time>2019-07-07T10:53:27.816Z</time>
      </trkpt>
      <trkpt lat="42.974725" lon="-0.34448">
        <ele>1621.0</ele>
        <time>2019-07-07T10:53:28.801Z</time>
      </trkpt>
      <trkpt lat="42.974725" lon="-0.34448">
        <ele>1621.0</ele>
        <time>2019-07-07T10:53:29.806Z</time>
      </trkpt>
      <trkpt lat="42.97451" lon="-0.34448167">
        <ele>1619.0</ele>
        <time>2019-07-07T10:53:30.840Z</time>
      </trkpt>
      <trkpt lat="42.97451" lon="-0.34448167">
        <ele>1619.0</ele>
        <time>2019-07-07T10:53:31.805Z</time>
      </trkpt>
      <trkpt lat="42.974345" lon="-0.34464833">
        <ele>1617.0</ele>
        <time>2019-07-07T10:53:32.810Z</time>
      </trkpt>
      <trkpt lat="42.974345" lon="-0.34464833">
        <ele>1617.0</ele>
        <time>2019-07-07T10:53:33.815Z</time>
      </trkpt>
      <trkpt lat="42.97423833" lon="-0.34493167">
        <ele>1614.0</ele>
        <time>2019-07-07T10:53:34.809Z</time>
      </trkpt>
      <trkpt lat="42.97423833" lon="-0.34493167">
        <ele>1614.0</ele>
        <time>2019-07-07T10:53:35.814Z</time>
      </trkpt>
      <trkpt lat="42.974125" lon="-0.34519667">
        <ele>1613.0</ele>
        <time>2019-07-07T10:53:36.840Z</time>
      </trkpt>
      <trkpt lat="42.974125" lon="-0.34519667">
        <ele>1613.0</ele>
        <time>2019-07-07T10:53:37.805Z</time>
      </trkpt>
      <trkpt lat="42.97394333" lon="-0.34531333">
        <ele>1611.0</ele>
        <time>2019-07-07T10:53:38.840Z</time>
      </trkpt>
      <trkpt lat="42.97394333" lon="-0.34531333">
        <ele>1611.0</ele>
        <time>2019-07-07T10:53:39.805Z</time>
      </trkpt>
      <trkpt lat="42.97377333" lon="-0.34543667">
        <ele>1609.0</ele>
        <time>2019-07-07T10:53:40.839Z</time>
      </trkpt>
      <trkpt lat="42.97377333" lon="-0.34543667">
        <ele>1609.0</ele>
        <time>2019-07-07T10:53:41.804Z</time>
      </trkpt>
      <trkpt lat="42.97370667" lon="-0.34567667">
        <ele>1608.0</ele>
        <time>2019-07-07T10:53:42.820Z</time>
      </trkpt>
      <trkpt lat="42.97370667" lon="-0.34567667">
        <ele>1608.0</ele>
        <time>2019-07-07T10:53:43.825Z</time>
      </trkpt>
      <trkpt lat="42.97373333" lon="-0.34595167">
        <ele>1605.0</ele>
        <time>2019-07-07T10:53:44.840Z</time>
      </trkpt>
      <trkpt lat="42.97374667" lon="-0.34609">
        <ele>1604.0</ele>
        <time>2019-07-07T10:53:45.817Z</time>
      </trkpt>
      <trkpt lat="42.97374667" lon="-0.34609">
        <ele>1604.0</ele>
        <time>2019-07-07T10:53:46.824Z</time>
      </trkpt>
      <trkpt lat="42.97372167" lon="-0.34632">
        <ele>1602.0</ele>
        <time>2019-07-07T10:53:47.816Z</time>
      </trkpt>
      <trkpt lat="42.97366833" lon="-0.34641">
        <ele>1602.0</ele>
        <time>2019-07-07T10:53:48.820Z</time>
      </trkpt>
      <trkpt lat="42.97366833" lon="-0.34641">
        <ele>1602.0</ele>
        <time>2019-07-07T10:53:49.803Z</time>
      </trkpt>
      <trkpt lat="42.97349833" lon="-0.34651333">
        <ele>1602.0</ele>
        <time>2019-07-07T10:53:50.819Z</time>
      </trkpt>
      <trkpt lat="42.97349833" lon="-0.34651333">
        <ele>1602.0</ele>
        <time>2019-07-07T10:53:51.826Z</time>
      </trkpt>
      <trkpt lat="42.97329" lon="-0.34650167">
        <ele>1600.0</ele>
        <time>2019-07-07T10:53:52.839Z</time>
      </trkpt>
      <trkpt lat="42.97329" lon="-0.34650167">
        <ele>1600.0</ele>
        <time>2019-07-07T10:53:53.804Z</time>
      </trkpt>
      <trkpt lat="42.97306167" lon="-0.34646833">
        <ele>1597.0</ele>
        <time>2019-07-07T10:53:54.840Z</time>
      </trkpt>
      <trkpt lat="42.972955" lon="-0.34644833">
        <ele>1596.0</ele>
        <time>2019-07-07T10:53:55.805Z</time>
      </trkpt>
      <trkpt lat="42.97285667" lon="-0.34641667">
        <ele>1595.0</ele>
        <time>2019-07-07T10:53:56.838Z</time>
      </trkpt>
      <trkpt lat="42.97285667" lon="-0.34641667">
        <ele>1595.0</ele>
        <time>2019-07-07T10:53:57.803Z</time>
      </trkpt>
      <trkpt lat="42.97270833" lon="-0.34627667">
        <ele>1593.0</ele>
        <time>2019-07-07T10:53:58.820Z</time>
      </trkpt>
      <trkpt lat="42.97270833" lon="-0.34627667">
        <ele>1593.0</ele>
        <time>2019-07-07T10:53:59.827Z</time>
      </trkpt>
      <trkpt lat="42.97263667" lon="-0.34605667">
        <ele>1591.0</ele>
        <time>2019-07-07T10:54:00.815Z</time>
      </trkpt>
      <trkpt lat="42.97263667" lon="-0.34605667">
        <ele>1591.0</ele>
        <time>2019-07-07T10:54:01.822Z</time>
      </trkpt>
      <trkpt lat="42.972525" lon="-0.345865">
        <ele>1589.0</ele>
        <time>2019-07-07T10:54:02.840Z</time>
      </trkpt>
      <trkpt lat="42.972525" lon="-0.345865">
        <ele>1589.0</ele>
        <time>2019-07-07T10:54:03.805Z</time>
      </trkpt>
      <trkpt lat="42.972345" lon="-0.34580167">
        <ele>1587.0</ele>
        <time>2019-07-07T10:54:04.838Z</time>
      </trkpt>
      <trkpt lat="42.972245" lon="-0.3458">
        <ele>1586.0</ele>
        <time>2019-07-07T10:54:05.830Z</time>
      </trkpt>
      <trkpt lat="42.972245" lon="-0.3458">
        <ele>1586.0</ele>
        <time>2019-07-07T10:54:06.835Z</time>
      </trkpt>
      <trkpt lat="42.97206167" lon="-0.34582833">
        <ele>1583.0</ele>
        <time>2019-07-07T10:54:07.816Z</time>
      </trkpt>
      <trkpt lat="42.97206167" lon="-0.34582833">
        <ele>1583.0</ele>
        <time>2019-07-07T10:54:08.823Z</time>
      </trkpt>
      <trkpt lat="42.971925" lon="-0.34597">
        <ele>1580.0</ele>
        <time>2019-07-07T10:54:09.820Z</time>
      </trkpt>
      <trkpt lat="42.971895" lon="-0.34609333">
        <ele>1578.0</ele>
        <time>2019-07-07T10:54:10.810Z</time>
      </trkpt>
      <trkpt lat="42.971895" lon="-0.34609333">
        <ele>1578.0</ele>
        <time>2019-07-07T10:54:11.815Z</time>
      </trkpt>
      <trkpt lat="42.97188667" lon="-0.346365">
        <ele>1577.0</ele>
        <time>2019-07-07T10:54:12.820Z</time>
      </trkpt>
      <trkpt lat="42.97188667" lon="-0.346365">
        <ele>1577.0</ele>
        <time>2019-07-07T10:54:13.825Z</time>
      </trkpt>
      <trkpt lat="42.97188167" lon="-0.34659">
        <ele>1575.0</ele>
        <time>2019-07-07T10:54:14.810Z</time>
      </trkpt>
      <trkpt lat="42.97187167" lon="-0.34668167">
        <ele>1574.0</ele>
        <time>2019-07-07T10:54:15.840Z</time>
      </trkpt>
      <trkpt lat="42.97187167" lon="-0.34668167">
        <ele>1574.0</ele>
        <time>2019-07-07T10:54:16.805Z</time>
      </trkpt>
      <trkpt lat="42.971815" lon="-0.34681833">
        <ele>1573.0</ele>
        <time>2019-07-07T10:54:17.823Z</time>
      </trkpt>
      <trkpt lat="42.971815" lon="-0.34681833">
        <ele>1573.0</ele>
        <time>2019-07-07T10:54:18.828Z</time>
      </trkpt>
      <trkpt lat="42.97173667" lon="-0.34681167">
        <ele>1572.0</ele>
        <time>2019-07-07T10:54:19.827Z</time>
      </trkpt>
      <trkpt lat="42.97173667" lon="-0.34681167">
        <ele>1572.0</ele>
        <time>2019-07-07T10:54:20.832Z</time>
      </trkpt>
      <trkpt lat="42.97165333" lon="-0.346715">
        <ele>1571.0</ele>
        <time>2019-07-07T10:54:21.802Z</time>
      </trkpt>
      <trkpt lat="42.971625" lon="-0.34664333">
        <ele>1570.0</ele>
        <time>2019-07-07T10:54:22.820Z</time>
      </trkpt>
      <trkpt lat="42.971625" lon="-0.34664333">
        <ele>1570.0</ele>
        <time>2019-07-07T10:54:23.826Z</time>
      </trkpt>
      <trkpt lat="42.97160167" lon="-0.346455">
        <ele>1569.0</ele>
        <time>2019-07-07T10:54:24.840Z</time>
      </trkpt>
      <trkpt lat="42.971595" lon="-0.34634">
        <ele>1568.0</ele>
        <time>2019-07-07T10:54:25.840Z</time>
      </trkpt>
      <trkpt lat="42.971595" lon="-0.34634">
        <ele>1568.0</ele>
        <time>2019-07-07T10:54:26.805Z</time>
      </trkpt>
      <trkpt lat="42.97155667" lon="-0.34609">
        <ele>1566.0</ele>
        <time>2019-07-07T10:54:27.832Z</time>
      </trkpt>
      <trkpt lat="42.97152333" lon="-0.34596667">
        <ele>1566.0</ele>
        <time>2019-07-07T10:54:28.803Z</time>
      </trkpt>
      <trkpt lat="42.97152333" lon="-0.34596667">
        <ele>1566.0</ele>
        <time>2019-07-07T10:54:29.808Z</time>
      </trkpt>
      <trkpt lat="42.97142833" lon="-0.34573667">
        <ele>1564.0</ele>
        <time>2019-07-07T10:54:30.830Z</time>
      </trkpt>
      <trkpt lat="42.97142833" lon="-0.34573667">
        <ele>1564.0</ele>
        <time>2019-07-07T10:54:31.836Z</time>
      </trkpt>
      <trkpt lat="42.97122667" lon="-0.34561333">
        <ele>1563.0</ele>
        <time>2019-07-07T10:54:32.807Z</time>
      </trkpt>
      <trkpt lat="42.97122667" lon="-0.34561333">
        <ele>1563.0</ele>
        <time>2019-07-07T10:54:33.812Z</time>
      </trkpt>
      <trkpt lat="42.97102" lon="-0.345485">
        <ele>1561.0</ele>
        <time>2019-07-07T10:54:34.830Z</time>
      </trkpt>
      <trkpt lat="42.97092667" lon="-0.34540167">
        <ele>1560.0</ele>
        <time>2019-07-07T10:54:35.829Z</time>
      </trkpt>
      <trkpt lat="42.97092667" lon="-0.34540167">
        <ele>1560.0</ele>
        <time>2019-07-07T10:54:36.836Z</time>
      </trkpt>
      <trkpt lat="42.97078167" lon="-0.34518667">
        <ele>1558.0</ele>
        <time>2019-07-07T10:54:37.803Z</time>
      </trkpt>
      <trkpt lat="42.97078167" lon="-0.34518667">
        <ele>1558.0</ele>
        <time>2019-07-07T10:54:38.808Z</time>
      </trkpt>
      <trkpt lat="42.97068" lon="-0.34490667">
        <ele>1557.0</ele>
        <time>2019-07-07T10:54:39.810Z</time>
      </trkpt>
      <trkpt lat="42.97061833" lon="-0.34476833">
        <ele>1556.0</ele>
        <time>2019-07-07T10:54:40.840Z</time>
      </trkpt>
      <trkpt lat="42.97061833" lon="-0.34476833">
        <ele>1556.0</ele>
        <time>2019-07-07T10:54:41.806Z</time>
      </trkpt>
      <trkpt lat="42.97047667" lon="-0.34448833">
        <ele>1554.0</ele>
        <time>2019-07-07T10:54:42.828Z</time>
      </trkpt>
      <trkpt lat="42.97047667" lon="-0.34448833">
        <ele>1554.0</ele>
        <time>2019-07-07T10:54:43.834Z</time>
      </trkpt>
      <trkpt lat="42.97032667" lon="-0.34419833">
        <ele>1552.0</ele>
        <time>2019-07-07T10:54:44.805Z</time>
      </trkpt>
      <trkpt lat="42.97025" lon="-0.34407">
        <ele>1551.0</ele>
        <time>2019-07-07T10:54:45.810Z</time>
      </trkpt>
      <trkpt lat="42.97025" lon="-0.34407">
        <ele>1551.0</ele>
        <time>2019-07-07T10:54:46.815Z</time>
      </trkpt>
      <trkpt lat="42.97007333" lon="-0.34388667">
        <ele>1549.0</ele>
        <time>2019-07-07T10:54:47.825Z</time>
      </trkpt>
      <trkpt lat="42.97007333" lon="-0.34388667">
        <ele>1549.0</ele>
        <time>2019-07-07T10:54:48.811Z</time>
      </trkpt>
      <trkpt lat="42.96990667" lon="-0.34374333">
        <ele>1547.0</ele>
        <time>2019-07-07T10:54:49.810Z</time>
      </trkpt>
      <trkpt lat="42.96990667" lon="-0.34374333">
        <ele>1547.0</ele>
        <time>2019-07-07T10:54:50.816Z</time>
      </trkpt>
      <trkpt lat="42.96983333" lon="-0.343525">
        <ele>1544.0</ele>
        <time>2019-07-07T10:54:51.840Z</time>
      </trkpt>
      <trkpt lat="42.96983333" lon="-0.343385">
        <ele>1543.0</ele>
        <time>2019-07-07T10:54:52.810Z</time>
      </trkpt>
      <trkpt lat="42.96983333" lon="-0.343385">
        <ele>1543.0</ele>
        <time>2019-07-07T10:54:53.815Z</time>
      </trkpt>
      <trkpt lat="42.96986667" lon="-0.34310667">
        <ele>1540.0</ele>
        <time>2019-07-07T10:54:54.805Z</time>
      </trkpt>
      <trkpt lat="42.96986667" lon="-0.34310667">
        <ele>1540.0</ele>
        <time>2019-07-07T10:54:55.811Z</time>
      </trkpt>
      <trkpt lat="42.96988333" lon="-0.342855">
        <ele>1538.0</ele>
        <time>2019-07-07T10:54:56.834Z</time>
      </trkpt>
      <trkpt lat="42.96988333" lon="-0.342855">
        <ele>1538.0</ele>
        <time>2019-07-07T10:54:57.839Z</time>
      </trkpt>
      <trkpt lat="42.96983333" lon="-0.34261333">
        <ele>1536.0</ele>
        <time>2019-07-07T10:54:58.810Z</time>
      </trkpt>
      <trkpt lat="42.96983333" lon="-0.34261333">
        <ele>1536.0</ele>
        <time>2019-07-07T10:54:59.815Z</time>
      </trkpt>
      <trkpt lat="42.96974667" lon="-0.34235333">
        <ele>1534.0</ele>
        <time>2019-07-07T10:55:00.840Z</time>
      </trkpt>
      <trkpt lat="42.969695" lon="-0.34221333">
        <ele>1533.0</ele>
        <time>2019-07-07T10:55:01.820Z</time>
      </trkpt>
      <trkpt lat="42.96963667" lon="-0.34207333">
        <ele>1532.0</ele>
        <time>2019-07-07T10:55:02.810Z</time>
      </trkpt>
      <trkpt lat="42.96963667" lon="-0.34207333">
        <ele>1532.0</ele>
        <time>2019-07-07T10:55:03.815Z</time>
      </trkpt>
      <trkpt lat="42.969495" lon="-0.34180667">
        <ele>1530.0</ele>
        <time>2019-07-07T10:55:04.818Z</time>
      </trkpt>
      <trkpt lat="42.96942667" lon="-0.34167833">
        <ele>1529.0</ele>
        <time>2019-07-07T10:55:05.830Z</time>
      </trkpt>
      <trkpt lat="42.96942667" lon="-0.34167833">
        <ele>1529.0</ele>
        <time>2019-07-07T10:55:06.835Z</time>
      </trkpt>
      <trkpt lat="42.969315" lon="-0.34144333">
        <ele>1527.0</ele>
        <time>2019-07-07T10:55:07.830Z</time>
      </trkpt>
      <trkpt lat="42.969315" lon="-0.34144333">
        <ele>1527.0</ele>
        <time>2019-07-07T10:55:08.836Z</time>
      </trkpt>
      <trkpt lat="42.969245" lon="-0.34121">
        <ele>1525.0</ele>
        <time>2019-07-07T10:55:09.812Z</time>
      </trkpt>
      <trkpt lat="42.96930333" lon="-0.34106667">
        <ele>1524.0</ele>
        <time>2019-07-07T10:55:10.840Z</time>
      </trkpt>
      <trkpt lat="42.96930333" lon="-0.34106667">
        <ele>1524.0</ele>
        <time>2019-07-07T10:55:11.805Z</time>
      </trkpt>
      <trkpt lat="42.96940667" lon="-0.34082833">
        <ele>1521.0</ele>
        <time>2019-07-07T10:55:12.836Z</time>
      </trkpt>
      <trkpt lat="42.96940667" lon="-0.34082833">
        <ele>1521.0</ele>
        <time>2019-07-07T10:55:13.801Z</time>
      </trkpt>
      <trkpt lat="42.96942833" lon="-0.340595">
        <ele>1519.0</ele>
        <time>2019-07-07T10:55:14.825Z</time>
      </trkpt>
      <trkpt lat="42.96939" lon="-0.34048833">
        <ele>1518.0</ele>
        <time>2019-07-07T10:55:15.836Z</time>
      </trkpt>
      <trkpt lat="42.96934333" lon="-0.34037833">
        <ele>1517.0</ele>
        <time>2019-07-07T10:55:16.810Z</time>
      </trkpt>
      <trkpt lat="42.96934333" lon="-0.34037833">
        <ele>1517.0</ele>
        <time>2019-07-07T10:55:17.833Z</time>
      </trkpt>
      <trkpt lat="42.96925667" lon="-0.34013167">
        <ele>1515.0</ele>
        <time>2019-07-07T10:55:18.820Z</time>
      </trkpt>
      <trkpt lat="42.96925667" lon="-0.34013167">
        <ele>1515.0</ele>
        <time>2019-07-07T10:55:19.828Z</time>
      </trkpt>
      <trkpt lat="42.96918667" lon="-0.339845">
        <ele>1513.0</ele>
        <time>2019-07-07T10:55:20.810Z</time>
      </trkpt>
      <trkpt lat="42.96918667" lon="-0.339845">
        <ele>1513.0</ele>
        <time>2019-07-07T10:55:21.815Z</time>
      </trkpt>
      <trkpt lat="42.96910333" lon="-0.33954667">
        <ele>1511.0</ele>
        <time>2019-07-07T10:55:22.830Z</time>
      </trkpt>
      <trkpt lat="42.96910333" lon="-0.33954667">
        <ele>1511.0</ele>
        <time>2019-07-07T10:55:23.816Z</time>
      </trkpt>
      <trkpt lat="42.96903667" lon="-0.33922167">
        <ele>1509.0</ele>
        <time>2019-07-07T10:55:24.836Z</time>
      </trkpt>
      <trkpt lat="42.96903667" lon="-0.33922167">
        <ele>1509.0</ele>
        <time>2019-07-07T10:55:25.802Z</time>
      </trkpt>
      <trkpt lat="42.96900333" lon="-0.33887833">
        <ele>1507.0</ele>
        <time>2019-07-07T10:55:26.820Z</time>
      </trkpt>
      <trkpt lat="42.96898" lon="-0.33870667">
        <ele>1505.0</ele>
        <time>2019-07-07T10:55:27.820Z</time>
      </trkpt>
      <trkpt lat="42.96898" lon="-0.33870667">
        <ele>1505.0</ele>
        <time>2019-07-07T10:55:28.828Z</time>
      </trkpt>
      <trkpt lat="42.96890833" lon="-0.338365">
        <ele>1503.0</ele>
        <time>2019-07-07T10:55:29.840Z</time>
      </trkpt>
      <trkpt lat="42.96887667" lon="-0.33819667">
        <ele>1501.0</ele>
        <time>2019-07-07T10:55:30.840Z</time>
      </trkpt>
      <trkpt lat="42.96887667" lon="-0.33819667">
        <ele>1501.0</ele>
        <time>2019-07-07T10:55:31.805Z</time>
      </trkpt>
      <trkpt lat="42.96885" lon="-0.33788">
        <ele>1499.0</ele>
        <time>2019-07-07T10:55:32.804Z</time>
      </trkpt>
      <trkpt lat="42.96885" lon="-0.33788">
        <ele>1499.0</ele>
        <time>2019-07-07T10:55:33.809Z</time>
      </trkpt>
      <trkpt lat="42.96888833" lon="-0.33762">
        <ele>1497.0</ele>
        <time>2019-07-07T10:55:34.820Z</time>
      </trkpt>
      <trkpt lat="42.96891" lon="-0.33750167">
        <ele>1494.0</ele>
        <time>2019-07-07T10:55:35.825Z</time>
      </trkpt>
      <trkpt lat="42.96891" lon="-0.33750167">
        <ele>1494.0</ele>
        <time>2019-07-07T10:55:36.830Z</time>
      </trkpt>
      <trkpt lat="42.968875" lon="-0.33727333">
        <ele>1493.0</ele>
        <time>2019-07-07T10:55:37.830Z</time>
      </trkpt>
      <trkpt lat="42.968845" lon="-0.33717">
        <ele>1492.0</ele>
        <time>2019-07-07T10:55:38.840Z</time>
      </trkpt>
      <trkpt lat="42.968845" lon="-0.33717">
        <ele>1492.0</ele>
        <time>2019-07-07T10:55:39.805Z</time>
      </trkpt>
      <trkpt lat="42.96886167" lon="-0.33695333">
        <ele>1491.0</ele>
        <time>2019-07-07T10:55:40.811Z</time>
      </trkpt>
      <trkpt lat="42.96886167" lon="-0.33695333">
        <ele>1491.0</ele>
        <time>2019-07-07T10:55:41.816Z</time>
      </trkpt>
      <trkpt lat="42.96886333" lon="-0.33676333">
        <ele>1490.0</ele>
        <time>2019-07-07T10:55:42.830Z</time>
      </trkpt>
      <trkpt lat="42.96883333" lon="-0.33667833">
        <ele>1489.0</ele>
        <time>2019-07-07T10:55:43.815Z</time>
      </trkpt>
      <trkpt lat="42.96883333" lon="-0.33667833">
        <ele>1489.0</ele>
        <time>2019-07-07T10:55:44.820Z</time>
      </trkpt>
      <trkpt lat="42.9687" lon="-0.33657167">
        <ele>1487.0</ele>
        <time>2019-07-07T10:55:45.820Z</time>
      </trkpt>
      <trkpt lat="42.968615" lon="-0.33654833">
        <ele>1486.0</ele>
        <time>2019-07-07T10:55:46.827Z</time>
      </trkpt>
      <trkpt lat="42.968615" lon="-0.33654833">
        <ele>1486.0</ele>
        <time>2019-07-07T10:55:47.822Z</time>
      </trkpt>
      <trkpt lat="42.968435" lon="-0.33651833">
        <ele>1485.0</ele>
        <time>2019-07-07T10:55:48.827Z</time>
      </trkpt>
      <trkpt lat="42.96834167" lon="-0.336475">
        <ele>1484.0</ele>
        <time>2019-07-07T10:55:49.830Z</time>
      </trkpt>
      <trkpt lat="42.96825333" lon="-0.336415">
        <ele>1483.0</ele>
        <time>2019-07-07T10:55:50.820Z</time>
      </trkpt>
      <trkpt lat="42.96825333" lon="-0.336415">
        <ele>1483.0</ele>
        <time>2019-07-07T10:55:51.828Z</time>
      </trkpt>
      <trkpt lat="42.968105" lon="-0.33625833">
        <ele>1482.0</ele>
        <time>2019-07-07T10:55:52.816Z</time>
      </trkpt>
      <trkpt lat="42.968105" lon="-0.33625833">
        <ele>1482.0</ele>
        <time>2019-07-07T10:55:53.838Z</time>
      </trkpt>
      <trkpt lat="42.968" lon="-0.33606333">
        <ele>1480.0</ele>
        <time>2019-07-07T10:55:54.810Z</time>
      </trkpt>
      <trkpt lat="42.96794167" lon="-0.33598333">
        <ele>1479.0</ele>
        <time>2019-07-07T10:55:55.840Z</time>
      </trkpt>
      <trkpt lat="42.96794167" lon="-0.33598333">
        <ele>1479.0</ele>
        <time>2019-07-07T10:55:56.805Z</time>
      </trkpt>
      <trkpt lat="42.96777333" lon="-0.335875">
        <ele>1477.0</ele>
        <time>2019-07-07T10:55:57.838Z</time>
      </trkpt>
      <trkpt lat="42.96767667" lon="-0.335825">
        <ele>1476.0</ele>
        <time>2019-07-07T10:55:58.805Z</time>
      </trkpt>
      <trkpt lat="42.96767667" lon="-0.335825">
        <ele>1476.0</ele>
        <time>2019-07-07T10:55:59.810Z</time>
      </trkpt>
      <trkpt lat="42.96747333" lon="-0.33569167">
        <ele>1474.0</ele>
        <time>2019-07-07T10:56:00.820Z</time>
      </trkpt>
      <trkpt lat="42.96747333" lon="-0.33569167">
        <ele>1474.0</ele>
        <time>2019-07-07T10:56:01.830Z</time>
      </trkpt>
      <trkpt lat="42.967265" lon="-0.33558">
        <ele>1472.0</ele>
        <time>2019-07-07T10:56:02.810Z</time>
      </trkpt>
      <trkpt lat="42.967265" lon="-0.33558">
        <ele>1472.0</ele>
        <time>2019-07-07T10:56:03.815Z</time>
      </trkpt>
      <trkpt lat="42.96703333" lon="-0.335555">
        <ele>1471.0</ele>
        <time>2019-07-07T10:56:04.823Z</time>
      </trkpt>
      <trkpt lat="42.96691667" lon="-0.33553333">
        <ele>1470.0</ele>
        <time>2019-07-07T10:56:05.820Z</time>
      </trkpt>
      <trkpt lat="42.96691667" lon="-0.33553333">
        <ele>1470.0</ele>
        <time>2019-07-07T10:56:06.826Z</time>
      </trkpt>
      <trkpt lat="42.96669167" lon="-0.335435">
        <ele>1468.0</ele>
        <time>2019-07-07T10:56:07.839Z</time>
      </trkpt>
      <trkpt lat="42.966595" lon="-0.33536667">
        <ele>1467.0</ele>
        <time>2019-07-07T10:56:08.830Z</time>
      </trkpt>
      <trkpt lat="42.966595" lon="-0.33536667">
        <ele>1467.0</ele>
        <time>2019-07-07T10:56:09.835Z</time>
      </trkpt>
      <trkpt lat="42.96644833" lon="-0.33520167">
        <ele>1464.0</ele>
        <time>2019-07-07T10:56:10.830Z</time>
      </trkpt>
      <trkpt lat="42.96644833" lon="-0.33520167">
        <ele>1464.0</ele>
        <time>2019-07-07T10:56:11.835Z</time>
      </trkpt>
      <trkpt lat="42.96639833" lon="-0.33494333">
        <ele>1462.0</ele>
        <time>2019-07-07T10:56:12.810Z</time>
      </trkpt>
      <trkpt lat="42.96639833" lon="-0.33494333">
        <ele>1462.0</ele>
        <time>2019-07-07T10:56:13.816Z</time>
      </trkpt>
      <trkpt lat="42.96635333" lon="-0.33468167">
        <ele>1460.0</ele>
        <time>2019-07-07T10:56:14.836Z</time>
      </trkpt>
      <trkpt lat="42.96635333" lon="-0.33468167">
        <ele>1460.0</ele>
        <time>2019-07-07T10:56:15.803Z</time>
      </trkpt>
      <trkpt lat="42.96625333" lon="-0.33444667">
        <ele>1458.0</ele>
        <time>2019-07-07T10:56:16.810Z</time>
      </trkpt>
      <trkpt lat="42.96625333" lon="-0.33444667">
        <ele>1458.0</ele>
        <time>2019-07-07T10:56:17.816Z</time>
      </trkpt>
      <trkpt lat="42.96611667" lon="-0.33432">
        <ele>1456.0</ele>
        <time>2019-07-07T10:56:18.840Z</time>
      </trkpt>
      <trkpt lat="42.96611667" lon="-0.33432">
        <ele>1456.0</ele>
        <time>2019-07-07T10:56:19.818Z</time>
      </trkpt>
      <trkpt lat="42.96590667" lon="-0.33437667">
        <ele>1454.0</ele>
        <time>2019-07-07T10:56:20.820Z</time>
      </trkpt>
      <trkpt lat="42.96590667" lon="-0.33437667">
        <ele>1454.0</ele>
        <time>2019-07-07T10:56:21.830Z</time>
      </trkpt>
      <trkpt lat="42.96573" lon="-0.33443333">
        <ele>1452.0</ele>
        <time>2019-07-07T10:56:22.810Z</time>
      </trkpt>
      <trkpt lat="42.96573" lon="-0.33443333">
        <ele>1452.0</ele>
        <time>2019-07-07T10:56:23.816Z</time>
      </trkpt>
      <trkpt lat="42.96554833" lon="-0.33439167">
        <ele>1449.0</ele>
        <time>2019-07-07T10:56:24.820Z</time>
      </trkpt>
      <trkpt lat="42.96545333" lon="-0.33431167">
        <ele>1448.0</ele>
        <time>2019-07-07T10:56:25.820Z</time>
      </trkpt>
      <trkpt lat="42.96545333" lon="-0.33431167">
        <ele>1448.0</ele>
        <time>2019-07-07T10:56:26.826Z</time>
      </trkpt>
      <trkpt lat="42.96534167" lon="-0.334095">
        <ele>1446.0</ele>
        <time>2019-07-07T10:56:27.810Z</time>
      </trkpt>
      <trkpt lat="42.96534167" lon="-0.334095">
        <ele>1446.0</ele>
        <time>2019-07-07T10:56:28.815Z</time>
      </trkpt>
      <trkpt lat="42.965285" lon="-0.33383833">
        <ele>1444.0</ele>
        <time>2019-07-07T10:56:29.838Z</time>
      </trkpt>
      <trkpt lat="42.96524667" lon="-0.333695">
        <ele>1443.0</ele>
        <time>2019-07-07T10:56:30.810Z</time>
      </trkpt>
      <trkpt lat="42.96524667" lon="-0.333695">
        <ele>1443.0</ele>
        <time>2019-07-07T10:56:31.815Z</time>
      </trkpt>
      <trkpt lat="42.96515667" lon="-0.33338833">
        <ele>1440.0</ele>
        <time>2019-07-07T10:56:32.830Z</time>
      </trkpt>
      <trkpt lat="42.96515667" lon="-0.33338833">
        <ele>1440.0</ele>
        <time>2019-07-07T10:56:33.836Z</time>
      </trkpt>
      <trkpt lat="42.96511833" lon="-0.33306">
        <ele>1438.0</ele>
        <time>2019-07-07T10:56:34.822Z</time>
      </trkpt>
      <trkpt lat="42.96510167" lon="-0.33291167">
        <ele>1437.0</ele>
        <time>2019-07-07T10:56:35.840Z</time>
      </trkpt>
      <trkpt lat="42.96510167" lon="-0.33291167">
        <ele>1437.0</ele>
        <time>2019-07-07T10:56:36.827Z</time>
      </trkpt>
      <trkpt lat="42.96503667" lon="-0.33262833">
        <ele>1435.0</ele>
        <time>2019-07-07T10:56:37.805Z</time>
      </trkpt>
      <trkpt lat="42.96503667" lon="-0.33262833">
        <ele>1435.0</ele>
        <time>2019-07-07T10:56:38.810Z</time>
      </trkpt>
      <trkpt lat="42.965" lon="-0.33236">
        <ele>1433.0</ele>
        <time>2019-07-07T10:56:39.838Z</time>
      </trkpt>
      <trkpt lat="42.965" lon="-0.33236">
        <ele>1433.0</ele>
        <time>2019-07-07T10:56:40.804Z</time>
      </trkpt>
      <trkpt lat="42.96490667" lon="-0.332105">
        <ele>1431.0</ele>
        <time>2019-07-07T10:56:41.820Z</time>
      </trkpt>
      <trkpt lat="42.96490667" lon="-0.332105">
        <ele>1431.0</ele>
        <time>2019-07-07T10:56:42.828Z</time>
      </trkpt>
      <trkpt lat="42.96474333" lon="-0.33189333">
        <ele>1430.0</ele>
        <time>2019-07-07T10:56:43.810Z</time>
      </trkpt>
      <trkpt lat="42.96465667" lon="-0.331805">
        <ele>1429.0</ele>
        <time>2019-07-07T10:56:44.809Z</time>
      </trkpt>
      <trkpt lat="42.96465667" lon="-0.331805">
        <ele>1429.0</ele>
        <time>2019-07-07T10:56:45.814Z</time>
      </trkpt>
      <trkpt lat="42.96451667" lon="-0.33161667">
        <ele>1427.0</ele>
        <time>2019-07-07T10:56:46.810Z</time>
      </trkpt>
      <trkpt lat="42.96451667" lon="-0.33161667">
        <ele>1427.0</ele>
        <time>2019-07-07T10:56:47.829Z</time>
      </trkpt>
      <trkpt lat="42.96433" lon="-0.33149167">
        <ele>1425.0</ele>
        <time>2019-07-07T10:56:48.843Z</time>
      </trkpt>
      <trkpt lat="42.96433" lon="-0.33149167">
        <ele>1425.0</ele>
        <time>2019-07-07T10:56:49.809Z</time>
      </trkpt>
      <trkpt lat="42.96412833" lon="-0.33138">
        <ele>1423.0</ele>
        <time>2019-07-07T10:56:50.810Z</time>
      </trkpt>
      <trkpt lat="42.96412833" lon="-0.33138">
        <ele>1423.0</ele>
        <time>2019-07-07T10:56:51.816Z</time>
      </trkpt>
      <trkpt lat="42.96390333" lon="-0.331265">
        <ele>1421.0</ele>
        <time>2019-07-07T10:56:52.840Z</time>
      </trkpt>
      <trkpt lat="42.96390333" lon="-0.331265">
        <ele>1421.0</ele>
        <time>2019-07-07T10:56:53.805Z</time>
      </trkpt>
      <trkpt lat="42.96370833" lon="-0.331175">
        <ele>1420.0</ele>
        <time>2019-07-07T10:56:54.820Z</time>
      </trkpt>
      <trkpt lat="42.96362167" lon="-0.33112167">
        <ele>1419.0</ele>
        <time>2019-07-07T10:56:55.818Z</time>
      </trkpt>
      <trkpt lat="42.96362167" lon="-0.33112167">
        <ele>1419.0</ele>
        <time>2019-07-07T10:56:56.825Z</time>
      </trkpt>
      <trkpt lat="42.96349" lon="-0.33091333">
        <ele>1417.0</ele>
        <time>2019-07-07T10:56:57.810Z</time>
      </trkpt>
      <trkpt lat="42.96349" lon="-0.33091333">
        <ele>1417.0</ele>
        <time>2019-07-07T10:56:58.815Z</time>
      </trkpt>
      <trkpt lat="42.96336833" lon="-0.33068333">
        <ele>1415.0</ele>
        <time>2019-07-07T10:56:59.820Z</time>
      </trkpt>
      <trkpt lat="42.96336833" lon="-0.33068333">
        <ele>1415.0</ele>
        <time>2019-07-07T10:57:00.826Z</time>
      </trkpt>
      <trkpt lat="42.96316167" lon="-0.33053167">
        <ele>1413.0</ele>
        <time>2019-07-07T10:57:01.820Z</time>
      </trkpt>
      <trkpt lat="42.96316167" lon="-0.33053167">
        <ele>1413.0</ele>
        <time>2019-07-07T10:57:02.827Z</time>
      </trkpt>
      <trkpt lat="42.962935" lon="-0.33042667">
        <ele>1410.0</ele>
        <time>2019-07-07T10:57:03.809Z</time>
      </trkpt>
      <trkpt lat="42.962825" lon="-0.33041167">
        <ele>1409.0</ele>
        <time>2019-07-07T10:57:04.809Z</time>
      </trkpt>
      <trkpt lat="42.962825" lon="-0.33041167">
        <ele>1409.0</ele>
        <time>2019-07-07T10:57:05.818Z</time>
      </trkpt>
      <trkpt lat="42.96259167" lon="-0.330485">
        <ele>1407.0</ele>
        <time>2019-07-07T10:57:06.840Z</time>
      </trkpt>
      <trkpt lat="42.96259167" lon="-0.330485">
        <ele>1407.0</ele>
        <time>2019-07-07T10:57:07.805Z</time>
      </trkpt>
      <trkpt lat="42.96235667" lon="-0.33059833">
        <ele>1405.0</ele>
        <time>2019-07-07T10:57:08.840Z</time>
      </trkpt>
      <trkpt lat="42.96224167" lon="-0.33065333">
        <ele>1404.0</ele>
        <time>2019-07-07T10:57:09.818Z</time>
      </trkpt>
      <trkpt lat="42.96213667" lon="-0.33071">
        <ele>1403.0</ele>
        <time>2019-07-07T10:57:10.840Z</time>
      </trkpt>
      <trkpt lat="42.96213667" lon="-0.33071">
        <ele>1403.0</ele>
        <time>2019-07-07T10:57:11.805Z</time>
      </trkpt>
      <trkpt lat="42.96193667" lon="-0.33084667">
        <ele>1401.0</ele>
        <time>2019-07-07T10:57:12.840Z</time>
      </trkpt>
      <trkpt lat="42.96193667" lon="-0.33084667">
        <ele>1401.0</ele>
        <time>2019-07-07T10:57:13.805Z</time>
      </trkpt>
      <trkpt lat="42.96170833" lon="-0.33096667">
        <ele>1399.0</ele>
        <time>2019-07-07T10:57:14.834Z</time>
      </trkpt>
      <trkpt lat="42.96158333" lon="-0.33102333">
        <ele>1398.0</ele>
        <time>2019-07-07T10:57:15.830Z</time>
      </trkpt>
      <trkpt lat="42.96158333" lon="-0.33102333">
        <ele>1398.0</ele>
        <time>2019-07-07T10:57:16.835Z</time>
      </trkpt>
      <trkpt lat="42.96134" lon="-0.33107">
        <ele>1395.0</ele>
        <time>2019-07-07T10:57:17.820Z</time>
      </trkpt>
      <trkpt lat="42.96134" lon="-0.33107">
        <ele>1395.0</ele>
        <time>2019-07-07T10:57:18.825Z</time>
      </trkpt>
      <trkpt lat="42.96110667" lon="-0.331075">
        <ele>1393.0</ele>
        <time>2019-07-07T10:57:19.810Z</time>
      </trkpt>
      <trkpt lat="42.96110667" lon="-0.331075">
        <ele>1393.0</ele>
        <time>2019-07-07T10:57:20.815Z</time>
      </trkpt>
      <trkpt lat="42.96088667" lon="-0.33115333">
        <ele>1391.0</ele>
        <time>2019-07-07T10:57:21.840Z</time>
      </trkpt>
      <trkpt lat="42.96088667" lon="-0.33115333">
        <ele>1391.0</ele>
        <time>2019-07-07T10:57:22.806Z</time>
      </trkpt>
      <trkpt lat="42.96067667" lon="-0.3312">
        <ele>1389.0</ele>
        <time>2019-07-07T10:57:23.818Z</time>
      </trkpt>
      <trkpt lat="42.96067667" lon="-0.3312">
        <ele>1389.0</ele>
        <time>2019-07-07T10:57:24.829Z</time>
      </trkpt>
      <trkpt lat="42.96047167" lon="-0.33129333">
        <ele>1387.0</ele>
        <time>2019-07-07T10:57:25.827Z</time>
      </trkpt>
      <trkpt lat="42.96047167" lon="-0.33129333">
        <ele>1387.0</ele>
        <time>2019-07-07T10:57:26.840Z</time>
      </trkpt>
      <trkpt lat="42.96029833" lon="-0.33147167">
        <ele>1384.0</ele>
        <time>2019-07-07T10:57:27.820Z</time>
      </trkpt>
      <trkpt lat="42.96022667" lon="-0.33156667">
        <ele>1383.0</ele>
        <time>2019-07-07T10:57:28.810Z</time>
      </trkpt>
      <trkpt lat="42.96022667" lon="-0.33156667">
        <ele>1383.0</ele>
        <time>2019-07-07T10:57:29.815Z</time>
      </trkpt>
      <trkpt lat="42.96008333" lon="-0.33174333">
        <ele>1381.0</ele>
        <time>2019-07-07T10:57:30.836Z</time>
      </trkpt>
      <trkpt lat="42.96008333" lon="-0.33174333">
        <ele>1381.0</ele>
        <time>2019-07-07T10:57:31.802Z</time>
      </trkpt>
      <trkpt lat="42.95997833" lon="-0.331945">
        <ele>1380.0</ele>
        <time>2019-07-07T10:57:32.833Z</time>
      </trkpt>
      <trkpt lat="42.959955" lon="-0.332065">
        <ele>1378.0</ele>
        <time>2019-07-07T10:57:33.810Z</time>
      </trkpt>
      <trkpt lat="42.959955" lon="-0.332065">
        <ele>1378.0</ele>
        <time>2019-07-07T10:57:34.816Z</time>
      </trkpt>
      <trkpt lat="42.95989" lon="-0.33230167">
        <ele>1376.0</ele>
        <time>2019-07-07T10:57:35.838Z</time>
      </trkpt>
      <trkpt lat="42.95989" lon="-0.33230167">
        <ele>1376.0</ele>
        <time>2019-07-07T10:57:36.804Z</time>
      </trkpt>
      <trkpt lat="42.95975833" lon="-0.332485">
        <ele>1374.0</ele>
        <time>2019-07-07T10:57:37.821Z</time>
      </trkpt>
      <trkpt lat="42.95966833" lon="-0.33254833">
        <ele>1373.0</ele>
        <time>2019-07-07T10:57:38.840Z</time>
      </trkpt>
      <trkpt lat="42.95966833" lon="-0.33254833">
        <ele>1373.0</ele>
        <time>2019-07-07T10:57:39.805Z</time>
      </trkpt>
      <trkpt lat="42.95946167" lon="-0.33259667">
        <ele>1371.0</ele>
        <time>2019-07-07T10:57:40.820Z</time>
      </trkpt>
      <trkpt lat="42.95946167" lon="-0.33259667">
        <ele>1371.0</ele>
        <time>2019-07-07T10:57:41.833Z</time>
      </trkpt>
      <trkpt lat="42.95923333" lon="-0.33259">
        <ele>1368.0</ele>
        <time>2019-07-07T10:57:42.840Z</time>
      </trkpt>
      <trkpt lat="42.95923333" lon="-0.33259">
        <ele>1368.0</ele>
        <time>2019-07-07T10:57:43.805Z</time>
      </trkpt>
      <trkpt lat="42.95900167" lon="-0.33265">
        <ele>1366.0</ele>
        <time>2019-07-07T10:57:44.818Z</time>
      </trkpt>
      <trkpt lat="42.95889" lon="-0.33267">
        <ele>1365.0</ele>
        <time>2019-07-07T10:57:45.840Z</time>
      </trkpt>
      <trkpt lat="42.95889" lon="-0.33267">
        <ele>1365.0</ele>
        <time>2019-07-07T10:57:46.806Z</time>
      </trkpt>
      <trkpt lat="42.95870167" lon="-0.33257667">
        <ele>1363.0</ele>
        <time>2019-07-07T10:57:47.810Z</time>
      </trkpt>
      <trkpt lat="42.95870167" lon="-0.33257667">
        <ele>1363.0</ele>
        <time>2019-07-07T10:57:48.815Z</time>
      </trkpt>
      <trkpt lat="42.95853667" lon="-0.3324">
        <ele>1361.0</ele>
        <time>2019-07-07T10:57:49.830Z</time>
      </trkpt>
      <trkpt lat="42.958455" lon="-0.332345">
        <ele>1360.0</ele>
        <time>2019-07-07T10:57:50.809Z</time>
      </trkpt>
      <trkpt lat="42.958455" lon="-0.332345">
        <ele>1360.0</ele>
        <time>2019-07-07T10:57:51.817Z</time>
      </trkpt>
      <trkpt lat="42.95828333" lon="-0.33234333">
        <ele>1357.0</ele>
        <time>2019-07-07T10:57:52.837Z</time>
      </trkpt>
      <trkpt lat="42.95821833" lon="-0.33237667">
        <ele>1356.0</ele>
        <time>2019-07-07T10:57:53.820Z</time>
      </trkpt>
      <trkpt lat="42.95821833" lon="-0.33237667">
        <ele>1356.0</ele>
        <time>2019-07-07T10:57:54.830Z</time>
      </trkpt>
      <trkpt lat="42.95817" lon="-0.33251667">
        <ele>1354.0</ele>
        <time>2019-07-07T10:57:55.820Z</time>
      </trkpt>
      <trkpt lat="42.95817" lon="-0.33251667">
        <ele>1354.0</ele>
        <time>2019-07-07T10:57:56.826Z</time>
      </trkpt>
      <trkpt lat="42.95821333" lon="-0.332675">
        <ele>1352.0</ele>
        <time>2019-07-07T10:57:57.818Z</time>
      </trkpt>
      <trkpt lat="42.95821333" lon="-0.332675">
        <ele>1352.0</ele>
        <time>2019-07-07T10:57:58.823Z</time>
      </trkpt>
      <trkpt lat="42.958315" lon="-0.33279667">
        <ele>1351.0</ele>
        <time>2019-07-07T10:57:59.810Z</time>
      </trkpt>
      <trkpt lat="42.958375" lon="-0.33284667">
        <ele>1350.0</ele>
        <time>2019-07-07T10:58:00.833Z</time>
      </trkpt>
      <trkpt lat="42.958375" lon="-0.33284667">
        <ele>1350.0</ele>
        <time>2019-07-07T10:58:01.839Z</time>
      </trkpt>
      <trkpt lat="42.95850833" lon="-0.33291">
        <ele>1348.0</ele>
        <time>2019-07-07T10:58:02.840Z</time>
      </trkpt>
      <trkpt lat="42.95850833" lon="-0.33291">
        <ele>1348.0</ele>
        <time>2019-07-07T10:58:03.805Z</time>
      </trkpt>
      <trkpt lat="42.95865333" lon="-0.33294167">
        <ele>1347.0</ele>
        <time>2019-07-07T10:58:04.822Z</time>
      </trkpt>
      <trkpt lat="42.95865333" lon="-0.33294167">
        <ele>1347.0</ele>
        <time>2019-07-07T10:58:05.830Z</time>
      </trkpt>
      <trkpt lat="42.958795" lon="-0.33295">
        <ele>1346.0</ele>
        <time>2019-07-07T10:58:06.807Z</time>
      </trkpt>
      <trkpt lat="42.958795" lon="-0.33295">
        <ele>1346.0</ele>
        <time>2019-07-07T10:58:07.813Z</time>
      </trkpt>
      <trkpt lat="42.95893833" lon="-0.33294833">
        <ele>1345.0</ele>
        <time>2019-07-07T10:58:08.830Z</time>
      </trkpt>
      <trkpt lat="42.95893833" lon="-0.33294833">
        <ele>1345.0</ele>
        <time>2019-07-07T10:58:09.835Z</time>
      </trkpt>
      <trkpt lat="42.95907833" lon="-0.33291333">
        <ele>1346.0</ele>
        <time>2019-07-07T10:58:10.840Z</time>
      </trkpt>
      <trkpt lat="42.95907833" lon="-0.33291333">
        <ele>1346.0</ele>
        <time>2019-07-07T10:58:11.805Z</time>
      </trkpt>
      <trkpt lat="42.95922833" lon="-0.33290333">
        <ele>1346.0</ele>
        <time>2019-07-07T10:58:12.815Z</time>
      </trkpt>
      <trkpt lat="42.95922833" lon="-0.33290333">
        <ele>1346.0</ele>
        <time>2019-07-07T10:58:13.821Z</time>
      </trkpt>
      <trkpt lat="42.95937667" lon="-0.33291333">
        <ele>1346.0</ele>
        <time>2019-07-07T10:58:14.810Z</time>
      </trkpt>
      <trkpt lat="42.959455" lon="-0.33292">
        <ele>1346.0</ele>
        <time>2019-07-07T10:58:15.830Z</time>
      </trkpt>
      <trkpt lat="42.959455" lon="-0.33292">
        <ele>1346.0</ele>
        <time>2019-07-07T10:58:16.835Z</time>
      </trkpt>
      <trkpt lat="42.95960833" lon="-0.332955">
        <ele>1346.0</ele>
        <time>2019-07-07T10:58:17.820Z</time>
      </trkpt>
      <trkpt lat="42.95960833" lon="-0.332955">
        <ele>1346.0</ele>
        <time>2019-07-07T10:58:18.826Z</time>
      </trkpt>
      <trkpt lat="42.95978667" lon="-0.332975">
        <ele>1345.0</ele>
        <time>2019-07-07T10:58:19.840Z</time>
      </trkpt>
      <trkpt lat="42.95978667" lon="-0.332975">
        <ele>1345.0</ele>
        <time>2019-07-07T10:58:20.805Z</time>
      </trkpt>
      <trkpt lat="42.95997667" lon="-0.33296667">
        <ele>1343.0</ele>
        <time>2019-07-07T10:58:21.830Z</time>
      </trkpt>
      <trkpt lat="42.96007" lon="-0.33294833">
        <ele>1342.0</ele>
        <time>2019-07-07T10:58:22.806Z</time>
      </trkpt>
      <trkpt lat="42.96007" lon="-0.33294833">
        <ele>1342.0</ele>
        <time>2019-07-07T10:58:23.811Z</time>
      </trkpt>
      <trkpt lat="42.96025667" lon="-0.33286667">
        <ele>1340.0</ele>
        <time>2019-07-07T10:58:24.810Z</time>
      </trkpt>
      <trkpt lat="42.96025667" lon="-0.33286667">
        <ele>1340.0</ele>
        <time>2019-07-07T10:58:25.804Z</time>
      </trkpt>
      <trkpt lat="42.96043833" lon="-0.33276">
        <ele>1338.0</ele>
        <time>2019-07-07T10:58:26.820Z</time>
      </trkpt>
      <trkpt lat="42.96043833" lon="-0.33276">
        <ele>1338.0</ele>
        <time>2019-07-07T10:58:27.826Z</time>
      </trkpt>
      <trkpt lat="42.96063833" lon="-0.33273">
        <ele>1337.0</ele>
        <time>2019-07-07T10:58:28.840Z</time>
      </trkpt>
      <trkpt lat="42.96063833" lon="-0.33273">
        <ele>1337.0</ele>
        <time>2019-07-07T10:58:29.805Z</time>
      </trkpt>
      <trkpt lat="42.96081333" lon="-0.33283167">
        <ele>1335.0</ele>
        <time>2019-07-07T10:58:30.810Z</time>
      </trkpt>
      <trkpt lat="42.96081333" lon="-0.33283167">
        <ele>1335.0</ele>
        <time>2019-07-07T10:58:31.815Z</time>
      </trkpt>
      <trkpt lat="42.96099" lon="-0.332965">
        <ele>1333.0</ele>
        <time>2019-07-07T10:58:32.810Z</time>
      </trkpt>
      <trkpt lat="42.96099" lon="-0.332965">
        <ele>1333.0</ele>
        <time>2019-07-07T10:58:33.815Z</time>
      </trkpt>
      <trkpt lat="42.96116667" lon="-0.33298667">
        <ele>1331.0</ele>
        <time>2019-07-07T10:58:34.830Z</time>
      </trkpt>
      <trkpt lat="42.96116667" lon="-0.33298667">
        <ele>1331.0</ele>
        <time>2019-07-07T10:58:35.837Z</time>
      </trkpt>
      <trkpt lat="42.961335" lon="-0.33284167">
        <ele>1329.0</ele>
        <time>2019-07-07T10:58:36.824Z</time>
      </trkpt>
      <trkpt lat="42.961335" lon="-0.33284167">
        <ele>1329.0</ele>
        <time>2019-07-07T10:58:37.830Z</time>
      </trkpt>
      <trkpt lat="42.96153167" lon="-0.33268833">
        <ele>1327.0</ele>
        <time>2019-07-07T10:58:38.810Z</time>
      </trkpt>
      <trkpt lat="42.96153167" lon="-0.33268833">
        <ele>1327.0</ele>
        <time>2019-07-07T10:58:39.816Z</time>
      </trkpt>
      <trkpt lat="42.961755" lon="-0.33262">
        <ele>1325.0</ele>
        <time>2019-07-07T10:58:40.838Z</time>
      </trkpt>
      <trkpt lat="42.961755" lon="-0.33262">
        <ele>1325.0</ele>
        <time>2019-07-07T10:58:41.804Z</time>
      </trkpt>
      <trkpt lat="42.96199833" lon="-0.33260667">
        <ele>1322.0</ele>
        <time>2019-07-07T10:58:42.822Z</time>
      </trkpt>
      <trkpt lat="42.96199833" lon="-0.33260667">
        <ele>1322.0</ele>
        <time>2019-07-07T10:58:43.831Z</time>
      </trkpt>
      <trkpt lat="42.962245" lon="-0.33263167">
        <ele>1320.0</ele>
        <time>2019-07-07T10:58:44.810Z</time>
      </trkpt>
      <trkpt lat="42.96238833" lon="-0.33266">
        <ele>1319.0</ele>
        <time>2019-07-07T10:58:45.840Z</time>
      </trkpt>
      <trkpt lat="42.96238833" lon="-0.33266">
        <ele>1319.0</ele>
        <time>2019-07-07T10:58:46.805Z</time>
      </trkpt>
      <trkpt lat="42.962665" lon="-0.33279333">
        <ele>1316.0</ele>
        <time>2019-07-07T10:58:47.810Z</time>
      </trkpt>
      <trkpt lat="42.96278333" lon="-0.33288667">
        <ele>1315.0</ele>
        <time>2019-07-07T10:58:48.826Z</time>
      </trkpt>
      <trkpt lat="42.96278333" lon="-0.33288667">
        <ele>1315.0</ele>
        <time>2019-07-07T10:58:49.806Z</time>
      </trkpt>
      <trkpt lat="42.96301333" lon="-0.333075">
        <ele>1312.0</ele>
        <time>2019-07-07T10:58:50.810Z</time>
      </trkpt>
      <trkpt lat="42.96301333" lon="-0.333075">
        <ele>1312.0</ele>
        <time>2019-07-07T10:58:51.816Z</time>
      </trkpt>
      <trkpt lat="42.96323833" lon="-0.33327667">
        <ele>1309.0</ele>
        <time>2019-07-07T10:58:52.820Z</time>
      </trkpt>
      <trkpt lat="42.96323833" lon="-0.33327667">
        <ele>1309.0</ele>
        <time>2019-07-07T10:58:53.830Z</time>
      </trkpt>
      <trkpt lat="42.96339833" lon="-0.33354167">
        <ele>1306.0</ele>
        <time>2019-07-07T10:58:54.818Z</time>
      </trkpt>
      <trkpt lat="42.96349833" lon="-0.33366833">
        <ele>1304.0</ele>
        <time>2019-07-07T10:58:55.821Z</time>
      </trkpt>
      <trkpt lat="42.96349833" lon="-0.33366833">
        <ele>1304.0</ele>
        <time>2019-07-07T10:58:56.831Z</time>
      </trkpt>
      <trkpt lat="42.96369333" lon="-0.33393667">
        <ele>1301.0</ele>
        <time>2019-07-07T10:58:57.830Z</time>
      </trkpt>
      <trkpt lat="42.96378667" lon="-0.33408167">
        <ele>1300.0</ele>
        <time>2019-07-07T10:58:58.840Z</time>
      </trkpt>
      <trkpt lat="42.96378667" lon="-0.33408167">
        <ele>1300.0</ele>
        <time>2019-07-07T10:58:59.805Z</time>
      </trkpt>
      <trkpt lat="42.96392167" lon="-0.33443167">
        <ele>1297.0</ele>
        <time>2019-07-07T10:59:00.826Z</time>
      </trkpt>
      <trkpt lat="42.96392167" lon="-0.33443167">
        <ele>1297.0</ele>
        <time>2019-07-07T10:59:01.832Z</time>
      </trkpt>
      <trkpt lat="42.96407" lon="-0.334745">
        <ele>1295.0</ele>
        <time>2019-07-07T10:59:02.810Z</time>
      </trkpt>
      <trkpt lat="42.96407" lon="-0.334745">
        <ele>1295.0</ele>
        <time>2019-07-07T10:59:03.816Z</time>
      </trkpt>
      <trkpt lat="42.96422" lon="-0.33502667">
        <ele>1292.0</ele>
        <time>2019-07-07T10:59:04.840Z</time>
      </trkpt>
      <trkpt lat="42.96422" lon="-0.33502667">
        <ele>1292.0</ele>
        <time>2019-07-07T10:59:05.806Z</time>
      </trkpt>
      <trkpt lat="42.964345" lon="-0.33526833">
        <ele>1289.0</ele>
        <time>2019-07-07T10:59:06.840Z</time>
      </trkpt>
      <trkpt lat="42.964345" lon="-0.33526833">
        <ele>1289.0</ele>
        <time>2019-07-07T10:59:07.812Z</time>
      </trkpt>
      <trkpt lat="42.96446667" lon="-0.33548833">
        <ele>1286.0</ele>
        <time>2019-07-07T10:59:08.820Z</time>
      </trkpt>
      <trkpt lat="42.96452333" lon="-0.33560167">
        <ele>1285.0</ele>
        <time>2019-07-07T10:59:09.827Z</time>
      </trkpt>
      <trkpt lat="42.96452333" lon="-0.33560167">
        <ele>1285.0</ele>
        <time>2019-07-07T10:59:10.833Z</time>
      </trkpt>
      <trkpt lat="42.96458833" lon="-0.33586333">
        <ele>1283.0</ele>
        <time>2019-07-07T10:59:11.816Z</time>
      </trkpt>
      <trkpt lat="42.96458833" lon="-0.33586333">
        <ele>1283.0</ele>
        <time>2019-07-07T10:59:12.822Z</time>
      </trkpt>
      <trkpt lat="42.964635" lon="-0.33618167">
        <ele>1281.0</ele>
        <time>2019-07-07T10:59:13.815Z</time>
      </trkpt>
      <trkpt lat="42.964635" lon="-0.33618167">
        <ele>1281.0</ele>
        <time>2019-07-07T10:59:14.820Z</time>
      </trkpt>
      <trkpt lat="42.96464167" lon="-0.3366">
        <ele>1278.0</ele>
        <time>2019-07-07T10:59:15.810Z</time>
      </trkpt>
      <trkpt lat="42.96464167" lon="-0.3366">
        <ele>1278.0</ele>
        <time>2019-07-07T10:59:16.815Z</time>
      </trkpt>
      <trkpt lat="42.96462667" lon="-0.33696333">
        <ele>1276.0</ele>
        <time>2019-07-07T10:59:17.840Z</time>
      </trkpt>
      <trkpt lat="42.96460833" lon="-0.33715">
        <ele>1275.0</ele>
        <time>2019-07-07T10:59:18.840Z</time>
      </trkpt>
      <trkpt lat="42.96460833" lon="-0.33715">
        <ele>1275.0</ele>
        <time>2019-07-07T10:59:19.805Z</time>
      </trkpt>
      <trkpt lat="42.96453333" lon="-0.337585">
        <ele>1272.0</ele>
        <time>2019-07-07T10:59:20.830Z</time>
      </trkpt>
      <trkpt lat="42.96453833" lon="-0.33776833">
        <ele>1270.0</ele>
        <time>2019-07-07T10:59:21.807Z</time>
      </trkpt>
      <trkpt lat="42.964565" lon="-0.337955">
        <ele>1269.0</ele>
        <time>2019-07-07T10:59:22.830Z</time>
      </trkpt>
      <trkpt lat="42.964565" lon="-0.337955">
        <ele>1269.0</ele>
        <time>2019-07-07T10:59:23.835Z</time>
      </trkpt>
      <trkpt lat="42.96467667" lon="-0.33829833">
        <ele>1266.0</ele>
        <time>2019-07-07T10:59:24.820Z</time>
      </trkpt>
      <trkpt lat="42.96470833" lon="-0.33847333">
        <ele>1265.0</ele>
        <time>2019-07-07T10:59:25.820Z</time>
      </trkpt>
      <trkpt lat="42.96470833" lon="-0.33847333">
        <ele>1265.0</ele>
        <time>2019-07-07T10:59:26.827Z</time>
      </trkpt>
      <trkpt lat="42.964695" lon="-0.33885167">
        <ele>1262.0</ele>
        <time>2019-07-07T10:59:27.809Z</time>
      </trkpt>
      <trkpt lat="42.964695" lon="-0.33885167">
        <ele>1262.0</ele>
        <time>2019-07-07T10:59:28.814Z</time>
      </trkpt>
      <trkpt lat="42.96473667" lon="-0.33924">
        <ele>1259.0</ele>
        <time>2019-07-07T10:59:29.810Z</time>
      </trkpt>
      <trkpt lat="42.96473667" lon="-0.33924">
        <ele>1259.0</ele>
        <time>2019-07-07T10:59:30.816Z</time>
      </trkpt>
      <trkpt lat="42.96478833" lon="-0.33963167">
        <ele>1257.0</ele>
        <time>2019-07-07T10:59:31.840Z</time>
      </trkpt>
      <trkpt lat="42.96478833" lon="-0.33963167">
        <ele>1257.0</ele>
        <time>2019-07-07T10:59:32.806Z</time>
      </trkpt>
      <trkpt lat="42.96484167" lon="-0.34002">
        <ele>1254.0</ele>
        <time>2019-07-07T10:59:33.820Z</time>
      </trkpt>
      <trkpt lat="42.964885" lon="-0.34021833">
        <ele>1253.0</ele>
        <time>2019-07-07T10:59:34.810Z</time>
      </trkpt>
      <trkpt lat="42.964935" lon="-0.340415">
        <ele>1252.0</ele>
        <time>2019-07-07T10:59:35.813Z</time>
      </trkpt>
      <trkpt lat="42.964935" lon="-0.340415">
        <ele>1252.0</ele>
        <time>2019-07-07T10:59:36.819Z</time>
      </trkpt>
      <trkpt lat="42.96502333" lon="-0.3408">
        <ele>1250.0</ele>
        <time>2019-07-07T10:59:37.810Z</time>
      </trkpt>
      <trkpt lat="42.96502333" lon="-0.3408">
        <ele>1250.0</ele>
        <time>2019-07-07T10:59:38.815Z</time>
      </trkpt>
      <trkpt lat="42.96506667" lon="-0.341205">
        <ele>1247.0</ele>
        <time>2019-07-07T10:59:39.840Z</time>
      </trkpt>
      <trkpt lat="42.96508667" lon="-0.34141">
        <ele>1246.0</ele>
        <time>2019-07-07T10:59:40.808Z</time>
      </trkpt>
      <trkpt lat="42.96508667" lon="-0.34141">
        <ele>1246.0</ele>
        <time>2019-07-07T10:59:41.813Z</time>
      </trkpt>
      <trkpt lat="42.96513167" lon="-0.34182667">
        <ele>1243.0</ele>
        <time>2019-07-07T10:59:42.806Z</time>
      </trkpt>
      <trkpt lat="42.96515167" lon="-0.34203667">
        <ele>1242.0</ele>
        <time>2019-07-07T10:59:43.829Z</time>
      </trkpt>
      <trkpt lat="42.96515167" lon="-0.34203667">
        <ele>1242.0</ele>
        <time>2019-07-07T10:59:44.834Z</time>
      </trkpt>
      <trkpt lat="42.96518333" lon="-0.34242333">
        <ele>1239.0</ele>
        <time>2019-07-07T10:59:45.827Z</time>
      </trkpt>
      <trkpt lat="42.96518333" lon="-0.34242333">
        <ele>1239.0</ele>
        <time>2019-07-07T10:59:46.834Z</time>
      </trkpt>
      <trkpt lat="42.96519667" lon="-0.34278833">
        <ele>1236.0</ele>
        <time>2019-07-07T10:59:47.828Z</time>
      </trkpt>
      <trkpt lat="42.96519667" lon="-0.34278833">
        <ele>1236.0</ele>
        <time>2019-07-07T10:59:48.804Z</time>
      </trkpt>
      <trkpt lat="42.96516833" lon="-0.343105">
        <ele>1234.0</ele>
        <time>2019-07-07T10:59:49.830Z</time>
      </trkpt>
      <trkpt lat="42.965125" lon="-0.34323333">
        <ele>1233.0</ele>
        <time>2019-07-07T10:59:50.830Z</time>
      </trkpt>
      <trkpt lat="42.965125" lon="-0.34323333">
        <ele>1233.0</ele>
        <time>2019-07-07T10:59:51.836Z</time>
      </trkpt>
      <trkpt lat="42.96496167" lon="-0.34339667">
        <ele>1231.0</ele>
        <time>2019-07-07T10:59:52.817Z</time>
      </trkpt>
      <trkpt lat="42.96496167" lon="-0.34339667">
        <ele>1231.0</ele>
        <time>2019-07-07T10:59:53.822Z</time>
      </trkpt>
      <trkpt lat="42.96478" lon="-0.343325">
        <ele>1229.0</ele>
        <time>2019-07-07T10:59:54.810Z</time>
      </trkpt>
      <trkpt lat="42.964715" lon="-0.34321667">
        <ele>1227.0</ele>
        <time>2019-07-07T10:59:55.820Z</time>
      </trkpt>
      <trkpt lat="42.964715" lon="-0.34321667">
        <ele>1227.0</ele>
        <time>2019-07-07T10:59:56.827Z</time>
      </trkpt>
      <trkpt lat="42.96462667" lon="-0.34293333">
        <ele>1225.0</ele>
        <time>2019-07-07T10:59:57.830Z</time>
      </trkpt>
      <trkpt lat="42.96458167" lon="-0.34278333">
        <ele>1224.0</ele>
        <time>2019-07-07T10:59:58.840Z</time>
      </trkpt>
      <trkpt lat="42.96458167" lon="-0.34278333">
        <ele>1224.0</ele>
        <time>2019-07-07T10:59:59.805Z</time>
      </trkpt>
      <trkpt lat="42.964495" lon="-0.34246">
        <ele>1221.0</ele>
        <time>2019-07-07T11:00:00.810Z</time>
      </trkpt>
      <trkpt lat="42.964495" lon="-0.34246">
        <ele>1221.0</ele>
        <time>2019-07-07T11:00:01.816Z</time>
      </trkpt>
      <trkpt lat="42.964405" lon="-0.34212">
        <ele>1219.0</ele>
        <time>2019-07-07T11:00:02.810Z</time>
      </trkpt>
      <trkpt lat="42.96435667" lon="-0.34194333">
        <ele>1218.0</ele>
        <time>2019-07-07T11:00:03.827Z</time>
      </trkpt>
      <trkpt lat="42.96431167" lon="-0.34176333">
        <ele>1217.0</ele>
        <time>2019-07-07T11:00:04.830Z</time>
      </trkpt>
      <trkpt lat="42.964265" lon="-0.34158167">
        <ele>1216.0</ele>
        <time>2019-07-07T11:00:05.827Z</time>
      </trkpt>
      <trkpt lat="42.964265" lon="-0.34158167">
        <ele>1216.0</ele>
        <time>2019-07-07T11:00:06.831Z</time>
      </trkpt>
      <trkpt lat="42.964195" lon="-0.34121167">
        <ele>1213.0</ele>
        <time>2019-07-07T11:00:07.820Z</time>
      </trkpt>
      <trkpt lat="42.964195" lon="-0.34121167">
        <ele>1213.0</ele>
        <time>2019-07-07T11:00:08.825Z</time>
      </trkpt>
      <trkpt lat="42.96416333" lon="-0.34082333">
        <ele>1211.0</ele>
        <time>2019-07-07T11:00:09.840Z</time>
      </trkpt>
      <trkpt lat="42.96415" lon="-0.34062833">
        <ele>1210.0</ele>
        <time>2019-07-07T11:00:10.808Z</time>
      </trkpt>
      <trkpt lat="42.96415" lon="-0.34062833">
        <ele>1210.0</ele>
        <time>2019-07-07T11:00:11.813Z</time>
      </trkpt>
      <trkpt lat="42.96412667" lon="-0.34025167">
        <ele>1207.0</ele>
        <time>2019-07-07T11:00:12.818Z</time>
      </trkpt>
      <trkpt lat="42.96412667" lon="-0.34025167">
        <ele>1207.0</ele>
        <time>2019-07-07T11:00:13.823Z</time>
      </trkpt>
      <trkpt lat="42.96411" lon="-0.33989833">
        <ele>1205.0</ele>
        <time>2019-07-07T11:00:14.815Z</time>
      </trkpt>
      <trkpt lat="42.96407667" lon="-0.33974167">
        <ele>1204.0</ele>
        <time>2019-07-07T11:00:15.840Z</time>
      </trkpt>
      <trkpt lat="42.96407667" lon="-0.33974167">
        <ele>1204.0</ele>
        <time>2019-07-07T11:00:16.805Z</time>
      </trkpt>
      <trkpt lat="42.96393833" lon="-0.339465">
        <ele>1201.0</ele>
        <time>2019-07-07T11:00:17.830Z</time>
      </trkpt>
      <trkpt lat="42.96393833" lon="-0.339465">
        <ele>1201.0</ele>
        <time>2019-07-07T11:00:18.839Z</time>
      </trkpt>
      <trkpt lat="42.96372167" lon="-0.33931833">
        <ele>1199.0</ele>
        <time>2019-07-07T11:00:19.830Z</time>
      </trkpt>
      <trkpt lat="42.96360333" lon="-0.33930333">
        <ele>1198.0</ele>
        <time>2019-07-07T11:00:20.820Z</time>
      </trkpt>
      <trkpt lat="42.96360333" lon="-0.33930333">
        <ele>1198.0</ele>
        <time>2019-07-07T11:00:21.825Z</time>
      </trkpt>
      <trkpt lat="42.96336167" lon="-0.33933167">
        <ele>1196.0</ele>
        <time>2019-07-07T11:00:22.840Z</time>
      </trkpt>
      <trkpt lat="42.96336167" lon="-0.33933167">
        <ele>1196.0</ele>
        <time>2019-07-07T11:00:23.819Z</time>
      </trkpt>
      <trkpt lat="42.96317167" lon="-0.33940833">
        <ele>1194.0</ele>
        <time>2019-07-07T11:00:24.825Z</time>
      </trkpt>
      <trkpt lat="42.963105" lon="-0.33950333">
        <ele>1192.0</ele>
        <time>2019-07-07T11:00:25.820Z</time>
      </trkpt>
      <trkpt lat="42.963105" lon="-0.33950333">
        <ele>1192.0</ele>
        <time>2019-07-07T11:00:26.827Z</time>
      </trkpt>
      <trkpt lat="42.96308" lon="-0.33977833">
        <ele>1190.0</ele>
        <time>2019-07-07T11:00:27.819Z</time>
      </trkpt>
      <trkpt lat="42.96311167" lon="-0.33992667">
        <ele>1189.0</ele>
        <time>2019-07-07T11:00:28.826Z</time>
      </trkpt>
      <trkpt lat="42.96311167" lon="-0.33992667">
        <ele>1189.0</ele>
        <time>2019-07-07T11:00:29.832Z</time>
      </trkpt>
      <trkpt lat="42.96322" lon="-0.34021833">
        <ele>1187.0</ele>
        <time>2019-07-07T11:00:30.806Z</time>
      </trkpt>
      <trkpt lat="42.96322" lon="-0.34021833">
        <ele>1187.0</ele>
        <time>2019-07-07T11:00:31.812Z</time>
      </trkpt>
      <trkpt lat="42.96333" lon="-0.34052667">
        <ele>1185.0</ele>
        <time>2019-07-07T11:00:32.830Z</time>
      </trkpt>
      <trkpt lat="42.96338667" lon="-0.34068667">
        <ele>1184.0</ele>
        <time>2019-07-07T11:00:33.839Z</time>
      </trkpt>
      <trkpt lat="42.96338667" lon="-0.34068667">
        <ele>1184.0</ele>
        <time>2019-07-07T11:00:34.804Z</time>
      </trkpt>
      <trkpt lat="42.96349833" lon="-0.34101167">
        <ele>1182.0</ele>
        <time>2019-07-07T11:00:35.830Z</time>
      </trkpt>
      <trkpt lat="42.96349833" lon="-0.34101167">
        <ele>1182.0</ele>
        <time>2019-07-07T11:00:36.835Z</time>
      </trkpt>
      <trkpt lat="42.96355333" lon="-0.34135333">
        <ele>1180.0</ele>
        <time>2019-07-07T11:00:37.811Z</time>
      </trkpt>
      <trkpt lat="42.96356167" lon="-0.34154333">
        <ele>1179.0</ele>
        <time>2019-07-07T11:00:38.820Z</time>
      </trkpt>
      <trkpt lat="42.96356167" lon="-0.34154333">
        <ele>1179.0</ele>
        <time>2019-07-07T11:00:39.828Z</time>
      </trkpt>
      <trkpt lat="42.96353833" lon="-0.34189833">
        <ele>1177.0</ele>
        <time>2019-07-07T11:00:40.810Z</time>
      </trkpt>
      <trkpt lat="42.96353833" lon="-0.34189833">
        <ele>1177.0</ele>
        <time>2019-07-07T11:00:41.817Z</time>
      </trkpt>
      <trkpt lat="42.96346833" lon="-0.342245">
        <ele>1175.0</ele>
        <time>2019-07-07T11:00:42.820Z</time>
      </trkpt>
      <trkpt lat="42.96346833" lon="-0.342245">
        <ele>1175.0</ele>
        <time>2019-07-07T11:00:43.829Z</time>
      </trkpt>
      <trkpt lat="42.96343" lon="-0.34258">
        <ele>1173.0</ele>
        <time>2019-07-07T11:00:44.820Z</time>
      </trkpt>
      <trkpt lat="42.9634" lon="-0.34275667">
        <ele>1172.0</ele>
        <time>2019-07-07T11:00:45.830Z</time>
      </trkpt>
      <trkpt lat="42.9634" lon="-0.34275667">
        <ele>1172.0</ele>
        <time>2019-07-07T11:00:46.835Z</time>
      </trkpt>
      <trkpt lat="42.96334167" lon="-0.34311833">
        <ele>1170.0</ele>
        <time>2019-07-07T11:00:47.810Z</time>
      </trkpt>
      <trkpt lat="42.96334167" lon="-0.34311833">
        <ele>1170.0</ele>
        <time>2019-07-07T11:00:48.809Z</time>
      </trkpt>
      <trkpt lat="42.96331667" lon="-0.3435">
        <ele>1168.0</ele>
        <time>2019-07-07T11:00:49.820Z</time>
      </trkpt>
      <trkpt lat="42.96329833" lon="-0.34368167">
        <ele>1167.0</ele>
        <time>2019-07-07T11:00:50.810Z</time>
      </trkpt>
      <trkpt lat="42.96329833" lon="-0.34368167">
        <ele>1167.0</ele>
        <time>2019-07-07T11:00:51.816Z</time>
      </trkpt>
      <trkpt lat="42.963235" lon="-0.344005">
        <ele>1165.0</ele>
        <time>2019-07-07T11:00:52.830Z</time>
      </trkpt>
      <trkpt lat="42.963235" lon="-0.344005">
        <ele>1165.0</ele>
        <time>2019-07-07T11:00:53.836Z</time>
      </trkpt>
      <trkpt lat="42.96318667" lon="-0.344295">
        <ele>1163.0</ele>
        <time>2019-07-07T11:00:54.830Z</time>
      </trkpt>
      <trkpt lat="42.963185" lon="-0.34445333">
        <ele>1162.0</ele>
        <time>2019-07-07T11:00:55.810Z</time>
      </trkpt>
      <trkpt lat="42.963185" lon="-0.34445333">
        <ele>1162.0</ele>
        <time>2019-07-07T11:00:56.815Z</time>
      </trkpt>
      <trkpt lat="42.96317833" lon="-0.34480333">
        <ele>1160.0</ele>
        <time>2019-07-07T11:00:57.820Z</time>
      </trkpt>
      <trkpt lat="42.96317833" lon="-0.34480333">
        <ele>1160.0</ele>
        <time>2019-07-07T11:00:58.827Z</time>
      </trkpt>
      <trkpt lat="42.963155" lon="-0.34513167">
        <ele>1158.0</ele>
        <time>2019-07-07T11:00:59.830Z</time>
      </trkpt>
      <trkpt lat="42.963155" lon="-0.34513167">
        <ele>1158.0</ele>
        <time>2019-07-07T11:01:00.835Z</time>
      </trkpt>
      <trkpt lat="42.96309333" lon="-0.34539833">
        <ele>1156.0</ele>
        <time>2019-07-07T11:01:01.820Z</time>
      </trkpt>
      <trkpt lat="42.96309333" lon="-0.34539833">
        <ele>1156.0</ele>
        <time>2019-07-07T11:01:02.830Z</time>
      </trkpt>
      <trkpt lat="42.96296167" lon="-0.34555333">
        <ele>1154.0</ele>
        <time>2019-07-07T11:01:03.830Z</time>
      </trkpt>
      <trkpt lat="42.962895" lon="-0.34558">
        <ele>1153.0</ele>
        <time>2019-07-07T11:01:04.820Z</time>
      </trkpt>
      <trkpt lat="42.96283" lon="-0.3456">
        <ele>1151.0</ele>
        <time>2019-07-07T11:01:05.840Z</time>
      </trkpt>
      <trkpt lat="42.96283" lon="-0.3456">
        <ele>1151.0</ele>
        <time>2019-07-07T11:01:06.805Z</time>
      </trkpt>
      <trkpt lat="42.96264833" lon="-0.34577833">
        <ele>1149.0</ele>
        <time>2019-07-07T11:01:07.820Z</time>
      </trkpt>
      <trkpt lat="42.96264833" lon="-0.34577833">
        <ele>1149.0</ele>
        <time>2019-07-07T11:01:08.828Z</time>
      </trkpt>
      <trkpt lat="42.96257833" lon="-0.34604">
        <ele>1147.0</ele>
        <time>2019-07-07T11:01:09.804Z</time>
      </trkpt>
      <trkpt lat="42.96256667" lon="-0.3462">
        <ele>1146.0</ele>
        <time>2019-07-07T11:01:10.830Z</time>
      </trkpt>
      <trkpt lat="42.96256667" lon="-0.3462">
        <ele>1146.0</ele>
        <time>2019-07-07T11:01:11.835Z</time>
      </trkpt>
      <trkpt lat="42.96256" lon="-0.346525">
        <ele>1144.0</ele>
        <time>2019-07-07T11:01:12.823Z</time>
      </trkpt>
      <trkpt lat="42.96256" lon="-0.346525">
        <ele>1144.0</ele>
        <time>2019-07-07T11:01:13.834Z</time>
      </trkpt>
      <trkpt lat="42.96256667" lon="-0.34687667">
        <ele>1142.0</ele>
        <time>2019-07-07T11:01:14.830Z</time>
      </trkpt>
      <trkpt lat="42.96256" lon="-0.34704">
        <ele>1142.0</ele>
        <time>2019-07-07T11:01:15.830Z</time>
      </trkpt>
      <trkpt lat="42.96256" lon="-0.34704">
        <ele>1142.0</ele>
        <time>2019-07-07T11:01:16.835Z</time>
      </trkpt>
      <trkpt lat="42.96254" lon="-0.34733667">
        <ele>1140.0</ele>
        <time>2019-07-07T11:01:17.810Z</time>
      </trkpt>
      <trkpt lat="42.96254" lon="-0.34733667">
        <ele>1140.0</ele>
        <time>2019-07-07T11:01:18.831Z</time>
      </trkpt>
      <trkpt lat="42.96250167" lon="-0.34761333">
        <ele>1138.0</ele>
        <time>2019-07-07T11:01:19.816Z</time>
      </trkpt>
      <trkpt lat="42.96250167" lon="-0.34761333">
        <ele>1138.0</ele>
        <time>2019-07-07T11:01:20.821Z</time>
      </trkpt>
      <trkpt lat="42.96244167" lon="-0.34794167">
        <ele>1136.0</ele>
        <time>2019-07-07T11:01:21.840Z</time>
      </trkpt>
      <trkpt lat="42.96241333" lon="-0.34810167">
        <ele>1135.0</ele>
        <time>2019-07-07T11:01:22.810Z</time>
      </trkpt>
      <trkpt lat="42.96241333" lon="-0.34810167">
        <ele>1135.0</ele>
        <time>2019-07-07T11:01:23.815Z</time>
      </trkpt>
      <trkpt lat="42.9624" lon="-0.34843">
        <ele>1133.0</ele>
        <time>2019-07-07T11:01:24.820Z</time>
      </trkpt>
      <trkpt lat="42.96238833" lon="-0.3486">
        <ele>1131.0</ele>
        <time>2019-07-07T11:01:25.810Z</time>
      </trkpt>
      <trkpt lat="42.96238833" lon="-0.3486">
        <ele>1131.0</ele>
        <time>2019-07-07T11:01:26.817Z</time>
      </trkpt>
      <trkpt lat="42.962345" lon="-0.34895">
        <ele>1129.0</ele>
        <time>2019-07-07T11:01:27.840Z</time>
      </trkpt>
      <trkpt lat="42.96232833" lon="-0.34909667">
        <ele>1128.0</ele>
        <time>2019-07-07T11:01:28.824Z</time>
      </trkpt>
      <trkpt lat="42.96232833" lon="-0.34909667">
        <ele>1128.0</ele>
        <time>2019-07-07T11:01:29.830Z</time>
      </trkpt>
      <trkpt lat="42.96230667" lon="-0.34930333">
        <ele>1125.0</ele>
        <time>2019-07-07T11:01:30.820Z</time>
      </trkpt>
      <trkpt lat="42.96230667" lon="-0.34930333">
        <ele>1125.0</ele>
        <time>2019-07-07T11:01:31.826Z</time>
      </trkpt>
      <trkpt lat="42.96231" lon="-0.349455">
        <ele>1123.0</ele>
        <time>2019-07-07T11:01:32.836Z</time>
      </trkpt>
      <trkpt lat="42.96231" lon="-0.349455">
        <ele>1123.0</ele>
        <time>2019-07-07T11:01:33.801Z</time>
      </trkpt>
      <trkpt lat="42.96236167" lon="-0.34948833">
        <ele>1121.0</ele>
        <time>2019-07-07T11:01:34.830Z</time>
      </trkpt>
      <trkpt lat="42.96236167" lon="-0.34948833">
        <ele>1121.0</ele>
        <time>2019-07-07T11:01:35.802Z</time>
      </trkpt>
      <trkpt lat="42.96240833" lon="-0.34937833">
        <ele>1119.0</ele>
        <time>2019-07-07T11:01:36.832Z</time>
      </trkpt>
      <trkpt lat="42.96240833" lon="-0.34937833">
        <ele>1119.0</ele>
        <time>2019-07-07T11:01:37.837Z</time>
      </trkpt>
      <trkpt lat="42.96240333" lon="-0.34920167">
        <ele>1117.0</ele>
        <time>2019-07-07T11:01:38.803Z</time>
      </trkpt>
      <trkpt lat="42.96240333" lon="-0.34920167">
        <ele>1117.0</ele>
        <time>2019-07-07T11:01:39.809Z</time>
      </trkpt>
      <trkpt lat="42.96241833" lon="-0.349">
        <ele>1115.0</ele>
        <time>2019-07-07T11:01:40.815Z</time>
      </trkpt>
      <trkpt lat="42.96241833" lon="-0.349">
        <ele>1115.0</ele>
        <time>2019-07-07T11:01:41.821Z</time>
      </trkpt>
      <trkpt lat="42.96244" lon="-0.34872667">
        <ele>1113.0</ele>
        <time>2019-07-07T11:01:42.821Z</time>
      </trkpt>
      <trkpt lat="42.96244" lon="-0.34872667">
        <ele>1113.0</ele>
        <time>2019-07-07T11:01:43.833Z</time>
      </trkpt>
      <trkpt lat="42.96250667" lon="-0.34847167">
        <ele>1111.0</ele>
        <time>2019-07-07T11:01:44.810Z</time>
      </trkpt>
      <trkpt lat="42.96255" lon="-0.34833833">
        <ele>1110.0</ele>
        <time>2019-07-07T11:01:45.825Z</time>
      </trkpt>
      <trkpt lat="42.96259167" lon="-0.348215">
        <ele>1109.0</ele>
        <time>2019-07-07T11:01:46.832Z</time>
      </trkpt>
      <trkpt lat="42.96259167" lon="-0.348215">
        <ele>1109.0</ele>
        <time>2019-07-07T11:01:47.820Z</time>
      </trkpt>
      <trkpt lat="42.96268167" lon="-0.34798833">
        <ele>1107.0</ele>
        <time>2019-07-07T11:01:48.830Z</time>
      </trkpt>
      <trkpt lat="42.96268167" lon="-0.34798833">
        <ele>1107.0</ele>
        <time>2019-07-07T11:01:49.832Z</time>
      </trkpt>
      <trkpt lat="42.96279" lon="-0.347795">
        <ele>1105.0</ele>
        <time>2019-07-07T11:01:50.810Z</time>
      </trkpt>
      <trkpt lat="42.96285333" lon="-0.34771333">
        <ele>1103.0</ele>
        <time>2019-07-07T11:01:51.820Z</time>
      </trkpt>
      <trkpt lat="42.96292667" lon="-0.34764833">
        <ele>1102.0</ele>
        <time>2019-07-07T11:01:52.840Z</time>
      </trkpt>
      <trkpt lat="42.96292667" lon="-0.34764833">
        <ele>1102.0</ele>
        <time>2019-07-07T11:01:53.805Z</time>
      </trkpt>
      <trkpt lat="42.96308333" lon="-0.34749167">
        <ele>1100.0</ele>
        <time>2019-07-07T11:01:54.820Z</time>
      </trkpt>
      <trkpt lat="42.963165" lon="-0.347395">
        <ele>1099.0</ele>
        <time>2019-07-07T11:01:55.830Z</time>
      </trkpt>
      <trkpt lat="42.963165" lon="-0.347395">
        <ele>1099.0</ele>
        <time>2019-07-07T11:01:56.835Z</time>
      </trkpt>
      <trkpt lat="42.96334333" lon="-0.34719667">
        <ele>1097.0</ele>
        <time>2019-07-07T11:01:57.830Z</time>
      </trkpt>
      <trkpt lat="42.96342667" lon="-0.34708333">
        <ele>1096.0</ele>
        <time>2019-07-07T11:01:58.826Z</time>
      </trkpt>
      <trkpt lat="42.96342667" lon="-0.34708333">
        <ele>1096.0</ele>
        <time>2019-07-07T11:01:59.833Z</time>
      </trkpt>
      <trkpt lat="42.963555" lon="-0.34679667">
        <ele>1094.0</ele>
        <time>2019-07-07T11:02:00.820Z</time>
      </trkpt>
      <trkpt lat="42.963555" lon="-0.34679667">
        <ele>1094.0</ele>
        <time>2019-07-07T11:02:01.826Z</time>
      </trkpt>
      <trkpt lat="42.96364333" lon="-0.34649333">
        <ele>1092.0</ele>
        <time>2019-07-07T11:02:02.820Z</time>
      </trkpt>
      <trkpt lat="42.96364333" lon="-0.34649333">
        <ele>1092.0</ele>
        <time>2019-07-07T11:02:03.826Z</time>
      </trkpt>
      <trkpt lat="42.96372167" lon="-0.346245">
        <ele>1091.0</ele>
        <time>2019-07-07T11:02:04.830Z</time>
      </trkpt>
      <trkpt lat="42.96378667" lon="-0.34616">
        <ele>1090.0</ele>
        <time>2019-07-07T11:02:05.838Z</time>
      </trkpt>
      <trkpt lat="42.96378667" lon="-0.34616">
        <ele>1090.0</ele>
        <time>2019-07-07T11:02:06.804Z</time>
      </trkpt>
      <trkpt lat="42.96396833" lon="-0.346115">
        <ele>1089.0</ele>
        <time>2019-07-07T11:02:07.840Z</time>
      </trkpt>
      <trkpt lat="42.96405167" lon="-0.34617">
        <ele>1088.0</ele>
        <time>2019-07-07T11:02:08.814Z</time>
      </trkpt>
      <trkpt lat="42.96405167" lon="-0.34617">
        <ele>1088.0</ele>
        <time>2019-07-07T11:02:09.838Z</time>
      </trkpt>
      <trkpt lat="42.96412667" lon="-0.34636833">
        <ele>1087.0</ele>
        <time>2019-07-07T11:02:10.820Z</time>
      </trkpt>
      <trkpt lat="42.96412667" lon="-0.34636833">
        <ele>1087.0</ele>
        <time>2019-07-07T11:02:11.825Z</time>
      </trkpt>
      <trkpt lat="42.96411833" lon="-0.34661833">
        <ele>1085.0</ele>
        <time>2019-07-07T11:02:12.830Z</time>
      </trkpt>
      <trkpt lat="42.96411667" lon="-0.34674667">
        <ele>1085.0</ele>
        <time>2019-07-07T11:02:13.811Z</time>
      </trkpt>
      <trkpt lat="42.96411667" lon="-0.34674667">
        <ele>1085.0</ele>
        <time>2019-07-07T11:02:14.816Z</time>
      </trkpt>
      <trkpt lat="42.964115" lon="-0.34701">
        <ele>1083.0</ele>
        <time>2019-07-07T11:02:15.840Z</time>
      </trkpt>
      <trkpt lat="42.964115" lon="-0.34701">
        <ele>1083.0</ele>
        <time>2019-07-07T11:02:16.805Z</time>
      </trkpt>
      <trkpt lat="42.964095" lon="-0.34726667">
        <ele>1082.0</ele>
        <time>2019-07-07T11:02:17.820Z</time>
      </trkpt>
      <trkpt lat="42.964095" lon="-0.34726667">
        <ele>1082.0</ele>
        <time>2019-07-07T11:02:18.827Z</time>
      </trkpt>
      <trkpt lat="42.96411333" lon="-0.34752667">
        <ele>1081.0</ele>
        <time>2019-07-07T11:02:19.816Z</time>
      </trkpt>
      <trkpt lat="42.96411333" lon="-0.34752667">
        <ele>1081.0</ele>
        <time>2019-07-07T11:02:20.822Z</time>
      </trkpt>
      <trkpt lat="42.96419" lon="-0.34776833">
        <ele>1080.0</ele>
        <time>2019-07-07T11:02:21.840Z</time>
      </trkpt>
      <trkpt lat="42.96424667" lon="-0.347875">
        <ele>1080.0</ele>
        <time>2019-07-07T11:02:22.830Z</time>
      </trkpt>
      <trkpt lat="42.96424667" lon="-0.347875">
        <ele>1080.0</ele>
        <time>2019-07-07T11:02:23.836Z</time>
      </trkpt>
      <trkpt lat="42.96432333" lon="-0.34811333">
        <ele>1079.0</ele>
        <time>2019-07-07T11:02:24.838Z</time>
      </trkpt>
      <trkpt lat="42.96432333" lon="-0.34811333">
        <ele>1079.0</ele>
        <time>2019-07-07T11:02:25.803Z</time>
      </trkpt>
      <trkpt lat="42.96435667" lon="-0.34837667">
        <ele>1078.0</ele>
        <time>2019-07-07T11:02:26.820Z</time>
      </trkpt>
      <trkpt lat="42.96435667" lon="-0.34837667">
        <ele>1078.0</ele>
        <time>2019-07-07T11:02:27.826Z</time>
      </trkpt>
      <trkpt lat="42.96432333" lon="-0.34866">
        <ele>1077.0</ele>
        <time>2019-07-07T11:02:28.830Z</time>
      </trkpt>
      <trkpt lat="42.96432333" lon="-0.34866">
        <ele>1077.0</ele>
        <time>2019-07-07T11:02:29.836Z</time>
      </trkpt>
      <trkpt lat="42.96419167" lon="-0.34889667">
        <ele>1076.0</ele>
        <time>2019-07-07T11:02:30.810Z</time>
      </trkpt>
      <trkpt lat="42.96419167" lon="-0.34889667">
        <ele>1076.0</ele>
        <time>2019-07-07T11:02:31.816Z</time>
      </trkpt>
      <trkpt lat="42.96402" lon="-0.34910667">
        <ele>1074.0</ele>
        <time>2019-07-07T11:02:32.840Z</time>
      </trkpt>
      <trkpt lat="42.96402" lon="-0.34910667">
        <ele>1074.0</ele>
        <time>2019-07-07T11:02:33.805Z</time>
      </trkpt>
      <trkpt lat="42.96392333" lon="-0.34939833">
        <ele>1073.0</ele>
        <time>2019-07-07T11:02:34.817Z</time>
      </trkpt>
      <trkpt lat="42.9639" lon="-0.34955833">
        <ele>1072.0</ele>
        <time>2019-07-07T11:02:35.819Z</time>
      </trkpt>
      <trkpt lat="42.9639" lon="-0.34955833">
        <ele>1072.0</ele>
        <time>2019-07-07T11:02:36.825Z</time>
      </trkpt>
      <trkpt lat="42.963875" lon="-0.34989333">
        <ele>1070.0</ele>
        <time>2019-07-07T11:02:37.820Z</time>
      </trkpt>
      <trkpt lat="42.963875" lon="-0.34989333">
        <ele>1070.0</ele>
        <time>2019-07-07T11:02:38.825Z</time>
      </trkpt>
      <trkpt lat="42.963845" lon="-0.35022667">
        <ele>1069.0</ele>
        <time>2019-07-07T11:02:39.820Z</time>
      </trkpt>
      <trkpt lat="42.96383833" lon="-0.350385">
        <ele>1068.0</ele>
        <time>2019-07-07T11:02:40.810Z</time>
      </trkpt>
      <trkpt lat="42.96383833" lon="-0.350385">
        <ele>1068.0</ele>
        <time>2019-07-07T11:02:41.815Z</time>
      </trkpt>
      <trkpt lat="42.96377167" lon="-0.35068167">
        <ele>1066.0</ele>
        <time>2019-07-07T11:02:42.823Z</time>
      </trkpt>
      <trkpt lat="42.96377167" lon="-0.35068167">
        <ele>1066.0</ele>
        <time>2019-07-07T11:02:43.829Z</time>
      </trkpt>
      <trkpt lat="42.963625" lon="-0.35093833">
        <ele>1064.0</ele>
        <time>2019-07-07T11:02:44.838Z</time>
      </trkpt>
      <trkpt lat="42.96354667" lon="-0.35108">
        <ele>1063.0</ele>
        <time>2019-07-07T11:02:45.830Z</time>
      </trkpt>
      <trkpt lat="42.96354667" lon="-0.35108">
        <ele>1063.0</ele>
        <time>2019-07-07T11:02:46.835Z</time>
      </trkpt>
      <trkpt lat="42.96344667" lon="-0.35139">
        <ele>1062.0</ele>
        <time>2019-07-07T11:02:47.816Z</time>
      </trkpt>
      <trkpt lat="42.96344667" lon="-0.35139">
        <ele>1062.0</ele>
        <time>2019-07-07T11:02:48.821Z</time>
      </trkpt>
      <trkpt lat="42.96344" lon="-0.35173667">
        <ele>1060.0</ele>
        <time>2019-07-07T11:02:49.810Z</time>
      </trkpt>
      <trkpt lat="42.96344333" lon="-0.35191667">
        <ele>1059.0</ele>
        <time>2019-07-07T11:02:50.819Z</time>
      </trkpt>
      <trkpt lat="42.96344333" lon="-0.35191667">
        <ele>1059.0</ele>
        <time>2019-07-07T11:02:51.825Z</time>
      </trkpt>
      <trkpt lat="42.96346167" lon="-0.35228667">
        <ele>1057.0</ele>
        <time>2019-07-07T11:02:52.840Z</time>
      </trkpt>
      <trkpt lat="42.96346167" lon="-0.35228667">
        <ele>1057.0</ele>
        <time>2019-07-07T11:02:53.805Z</time>
      </trkpt>
      <trkpt lat="42.963515" lon="-0.35264667">
        <ele>1055.0</ele>
        <time>2019-07-07T11:02:54.828Z</time>
      </trkpt>
      <trkpt lat="42.96356833" lon="-0.35282167">
        <ele>1054.0</ele>
        <time>2019-07-07T11:02:55.820Z</time>
      </trkpt>
      <trkpt lat="42.96356833" lon="-0.35282167">
        <ele>1054.0</ele>
        <time>2019-07-07T11:02:56.825Z</time>
      </trkpt>
      <trkpt lat="42.96371833" lon="-0.35315">
        <ele>1051.0</ele>
        <time>2019-07-07T11:02:57.810Z</time>
      </trkpt>
      <trkpt lat="42.96381" lon="-0.35330667">
        <ele>1050.0</ele>
        <time>2019-07-07T11:02:58.809Z</time>
      </trkpt>
      <trkpt lat="42.96381" lon="-0.35330667">
        <ele>1050.0</ele>
        <time>2019-07-07T11:02:59.814Z</time>
      </trkpt>
      <trkpt lat="42.96398667" lon="-0.35364333">
        <ele>1047.0</ele>
        <time>2019-07-07T11:03:00.820Z</time>
      </trkpt>
      <trkpt lat="42.96405667" lon="-0.35382833">
        <ele>1045.0</ele>
        <time>2019-07-07T11:03:01.830Z</time>
      </trkpt>
      <trkpt lat="42.96405667" lon="-0.35382833">
        <ele>1045.0</ele>
        <time>2019-07-07T11:03:02.836Z</time>
      </trkpt>
      <trkpt lat="42.96419333" lon="-0.3542">
        <ele>1044.0</ele>
        <time>2019-07-07T11:03:03.827Z</time>
      </trkpt>
      <trkpt lat="42.96427833" lon="-0.35437667">
        <ele>1043.0</ele>
        <time>2019-07-07T11:03:04.810Z</time>
      </trkpt>
      <trkpt lat="42.96427833" lon="-0.35437667">
        <ele>1043.0</ele>
        <time>2019-07-07T11:03:05.815Z</time>
      </trkpt>
      <trkpt lat="42.964475" lon="-0.354715">
        <ele>1040.0</ele>
        <time>2019-07-07T11:03:06.820Z</time>
      </trkpt>
      <trkpt lat="42.964475" lon="-0.354715">
        <ele>1040.0</ele>
        <time>2019-07-07T11:03:07.826Z</time>
      </trkpt>
      <trkpt lat="42.96468667" lon="-0.35504">
        <ele>1038.0</ele>
        <time>2019-07-07T11:03:08.830Z</time>
      </trkpt>
      <trkpt lat="42.96468667" lon="-0.35504">
        <ele>1038.0</ele>
        <time>2019-07-07T11:03:09.836Z</time>
      </trkpt>
      <trkpt lat="42.96493" lon="-0.35532667">
        <ele>1035.0</ele>
        <time>2019-07-07T11:03:10.830Z</time>
      </trkpt>
      <trkpt lat="42.96493" lon="-0.35532667">
        <ele>1035.0</ele>
        <time>2019-07-07T11:03:11.836Z</time>
      </trkpt>
      <trkpt lat="42.96516667" lon="-0.35561667">
        <ele>1032.0</ele>
        <time>2019-07-07T11:03:12.810Z</time>
      </trkpt>
      <trkpt lat="42.96516667" lon="-0.35561667">
        <ele>1032.0</ele>
        <time>2019-07-07T11:03:13.816Z</time>
      </trkpt>
      <trkpt lat="42.96542167" lon="-0.35586">
        <ele>1028.0</ele>
        <time>2019-07-07T11:03:14.806Z</time>
      </trkpt>
      <trkpt lat="42.96554333" lon="-0.35598">
        <ele>1027.0</ele>
        <time>2019-07-07T11:03:15.820Z</time>
      </trkpt>
      <trkpt lat="42.96554333" lon="-0.35598">
        <ele>1027.0</ele>
        <time>2019-07-07T11:03:16.826Z</time>
      </trkpt>
      <trkpt lat="42.96575333" lon="-0.35625667">
        <ele>1024.0</ele>
        <time>2019-07-07T11:03:17.805Z</time>
      </trkpt>
      <trkpt lat="42.96575333" lon="-0.35625667">
        <ele>1024.0</ele>
        <time>2019-07-07T11:03:18.811Z</time>
      </trkpt>
      <trkpt lat="42.96594833" lon="-0.35652167">
        <ele>1022.0</ele>
        <time>2019-07-07T11:03:19.839Z</time>
      </trkpt>
      <trkpt lat="42.96604333" lon="-0.35665667">
        <ele>1021.0</ele>
        <time>2019-07-07T11:03:20.820Z</time>
      </trkpt>
      <trkpt lat="42.96604333" lon="-0.35665667">
        <ele>1021.0</ele>
        <time>2019-07-07T11:03:21.826Z</time>
      </trkpt>
      <trkpt lat="42.96617667" lon="-0.35701833">
        <ele>1018.0</ele>
        <time>2019-07-07T11:03:22.810Z</time>
      </trkpt>
      <trkpt lat="42.96617667" lon="-0.35701833">
        <ele>1018.0</ele>
        <time>2019-07-07T11:03:23.815Z</time>
      </trkpt>
      <trkpt lat="42.96621" lon="-0.357485">
        <ele>1016.0</ele>
        <time>2019-07-07T11:03:24.830Z</time>
      </trkpt>
      <trkpt lat="42.96621" lon="-0.357485">
        <ele>1016.0</ele>
        <time>2019-07-07T11:03:25.885Z</time>
      </trkpt>
      <trkpt lat="42.966305" lon="-0.35786">
        <ele>1013.0</ele>
        <time>2019-07-07T11:03:26.860Z</time>
      </trkpt>
      <trkpt lat="42.966305" lon="-0.35786">
        <ele>1013.0</ele>
        <time>2019-07-07T11:03:27.839Z</time>
      </trkpt>
      <trkpt lat="42.96638" lon="-0.35822667">
        <ele>1011.0</ele>
        <time>2019-07-07T11:03:28.801Z</time>
      </trkpt>
      <trkpt lat="42.96638" lon="-0.35822667">
        <ele>1011.0</ele>
        <time>2019-07-07T11:03:29.824Z</time>
      </trkpt>
      <trkpt lat="42.96632333" lon="-0.35874833">
        <ele>1008.0</ele>
        <time>2019-07-07T11:03:30.840Z</time>
      </trkpt>
      <trkpt lat="42.96631333" lon="-0.35898833">
        <ele>1006.0</ele>
        <time>2019-07-07T11:03:31.810Z</time>
      </trkpt>
      <trkpt lat="42.96631333" lon="-0.35898833">
        <ele>1006.0</ele>
        <time>2019-07-07T11:03:32.816Z</time>
      </trkpt>
      <trkpt lat="42.96631167" lon="-0.35943833">
        <ele>1004.0</ele>
        <time>2019-07-07T11:03:33.819Z</time>
      </trkpt>
      <trkpt lat="42.96631167" lon="-0.35943833">
        <ele>1004.0</ele>
        <time>2019-07-07T11:03:34.801Z</time>
      </trkpt>
      <trkpt lat="42.96634167" lon="-0.35986833">
        <ele>1000.0</ele>
        <time>2019-07-07T11:03:35.820Z</time>
      </trkpt>
      <trkpt lat="42.96634167" lon="-0.35986833">
        <ele>1000.0</ele>
        <time>2019-07-07T11:03:36.825Z</time>
      </trkpt>
      <trkpt lat="42.96641333" lon="-0.360295">
        <ele>998.0</ele>
        <time>2019-07-07T11:03:37.810Z</time>
      </trkpt>
      <trkpt lat="42.96641333" lon="-0.360295">
        <ele>998.0</ele>
        <time>2019-07-07T11:03:38.816Z</time>
      </trkpt>
      <trkpt lat="42.96646833" lon="-0.36072833">
        <ele>995.0</ele>
        <time>2019-07-07T11:03:39.810Z</time>
      </trkpt>
      <trkpt lat="42.96648333" lon="-0.36094167">
        <ele>994.0</ele>
        <time>2019-07-07T11:03:40.840Z</time>
      </trkpt>
      <trkpt lat="42.96648333" lon="-0.36094167">
        <ele>994.0</ele>
        <time>2019-07-07T11:03:41.805Z</time>
      </trkpt>
      <trkpt lat="42.96653667" lon="-0.36137">
        <ele>990.0</ele>
        <time>2019-07-07T11:03:42.816Z</time>
      </trkpt>
      <trkpt lat="42.96653667" lon="-0.36137">
        <ele>990.0</ele>
        <time>2019-07-07T11:03:43.822Z</time>
      </trkpt>
      <trkpt lat="42.96663333" lon="-0.36179">
        <ele>987.0</ele>
        <time>2019-07-07T11:03:44.820Z</time>
      </trkpt>
      <trkpt lat="42.96663333" lon="-0.36179">
        <ele>987.0</ele>
        <time>2019-07-07T11:03:45.805Z</time>
      </trkpt>
      <trkpt lat="42.96673167" lon="-0.362205">
        <ele>984.0</ele>
        <time>2019-07-07T11:03:46.840Z</time>
      </trkpt>
      <trkpt lat="42.96673167" lon="-0.362205">
        <ele>984.0</ele>
        <time>2019-07-07T11:03:47.826Z</time>
      </trkpt>
      <trkpt lat="42.96684" lon="-0.36263">
        <ele>980.0</ele>
        <time>2019-07-07T11:03:48.830Z</time>
      </trkpt>
      <trkpt lat="42.96684" lon="-0.36263">
        <ele>980.0</ele>
        <time>2019-07-07T11:03:49.803Z</time>
      </trkpt>
      <trkpt lat="42.96692667" lon="-0.36306667">
        <ele>977.0</ele>
        <time>2019-07-07T11:03:50.830Z</time>
      </trkpt>
      <trkpt lat="42.96692667" lon="-0.36306667">
        <ele>977.0</ele>
        <time>2019-07-07T11:03:51.835Z</time>
      </trkpt>
      <trkpt lat="42.96698167" lon="-0.36350333">
        <ele>973.0</ele>
        <time>2019-07-07T11:03:52.827Z</time>
      </trkpt>
      <trkpt lat="42.96698167" lon="-0.36350333">
        <ele>973.0</ele>
        <time>2019-07-07T11:03:53.839Z</time>
      </trkpt>
      <trkpt lat="42.96702167" lon="-0.36392833">
        <ele>970.0</ele>
        <time>2019-07-07T11:03:54.815Z</time>
      </trkpt>
      <trkpt lat="42.96705833" lon="-0.36413167">
        <ele>969.0</ele>
        <time>2019-07-07T11:03:55.830Z</time>
      </trkpt>
      <trkpt lat="42.96705833" lon="-0.36413167">
        <ele>969.0</ele>
        <time>2019-07-07T11:03:56.837Z</time>
      </trkpt>
      <trkpt lat="42.96716667" lon="-0.36452833">
        <ele>966.0</ele>
        <time>2019-07-07T11:03:57.808Z</time>
      </trkpt>
      <trkpt lat="42.96721" lon="-0.36473167">
        <ele>964.0</ele>
        <time>2019-07-07T11:03:58.831Z</time>
      </trkpt>
      <trkpt lat="42.96721" lon="-0.36473167">
        <ele>964.0</ele>
        <time>2019-07-07T11:03:59.837Z</time>
      </trkpt>
      <trkpt lat="42.96725167" lon="-0.365145">
        <ele>961.0</ele>
        <time>2019-07-07T11:04:00.840Z</time>
      </trkpt>
      <trkpt lat="42.96725167" lon="-0.365145">
        <ele>961.0</ele>
        <time>2019-07-07T11:04:01.805Z</time>
      </trkpt>
      <trkpt lat="42.96732" lon="-0.36554667">
        <ele>957.0</ele>
        <time>2019-07-07T11:04:02.820Z</time>
      </trkpt>
      <trkpt lat="42.96732" lon="-0.36554667">
        <ele>957.0</ele>
        <time>2019-07-07T11:04:03.826Z</time>
      </trkpt>
      <trkpt lat="42.967445" lon="-0.36593667">
        <ele>954.0</ele>
        <time>2019-07-07T11:04:04.829Z</time>
      </trkpt>
      <trkpt lat="42.96751667" lon="-0.36612333">
        <ele>952.0</ele>
        <time>2019-07-07T11:04:05.827Z</time>
      </trkpt>
      <trkpt lat="42.96751667" lon="-0.36612333">
        <ele>952.0</ele>
        <time>2019-07-07T11:04:06.832Z</time>
      </trkpt>
      <trkpt lat="42.96763" lon="-0.366525">
        <ele>950.0</ele>
        <time>2019-07-07T11:04:07.806Z</time>
      </trkpt>
      <trkpt lat="42.96767333" lon="-0.36673">
        <ele>948.0</ele>
        <time>2019-07-07T11:04:08.830Z</time>
      </trkpt>
      <trkpt lat="42.96767333" lon="-0.36673">
        <ele>948.0</ele>
        <time>2019-07-07T11:04:09.836Z</time>
      </trkpt>
      <trkpt lat="42.96772667" lon="-0.36715667">
        <ele>946.0</ele>
        <time>2019-07-07T11:04:10.835Z</time>
      </trkpt>
      <trkpt lat="42.96772667" lon="-0.36715667">
        <ele>946.0</ele>
        <time>2019-07-07T11:04:11.840Z</time>
      </trkpt>
      <trkpt lat="42.96776833" lon="-0.36758833">
        <ele>943.0</ele>
        <time>2019-07-07T11:04:12.810Z</time>
      </trkpt>
      <trkpt lat="42.96780333" lon="-0.3678">
        <ele>941.0</ele>
        <time>2019-07-07T11:04:13.840Z</time>
      </trkpt>
      <trkpt lat="42.96780333" lon="-0.3678">
        <ele>941.0</ele>
        <time>2019-07-07T11:04:14.805Z</time>
      </trkpt>
      <trkpt lat="42.96791" lon="-0.36821167">
        <ele>939.0</ele>
        <time>2019-07-07T11:04:15.818Z</time>
      </trkpt>
      <trkpt lat="42.96797833" lon="-0.36841">
        <ele>937.0</ele>
        <time>2019-07-07T11:04:16.838Z</time>
      </trkpt>
      <trkpt lat="42.96797833" lon="-0.36841">
        <ele>937.0</ele>
        <time>2019-07-07T11:04:17.804Z</time>
      </trkpt>
      <trkpt lat="42.96813" lon="-0.36879167">
        <ele>935.0</ele>
        <time>2019-07-07T11:04:18.820Z</time>
      </trkpt>
      <trkpt lat="42.96813" lon="-0.36879167">
        <ele>935.0</ele>
        <time>2019-07-07T11:04:19.806Z</time>
      </trkpt>
      <trkpt lat="42.968255" lon="-0.36919833">
        <ele>932.0</ele>
        <time>2019-07-07T11:04:20.829Z</time>
      </trkpt>
      <trkpt lat="42.968255" lon="-0.36919833">
        <ele>932.0</ele>
        <time>2019-07-07T11:04:21.835Z</time>
      </trkpt>
      <trkpt lat="42.96839833" lon="-0.369595">
        <ele>929.0</ele>
        <time>2019-07-07T11:04:22.830Z</time>
      </trkpt>
      <trkpt lat="42.96839833" lon="-0.369595">
        <ele>929.0</ele>
        <time>2019-07-07T11:04:23.836Z</time>
      </trkpt>
      <trkpt lat="42.96859" lon="-0.36994833">
        <ele>926.0</ele>
        <time>2019-07-07T11:04:24.809Z</time>
      </trkpt>
      <trkpt lat="42.96868333" lon="-0.37012">
        <ele>925.0</ele>
        <time>2019-07-07T11:04:25.830Z</time>
      </trkpt>
      <trkpt lat="42.96868333" lon="-0.37012">
        <ele>925.0</ele>
        <time>2019-07-07T11:04:26.835Z</time>
      </trkpt>
      <trkpt lat="42.96885167" lon="-0.370455">
        <ele>921.0</ele>
        <time>2019-07-07T11:04:27.810Z</time>
      </trkpt>
      <trkpt lat="42.96892" lon="-0.37062333">
        <ele>920.0</ele>
        <time>2019-07-07T11:04:28.801Z</time>
      </trkpt>
      <trkpt lat="42.96892" lon="-0.37062333">
        <ele>920.0</ele>
        <time>2019-07-07T11:04:29.808Z</time>
      </trkpt>
      <trkpt lat="42.96894167" lon="-0.37098333">
        <ele>917.0</ele>
        <time>2019-07-07T11:04:30.820Z</time>
      </trkpt>
      <trkpt lat="42.96894167" lon="-0.37098333">
        <ele>917.0</ele>
        <time>2019-07-07T11:04:31.825Z</time>
      </trkpt>
      <trkpt lat="42.96889" lon="-0.37128667">
        <ele>914.0</ele>
        <time>2019-07-07T11:04:32.830Z</time>
      </trkpt>
      <trkpt lat="42.96889" lon="-0.37128667">
        <ele>914.0</ele>
        <time>2019-07-07T11:04:33.837Z</time>
      </trkpt>
      <trkpt lat="42.96894" lon="-0.371595">
        <ele>911.0</ele>
        <time>2019-07-07T11:04:34.810Z</time>
      </trkpt>
      <trkpt lat="42.96894" lon="-0.371595">
        <ele>911.0</ele>
        <time>2019-07-07T11:04:35.818Z</time>
      </trkpt>
      <trkpt lat="42.96905333" lon="-0.37188333">
        <ele>908.0</ele>
        <time>2019-07-07T11:04:36.826Z</time>
      </trkpt>
      <trkpt lat="42.969085" lon="-0.37204">
        <ele>907.0</ele>
        <time>2019-07-07T11:04:37.808Z</time>
      </trkpt>
      <trkpt lat="42.969085" lon="-0.37204">
        <ele>907.0</ele>
        <time>2019-07-07T11:04:38.814Z</time>
      </trkpt>
      <trkpt lat="42.96908" lon="-0.37231833">
        <ele>905.0</ele>
        <time>2019-07-07T11:04:39.840Z</time>
      </trkpt>
      <trkpt lat="42.96902833" lon="-0.37243167">
        <ele>903.0</ele>
        <time>2019-07-07T11:04:40.840Z</time>
      </trkpt>
      <trkpt lat="42.96902833" lon="-0.37243167">
        <ele>903.0</ele>
        <time>2019-07-07T11:04:41.805Z</time>
      </trkpt>
      <trkpt lat="42.96884833" lon="-0.372585">
        <ele>901.0</ele>
        <time>2019-07-07T11:04:42.820Z</time>
      </trkpt>
      <trkpt lat="42.96873833" lon="-0.37262167">
        <ele>900.0</ele>
        <time>2019-07-07T11:04:43.828Z</time>
      </trkpt>
      <trkpt lat="42.96873833" lon="-0.37262167">
        <ele>900.0</ele>
        <time>2019-07-07T11:04:44.833Z</time>
      </trkpt>
      <trkpt lat="42.96849667" lon="-0.37260833">
        <ele>898.0</ele>
        <time>2019-07-07T11:04:45.818Z</time>
      </trkpt>
      <trkpt lat="42.96849667" lon="-0.37260833">
        <ele>898.0</ele>
        <time>2019-07-07T11:04:46.823Z</time>
      </trkpt>
      <trkpt lat="42.96827833" lon="-0.37246">
        <ele>895.0</ele>
        <time>2019-07-07T11:04:47.846Z</time>
      </trkpt>
      <trkpt lat="42.96827833" lon="-0.37246">
        <ele>895.0</ele>
        <time>2019-07-07T11:04:48.860Z</time>
      </trkpt>
      <trkpt lat="42.968095" lon="-0.372215">
        <ele>893.0</ele>
        <time>2019-07-07T11:04:49.820Z</time>
      </trkpt>
      <trkpt lat="42.968095" lon="-0.372215">
        <ele>893.0</ele>
        <time>2019-07-07T11:04:50.801Z</time>
      </trkpt>
      <trkpt lat="42.96795833" lon="-0.37193667">
        <ele>890.0</ele>
        <time>2019-07-07T11:04:51.820Z</time>
      </trkpt>
      <trkpt lat="42.967895" lon="-0.37181">
        <ele>889.0</ele>
        <time>2019-07-07T11:04:52.837Z</time>
      </trkpt>
      <trkpt lat="42.967895" lon="-0.37181">
        <ele>889.0</ele>
        <time>2019-07-07T11:04:53.802Z</time>
      </trkpt>
      <trkpt lat="42.96775333" lon="-0.37165333">
        <ele>886.0</ele>
        <time>2019-07-07T11:04:54.820Z</time>
      </trkpt>
      <trkpt lat="42.96765667" lon="-0.37165">
        <ele>883.0</ele>
        <time>2019-07-07T11:04:55.830Z</time>
      </trkpt>
      <trkpt lat="42.96765667" lon="-0.37165">
        <ele>883.0</ele>
        <time>2019-07-07T11:04:56.835Z</time>
      </trkpt>
      <trkpt lat="42.96749667" lon="-0.37178667">
        <ele>881.0</ele>
        <time>2019-07-07T11:04:57.810Z</time>
      </trkpt>
      <trkpt lat="42.96745833" lon="-0.371915">
        <ele>879.0</ele>
        <time>2019-07-07T11:04:58.840Z</time>
      </trkpt>
      <trkpt lat="42.96745833" lon="-0.371915">
        <ele>879.0</ele>
        <time>2019-07-07T11:04:59.805Z</time>
      </trkpt>
      <trkpt lat="42.96744833" lon="-0.37222">
        <ele>877.0</ele>
        <time>2019-07-07T11:05:00.830Z</time>
      </trkpt>
      <trkpt lat="42.96746167" lon="-0.37238">
        <ele>876.0</ele>
        <time>2019-07-07T11:05:01.808Z</time>
      </trkpt>
      <trkpt lat="42.96746167" lon="-0.37238">
        <ele>876.0</ele>
        <time>2019-07-07T11:05:02.813Z</time>
      </trkpt>
      <trkpt lat="42.96749667" lon="-0.3727">
        <ele>874.0</ele>
        <time>2019-07-07T11:05:03.840Z</time>
      </trkpt>
      <trkpt lat="42.96749667" lon="-0.3727">
        <ele>874.0</ele>
        <time>2019-07-07T11:05:04.806Z</time>
      </trkpt>
      <trkpt lat="42.96753167" lon="-0.37301667">
        <ele>874.0</ele>
        <time>2019-07-07T11:05:05.830Z</time>
      </trkpt>
      <trkpt lat="42.96754667" lon="-0.373175">
        <ele>873.0</ele>
        <time>2019-07-07T11:05:06.810Z</time>
      </trkpt>
      <trkpt lat="42.96754667" lon="-0.373175">
        <ele>873.0</ele>
        <time>2019-07-07T11:05:07.815Z</time>
      </trkpt>
      <trkpt lat="42.96757333" lon="-0.373495">
        <ele>872.0</ele>
        <time>2019-07-07T11:05:08.840Z</time>
      </trkpt>
      <trkpt lat="42.96757333" lon="-0.373495">
        <ele>872.0</ele>
        <time>2019-07-07T11:05:09.806Z</time>
      </trkpt>
      <trkpt lat="42.967565" lon="-0.37382333">
        <ele>871.0</ele>
        <time>2019-07-07T11:05:10.840Z</time>
      </trkpt>
      <trkpt lat="42.967565" lon="-0.37382333">
        <ele>871.0</ele>
        <time>2019-07-07T11:05:11.805Z</time>
      </trkpt>
      <trkpt lat="42.967555" lon="-0.37415667">
        <ele>869.0</ele>
        <time>2019-07-07T11:05:12.840Z</time>
      </trkpt>
      <trkpt lat="42.967555" lon="-0.37415667">
        <ele>869.0</ele>
        <time>2019-07-07T11:05:13.806Z</time>
      </trkpt>
      <trkpt lat="42.96758833" lon="-0.374505">
        <ele>867.0</ele>
        <time>2019-07-07T11:05:14.815Z</time>
      </trkpt>
      <trkpt lat="42.967615" lon="-0.37468333">
        <ele>865.0</ele>
        <time>2019-07-07T11:05:15.808Z</time>
      </trkpt>
      <trkpt lat="42.967615" lon="-0.37468333">
        <ele>865.0</ele>
        <time>2019-07-07T11:05:16.823Z</time>
      </trkpt>
      <trkpt lat="42.96765333" lon="-0.37506167">
        <ele>861.0</ele>
        <time>2019-07-07T11:05:17.810Z</time>
      </trkpt>
      <trkpt lat="42.96765333" lon="-0.37506167">
        <ele>861.0</ele>
        <time>2019-07-07T11:05:18.815Z</time>
      </trkpt>
      <trkpt lat="42.96774167" lon="-0.3754">
        <ele>857.0</ele>
        <time>2019-07-07T11:05:19.818Z</time>
      </trkpt>
      <trkpt lat="42.96774167" lon="-0.3754">
        <ele>857.0</ele>
        <time>2019-07-07T11:05:20.824Z</time>
      </trkpt>
      <trkpt lat="42.96791167" lon="-0.37561">
        <ele>854.0</ele>
        <time>2019-07-07T11:05:21.838Z</time>
      </trkpt>
      <trkpt lat="42.96798667" lon="-0.3757">
        <ele>853.0</ele>
        <time>2019-07-07T11:05:22.808Z</time>
      </trkpt>
      <trkpt lat="42.96798667" lon="-0.3757">
        <ele>853.0</ele>
        <time>2019-07-07T11:05:23.814Z</time>
      </trkpt>
      <trkpt lat="42.96800333" lon="-0.37590667">
        <ele>851.0</ele>
        <time>2019-07-07T11:05:24.810Z</time>
      </trkpt>
      <trkpt lat="42.967965" lon="-0.375995">
        <ele>850.0</ele>
        <time>2019-07-07T11:05:25.840Z</time>
      </trkpt>
      <trkpt lat="42.967965" lon="-0.375995">
        <ele>850.0</ele>
        <time>2019-07-07T11:05:26.805Z</time>
      </trkpt>
      <trkpt lat="42.96782167" lon="-0.376155">
        <ele>848.0</ele>
        <time>2019-07-07T11:05:27.817Z</time>
      </trkpt>
      <trkpt lat="42.96782167" lon="-0.376155">
        <ele>848.0</ele>
        <time>2019-07-07T11:05:28.823Z</time>
      </trkpt>
      <trkpt lat="42.96766333" lon="-0.37631167">
        <ele>846.0</ele>
        <time>2019-07-07T11:05:29.813Z</time>
      </trkpt>
      <trkpt lat="42.96766333" lon="-0.37631167">
        <ele>846.0</ele>
        <time>2019-07-07T11:05:30.820Z</time>
      </trkpt>
      <trkpt lat="42.96752333" lon="-0.37653667">
        <ele>844.0</ele>
        <time>2019-07-07T11:05:31.816Z</time>
      </trkpt>
      <trkpt lat="42.96752333" lon="-0.37653667">
        <ele>844.0</ele>
        <time>2019-07-07T11:05:32.821Z</time>
      </trkpt>
      <trkpt lat="42.96755333" lon="-0.37677833">
        <ele>843.0</ele>
        <time>2019-07-07T11:05:33.802Z</time>
      </trkpt>
      <trkpt lat="42.96760167" lon="-0.3769">
        <ele>842.0</ele>
        <time>2019-07-07T11:05:34.827Z</time>
      </trkpt>
      <trkpt lat="42.96760167" lon="-0.3769">
        <ele>842.0</ele>
        <time>2019-07-07T11:05:35.835Z</time>
      </trkpt>
      <trkpt lat="42.96772167" lon="-0.37712">
        <ele>841.0</ele>
        <time>2019-07-07T11:05:36.830Z</time>
      </trkpt>
      <trkpt lat="42.96772167" lon="-0.37712">
        <ele>841.0</ele>
        <time>2019-07-07T11:05:37.836Z</time>
      </trkpt>
      <trkpt lat="42.967865" lon="-0.37733">
        <ele>840.0</ele>
        <time>2019-07-07T11:05:38.820Z</time>
      </trkpt>
      <trkpt lat="42.96791833" lon="-0.37744667">
        <ele>839.0</ele>
        <time>2019-07-07T11:05:39.840Z</time>
      </trkpt>
      <trkpt lat="42.96797333" lon="-0.37757667">
        <ele>839.0</ele>
        <time>2019-07-07T11:05:40.825Z</time>
      </trkpt>
      <trkpt lat="42.96797333" lon="-0.37757667">
        <ele>839.0</ele>
        <time>2019-07-07T11:05:41.834Z</time>
      </trkpt>
      <trkpt lat="42.96802167" lon="-0.37787667">
        <ele>839.0</ele>
        <time>2019-07-07T11:05:42.814Z</time>
      </trkpt>
      <trkpt lat="42.96804" lon="-0.37801833">
        <ele>838.0</ele>
        <time>2019-07-07T11:05:43.840Z</time>
      </trkpt>
      <trkpt lat="42.96804" lon="-0.37801833">
        <ele>838.0</ele>
        <time>2019-07-07T11:05:44.806Z</time>
      </trkpt>
      <trkpt lat="42.96812167" lon="-0.37828833">
        <ele>838.0</ele>
        <time>2019-07-07T11:05:45.830Z</time>
      </trkpt>
      <trkpt lat="42.96812167" lon="-0.37828833">
        <ele>838.0</ele>
        <time>2019-07-07T11:05:46.839Z</time>
      </trkpt>
      <trkpt lat="42.96821" lon="-0.37856">
        <ele>837.0</ele>
        <time>2019-07-07T11:05:47.820Z</time>
      </trkpt>
      <trkpt lat="42.96821" lon="-0.37856">
        <ele>837.0</ele>
        <time>2019-07-07T11:05:48.828Z</time>
      </trkpt>
      <trkpt lat="42.96822667" lon="-0.37885167">
        <ele>836.0</ele>
        <time>2019-07-07T11:05:49.831Z</time>
      </trkpt>
      <trkpt lat="42.96821667" lon="-0.37899">
        <ele>836.0</ele>
        <time>2019-07-07T11:05:50.820Z</time>
      </trkpt>
      <trkpt lat="42.96821667" lon="-0.37899">
        <ele>836.0</ele>
        <time>2019-07-07T11:05:51.825Z</time>
      </trkpt>
      <trkpt lat="42.96825833" lon="-0.37924667">
        <ele>835.0</ele>
        <time>2019-07-07T11:05:52.820Z</time>
      </trkpt>
      <trkpt lat="42.96825833" lon="-0.37924667">
        <ele>835.0</ele>
        <time>2019-07-07T11:05:53.825Z</time>
      </trkpt>
      <trkpt lat="42.96838" lon="-0.379465">
        <ele>834.0</ele>
        <time>2019-07-07T11:05:54.810Z</time>
      </trkpt>
      <trkpt lat="42.96843667" lon="-0.37951333">
        <ele>833.0</ele>
        <time>2019-07-07T11:05:55.830Z</time>
      </trkpt>
      <trkpt lat="42.96843667" lon="-0.37951333">
        <ele>833.0</ele>
        <time>2019-07-07T11:05:56.837Z</time>
      </trkpt>
      <trkpt lat="42.968645" lon="-0.37948833">
        <ele>833.0</ele>
        <time>2019-07-07T11:05:57.810Z</time>
      </trkpt>
      <trkpt lat="42.96874" lon="-0.37955167">
        <ele>833.0</ele>
        <time>2019-07-07T11:05:58.820Z</time>
      </trkpt>
      <trkpt lat="42.96874" lon="-0.37955167">
        <ele>833.0</ele>
        <time>2019-07-07T11:05:59.825Z</time>
      </trkpt>
      <trkpt lat="42.96886" lon="-0.379735">
        <ele>833.0</ele>
        <time>2019-07-07T11:06:00.810Z</time>
      </trkpt>
      <trkpt lat="42.968885" lon="-0.379845">
        <ele>832.0</ele>
        <time>2019-07-07T11:06:01.840Z</time>
      </trkpt>
      <trkpt lat="42.968885" lon="-0.379845">
        <ele>832.0</ele>
        <time>2019-07-07T11:06:02.806Z</time>
      </trkpt>
      <trkpt lat="42.96884667" lon="-0.38005833">
        <ele>832.0</ele>
        <time>2019-07-07T11:06:03.822Z</time>
      </trkpt>
      <trkpt lat="42.968805" lon="-0.38014833">
        <ele>832.0</ele>
        <time>2019-07-07T11:06:04.805Z</time>
      </trkpt>
      <trkpt lat="42.968805" lon="-0.38014833">
        <ele>832.0</ele>
        <time>2019-07-07T11:06:05.813Z</time>
      </trkpt>
      <trkpt lat="42.96869333" lon="-0.38032">
        <ele>831.0</ele>
        <time>2019-07-07T11:06:06.820Z</time>
      </trkpt>
      <trkpt lat="42.96869333" lon="-0.38032">
        <ele>831.0</ele>
        <time>2019-07-07T11:06:07.826Z</time>
      </trkpt>
      <trkpt lat="42.96868333" lon="-0.380545">
        <ele>831.0</ele>
        <time>2019-07-07T11:06:08.810Z</time>
      </trkpt>
      <trkpt lat="42.96868333" lon="-0.380545">
        <ele>831.0</ele>
        <time>2019-07-07T11:06:09.815Z</time>
      </trkpt>
      <trkpt lat="42.968795" lon="-0.38073167">
        <ele>831.0</ele>
        <time>2019-07-07T11:06:10.823Z</time>
      </trkpt>
      <trkpt lat="42.968795" lon="-0.38073167">
        <ele>831.0</ele>
        <time>2019-07-07T11:06:11.827Z</time>
      </trkpt>
      <trkpt lat="42.968955" lon="-0.38086333">
        <ele>830.0</ele>
        <time>2019-07-07T11:06:12.807Z</time>
      </trkpt>
      <trkpt lat="42.968955" lon="-0.38086333">
        <ele>830.0</ele>
        <time>2019-07-07T11:06:13.812Z</time>
      </trkpt>
      <trkpt lat="42.96914167" lon="-0.38085833">
        <ele>830.0</ele>
        <time>2019-07-07T11:06:14.830Z</time>
      </trkpt>
      <trkpt lat="42.96923333" lon="-0.38085167">
        <ele>829.0</ele>
        <time>2019-07-07T11:06:15.829Z</time>
      </trkpt>
      <trkpt lat="42.96923333" lon="-0.38085167">
        <ele>829.0</ele>
        <time>2019-07-07T11:06:16.802Z</time>
      </trkpt>
      <trkpt lat="42.969395" lon="-0.38096333">
        <ele>829.0</ele>
        <time>2019-07-07T11:06:17.818Z</time>
      </trkpt>
      <trkpt lat="42.969395" lon="-0.38096333">
        <ele>829.0</ele>
        <time>2019-07-07T11:06:18.801Z</time>
      </trkpt>
      <trkpt lat="42.96952333" lon="-0.38115">
        <ele>829.0</ele>
        <time>2019-07-07T11:06:19.810Z</time>
      </trkpt>
      <trkpt lat="42.96952333" lon="-0.38115">
        <ele>829.0</ele>
        <time>2019-07-07T11:06:20.815Z</time>
      </trkpt>
      <trkpt lat="42.96966833" lon="-0.38133333">
        <ele>828.0</ele>
        <time>2019-07-07T11:06:21.817Z</time>
      </trkpt>
      <trkpt lat="42.96966833" lon="-0.38133333">
        <ele>828.0</ele>
        <time>2019-07-07T11:06:22.822Z</time>
      </trkpt>
      <trkpt lat="42.96982167" lon="-0.38148167">
        <ele>828.0</ele>
        <time>2019-07-07T11:06:23.819Z</time>
      </trkpt>
      <trkpt lat="42.96982167" lon="-0.38148167">
        <ele>828.0</ele>
        <time>2019-07-07T11:06:24.818Z</time>
      </trkpt>
      <trkpt lat="42.96989333" lon="-0.38168833">
        <ele>826.0</ele>
        <time>2019-07-07T11:06:25.804Z</time>
      </trkpt>
      <trkpt lat="42.96989333" lon="-0.38168833">
        <ele>826.0</ele>
        <time>2019-07-07T11:06:26.809Z</time>
      </trkpt>
      <trkpt lat="42.96992667" lon="-0.38194167">
        <ele>825.0</ele>
        <time>2019-07-07T11:06:27.810Z</time>
      </trkpt>
      <trkpt lat="42.96993167" lon="-0.38210667">
        <ele>825.0</ele>
        <time>2019-07-07T11:06:28.827Z</time>
      </trkpt>
      <trkpt lat="42.96993167" lon="-0.38210667">
        <ele>825.0</ele>
        <time>2019-07-07T11:06:29.832Z</time>
      </trkpt>
      <trkpt lat="42.96994333" lon="-0.38231167">
        <ele>824.0</ele>
        <time>2019-07-07T11:06:30.810Z</time>
      </trkpt>
      <trkpt lat="42.96994333" lon="-0.38231167">
        <ele>824.0</ele>
        <time>2019-07-07T11:06:31.816Z</time>
      </trkpt>
      <trkpt lat="42.96999333" lon="-0.38244667">
        <ele>823.0</ele>
        <time>2019-07-07T11:06:32.803Z</time>
      </trkpt>
      <trkpt lat="42.97001833" lon="-0.382425">
        <ele>823.0</ele>
        <time>2019-07-07T11:06:33.840Z</time>
      </trkpt>
      <trkpt lat="42.970035" lon="-0.38237">
        <ele>822.0</ele>
        <time>2019-07-07T11:06:34.810Z</time>
      </trkpt>
      <trkpt lat="42.970035" lon="-0.38237">
        <ele>822.0</ele>
        <time>2019-07-07T11:06:35.817Z</time>
      </trkpt>
      <trkpt lat="42.970005" lon="-0.38222">
        <ele>822.0</ele>
        <time>2019-07-07T11:06:36.838Z</time>
      </trkpt>
      <trkpt lat="42.970005" lon="-0.38222">
        <ele>822.0</ele>
        <time>2019-07-07T11:06:37.804Z</time>
      </trkpt>
      <trkpt lat="42.96998" lon="-0.38203333">
        <ele>821.0</ele>
        <time>2019-07-07T11:06:38.810Z</time>
      </trkpt>
      <trkpt lat="42.96998" lon="-0.38203333">
        <ele>821.0</ele>
        <time>2019-07-07T11:06:39.815Z</time>
      </trkpt>
      <trkpt lat="42.96998667" lon="-0.38179">
        <ele>820.0</ele>
        <time>2019-07-07T11:06:40.821Z</time>
      </trkpt>
      <trkpt lat="42.96998667" lon="-0.38179">
        <ele>820.0</ele>
        <time>2019-07-07T11:06:41.827Z</time>
      </trkpt>
      <trkpt lat="42.96999167" lon="-0.38153">
        <ele>819.0</ele>
        <time>2019-07-07T11:06:42.821Z</time>
      </trkpt>
      <trkpt lat="42.96999167" lon="-0.38153">
        <ele>819.0</ele>
        <time>2019-07-07T11:06:43.826Z</time>
      </trkpt>
      <trkpt lat="42.96990333" lon="-0.381295">
        <ele>818.0</ele>
        <time>2019-07-07T11:06:44.840Z</time>
      </trkpt>
      <trkpt lat="42.96984667" lon="-0.38118333">
        <ele>818.0</ele>
        <time>2019-07-07T11:06:45.820Z</time>
      </trkpt>
      <trkpt lat="42.96984667" lon="-0.38118333">
        <ele>818.0</ele>
        <time>2019-07-07T11:06:46.825Z</time>
      </trkpt>
      <trkpt lat="42.969765" lon="-0.38092167">
        <ele>817.0</ele>
        <time>2019-07-07T11:06:47.824Z</time>
      </trkpt>
      <trkpt lat="42.969765" lon="-0.38092167">
        <ele>817.0</ele>
        <time>2019-07-07T11:06:48.818Z</time>
      </trkpt>
      <trkpt lat="42.969715" lon="-0.38068">
        <ele>816.0</ele>
        <time>2019-07-07T11:06:49.826Z</time>
      </trkpt>
      <trkpt lat="42.969715" lon="-0.38068">
        <ele>816.0</ele>
        <time>2019-07-07T11:06:50.833Z</time>
      </trkpt>
      <trkpt lat="42.96980333" lon="-0.380555">
        <ele>814.0</ele>
        <time>2019-07-07T11:06:51.820Z</time>
      </trkpt>
      <trkpt lat="42.96986667" lon="-0.38056833">
        <ele>814.0</ele>
        <time>2019-07-07T11:06:52.830Z</time>
      </trkpt>
      <trkpt lat="42.96986667" lon="-0.38056833">
        <ele>814.0</ele>
        <time>2019-07-07T11:06:53.836Z</time>
      </trkpt>
      <trkpt lat="42.96998167" lon="-0.3807">
        <ele>813.0</ele>
        <time>2019-07-07T11:06:54.817Z</time>
      </trkpt>
      <trkpt lat="42.97003333" lon="-0.38079333">
        <ele>812.0</ele>
        <time>2019-07-07T11:06:55.806Z</time>
      </trkpt>
      <trkpt lat="42.97003333" lon="-0.38079333">
        <ele>812.0</ele>
        <time>2019-07-07T11:06:56.812Z</time>
      </trkpt>
      <trkpt lat="42.97013333" lon="-0.38100667">
        <ele>811.0</ele>
        <time>2019-07-07T11:06:57.810Z</time>
      </trkpt>
      <trkpt lat="42.97016167" lon="-0.38114">
        <ele>811.0</ele>
        <time>2019-07-07T11:06:58.830Z</time>
      </trkpt>
      <trkpt lat="42.97016167" lon="-0.38114">
        <ele>811.0</ele>
        <time>2019-07-07T11:06:59.837Z</time>
      </trkpt>
      <trkpt lat="42.970215" lon="-0.38142833">
        <ele>810.0</ele>
        <time>2019-07-07T11:07:00.820Z</time>
      </trkpt>
      <trkpt lat="42.970215" lon="-0.38142833">
        <ele>810.0</ele>
        <time>2019-07-07T11:07:01.826Z</time>
      </trkpt>
      <trkpt lat="42.97028167" lon="-0.38173167">
        <ele>809.0</ele>
        <time>2019-07-07T11:07:02.807Z</time>
      </trkpt>
      <trkpt lat="42.97028167" lon="-0.38173167">
        <ele>809.0</ele>
        <time>2019-07-07T11:07:03.813Z</time>
      </trkpt>
      <trkpt lat="42.97035167" lon="-0.38204167">
        <ele>807.0</ele>
        <time>2019-07-07T11:07:04.801Z</time>
      </trkpt>
      <trkpt lat="42.97035167" lon="-0.38204167">
        <ele>807.0</ele>
        <time>2019-07-07T11:07:05.816Z</time>
      </trkpt>
      <trkpt lat="42.97049333" lon="-0.382305">
        <ele>806.0</ele>
        <time>2019-07-07T11:07:06.807Z</time>
      </trkpt>
      <trkpt lat="42.97049333" lon="-0.382305">
        <ele>806.0</ele>
        <time>2019-07-07T11:07:07.813Z</time>
      </trkpt>
      <trkpt lat="42.97070167" lon="-0.38247333">
        <ele>805.0</ele>
        <time>2019-07-07T11:07:08.830Z</time>
      </trkpt>
      <trkpt lat="42.97070167" lon="-0.38247333">
        <ele>805.0</ele>
        <time>2019-07-07T11:07:09.839Z</time>
      </trkpt>
      <trkpt lat="42.97093667" lon="-0.38259667">
        <ele>803.0</ele>
        <time>2019-07-07T11:07:10.830Z</time>
      </trkpt>
      <trkpt lat="42.97104167" lon="-0.38268667">
        <ele>802.0</ele>
        <time>2019-07-07T11:07:11.810Z</time>
      </trkpt>
      <trkpt lat="42.97113333" lon="-0.38280833">
        <ele>801.0</ele>
        <time>2019-07-07T11:07:12.810Z</time>
      </trkpt>
      <trkpt lat="42.97113333" lon="-0.38280833">
        <ele>801.0</ele>
        <time>2019-07-07T11:07:13.816Z</time>
      </trkpt>
      <trkpt lat="42.97126667" lon="-0.38311167">
        <ele>799.0</ele>
        <time>2019-07-07T11:07:14.820Z</time>
      </trkpt>
      <trkpt lat="42.97132667" lon="-0.38327333">
        <ele>798.0</ele>
        <time>2019-07-07T11:07:15.819Z</time>
      </trkpt>
      <trkpt lat="42.97132667" lon="-0.38327333">
        <ele>798.0</ele>
        <time>2019-07-07T11:07:16.826Z</time>
      </trkpt>
      <trkpt lat="42.97143667" lon="-0.38361167">
        <ele>796.0</ele>
        <time>2019-07-07T11:07:17.810Z</time>
      </trkpt>
      <trkpt lat="42.97143667" lon="-0.38361167">
        <ele>796.0</ele>
        <time>2019-07-07T11:07:18.816Z</time>
      </trkpt>
      <trkpt lat="42.97155667" lon="-0.38395">
        <ele>794.0</ele>
        <time>2019-07-07T11:07:19.840Z</time>
      </trkpt>
      <trkpt lat="42.97155667" lon="-0.38395">
        <ele>794.0</ele>
        <time>2019-07-07T11:07:20.805Z</time>
      </trkpt>
      <trkpt lat="42.97168667" lon="-0.38427">
        <ele>791.0</ele>
        <time>2019-07-07T11:07:21.810Z</time>
      </trkpt>
      <trkpt lat="42.97175833" lon="-0.38442167">
        <ele>790.0</ele>
        <time>2019-07-07T11:07:22.840Z</time>
      </trkpt>
      <trkpt lat="42.97175833" lon="-0.38442167">
        <ele>790.0</ele>
        <time>2019-07-07T11:07:23.805Z</time>
      </trkpt>
      <trkpt lat="42.97187667" lon="-0.38475833">
        <ele>788.0</ele>
        <time>2019-07-07T11:07:24.840Z</time>
      </trkpt>
      <trkpt lat="42.97191833" lon="-0.38492667">
        <ele>787.0</ele>
        <time>2019-07-07T11:07:25.830Z</time>
      </trkpt>
      <trkpt lat="42.97191833" lon="-0.38492667">
        <ele>787.0</ele>
        <time>2019-07-07T11:07:26.837Z</time>
      </trkpt>
      <trkpt lat="42.97193667" lon="-0.38527833">
        <ele>784.0</ele>
        <time>2019-07-07T11:07:27.820Z</time>
      </trkpt>
      <trkpt lat="42.97191833" lon="-0.38545167">
        <ele>782.0</ele>
        <time>2019-07-07T11:07:28.828Z</time>
      </trkpt>
      <trkpt lat="42.97191833" lon="-0.38545167">
        <ele>782.0</ele>
        <time>2019-07-07T11:07:29.834Z</time>
      </trkpt>
      <trkpt lat="42.97184667" lon="-0.38579833">
        <ele>779.0</ele>
        <time>2019-07-07T11:07:30.810Z</time>
      </trkpt>
      <trkpt lat="42.97184667" lon="-0.38579833">
        <ele>779.0</ele>
        <time>2019-07-07T11:07:31.815Z</time>
      </trkpt>
      <trkpt lat="42.97178667" lon="-0.38613167">
        <ele>776.0</ele>
        <time>2019-07-07T11:07:32.830Z</time>
      </trkpt>
      <trkpt lat="42.97178667" lon="-0.38613167">
        <ele>776.0</ele>
        <time>2019-07-07T11:07:33.840Z</time>
      </trkpt>
      <trkpt lat="42.9718" lon="-0.38648833">
        <ele>773.0</ele>
        <time>2019-07-07T11:07:34.840Z</time>
      </trkpt>
      <trkpt lat="42.97184333" lon="-0.38666">
        <ele>771.0</ele>
        <time>2019-07-07T11:07:35.832Z</time>
      </trkpt>
      <trkpt lat="42.97184333" lon="-0.38666">
        <ele>771.0</ele>
        <time>2019-07-07T11:07:36.838Z</time>
      </trkpt>
      <trkpt lat="42.97193833" lon="-0.38700833">
        <ele>768.0</ele>
        <time>2019-07-07T11:07:37.805Z</time>
      </trkpt>
      <trkpt lat="42.97193833" lon="-0.38700833">
        <ele>768.0</ele>
        <time>2019-07-07T11:07:38.810Z</time>
      </trkpt>
      <trkpt lat="42.97203" lon="-0.387355">
        <ele>765.0</ele>
        <time>2019-07-07T11:07:39.828Z</time>
      </trkpt>
      <trkpt lat="42.972075" lon="-0.38753167">
        <ele>764.0</ele>
        <time>2019-07-07T11:07:40.810Z</time>
      </trkpt>
      <trkpt lat="42.972075" lon="-0.38753167">
        <ele>764.0</ele>
        <time>2019-07-07T11:07:41.815Z</time>
      </trkpt>
      <trkpt lat="42.97215333" lon="-0.38788333">
        <ele>761.0</ele>
        <time>2019-07-07T11:07:42.820Z</time>
      </trkpt>
      <trkpt lat="42.97215333" lon="-0.38788333">
        <ele>761.0</ele>
        <time>2019-07-07T11:07:43.828Z</time>
      </trkpt>
      <trkpt lat="42.972215" lon="-0.38825167">
        <ele>757.0</ele>
        <time>2019-07-07T11:07:44.820Z</time>
      </trkpt>
      <trkpt lat="42.97226" lon="-0.38842833">
        <ele>756.0</ele>
        <time>2019-07-07T11:07:45.824Z</time>
      </trkpt>
      <trkpt lat="42.97226" lon="-0.38842833">
        <ele>756.0</ele>
        <time>2019-07-07T11:07:46.830Z</time>
      </trkpt>
      <trkpt lat="42.972375" lon="-0.38877">
        <ele>753.0</ele>
        <time>2019-07-07T11:07:47.840Z</time>
      </trkpt>
      <trkpt lat="42.972375" lon="-0.38877">
        <ele>753.0</ele>
        <time>2019-07-07T11:07:48.809Z</time>
      </trkpt>
      <trkpt lat="42.972515" lon="-0.3891">
        <ele>749.0</ele>
        <time>2019-07-07T11:07:49.826Z</time>
      </trkpt>
      <trkpt lat="42.972515" lon="-0.3891">
        <ele>749.0</ele>
        <time>2019-07-07T11:07:50.831Z</time>
      </trkpt>
      <trkpt lat="42.97262667" lon="-0.389455">
        <ele>746.0</ele>
        <time>2019-07-07T11:07:51.840Z</time>
      </trkpt>
      <trkpt lat="42.97268167" lon="-0.38963833">
        <ele>745.0</ele>
        <time>2019-07-07T11:07:52.822Z</time>
      </trkpt>
      <trkpt lat="42.97273" lon="-0.38982167">
        <ele>743.0</ele>
        <time>2019-07-07T11:07:53.810Z</time>
      </trkpt>
      <trkpt lat="42.97273" lon="-0.38982167">
        <ele>743.0</ele>
        <time>2019-07-07T11:07:54.816Z</time>
      </trkpt>
      <trkpt lat="42.97284" lon="-0.390175">
        <ele>740.0</ele>
        <time>2019-07-07T11:07:55.840Z</time>
      </trkpt>
      <trkpt lat="42.972895" lon="-0.39035167">
        <ele>739.0</ele>
        <time>2019-07-07T11:07:56.810Z</time>
      </trkpt>
      <trkpt lat="42.972895" lon="-0.39035167">
        <ele>739.0</ele>
        <time>2019-07-07T11:07:57.816Z</time>
      </trkpt>
      <trkpt lat="42.97303667" lon="-0.39067833">
        <ele>737.0</ele>
        <time>2019-07-07T11:07:58.820Z</time>
      </trkpt>
      <trkpt lat="42.97303667" lon="-0.39067833">
        <ele>737.0</ele>
        <time>2019-07-07T11:07:59.825Z</time>
      </trkpt>
      <trkpt lat="42.97317333" lon="-0.39095833">
        <ele>734.0</ele>
        <time>2019-07-07T11:08:00.820Z</time>
      </trkpt>
      <trkpt lat="42.97317333" lon="-0.39095833">
        <ele>734.0</ele>
        <time>2019-07-07T11:08:01.826Z</time>
      </trkpt>
      <trkpt lat="42.97326" lon="-0.39120833">
        <ele>732.0</ele>
        <time>2019-07-07T11:08:02.840Z</time>
      </trkpt>
      <trkpt lat="42.97326167" lon="-0.39133667">
        <ele>731.0</ele>
        <time>2019-07-07T11:08:03.820Z</time>
      </trkpt>
      <trkpt lat="42.97323333" lon="-0.39145667">
        <ele>730.0</ele>
        <time>2019-07-07T11:08:04.830Z</time>
      </trkpt>
      <trkpt lat="42.97323333" lon="-0.39145667">
        <ele>730.0</ele>
        <time>2019-07-07T11:08:05.837Z</time>
      </trkpt>
      <trkpt lat="42.97315167" lon="-0.391675">
        <ele>728.0</ele>
        <time>2019-07-07T11:08:06.840Z</time>
      </trkpt>
      <trkpt lat="42.9731" lon="-0.39177333">
        <ele>726.0</ele>
        <time>2019-07-07T11:08:07.808Z</time>
      </trkpt>
      <trkpt lat="42.9731" lon="-0.39177333">
        <ele>726.0</ele>
        <time>2019-07-07T11:08:08.813Z</time>
      </trkpt>
      <trkpt lat="42.972985" lon="-0.391905">
        <ele>724.0</ele>
        <time>2019-07-07T11:08:09.801Z</time>
      </trkpt>
      <trkpt lat="42.97292333" lon="-0.39196167">
        <ele>722.0</ele>
        <time>2019-07-07T11:08:10.830Z</time>
      </trkpt>
      <trkpt lat="42.97292333" lon="-0.39196167">
        <ele>722.0</ele>
        <time>2019-07-07T11:08:11.840Z</time>
      </trkpt>
      <trkpt lat="42.97288833" lon="-0.39204167">
        <ele>721.0</ele>
        <time>2019-07-07T11:08:12.838Z</time>
      </trkpt>
      <trkpt lat="42.97291" lon="-0.392095">
        <ele>720.0</ele>
        <time>2019-07-07T11:08:13.839Z</time>
      </trkpt>
      <trkpt lat="42.97291" lon="-0.392095">
        <ele>720.0</ele>
        <time>2019-07-07T11:08:14.804Z</time>
      </trkpt>
      <trkpt lat="42.97296833" lon="-0.39223">
        <ele>720.0</ele>
        <time>2019-07-07T11:08:15.820Z</time>
      </trkpt>
      <trkpt lat="42.97296833" lon="-0.39223">
        <ele>720.0</ele>
        <time>2019-07-07T11:08:16.801Z</time>
      </trkpt>
      <trkpt lat="42.97307" lon="-0.39235833">
        <ele>719.0</ele>
        <time>2019-07-07T11:08:17.820Z</time>
      </trkpt>
      <trkpt lat="42.97307" lon="-0.39235833">
        <ele>719.0</ele>
        <time>2019-07-07T11:08:18.825Z</time>
      </trkpt>
      <trkpt lat="42.97317" lon="-0.39255667">
        <ele>718.0</ele>
        <time>2019-07-07T11:08:19.840Z</time>
      </trkpt>
      <trkpt lat="42.97317" lon="-0.39255667">
        <ele>718.0</ele>
        <time>2019-07-07T11:08:20.805Z</time>
      </trkpt>
      <trkpt lat="42.97328667" lon="-0.39277333">
        <ele>717.0</ele>
        <time>2019-07-07T11:08:21.810Z</time>
      </trkpt>
      <trkpt lat="42.97335833" lon="-0.39288">
        <ele>716.0</ele>
        <time>2019-07-07T11:08:22.825Z</time>
      </trkpt>
      <trkpt lat="42.97335833" lon="-0.39288">
        <ele>716.0</ele>
        <time>2019-07-07T11:08:23.830Z</time>
      </trkpt>
      <trkpt lat="42.9735" lon="-0.39311167">
        <ele>715.0</ele>
        <time>2019-07-07T11:08:24.808Z</time>
      </trkpt>
      <trkpt lat="42.97357333" lon="-0.39322833">
        <ele>714.0</ele>
        <time>2019-07-07T11:08:25.830Z</time>
      </trkpt>
      <trkpt lat="42.97357333" lon="-0.39322833">
        <ele>714.0</ele>
        <time>2019-07-07T11:08:26.840Z</time>
      </trkpt>
      <trkpt lat="42.97372333" lon="-0.39346">
        <ele>713.0</ele>
        <time>2019-07-07T11:08:27.830Z</time>
      </trkpt>
      <trkpt lat="42.9738" lon="-0.39357833">
        <ele>713.0</ele>
        <time>2019-07-07T11:08:28.818Z</time>
      </trkpt>
      <trkpt lat="42.9738" lon="-0.39357833">
        <ele>713.0</ele>
        <time>2019-07-07T11:08:29.824Z</time>
      </trkpt>
      <trkpt lat="42.973975" lon="-0.39377667">
        <ele>711.0</ele>
        <time>2019-07-07T11:08:30.830Z</time>
      </trkpt>
      <trkpt lat="42.973975" lon="-0.39377667">
        <ele>711.0</ele>
        <time>2019-07-07T11:08:31.838Z</time>
      </trkpt>
      <trkpt lat="42.97408167" lon="-0.39405">
        <ele>710.0</ele>
        <time>2019-07-07T11:08:32.820Z</time>
      </trkpt>
      <trkpt lat="42.974075" lon="-0.39423167">
        <ele>709.0</ele>
        <time>2019-07-07T11:08:33.820Z</time>
      </trkpt>
      <trkpt lat="42.97408333" lon="-0.39438833">
        <ele>709.0</ele>
        <time>2019-07-07T11:08:34.830Z</time>
      </trkpt>
      <trkpt lat="42.97408333" lon="-0.39438833">
        <ele>709.0</ele>
        <time>2019-07-07T11:08:35.807Z</time>
      </trkpt>
      <trkpt lat="42.97410833" lon="-0.394705">
        <ele>707.0</ele>
        <time>2019-07-07T11:08:36.817Z</time>
      </trkpt>
      <trkpt lat="42.97410833" lon="-0.394705">
        <ele>707.0</ele>
        <time>2019-07-07T11:08:37.823Z</time>
      </trkpt>
      <trkpt lat="42.974165" lon="-0.39501667">
        <ele>706.0</ele>
        <time>2019-07-07T11:08:38.810Z</time>
      </trkpt>
      <trkpt lat="42.974165" lon="-0.39501667">
        <ele>706.0</ele>
        <time>2019-07-07T11:08:39.816Z</time>
      </trkpt>
      <trkpt lat="42.97422667" lon="-0.39532">
        <ele>705.0</ele>
        <time>2019-07-07T11:08:40.810Z</time>
      </trkpt>
      <trkpt lat="42.97422667" lon="-0.39532">
        <ele>705.0</ele>
        <time>2019-07-07T11:08:41.815Z</time>
      </trkpt>
      <trkpt lat="42.97422833" lon="-0.39563">
        <ele>704.0</ele>
        <time>2019-07-07T11:08:42.820Z</time>
      </trkpt>
      <trkpt lat="42.974195" lon="-0.395775">
        <ele>703.0</ele>
        <time>2019-07-07T11:08:43.839Z</time>
      </trkpt>
      <trkpt lat="42.974195" lon="-0.395775">
        <ele>703.0</ele>
        <time>2019-07-07T11:08:44.804Z</time>
      </trkpt>
      <trkpt lat="42.97410667" lon="-0.39605833">
        <ele>702.0</ele>
        <time>2019-07-07T11:08:45.824Z</time>
      </trkpt>
      <trkpt lat="42.97410667" lon="-0.39605833">
        <ele>702.0</ele>
        <time>2019-07-07T11:08:46.829Z</time>
      </trkpt>
      <trkpt lat="42.97406333" lon="-0.39636667">
        <ele>700.0</ele>
        <time>2019-07-07T11:08:47.817Z</time>
      </trkpt>
      <trkpt lat="42.97406333" lon="-0.39636667">
        <ele>700.0</ele>
        <time>2019-07-07T11:08:48.806Z</time>
      </trkpt>
      <trkpt lat="42.97401667" lon="-0.39667833">
        <ele>699.0</ele>
        <time>2019-07-07T11:08:49.820Z</time>
      </trkpt>
      <trkpt lat="42.97401667" lon="-0.39667833">
        <ele>699.0</ele>
        <time>2019-07-07T11:08:50.825Z</time>
      </trkpt>
      <trkpt lat="42.97392167" lon="-0.39696">
        <ele>698.0</ele>
        <time>2019-07-07T11:08:51.821Z</time>
      </trkpt>
      <trkpt lat="42.97392167" lon="-0.39696">
        <ele>698.0</ele>
        <time>2019-07-07T11:08:52.802Z</time>
      </trkpt>
      <trkpt lat="42.97388667" lon="-0.39727333">
        <ele>696.0</ele>
        <time>2019-07-07T11:08:53.830Z</time>
      </trkpt>
      <trkpt lat="42.97388667" lon="-0.39727333">
        <ele>696.0</ele>
        <time>2019-07-07T11:08:54.839Z</time>
      </trkpt>
      <trkpt lat="42.97398" lon="-0.39758667">
        <ele>695.0</ele>
        <time>2019-07-07T11:08:55.830Z</time>
      </trkpt>
      <trkpt lat="42.97398" lon="-0.39758667">
        <ele>695.0</ele>
        <time>2019-07-07T11:08:56.838Z</time>
      </trkpt>
      <trkpt lat="42.97412833" lon="-0.39785833">
        <ele>694.0</ele>
        <time>2019-07-07T11:08:57.820Z</time>
      </trkpt>
      <trkpt lat="42.97420167" lon="-0.39798167">
        <ele>693.0</ele>
        <time>2019-07-07T11:08:58.833Z</time>
      </trkpt>
      <trkpt lat="42.97420167" lon="-0.39798167">
        <ele>693.0</ele>
        <time>2019-07-07T11:08:59.839Z</time>
      </trkpt>
      <trkpt lat="42.97429333" lon="-0.39827">
        <ele>691.0</ele>
        <time>2019-07-07T11:09:00.815Z</time>
      </trkpt>
      <trkpt lat="42.97429333" lon="-0.39827">
        <ele>691.0</ele>
        <time>2019-07-07T11:09:01.820Z</time>
      </trkpt>
      <trkpt lat="42.97435167" lon="-0.39855833">
        <ele>690.0</ele>
        <time>2019-07-07T11:09:02.813Z</time>
      </trkpt>
      <trkpt lat="42.97435167" lon="-0.39855833">
        <ele>690.0</ele>
        <time>2019-07-07T11:09:03.818Z</time>
      </trkpt>
      <trkpt lat="42.97440833" lon="-0.39886167">
        <ele>689.0</ele>
        <time>2019-07-07T11:09:04.807Z</time>
      </trkpt>
      <trkpt lat="42.97440833" lon="-0.39886167">
        <ele>689.0</ele>
        <time>2019-07-07T11:09:05.812Z</time>
      </trkpt>
      <trkpt lat="42.97447" lon="-0.39917">
        <ele>687.0</ele>
        <time>2019-07-07T11:09:06.820Z</time>
      </trkpt>
      <trkpt lat="42.97449" lon="-0.39932333">
        <ele>687.0</ele>
        <time>2019-07-07T11:09:07.820Z</time>
      </trkpt>
      <trkpt lat="42.97449" lon="-0.39932333">
        <ele>687.0</ele>
        <time>2019-07-07T11:09:08.826Z</time>
      </trkpt>
      <trkpt lat="42.9745" lon="-0.39964667">
        <ele>685.0</ele>
        <time>2019-07-07T11:09:09.820Z</time>
      </trkpt>
      <trkpt lat="42.97449667" lon="-0.39981">
        <ele>684.0</ele>
        <time>2019-07-07T11:09:10.806Z</time>
      </trkpt>
      <trkpt lat="42.97449667" lon="-0.39981">
        <ele>684.0</ele>
        <time>2019-07-07T11:09:11.812Z</time>
      </trkpt>
      <trkpt lat="42.97448" lon="-0.40013333">
        <ele>683.0</ele>
        <time>2019-07-07T11:09:12.830Z</time>
      </trkpt>
      <trkpt lat="42.97448" lon="-0.40013333">
        <ele>683.0</ele>
        <time>2019-07-07T11:09:13.836Z</time>
      </trkpt>
      <trkpt lat="42.97446833" lon="-0.40047167">
        <ele>681.0</ele>
        <time>2019-07-07T11:09:14.830Z</time>
      </trkpt>
      <trkpt lat="42.97448333" lon="-0.40064167">
        <ele>681.0</ele>
        <time>2019-07-07T11:09:15.807Z</time>
      </trkpt>
      <trkpt lat="42.97448333" lon="-0.40064167">
        <ele>681.0</ele>
        <time>2019-07-07T11:09:16.812Z</time>
      </trkpt>
      <trkpt lat="42.97453667" lon="-0.40097333">
        <ele>680.0</ele>
        <time>2019-07-07T11:09:17.830Z</time>
      </trkpt>
      <trkpt lat="42.97453667" lon="-0.40097333">
        <ele>680.0</ele>
        <time>2019-07-07T11:09:18.838Z</time>
      </trkpt>
      <trkpt lat="42.97458333" lon="-0.40131167">
        <ele>679.0</ele>
        <time>2019-07-07T11:09:19.820Z</time>
      </trkpt>
      <trkpt lat="42.97460667" lon="-0.40148667">
        <ele>678.0</ele>
        <time>2019-07-07T11:09:20.840Z</time>
      </trkpt>
      <trkpt lat="42.97460667" lon="-0.40148667">
        <ele>678.0</ele>
        <time>2019-07-07T11:09:21.806Z</time>
      </trkpt>
      <trkpt lat="42.974665" lon="-0.40183333">
        <ele>677.0</ele>
        <time>2019-07-07T11:09:22.813Z</time>
      </trkpt>
      <trkpt lat="42.974665" lon="-0.40183333">
        <ele>677.0</ele>
        <time>2019-07-07T11:09:23.818Z</time>
      </trkpt>
      <trkpt lat="42.97470167" lon="-0.40218667">
        <ele>675.0</ele>
        <time>2019-07-07T11:09:24.830Z</time>
      </trkpt>
      <trkpt lat="42.97471" lon="-0.40235833">
        <ele>675.0</ele>
        <time>2019-07-07T11:09:25.820Z</time>
      </trkpt>
      <trkpt lat="42.97471" lon="-0.40235833">
        <ele>675.0</ele>
        <time>2019-07-07T11:09:26.825Z</time>
      </trkpt>
      <trkpt lat="42.97471833" lon="-0.40270667">
        <ele>673.0</ele>
        <time>2019-07-07T11:09:27.840Z</time>
      </trkpt>
      <trkpt lat="42.97473833" lon="-0.40287667">
        <ele>673.0</ele>
        <time>2019-07-07T11:09:28.810Z</time>
      </trkpt>
      <trkpt lat="42.97473833" lon="-0.40287667">
        <ele>673.0</ele>
        <time>2019-07-07T11:09:29.815Z</time>
      </trkpt>
      <trkpt lat="42.97481" lon="-0.40320667">
        <ele>672.0</ele>
        <time>2019-07-07T11:09:30.840Z</time>
      </trkpt>
      <trkpt lat="42.97481" lon="-0.40320667">
        <ele>672.0</ele>
        <time>2019-07-07T11:09:31.805Z</time>
      </trkpt>
      <trkpt lat="42.97490333" lon="-0.40351667">
        <ele>671.0</ele>
        <time>2019-07-07T11:09:32.827Z</time>
      </trkpt>
      <trkpt lat="42.97490333" lon="-0.40351667">
        <ele>671.0</ele>
        <time>2019-07-07T11:09:33.833Z</time>
      </trkpt>
      <trkpt lat="42.97496667" lon="-0.40384">
        <ele>670.0</ele>
        <time>2019-07-07T11:09:34.820Z</time>
      </trkpt>
      <trkpt lat="42.97496667" lon="-0.40384">
        <ele>670.0</ele>
        <time>2019-07-07T11:09:35.827Z</time>
      </trkpt>
      <trkpt lat="42.975065" lon="-0.404155">
        <ele>669.0</ele>
        <time>2019-07-07T11:09:36.840Z</time>
      </trkpt>
      <trkpt lat="42.975065" lon="-0.404155">
        <ele>669.0</ele>
        <time>2019-07-07T11:09:37.806Z</time>
      </trkpt>
      <trkpt lat="42.975235" lon="-0.40441167">
        <ele>668.0</ele>
        <time>2019-07-07T11:09:38.810Z</time>
      </trkpt>
      <trkpt lat="42.975235" lon="-0.40441167">
        <ele>668.0</ele>
        <time>2019-07-07T11:09:39.816Z</time>
      </trkpt>
      <trkpt lat="42.97542167" lon="-0.40464833">
        <ele>667.0</ele>
        <time>2019-07-07T11:09:40.810Z</time>
      </trkpt>
      <trkpt lat="42.97542167" lon="-0.40464833">
        <ele>667.0</ele>
        <time>2019-07-07T11:09:41.815Z</time>
      </trkpt>
      <trkpt lat="42.975605" lon="-0.40488833">
        <ele>665.0</ele>
        <time>2019-07-07T11:09:42.812Z</time>
      </trkpt>
      <trkpt lat="42.975605" lon="-0.40488833">
        <ele>665.0</ele>
        <time>2019-07-07T11:09:43.817Z</time>
      </trkpt>
      <trkpt lat="42.97580167" lon="-0.4051">
        <ele>664.0</ele>
        <time>2019-07-07T11:09:44.830Z</time>
      </trkpt>
      <trkpt lat="42.9798" lon="-0.41949667">
        <ele>506.0</ele>
        <time>2019-07-07T13:23:45.695Z</time>
      </trkpt>
      <trkpt lat="42.97979" lon="-0.41958833">
        <ele>507.0</ele>
        <time>2019-07-07T13:23:46.685Z</time>
      </trkpt>
      <trkpt lat="42.97979" lon="-0.41958833">
        <ele>507.0</ele>
        <time>2019-07-07T13:23:47.671Z</time>
      </trkpt>
      <trkpt lat="42.97978167" lon="-0.41967167">
        <ele>508.0</ele>
        <time>2019-07-07T13:23:48.691Z</time>
      </trkpt>
      <trkpt lat="42.97977667" lon="-0.41971667">
        <ele>508.0</ele>
        <time>2019-07-07T13:23:49.687Z</time>
      </trkpt>
      <trkpt lat="42.97977" lon="-0.41976">
        <ele>509.0</ele>
        <time>2019-07-07T13:23:50.698Z</time>
      </trkpt>
      <trkpt lat="42.97977" lon="-0.41976">
        <ele>509.0</ele>
        <time>2019-07-07T13:23:51.666Z</time>
      </trkpt>
      <trkpt lat="42.979765" lon="-0.41985167">
        <ele>510.0</ele>
        <time>2019-07-07T13:23:52.678Z</time>
      </trkpt>
      <trkpt lat="42.97976167" lon="-0.41989833">
        <ele>510.0</ele>
        <time>2019-07-07T13:23:53.698Z</time>
      </trkpt>
      <trkpt lat="42.97976167" lon="-0.41989833">
        <ele>510.0</ele>
        <time>2019-07-07T13:23:54.695Z</time>
      </trkpt>
      <trkpt lat="42.97975167" lon="-0.42000333">
        <ele>511.0</ele>
        <time>2019-07-07T13:23:55.699Z</time>
      </trkpt>
      <trkpt lat="42.97975167" lon="-0.42000333">
        <ele>511.0</ele>
        <time>2019-07-07T13:23:56.692Z</time>
      </trkpt>
      <trkpt lat="42.97974" lon="-0.4201">
        <ele>511.0</ele>
        <time>2019-07-07T13:23:57.698Z</time>
      </trkpt>
      <trkpt lat="42.97974" lon="-0.4201">
        <ele>511.0</ele>
        <time>2019-07-07T13:23:58.693Z</time>
      </trkpt>
      <trkpt lat="42.979735" lon="-0.42019667">
        <ele>511.0</ele>
        <time>2019-07-07T13:23:59.698Z</time>
      </trkpt>
      <trkpt lat="42.979735" lon="-0.42019667">
        <ele>511.0</ele>
        <time>2019-07-07T13:24:00.703Z</time>
      </trkpt>
      <trkpt lat="42.97972833" lon="-0.42028833">
        <ele>511.0</ele>
        <time>2019-07-07T13:24:01.698Z</time>
      </trkpt>
      <trkpt lat="42.97972667" lon="-0.42033333">
        <ele>511.0</ele>
        <time>2019-07-07T13:24:02.698Z</time>
      </trkpt>
      <trkpt lat="42.97972667" lon="-0.42037333">
        <ele>511.0</ele>
        <time>2019-07-07T13:24:03.698Z</time>
      </trkpt>
      <trkpt lat="42.97972667" lon="-0.42037333">
        <ele>511.0</ele>
        <time>2019-07-07T13:24:04.694Z</time>
      </trkpt>
      <trkpt lat="42.97972333" lon="-0.42043833">
        <ele>511.0</ele>
        <time>2019-07-07T13:24:05.700Z</time>
      </trkpt>
      <trkpt lat="42.97972167" lon="-0.42046833">
        <ele>511.0</ele>
        <time>2019-07-07T13:24:06.699Z</time>
      </trkpt>
      <trkpt lat="42.97972167" lon="-0.42046833">
        <ele>511.0</ele>
        <time>2019-07-07T13:24:07.690Z</time>
      </trkpt>
      <trkpt lat="42.97971833" lon="-0.42052">
        <ele>511.0</ele>
        <time>2019-07-07T13:24:08.698Z</time>
      </trkpt>
      <trkpt lat="42.97972" lon="-0.42053667">
        <ele>511.0</ele>
        <time>2019-07-07T13:24:09.698Z</time>
      </trkpt>
      <trkpt lat="42.97972667" lon="-0.420555">
        <ele>511.0</ele>
        <time>2019-07-07T13:24:10.702Z</time>
      </trkpt>
      <trkpt lat="42.97972667" lon="-0.420555">
        <ele>511.0</ele>
        <time>2019-07-07T13:24:11.696Z</time>
      </trkpt>
      <trkpt lat="42.97977" lon="-0.42058333">
        <ele>511.0</ele>
        <time>2019-07-07T13:24:12.700Z</time>
      </trkpt>
      <trkpt lat="42.97980333" lon="-0.42058667">
        <ele>510.0</ele>
        <time>2019-07-07T13:24:13.697Z</time>
      </trkpt>
      <trkpt lat="42.97980333" lon="-0.42058667">
        <ele>510.0</ele>
        <time>2019-07-07T13:24:14.690Z</time>
      </trkpt>
      <trkpt lat="42.97987667" lon="-0.42059667">
        <ele>510.0</ele>
        <time>2019-07-07T13:24:15.704Z</time>
      </trkpt>
      <trkpt lat="42.97987667" lon="-0.42059667">
        <ele>510.0</ele>
        <time>2019-07-07T13:24:16.696Z</time>
      </trkpt>
      <trkpt lat="42.979955" lon="-0.42061167">
        <ele>510.0</ele>
        <time>2019-07-07T13:24:17.691Z</time>
      </trkpt>
      <trkpt lat="42.97999667" lon="-0.42061833">
        <ele>510.0</ele>
        <time>2019-07-07T13:24:18.676Z</time>
      </trkpt>
      <trkpt lat="42.97999667" lon="-0.42061833">
        <ele>510.0</ele>
        <time>2019-07-07T13:24:19.672Z</time>
      </trkpt>
      <trkpt lat="42.98008333" lon="-0.42063333">
        <ele>510.0</ele>
        <time>2019-07-07T13:24:20.729Z</time>
      </trkpt>
      <trkpt lat="42.98013" lon="-0.42064">
        <ele>510.0</ele>
        <time>2019-07-07T13:24:21.697Z</time>
      </trkpt>
      <trkpt lat="42.98013" lon="-0.42064">
        <ele>510.0</ele>
        <time>2019-07-07T13:24:22.694Z</time>
      </trkpt>
      <trkpt lat="42.98022667" lon="-0.42065667">
        <ele>510.0</ele>
        <time>2019-07-07T13:24:23.674Z</time>
      </trkpt>
      <trkpt lat="42.98022667" lon="-0.42065667">
        <ele>510.0</ele>
        <time>2019-07-07T13:24:24.696Z</time>
      </trkpt>
      <trkpt lat="42.98033" lon="-0.42067">
        <ele>509.0</ele>
        <time>2019-07-07T13:24:25.698Z</time>
      </trkpt>
      <trkpt lat="42.98033" lon="-0.42067">
        <ele>509.0</ele>
        <time>2019-07-07T13:24:26.695Z</time>
      </trkpt>
      <trkpt lat="42.98033" lon="-0.42067">
        <ele>509.0</ele>
        <time>2019-07-07T13:24:27.676Z</time>
      </trkpt>
      <trkpt lat="42.98043667" lon="-0.42068833">
        <ele>509.0</ele>
        <time>2019-07-07T13:24:28.676Z</time>
      </trkpt>
      <trkpt lat="42.98055" lon="-0.42070667">
        <ele>507.0</ele>
        <time>2019-07-07T13:24:29.704Z</time>
      </trkpt>
      <trkpt lat="42.98055" lon="-0.42070667">
        <ele>507.0</ele>
        <time>2019-07-07T13:24:30.693Z</time>
      </trkpt>
      <trkpt lat="42.98066667" lon="-0.42072">
        <ele>507.0</ele>
        <time>2019-07-07T13:24:31.696Z</time>
      </trkpt>
      <trkpt lat="42.98066667" lon="-0.42072">
        <ele>507.0</ele>
        <time>2019-07-07T13:24:32.686Z</time>
      </trkpt>
      <trkpt lat="42.980775" lon="-0.420735">
        <ele>507.0</ele>
        <time>2019-07-07T13:24:33.697Z</time>
      </trkpt>
      <trkpt lat="42.980775" lon="-0.420735">
        <ele>507.0</ele>
        <time>2019-07-07T13:24:34.702Z</time>
      </trkpt>
      <trkpt lat="42.98087833" lon="-0.42075">
        <ele>506.0</ele>
        <time>2019-07-07T13:24:35.797Z</time>
      </trkpt>
      <trkpt lat="42.98087833" lon="-0.42075">
        <ele>506.0</ele>
        <time>2019-07-07T13:24:36.673Z</time>
      </trkpt>
      <trkpt lat="42.98098167" lon="-0.42076833">
        <ele>506.0</ele>
        <time>2019-07-07T13:24:37.696Z</time>
      </trkpt>
      <trkpt lat="42.98103" lon="-0.42078">
        <ele>506.0</ele>
        <time>2019-07-07T13:24:38.709Z</time>
      </trkpt>
      <trkpt lat="42.98103" lon="-0.42078">
        <ele>506.0</ele>
        <time>2019-07-07T13:24:39.675Z</time>
      </trkpt>
      <trkpt lat="42.98111833" lon="-0.420815">
        <ele>499.0</ele>
        <time>2019-07-07T13:24:40.666Z</time>
      </trkpt>
      <trkpt lat="42.98116167" lon="-0.42084833">
        <ele>499.0</ele>
        <time>2019-07-07T13:24:41.665Z</time>
      </trkpt>
      <trkpt lat="42.98116167" lon="-0.42084833">
        <ele>499.0</ele>
        <time>2019-07-07T13:24:42.690Z</time>
      </trkpt>
      <trkpt lat="42.98125" lon="-0.42094333">
        <ele>498.0</ele>
        <time>2019-07-07T13:24:43.665Z</time>
      </trkpt>
      <trkpt lat="42.98125" lon="-0.42094333">
        <ele>498.0</ele>
        <time>2019-07-07T13:24:44.687Z</time>
      </trkpt>
      <trkpt lat="42.98125" lon="-0.42094333">
        <ele>498.0</ele>
        <time>2019-07-07T13:24:45.678Z</time>
      </trkpt>
      <trkpt lat="42.98133667" lon="-0.42107833">
        <ele>498.0</ele>
        <time>2019-07-07T13:24:46.673Z</time>
      </trkpt>
      <trkpt lat="42.98139333" lon="-0.42123333">
        <ele>499.0</ele>
        <time>2019-07-07T13:24:47.689Z</time>
      </trkpt>
      <trkpt lat="42.981415" lon="-0.42132">
        <ele>499.0</ele>
        <time>2019-07-07T13:24:48.673Z</time>
      </trkpt>
      <trkpt lat="42.981415" lon="-0.42132">
        <ele>499.0</ele>
        <time>2019-07-07T13:24:49.690Z</time>
      </trkpt>
      <trkpt lat="42.98145333" lon="-0.42149667">
        <ele>499.0</ele>
        <time>2019-07-07T13:24:50.667Z</time>
      </trkpt>
      <trkpt lat="42.98147" lon="-0.42158167">
        <ele>499.0</ele>
        <time>2019-07-07T13:24:51.703Z</time>
      </trkpt>
      <trkpt lat="42.98147" lon="-0.42158167">
        <ele>499.0</ele>
        <time>2019-07-07T13:24:52.669Z</time>
      </trkpt>
      <trkpt lat="42.98149833" lon="-0.42175">
        <ele>499.0</ele>
        <time>2019-07-07T13:24:53.669Z</time>
      </trkpt>
      <trkpt lat="42.98149833" lon="-0.42175">
        <ele>499.0</ele>
        <time>2019-07-07T13:24:54.700Z</time>
      </trkpt>
      <trkpt lat="42.98152167" lon="-0.42191333">
        <ele>500.0</ele>
        <time>2019-07-07T13:24:55.703Z</time>
      </trkpt>
      <trkpt lat="42.98152167" lon="-0.42191333">
        <ele>500.0</ele>
        <time>2019-07-07T13:24:56.671Z</time>
      </trkpt>
      <trkpt lat="42.98155167" lon="-0.42209167">
        <ele>501.0</ele>
        <time>2019-07-07T13:24:57.665Z</time>
      </trkpt>
      <trkpt lat="42.98155167" lon="-0.42209167">
        <ele>501.0</ele>
        <time>2019-07-07T13:24:58.700Z</time>
      </trkpt>
      <trkpt lat="42.98159" lon="-0.422275">
        <ele>501.0</ele>
        <time>2019-07-07T13:24:59.707Z</time>
      </trkpt>
      <trkpt lat="42.98159" lon="-0.422275">
        <ele>501.0</ele>
        <time>2019-07-07T13:25:00.697Z</time>
      </trkpt>
      <trkpt lat="42.981645" lon="-0.42245833">
        <ele>502.0</ele>
        <time>2019-07-07T13:25:01.706Z</time>
      </trkpt>
      <trkpt lat="42.981645" lon="-0.42245833">
        <ele>502.0</ele>
        <time>2019-07-07T13:25:02.700Z</time>
      </trkpt>
      <trkpt lat="42.981645" lon="-0.42245833">
        <ele>502.0</ele>
        <time>2019-07-07T13:25:03.665Z</time>
      </trkpt>
      <trkpt lat="42.98169833" lon="-0.42264">
        <ele>502.0</ele>
        <time>2019-07-07T13:25:04.679Z</time>
      </trkpt>
      <trkpt lat="42.98174167" lon="-0.42282">
        <ele>503.0</ele>
        <time>2019-07-07T13:25:05.687Z</time>
      </trkpt>
      <trkpt lat="42.98174167" lon="-0.42282">
        <ele>503.0</ele>
        <time>2019-07-07T13:25:06.672Z</time>
      </trkpt>
      <trkpt lat="42.98174167" lon="-0.42282">
        <ele>503.0</ele>
        <time>2019-07-07T13:25:07.666Z</time>
      </trkpt>
      <trkpt lat="42.98177833" lon="-0.42299">
        <ele>503.0</ele>
        <time>2019-07-07T13:25:08.697Z</time>
      </trkpt>
      <trkpt lat="42.98180833" lon="-0.42316">
        <ele>504.0</ele>
        <time>2019-07-07T13:25:09.709Z</time>
      </trkpt>
      <trkpt lat="42.98180833" lon="-0.42316">
        <ele>504.0</ele>
        <time>2019-07-07T13:25:10.699Z</time>
      </trkpt>
      <trkpt lat="42.98182333" lon="-0.42332167">
        <ele>504.0</ele>
        <time>2019-07-07T13:25:11.707Z</time>
      </trkpt>
      <trkpt lat="42.98182333" lon="-0.42332167">
        <ele>504.0</ele>
        <time>2019-07-07T13:25:12.697Z</time>
      </trkpt>
      <trkpt lat="42.981835" lon="-0.42349">
        <ele>505.0</ele>
        <time>2019-07-07T13:25:13.707Z</time>
      </trkpt>
      <trkpt lat="42.981835" lon="-0.42349">
        <ele>505.0</ele>
        <time>2019-07-07T13:25:14.698Z</time>
      </trkpt>
      <trkpt lat="42.98185167" lon="-0.42366333">
        <ele>505.0</ele>
        <time>2019-07-07T13:25:15.706Z</time>
      </trkpt>
      <trkpt lat="42.98185167" lon="-0.42366333">
        <ele>505.0</ele>
        <time>2019-07-07T13:25:16.700Z</time>
      </trkpt>
      <trkpt lat="42.981865" lon="-0.42383333">
        <ele>506.0</ele>
        <time>2019-07-07T13:25:17.706Z</time>
      </trkpt>
      <trkpt lat="42.981865" lon="-0.42383333">
        <ele>506.0</ele>
        <time>2019-07-07T13:25:18.707Z</time>
      </trkpt>
      <trkpt lat="42.981885" lon="-0.424005">
        <ele>506.0</ele>
        <time>2019-07-07T13:25:19.704Z</time>
      </trkpt>
      <trkpt lat="42.981895" lon="-0.42409333">
        <ele>506.0</ele>
        <time>2019-07-07T13:25:20.708Z</time>
      </trkpt>
      <trkpt lat="42.981895" lon="-0.42409333">
        <ele>506.0</ele>
        <time>2019-07-07T13:25:21.698Z</time>
      </trkpt>
      <trkpt lat="42.98191833" lon="-0.42426667">
        <ele>507.0</ele>
        <time>2019-07-07T13:25:22.689Z</time>
      </trkpt>
      <trkpt lat="42.98193" lon="-0.42435">
        <ele>507.0</ele>
        <time>2019-07-07T13:25:23.707Z</time>
      </trkpt>
      <trkpt lat="42.98193" lon="-0.42435">
        <ele>507.0</ele>
        <time>2019-07-07T13:25:24.697Z</time>
      </trkpt>
      <trkpt lat="42.98195333" lon="-0.42452333">
        <ele>507.0</ele>
        <time>2019-07-07T13:25:25.707Z</time>
      </trkpt>
      <trkpt lat="42.98195333" lon="-0.42452333">
        <ele>507.0</ele>
        <time>2019-07-07T13:25:26.698Z</time>
      </trkpt>
      <trkpt lat="42.98197333" lon="-0.42469667">
        <ele>508.0</ele>
        <time>2019-07-07T13:25:27.718Z</time>
      </trkpt>
      <trkpt lat="42.98197333" lon="-0.42469667">
        <ele>508.0</ele>
        <time>2019-07-07T13:25:28.696Z</time>
      </trkpt>
      <trkpt lat="42.98199833" lon="-0.42487167">
        <ele>508.0</ele>
        <time>2019-07-07T13:25:29.697Z</time>
      </trkpt>
      <trkpt lat="42.98199833" lon="-0.42487167">
        <ele>508.0</ele>
        <time>2019-07-07T13:25:30.698Z</time>
      </trkpt>
      <trkpt lat="42.98202667" lon="-0.42503833">
        <ele>509.0</ele>
        <time>2019-07-07T13:25:31.706Z</time>
      </trkpt>
      <trkpt lat="42.98202667" lon="-0.42503833">
        <ele>509.0</ele>
        <time>2019-07-07T13:25:32.697Z</time>
      </trkpt>
      <trkpt lat="42.98205333" lon="-0.4252">
        <ele>509.0</ele>
        <time>2019-07-07T13:25:33.705Z</time>
      </trkpt>
      <trkpt lat="42.98205333" lon="-0.4252">
        <ele>509.0</ele>
        <time>2019-07-07T13:25:34.693Z</time>
      </trkpt>
      <trkpt lat="42.98208" lon="-0.42535333">
        <ele>510.0</ele>
        <time>2019-07-07T13:25:35.703Z</time>
      </trkpt>
      <trkpt lat="42.98209333" lon="-0.42543167">
        <ele>510.0</ele>
        <time>2019-07-07T13:25:36.684Z</time>
      </trkpt>
      <trkpt lat="42.98210833" lon="-0.425505">
        <ele>511.0</ele>
        <time>2019-07-07T13:25:37.703Z</time>
      </trkpt>
      <trkpt lat="42.98210833" lon="-0.425505">
        <ele>511.0</ele>
        <time>2019-07-07T13:25:38.670Z</time>
      </trkpt>
      <trkpt lat="42.98215167" lon="-0.42565333">
        <ele>511.0</ele>
        <time>2019-07-07T13:25:39.709Z</time>
      </trkpt>
      <trkpt lat="42.98215167" lon="-0.42565333">
        <ele>511.0</ele>
        <time>2019-07-07T13:25:40.665Z</time>
      </trkpt>
      <trkpt lat="42.9822" lon="-0.425795">
        <ele>511.0</ele>
        <time>2019-07-07T13:25:41.706Z</time>
      </trkpt>
      <trkpt lat="42.9822" lon="-0.425795">
        <ele>511.0</ele>
        <time>2019-07-07T13:25:42.669Z</time>
      </trkpt>
      <trkpt lat="42.98226" lon="-0.42593667">
        <ele>512.0</ele>
        <time>2019-07-07T13:25:43.706Z</time>
      </trkpt>
      <trkpt lat="42.98226" lon="-0.42593667">
        <ele>512.0</ele>
        <time>2019-07-07T13:25:44.671Z</time>
      </trkpt>
      <trkpt lat="42.98232" lon="-0.42608">
        <ele>512.0</ele>
        <time>2019-07-07T13:25:45.708Z</time>
      </trkpt>
      <trkpt lat="42.98232" lon="-0.42608">
        <ele>512.0</ele>
        <time>2019-07-07T13:25:46.694Z</time>
      </trkpt>
      <trkpt lat="42.98238167" lon="-0.42623">
        <ele>513.0</ele>
        <time>2019-07-07T13:25:47.689Z</time>
      </trkpt>
      <trkpt lat="42.98238167" lon="-0.42623">
        <ele>513.0</ele>
        <time>2019-07-07T13:25:48.685Z</time>
      </trkpt>
      <trkpt lat="42.98241333" lon="-0.42630167">
        <ele>513.0</ele>
        <time>2019-07-07T13:25:49.697Z</time>
      </trkpt>
      <trkpt lat="42.98247833" lon="-0.42644833">
        <ele>513.0</ele>
        <time>2019-07-07T13:25:50.708Z</time>
      </trkpt>
      <trkpt lat="42.98247833" lon="-0.42644833">
        <ele>513.0</ele>
        <time>2019-07-07T13:25:51.696Z</time>
      </trkpt>
      <trkpt lat="42.98254" lon="-0.42658667">
        <ele>514.0</ele>
        <time>2019-07-07T13:25:52.702Z</time>
      </trkpt>
      <trkpt lat="42.98257333" lon="-0.42665333">
        <ele>514.0</ele>
        <time>2019-07-07T13:25:53.690Z</time>
      </trkpt>
      <trkpt lat="42.98257333" lon="-0.42665333">
        <ele>514.0</ele>
        <time>2019-07-07T13:25:54.700Z</time>
      </trkpt>
      <trkpt lat="42.982635" lon="-0.42679">
        <ele>515.0</ele>
        <time>2019-07-07T13:25:55.707Z</time>
      </trkpt>
      <trkpt lat="42.982635" lon="-0.42679">
        <ele>515.0</ele>
        <time>2019-07-07T13:25:56.697Z</time>
      </trkpt>
      <trkpt lat="42.982705" lon="-0.426915">
        <ele>515.0</ele>
        <time>2019-07-07T13:25:57.724Z</time>
      </trkpt>
      <trkpt lat="42.982705" lon="-0.426915">
        <ele>515.0</ele>
        <time>2019-07-07T13:25:58.665Z</time>
      </trkpt>
      <trkpt lat="42.982705" lon="-0.426915">
        <ele>515.0</ele>
        <time>2019-07-07T13:25:59.678Z</time>
      </trkpt>
      <trkpt lat="42.982785" lon="-0.42703">
        <ele>516.0</ele>
        <time>2019-07-07T13:26:00.666Z</time>
      </trkpt>
      <trkpt lat="42.98287333" lon="-0.42713833">
        <ele>516.0</ele>
        <time>2019-07-07T13:26:01.699Z</time>
      </trkpt>
      <trkpt lat="42.98287333" lon="-0.42713833">
        <ele>516.0</ele>
        <time>2019-07-07T13:26:02.695Z</time>
      </trkpt>
      <trkpt lat="42.98287333" lon="-0.42713833">
        <ele>516.0</ele>
        <time>2019-07-07T13:26:03.686Z</time>
      </trkpt>
      <trkpt lat="42.98296167" lon="-0.42724333">
        <ele>517.0</ele>
        <time>2019-07-07T13:26:04.697Z</time>
      </trkpt>
      <trkpt lat="42.98304833" lon="-0.42734333">
        <ele>518.0</ele>
        <time>2019-07-07T13:26:05.706Z</time>
      </trkpt>
      <trkpt lat="42.98304833" lon="-0.42734333">
        <ele>518.0</ele>
        <time>2019-07-07T13:26:06.695Z</time>
      </trkpt>
      <trkpt lat="42.98313833" lon="-0.42743833">
        <ele>519.0</ele>
        <time>2019-07-07T13:26:07.707Z</time>
      </trkpt>
      <trkpt lat="42.98313833" lon="-0.42743833">
        <ele>519.0</ele>
        <time>2019-07-07T13:26:08.670Z</time>
      </trkpt>
      <trkpt lat="42.98322333" lon="-0.42754167">
        <ele>519.0</ele>
        <time>2019-07-07T13:26:09.687Z</time>
      </trkpt>
      <trkpt lat="42.98322333" lon="-0.42754167">
        <ele>519.0</ele>
        <time>2019-07-07T13:26:10.700Z</time>
      </trkpt>
      <trkpt lat="42.98330667" lon="-0.42763667">
        <ele>520.0</ele>
        <time>2019-07-07T13:26:11.708Z</time>
      </trkpt>
      <trkpt lat="42.98330667" lon="-0.42763667">
        <ele>520.0</ele>
        <time>2019-07-07T13:26:12.697Z</time>
      </trkpt>
      <trkpt lat="42.98339" lon="-0.42773167">
        <ele>520.0</ele>
        <time>2019-07-07T13:26:13.706Z</time>
      </trkpt>
      <trkpt lat="42.98339" lon="-0.42773167">
        <ele>520.0</ele>
        <time>2019-07-07T13:26:14.666Z</time>
      </trkpt>
      <trkpt lat="42.98347" lon="-0.42781833">
        <ele>521.0</ele>
        <time>2019-07-07T13:26:15.705Z</time>
      </trkpt>
      <trkpt lat="42.98347" lon="-0.42781833">
        <ele>521.0</ele>
        <time>2019-07-07T13:26:16.698Z</time>
      </trkpt>
      <trkpt lat="42.983555" lon="-0.427875">
        <ele>521.0</ele>
        <time>2019-07-07T13:26:17.706Z</time>
      </trkpt>
      <trkpt lat="42.983555" lon="-0.427875">
        <ele>521.0</ele>
        <time>2019-07-07T13:26:18.698Z</time>
      </trkpt>
      <trkpt lat="42.98365667" lon="-0.42790667">
        <ele>522.0</ele>
        <time>2019-07-07T13:26:19.707Z</time>
      </trkpt>
      <trkpt lat="42.98365667" lon="-0.42790667">
        <ele>522.0</ele>
        <time>2019-07-07T13:26:20.688Z</time>
      </trkpt>
      <trkpt lat="42.98376333" lon="-0.42790667">
        <ele>522.0</ele>
        <time>2019-07-07T13:26:21.697Z</time>
      </trkpt>
      <trkpt lat="42.98381833" lon="-0.42789833">
        <ele>522.0</ele>
        <time>2019-07-07T13:26:22.667Z</time>
      </trkpt>
      <trkpt lat="42.98387167" lon="-0.42788667">
        <ele>523.0</ele>
        <time>2019-07-07T13:26:23.708Z</time>
      </trkpt>
      <trkpt lat="42.98387167" lon="-0.42788667">
        <ele>523.0</ele>
        <time>2019-07-07T13:26:24.699Z</time>
      </trkpt>
      <trkpt lat="42.98398" lon="-0.427855">
        <ele>523.0</ele>
        <time>2019-07-07T13:26:25.705Z</time>
      </trkpt>
      <trkpt lat="42.98398" lon="-0.427855">
        <ele>523.0</ele>
        <time>2019-07-07T13:26:26.700Z</time>
      </trkpt>
      <trkpt lat="42.984095" lon="-0.427805">
        <ele>523.0</ele>
        <time>2019-07-07T13:26:27.708Z</time>
      </trkpt>
      <trkpt lat="42.984095" lon="-0.427805">
        <ele>523.0</ele>
        <time>2019-07-07T13:26:28.698Z</time>
      </trkpt>
      <trkpt lat="42.98420167" lon="-0.42776333">
        <ele>523.0</ele>
        <time>2019-07-07T13:26:29.698Z</time>
      </trkpt>
      <trkpt lat="42.98420167" lon="-0.42776333">
        <ele>523.0</ele>
        <time>2019-07-07T13:26:30.670Z</time>
      </trkpt>
      <trkpt lat="42.984305" lon="-0.427725">
        <ele>524.0</ele>
        <time>2019-07-07T13:26:31.707Z</time>
      </trkpt>
      <trkpt lat="42.984305" lon="-0.427725">
        <ele>524.0</ele>
        <time>2019-07-07T13:26:32.670Z</time>
      </trkpt>
      <trkpt lat="42.98441833" lon="-0.427685">
        <ele>524.0</ele>
        <time>2019-07-07T13:26:33.707Z</time>
      </trkpt>
      <trkpt lat="42.98441833" lon="-0.427685">
        <ele>524.0</ele>
        <time>2019-07-07T13:26:34.695Z</time>
      </trkpt>
      <trkpt lat="42.98441833" lon="-0.427685">
        <ele>524.0</ele>
        <time>2019-07-07T13:26:35.679Z</time>
      </trkpt>
      <trkpt lat="42.98454" lon="-0.42763333">
        <ele>524.0</ele>
        <time>2019-07-07T13:26:36.700Z</time>
      </trkpt>
      <trkpt lat="42.98465667" lon="-0.42758333">
        <ele>524.0</ele>
        <time>2019-07-07T13:26:37.706Z</time>
      </trkpt>
      <trkpt lat="42.98471667" lon="-0.427555">
        <ele>524.0</ele>
        <time>2019-07-07T13:26:38.697Z</time>
      </trkpt>
      <trkpt lat="42.98477333" lon="-0.42753">
        <ele>524.0</ele>
        <time>2019-07-07T13:26:39.708Z</time>
      </trkpt>
      <trkpt lat="42.98477333" lon="-0.42753">
        <ele>524.0</ele>
        <time>2019-07-07T13:26:40.699Z</time>
      </trkpt>
      <trkpt lat="42.98488333" lon="-0.42747833">
        <ele>524.0</ele>
        <time>2019-07-07T13:26:41.707Z</time>
      </trkpt>
      <trkpt lat="42.98488333" lon="-0.42747833">
        <ele>524.0</ele>
        <time>2019-07-07T13:26:42.673Z</time>
      </trkpt>
      <trkpt lat="42.98499167" lon="-0.42743333">
        <ele>524.0</ele>
        <time>2019-07-07T13:26:43.706Z</time>
      </trkpt>
      <trkpt lat="42.98505" lon="-0.42741">
        <ele>524.0</ele>
        <time>2019-07-07T13:26:44.708Z</time>
      </trkpt>
      <trkpt lat="42.98505" lon="-0.42741">
        <ele>524.0</ele>
        <time>2019-07-07T13:26:45.699Z</time>
      </trkpt>
      <trkpt lat="42.98516333" lon="-0.42736667">
        <ele>525.0</ele>
        <time>2019-07-07T13:26:46.709Z</time>
      </trkpt>
      <trkpt lat="42.98516333" lon="-0.42736667">
        <ele>525.0</ele>
        <time>2019-07-07T13:26:47.709Z</time>
      </trkpt>
      <trkpt lat="42.98522167" lon="-0.42734333">
        <ele>525.0</ele>
        <time>2019-07-07T13:26:48.696Z</time>
      </trkpt>
      <trkpt lat="42.98534" lon="-0.42729833">
        <ele>525.0</ele>
        <time>2019-07-07T13:26:49.708Z</time>
      </trkpt>
      <trkpt lat="42.98534" lon="-0.42729833">
        <ele>525.0</ele>
        <time>2019-07-07T13:26:50.699Z</time>
      </trkpt>
      <trkpt lat="42.985455" lon="-0.42725667">
        <ele>526.0</ele>
        <time>2019-07-07T13:26:51.704Z</time>
      </trkpt>
      <trkpt lat="42.985455" lon="-0.42725667">
        <ele>526.0</ele>
        <time>2019-07-07T13:26:52.697Z</time>
      </trkpt>
      <trkpt lat="42.98557167" lon="-0.42721833">
        <ele>526.0</ele>
        <time>2019-07-07T13:26:53.702Z</time>
      </trkpt>
      <trkpt lat="42.98557167" lon="-0.42721833">
        <ele>526.0</ele>
        <time>2019-07-07T13:26:54.695Z</time>
      </trkpt>
      <trkpt lat="42.98568" lon="-0.42718167">
        <ele>527.0</ele>
        <time>2019-07-07T13:26:55.708Z</time>
      </trkpt>
      <trkpt lat="42.98568" lon="-0.42718167">
        <ele>527.0</ele>
        <time>2019-07-07T13:26:56.697Z</time>
      </trkpt>
      <trkpt lat="42.98578667" lon="-0.42714833">
        <ele>528.0</ele>
        <time>2019-07-07T13:26:57.709Z</time>
      </trkpt>
      <trkpt lat="42.98578667" lon="-0.42714833">
        <ele>528.0</ele>
        <time>2019-07-07T13:26:58.698Z</time>
      </trkpt>
      <trkpt lat="42.98589167" lon="-0.42711">
        <ele>528.0</ele>
        <time>2019-07-07T13:26:59.708Z</time>
      </trkpt>
      <trkpt lat="42.98589167" lon="-0.42711">
        <ele>528.0</ele>
        <time>2019-07-07T13:27:00.672Z</time>
      </trkpt>
      <trkpt lat="42.98601167" lon="-0.42707333">
        <ele>529.0</ele>
        <time>2019-07-07T13:27:01.708Z</time>
      </trkpt>
      <trkpt lat="42.98601167" lon="-0.42707333">
        <ele>529.0</ele>
        <time>2019-07-07T13:27:02.698Z</time>
      </trkpt>
      <trkpt lat="42.986115" lon="-0.427045">
        <ele>531.0</ele>
        <time>2019-07-07T13:27:03.706Z</time>
      </trkpt>
      <trkpt lat="42.98617667" lon="-0.427015">
        <ele>532.0</ele>
        <time>2019-07-07T13:27:04.703Z</time>
      </trkpt>
      <trkpt lat="42.98617667" lon="-0.427015">
        <ele>532.0</ele>
        <time>2019-07-07T13:27:05.670Z</time>
      </trkpt>
      <trkpt lat="42.986295" lon="-0.42695833">
        <ele>533.0</ele>
        <time>2019-07-07T13:27:06.708Z</time>
      </trkpt>
      <trkpt lat="42.986295" lon="-0.42695833">
        <ele>533.0</ele>
        <time>2019-07-07T13:27:07.674Z</time>
      </trkpt>
      <trkpt lat="42.986295" lon="-0.42695833">
        <ele>533.0</ele>
        <time>2019-07-07T13:27:08.666Z</time>
      </trkpt>
      <trkpt lat="42.98641833" lon="-0.4269">
        <ele>533.0</ele>
        <time>2019-07-07T13:27:09.696Z</time>
      </trkpt>
      <trkpt lat="42.98653667" lon="-0.42684833">
        <ele>533.0</ele>
        <time>2019-07-07T13:27:10.708Z</time>
      </trkpt>
      <trkpt lat="42.98653667" lon="-0.42684833">
        <ele>533.0</ele>
        <time>2019-07-07T13:27:11.669Z</time>
      </trkpt>
      <trkpt lat="42.986655" lon="-0.42678667">
        <ele>534.0</ele>
        <time>2019-07-07T13:27:12.708Z</time>
      </trkpt>
      <trkpt lat="42.986655" lon="-0.42678667">
        <ele>534.0</ele>
        <time>2019-07-07T13:27:13.696Z</time>
      </trkpt>
      <trkpt lat="42.986655" lon="-0.42678667">
        <ele>534.0</ele>
        <time>2019-07-07T13:27:14.699Z</time>
      </trkpt>
      <trkpt lat="42.98683833" lon="-0.426695">
        <ele>535.0</ele>
        <time>2019-07-07T13:27:15.705Z</time>
      </trkpt>
      <trkpt lat="42.98683833" lon="-0.426695">
        <ele>535.0</ele>
        <time>2019-07-07T13:27:16.674Z</time>
      </trkpt>
      <trkpt lat="42.98695333" lon="-0.42663167">
        <ele>536.0</ele>
        <time>2019-07-07T13:27:17.708Z</time>
      </trkpt>
      <trkpt lat="42.98695333" lon="-0.42663167">
        <ele>536.0</ele>
        <time>2019-07-07T13:27:18.698Z</time>
      </trkpt>
      <trkpt lat="42.98695333" lon="-0.42663167">
        <ele>536.0</ele>
        <time>2019-07-07T13:27:19.679Z</time>
      </trkpt>
      <trkpt lat="42.98714833" lon="-0.42656833">
        <ele>537.0</ele>
        <time>2019-07-07T13:27:20.691Z</time>
      </trkpt>
      <trkpt lat="42.98714833" lon="-0.42656833">
        <ele>537.0</ele>
        <time>2019-07-07T13:27:21.696Z</time>
      </trkpt>
      <trkpt lat="42.98728667" lon="-0.42649333">
        <ele>537.0</ele>
        <time>2019-07-07T13:27:22.698Z</time>
      </trkpt>
      <trkpt lat="42.98735833" lon="-0.42647833">
        <ele>538.0</ele>
        <time>2019-07-07T13:27:23.699Z</time>
      </trkpt>
      <trkpt lat="42.98735833" lon="-0.42647833">
        <ele>538.0</ele>
        <time>2019-07-07T13:27:24.670Z</time>
      </trkpt>
      <trkpt lat="42.98750833" lon="-0.42645167">
        <ele>539.0</ele>
        <time>2019-07-07T13:27:25.666Z</time>
      </trkpt>
      <trkpt lat="42.98750833" lon="-0.42645167">
        <ele>539.0</ele>
        <time>2019-07-07T13:27:26.700Z</time>
      </trkpt>
      <trkpt lat="42.98764167" lon="-0.426435">
        <ele>540.0</ele>
        <time>2019-07-07T13:27:27.702Z</time>
      </trkpt>
      <trkpt lat="42.98764167" lon="-0.426435">
        <ele>540.0</ele>
        <time>2019-07-07T13:27:28.674Z</time>
      </trkpt>
      <trkpt lat="42.987775" lon="-0.42642">
        <ele>540.0</ele>
        <time>2019-07-07T13:27:29.798Z</time>
      </trkpt>
      <trkpt lat="42.987775" lon="-0.42642">
        <ele>540.0</ele>
        <time>2019-07-07T13:27:30.688Z</time>
      </trkpt>
      <trkpt lat="42.987885" lon="-0.42637333">
        <ele>538.0</ele>
        <time>2019-07-07T13:27:31.695Z</time>
      </trkpt>
      <trkpt lat="42.987925" lon="-0.42631667">
        <ele>537.0</ele>
        <time>2019-07-07T13:27:32.692Z</time>
      </trkpt>
      <trkpt lat="42.98797167" lon="-0.42624">
        <ele>537.0</ele>
        <time>2019-07-07T13:27:33.687Z</time>
      </trkpt>
      <trkpt lat="42.98797167" lon="-0.42624">
        <ele>537.0</ele>
        <time>2019-07-07T13:27:34.698Z</time>
      </trkpt>
      <trkpt lat="42.98801833" lon="-0.42609667">
        <ele>536.0</ele>
        <time>2019-07-07T13:27:35.708Z</time>
      </trkpt>
      <trkpt lat="42.98801833" lon="-0.42609667">
        <ele>536.0</ele>
        <time>2019-07-07T13:27:36.698Z</time>
      </trkpt>
      <trkpt lat="42.98803167" lon="-0.425915">
        <ele>535.0</ele>
        <time>2019-07-07T13:27:37.698Z</time>
      </trkpt>
      <trkpt lat="42.98803167" lon="-0.425915">
        <ele>535.0</ele>
        <time>2019-07-07T13:27:38.679Z</time>
      </trkpt>
      <trkpt lat="42.988055" lon="-0.42571167">
        <ele>534.0</ele>
        <time>2019-07-07T13:27:39.691Z</time>
      </trkpt>
      <trkpt lat="42.988055" lon="-0.42571167">
        <ele>534.0</ele>
        <time>2019-07-07T13:27:40.703Z</time>
      </trkpt>
      <trkpt lat="42.98805833" lon="-0.42549833">
        <ele>532.0</ele>
        <time>2019-07-07T13:27:41.708Z</time>
      </trkpt>
      <trkpt lat="42.98805667" lon="-0.42539333">
        <ele>530.0</ele>
        <time>2019-07-07T13:27:42.690Z</time>
      </trkpt>
      <trkpt lat="42.98805667" lon="-0.42539333">
        <ele>530.0</ele>
        <time>2019-07-07T13:27:43.702Z</time>
      </trkpt>
      <trkpt lat="42.98806667" lon="-0.42516667">
        <ele>528.0</ele>
        <time>2019-07-07T13:27:44.703Z</time>
      </trkpt>
      <trkpt lat="42.98807333" lon="-0.42505">
        <ele>527.0</ele>
        <time>2019-07-07T13:27:45.708Z</time>
      </trkpt>
      <trkpt lat="42.98807333" lon="-0.42505">
        <ele>527.0</ele>
        <time>2019-07-07T13:27:46.700Z</time>
      </trkpt>
      <trkpt lat="42.98808333" lon="-0.42480333">
        <ele>525.0</ele>
        <time>2019-07-07T13:27:47.708Z</time>
      </trkpt>
      <trkpt lat="42.98808333" lon="-0.42480333">
        <ele>525.0</ele>
        <time>2019-07-07T13:27:48.696Z</time>
      </trkpt>
      <trkpt lat="42.98809333" lon="-0.42454">
        <ele>523.0</ele>
        <time>2019-07-07T13:27:49.698Z</time>
      </trkpt>
      <trkpt lat="42.98809333" lon="-0.42454">
        <ele>523.0</ele>
        <time>2019-07-07T13:27:50.669Z</time>
      </trkpt>
      <trkpt lat="42.98810333" lon="-0.42426833">
        <ele>521.0</ele>
        <time>2019-07-07T13:27:51.675Z</time>
      </trkpt>
      <trkpt lat="42.98810333" lon="-0.42426833">
        <ele>521.0</ele>
        <time>2019-07-07T13:27:52.689Z</time>
      </trkpt>
      <trkpt lat="42.98811167" lon="-0.42398667">
        <ele>519.0</ele>
        <time>2019-07-07T13:27:53.702Z</time>
      </trkpt>
      <trkpt lat="42.98811167" lon="-0.42398667">
        <ele>519.0</ele>
        <time>2019-07-07T13:27:54.665Z</time>
      </trkpt>
      <trkpt lat="42.98812333" lon="-0.423695">
        <ele>517.0</ele>
        <time>2019-07-07T13:27:55.698Z</time>
      </trkpt>
      <trkpt lat="42.98812333" lon="-0.423695">
        <ele>517.0</ele>
        <time>2019-07-07T13:27:56.669Z</time>
      </trkpt>
      <trkpt lat="42.98813333" lon="-0.42339667">
        <ele>515.0</ele>
        <time>2019-07-07T13:27:57.722Z</time>
      </trkpt>
      <trkpt lat="42.98813333" lon="-0.42339667">
        <ele>515.0</ele>
        <time>2019-07-07T13:27:58.665Z</time>
      </trkpt>
      <trkpt lat="42.98814167" lon="-0.42309333">
        <ele>513.0</ele>
        <time>2019-07-07T13:27:59.723Z</time>
      </trkpt>
      <trkpt lat="42.98814167" lon="-0.42309333">
        <ele>513.0</ele>
        <time>2019-07-07T13:28:00.698Z</time>
      </trkpt>
      <trkpt lat="42.98814833" lon="-0.42280667">
        <ele>512.0</ele>
        <time>2019-07-07T13:28:01.698Z</time>
      </trkpt>
      <trkpt lat="42.98814833" lon="-0.42280667">
        <ele>512.0</ele>
        <time>2019-07-07T13:28:02.687Z</time>
      </trkpt>
      <trkpt lat="42.98815333" lon="-0.42255">
        <ele>510.0</ele>
        <time>2019-07-07T13:28:03.692Z</time>
      </trkpt>
      <trkpt lat="42.98815333" lon="-0.42255">
        <ele>510.0</ele>
        <time>2019-07-07T13:28:04.696Z</time>
      </trkpt>
      <trkpt lat="42.98822167" lon="-0.42234667">
        <ele>509.0</ele>
        <time>2019-07-07T13:28:05.708Z</time>
      </trkpt>
      <trkpt lat="42.98829833" lon="-0.42228167">
        <ele>509.0</ele>
        <time>2019-07-07T13:28:06.709Z</time>
      </trkpt>
      <trkpt lat="42.98829833" lon="-0.42228167">
        <ele>509.0</ele>
        <time>2019-07-07T13:28:07.696Z</time>
      </trkpt>
      <trkpt lat="42.98846167" lon="-0.42226167">
        <ele>510.0</ele>
        <time>2019-07-07T13:28:08.702Z</time>
      </trkpt>
      <trkpt lat="42.98846167" lon="-0.42226167">
        <ele>510.0</ele>
        <time>2019-07-07T13:28:09.697Z</time>
      </trkpt>
      <trkpt lat="42.988625" lon="-0.4223">
        <ele>510.0</ele>
        <time>2019-07-07T13:28:10.707Z</time>
      </trkpt>
      <trkpt lat="42.988705" lon="-0.42231833">
        <ele>510.0</ele>
        <time>2019-07-07T13:28:11.698Z</time>
      </trkpt>
      <trkpt lat="42.988705" lon="-0.42231833">
        <ele>510.0</ele>
        <time>2019-07-07T13:28:12.670Z</time>
      </trkpt>
      <trkpt lat="42.98886167" lon="-0.422365">
        <ele>510.0</ele>
        <time>2019-07-07T13:28:13.699Z</time>
      </trkpt>
      <trkpt lat="42.98886167" lon="-0.422365">
        <ele>510.0</ele>
        <time>2019-07-07T13:28:14.701Z</time>
      </trkpt>
      <trkpt lat="42.989025" lon="-0.42240333">
        <ele>510.0</ele>
        <time>2019-07-07T13:28:15.706Z</time>
      </trkpt>
      <trkpt lat="42.989025" lon="-0.42240333">
        <ele>510.0</ele>
        <time>2019-07-07T13:28:16.699Z</time>
      </trkpt>
      <trkpt lat="42.98918167" lon="-0.42244167">
        <ele>511.0</ele>
        <time>2019-07-07T13:28:17.707Z</time>
      </trkpt>
      <trkpt lat="42.98918167" lon="-0.42244167">
        <ele>511.0</ele>
        <time>2019-07-07T13:28:18.681Z</time>
      </trkpt>
      <trkpt lat="42.98933167" lon="-0.42247833">
        <ele>511.0</ele>
        <time>2019-07-07T13:28:19.692Z</time>
      </trkpt>
      <trkpt lat="42.98940667" lon="-0.42249833">
        <ele>510.0</ele>
        <time>2019-07-07T13:28:20.703Z</time>
      </trkpt>
      <trkpt lat="42.98948333" lon="-0.42251667">
        <ele>510.0</ele>
        <time>2019-07-07T13:28:21.708Z</time>
      </trkpt>
      <trkpt lat="42.98948333" lon="-0.42251667">
        <ele>510.0</ele>
        <time>2019-07-07T13:28:22.698Z</time>
      </trkpt>
      <trkpt lat="42.98963667" lon="-0.42254833">
        <ele>509.0</ele>
        <time>2019-07-07T13:28:23.709Z</time>
      </trkpt>
      <trkpt lat="42.98963667" lon="-0.42254833">
        <ele>509.0</ele>
        <time>2019-07-07T13:28:24.696Z</time>
      </trkpt>
      <trkpt lat="42.98979" lon="-0.42255667">
        <ele>509.0</ele>
        <time>2019-07-07T13:28:25.821Z</time>
      </trkpt>
      <trkpt lat="42.98986833" lon="-0.42254167">
        <ele>509.0</ele>
        <time>2019-07-07T13:28:26.691Z</time>
      </trkpt>
      <trkpt lat="42.98994167" lon="-0.422515">
        <ele>509.0</ele>
        <time>2019-07-07T13:28:27.708Z</time>
      </trkpt>
      <trkpt lat="42.98994167" lon="-0.422515">
        <ele>509.0</ele>
        <time>2019-07-07T13:28:28.696Z</time>
      </trkpt>
      <trkpt lat="42.99008333" lon="-0.42242833">
        <ele>509.0</ele>
        <time>2019-07-07T13:28:29.708Z</time>
      </trkpt>
      <trkpt lat="42.99008333" lon="-0.42242833">
        <ele>509.0</ele>
        <time>2019-07-07T13:28:30.698Z</time>
      </trkpt>
      <trkpt lat="42.99022167" lon="-0.42232833">
        <ele>508.0</ele>
        <time>2019-07-07T13:28:31.709Z</time>
      </trkpt>
      <trkpt lat="42.99022167" lon="-0.42232833">
        <ele>508.0</ele>
        <time>2019-07-07T13:28:32.695Z</time>
      </trkpt>
      <trkpt lat="42.99035167" lon="-0.422235">
        <ele>509.0</ele>
        <time>2019-07-07T13:28:33.667Z</time>
      </trkpt>
      <trkpt lat="42.99042" lon="-0.42218833">
        <ele>508.0</ele>
        <time>2019-07-07T13:28:34.709Z</time>
      </trkpt>
      <trkpt lat="42.99042" lon="-0.42218833">
        <ele>508.0</ele>
        <time>2019-07-07T13:28:35.697Z</time>
      </trkpt>
      <trkpt lat="42.990565" lon="-0.42211833">
        <ele>508.0</ele>
        <time>2019-07-07T13:28:36.715Z</time>
      </trkpt>
      <trkpt lat="42.990565" lon="-0.42211833">
        <ele>508.0</ele>
        <time>2019-07-07T13:28:37.699Z</time>
      </trkpt>
      <trkpt lat="42.990715" lon="-0.42210833">
        <ele>507.0</ele>
        <time>2019-07-07T13:28:38.699Z</time>
      </trkpt>
      <trkpt lat="42.99079" lon="-0.42212">
        <ele>507.0</ele>
        <time>2019-07-07T13:28:39.709Z</time>
      </trkpt>
      <trkpt lat="42.99079" lon="-0.42212">
        <ele>507.0</ele>
        <time>2019-07-07T13:28:40.698Z</time>
      </trkpt>
      <trkpt lat="42.99094333" lon="-0.42214833">
        <ele>507.0</ele>
        <time>2019-07-07T13:28:41.709Z</time>
      </trkpt>
      <trkpt lat="42.99094333" lon="-0.42214833">
        <ele>507.0</ele>
        <time>2019-07-07T13:28:42.696Z</time>
      </trkpt>
      <trkpt lat="42.99109333" lon="-0.42218">
        <ele>506.0</ele>
        <time>2019-07-07T13:28:43.706Z</time>
      </trkpt>
      <trkpt lat="42.99109333" lon="-0.42218">
        <ele>506.0</ele>
        <time>2019-07-07T13:28:44.696Z</time>
      </trkpt>
      <trkpt lat="42.99124" lon="-0.42220667">
        <ele>506.0</ele>
        <time>2019-07-07T13:28:45.691Z</time>
      </trkpt>
      <trkpt lat="42.99124" lon="-0.42220667">
        <ele>506.0</ele>
        <time>2019-07-07T13:28:46.674Z</time>
      </trkpt>
      <trkpt lat="42.991385" lon="-0.42223333">
        <ele>506.0</ele>
        <time>2019-07-07T13:28:47.680Z</time>
      </trkpt>
      <trkpt lat="42.99146" lon="-0.42224833">
        <ele>506.0</ele>
        <time>2019-07-07T13:28:48.702Z</time>
      </trkpt>
      <trkpt lat="42.99146" lon="-0.42224833">
        <ele>506.0</ele>
        <time>2019-07-07T13:28:49.672Z</time>
      </trkpt>
      <trkpt lat="42.99160833" lon="-0.42227833">
        <ele>505.0</ele>
        <time>2019-07-07T13:28:50.708Z</time>
      </trkpt>
      <trkpt lat="42.99168167" lon="-0.42229167">
        <ele>505.0</ele>
        <time>2019-07-07T13:28:51.709Z</time>
      </trkpt>
      <trkpt lat="42.99168167" lon="-0.42229167">
        <ele>505.0</ele>
        <time>2019-07-07T13:28:52.697Z</time>
      </trkpt>
      <trkpt lat="42.99183" lon="-0.42232167">
        <ele>505.0</ele>
        <time>2019-07-07T13:28:53.694Z</time>
      </trkpt>
      <trkpt lat="42.99183" lon="-0.42232167">
        <ele>505.0</ele>
        <time>2019-07-07T13:28:54.670Z</time>
      </trkpt>
      <trkpt lat="42.99197833" lon="-0.42235333">
        <ele>504.0</ele>
        <time>2019-07-07T13:28:55.699Z</time>
      </trkpt>
      <trkpt lat="42.99197833" lon="-0.42235333">
        <ele>504.0</ele>
        <time>2019-07-07T13:28:56.697Z</time>
      </trkpt>
      <trkpt lat="42.99213167" lon="-0.42238667">
        <ele>503.0</ele>
        <time>2019-07-07T13:28:57.708Z</time>
      </trkpt>
      <trkpt lat="42.99213167" lon="-0.42238667">
        <ele>503.0</ele>
        <time>2019-07-07T13:28:58.701Z</time>
      </trkpt>
      <trkpt lat="42.99229667" lon="-0.42241">
        <ele>502.0</ele>
        <time>2019-07-07T13:28:59.709Z</time>
      </trkpt>
      <trkpt lat="42.99229667" lon="-0.42241">
        <ele>502.0</ele>
        <time>2019-07-07T13:29:00.697Z</time>
      </trkpt>
      <trkpt lat="42.99229667" lon="-0.42241">
        <ele>502.0</ele>
        <time>2019-07-07T13:29:01.699Z</time>
      </trkpt>
      <trkpt lat="42.992475" lon="-0.42241">
        <ele>501.0</ele>
        <time>2019-07-07T13:29:02.698Z</time>
      </trkpt>
      <trkpt lat="42.992665" lon="-0.42238667">
        <ele>500.0</ele>
        <time>2019-07-07T13:29:03.710Z</time>
      </trkpt>
      <trkpt lat="42.99276167" lon="-0.42237">
        <ele>499.0</ele>
        <time>2019-07-07T13:29:04.709Z</time>
      </trkpt>
      <trkpt lat="42.99276167" lon="-0.42237">
        <ele>499.0</ele>
        <time>2019-07-07T13:29:05.699Z</time>
      </trkpt>
      <trkpt lat="42.992955" lon="-0.42233667">
        <ele>498.0</ele>
        <time>2019-07-07T13:29:06.703Z</time>
      </trkpt>
      <trkpt lat="42.992955" lon="-0.42233667">
        <ele>498.0</ele>
        <time>2019-07-07T13:29:07.699Z</time>
      </trkpt>
      <trkpt lat="42.99315667" lon="-0.42230333">
        <ele>497.0</ele>
        <time>2019-07-07T13:29:08.708Z</time>
      </trkpt>
      <trkpt lat="42.99326167" lon="-0.42228833">
        <ele>497.0</ele>
        <time>2019-07-07T13:29:09.709Z</time>
      </trkpt>
      <trkpt lat="42.99326167" lon="-0.42228833">
        <ele>497.0</ele>
        <time>2019-07-07T13:29:10.695Z</time>
      </trkpt>
      <trkpt lat="42.99348" lon="-0.42225667">
        <ele>495.0</ele>
        <time>2019-07-07T13:29:11.709Z</time>
      </trkpt>
      <trkpt lat="42.99359333" lon="-0.42224333">
        <ele>494.0</ele>
        <time>2019-07-07T13:29:12.709Z</time>
      </trkpt>
      <trkpt lat="42.99359333" lon="-0.42224333">
        <ele>494.0</ele>
        <time>2019-07-07T13:29:13.699Z</time>
      </trkpt>
      <trkpt lat="42.99381833" lon="-0.42221667">
        <ele>493.0</ele>
        <time>2019-07-07T13:29:14.698Z</time>
      </trkpt>
      <trkpt lat="42.99393333" lon="-0.42220333">
        <ele>492.0</ele>
        <time>2019-07-07T13:29:15.692Z</time>
      </trkpt>
      <trkpt lat="42.99393333" lon="-0.42220333">
        <ele>492.0</ele>
        <time>2019-07-07T13:29:16.670Z</time>
      </trkpt>
      <trkpt lat="42.99416167" lon="-0.42217667">
        <ele>491.0</ele>
        <time>2019-07-07T13:29:17.677Z</time>
      </trkpt>
      <trkpt lat="42.99416167" lon="-0.42217667">
        <ele>491.0</ele>
        <time>2019-07-07T13:29:18.702Z</time>
      </trkpt>
      <trkpt lat="42.99438667" lon="-0.42215">
        <ele>491.0</ele>
        <time>2019-07-07T13:29:19.698Z</time>
      </trkpt>
      <trkpt lat="42.99449833" lon="-0.42213667">
        <ele>490.0</ele>
        <time>2019-07-07T13:29:20.709Z</time>
      </trkpt>
      <trkpt lat="42.99449833" lon="-0.42213667">
        <ele>490.0</ele>
        <time>2019-07-07T13:29:21.698Z</time>
      </trkpt>
      <trkpt lat="42.99471833" lon="-0.422105">
        <ele>489.0</ele>
        <time>2019-07-07T13:29:22.711Z</time>
      </trkpt>
      <trkpt lat="42.99482833" lon="-0.42208833">
        <ele>489.0</ele>
        <time>2019-07-07T13:29:23.702Z</time>
      </trkpt>
      <trkpt lat="42.99482833" lon="-0.42208833">
        <ele>489.0</ele>
        <time>2019-07-07T13:29:24.696Z</time>
      </trkpt>
      <trkpt lat="42.99504333" lon="-0.42205833">
        <ele>488.0</ele>
        <time>2019-07-07T13:29:25.709Z</time>
      </trkpt>
      <trkpt lat="42.99504333" lon="-0.42205833">
        <ele>488.0</ele>
        <time>2019-07-07T13:29:26.666Z</time>
      </trkpt>
      <trkpt lat="42.99525333" lon="-0.42203667">
        <ele>488.0</ele>
        <time>2019-07-07T13:29:27.702Z</time>
      </trkpt>
      <trkpt lat="42.99525333" lon="-0.42203667">
        <ele>488.0</ele>
        <time>2019-07-07T13:29:28.698Z</time>
      </trkpt>
      <trkpt lat="42.99546167" lon="-0.42201167">
        <ele>488.0</ele>
        <time>2019-07-07T13:29:29.709Z</time>
      </trkpt>
      <trkpt lat="42.99546167" lon="-0.42201167">
        <ele>488.0</ele>
        <time>2019-07-07T13:29:30.704Z</time>
      </trkpt>
      <trkpt lat="42.99546167" lon="-0.42201167">
        <ele>488.0</ele>
        <time>2019-07-07T13:29:31.709Z</time>
      </trkpt>
      <trkpt lat="42.995665" lon="-0.421995">
        <ele>487.0</ele>
        <time>2019-07-07T13:29:32.698Z</time>
      </trkpt>
      <trkpt lat="42.99586667" lon="-0.42197">
        <ele>487.0</ele>
        <time>2019-07-07T13:29:33.707Z</time>
      </trkpt>
      <trkpt lat="42.99586667" lon="-0.42197">
        <ele>487.0</ele>
        <time>2019-07-07T13:29:34.697Z</time>
      </trkpt>
      <trkpt lat="42.99606167" lon="-0.421945">
        <ele>487.0</ele>
        <time>2019-07-07T13:29:35.709Z</time>
      </trkpt>
      <trkpt lat="42.99606167" lon="-0.421945">
        <ele>487.0</ele>
        <time>2019-07-07T13:29:36.698Z</time>
      </trkpt>
      <trkpt lat="42.996255" lon="-0.42191833">
        <ele>487.0</ele>
        <time>2019-07-07T13:29:37.709Z</time>
      </trkpt>
      <trkpt lat="42.996255" lon="-0.42191833">
        <ele>487.0</ele>
        <time>2019-07-07T13:29:38.698Z</time>
      </trkpt>
      <trkpt lat="42.996255" lon="-0.42191833">
        <ele>487.0</ele>
        <time>2019-07-07T13:29:39.709Z</time>
      </trkpt>
      <trkpt lat="42.996445" lon="-0.42190167">
        <ele>487.0</ele>
        <time>2019-07-07T13:29:40.704Z</time>
      </trkpt>
      <trkpt lat="42.99663833" lon="-0.42187167">
        <ele>486.0</ele>
        <time>2019-07-07T13:29:41.710Z</time>
      </trkpt>
      <trkpt lat="42.99663833" lon="-0.42187167">
        <ele>486.0</ele>
        <time>2019-07-07T13:29:42.697Z</time>
      </trkpt>
      <trkpt lat="42.996835" lon="-0.42183167">
        <ele>486.0</ele>
        <time>2019-07-07T13:29:43.709Z</time>
      </trkpt>
      <trkpt lat="42.99693167" lon="-0.42181">
        <ele>486.0</ele>
        <time>2019-07-07T13:29:44.709Z</time>
      </trkpt>
      <trkpt lat="42.99703" lon="-0.42178667">
        <ele>486.0</ele>
        <time>2019-07-07T13:29:45.692Z</time>
      </trkpt>
      <trkpt lat="42.99703" lon="-0.42178667">
        <ele>486.0</ele>
        <time>2019-07-07T13:29:46.668Z</time>
      </trkpt>
      <trkpt lat="42.99722333" lon="-0.42173167">
        <ele>486.0</ele>
        <time>2019-07-07T13:29:47.675Z</time>
      </trkpt>
      <trkpt lat="42.99731833" lon="-0.42170333">
        <ele>486.0</ele>
        <time>2019-07-07T13:29:48.709Z</time>
      </trkpt>
      <trkpt lat="42.99731833" lon="-0.42170333">
        <ele>486.0</ele>
        <time>2019-07-07T13:29:49.698Z</time>
      </trkpt>
      <trkpt lat="42.99751" lon="-0.42163667">
        <ele>485.0</ele>
        <time>2019-07-07T13:29:50.710Z</time>
      </trkpt>
      <trkpt lat="42.99760333" lon="-0.4216">
        <ele>485.0</ele>
        <time>2019-07-07T13:29:51.710Z</time>
      </trkpt>
      <trkpt lat="42.99760333" lon="-0.4216">
        <ele>485.0</ele>
        <time>2019-07-07T13:29:52.701Z</time>
      </trkpt>
      <trkpt lat="42.99779" lon="-0.42152333">
        <ele>484.0</ele>
        <time>2019-07-07T13:29:53.709Z</time>
      </trkpt>
      <trkpt lat="42.99779" lon="-0.42152333">
        <ele>484.0</ele>
        <time>2019-07-07T13:29:54.697Z</time>
      </trkpt>
      <trkpt lat="42.997975" lon="-0.42144333">
        <ele>484.0</ele>
        <time>2019-07-07T13:29:55.703Z</time>
      </trkpt>
      <trkpt lat="42.99806667" lon="-0.42140167">
        <ele>484.0</ele>
        <time>2019-07-07T13:29:56.694Z</time>
      </trkpt>
      <trkpt lat="42.99815667" lon="-0.42136167">
        <ele>484.0</ele>
        <time>2019-07-07T13:29:57.670Z</time>
      </trkpt>
      <trkpt lat="42.99815667" lon="-0.42136167">
        <ele>484.0</ele>
        <time>2019-07-07T13:29:58.690Z</time>
      </trkpt>
      <trkpt lat="42.99833667" lon="-0.42128167">
        <ele>484.0</ele>
        <time>2019-07-07T13:29:59.698Z</time>
      </trkpt>
      <trkpt lat="42.99833667" lon="-0.42128167">
        <ele>484.0</ele>
        <time>2019-07-07T13:30:00.683Z</time>
      </trkpt>
      <trkpt lat="42.99842667" lon="-0.42124333">
        <ele>484.0</ele>
        <time>2019-07-07T13:30:01.704Z</time>
      </trkpt>
      <trkpt lat="42.99842667" lon="-0.42124333">
        <ele>484.0</ele>
        <time>2019-07-07T13:30:02.676Z</time>
      </trkpt>
      <trkpt lat="42.99860333" lon="-0.42116833">
        <ele>485.0</ele>
        <time>2019-07-07T13:30:03.671Z</time>
      </trkpt>
      <trkpt lat="42.998775" lon="-0.421095">
        <ele>485.0</ele>
        <time>2019-07-07T13:30:04.710Z</time>
      </trkpt>
      <trkpt lat="42.99885833" lon="-0.42106">
        <ele>484.0</ele>
        <time>2019-07-07T13:30:05.729Z</time>
      </trkpt>
      <trkpt lat="42.99885833" lon="-0.42106">
        <ele>484.0</ele>
        <time>2019-07-07T13:30:06.699Z</time>
      </trkpt>
      <trkpt lat="42.99902" lon="-0.42098833">
        <ele>484.0</ele>
        <time>2019-07-07T13:30:07.707Z</time>
      </trkpt>
      <trkpt lat="42.99902" lon="-0.42098833">
        <ele>484.0</ele>
        <time>2019-07-07T13:30:08.701Z</time>
      </trkpt>
      <trkpt lat="42.99917833" lon="-0.42091833">
        <ele>484.0</ele>
        <time>2019-07-07T13:30:09.710Z</time>
      </trkpt>
      <trkpt lat="42.99917833" lon="-0.42091833">
        <ele>484.0</ele>
        <time>2019-07-07T13:30:10.667Z</time>
      </trkpt>
      <trkpt lat="42.99933667" lon="-0.42084833">
        <ele>484.0</ele>
        <time>2019-07-07T13:30:11.719Z</time>
      </trkpt>
      <trkpt lat="42.99933667" lon="-0.42084833">
        <ele>484.0</ele>
        <time>2019-07-07T13:30:12.699Z</time>
      </trkpt>
      <trkpt lat="42.99949167" lon="-0.42078333">
        <ele>484.0</ele>
        <time>2019-07-07T13:30:13.667Z</time>
      </trkpt>
      <trkpt lat="42.99949167" lon="-0.42078333">
        <ele>484.0</ele>
        <time>2019-07-07T13:30:14.687Z</time>
      </trkpt>
      <trkpt lat="42.99964167" lon="-0.42072">
        <ele>485.0</ele>
        <time>2019-07-07T13:30:15.697Z</time>
      </trkpt>
      <trkpt lat="42.99964167" lon="-0.42072">
        <ele>485.0</ele>
        <time>2019-07-07T13:30:16.695Z</time>
      </trkpt>
      <trkpt lat="42.99964167" lon="-0.42072">
        <ele>485.0</ele>
        <time>2019-07-07T13:30:17.665Z</time>
      </trkpt>
      <trkpt lat="42.999795" lon="-0.420655">
        <ele>485.0</ele>
        <time>2019-07-07T13:30:18.700Z</time>
      </trkpt>
      <trkpt lat="42.999945" lon="-0.42059">
        <ele>486.0</ele>
        <time>2019-07-07T13:30:19.705Z</time>
      </trkpt>
      <trkpt lat="42.999945" lon="-0.42059">
        <ele>486.0</ele>
        <time>2019-07-07T13:30:20.700Z</time>
      </trkpt>
      <trkpt lat="43.00009333" lon="-0.420525">
        <ele>486.0</ele>
        <time>2019-07-07T13:30:21.711Z</time>
      </trkpt>
      <trkpt lat="43.00009333" lon="-0.420525">
        <ele>486.0</ele>
        <time>2019-07-07T13:30:22.699Z</time>
      </trkpt>
      <trkpt lat="43.00024167" lon="-0.42046167">
        <ele>485.0</ele>
        <time>2019-07-07T13:30:23.669Z</time>
      </trkpt>
      <trkpt lat="43.00031667" lon="-0.42043">
        <ele>485.0</ele>
        <time>2019-07-07T13:30:24.710Z</time>
      </trkpt>
      <trkpt lat="43.00031667" lon="-0.42043">
        <ele>485.0</ele>
        <time>2019-07-07T13:30:25.698Z</time>
      </trkpt>
      <trkpt lat="43.000465" lon="-0.42037">
        <ele>485.0</ele>
        <time>2019-07-07T13:30:26.709Z</time>
      </trkpt>
      <trkpt lat="43.00054" lon="-0.42033833">
        <ele>485.0</ele>
        <time>2019-07-07T13:30:27.697Z</time>
      </trkpt>
      <trkpt lat="43.00054" lon="-0.42033833">
        <ele>485.0</ele>
        <time>2019-07-07T13:30:28.668Z</time>
      </trkpt>
      <trkpt lat="43.00069333" lon="-0.42027167">
        <ele>484.0</ele>
        <time>2019-07-07T13:30:29.708Z</time>
      </trkpt>
      <trkpt lat="43.00069333" lon="-0.42027167">
        <ele>484.0</ele>
        <time>2019-07-07T13:30:30.700Z</time>
      </trkpt>
      <trkpt lat="43.00084667" lon="-0.42020833">
        <ele>484.0</ele>
        <time>2019-07-07T13:30:31.708Z</time>
      </trkpt>
      <trkpt lat="43.00084667" lon="-0.42020833">
        <ele>484.0</ele>
        <time>2019-07-07T13:30:32.702Z</time>
      </trkpt>
      <trkpt lat="43.00099667" lon="-0.42014667">
        <ele>484.0</ele>
        <time>2019-07-07T13:30:33.710Z</time>
      </trkpt>
      <trkpt lat="43.00107167" lon="-0.42012">
        <ele>484.0</ele>
        <time>2019-07-07T13:30:34.715Z</time>
      </trkpt>
      <trkpt lat="43.00107167" lon="-0.42012">
        <ele>484.0</ele>
        <time>2019-07-07T13:30:35.701Z</time>
      </trkpt>
      <trkpt lat="43.001225" lon="-0.42007667">
        <ele>484.0</ele>
        <time>2019-07-07T13:30:36.719Z</time>
      </trkpt>
      <trkpt lat="43.001225" lon="-0.42007667">
        <ele>484.0</ele>
        <time>2019-07-07T13:30:37.700Z</time>
      </trkpt>
      <trkpt lat="43.00138" lon="-0.42004">
        <ele>484.0</ele>
        <time>2019-07-07T13:30:38.708Z</time>
      </trkpt>
      <trkpt lat="43.00145833" lon="-0.42002833">
        <ele>484.0</ele>
        <time>2019-07-07T13:30:39.707Z</time>
      </trkpt>
      <trkpt lat="43.00145833" lon="-0.42002833">
        <ele>484.0</ele>
        <time>2019-07-07T13:30:40.698Z</time>
      </trkpt>
      <trkpt lat="43.00161667" lon="-0.42001667">
        <ele>484.0</ele>
        <time>2019-07-07T13:30:41.711Z</time>
      </trkpt>
      <trkpt lat="43.00161667" lon="-0.42001667">
        <ele>484.0</ele>
        <time>2019-07-07T13:30:42.703Z</time>
      </trkpt>
      <trkpt lat="43.00177667" lon="-0.420015">
        <ele>484.0</ele>
        <time>2019-07-07T13:30:43.708Z</time>
      </trkpt>
      <trkpt lat="43.00186" lon="-0.42002">
        <ele>483.0</ele>
        <time>2019-07-07T13:30:44.710Z</time>
      </trkpt>
      <trkpt lat="43.00186" lon="-0.42002">
        <ele>483.0</ele>
        <time>2019-07-07T13:30:45.701Z</time>
      </trkpt>
      <trkpt lat="43.00202833" lon="-0.42004333">
        <ele>483.0</ele>
        <time>2019-07-07T13:30:46.675Z</time>
      </trkpt>
      <trkpt lat="43.00202833" lon="-0.42004333">
        <ele>483.0</ele>
        <time>2019-07-07T13:30:47.698Z</time>
      </trkpt>
      <trkpt lat="43.00220167" lon="-0.42009167">
        <ele>483.0</ele>
        <time>2019-07-07T13:30:48.698Z</time>
      </trkpt>
      <trkpt lat="43.00220167" lon="-0.42009167">
        <ele>483.0</ele>
        <time>2019-07-07T13:30:49.698Z</time>
      </trkpt>
      <trkpt lat="43.00237667" lon="-0.42016">
        <ele>482.0</ele>
        <time>2019-07-07T13:30:50.702Z</time>
      </trkpt>
      <trkpt lat="43.00237667" lon="-0.42016">
        <ele>482.0</ele>
        <time>2019-07-07T13:30:51.709Z</time>
      </trkpt>
      <trkpt lat="43.002465" lon="-0.4202">
        <ele>482.0</ele>
        <time>2019-07-07T13:30:52.696Z</time>
      </trkpt>
      <trkpt lat="43.002465" lon="-0.4202">
        <ele>482.0</ele>
        <time>2019-07-07T13:30:53.666Z</time>
      </trkpt>
      <trkpt lat="43.002645" lon="-0.42029167">
        <ele>481.0</ele>
        <time>2019-07-07T13:30:54.698Z</time>
      </trkpt>
      <trkpt lat="43.00283833" lon="-0.42039333">
        <ele>480.0</ele>
        <time>2019-07-07T13:30:55.710Z</time>
      </trkpt>
      <trkpt lat="43.00283833" lon="-0.42039333">
        <ele>480.0</ele>
        <time>2019-07-07T13:30:56.701Z</time>
      </trkpt>
      <trkpt lat="43.00303333" lon="-0.42050333">
        <ele>479.0</ele>
        <time>2019-07-07T13:30:57.702Z</time>
      </trkpt>
      <trkpt lat="43.00303333" lon="-0.42050333">
        <ele>479.0</ele>
        <time>2019-07-07T13:30:58.707Z</time>
      </trkpt>
      <trkpt lat="43.00323" lon="-0.420615">
        <ele>478.0</ele>
        <time>2019-07-07T13:30:59.710Z</time>
      </trkpt>
      <trkpt lat="43.00323" lon="-0.420615">
        <ele>478.0</ele>
        <time>2019-07-07T13:31:00.702Z</time>
      </trkpt>
      <trkpt lat="43.00342833" lon="-0.420725">
        <ele>477.0</ele>
        <time>2019-07-07T13:31:01.710Z</time>
      </trkpt>
      <trkpt lat="43.00342833" lon="-0.420725">
        <ele>477.0</ele>
        <time>2019-07-07T13:31:02.697Z</time>
      </trkpt>
      <trkpt lat="43.003625" lon="-0.42083667">
        <ele>477.0</ele>
        <time>2019-07-07T13:31:03.697Z</time>
      </trkpt>
      <trkpt lat="43.003625" lon="-0.42083667">
        <ele>477.0</ele>
        <time>2019-07-07T13:31:04.665Z</time>
      </trkpt>
      <trkpt lat="43.00382833" lon="-0.420955">
        <ele>476.0</ele>
        <time>2019-07-07T13:31:05.712Z</time>
      </trkpt>
      <trkpt lat="43.00382833" lon="-0.420955">
        <ele>476.0</ele>
        <time>2019-07-07T13:31:06.677Z</time>
      </trkpt>
      <trkpt lat="43.00382833" lon="-0.420955">
        <ele>476.0</ele>
        <time>2019-07-07T13:31:07.665Z</time>
      </trkpt>
      <trkpt lat="43.00402833" lon="-0.421075">
        <ele>475.0</ele>
        <time>2019-07-07T13:31:08.698Z</time>
      </trkpt>
      <trkpt lat="43.004225" lon="-0.42118333">
        <ele>474.0</ele>
        <time>2019-07-07T13:31:09.731Z</time>
      </trkpt>
      <trkpt lat="43.004225" lon="-0.42118333">
        <ele>474.0</ele>
        <time>2019-07-07T13:31:10.699Z</time>
      </trkpt>
      <trkpt lat="43.00442" lon="-0.42129">
        <ele>473.0</ele>
        <time>2019-07-07T13:31:11.710Z</time>
      </trkpt>
      <trkpt lat="43.00442" lon="-0.42129">
        <ele>473.0</ele>
        <time>2019-07-07T13:31:12.702Z</time>
      </trkpt>
      <trkpt lat="43.00462167" lon="-0.42138">
        <ele>472.0</ele>
        <time>2019-07-07T13:31:13.707Z</time>
      </trkpt>
      <trkpt lat="43.00462167" lon="-0.42138">
        <ele>472.0</ele>
        <time>2019-07-07T13:31:14.698Z</time>
      </trkpt>
      <trkpt lat="43.00482333" lon="-0.42144167">
        <ele>471.0</ele>
        <time>2019-07-07T13:31:15.708Z</time>
      </trkpt>
      <trkpt lat="43.00482333" lon="-0.42144167">
        <ele>471.0</ele>
        <time>2019-07-07T13:31:16.701Z</time>
      </trkpt>
      <trkpt lat="43.00502" lon="-0.421475">
        <ele>470.0</ele>
        <time>2019-07-07T13:31:17.702Z</time>
      </trkpt>
      <trkpt lat="43.00502" lon="-0.421475">
        <ele>470.0</ele>
        <time>2019-07-07T13:31:18.701Z</time>
      </trkpt>
      <trkpt lat="43.00521833" lon="-0.42147667">
        <ele>469.0</ele>
        <time>2019-07-07T13:31:19.710Z</time>
      </trkpt>
      <trkpt lat="43.00521833" lon="-0.42147667">
        <ele>469.0</ele>
        <time>2019-07-07T13:31:20.699Z</time>
      </trkpt>
      <trkpt lat="43.005415" lon="-0.42145833">
        <ele>468.0</ele>
        <time>2019-07-07T13:31:21.702Z</time>
      </trkpt>
      <trkpt lat="43.005415" lon="-0.42145833">
        <ele>468.0</ele>
        <time>2019-07-07T13:31:22.676Z</time>
      </trkpt>
      <trkpt lat="43.00561" lon="-0.42141">
        <ele>468.0</ele>
        <time>2019-07-07T13:31:23.706Z</time>
      </trkpt>
      <trkpt lat="43.00561" lon="-0.42141">
        <ele>468.0</ele>
        <time>2019-07-07T13:31:24.701Z</time>
      </trkpt>
      <trkpt lat="43.00578833" lon="-0.42135167">
        <ele>469.0</ele>
        <time>2019-07-07T13:31:25.710Z</time>
      </trkpt>
      <trkpt lat="43.00578833" lon="-0.42135167">
        <ele>469.0</ele>
        <time>2019-07-07T13:31:26.700Z</time>
      </trkpt>
      <trkpt lat="43.00596667" lon="-0.42126333">
        <ele>470.0</ele>
        <time>2019-07-07T13:31:27.702Z</time>
      </trkpt>
      <trkpt lat="43.00596667" lon="-0.42126333">
        <ele>470.0</ele>
        <time>2019-07-07T13:31:28.700Z</time>
      </trkpt>
      <trkpt lat="43.00613333" lon="-0.42116833">
        <ele>471.0</ele>
        <time>2019-07-07T13:31:29.710Z</time>
      </trkpt>
      <trkpt lat="43.00613333" lon="-0.42116833">
        <ele>471.0</ele>
        <time>2019-07-07T13:31:30.702Z</time>
      </trkpt>
      <trkpt lat="43.006305" lon="-0.42107667">
        <ele>472.0</ele>
        <time>2019-07-07T13:31:31.710Z</time>
      </trkpt>
      <trkpt lat="43.006305" lon="-0.42107667">
        <ele>472.0</ele>
        <time>2019-07-07T13:31:32.698Z</time>
      </trkpt>
      <trkpt lat="43.00647333" lon="-0.42098333">
        <ele>473.0</ele>
        <time>2019-07-07T13:31:33.706Z</time>
      </trkpt>
      <trkpt lat="43.00647333" lon="-0.42098333">
        <ele>473.0</ele>
        <time>2019-07-07T13:31:34.666Z</time>
      </trkpt>
      <trkpt lat="43.00664333" lon="-0.4209">
        <ele>474.0</ele>
        <time>2019-07-07T13:31:35.711Z</time>
      </trkpt>
      <trkpt lat="43.00673" lon="-0.42086833">
        <ele>474.0</ele>
        <time>2019-07-07T13:31:36.667Z</time>
      </trkpt>
      <trkpt lat="43.00673" lon="-0.42086833">
        <ele>474.0</ele>
        <time>2019-07-07T13:31:37.692Z</time>
      </trkpt>
      <trkpt lat="43.00690833" lon="-0.42082">
        <ele>475.0</ele>
        <time>2019-07-07T13:31:38.700Z</time>
      </trkpt>
      <trkpt lat="43.007" lon="-0.4208">
        <ele>475.0</ele>
        <time>2019-07-07T13:31:39.699Z</time>
      </trkpt>
      <trkpt lat="43.007" lon="-0.4208">
        <ele>475.0</ele>
        <time>2019-07-07T13:31:40.701Z</time>
      </trkpt>
      <trkpt lat="43.00718333" lon="-0.42077167">
        <ele>475.0</ele>
        <time>2019-07-07T13:31:41.706Z</time>
      </trkpt>
      <trkpt lat="43.00718333" lon="-0.42077167">
        <ele>475.0</ele>
        <time>2019-07-07T13:31:42.670Z</time>
      </trkpt>
      <trkpt lat="43.007375" lon="-0.42075667">
        <ele>474.0</ele>
        <time>2019-07-07T13:31:43.710Z</time>
      </trkpt>
      <trkpt lat="43.007375" lon="-0.42075667">
        <ele>474.0</ele>
        <time>2019-07-07T13:31:44.701Z</time>
      </trkpt>
      <trkpt lat="43.007375" lon="-0.42075667">
        <ele>474.0</ele>
        <time>2019-07-07T13:31:45.666Z</time>
      </trkpt>
      <trkpt lat="43.00756333" lon="-0.42076">
        <ele>474.0</ele>
        <time>2019-07-07T13:31:46.678Z</time>
      </trkpt>
      <trkpt lat="43.00775" lon="-0.420785">
        <ele>474.0</ele>
        <time>2019-07-07T13:31:47.710Z</time>
      </trkpt>
      <trkpt lat="43.00775" lon="-0.420785">
        <ele>474.0</ele>
        <time>2019-07-07T13:31:48.701Z</time>
      </trkpt>
      <trkpt lat="43.00793833" lon="-0.42082333">
        <ele>474.0</ele>
        <time>2019-07-07T13:31:49.710Z</time>
      </trkpt>
      <trkpt lat="43.00793833" lon="-0.42082333">
        <ele>474.0</ele>
        <time>2019-07-07T13:31:50.700Z</time>
      </trkpt>
      <trkpt lat="43.00812" lon="-0.420875">
        <ele>475.0</ele>
        <time>2019-07-07T13:31:51.669Z</time>
      </trkpt>
      <trkpt lat="43.00812" lon="-0.420875">
        <ele>475.0</ele>
        <time>2019-07-07T13:31:52.690Z</time>
      </trkpt>
      <trkpt lat="43.00830167" lon="-0.42093667">
        <ele>476.0</ele>
        <time>2019-07-07T13:31:53.702Z</time>
      </trkpt>
      <trkpt lat="43.00830167" lon="-0.42093667">
        <ele>476.0</ele>
        <time>2019-07-07T13:31:54.703Z</time>
      </trkpt>
      <trkpt lat="43.008475" lon="-0.42101167">
        <ele>476.0</ele>
        <time>2019-07-07T13:31:55.701Z</time>
      </trkpt>
      <trkpt lat="43.008475" lon="-0.42101167">
        <ele>476.0</ele>
        <time>2019-07-07T13:31:56.669Z</time>
      </trkpt>
      <trkpt lat="43.008475" lon="-0.42101167">
        <ele>476.0</ele>
        <time>2019-07-07T13:31:57.665Z</time>
      </trkpt>
      <trkpt lat="43.00864833" lon="-0.42109833">
        <ele>477.0</ele>
        <time>2019-07-07T13:31:58.667Z</time>
      </trkpt>
      <trkpt lat="43.00882167" lon="-0.421195">
        <ele>476.0</ele>
        <time>2019-07-07T13:31:59.709Z</time>
      </trkpt>
      <trkpt lat="43.00882167" lon="-0.421195">
        <ele>476.0</ele>
        <time>2019-07-07T13:32:00.699Z</time>
      </trkpt>
      <trkpt lat="43.00899" lon="-0.42130667">
        <ele>477.0</ele>
        <time>2019-07-07T13:32:01.702Z</time>
      </trkpt>
      <trkpt lat="43.00899" lon="-0.42130667">
        <ele>477.0</ele>
        <time>2019-07-07T13:32:02.698Z</time>
      </trkpt>
      <trkpt lat="43.00899" lon="-0.42130667">
        <ele>477.0</ele>
        <time>2019-07-07T13:32:03.665Z</time>
      </trkpt>
      <trkpt lat="43.009165" lon="-0.42142">
        <ele>477.0</ele>
        <time>2019-07-07T13:32:04.701Z</time>
      </trkpt>
      <trkpt lat="43.00933333" lon="-0.42152833">
        <ele>478.0</ele>
        <time>2019-07-07T13:32:05.719Z</time>
      </trkpt>
      <trkpt lat="43.00933333" lon="-0.42152833">
        <ele>478.0</ele>
        <time>2019-07-07T13:32:06.666Z</time>
      </trkpt>
      <trkpt lat="43.0095" lon="-0.421645">
        <ele>478.0</ele>
        <time>2019-07-07T13:32:07.673Z</time>
      </trkpt>
      <trkpt lat="43.0095" lon="-0.421645">
        <ele>478.0</ele>
        <time>2019-07-07T13:32:08.692Z</time>
      </trkpt>
      <trkpt lat="43.0095" lon="-0.421645">
        <ele>478.0</ele>
        <time>2019-07-07T13:32:09.665Z</time>
      </trkpt>
      <trkpt lat="43.00966833" lon="-0.42176167">
        <ele>478.0</ele>
        <time>2019-07-07T13:32:10.667Z</time>
      </trkpt>
      <trkpt lat="43.00966833" lon="-0.42176167">
        <ele>478.0</ele>
        <time>2019-07-07T13:32:11.665Z</time>
      </trkpt>
      <trkpt lat="43.009925" lon="-0.421915">
        <ele>478.0</ele>
        <time>2019-07-07T13:32:12.710Z</time>
      </trkpt>
      <trkpt lat="43.009925" lon="-0.421915">
        <ele>478.0</ele>
        <time>2019-07-07T13:32:13.680Z</time>
      </trkpt>
      <trkpt lat="43.009925" lon="-0.421915">
        <ele>478.0</ele>
        <time>2019-07-07T13:32:14.667Z</time>
      </trkpt>
      <trkpt lat="43.01010833" lon="-0.42200833">
        <ele>478.0</ele>
        <time>2019-07-07T13:32:15.666Z</time>
      </trkpt>
      <trkpt lat="43.01020333" lon="-0.42205333">
        <ele>478.0</ele>
        <time>2019-07-07T13:32:16.704Z</time>
      </trkpt>
      <trkpt lat="43.01020333" lon="-0.42205333">
        <ele>478.0</ele>
        <time>2019-07-07T13:32:17.665Z</time>
      </trkpt>
      <trkpt lat="43.01039667" lon="-0.42213833">
        <ele>478.0</ele>
        <time>2019-07-07T13:32:18.671Z</time>
      </trkpt>
      <trkpt lat="43.010585" lon="-0.42222833">
        <ele>477.0</ele>
        <time>2019-07-07T13:32:19.711Z</time>
      </trkpt>
      <trkpt lat="43.010585" lon="-0.42222833">
        <ele>477.0</ele>
        <time>2019-07-07T13:32:20.665Z</time>
      </trkpt>
      <trkpt lat="43.01068167" lon="-0.42227167">
        <ele>477.0</ele>
        <time>2019-07-07T13:32:21.703Z</time>
      </trkpt>
      <trkpt lat="43.01087333" lon="-0.42236167">
        <ele>477.0</ele>
        <time>2019-07-07T13:32:22.722Z</time>
      </trkpt>
      <trkpt lat="43.01087333" lon="-0.42236167">
        <ele>477.0</ele>
        <time>2019-07-07T13:32:23.666Z</time>
      </trkpt>
      <trkpt lat="43.01097167" lon="-0.42240833">
        <ele>477.0</ele>
        <time>2019-07-07T13:32:24.669Z</time>
      </trkpt>
      <trkpt lat="43.01097167" lon="-0.42240833">
        <ele>477.0</ele>
        <time>2019-07-07T13:32:25.666Z</time>
      </trkpt>
      <trkpt lat="43.01125667" lon="-0.42254333">
        <ele>477.0</ele>
        <time>2019-07-07T13:32:26.697Z</time>
      </trkpt>
      <trkpt lat="43.01125667" lon="-0.42254333">
        <ele>477.0</ele>
        <time>2019-07-07T13:32:27.704Z</time>
      </trkpt>
      <trkpt lat="43.01125667" lon="-0.42254333">
        <ele>477.0</ele>
        <time>2019-07-07T13:32:28.665Z</time>
      </trkpt>
      <trkpt lat="43.01145167" lon="-0.422635">
        <ele>476.0</ele>
        <time>2019-07-07T13:32:29.700Z</time>
      </trkpt>
      <trkpt lat="43.01145167" lon="-0.422635">
        <ele>476.0</ele>
        <time>2019-07-07T13:32:30.665Z</time>
      </trkpt>
      <trkpt lat="43.011645" lon="-0.422715">
        <ele>476.0</ele>
        <time>2019-07-07T13:32:31.701Z</time>
      </trkpt>
      <trkpt lat="43.01183" lon="-0.422795">
        <ele>475.0</ele>
        <time>2019-07-07T13:32:32.709Z</time>
      </trkpt>
      <trkpt lat="43.01183" lon="-0.422795">
        <ele>475.0</ele>
        <time>2019-07-07T13:32:33.670Z</time>
      </trkpt>
      <trkpt lat="43.01202" lon="-0.42285833">
        <ele>475.0</ele>
        <time>2019-07-07T13:32:34.697Z</time>
      </trkpt>
      <trkpt lat="43.01202" lon="-0.42285833">
        <ele>475.0</ele>
        <time>2019-07-07T13:32:35.668Z</time>
      </trkpt>
      <trkpt lat="43.01211333" lon="-0.42288667">
        <ele>475.0</ele>
        <time>2019-07-07T13:32:36.704Z</time>
      </trkpt>
      <trkpt lat="43.01229667" lon="-0.422925">
        <ele>475.0</ele>
        <time>2019-07-07T13:32:37.710Z</time>
      </trkpt>
      <trkpt lat="43.01229667" lon="-0.422925">
        <ele>475.0</ele>
        <time>2019-07-07T13:32:38.702Z</time>
      </trkpt>
      <trkpt lat="43.01229667" lon="-0.422925">
        <ele>475.0</ele>
        <time>2019-07-07T13:32:39.665Z</time>
      </trkpt>
      <trkpt lat="43.01247333" lon="-0.42295">
        <ele>475.0</ele>
        <time>2019-07-07T13:32:40.665Z</time>
      </trkpt>
      <trkpt lat="43.01255833" lon="-0.42296167">
        <ele>475.0</ele>
        <time>2019-07-07T13:32:41.702Z</time>
      </trkpt>
      <trkpt lat="43.01255833" lon="-0.42296167">
        <ele>475.0</ele>
        <time>2019-07-07T13:32:42.665Z</time>
      </trkpt>
      <trkpt lat="43.01272833" lon="-0.422975">
        <ele>476.0</ele>
        <time>2019-07-07T13:32:43.670Z</time>
      </trkpt>
      <trkpt lat="43.01289333" lon="-0.42298333">
        <ele>476.0</ele>
        <time>2019-07-07T13:32:44.702Z</time>
      </trkpt>
      <trkpt lat="43.012975" lon="-0.42298667">
        <ele>476.0</ele>
        <time>2019-07-07T13:32:45.679Z</time>
      </trkpt>
      <trkpt lat="43.012975" lon="-0.42298667">
        <ele>476.0</ele>
        <time>2019-07-07T13:32:46.698Z</time>
      </trkpt>
      <trkpt lat="43.01313" lon="-0.422995">
        <ele>475.0</ele>
        <time>2019-07-07T13:32:47.667Z</time>
      </trkpt>
      <trkpt lat="43.01313" lon="-0.422995">
        <ele>475.0</ele>
        <time>2019-07-07T13:32:48.665Z</time>
      </trkpt>
      <trkpt lat="43.01320333" lon="-0.42299667">
        <ele>475.0</ele>
        <time>2019-07-07T13:32:49.702Z</time>
      </trkpt>
      <trkpt lat="43.01320333" lon="-0.42299667">
        <ele>475.0</ele>
        <time>2019-07-07T13:32:50.665Z</time>
      </trkpt>
      <trkpt lat="43.013355" lon="-0.42299833">
        <ele>475.0</ele>
        <time>2019-07-07T13:32:51.704Z</time>
      </trkpt>
      <trkpt lat="43.013355" lon="-0.42299833">
        <ele>475.0</ele>
        <time>2019-07-07T13:32:52.665Z</time>
      </trkpt>
      <trkpt lat="43.01350167" lon="-0.423">
        <ele>475.0</ele>
        <time>2019-07-07T13:32:53.699Z</time>
      </trkpt>
      <trkpt lat="43.01364667" lon="-0.42300167">
        <ele>475.0</ele>
        <time>2019-07-07T13:32:54.698Z</time>
      </trkpt>
      <trkpt lat="43.01364667" lon="-0.42300167">
        <ele>475.0</ele>
        <time>2019-07-07T13:32:55.702Z</time>
      </trkpt>
      <trkpt lat="43.01378333" lon="-0.42300333">
        <ele>475.0</ele>
        <time>2019-07-07T13:32:56.711Z</time>
      </trkpt>
      <trkpt lat="43.01378333" lon="-0.42300333">
        <ele>475.0</ele>
        <time>2019-07-07T13:32:57.666Z</time>
      </trkpt>
      <trkpt lat="43.01392" lon="-0.42300333">
        <ele>475.0</ele>
        <time>2019-07-07T13:32:58.695Z</time>
      </trkpt>
      <trkpt lat="43.01392" lon="-0.42300333">
        <ele>475.0</ele>
        <time>2019-07-07T13:32:59.687Z</time>
      </trkpt>
      <trkpt lat="43.01404833" lon="-0.42300167">
        <ele>475.0</ele>
        <time>2019-07-07T13:33:00.699Z</time>
      </trkpt>
      <trkpt lat="43.01404833" lon="-0.42300167">
        <ele>475.0</ele>
        <time>2019-07-07T13:33:01.702Z</time>
      </trkpt>
      <trkpt lat="43.01404833" lon="-0.42300167">
        <ele>475.0</ele>
        <time>2019-07-07T13:33:02.665Z</time>
      </trkpt>
      <trkpt lat="43.01424167" lon="-0.42300333">
        <ele>474.0</ele>
        <time>2019-07-07T13:33:03.696Z</time>
      </trkpt>
      <trkpt lat="43.01424167" lon="-0.42300333">
        <ele>474.0</ele>
        <time>2019-07-07T13:33:04.700Z</time>
      </trkpt>
      <trkpt lat="43.014375" lon="-0.42300167">
        <ele>474.0</ele>
        <time>2019-07-07T13:33:05.710Z</time>
      </trkpt>
      <trkpt lat="43.014375" lon="-0.42300167">
        <ele>474.0</ele>
        <time>2019-07-07T13:33:06.668Z</time>
      </trkpt>
      <trkpt lat="43.014375" lon="-0.42300167">
        <ele>474.0</ele>
        <time>2019-07-07T13:33:07.665Z</time>
      </trkpt>
      <trkpt lat="43.01451167" lon="-0.42299167">
        <ele>474.0</ele>
        <time>2019-07-07T13:33:08.703Z</time>
      </trkpt>
      <trkpt lat="43.01451167" lon="-0.42299167">
        <ele>474.0</ele>
        <time>2019-07-07T13:33:09.665Z</time>
      </trkpt>
      <trkpt lat="43.01465167" lon="-0.42298">
        <ele>475.0</ele>
        <time>2019-07-07T13:33:10.699Z</time>
      </trkpt>
      <trkpt lat="43.01465167" lon="-0.42298">
        <ele>475.0</ele>
        <time>2019-07-07T13:33:11.666Z</time>
      </trkpt>
      <trkpt lat="43.01479667" lon="-0.42296">
        <ele>475.0</ele>
        <time>2019-07-07T13:33:12.701Z</time>
      </trkpt>
      <trkpt lat="43.01479667" lon="-0.42296">
        <ele>475.0</ele>
        <time>2019-07-07T13:33:13.665Z</time>
      </trkpt>
      <trkpt lat="43.01494667" lon="-0.42293833">
        <ele>475.0</ele>
        <time>2019-07-07T13:33:14.699Z</time>
      </trkpt>
      <trkpt lat="43.01494667" lon="-0.42293833">
        <ele>475.0</ele>
        <time>2019-07-07T13:33:15.667Z</time>
      </trkpt>
      <trkpt lat="43.0151" lon="-0.42292">
        <ele>476.0</ele>
        <time>2019-07-07T13:33:16.689Z</time>
      </trkpt>
      <trkpt lat="43.01525333" lon="-0.42291">
        <ele>476.0</ele>
        <time>2019-07-07T13:33:17.700Z</time>
      </trkpt>
      <trkpt lat="43.01525333" lon="-0.42291">
        <ele>476.0</ele>
        <time>2019-07-07T13:33:18.702Z</time>
      </trkpt>
      <trkpt lat="43.01541333" lon="-0.42290333">
        <ele>474.0</ele>
        <time>2019-07-07T13:33:19.702Z</time>
      </trkpt>
      <trkpt lat="43.01541333" lon="-0.42290333">
        <ele>474.0</ele>
        <time>2019-07-07T13:33:20.694Z</time>
      </trkpt>
      <trkpt lat="43.015585" lon="-0.4229">
        <ele>474.0</ele>
        <time>2019-07-07T13:33:21.701Z</time>
      </trkpt>
      <trkpt lat="43.015585" lon="-0.4229">
        <ele>474.0</ele>
        <time>2019-07-07T13:33:22.678Z</time>
      </trkpt>
      <trkpt lat="43.015585" lon="-0.4229">
        <ele>474.0</ele>
        <time>2019-07-07T13:33:23.665Z</time>
      </trkpt>
      <trkpt lat="43.01575333" lon="-0.42290667">
        <ele>474.0</ele>
        <time>2019-07-07T13:33:24.705Z</time>
      </trkpt>
      <trkpt lat="43.01575333" lon="-0.42290667">
        <ele>474.0</ele>
        <time>2019-07-07T13:33:25.666Z</time>
      </trkpt>
      <trkpt lat="43.01592833" lon="-0.422915">
        <ele>473.0</ele>
        <time>2019-07-07T13:33:26.702Z</time>
      </trkpt>
      <trkpt lat="43.01611167" lon="-0.422925">
        <ele>472.0</ele>
        <time>2019-07-07T13:33:27.669Z</time>
      </trkpt>
      <trkpt lat="43.01611167" lon="-0.422925">
        <ele>472.0</ele>
        <time>2019-07-07T13:33:28.684Z</time>
      </trkpt>
      <trkpt lat="43.01611167" lon="-0.422925">
        <ele>472.0</ele>
        <time>2019-07-07T13:33:29.670Z</time>
      </trkpt>
      <trkpt lat="43.016305" lon="-0.42293333">
        <ele>471.0</ele>
        <time>2019-07-07T13:33:30.666Z</time>
      </trkpt>
      <trkpt lat="43.016305" lon="-0.42293333">
        <ele>471.0</ele>
        <time>2019-07-07T13:33:31.666Z</time>
      </trkpt>
      <trkpt lat="43.0165" lon="-0.42294667">
        <ele>470.0</ele>
        <time>2019-07-07T13:33:32.670Z</time>
      </trkpt>
      <trkpt lat="43.01670333" lon="-0.42296167">
        <ele>469.0</ele>
        <time>2019-07-07T13:33:33.703Z</time>
      </trkpt>
      <trkpt lat="43.01670333" lon="-0.42296167">
        <ele>469.0</ele>
        <time>2019-07-07T13:33:34.703Z</time>
      </trkpt>
      <trkpt lat="43.01670333" lon="-0.42296167">
        <ele>469.0</ele>
        <time>2019-07-07T13:33:35.666Z</time>
      </trkpt>
      <trkpt lat="43.01691167" lon="-0.42298">
        <ele>467.0</ele>
        <time>2019-07-07T13:33:36.670Z</time>
      </trkpt>
      <trkpt lat="43.01712167" lon="-0.42299833">
        <ele>466.0</ele>
        <time>2019-07-07T13:33:37.702Z</time>
      </trkpt>
      <trkpt lat="43.01712167" lon="-0.42299833">
        <ele>466.0</ele>
        <time>2019-07-07T13:33:38.684Z</time>
      </trkpt>
      <trkpt lat="43.01733667" lon="-0.42301333">
        <ele>465.0</ele>
        <time>2019-07-07T13:33:39.701Z</time>
      </trkpt>
      <trkpt lat="43.01733667" lon="-0.42301333">
        <ele>465.0</ele>
        <time>2019-07-07T13:33:40.687Z</time>
      </trkpt>
      <trkpt lat="43.017555" lon="-0.42303333">
        <ele>463.0</ele>
        <time>2019-07-07T13:33:41.714Z</time>
      </trkpt>
      <trkpt lat="43.017555" lon="-0.42303333">
        <ele>463.0</ele>
        <time>2019-07-07T13:33:42.681Z</time>
      </trkpt>
      <trkpt lat="43.017555" lon="-0.42303333">
        <ele>463.0</ele>
        <time>2019-07-07T13:33:43.670Z</time>
      </trkpt>
      <trkpt lat="43.01777833" lon="-0.42305167">
        <ele>462.0</ele>
        <time>2019-07-07T13:33:44.703Z</time>
      </trkpt>
      <trkpt lat="43.01799833" lon="-0.42306667">
        <ele>461.0</ele>
        <time>2019-07-07T13:33:45.700Z</time>
      </trkpt>
      <trkpt lat="43.01799833" lon="-0.42306667">
        <ele>461.0</ele>
        <time>2019-07-07T13:33:46.703Z</time>
      </trkpt>
      <trkpt lat="43.01799833" lon="-0.42306667">
        <ele>461.0</ele>
        <time>2019-07-07T13:33:47.666Z</time>
      </trkpt>
      <trkpt lat="43.01822167" lon="-0.42307667">
        <ele>460.0</ele>
        <time>2019-07-07T13:33:48.667Z</time>
      </trkpt>
      <trkpt lat="43.01844333" lon="-0.42308333">
        <ele>460.0</ele>
        <time>2019-07-07T13:33:49.709Z</time>
      </trkpt>
      <trkpt lat="43.01844333" lon="-0.42308333">
        <ele>460.0</ele>
        <time>2019-07-07T13:33:50.667Z</time>
      </trkpt>
      <trkpt lat="43.01855333" lon="-0.42308167">
        <ele>460.0</ele>
        <time>2019-07-07T13:33:51.681Z</time>
      </trkpt>
      <trkpt lat="43.01876667" lon="-0.423065">
        <ele>459.0</ele>
        <time>2019-07-07T13:33:52.668Z</time>
      </trkpt>
      <trkpt lat="43.01876667" lon="-0.423065">
        <ele>459.0</ele>
        <time>2019-07-07T13:33:53.667Z</time>
      </trkpt>
      <trkpt lat="43.01887333" lon="-0.42305167">
        <ele>459.0</ele>
        <time>2019-07-07T13:33:54.701Z</time>
      </trkpt>
      <trkpt lat="43.01887333" lon="-0.42305167">
        <ele>459.0</ele>
        <time>2019-07-07T13:33:55.665Z</time>
      </trkpt>
      <trkpt lat="43.01908167" lon="-0.42302167">
        <ele>459.0</ele>
        <time>2019-07-07T13:33:56.704Z</time>
      </trkpt>
      <trkpt lat="43.01908167" lon="-0.42302167">
        <ele>459.0</ele>
        <time>2019-07-07T13:33:57.667Z</time>
      </trkpt>
      <trkpt lat="43.01929" lon="-0.42299333">
        <ele>458.0</ele>
        <time>2019-07-07T13:33:58.701Z</time>
      </trkpt>
      <trkpt lat="43.01929" lon="-0.42299333">
        <ele>458.0</ele>
        <time>2019-07-07T13:33:59.666Z</time>
      </trkpt>
      <trkpt lat="43.019495" lon="-0.422965">
        <ele>458.0</ele>
        <time>2019-07-07T13:34:00.668Z</time>
      </trkpt>
      <trkpt lat="43.019495" lon="-0.422965">
        <ele>458.0</ele>
        <time>2019-07-07T13:34:01.666Z</time>
      </trkpt>
      <trkpt lat="43.01970333" lon="-0.42293667">
        <ele>458.0</ele>
        <time>2019-07-07T13:34:02.704Z</time>
      </trkpt>
      <trkpt lat="43.01970333" lon="-0.42293667">
        <ele>458.0</ele>
        <time>2019-07-07T13:34:03.667Z</time>
      </trkpt>
      <trkpt lat="43.01990833" lon="-0.42290333">
        <ele>458.0</ele>
        <time>2019-07-07T13:34:04.679Z</time>
      </trkpt>
      <trkpt lat="43.01990833" lon="-0.42290333">
        <ele>458.0</ele>
        <time>2019-07-07T13:34:05.667Z</time>
      </trkpt>
      <trkpt lat="43.02010833" lon="-0.42286833">
        <ele>457.0</ele>
        <time>2019-07-07T13:34:06.670Z</time>
      </trkpt>
      <trkpt lat="43.02029833" lon="-0.42282">
        <ele>457.0</ele>
        <time>2019-07-07T13:34:07.710Z</time>
      </trkpt>
      <trkpt lat="43.02029833" lon="-0.42282">
        <ele>457.0</ele>
        <time>2019-07-07T13:34:08.702Z</time>
      </trkpt>
      <trkpt lat="43.02029833" lon="-0.42282">
        <ele>457.0</ele>
        <time>2019-07-07T13:34:09.667Z</time>
      </trkpt>
      <trkpt lat="43.02048667" lon="-0.42275667">
        <ele>457.0</ele>
        <time>2019-07-07T13:34:10.703Z</time>
      </trkpt>
      <trkpt lat="43.02048667" lon="-0.42275667">
        <ele>457.0</ele>
        <time>2019-07-07T13:34:11.666Z</time>
      </trkpt>
      <trkpt lat="43.02067167" lon="-0.42269333">
        <ele>457.0</ele>
        <time>2019-07-07T13:34:12.670Z</time>
      </trkpt>
      <trkpt lat="43.02067167" lon="-0.42269333">
        <ele>457.0</ele>
        <time>2019-07-07T13:34:13.667Z</time>
      </trkpt>
      <trkpt lat="43.020855" lon="-0.42262667">
        <ele>457.0</ele>
        <time>2019-07-07T13:34:14.704Z</time>
      </trkpt>
      <trkpt lat="43.020855" lon="-0.42262667">
        <ele>457.0</ele>
        <time>2019-07-07T13:34:15.667Z</time>
      </trkpt>
      <trkpt lat="43.02103667" lon="-0.42256167">
        <ele>458.0</ele>
        <time>2019-07-07T13:34:16.670Z</time>
      </trkpt>
      <trkpt lat="43.02121833" lon="-0.42249333">
        <ele>458.0</ele>
        <time>2019-07-07T13:34:17.733Z</time>
      </trkpt>
      <trkpt lat="43.02121833" lon="-0.42249333">
        <ele>458.0</ele>
        <time>2019-07-07T13:34:18.669Z</time>
      </trkpt>
      <trkpt lat="43.02131" lon="-0.42245667">
        <ele>458.0</ele>
        <time>2019-07-07T13:34:19.667Z</time>
      </trkpt>
      <trkpt lat="43.02131" lon="-0.42245667">
        <ele>458.0</ele>
        <time>2019-07-07T13:34:20.667Z</time>
      </trkpt>
      <trkpt lat="43.02149" lon="-0.42238667">
        <ele>458.0</ele>
        <time>2019-07-07T13:34:21.683Z</time>
      </trkpt>
      <trkpt lat="43.02158333" lon="-0.42234833">
        <ele>458.0</ele>
        <time>2019-07-07T13:34:22.703Z</time>
      </trkpt>
      <trkpt lat="43.02176167" lon="-0.42228">
        <ele>459.0</ele>
        <time>2019-07-07T13:34:23.675Z</time>
      </trkpt>
      <trkpt lat="43.02176167" lon="-0.42228">
        <ele>459.0</ele>
        <time>2019-07-07T13:34:24.668Z</time>
      </trkpt>
      <trkpt lat="43.02193833" lon="-0.42220833">
        <ele>459.0</ele>
        <time>2019-07-07T13:34:25.676Z</time>
      </trkpt>
      <trkpt lat="43.02203167" lon="-0.42217833">
        <ele>459.0</ele>
        <time>2019-07-07T13:34:26.667Z</time>
      </trkpt>
      <trkpt lat="43.02212833" lon="-0.42215">
        <ele>459.0</ele>
        <time>2019-07-07T13:34:27.684Z</time>
      </trkpt>
      <trkpt lat="43.02212833" lon="-0.42215">
        <ele>459.0</ele>
        <time>2019-07-07T13:34:28.666Z</time>
      </trkpt>
      <trkpt lat="43.02232" lon="-0.422085">
        <ele>459.0</ele>
        <time>2019-07-07T13:34:29.686Z</time>
      </trkpt>
      <trkpt lat="43.02232" lon="-0.422085">
        <ele>459.0</ele>
        <time>2019-07-07T13:34:30.668Z</time>
      </trkpt>
      <trkpt lat="43.02240667" lon="-0.42205167">
        <ele>459.0</ele>
        <time>2019-07-07T13:34:31.700Z</time>
      </trkpt>
      <trkpt lat="43.02258333" lon="-0.42198833">
        <ele>458.0</ele>
        <time>2019-07-07T13:34:32.666Z</time>
      </trkpt>
      <trkpt lat="43.02258333" lon="-0.42198833">
        <ele>458.0</ele>
        <time>2019-07-07T13:34:33.679Z</time>
      </trkpt>
      <trkpt lat="43.02275667" lon="-0.421925">
        <ele>458.0</ele>
        <time>2019-07-07T13:34:34.687Z</time>
      </trkpt>
      <trkpt lat="43.02275667" lon="-0.421925">
        <ele>458.0</ele>
        <time>2019-07-07T13:34:35.676Z</time>
      </trkpt>
      <trkpt lat="43.02275667" lon="-0.421925">
        <ele>458.0</ele>
        <time>2019-07-07T13:34:36.667Z</time>
      </trkpt>
      <trkpt lat="43.02292667" lon="-0.421865">
        <ele>458.0</ele>
        <time>2019-07-07T13:34:37.677Z</time>
      </trkpt>
      <trkpt lat="43.0231" lon="-0.421835">
        <ele>458.0</ele>
        <time>2019-07-07T13:34:38.683Z</time>
      </trkpt>
      <trkpt lat="43.0231" lon="-0.421835">
        <ele>458.0</ele>
        <time>2019-07-07T13:34:39.710Z</time>
      </trkpt>
      <trkpt lat="43.023185" lon="-0.42182667">
        <ele>457.0</ele>
        <time>2019-07-07T13:34:40.667Z</time>
      </trkpt>
      <trkpt lat="43.02336" lon="-0.42181333">
        <ele>457.0</ele>
        <time>2019-07-07T13:34:41.709Z</time>
      </trkpt>
      <trkpt lat="43.02344667" lon="-0.4218">
        <ele>457.0</ele>
        <time>2019-07-07T13:34:42.697Z</time>
      </trkpt>
      <trkpt lat="43.02344667" lon="-0.4218">
        <ele>457.0</ele>
        <time>2019-07-07T13:34:43.681Z</time>
      </trkpt>
      <trkpt lat="43.02362" lon="-0.42174333">
        <ele>456.0</ele>
        <time>2019-07-07T13:34:44.692Z</time>
      </trkpt>
      <trkpt lat="43.023705" lon="-0.42169667">
        <ele>455.0</ele>
        <time>2019-07-07T13:34:45.668Z</time>
      </trkpt>
      <trkpt lat="43.023705" lon="-0.42169667">
        <ele>455.0</ele>
        <time>2019-07-07T13:34:46.695Z</time>
      </trkpt>
      <trkpt lat="43.02384" lon="-0.42154667">
        <ele>454.0</ele>
        <time>2019-07-07T13:34:47.701Z</time>
      </trkpt>
      <trkpt lat="43.02384" lon="-0.42154667">
        <ele>454.0</ele>
        <time>2019-07-07T13:34:48.699Z</time>
      </trkpt>
      <trkpt lat="43.02384" lon="-0.42154667">
        <ele>454.0</ele>
        <time>2019-07-07T13:34:49.666Z</time>
      </trkpt>
      <trkpt lat="43.02398" lon="-0.42143667">
        <ele>455.0</ele>
        <time>2019-07-07T13:34:50.695Z</time>
      </trkpt>
      <trkpt lat="43.02414667" lon="-0.42146">
        <ele>454.0</ele>
        <time>2019-07-07T13:34:51.701Z</time>
      </trkpt>
      <trkpt lat="43.02414667" lon="-0.42146">
        <ele>454.0</ele>
        <time>2019-07-07T13:34:52.680Z</time>
      </trkpt>
      <trkpt lat="43.02432" lon="-0.421505">
        <ele>453.0</ele>
        <time>2019-07-07T13:34:53.687Z</time>
      </trkpt>
      <trkpt lat="43.02432" lon="-0.421505">
        <ele>453.0</ele>
        <time>2019-07-07T13:34:54.667Z</time>
      </trkpt>
      <trkpt lat="43.02440667" lon="-0.42150167">
        <ele>453.0</ele>
        <time>2019-07-07T13:34:55.684Z</time>
      </trkpt>
      <trkpt lat="43.02456833" lon="-0.421475">
        <ele>452.0</ele>
        <time>2019-07-07T13:34:56.697Z</time>
      </trkpt>
      <trkpt lat="43.02464833" lon="-0.421465">
        <ele>452.0</ele>
        <time>2019-07-07T13:34:57.681Z</time>
      </trkpt>
      <trkpt lat="43.02464833" lon="-0.421465">
        <ele>452.0</ele>
        <time>2019-07-07T13:34:58.698Z</time>
      </trkpt>
      <trkpt lat="43.02480833" lon="-0.42145333">
        <ele>452.0</ele>
        <time>2019-07-07T13:34:59.671Z</time>
      </trkpt>
      <trkpt lat="43.02488833" lon="-0.42145">
        <ele>452.0</ele>
        <time>2019-07-07T13:35:00.694Z</time>
      </trkpt>
      <trkpt lat="43.02488833" lon="-0.42145">
        <ele>452.0</ele>
        <time>2019-07-07T13:35:01.682Z</time>
      </trkpt>
      <trkpt lat="43.02504667" lon="-0.421445">
        <ele>451.0</ele>
        <time>2019-07-07T13:35:02.693Z</time>
      </trkpt>
      <trkpt lat="43.02504667" lon="-0.421445">
        <ele>451.0</ele>
        <time>2019-07-07T13:35:03.682Z</time>
      </trkpt>
      <trkpt lat="43.02504667" lon="-0.421445">
        <ele>451.0</ele>
        <time>2019-07-07T13:35:04.667Z</time>
      </trkpt>
      <trkpt lat="43.025205" lon="-0.42144833">
        <ele>451.0</ele>
        <time>2019-07-07T13:35:05.674Z</time>
      </trkpt>
      <trkpt lat="43.02535667" lon="-0.42145667">
        <ele>452.0</ele>
        <time>2019-07-07T13:35:06.680Z</time>
      </trkpt>
      <trkpt lat="43.02535667" lon="-0.42145667">
        <ele>452.0</ele>
        <time>2019-07-07T13:35:07.696Z</time>
      </trkpt>
      <trkpt lat="43.025515" lon="-0.42145833">
        <ele>451.0</ele>
        <time>2019-07-07T13:35:08.706Z</time>
      </trkpt>
      <trkpt lat="43.025515" lon="-0.42145833">
        <ele>451.0</ele>
        <time>2019-07-07T13:35:09.689Z</time>
      </trkpt>
      <trkpt lat="43.025675" lon="-0.421465">
        <ele>451.0</ele>
        <time>2019-07-07T13:35:10.700Z</time>
      </trkpt>
      <trkpt lat="43.025675" lon="-0.421465">
        <ele>451.0</ele>
        <time>2019-07-07T13:35:11.683Z</time>
      </trkpt>
      <trkpt lat="43.025675" lon="-0.421465">
        <ele>451.0</ele>
        <time>2019-07-07T13:35:12.677Z</time>
      </trkpt>
      <trkpt lat="43.025835" lon="-0.42147167">
        <ele>451.0</ele>
        <time>2019-07-07T13:35:13.679Z</time>
      </trkpt>
      <trkpt lat="43.026" lon="-0.42148167">
        <ele>451.0</ele>
        <time>2019-07-07T13:35:14.685Z</time>
      </trkpt>
      <trkpt lat="43.026" lon="-0.42148167">
        <ele>451.0</ele>
        <time>2019-07-07T13:35:15.700Z</time>
      </trkpt>
      <trkpt lat="43.02616333" lon="-0.42148333">
        <ele>450.0</ele>
        <time>2019-07-07T13:35:16.667Z</time>
      </trkpt>
      <trkpt lat="43.02616333" lon="-0.42148333">
        <ele>450.0</ele>
        <time>2019-07-07T13:35:17.694Z</time>
      </trkpt>
      <trkpt lat="43.02616333" lon="-0.42148333">
        <ele>450.0</ele>
        <time>2019-07-07T13:35:18.667Z</time>
      </trkpt>
      <trkpt lat="43.02632667" lon="-0.42149">
        <ele>450.0</ele>
        <time>2019-07-07T13:35:19.702Z</time>
      </trkpt>
      <trkpt lat="43.02649" lon="-0.42149667">
        <ele>450.0</ele>
        <time>2019-07-07T13:35:20.668Z</time>
      </trkpt>
      <trkpt lat="43.02649" lon="-0.42149667">
        <ele>450.0</ele>
        <time>2019-07-07T13:35:21.685Z</time>
      </trkpt>
      <trkpt lat="43.026655" lon="-0.421505">
        <ele>449.0</ele>
        <time>2019-07-07T13:35:22.699Z</time>
      </trkpt>
      <trkpt lat="43.02673667" lon="-0.42150833">
        <ele>449.0</ele>
        <time>2019-07-07T13:35:23.830Z</time>
      </trkpt>
      <trkpt lat="43.02673667" lon="-0.42150833">
        <ele>449.0</ele>
        <time>2019-07-07T13:35:24.673Z</time>
      </trkpt>
      <trkpt lat="43.026905" lon="-0.42151667">
        <ele>449.0</ele>
        <time>2019-07-07T13:35:25.680Z</time>
      </trkpt>
      <trkpt lat="43.02699" lon="-0.42152167">
        <ele>449.0</ele>
        <time>2019-07-07T13:35:26.693Z</time>
      </trkpt>
      <trkpt lat="43.02699" lon="-0.42152167">
        <ele>449.0</ele>
        <time>2019-07-07T13:35:27.682Z</time>
      </trkpt>
      <trkpt lat="43.02699" lon="-0.42152167">
        <ele>449.0</ele>
        <time>2019-07-07T13:35:28.666Z</time>
      </trkpt>
      <trkpt lat="43.02716167" lon="-0.42153">
        <ele>448.0</ele>
        <time>2019-07-07T13:35:29.698Z</time>
      </trkpt>
      <trkpt lat="43.02716167" lon="-0.42153">
        <ele>448.0</ele>
        <time>2019-07-07T13:35:30.665Z</time>
      </trkpt>
      <trkpt lat="43.02733167" lon="-0.42153833">
        <ele>448.0</ele>
        <time>2019-07-07T13:35:31.683Z</time>
      </trkpt>
      <trkpt lat="43.02750333" lon="-0.421545">
        <ele>448.0</ele>
        <time>2019-07-07T13:35:32.699Z</time>
      </trkpt>
      <trkpt lat="43.02750333" lon="-0.421545">
        <ele>448.0</ele>
        <time>2019-07-07T13:35:33.673Z</time>
      </trkpt>
      <trkpt lat="43.02750333" lon="-0.421545">
        <ele>448.0</ele>
        <time>2019-07-07T13:35:34.667Z</time>
      </trkpt>
      <trkpt lat="43.02767333" lon="-0.42155333">
        <ele>447.0</ele>
        <time>2019-07-07T13:35:35.695Z</time>
      </trkpt>
      <trkpt lat="43.02784667" lon="-0.42156">
        <ele>447.0</ele>
        <time>2019-07-07T13:35:36.701Z</time>
      </trkpt>
      <trkpt lat="43.02793333" lon="-0.42156167">
        <ele>447.0</ele>
        <time>2019-07-07T13:35:37.689Z</time>
      </trkpt>
      <trkpt lat="43.02793333" lon="-0.42156167">
        <ele>447.0</ele>
        <time>2019-07-07T13:35:38.667Z</time>
      </trkpt>
      <trkpt lat="43.02811167" lon="-0.42156667">
        <ele>447.0</ele>
        <time>2019-07-07T13:35:39.718Z</time>
      </trkpt>
      <trkpt lat="43.02811167" lon="-0.42156667">
        <ele>447.0</ele>
        <time>2019-07-07T13:35:40.680Z</time>
      </trkpt>
      <trkpt lat="43.02829" lon="-0.421575">
        <ele>446.0</ele>
        <time>2019-07-07T13:35:41.686Z</time>
      </trkpt>
      <trkpt lat="43.02829" lon="-0.421575">
        <ele>446.0</ele>
        <time>2019-07-07T13:35:42.683Z</time>
      </trkpt>
      <trkpt lat="43.02847167" lon="-0.42158333">
        <ele>446.0</ele>
        <time>2019-07-07T13:35:43.697Z</time>
      </trkpt>
      <trkpt lat="43.02847167" lon="-0.42158333">
        <ele>446.0</ele>
        <time>2019-07-07T13:35:44.667Z</time>
      </trkpt>
      <trkpt lat="43.02856167" lon="-0.42158833">
        <ele>445.0</ele>
        <time>2019-07-07T13:35:45.676Z</time>
      </trkpt>
      <trkpt lat="43.02873833" lon="-0.421595">
        <ele>445.0</ele>
        <time>2019-07-07T13:35:46.682Z</time>
      </trkpt>
      <trkpt lat="43.02873833" lon="-0.421595">
        <ele>445.0</ele>
        <time>2019-07-07T13:35:47.693Z</time>
      </trkpt>
      <trkpt lat="43.02891333" lon="-0.42160167">
        <ele>445.0</ele>
        <time>2019-07-07T13:35:48.703Z</time>
      </trkpt>
      <trkpt lat="43.02891333" lon="-0.42160167">
        <ele>445.0</ele>
        <time>2019-07-07T13:35:49.667Z</time>
      </trkpt>
      <trkpt lat="43.02909" lon="-0.42161">
        <ele>444.0</ele>
        <time>2019-07-07T13:35:50.671Z</time>
      </trkpt>
      <trkpt lat="43.02909" lon="-0.42161">
        <ele>444.0</ele>
        <time>2019-07-07T13:35:51.687Z</time>
      </trkpt>
      <trkpt lat="43.02926667" lon="-0.42161667">
        <ele>444.0</ele>
        <time>2019-07-07T13:35:52.698Z</time>
      </trkpt>
      <trkpt lat="43.02926667" lon="-0.42161667">
        <ele>444.0</ele>
        <time>2019-07-07T13:35:53.702Z</time>
      </trkpt>
      <trkpt lat="43.029445" lon="-0.421625">
        <ele>444.0</ele>
        <time>2019-07-07T13:35:54.669Z</time>
      </trkpt>
      <trkpt lat="43.029535" lon="-0.42162833">
        <ele>444.0</ele>
        <time>2019-07-07T13:35:55.701Z</time>
      </trkpt>
      <trkpt lat="43.029535" lon="-0.42162833">
        <ele>444.0</ele>
        <time>2019-07-07T13:35:56.676Z</time>
      </trkpt>
      <trkpt lat="43.02971333" lon="-0.42163833">
        <ele>443.0</ele>
        <time>2019-07-07T13:35:57.689Z</time>
      </trkpt>
      <trkpt lat="43.02971333" lon="-0.42163833">
        <ele>443.0</ele>
        <time>2019-07-07T13:35:58.704Z</time>
      </trkpt>
      <trkpt lat="43.02989333" lon="-0.42164667">
        <ele>443.0</ele>
        <time>2019-07-07T13:35:59.673Z</time>
      </trkpt>
      <trkpt lat="43.02989333" lon="-0.42164667">
        <ele>443.0</ele>
        <time>2019-07-07T13:36:00.694Z</time>
      </trkpt>
      <trkpt lat="43.03007167" lon="-0.42165">
        <ele>443.0</ele>
        <time>2019-07-07T13:36:01.701Z</time>
      </trkpt>
      <trkpt lat="43.03007167" lon="-0.42165">
        <ele>443.0</ele>
        <time>2019-07-07T13:36:02.675Z</time>
      </trkpt>
      <trkpt lat="43.030245" lon="-0.42165667">
        <ele>443.0</ele>
        <time>2019-07-07T13:36:03.681Z</time>
      </trkpt>
      <trkpt lat="43.030245" lon="-0.42165667">
        <ele>443.0</ele>
        <time>2019-07-07T13:36:04.685Z</time>
      </trkpt>
      <trkpt lat="43.03033167" lon="-0.42166">
        <ele>443.0</ele>
        <time>2019-07-07T13:36:05.704Z</time>
      </trkpt>
      <trkpt lat="43.03050333" lon="-0.42166667">
        <ele>443.0</ele>
        <time>2019-07-07T13:36:06.670Z</time>
      </trkpt>
      <trkpt lat="43.03050333" lon="-0.42166667">
        <ele>443.0</ele>
        <time>2019-07-07T13:36:07.696Z</time>
      </trkpt>
      <trkpt lat="43.030675" lon="-0.421675">
        <ele>443.0</ele>
        <time>2019-07-07T13:36:08.666Z</time>
      </trkpt>
      <trkpt lat="43.03076167" lon="-0.42168">
        <ele>443.0</ele>
        <time>2019-07-07T13:36:09.692Z</time>
      </trkpt>
      <trkpt lat="43.03076167" lon="-0.42168">
        <ele>443.0</ele>
        <time>2019-07-07T13:36:10.668Z</time>
      </trkpt>
      <trkpt lat="43.03093" lon="-0.42168667">
        <ele>442.0</ele>
        <time>2019-07-07T13:36:11.675Z</time>
      </trkpt>
      <trkpt lat="43.03093" lon="-0.42168667">
        <ele>442.0</ele>
        <time>2019-07-07T13:36:12.665Z</time>
      </trkpt>
      <trkpt lat="43.03109833" lon="-0.421695">
        <ele>442.0</ele>
        <time>2019-07-07T13:36:13.790Z</time>
      </trkpt>
      <trkpt lat="43.031185" lon="-0.42169833">
        <ele>442.0</ele>
        <time>2019-07-07T13:36:14.668Z</time>
      </trkpt>
      <trkpt lat="43.03126833" lon="-0.42170167">
        <ele>442.0</ele>
        <time>2019-07-07T13:36:15.700Z</time>
      </trkpt>
      <trkpt lat="43.03126833" lon="-0.42170167">
        <ele>442.0</ele>
        <time>2019-07-07T13:36:16.683Z</time>
      </trkpt>
      <trkpt lat="43.03126833" lon="-0.42170167">
        <ele>442.0</ele>
        <time>2019-07-07T13:36:17.666Z</time>
      </trkpt>
      <trkpt lat="43.03143333" lon="-0.42170667">
        <ele>442.0</ele>
        <time>2019-07-07T13:36:18.694Z</time>
      </trkpt>
      <trkpt lat="43.03160333" lon="-0.42171">
        <ele>442.0</ele>
        <time>2019-07-07T13:36:19.703Z</time>
      </trkpt>
      <trkpt lat="43.03160333" lon="-0.42171">
        <ele>442.0</ele>
        <time>2019-07-07T13:36:20.679Z</time>
      </trkpt>
      <trkpt lat="43.03160333" lon="-0.42171">
        <ele>442.0</ele>
        <time>2019-07-07T13:36:21.668Z</time>
      </trkpt>
      <trkpt lat="43.03177167" lon="-0.42171667">
        <ele>442.0</ele>
        <time>2019-07-07T13:36:22.696Z</time>
      </trkpt>
      <trkpt lat="43.03193833" lon="-0.421725">
        <ele>441.0</ele>
        <time>2019-07-07T13:36:23.678Z</time>
      </trkpt>
      <trkpt lat="43.03193833" lon="-0.421725">
        <ele>441.0</ele>
        <time>2019-07-07T13:36:24.692Z</time>
      </trkpt>
      <trkpt lat="43.03210333" lon="-0.42173333">
        <ele>441.0</ele>
        <time>2019-07-07T13:36:25.700Z</time>
      </trkpt>
      <trkpt lat="43.03210333" lon="-0.42173333">
        <ele>441.0</ele>
        <time>2019-07-07T13:36:26.696Z</time>
      </trkpt>
      <trkpt lat="43.03226667" lon="-0.42174167">
        <ele>441.0</ele>
        <time>2019-07-07T13:36:27.703Z</time>
      </trkpt>
      <trkpt lat="43.03226667" lon="-0.42174167">
        <ele>441.0</ele>
        <time>2019-07-07T13:36:28.677Z</time>
      </trkpt>
      <trkpt lat="43.03226667" lon="-0.42174167">
        <ele>441.0</ele>
        <time>2019-07-07T13:36:29.667Z</time>
      </trkpt>
      <trkpt lat="43.03243167" lon="-0.42175">
        <ele>441.0</ele>
        <time>2019-07-07T13:36:30.700Z</time>
      </trkpt>
      <trkpt lat="43.032595" lon="-0.42176">
        <ele>441.0</ele>
        <time>2019-07-07T13:36:31.667Z</time>
      </trkpt>
      <trkpt lat="43.032595" lon="-0.42176">
        <ele>441.0</ele>
        <time>2019-07-07T13:36:32.695Z</time>
      </trkpt>
      <trkpt lat="43.032595" lon="-0.42176">
        <ele>441.0</ele>
        <time>2019-07-07T13:36:33.669Z</time>
      </trkpt>
      <trkpt lat="43.03275833" lon="-0.42177667">
        <ele>441.0</ele>
        <time>2019-07-07T13:36:34.703Z</time>
      </trkpt>
      <trkpt lat="43.03291667" lon="-0.4218">
        <ele>441.0</ele>
        <time>2019-07-07T13:36:35.673Z</time>
      </trkpt>
      <trkpt lat="43.03291667" lon="-0.4218">
        <ele>441.0</ele>
        <time>2019-07-07T13:36:36.702Z</time>
      </trkpt>
      <trkpt lat="43.03307167" lon="-0.42182">
        <ele>441.0</ele>
        <time>2019-07-07T13:36:37.669Z</time>
      </trkpt>
      <trkpt lat="43.03307167" lon="-0.42182">
        <ele>441.0</ele>
        <time>2019-07-07T13:36:38.668Z</time>
      </trkpt>
      <trkpt lat="43.03315" lon="-0.42183333">
        <ele>441.0</ele>
        <time>2019-07-07T13:36:39.673Z</time>
      </trkpt>
      <trkpt lat="43.0333" lon="-0.42186833">
        <ele>442.0</ele>
        <time>2019-07-07T13:36:40.690Z</time>
      </trkpt>
      <trkpt lat="43.0333" lon="-0.42186833">
        <ele>442.0</ele>
        <time>2019-07-07T13:36:41.704Z</time>
      </trkpt>
      <trkpt lat="43.03345667" lon="-0.42190167">
        <ele>442.0</ele>
        <time>2019-07-07T13:36:42.672Z</time>
      </trkpt>
      <trkpt lat="43.033535" lon="-0.42192333">
        <ele>443.0</ele>
        <time>2019-07-07T13:36:43.687Z</time>
      </trkpt>
      <trkpt lat="43.033535" lon="-0.42192333">
        <ele>443.0</ele>
        <time>2019-07-07T13:36:44.670Z</time>
      </trkpt>
      <trkpt lat="43.03368" lon="-0.42197333">
        <ele>443.0</ele>
        <time>2019-07-07T13:36:45.700Z</time>
      </trkpt>
      <trkpt lat="43.03368" lon="-0.42197333">
        <ele>443.0</ele>
        <time>2019-07-07T13:36:46.686Z</time>
      </trkpt>
      <trkpt lat="43.03382333" lon="-0.42202667">
        <ele>444.0</ele>
        <time>2019-07-07T13:36:47.698Z</time>
      </trkpt>
      <trkpt lat="43.03382333" lon="-0.42202667">
        <ele>444.0</ele>
        <time>2019-07-07T13:36:48.685Z</time>
      </trkpt>
      <trkpt lat="43.033975" lon="-0.42207833">
        <ele>443.0</ele>
        <time>2019-07-07T13:36:49.701Z</time>
      </trkpt>
      <trkpt lat="43.033975" lon="-0.42207833">
        <ele>443.0</ele>
        <time>2019-07-07T13:36:50.665Z</time>
      </trkpt>
      <trkpt lat="43.03405" lon="-0.42210667">
        <ele>443.0</ele>
        <time>2019-07-07T13:36:51.665Z</time>
      </trkpt>
      <trkpt lat="43.034205" lon="-0.42216">
        <ele>444.0</ele>
        <time>2019-07-07T13:36:52.674Z</time>
      </trkpt>
      <trkpt lat="43.03428167" lon="-0.422185">
        <ele>444.0</ele>
        <time>2019-07-07T13:36:53.687Z</time>
      </trkpt>
      <trkpt lat="43.03435833" lon="-0.42221167">
        <ele>444.0</ele>
        <time>2019-07-07T13:36:54.670Z</time>
      </trkpt>
      <trkpt lat="43.03435833" lon="-0.42221167">
        <ele>444.0</ele>
        <time>2019-07-07T13:36:55.685Z</time>
      </trkpt>
      <trkpt lat="43.03451" lon="-0.422265">
        <ele>444.0</ele>
        <time>2019-07-07T13:36:56.700Z</time>
      </trkpt>
      <trkpt lat="43.03458833" lon="-0.42229">
        <ele>444.0</ele>
        <time>2019-07-07T13:36:57.687Z</time>
      </trkpt>
      <trkpt lat="43.03458833" lon="-0.42229">
        <ele>444.0</ele>
        <time>2019-07-07T13:36:58.674Z</time>
      </trkpt>
      <trkpt lat="43.034745" lon="-0.42234333">
        <ele>444.0</ele>
        <time>2019-07-07T13:36:59.681Z</time>
      </trkpt>
      <trkpt lat="43.034745" lon="-0.42234333">
        <ele>444.0</ele>
        <time>2019-07-07T13:37:00.697Z</time>
      </trkpt>
      <trkpt lat="43.03490333" lon="-0.42239833">
        <ele>444.0</ele>
        <time>2019-07-07T13:37:01.706Z</time>
      </trkpt>
      <trkpt lat="43.03498333" lon="-0.42242667">
        <ele>444.0</ele>
        <time>2019-07-07T13:37:02.687Z</time>
      </trkpt>
      <trkpt lat="43.03506333" lon="-0.422455">
        <ele>444.0</ele>
        <time>2019-07-07T13:37:03.666Z</time>
      </trkpt>
      <trkpt lat="43.03506333" lon="-0.422455">
        <ele>444.0</ele>
        <time>2019-07-07T13:37:04.683Z</time>
      </trkpt>
      <trkpt lat="43.03522167" lon="-0.42251">
        <ele>444.0</ele>
        <time>2019-07-07T13:37:05.691Z</time>
      </trkpt>
      <trkpt lat="43.03522167" lon="-0.42251">
        <ele>444.0</ele>
        <time>2019-07-07T13:37:06.674Z</time>
      </trkpt>
      <trkpt lat="43.035385" lon="-0.42256833">
        <ele>444.0</ele>
        <time>2019-07-07T13:37:07.681Z</time>
      </trkpt>
      <trkpt lat="43.035385" lon="-0.42256833">
        <ele>444.0</ele>
        <time>2019-07-07T13:37:08.702Z</time>
      </trkpt>
      <trkpt lat="43.03555" lon="-0.422625">
        <ele>443.0</ele>
        <time>2019-07-07T13:37:09.686Z</time>
      </trkpt>
      <trkpt lat="43.03555" lon="-0.422625">
        <ele>443.0</ele>
        <time>2019-07-07T13:37:10.683Z</time>
      </trkpt>
      <trkpt lat="43.03563333" lon="-0.42265333">
        <ele>443.0</ele>
        <time>2019-07-07T13:37:11.674Z</time>
      </trkpt>
      <trkpt lat="43.03579833" lon="-0.42271333">
        <ele>443.0</ele>
        <time>2019-07-07T13:37:12.681Z</time>
      </trkpt>
      <trkpt lat="43.03579833" lon="-0.42271333">
        <ele>443.0</ele>
        <time>2019-07-07T13:37:13.704Z</time>
      </trkpt>
      <trkpt lat="43.03596167" lon="-0.42277333">
        <ele>443.0</ele>
        <time>2019-07-07T13:37:14.674Z</time>
      </trkpt>
      <trkpt lat="43.03596167" lon="-0.42277333">
        <ele>443.0</ele>
        <time>2019-07-07T13:37:15.670Z</time>
      </trkpt>
      <trkpt lat="43.03604333" lon="-0.42280333">
        <ele>442.0</ele>
        <time>2019-07-07T13:37:16.698Z</time>
      </trkpt>
      <trkpt lat="43.03621" lon="-0.42286667">
        <ele>442.0</ele>
        <time>2019-07-07T13:37:17.705Z</time>
      </trkpt>
      <trkpt lat="43.03621" lon="-0.42286667">
        <ele>442.0</ele>
        <time>2019-07-07T13:37:18.697Z</time>
      </trkpt>
      <trkpt lat="43.036375" lon="-0.42292833">
        <ele>442.0</ele>
        <time>2019-07-07T13:37:19.705Z</time>
      </trkpt>
      <trkpt lat="43.036375" lon="-0.42292833">
        <ele>442.0</ele>
        <time>2019-07-07T13:37:20.690Z</time>
      </trkpt>
      <trkpt lat="43.036375" lon="-0.42292833">
        <ele>442.0</ele>
        <time>2019-07-07T13:37:21.668Z</time>
      </trkpt>
      <trkpt lat="43.036535" lon="-0.42299333">
        <ele>442.0</ele>
        <time>2019-07-07T13:37:22.702Z</time>
      </trkpt>
      <trkpt lat="43.03668833" lon="-0.42307333">
        <ele>442.0</ele>
        <time>2019-07-07T13:37:23.668Z</time>
      </trkpt>
      <trkpt lat="43.03668833" lon="-0.42307333">
        <ele>442.0</ele>
        <time>2019-07-07T13:37:24.668Z</time>
      </trkpt>
      <trkpt lat="43.03676333" lon="-0.423115">
        <ele>442.0</ele>
        <time>2019-07-07T13:37:25.683Z</time>
      </trkpt>
      <trkpt lat="43.036915" lon="-0.42318">
        <ele>442.0</ele>
        <time>2019-07-07T13:37:26.711Z</time>
      </trkpt>
      <trkpt lat="43.036995" lon="-0.42318333">
        <ele>442.0</ele>
        <time>2019-07-07T13:37:27.706Z</time>
      </trkpt>
      <trkpt lat="43.036995" lon="-0.42318333">
        <ele>442.0</ele>
        <time>2019-07-07T13:37:28.697Z</time>
      </trkpt>
      <trkpt lat="43.036995" lon="-0.42318333">
        <ele>442.0</ele>
        <time>2019-07-07T13:37:29.665Z</time>
      </trkpt>
      <trkpt lat="43.03713333" lon="-0.42322167">
        <ele>443.0</ele>
        <time>2019-07-07T13:37:30.679Z</time>
      </trkpt>
      <trkpt lat="43.03723333" lon="-0.42336167">
        <ele>444.0</ele>
        <time>2019-07-07T13:37:31.685Z</time>
      </trkpt>
      <trkpt lat="43.03723333" lon="-0.42336167">
        <ele>444.0</ele>
        <time>2019-07-07T13:37:32.700Z</time>
      </trkpt>
      <trkpt lat="43.03724667" lon="-0.42355333">
        <ele>445.0</ele>
        <time>2019-07-07T13:37:33.669Z</time>
      </trkpt>
      <trkpt lat="43.03724667" lon="-0.42355333">
        <ele>445.0</ele>
        <time>2019-07-07T13:37:34.696Z</time>
      </trkpt>
      <trkpt lat="43.03726333" lon="-0.42373833">
        <ele>445.0</ele>
        <time>2019-07-07T13:37:35.703Z</time>
      </trkpt>
      <trkpt lat="43.03726333" lon="-0.42373833">
        <ele>445.0</ele>
        <time>2019-07-07T13:37:36.700Z</time>
      </trkpt>
      <trkpt lat="43.03726333" lon="-0.42373833">
        <ele>445.0</ele>
        <time>2019-07-07T13:37:37.668Z</time>
      </trkpt>
      <trkpt lat="43.037365" lon="-0.42387667">
        <ele>445.0</ele>
        <time>2019-07-07T13:37:38.697Z</time>
      </trkpt>
      <trkpt lat="43.037505" lon="-0.42396">
        <ele>445.0</ele>
        <time>2019-07-07T13:37:39.705Z</time>
      </trkpt>
      <trkpt lat="43.037505" lon="-0.42396">
        <ele>445.0</ele>
        <time>2019-07-07T13:37:40.681Z</time>
      </trkpt>
      <trkpt lat="43.03764667" lon="-0.42404">
        <ele>444.0</ele>
        <time>2019-07-07T13:37:41.691Z</time>
      </trkpt>
      <trkpt lat="43.03771833" lon="-0.42408">
        <ele>444.0</ele>
        <time>2019-07-07T13:37:42.710Z</time>
      </trkpt>
      <trkpt lat="43.03771833" lon="-0.42408">
        <ele>444.0</ele>
        <time>2019-07-07T13:37:43.698Z</time>
      </trkpt>
      <trkpt lat="43.03771833" lon="-0.42408">
        <ele>444.0</ele>
        <time>2019-07-07T13:37:44.665Z</time>
      </trkpt>
      <trkpt lat="43.03795333" lon="-0.42419667">
        <ele>443.0</ele>
        <time>2019-07-07T13:37:45.696Z</time>
      </trkpt>
      <trkpt lat="43.03795333" lon="-0.42419667">
        <ele>443.0</ele>
        <time>2019-07-07T13:37:46.695Z</time>
      </trkpt>
      <trkpt lat="43.03811" lon="-0.42427333">
        <ele>443.0</ele>
        <time>2019-07-07T13:37:47.703Z</time>
      </trkpt>
      <trkpt lat="43.03811" lon="-0.42427333">
        <ele>443.0</ele>
        <time>2019-07-07T13:37:48.668Z</time>
      </trkpt>
      <trkpt lat="43.03818833" lon="-0.42431167">
        <ele>443.0</ele>
        <time>2019-07-07T13:37:49.686Z</time>
      </trkpt>
      <trkpt lat="43.03834833" lon="-0.42438833">
        <ele>443.0</ele>
        <time>2019-07-07T13:37:50.693Z</time>
      </trkpt>
      <trkpt lat="43.03834833" lon="-0.42438833">
        <ele>443.0</ele>
        <time>2019-07-07T13:37:51.668Z</time>
      </trkpt>
      <trkpt lat="43.03851" lon="-0.42446667">
        <ele>443.0</ele>
        <time>2019-07-07T13:37:52.689Z</time>
      </trkpt>
      <trkpt lat="43.03851" lon="-0.42446667">
        <ele>443.0</ele>
        <time>2019-07-07T13:37:53.668Z</time>
      </trkpt>
      <trkpt lat="43.03859167" lon="-0.42450667">
        <ele>442.0</ele>
        <time>2019-07-07T13:37:54.688Z</time>
      </trkpt>
      <trkpt lat="43.038755" lon="-0.42458833">
        <ele>442.0</ele>
        <time>2019-07-07T13:37:55.694Z</time>
      </trkpt>
      <trkpt lat="43.038755" lon="-0.42458833">
        <ele>442.0</ele>
        <time>2019-07-07T13:37:56.676Z</time>
      </trkpt>
      <trkpt lat="43.03892333" lon="-0.42466667">
        <ele>442.0</ele>
        <time>2019-07-07T13:37:57.684Z</time>
      </trkpt>
      <trkpt lat="43.03892333" lon="-0.42466667">
        <ele>442.0</ele>
        <time>2019-07-07T13:37:58.666Z</time>
      </trkpt>
      <trkpt lat="43.039095" lon="-0.42473667">
        <ele>441.0</ele>
        <time>2019-07-07T13:37:59.689Z</time>
      </trkpt>
      <trkpt lat="43.039095" lon="-0.42473667">
        <ele>441.0</ele>
        <time>2019-07-07T13:38:00.670Z</time>
      </trkpt>
      <trkpt lat="43.039095" lon="-0.42473667">
        <ele>441.0</ele>
        <time>2019-07-07T13:38:01.669Z</time>
      </trkpt>
      <trkpt lat="43.03926667" lon="-0.42479667">
        <ele>441.0</ele>
        <time>2019-07-07T13:38:02.692Z</time>
      </trkpt>
      <trkpt lat="43.03944167" lon="-0.42485333">
        <ele>440.0</ele>
        <time>2019-07-07T13:38:03.704Z</time>
      </trkpt>
      <trkpt lat="43.03944167" lon="-0.42485333">
        <ele>440.0</ele>
        <time>2019-07-07T13:38:04.687Z</time>
      </trkpt>
      <trkpt lat="43.03962" lon="-0.42490833">
        <ele>440.0</ele>
        <time>2019-07-07T13:38:05.701Z</time>
      </trkpt>
      <trkpt lat="43.03962" lon="-0.42490833">
        <ele>440.0</ele>
        <time>2019-07-07T13:38:06.677Z</time>
      </trkpt>
      <trkpt lat="43.0398" lon="-0.42496667">
        <ele>439.0</ele>
        <time>2019-07-07T13:38:07.698Z</time>
      </trkpt>
      <trkpt lat="43.0398" lon="-0.42496667">
        <ele>439.0</ele>
        <time>2019-07-07T13:38:08.693Z</time>
      </trkpt>
      <trkpt lat="43.03997833" lon="-0.42502833">
        <ele>439.0</ele>
        <time>2019-07-07T13:38:09.700Z</time>
      </trkpt>
      <trkpt lat="43.03997833" lon="-0.42502833">
        <ele>439.0</ele>
        <time>2019-07-07T13:38:10.686Z</time>
      </trkpt>
      <trkpt lat="43.03997833" lon="-0.42502833">
        <ele>439.0</ele>
        <time>2019-07-07T13:38:11.668Z</time>
      </trkpt>
      <trkpt lat="43.040155" lon="-0.425085">
        <ele>439.0</ele>
        <time>2019-07-07T13:38:12.691Z</time>
      </trkpt>
      <trkpt lat="43.04033" lon="-0.42514">
        <ele>439.0</ele>
        <time>2019-07-07T13:38:13.700Z</time>
      </trkpt>
      <trkpt lat="43.04041833" lon="-0.42516667">
        <ele>439.0</ele>
        <time>2019-07-07T13:38:14.697Z</time>
      </trkpt>
      <trkpt lat="43.04041833" lon="-0.42516667">
        <ele>439.0</ele>
        <time>2019-07-07T13:38:15.677Z</time>
      </trkpt>
      <trkpt lat="43.04059333" lon="-0.42522333">
        <ele>438.0</ele>
        <time>2019-07-07T13:38:16.686Z</time>
      </trkpt>
      <trkpt lat="43.04059333" lon="-0.42522333">
        <ele>438.0</ele>
        <time>2019-07-07T13:38:17.704Z</time>
      </trkpt>
      <trkpt lat="43.04077" lon="-0.42528">
        <ele>438.0</ele>
        <time>2019-07-07T13:38:18.671Z</time>
      </trkpt>
      <trkpt lat="43.04077" lon="-0.42528">
        <ele>438.0</ele>
        <time>2019-07-07T13:38:19.698Z</time>
      </trkpt>
      <trkpt lat="43.04077" lon="-0.42528">
        <ele>438.0</ele>
        <time>2019-07-07T13:38:20.665Z</time>
      </trkpt>
      <trkpt lat="43.04095" lon="-0.425335">
        <ele>438.0</ele>
        <time>2019-07-07T13:38:21.686Z</time>
      </trkpt>
      <trkpt lat="43.041125" lon="-0.42539167">
        <ele>437.0</ele>
        <time>2019-07-07T13:38:22.699Z</time>
      </trkpt>
      <trkpt lat="43.04121333" lon="-0.42542">
        <ele>437.0</ele>
        <time>2019-07-07T13:38:23.702Z</time>
      </trkpt>
      <trkpt lat="43.04121333" lon="-0.42542">
        <ele>437.0</ele>
        <time>2019-07-07T13:38:24.677Z</time>
      </trkpt>
      <trkpt lat="43.04139167" lon="-0.425475">
        <ele>437.0</ele>
        <time>2019-07-07T13:38:25.685Z</time>
      </trkpt>
      <trkpt lat="43.04148167" lon="-0.42550333">
        <ele>437.0</ele>
        <time>2019-07-07T13:38:26.699Z</time>
      </trkpt>
      <trkpt lat="43.04148167" lon="-0.42550333">
        <ele>437.0</ele>
        <time>2019-07-07T13:38:27.703Z</time>
      </trkpt>
      <trkpt lat="43.04166333" lon="-0.42556">
        <ele>436.0</ele>
        <time>2019-07-07T13:38:28.670Z</time>
      </trkpt>
      <trkpt lat="43.04166333" lon="-0.42556">
        <ele>436.0</ele>
        <time>2019-07-07T13:38:29.689Z</time>
      </trkpt>
      <trkpt lat="43.04166333" lon="-0.42556">
        <ele>436.0</ele>
        <time>2019-07-07T13:38:30.688Z</time>
      </trkpt>
      <trkpt lat="43.04184667" lon="-0.42561833">
        <ele>436.0</ele>
        <time>2019-07-07T13:38:31.688Z</time>
      </trkpt>
      <trkpt lat="43.04202667" lon="-0.42568">
        <ele>435.0</ele>
        <time>2019-07-07T13:38:32.700Z</time>
      </trkpt>
      <trkpt lat="43.042115" lon="-0.42571667">
        <ele>435.0</ele>
        <time>2019-07-07T13:38:33.690Z</time>
      </trkpt>
      <trkpt lat="43.042115" lon="-0.42571667">
        <ele>435.0</ele>
        <time>2019-07-07T13:38:34.688Z</time>
      </trkpt>
      <trkpt lat="43.04229167" lon="-0.42580333">
        <ele>435.0</ele>
        <time>2019-07-07T13:38:35.695Z</time>
      </trkpt>
      <trkpt lat="43.04229167" lon="-0.42580333">
        <ele>435.0</ele>
        <time>2019-07-07T13:38:36.698Z</time>
      </trkpt>
      <trkpt lat="43.042465" lon="-0.42589667">
        <ele>434.0</ele>
        <time>2019-07-07T13:38:37.705Z</time>
      </trkpt>
      <trkpt lat="43.04255167" lon="-0.42594333">
        <ele>434.0</ele>
        <time>2019-07-07T13:38:38.687Z</time>
      </trkpt>
      <trkpt lat="43.04255167" lon="-0.42594333">
        <ele>434.0</ele>
        <time>2019-07-07T13:38:39.665Z</time>
      </trkpt>
      <trkpt lat="43.04272333" lon="-0.42604">
        <ele>434.0</ele>
        <time>2019-07-07T13:38:40.671Z</time>
      </trkpt>
      <trkpt lat="43.04272333" lon="-0.42604">
        <ele>434.0</ele>
        <time>2019-07-07T13:38:41.684Z</time>
      </trkpt>
      <trkpt lat="43.04272333" lon="-0.42604">
        <ele>434.0</ele>
        <time>2019-07-07T13:38:42.687Z</time>
      </trkpt>
      <trkpt lat="43.0429" lon="-0.42613">
        <ele>433.0</ele>
        <time>2019-07-07T13:38:43.686Z</time>
      </trkpt>
      <trkpt lat="43.04307833" lon="-0.42622333">
        <ele>433.0</ele>
        <time>2019-07-07T13:38:44.702Z</time>
      </trkpt>
      <trkpt lat="43.04316833" lon="-0.42626667">
        <ele>433.0</ele>
        <time>2019-07-07T13:38:45.709Z</time>
      </trkpt>
      <trkpt lat="43.04316833" lon="-0.42626667">
        <ele>433.0</ele>
        <time>2019-07-07T13:38:46.699Z</time>
      </trkpt>
      <trkpt lat="43.04316833" lon="-0.42626667">
        <ele>433.0</ele>
        <time>2019-07-07T13:38:47.668Z</time>
      </trkpt>
      <trkpt lat="43.04343667" lon="-0.426415">
        <ele>432.0</ele>
        <time>2019-07-07T13:38:48.700Z</time>
      </trkpt>
      <trkpt lat="43.04343667" lon="-0.426415">
        <ele>432.0</ele>
        <time>2019-07-07T13:38:49.681Z</time>
      </trkpt>
      <trkpt lat="43.04361" lon="-0.42653667">
        <ele>432.0</ele>
        <time>2019-07-07T13:38:50.688Z</time>
      </trkpt>
      <trkpt lat="43.04369667" lon="-0.42660167">
        <ele>432.0</ele>
        <time>2019-07-07T13:38:51.707Z</time>
      </trkpt>
      <trkpt lat="43.04369667" lon="-0.42660167">
        <ele>432.0</ele>
        <time>2019-07-07T13:38:52.695Z</time>
      </trkpt>
      <trkpt lat="43.04387167" lon="-0.42673167">
        <ele>432.0</ele>
        <time>2019-07-07T13:38:53.701Z</time>
      </trkpt>
      <trkpt lat="43.04387167" lon="-0.42673167">
        <ele>432.0</ele>
        <time>2019-07-07T13:38:54.675Z</time>
      </trkpt>
      <trkpt lat="43.04404833" lon="-0.42686">
        <ele>431.0</ele>
        <time>2019-07-07T13:38:55.684Z</time>
      </trkpt>
      <trkpt lat="43.04413833" lon="-0.42692667">
        <ele>431.0</ele>
        <time>2019-07-07T13:38:56.666Z</time>
      </trkpt>
      <trkpt lat="43.04413833" lon="-0.42692667">
        <ele>431.0</ele>
        <time>2019-07-07T13:38:57.685Z</time>
      </trkpt>
      <trkpt lat="43.04431667" lon="-0.42705333">
        <ele>431.0</ele>
        <time>2019-07-07T13:38:58.698Z</time>
      </trkpt>
      <trkpt lat="43.04431667" lon="-0.42705333">
        <ele>431.0</ele>
        <time>2019-07-07T13:38:59.681Z</time>
      </trkpt>
      <trkpt lat="43.04449333" lon="-0.42718167">
        <ele>430.0</ele>
        <time>2019-07-07T13:39:00.688Z</time>
      </trkpt>
      <trkpt lat="43.04449333" lon="-0.42718167">
        <ele>430.0</ele>
        <time>2019-07-07T13:39:01.670Z</time>
      </trkpt>
      <trkpt lat="43.04466333" lon="-0.42730333">
        <ele>430.0</ele>
        <time>2019-07-07T13:39:02.676Z</time>
      </trkpt>
      <trkpt lat="43.04466333" lon="-0.42730333">
        <ele>430.0</ele>
        <time>2019-07-07T13:39:03.701Z</time>
      </trkpt>
      <trkpt lat="43.04466333" lon="-0.42730333">
        <ele>430.0</ele>
        <time>2019-07-07T13:39:04.667Z</time>
      </trkpt>
      <trkpt lat="43.04482667" lon="-0.42742167">
        <ele>430.0</ele>
        <time>2019-07-07T13:39:05.704Z</time>
      </trkpt>
      <trkpt lat="43.04482667" lon="-0.42742167">
        <ele>430.0</ele>
        <time>2019-07-07T13:39:06.670Z</time>
      </trkpt>
      <trkpt lat="43.04498833" lon="-0.42753167">
        <ele>430.0</ele>
        <time>2019-07-07T13:39:07.690Z</time>
      </trkpt>
      <trkpt lat="43.04513833" lon="-0.42764">
        <ele>430.0</ele>
        <time>2019-07-07T13:39:08.705Z</time>
      </trkpt>
      <trkpt lat="43.04521167" lon="-0.42769667">
        <ele>430.0</ele>
        <time>2019-07-07T13:39:09.814Z</time>
      </trkpt>
      <trkpt lat="43.04521167" lon="-0.42769667">
        <ele>430.0</ele>
        <time>2019-07-07T13:39:10.680Z</time>
      </trkpt>
      <trkpt lat="43.04535167" lon="-0.42781167">
        <ele>430.0</ele>
        <time>2019-07-07T13:39:11.690Z</time>
      </trkpt>
      <trkpt lat="43.04535167" lon="-0.42781167">
        <ele>430.0</ele>
        <time>2019-07-07T13:39:12.669Z</time>
      </trkpt>
      <trkpt lat="43.04548667" lon="-0.42793333">
        <ele>431.0</ele>
        <time>2019-07-07T13:39:13.686Z</time>
      </trkpt>
      <trkpt lat="43.04548667" lon="-0.42793333">
        <ele>431.0</ele>
        <time>2019-07-07T13:39:14.671Z</time>
      </trkpt>
      <trkpt lat="43.04548667" lon="-0.42793333">
        <ele>431.0</ele>
        <time>2019-07-07T13:39:15.671Z</time>
      </trkpt>
      <trkpt lat="43.04562333" lon="-0.42805333">
        <ele>430.0</ele>
        <time>2019-07-07T13:39:16.666Z</time>
      </trkpt>
      <trkpt lat="43.04575667" lon="-0.42817667">
        <ele>430.0</ele>
        <time>2019-07-07T13:39:17.679Z</time>
      </trkpt>
      <trkpt lat="43.045825" lon="-0.42823833">
        <ele>430.0</ele>
        <time>2019-07-07T13:39:18.700Z</time>
      </trkpt>
      <trkpt lat="43.045825" lon="-0.42823833">
        <ele>430.0</ele>
        <time>2019-07-07T13:39:19.681Z</time>
      </trkpt>
      <trkpt lat="43.04596167" lon="-0.428365">
        <ele>430.0</ele>
        <time>2019-07-07T13:39:20.701Z</time>
      </trkpt>
      <trkpt lat="43.04603" lon="-0.428425">
        <ele>430.0</ele>
        <time>2019-07-07T13:39:21.683Z</time>
      </trkpt>
      <trkpt lat="43.04603" lon="-0.428425">
        <ele>430.0</ele>
        <time>2019-07-07T13:39:22.698Z</time>
      </trkpt>
      <trkpt lat="43.04617" lon="-0.42854667">
        <ele>429.0</ele>
        <time>2019-07-07T13:39:23.674Z</time>
      </trkpt>
      <trkpt lat="43.04617" lon="-0.42854667">
        <ele>429.0</ele>
        <time>2019-07-07T13:39:24.698Z</time>
      </trkpt>
      <trkpt lat="43.04617" lon="-0.42854667">
        <ele>429.0</ele>
        <time>2019-07-07T13:39:25.668Z</time>
      </trkpt>
      <trkpt lat="43.04637667" lon="-0.42872833">
        <ele>429.0</ele>
        <time>2019-07-07T13:39:26.689Z</time>
      </trkpt>
      <trkpt lat="43.04637667" lon="-0.42872833">
        <ele>429.0</ele>
        <time>2019-07-07T13:39:27.668Z</time>
      </trkpt>
      <trkpt lat="43.04637667" lon="-0.42872833">
        <ele>429.0</ele>
        <time>2019-07-07T13:39:28.674Z</time>
      </trkpt>
      <trkpt lat="43.04651667" lon="-0.42884333">
        <ele>429.0</ele>
        <time>2019-07-07T13:39:29.689Z</time>
      </trkpt>
      <trkpt lat="43.04651667" lon="-0.42884333">
        <ele>429.0</ele>
        <time>2019-07-07T13:39:30.669Z</time>
      </trkpt>
      <trkpt lat="43.04666167" lon="-0.42894667">
        <ele>430.0</ele>
        <time>2019-07-07T13:39:31.689Z</time>
      </trkpt>
      <trkpt lat="43.04680833" lon="-0.42904333">
        <ele>430.0</ele>
        <time>2019-07-07T13:39:32.704Z</time>
      </trkpt>
      <trkpt lat="43.04680833" lon="-0.42904333">
        <ele>430.0</ele>
        <time>2019-07-07T13:39:33.676Z</time>
      </trkpt>
      <trkpt lat="43.04695833" lon="-0.42913">
        <ele>429.0</ele>
        <time>2019-07-07T13:39:34.683Z</time>
      </trkpt>
      <trkpt lat="43.04695833" lon="-0.42913">
        <ele>429.0</ele>
        <time>2019-07-07T13:39:35.669Z</time>
      </trkpt>
      <trkpt lat="43.047035" lon="-0.42917167">
        <ele>429.0</ele>
        <time>2019-07-07T13:39:36.685Z</time>
      </trkpt>
      <trkpt lat="43.04718833" lon="-0.42924667">
        <ele>429.0</ele>
        <time>2019-07-07T13:39:37.703Z</time>
      </trkpt>
      <trkpt lat="43.047265" lon="-0.429285">
        <ele>429.0</ele>
        <time>2019-07-07T13:39:38.667Z</time>
      </trkpt>
      <trkpt lat="43.04734" lon="-0.42932167">
        <ele>429.0</ele>
        <time>2019-07-07T13:39:39.703Z</time>
      </trkpt>
      <trkpt lat="43.04734" lon="-0.42932167">
        <ele>429.0</ele>
        <time>2019-07-07T13:39:40.687Z</time>
      </trkpt>
      <trkpt lat="43.04749333" lon="-0.42939333">
        <ele>429.0</ele>
        <time>2019-07-07T13:39:41.693Z</time>
      </trkpt>
      <trkpt lat="43.04749333" lon="-0.42939333">
        <ele>429.0</ele>
        <time>2019-07-07T13:39:42.674Z</time>
      </trkpt>
      <trkpt lat="43.04764667" lon="-0.429455">
        <ele>429.0</ele>
        <time>2019-07-07T13:39:43.690Z</time>
      </trkpt>
      <trkpt lat="43.04764667" lon="-0.429455">
        <ele>429.0</ele>
        <time>2019-07-07T13:39:44.665Z</time>
      </trkpt>
      <trkpt lat="43.04764667" lon="-0.429455">
        <ele>429.0</ele>
        <time>2019-07-07T13:39:45.720Z</time>
      </trkpt>
      <trkpt lat="43.04787833" lon="-0.42954">
        <ele>429.0</ele>
        <time>2019-07-07T13:39:46.686Z</time>
      </trkpt>
      <trkpt lat="43.04787833" lon="-0.42954">
        <ele>429.0</ele>
        <time>2019-07-07T13:39:47.666Z</time>
      </trkpt>
      <trkpt lat="43.04787833" lon="-0.42954">
        <ele>429.0</ele>
        <time>2019-07-07T13:39:48.679Z</time>
      </trkpt>
      <trkpt lat="43.048035" lon="-0.429595">
        <ele>429.0</ele>
        <time>2019-07-07T13:39:49.701Z</time>
      </trkpt>
      <trkpt lat="43.048035" lon="-0.429595">
        <ele>429.0</ele>
        <time>2019-07-07T13:39:50.668Z</time>
      </trkpt>
      <trkpt lat="43.04827167" lon="-0.42967167">
        <ele>429.0</ele>
        <time>2019-07-07T13:39:51.678Z</time>
      </trkpt>
      <trkpt lat="43.04827167" lon="-0.42967167">
        <ele>429.0</ele>
        <time>2019-07-07T13:39:52.699Z</time>
      </trkpt>
      <trkpt lat="43.04842833" lon="-0.42971667">
        <ele>430.0</ele>
        <time>2019-07-07T13:39:53.675Z</time>
      </trkpt>
      <trkpt lat="43.04850667" lon="-0.42973667">
        <ele>430.0</ele>
        <time>2019-07-07T13:39:54.703Z</time>
      </trkpt>
      <trkpt lat="43.04850667" lon="-0.42973667">
        <ele>430.0</ele>
        <time>2019-07-07T13:39:55.675Z</time>
      </trkpt>
      <trkpt lat="43.04866167" lon="-0.42976833">
        <ele>431.0</ele>
        <time>2019-07-07T13:39:56.680Z</time>
      </trkpt>
      <trkpt lat="43.04866167" lon="-0.42976833">
        <ele>431.0</ele>
        <time>2019-07-07T13:39:57.701Z</time>
      </trkpt>
      <trkpt lat="43.04866167" lon="-0.42976833">
        <ele>431.0</ele>
        <time>2019-07-07T13:39:58.666Z</time>
      </trkpt>
      <trkpt lat="43.04890167" lon="-0.42982333">
        <ele>431.0</ele>
        <time>2019-07-07T13:39:59.685Z</time>
      </trkpt>
      <trkpt lat="43.04890167" lon="-0.42982333">
        <ele>431.0</ele>
        <time>2019-07-07T13:40:00.679Z</time>
      </trkpt>
      <trkpt lat="43.04906333" lon="-0.42987">
        <ele>431.0</ele>
        <time>2019-07-07T13:40:01.685Z</time>
      </trkpt>
      <trkpt lat="43.04906333" lon="-0.42987">
        <ele>431.0</ele>
        <time>2019-07-07T13:40:02.666Z</time>
      </trkpt>
      <trkpt lat="43.04914667" lon="-0.42989167">
        <ele>430.0</ele>
        <time>2019-07-07T13:40:03.700Z</time>
      </trkpt>
      <trkpt lat="43.04914667" lon="-0.42989167">
        <ele>430.0</ele>
        <time>2019-07-07T13:40:04.668Z</time>
      </trkpt>
      <trkpt lat="43.04931167" lon="-0.42993833">
        <ele>431.0</ele>
        <time>2019-07-07T13:40:05.687Z</time>
      </trkpt>
      <trkpt lat="43.04931167" lon="-0.42993833">
        <ele>431.0</ele>
        <time>2019-07-07T13:40:06.671Z</time>
      </trkpt>
      <trkpt lat="43.04947667" lon="-0.42998">
        <ele>431.0</ele>
        <time>2019-07-07T13:40:07.675Z</time>
      </trkpt>
      <trkpt lat="43.04964167" lon="-0.43002333">
        <ele>431.0</ele>
        <time>2019-07-07T13:40:08.681Z</time>
      </trkpt>
      <trkpt lat="43.049725" lon="-0.430045">
        <ele>431.0</ele>
        <time>2019-07-07T13:40:09.701Z</time>
      </trkpt>
      <trkpt lat="43.049725" lon="-0.430045">
        <ele>431.0</ele>
        <time>2019-07-07T13:40:10.677Z</time>
      </trkpt>
      <trkpt lat="43.04988833" lon="-0.43009333">
        <ele>431.0</ele>
        <time>2019-07-07T13:40:11.682Z</time>
      </trkpt>
      <trkpt lat="43.04988833" lon="-0.43009333">
        <ele>431.0</ele>
        <time>2019-07-07T13:40:12.665Z</time>
      </trkpt>
      <trkpt lat="43.04996833" lon="-0.43011667">
        <ele>432.0</ele>
        <time>2019-07-07T13:40:13.699Z</time>
      </trkpt>
      <trkpt lat="43.04996833" lon="-0.43011667">
        <ele>432.0</ele>
        <time>2019-07-07T13:40:14.665Z</time>
      </trkpt>
      <trkpt lat="43.0502" lon="-0.43018">
        <ele>433.0</ele>
        <time>2019-07-07T13:40:15.697Z</time>
      </trkpt>
      <trkpt lat="43.0502" lon="-0.43018">
        <ele>433.0</ele>
        <time>2019-07-07T13:40:16.698Z</time>
      </trkpt>
      <trkpt lat="43.050345" lon="-0.43022167">
        <ele>433.0</ele>
        <time>2019-07-07T13:40:17.707Z</time>
      </trkpt>
      <trkpt lat="43.050345" lon="-0.43022167">
        <ele>433.0</ele>
        <time>2019-07-07T13:40:18.680Z</time>
      </trkpt>
      <trkpt lat="43.05047833" lon="-0.43026333">
        <ele>435.0</ele>
        <time>2019-07-07T13:40:19.687Z</time>
      </trkpt>
      <trkpt lat="43.05047833" lon="-0.43026333">
        <ele>435.0</ele>
        <time>2019-07-07T13:40:20.672Z</time>
      </trkpt>
      <trkpt lat="43.050545" lon="-0.43028333">
        <ele>436.0</ele>
        <time>2019-07-07T13:40:21.670Z</time>
      </trkpt>
      <trkpt lat="43.05067333" lon="-0.43032333">
        <ele>436.0</ele>
        <time>2019-07-07T13:40:22.678Z</time>
      </trkpt>
      <trkpt lat="43.05067333" lon="-0.43032333">
        <ele>436.0</ele>
        <time>2019-07-07T13:40:23.673Z</time>
      </trkpt>
      <trkpt lat="43.05073667" lon="-0.43034333">
        <ele>437.0</ele>
        <time>2019-07-07T13:40:24.700Z</time>
      </trkpt>
      <trkpt lat="43.05086667" lon="-0.430375">
        <ele>438.0</ele>
        <time>2019-07-07T13:40:25.681Z</time>
      </trkpt>
      <trkpt lat="43.05086667" lon="-0.430375">
        <ele>438.0</ele>
        <time>2019-07-07T13:40:26.701Z</time>
      </trkpt>
      <trkpt lat="43.050995" lon="-0.43040667">
        <ele>439.0</ele>
        <time>2019-07-07T13:40:27.668Z</time>
      </trkpt>
      <trkpt lat="43.050995" lon="-0.43040667">
        <ele>439.0</ele>
        <time>2019-07-07T13:40:28.702Z</time>
      </trkpt>
      <trkpt lat="43.05112167" lon="-0.43043833">
        <ele>439.0</ele>
        <time>2019-07-07T13:40:29.670Z</time>
      </trkpt>
      <trkpt lat="43.05112167" lon="-0.43043833">
        <ele>439.0</ele>
        <time>2019-07-07T13:40:30.665Z</time>
      </trkpt>
      <trkpt lat="43.05112167" lon="-0.43043833">
        <ele>439.0</ele>
        <time>2019-07-07T13:40:31.672Z</time>
      </trkpt>
      <trkpt lat="43.05124167" lon="-0.43047333">
        <ele>440.0</ele>
        <time>2019-07-07T13:40:32.675Z</time>
      </trkpt>
      <trkpt lat="43.05136333" lon="-0.43051">
        <ele>441.0</ele>
        <time>2019-07-07T13:40:33.685Z</time>
      </trkpt>
      <trkpt lat="43.05136333" lon="-0.43051">
        <ele>441.0</ele>
        <time>2019-07-07T13:40:34.678Z</time>
      </trkpt>
      <trkpt lat="43.051485" lon="-0.43054667">
        <ele>441.0</ele>
        <time>2019-07-07T13:40:35.684Z</time>
      </trkpt>
      <trkpt lat="43.051485" lon="-0.43054667">
        <ele>441.0</ele>
        <time>2019-07-07T13:40:36.672Z</time>
      </trkpt>
      <trkpt lat="43.05160667" lon="-0.430575">
        <ele>442.0</ele>
        <time>2019-07-07T13:40:37.680Z</time>
      </trkpt>
      <trkpt lat="43.05160667" lon="-0.430575">
        <ele>442.0</ele>
        <time>2019-07-07T13:40:38.699Z</time>
      </trkpt>
      <trkpt lat="43.05160667" lon="-0.430575">
        <ele>442.0</ele>
        <time>2019-07-07T13:40:39.665Z</time>
      </trkpt>
      <trkpt lat="43.051725" lon="-0.43061">
        <ele>442.0</ele>
        <time>2019-07-07T13:40:40.682Z</time>
      </trkpt>
      <trkpt lat="43.051725" lon="-0.43061">
        <ele>442.0</ele>
        <time>2019-07-07T13:40:41.672Z</time>
      </trkpt>
      <trkpt lat="43.05184667" lon="-0.430645">
        <ele>442.0</ele>
        <time>2019-07-07T13:40:42.697Z</time>
      </trkpt>
      <trkpt lat="43.05196667" lon="-0.430675">
        <ele>442.0</ele>
        <time>2019-07-07T13:40:43.707Z</time>
      </trkpt>
      <trkpt lat="43.05202667" lon="-0.43069">
        <ele>442.0</ele>
        <time>2019-07-07T13:40:44.701Z</time>
      </trkpt>
      <trkpt lat="43.052085" lon="-0.43070333">
        <ele>442.0</ele>
        <time>2019-07-07T13:40:45.687Z</time>
      </trkpt>
      <trkpt lat="43.052085" lon="-0.43070333">
        <ele>442.0</ele>
        <time>2019-07-07T13:40:46.665Z</time>
      </trkpt>
      <trkpt lat="43.05220833" lon="-0.430735">
        <ele>442.0</ele>
        <time>2019-07-07T13:40:47.672Z</time>
      </trkpt>
      <trkpt lat="43.05220833" lon="-0.430735">
        <ele>442.0</ele>
        <time>2019-07-07T13:40:48.688Z</time>
      </trkpt>
      <trkpt lat="43.05233333" lon="-0.43076333">
        <ele>442.0</ele>
        <time>2019-07-07T13:40:49.701Z</time>
      </trkpt>
      <trkpt lat="43.052395" lon="-0.43077667">
        <ele>442.0</ele>
        <time>2019-07-07T13:40:50.711Z</time>
      </trkpt>
      <trkpt lat="43.052395" lon="-0.43077667">
        <ele>442.0</ele>
        <time>2019-07-07T13:40:51.677Z</time>
      </trkpt>
      <trkpt lat="43.05251167" lon="-0.43081">
        <ele>443.0</ele>
        <time>2019-07-07T13:40:52.690Z</time>
      </trkpt>
      <trkpt lat="43.052575" lon="-0.43082167">
        <ele>443.0</ele>
        <time>2019-07-07T13:40:53.683Z</time>
      </trkpt>
      <trkpt lat="43.052575" lon="-0.43082167">
        <ele>443.0</ele>
        <time>2019-07-07T13:40:54.675Z</time>
      </trkpt>
      <trkpt lat="43.052695" lon="-0.43085333">
        <ele>443.0</ele>
        <time>2019-07-07T13:40:55.690Z</time>
      </trkpt>
      <trkpt lat="43.052695" lon="-0.43085333">
        <ele>443.0</ele>
        <time>2019-07-07T13:40:56.667Z</time>
      </trkpt>
      <trkpt lat="43.05275333" lon="-0.43086833">
        <ele>443.0</ele>
        <time>2019-07-07T13:40:57.700Z</time>
      </trkpt>
      <trkpt lat="43.05287" lon="-0.430905">
        <ele>443.0</ele>
        <time>2019-07-07T13:40:58.692Z</time>
      </trkpt>
      <trkpt lat="43.05287" lon="-0.430905">
        <ele>443.0</ele>
        <time>2019-07-07T13:40:59.681Z</time>
      </trkpt>
      <trkpt lat="43.052985" lon="-0.43093833">
        <ele>444.0</ele>
        <time>2019-07-07T13:41:00.688Z</time>
      </trkpt>
      <trkpt lat="43.052985" lon="-0.43093833">
        <ele>444.0</ele>
        <time>2019-07-07T13:41:01.673Z</time>
      </trkpt>
      <trkpt lat="43.05310167" lon="-0.43096">
        <ele>444.0</ele>
        <time>2019-07-07T13:41:02.679Z</time>
      </trkpt>
      <trkpt lat="43.05310167" lon="-0.43096">
        <ele>444.0</ele>
        <time>2019-07-07T13:41:03.701Z</time>
      </trkpt>
      <trkpt lat="43.05322667" lon="-0.43097833">
        <ele>445.0</ele>
        <time>2019-07-07T13:41:04.670Z</time>
      </trkpt>
      <trkpt lat="43.05322667" lon="-0.43097833">
        <ele>445.0</ele>
        <time>2019-07-07T13:41:05.701Z</time>
      </trkpt>
      <trkpt lat="43.053345" lon="-0.43099833">
        <ele>446.0</ele>
        <time>2019-07-07T13:41:06.673Z</time>
      </trkpt>
      <trkpt lat="43.05340333" lon="-0.43101167">
        <ele>446.0</ele>
        <time>2019-07-07T13:41:07.697Z</time>
      </trkpt>
      <trkpt lat="43.05340333" lon="-0.43101167">
        <ele>446.0</ele>
        <time>2019-07-07T13:41:08.690Z</time>
      </trkpt>
      <trkpt lat="43.05352167" lon="-0.43103167">
        <ele>447.0</ele>
        <time>2019-07-07T13:41:09.697Z</time>
      </trkpt>
      <trkpt lat="43.053585" lon="-0.43104333">
        <ele>447.0</ele>
        <time>2019-07-07T13:41:10.686Z</time>
      </trkpt>
      <trkpt lat="43.053585" lon="-0.43104333">
        <ele>447.0</ele>
        <time>2019-07-07T13:41:11.701Z</time>
      </trkpt>
      <trkpt lat="43.053585" lon="-0.43104333">
        <ele>447.0</ele>
        <time>2019-07-07T13:41:12.666Z</time>
      </trkpt>
      <trkpt lat="43.05377" lon="-0.43109667">
        <ele>449.0</ele>
        <time>2019-07-07T13:41:13.665Z</time>
      </trkpt>
      <trkpt lat="43.05377" lon="-0.43109667">
        <ele>449.0</ele>
        <time>2019-07-07T13:41:14.692Z</time>
      </trkpt>
      <trkpt lat="43.05377" lon="-0.43109667">
        <ele>449.0</ele>
        <time>2019-07-07T13:41:15.667Z</time>
      </trkpt>
      <trkpt lat="43.05389" lon="-0.43113">
        <ele>450.0</ele>
        <time>2019-07-07T13:41:16.680Z</time>
      </trkpt>
      <trkpt lat="43.054005" lon="-0.43116">
        <ele>451.0</ele>
        <time>2019-07-07T13:41:17.688Z</time>
      </trkpt>
      <trkpt lat="43.054005" lon="-0.43116">
        <ele>451.0</ele>
        <time>2019-07-07T13:41:18.701Z</time>
      </trkpt>
      <trkpt lat="43.054125" lon="-0.43119">
        <ele>452.0</ele>
        <time>2019-07-07T13:41:19.674Z</time>
      </trkpt>
      <trkpt lat="43.054125" lon="-0.43119">
        <ele>452.0</ele>
        <time>2019-07-07T13:41:20.702Z</time>
      </trkpt>
      <trkpt lat="43.054125" lon="-0.43119">
        <ele>452.0</ele>
        <time>2019-07-07T13:41:21.670Z</time>
      </trkpt>
      <trkpt lat="43.05425" lon="-0.431215">
        <ele>451.0</ele>
        <time>2019-07-07T13:41:22.688Z</time>
      </trkpt>
      <trkpt lat="43.05436833" lon="-0.43124167">
        <ele>451.0</ele>
        <time>2019-07-07T13:41:23.694Z</time>
      </trkpt>
      <trkpt lat="43.05436833" lon="-0.43124167">
        <ele>451.0</ele>
        <time>2019-07-07T13:41:24.704Z</time>
      </trkpt>
      <trkpt lat="43.05448333" lon="-0.43127833">
        <ele>453.0</ele>
        <time>2019-07-07T13:41:25.669Z</time>
      </trkpt>
      <trkpt lat="43.05448333" lon="-0.43127833">
        <ele>453.0</ele>
        <time>2019-07-07T13:41:26.679Z</time>
      </trkpt>
      <trkpt lat="43.0546" lon="-0.43130667">
        <ele>453.0</ele>
        <time>2019-07-07T13:41:27.685Z</time>
      </trkpt>
      <trkpt lat="43.0546" lon="-0.43130667">
        <ele>453.0</ele>
        <time>2019-07-07T13:41:28.668Z</time>
      </trkpt>
      <trkpt lat="43.0546" lon="-0.43130667">
        <ele>453.0</ele>
        <time>2019-07-07T13:41:29.672Z</time>
      </trkpt>
      <trkpt lat="43.05471667" lon="-0.43133833">
        <ele>454.0</ele>
        <time>2019-07-07T13:41:30.680Z</time>
      </trkpt>
      <trkpt lat="43.05471667" lon="-0.43133833">
        <ele>454.0</ele>
        <time>2019-07-07T13:41:31.669Z</time>
      </trkpt>
      <trkpt lat="43.05484" lon="-0.43136667">
        <ele>453.0</ele>
        <time>2019-07-07T13:41:32.673Z</time>
      </trkpt>
      <trkpt lat="43.0549" lon="-0.43137667">
        <ele>453.0</ele>
        <time>2019-07-07T13:41:33.667Z</time>
      </trkpt>
      <trkpt lat="43.0549" lon="-0.43137667">
        <ele>453.0</ele>
        <time>2019-07-07T13:41:34.668Z</time>
      </trkpt>
      <trkpt lat="43.05508333" lon="-0.43137833">
        <ele>453.0</ele>
        <time>2019-07-07T13:41:35.686Z</time>
      </trkpt>
      <trkpt lat="43.05508333" lon="-0.43137833">
        <ele>453.0</ele>
        <time>2019-07-07T13:41:36.702Z</time>
      </trkpt>
      <trkpt lat="43.05508333" lon="-0.43137833">
        <ele>453.0</ele>
        <time>2019-07-07T13:41:37.667Z</time>
      </trkpt>
      <trkpt lat="43.055205" lon="-0.43136">
        <ele>452.0</ele>
        <time>2019-07-07T13:41:38.672Z</time>
      </trkpt>
      <trkpt lat="43.05524667" lon="-0.43134833">
        <ele>453.0</ele>
        <time>2019-07-07T13:41:39.687Z</time>
      </trkpt>
      <trkpt lat="43.05524667" lon="-0.43134833">
        <ele>453.0</ele>
        <time>2019-07-07T13:41:40.673Z</time>
      </trkpt>
      <trkpt lat="43.05536333" lon="-0.43130333">
        <ele>453.0</ele>
        <time>2019-07-07T13:41:41.672Z</time>
      </trkpt>
      <trkpt lat="43.05542333" lon="-0.43127667">
        <ele>453.0</ele>
        <time>2019-07-07T13:41:42.668Z</time>
      </trkpt>
      <trkpt lat="43.05542333" lon="-0.43127667">
        <ele>453.0</ele>
        <time>2019-07-07T13:41:43.673Z</time>
      </trkpt>
      <trkpt lat="43.05555333" lon="-0.43123167">
        <ele>454.0</ele>
        <time>2019-07-07T13:41:44.678Z</time>
      </trkpt>
      <trkpt lat="43.05567" lon="-0.43117667">
        <ele>454.0</ele>
        <time>2019-07-07T13:41:45.701Z</time>
      </trkpt>
      <trkpt lat="43.05567" lon="-0.43117667">
        <ele>454.0</ele>
        <time>2019-07-07T13:41:46.666Z</time>
      </trkpt>
      <trkpt lat="43.05567" lon="-0.43117667">
        <ele>454.0</ele>
        <time>2019-07-07T13:41:47.710Z</time>
      </trkpt>
      <trkpt lat="43.05578833" lon="-0.43110833">
        <ele>454.0</ele>
        <time>2019-07-07T13:41:48.690Z</time>
      </trkpt>
      <trkpt lat="43.055905" lon="-0.431035">
        <ele>454.0</ele>
        <time>2019-07-07T13:41:49.671Z</time>
      </trkpt>
      <trkpt lat="43.055905" lon="-0.431035">
        <ele>454.0</ele>
        <time>2019-07-07T13:41:50.671Z</time>
      </trkpt>
      <trkpt lat="43.05596" lon="-0.43100333">
        <ele>454.0</ele>
        <time>2019-07-07T13:41:51.690Z</time>
      </trkpt>
      <trkpt lat="43.05608333" lon="-0.430935">
        <ele>454.0</ele>
        <time>2019-07-07T13:41:52.696Z</time>
      </trkpt>
      <trkpt lat="43.05614" lon="-0.430905">
        <ele>454.0</ele>
        <time>2019-07-07T13:41:53.706Z</time>
      </trkpt>
      <trkpt lat="43.05614" lon="-0.430905">
        <ele>454.0</ele>
        <time>2019-07-07T13:41:54.691Z</time>
      </trkpt>
      <trkpt lat="43.05627667" lon="-0.43084833">
        <ele>455.0</ele>
        <time>2019-07-07T13:41:55.704Z</time>
      </trkpt>
      <trkpt lat="43.05627667" lon="-0.43084833">
        <ele>455.0</ele>
        <time>2019-07-07T13:41:56.680Z</time>
      </trkpt>
      <trkpt lat="43.05641167" lon="-0.43077333">
        <ele>455.0</ele>
        <time>2019-07-07T13:41:57.705Z</time>
      </trkpt>
      <trkpt lat="43.05641167" lon="-0.43077333">
        <ele>455.0</ele>
        <time>2019-07-07T13:41:58.669Z</time>
      </trkpt>
      <trkpt lat="43.05641167" lon="-0.43077333">
        <ele>455.0</ele>
        <time>2019-07-07T13:41:59.674Z</time>
      </trkpt>
      <trkpt lat="43.05654333" lon="-0.43068333">
        <ele>456.0</ele>
        <time>2019-07-07T13:42:00.669Z</time>
      </trkpt>
      <trkpt lat="43.05667167" lon="-0.430605">
        <ele>454.0</ele>
        <time>2019-07-07T13:42:01.691Z</time>
      </trkpt>
      <trkpt lat="43.05673833" lon="-0.43055667">
        <ele>454.0</ele>
        <time>2019-07-07T13:42:02.702Z</time>
      </trkpt>
      <trkpt lat="43.05673833" lon="-0.43055667">
        <ele>454.0</ele>
        <time>2019-07-07T13:42:03.671Z</time>
      </trkpt>
      <trkpt lat="43.056805" lon="-0.430505">
        <ele>454.0</ele>
        <time>2019-07-07T13:42:04.685Z</time>
      </trkpt>
      <trkpt lat="43.05693833" lon="-0.43039167">
        <ele>453.0</ele>
        <time>2019-07-07T13:42:05.691Z</time>
      </trkpt>
      <trkpt lat="43.05693833" lon="-0.43039167">
        <ele>453.0</ele>
        <time>2019-07-07T13:42:06.680Z</time>
      </trkpt>
      <trkpt lat="43.05706667" lon="-0.43026833">
        <ele>452.0</ele>
        <time>2019-07-07T13:42:07.685Z</time>
      </trkpt>
      <trkpt lat="43.05706667" lon="-0.43026833">
        <ele>452.0</ele>
        <time>2019-07-07T13:42:08.671Z</time>
      </trkpt>
      <trkpt lat="43.05712833" lon="-0.43020833">
        <ele>452.0</ele>
        <time>2019-07-07T13:42:09.673Z</time>
      </trkpt>
      <trkpt lat="43.05718333" lon="-0.43015">
        <ele>452.0</ele>
        <time>2019-07-07T13:42:10.668Z</time>
      </trkpt>
      <trkpt lat="43.05718333" lon="-0.43015">
        <ele>452.0</ele>
        <time>2019-07-07T13:42:11.673Z</time>
      </trkpt>
      <trkpt lat="43.05730833" lon="-0.430035">
        <ele>451.0</ele>
        <time>2019-07-07T13:42:12.701Z</time>
      </trkpt>
      <trkpt lat="43.05730833" lon="-0.430035">
        <ele>451.0</ele>
        <time>2019-07-07T13:42:13.668Z</time>
      </trkpt>
      <trkpt lat="43.057485" lon="-0.42987">
        <ele>451.0</ele>
        <time>2019-07-07T13:42:14.705Z</time>
      </trkpt>
      <trkpt lat="43.057485" lon="-0.42987">
        <ele>451.0</ele>
        <time>2019-07-07T13:42:15.669Z</time>
      </trkpt>
      <trkpt lat="43.057485" lon="-0.42987">
        <ele>451.0</ele>
        <time>2019-07-07T13:42:16.672Z</time>
      </trkpt>
      <trkpt lat="43.05758833" lon="-0.42978333">
        <ele>450.0</ele>
        <time>2019-07-07T13:42:17.688Z</time>
      </trkpt>
      <trkpt lat="43.05768667" lon="-0.42975833">
        <ele>450.0</ele>
        <time>2019-07-07T13:42:18.699Z</time>
      </trkpt>
      <trkpt lat="43.05768667" lon="-0.42975833">
        <ele>450.0</ele>
        <time>2019-07-07T13:42:19.666Z</time>
      </trkpt>
      <trkpt lat="43.05776333" lon="-0.42984667">
        <ele>449.0</ele>
        <time>2019-07-07T13:42:20.743Z</time>
      </trkpt>
      <trkpt lat="43.05776333" lon="-0.42984667">
        <ele>449.0</ele>
        <time>2019-07-07T13:42:21.674Z</time>
      </trkpt>
      <trkpt lat="43.05778333" lon="-0.429915">
        <ele>449.0</ele>
        <time>2019-07-07T13:42:22.670Z</time>
      </trkpt>
      <trkpt lat="43.05778333" lon="-0.429915">
        <ele>449.0</ele>
        <time>2019-07-07T13:42:23.673Z</time>
      </trkpt>
      <trkpt lat="43.05782" lon="-0.430055">
        <ele>449.0</ele>
        <time>2019-07-07T13:42:24.671Z</time>
      </trkpt>
      <trkpt lat="43.057875" lon="-0.43018833">
        <ele>449.0</ele>
        <time>2019-07-07T13:42:25.679Z</time>
      </trkpt>
      <trkpt lat="43.057875" lon="-0.43018833">
        <ele>449.0</ele>
        <time>2019-07-07T13:42:26.665Z</time>
      </trkpt>
      <trkpt lat="43.057905" lon="-0.43025333">
        <ele>449.0</ele>
        <time>2019-07-07T13:42:27.674Z</time>
      </trkpt>
      <trkpt lat="43.05793167" lon="-0.43031667">
        <ele>449.0</ele>
        <time>2019-07-07T13:42:28.686Z</time>
      </trkpt>
      <trkpt lat="43.05798" lon="-0.43044667">
        <ele>450.0</ele>
        <time>2019-07-07T13:42:29.700Z</time>
      </trkpt>
      <trkpt lat="43.05798" lon="-0.43044667">
        <ele>450.0</ele>
        <time>2019-07-07T13:42:30.688Z</time>
      </trkpt>
      <trkpt lat="43.05800167" lon="-0.43051333">
        <ele>450.0</ele>
        <time>2019-07-07T13:42:31.668Z</time>
      </trkpt>
      <trkpt lat="43.05800167" lon="-0.43051333">
        <ele>450.0</ele>
        <time>2019-07-07T13:42:32.673Z</time>
      </trkpt>
      <trkpt lat="43.05803" lon="-0.430655">
        <ele>450.0</ele>
        <time>2019-07-07T13:42:33.688Z</time>
      </trkpt>
      <trkpt lat="43.05805" lon="-0.4308">
        <ele>450.0</ele>
        <time>2019-07-07T13:42:34.671Z</time>
      </trkpt>
      <trkpt lat="43.05805" lon="-0.4308">
        <ele>450.0</ele>
        <time>2019-07-07T13:42:35.673Z</time>
      </trkpt>
      <trkpt lat="43.05805833" lon="-0.43087167">
        <ele>450.0</ele>
        <time>2019-07-07T13:42:36.701Z</time>
      </trkpt>
      <trkpt lat="43.05805833" lon="-0.43087167">
        <ele>450.0</ele>
        <time>2019-07-07T13:42:37.667Z</time>
      </trkpt>
      <trkpt lat="43.05807333" lon="-0.43101667">
        <ele>451.0</ele>
        <time>2019-07-07T13:42:38.684Z</time>
      </trkpt>
      <trkpt lat="43.05807333" lon="-0.43101667">
        <ele>451.0</ele>
        <time>2019-07-07T13:42:39.693Z</time>
      </trkpt>
      <trkpt lat="43.05808333" lon="-0.43116667">
        <ele>451.0</ele>
        <time>2019-07-07T13:42:40.701Z</time>
      </trkpt>
      <trkpt lat="43.05808333" lon="-0.43116667">
        <ele>451.0</ele>
        <time>2019-07-07T13:42:41.667Z</time>
      </trkpt>
      <trkpt lat="43.05809167" lon="-0.43131167">
        <ele>452.0</ele>
        <time>2019-07-07T13:42:42.681Z</time>
      </trkpt>
      <trkpt lat="43.05809167" lon="-0.43131167">
        <ele>452.0</ele>
        <time>2019-07-07T13:42:43.674Z</time>
      </trkpt>
      <trkpt lat="43.05810333" lon="-0.431455">
        <ele>452.0</ele>
        <time>2019-07-07T13:42:44.676Z</time>
      </trkpt>
      <trkpt lat="43.05810833" lon="-0.43159333">
        <ele>452.0</ele>
        <time>2019-07-07T13:42:45.693Z</time>
      </trkpt>
      <trkpt lat="43.05810833" lon="-0.43159333">
        <ele>452.0</ele>
        <time>2019-07-07T13:42:46.704Z</time>
      </trkpt>
      <trkpt lat="43.058115" lon="-0.43173">
        <ele>453.0</ele>
        <time>2019-07-07T13:42:47.669Z</time>
      </trkpt>
      <trkpt lat="43.058115" lon="-0.43173">
        <ele>453.0</ele>
        <time>2019-07-07T13:42:48.667Z</time>
      </trkpt>
      <trkpt lat="43.058115" lon="-0.43173">
        <ele>453.0</ele>
        <time>2019-07-07T13:42:49.675Z</time>
      </trkpt>
      <trkpt lat="43.05812333" lon="-0.43186667">
        <ele>453.0</ele>
        <time>2019-07-07T13:42:50.685Z</time>
      </trkpt>
      <trkpt lat="43.05813167" lon="-0.43200333">
        <ele>453.0</ele>
        <time>2019-07-07T13:42:51.691Z</time>
      </trkpt>
      <trkpt lat="43.05813167" lon="-0.43200333">
        <ele>453.0</ele>
        <time>2019-07-07T13:42:52.701Z</time>
      </trkpt>
      <trkpt lat="43.05813167" lon="-0.43200333">
        <ele>453.0</ele>
        <time>2019-07-07T13:42:53.676Z</time>
      </trkpt>
      <trkpt lat="43.05813667" lon="-0.43214167">
        <ele>454.0</ele>
        <time>2019-07-07T13:42:54.693Z</time>
      </trkpt>
      <trkpt lat="43.05813667" lon="-0.43214167">
        <ele>454.0</ele>
        <time>2019-07-07T13:42:55.674Z</time>
      </trkpt>
      <trkpt lat="43.05814667" lon="-0.43228">
        <ele>454.0</ele>
        <time>2019-07-07T13:42:56.698Z</time>
      </trkpt>
      <trkpt lat="43.05814667" lon="-0.43228">
        <ele>454.0</ele>
        <time>2019-07-07T13:42:57.679Z</time>
      </trkpt>
      <trkpt lat="43.05815333" lon="-0.43241667">
        <ele>455.0</ele>
        <time>2019-07-07T13:42:58.692Z</time>
      </trkpt>
      <trkpt lat="43.058155" lon="-0.432555">
        <ele>455.0</ele>
        <time>2019-07-07T13:42:59.697Z</time>
      </trkpt>
      <trkpt lat="43.05815667" lon="-0.43262333">
        <ele>455.0</ele>
        <time>2019-07-07T13:43:00.699Z</time>
      </trkpt>
      <trkpt lat="43.05815667" lon="-0.43262333">
        <ele>455.0</ele>
        <time>2019-07-07T13:43:01.685Z</time>
      </trkpt>
      <trkpt lat="43.05815667" lon="-0.43276167">
        <ele>455.0</ele>
        <time>2019-07-07T13:43:02.691Z</time>
      </trkpt>
      <trkpt lat="43.05815667" lon="-0.43276167">
        <ele>455.0</ele>
        <time>2019-07-07T13:43:03.670Z</time>
      </trkpt>
      <trkpt lat="43.05815667" lon="-0.43276167">
        <ele>455.0</ele>
        <time>2019-07-07T13:43:04.672Z</time>
      </trkpt>
      <trkpt lat="43.058155" lon="-0.4329">
        <ele>456.0</ele>
        <time>2019-07-07T13:43:05.669Z</time>
      </trkpt>
      <trkpt lat="43.058155" lon="-0.4329">
        <ele>456.0</ele>
        <time>2019-07-07T13:43:06.674Z</time>
      </trkpt>
      <trkpt lat="43.05814833" lon="-0.43303667">
        <ele>456.0</ele>
        <time>2019-07-07T13:43:07.682Z</time>
      </trkpt>
      <trkpt lat="43.05814833" lon="-0.43303667">
        <ele>456.0</ele>
        <time>2019-07-07T13:43:08.672Z</time>
      </trkpt>
      <trkpt lat="43.05814" lon="-0.43324">
        <ele>456.0</ele>
        <time>2019-07-07T13:43:09.696Z</time>
      </trkpt>
      <trkpt lat="43.05814" lon="-0.43324">
        <ele>456.0</ele>
        <time>2019-07-07T13:43:10.670Z</time>
      </trkpt>
      <trkpt lat="43.05813333" lon="-0.43337333">
        <ele>457.0</ele>
        <time>2019-07-07T13:43:11.693Z</time>
      </trkpt>
      <trkpt lat="43.05813333" lon="-0.43337333">
        <ele>457.0</ele>
        <time>2019-07-07T13:43:12.703Z</time>
      </trkpt>
      <trkpt lat="43.05813333" lon="-0.43337333">
        <ele>457.0</ele>
        <time>2019-07-07T13:43:13.670Z</time>
      </trkpt>
      <trkpt lat="43.05812333" lon="-0.43350333">
        <ele>457.0</ele>
        <time>2019-07-07T13:43:14.672Z</time>
      </trkpt>
      <trkpt lat="43.05811833" lon="-0.43356667">
        <ele>457.0</ele>
        <time>2019-07-07T13:43:15.688Z</time>
      </trkpt>
      <trkpt lat="43.05810667" lon="-0.43369667">
        <ele>457.0</ele>
        <time>2019-07-07T13:43:16.694Z</time>
      </trkpt>
      <trkpt lat="43.05810667" lon="-0.43369667">
        <ele>457.0</ele>
        <time>2019-07-07T13:43:17.671Z</time>
      </trkpt>
      <trkpt lat="43.05810667" lon="-0.43369667">
        <ele>457.0</ele>
        <time>2019-07-07T13:43:18.676Z</time>
      </trkpt>
      <trkpt lat="43.05810167" lon="-0.433825">
        <ele>458.0</ele>
        <time>2019-07-07T13:43:19.669Z</time>
      </trkpt>
      <trkpt lat="43.05809" lon="-0.43395167">
        <ele>458.0</ele>
        <time>2019-07-07T13:43:20.679Z</time>
      </trkpt>
      <trkpt lat="43.05809" lon="-0.43395167">
        <ele>458.0</ele>
        <time>2019-07-07T13:43:21.727Z</time>
      </trkpt>
      <trkpt lat="43.05808333" lon="-0.434015">
        <ele>458.0</ele>
        <time>2019-07-07T13:43:22.680Z</time>
      </trkpt>
      <trkpt lat="43.05807667" lon="-0.43413667">
        <ele>459.0</ele>
        <time>2019-07-07T13:43:23.686Z</time>
      </trkpt>
      <trkpt lat="43.05807667" lon="-0.43413667">
        <ele>459.0</ele>
        <time>2019-07-07T13:43:24.671Z</time>
      </trkpt>
      <trkpt lat="43.05807167" lon="-0.4342">
        <ele>459.0</ele>
        <time>2019-07-07T13:43:25.701Z</time>
      </trkpt>
      <trkpt lat="43.05806167" lon="-0.434325">
        <ele>459.0</ele>
        <time>2019-07-07T13:43:26.667Z</time>
      </trkpt>
      <trkpt lat="43.058055" lon="-0.43438667">
        <ele>460.0</ele>
        <time>2019-07-07T13:43:27.703Z</time>
      </trkpt>
      <trkpt lat="43.058055" lon="-0.43438667">
        <ele>460.0</ele>
        <time>2019-07-07T13:43:28.669Z</time>
      </trkpt>
      <trkpt lat="43.058055" lon="-0.43438667">
        <ele>460.0</ele>
        <time>2019-07-07T13:43:29.675Z</time>
      </trkpt>
      <trkpt lat="43.05804833" lon="-0.434515">
        <ele>460.0</ele>
        <time>2019-07-07T13:43:30.670Z</time>
      </trkpt>
      <trkpt lat="43.05804833" lon="-0.434515">
        <ele>460.0</ele>
        <time>2019-07-07T13:43:31.691Z</time>
      </trkpt>
      <trkpt lat="43.05804" lon="-0.43464167">
        <ele>460.0</ele>
        <time>2019-07-07T13:43:32.669Z</time>
      </trkpt>
      <trkpt lat="43.05804" lon="-0.43464167">
        <ele>460.0</ele>
        <time>2019-07-07T13:43:33.675Z</time>
      </trkpt>
      <trkpt lat="43.05802667" lon="-0.43477">
        <ele>461.0</ele>
        <time>2019-07-07T13:43:34.688Z</time>
      </trkpt>
      <trkpt lat="43.05800833" lon="-0.43488833">
        <ele>461.0</ele>
        <time>2019-07-07T13:43:35.694Z</time>
      </trkpt>
      <trkpt lat="43.05800833" lon="-0.43488833">
        <ele>461.0</ele>
        <time>2019-07-07T13:43:36.668Z</time>
      </trkpt>
      <trkpt lat="43.05800833" lon="-0.43488833">
        <ele>461.0</ele>
        <time>2019-07-07T13:43:37.674Z</time>
      </trkpt>
      <trkpt lat="43.05799333" lon="-0.43500167">
        <ele>462.0</ele>
        <time>2019-07-07T13:43:38.686Z</time>
      </trkpt>
      <trkpt lat="43.05799333" lon="-0.43500167">
        <ele>462.0</ele>
        <time>2019-07-07T13:43:39.674Z</time>
      </trkpt>
      <trkpt lat="43.05797333" lon="-0.43511">
        <ele>462.0</ele>
        <time>2019-07-07T13:43:40.669Z</time>
      </trkpt>
      <trkpt lat="43.05797333" lon="-0.43511">
        <ele>462.0</ele>
        <time>2019-07-07T13:43:41.675Z</time>
      </trkpt>
      <trkpt lat="43.05794667" lon="-0.43520667">
        <ele>463.0</ele>
        <time>2019-07-07T13:43:42.687Z</time>
      </trkpt>
      <trkpt lat="43.05792333" lon="-0.43529833">
        <ele>464.0</ele>
        <time>2019-07-07T13:43:43.693Z</time>
      </trkpt>
      <trkpt lat="43.05792333" lon="-0.43529833">
        <ele>464.0</ele>
        <time>2019-07-07T13:43:44.675Z</time>
      </trkpt>
      <trkpt lat="43.05790667" lon="-0.43533833">
        <ele>464.0</ele>
        <time>2019-07-07T13:43:45.681Z</time>
      </trkpt>
      <trkpt lat="43.05787667" lon="-0.43541833">
        <ele>465.0</ele>
        <time>2019-07-07T13:43:46.689Z</time>
      </trkpt>
      <trkpt lat="43.05787667" lon="-0.43541833">
        <ele>465.0</ele>
        <time>2019-07-07T13:43:47.668Z</time>
      </trkpt>
      <trkpt lat="43.05787667" lon="-0.43541833">
        <ele>465.0</ele>
        <time>2019-07-07T13:43:48.691Z</time>
      </trkpt>
      <trkpt lat="43.05784833" lon="-0.4355">
        <ele>465.0</ele>
        <time>2019-07-07T13:43:49.690Z</time>
      </trkpt>
      <trkpt lat="43.05781333" lon="-0.43558">
        <ele>467.0</ele>
        <time>2019-07-07T13:43:50.700Z</time>
      </trkpt>
      <trkpt lat="43.05781333" lon="-0.43558">
        <ele>467.0</ele>
        <time>2019-07-07T13:43:51.681Z</time>
      </trkpt>
      <trkpt lat="43.05779667" lon="-0.43561667">
        <ele>467.0</ele>
        <time>2019-07-07T13:43:52.680Z</time>
      </trkpt>
      <trkpt lat="43.05779667" lon="-0.43561667">
        <ele>467.0</ele>
        <time>2019-07-07T13:43:53.677Z</time>
      </trkpt>
      <trkpt lat="43.05776333" lon="-0.435695">
        <ele>468.0</ele>
        <time>2019-07-07T13:43:54.691Z</time>
      </trkpt>
      <trkpt lat="43.05773167" lon="-0.43577667">
        <ele>469.0</ele>
        <time>2019-07-07T13:43:55.701Z</time>
      </trkpt>
      <trkpt lat="43.05773167" lon="-0.43577667">
        <ele>469.0</ele>
        <time>2019-07-07T13:43:56.701Z</time>
      </trkpt>
      <trkpt lat="43.057705" lon="-0.43585">
        <ele>470.0</ele>
        <time>2019-07-07T13:43:57.710Z</time>
      </trkpt>
      <trkpt lat="43.057705" lon="-0.43585">
        <ele>470.0</ele>
        <time>2019-07-07T13:43:58.670Z</time>
      </trkpt>
      <trkpt lat="43.05767333" lon="-0.435925">
        <ele>471.0</ele>
        <time>2019-07-07T13:43:59.679Z</time>
      </trkpt>
      <trkpt lat="43.05767333" lon="-0.435925">
        <ele>471.0</ele>
        <time>2019-07-07T13:44:00.699Z</time>
      </trkpt>
      <trkpt lat="43.05767333" lon="-0.435925">
        <ele>471.0</ele>
        <time>2019-07-07T13:44:01.675Z</time>
      </trkpt>
      <trkpt lat="43.05763833" lon="-0.43599833">
        <ele>472.0</ele>
        <time>2019-07-07T13:44:02.672Z</time>
      </trkpt>
      <trkpt lat="43.057605" lon="-0.43608167">
        <ele>472.0</ele>
        <time>2019-07-07T13:44:03.679Z</time>
      </trkpt>
      <trkpt lat="43.057605" lon="-0.43608167">
        <ele>472.0</ele>
        <time>2019-07-07T13:44:04.676Z</time>
      </trkpt>
      <trkpt lat="43.05758833" lon="-0.43612">
        <ele>472.0</ele>
        <time>2019-07-07T13:44:05.676Z</time>
      </trkpt>
      <trkpt lat="43.05758833" lon="-0.43612">
        <ele>472.0</ele>
        <time>2019-07-07T13:44:06.674Z</time>
      </trkpt>
      <trkpt lat="43.05754333" lon="-0.43625333">
        <ele>472.0</ele>
        <time>2019-07-07T13:44:07.708Z</time>
      </trkpt>
      <trkpt lat="43.05754333" lon="-0.43625333">
        <ele>472.0</ele>
        <time>2019-07-07T13:44:08.671Z</time>
      </trkpt>
      <trkpt lat="43.05751333" lon="-0.43633167">
        <ele>472.0</ele>
        <time>2019-07-07T13:44:09.679Z</time>
      </trkpt>
      <trkpt lat="43.05751333" lon="-0.43633167">
        <ele>472.0</ele>
        <time>2019-07-07T13:44:10.669Z</time>
      </trkpt>
      <trkpt lat="43.05751333" lon="-0.43633167">
        <ele>472.0</ele>
        <time>2019-07-07T13:44:11.674Z</time>
      </trkpt>
      <trkpt lat="43.05749" lon="-0.43641">
        <ele>473.0</ele>
        <time>2019-07-07T13:44:12.691Z</time>
      </trkpt>
      <trkpt lat="43.05746667" lon="-0.43649">
        <ele>474.0</ele>
        <time>2019-07-07T13:44:13.704Z</time>
      </trkpt>
      <trkpt lat="43.05745" lon="-0.43652">
        <ele>474.0</ele>
        <time>2019-07-07T13:44:14.743Z</time>
      </trkpt>
      <trkpt lat="43.05745" lon="-0.43652">
        <ele>474.0</ele>
        <time>2019-07-07T13:44:15.671Z</time>
      </trkpt>
      <trkpt lat="43.05745" lon="-0.43652">
        <ele>474.0</ele>
        <time>2019-07-07T13:44:16.666Z</time>
      </trkpt>
      <trkpt lat="43.05741333" lon="-0.436585">
        <ele>475.0</ele>
        <time>2019-07-07T13:44:17.675Z</time>
      </trkpt>
      <trkpt lat="43.05739833" lon="-0.43662">
        <ele>475.0</ele>
        <time>2019-07-07T13:44:18.680Z</time>
      </trkpt>
      <trkpt lat="43.05739833" lon="-0.43662">
        <ele>475.0</ele>
        <time>2019-07-07T13:44:19.672Z</time>
      </trkpt>
      <trkpt lat="43.05737167" lon="-0.436695">
        <ele>476.0</ele>
        <time>2019-07-07T13:44:20.703Z</time>
      </trkpt>
      <trkpt lat="43.05734167" lon="-0.436755">
        <ele>477.0</ele>
        <time>2019-07-07T13:44:21.672Z</time>
      </trkpt>
      <trkpt lat="43.05734167" lon="-0.436755">
        <ele>477.0</ele>
        <time>2019-07-07T13:44:22.670Z</time>
      </trkpt>
      <trkpt lat="43.05734167" lon="-0.436755">
        <ele>477.0</ele>
        <time>2019-07-07T13:44:23.677Z</time>
      </trkpt>
      <trkpt lat="43.05731667" lon="-0.43681833">
        <ele>478.0</ele>
        <time>2019-07-07T13:44:24.702Z</time>
      </trkpt>
      <trkpt lat="43.05728667" lon="-0.436875">
        <ele>480.0</ele>
        <time>2019-07-07T13:44:25.669Z</time>
      </trkpt>
      <trkpt lat="43.05728667" lon="-0.436875">
        <ele>480.0</ele>
        <time>2019-07-07T13:44:26.680Z</time>
      </trkpt>
      <trkpt lat="43.05727" lon="-0.43694667">
        <ele>481.0</ele>
        <time>2019-07-07T13:44:27.709Z</time>
      </trkpt>
      <trkpt lat="43.05727" lon="-0.43694667">
        <ele>481.0</ele>
        <time>2019-07-07T13:44:28.680Z</time>
      </trkpt>
      <trkpt lat="43.05725833" lon="-0.43702">
        <ele>482.0</ele>
        <time>2019-07-07T13:44:29.686Z</time>
      </trkpt>
      <trkpt lat="43.05725833" lon="-0.43702">
        <ele>482.0</ele>
        <time>2019-07-07T13:44:30.688Z</time>
      </trkpt>
      <trkpt lat="43.057255" lon="-0.43706167">
        <ele>482.0</ele>
        <time>2019-07-07T13:44:31.696Z</time>
      </trkpt>
      <trkpt lat="43.05724333" lon="-0.437145">
        <ele>482.0</ele>
        <time>2019-07-07T13:44:32.704Z</time>
      </trkpt>
      <trkpt lat="43.05724333" lon="-0.437145">
        <ele>482.0</ele>
        <time>2019-07-07T13:44:33.679Z</time>
      </trkpt>
      <trkpt lat="43.05723833" lon="-0.43718833">
        <ele>483.0</ele>
        <time>2019-07-07T13:44:34.665Z</time>
      </trkpt>
      <trkpt lat="43.05722667" lon="-0.43727333">
        <ele>483.0</ele>
        <time>2019-07-07T13:44:35.699Z</time>
      </trkpt>
      <trkpt lat="43.05722333" lon="-0.437315">
        <ele>484.0</ele>
        <time>2019-07-07T13:44:36.706Z</time>
      </trkpt>
      <trkpt lat="43.05722333" lon="-0.437315">
        <ele>484.0</ele>
        <time>2019-07-07T13:44:37.701Z</time>
      </trkpt>
      <trkpt lat="43.05722333" lon="-0.437315">
        <ele>484.0</ele>
        <time>2019-07-07T13:44:38.672Z</time>
      </trkpt>
      <trkpt lat="43.05722333" lon="-0.43743167">
        <ele>484.0</ele>
        <time>2019-07-07T13:44:39.694Z</time>
      </trkpt>
      <trkpt lat="43.05722333" lon="-0.43743167">
        <ele>484.0</ele>
        <time>2019-07-07T13:44:40.675Z</time>
      </trkpt>
      <trkpt lat="43.05722833" lon="-0.43751">
        <ele>485.0</ele>
        <time>2019-07-07T13:44:41.689Z</time>
      </trkpt>
      <trkpt lat="43.05722833" lon="-0.43751">
        <ele>485.0</ele>
        <time>2019-07-07T13:44:42.676Z</time>
      </trkpt>
      <trkpt lat="43.05723333" lon="-0.43754667">
        <ele>485.0</ele>
        <time>2019-07-07T13:44:43.693Z</time>
      </trkpt>
      <trkpt lat="43.05724167" lon="-0.437625">
        <ele>486.0</ele>
        <time>2019-07-07T13:44:44.704Z</time>
      </trkpt>
      <trkpt lat="43.05724167" lon="-0.437625">
        <ele>486.0</ele>
        <time>2019-07-07T13:44:45.665Z</time>
      </trkpt>
      <trkpt lat="43.05724833" lon="-0.43766333">
        <ele>486.0</ele>
        <time>2019-07-07T13:44:46.671Z</time>
      </trkpt>
      <trkpt lat="43.05724833" lon="-0.43766333">
        <ele>486.0</ele>
        <time>2019-07-07T13:44:47.676Z</time>
      </trkpt>
      <trkpt lat="43.05726" lon="-0.43773833">
        <ele>487.0</ele>
        <time>2019-07-07T13:44:48.680Z</time>
      </trkpt>
      <trkpt lat="43.05726" lon="-0.43773833">
        <ele>487.0</ele>
        <time>2019-07-07T13:44:49.676Z</time>
      </trkpt>
      <trkpt lat="43.05727333" lon="-0.437815">
        <ele>488.0</ele>
        <time>2019-07-07T13:44:50.701Z</time>
      </trkpt>
      <trkpt lat="43.05727333" lon="-0.437815">
        <ele>488.0</ele>
        <time>2019-07-07T13:44:51.678Z</time>
      </trkpt>
      <trkpt lat="43.057285" lon="-0.43789">
        <ele>489.0</ele>
        <time>2019-07-07T13:44:52.665Z</time>
      </trkpt>
      <trkpt lat="43.057285" lon="-0.43789">
        <ele>489.0</ele>
        <time>2019-07-07T13:44:53.671Z</time>
      </trkpt>
      <trkpt lat="43.05729833" lon="-0.43796">
        <ele>489.0</ele>
        <time>2019-07-07T13:44:54.689Z</time>
      </trkpt>
      <trkpt lat="43.057305" lon="-0.43799333">
        <ele>490.0</ele>
        <time>2019-07-07T13:44:55.689Z</time>
      </trkpt>
      <trkpt lat="43.057305" lon="-0.43799333">
        <ele>490.0</ele>
        <time>2019-07-07T13:44:56.666Z</time>
      </trkpt>
      <trkpt lat="43.05732833" lon="-0.43808833">
        <ele>490.0</ele>
        <time>2019-07-07T13:44:57.679Z</time>
      </trkpt>
      <trkpt lat="43.05732833" lon="-0.43808833">
        <ele>490.0</ele>
        <time>2019-07-07T13:44:58.668Z</time>
      </trkpt>
      <trkpt lat="43.05733667" lon="-0.43815167">
        <ele>491.0</ele>
        <time>2019-07-07T13:44:59.690Z</time>
      </trkpt>
      <trkpt lat="43.05733667" lon="-0.43815167">
        <ele>491.0</ele>
        <time>2019-07-07T13:45:00.666Z</time>
      </trkpt>
      <trkpt lat="43.05734167" lon="-0.438185">
        <ele>491.0</ele>
        <time>2019-07-07T13:45:01.665Z</time>
      </trkpt>
      <trkpt lat="43.05734167" lon="-0.438185">
        <ele>491.0</ele>
        <time>2019-07-07T13:45:02.671Z</time>
      </trkpt>
      <trkpt lat="43.05735333" lon="-0.43827833">
        <ele>492.0</ele>
        <time>2019-07-07T13:45:03.743Z</time>
      </trkpt>
      <trkpt lat="43.05735333" lon="-0.43827833">
        <ele>492.0</ele>
        <time>2019-07-07T13:45:04.670Z</time>
      </trkpt>
      <trkpt lat="43.05736667" lon="-0.43834">
        <ele>493.0</ele>
        <time>2019-07-07T13:45:05.690Z</time>
      </trkpt>
      <trkpt lat="43.05736667" lon="-0.43834">
        <ele>493.0</ele>
        <time>2019-07-07T13:45:06.670Z</time>
      </trkpt>
      <trkpt lat="43.05737333" lon="-0.43837">
        <ele>493.0</ele>
        <time>2019-07-07T13:45:07.690Z</time>
      </trkpt>
      <trkpt lat="43.05737833" lon="-0.438435">
        <ele>493.0</ele>
        <time>2019-07-07T13:45:08.701Z</time>
      </trkpt>
      <trkpt lat="43.05738167" lon="-0.438465">
        <ele>493.0</ele>
        <time>2019-07-07T13:45:09.730Z</time>
      </trkpt>
      <trkpt lat="43.05738167" lon="-0.438465">
        <ele>493.0</ele>
        <time>2019-07-07T13:45:10.667Z</time>
      </trkpt>
      <trkpt lat="43.05739167" lon="-0.43852833">
        <ele>493.0</ele>
        <time>2019-07-07T13:45:11.673Z</time>
      </trkpt>
      <trkpt lat="43.05739167" lon="-0.43852833">
        <ele>493.0</ele>
        <time>2019-07-07T13:45:12.675Z</time>
      </trkpt>
      <trkpt lat="43.05739833" lon="-0.43855667">
        <ele>493.0</ele>
        <time>2019-07-07T13:45:13.681Z</time>
      </trkpt>
      <trkpt lat="43.057415" lon="-0.43860833">
        <ele>494.0</ele>
        <time>2019-07-07T13:45:14.688Z</time>
      </trkpt>
      <trkpt lat="43.057415" lon="-0.43860833">
        <ele>494.0</ele>
        <time>2019-07-07T13:45:15.666Z</time>
      </trkpt>
      <trkpt lat="43.057425" lon="-0.43863667">
        <ele>494.0</ele>
        <time>2019-07-07T13:45:16.670Z</time>
      </trkpt>
      <trkpt lat="43.05744167" lon="-0.43869167">
        <ele>494.0</ele>
        <time>2019-07-07T13:45:17.691Z</time>
      </trkpt>
      <trkpt lat="43.05744167" lon="-0.43869167">
        <ele>494.0</ele>
        <time>2019-07-07T13:45:18.677Z</time>
      </trkpt>
      <trkpt lat="43.05744833" lon="-0.43872">
        <ele>494.0</ele>
        <time>2019-07-07T13:45:19.668Z</time>
      </trkpt>
      <trkpt lat="43.05746167" lon="-0.43877167">
        <ele>495.0</ele>
        <time>2019-07-07T13:45:20.677Z</time>
      </trkpt>
      <trkpt lat="43.05746167" lon="-0.43877167">
        <ele>495.0</ele>
        <time>2019-07-07T13:45:21.667Z</time>
      </trkpt>
      <trkpt lat="43.05746167" lon="-0.43877167">
        <ele>495.0</ele>
        <time>2019-07-07T13:45:22.692Z</time>
      </trkpt>
      <trkpt lat="43.05747333" lon="-0.43883">
        <ele>495.0</ele>
        <time>2019-07-07T13:45:23.671Z</time>
      </trkpt>
      <trkpt lat="43.05748167" lon="-0.43889">
        <ele>495.0</ele>
        <time>2019-07-07T13:45:24.683Z</time>
      </trkpt>
      <trkpt lat="43.05748167" lon="-0.43889">
        <ele>495.0</ele>
        <time>2019-07-07T13:45:25.676Z</time>
      </trkpt>
      <trkpt lat="43.05748667" lon="-0.43892">
        <ele>495.0</ele>
        <time>2019-07-07T13:45:26.683Z</time>
      </trkpt>
      <trkpt lat="43.05749167" lon="-0.43897833">
        <ele>495.0</ele>
        <time>2019-07-07T13:45:27.699Z</time>
      </trkpt>
      <trkpt lat="43.057495" lon="-0.43900833">
        <ele>496.0</ele>
        <time>2019-07-07T13:45:28.777Z</time>
      </trkpt>
      <trkpt lat="43.057495" lon="-0.43900833">
        <ele>496.0</ele>
        <time>2019-07-07T13:45:29.671Z</time>
      </trkpt>
      <trkpt lat="43.05750167" lon="-0.439065">
        <ele>496.0</ele>
        <time>2019-07-07T13:45:30.678Z</time>
      </trkpt>
      <trkpt lat="43.05750167" lon="-0.439065">
        <ele>496.0</ele>
        <time>2019-07-07T13:45:31.697Z</time>
      </trkpt>
      <trkpt lat="43.05750167" lon="-0.439065">
        <ele>496.0</ele>
        <time>2019-07-07T13:45:32.675Z</time>
      </trkpt>
      <trkpt lat="43.05751167" lon="-0.43912167">
        <ele>496.0</ele>
        <time>2019-07-07T13:45:33.686Z</time>
      </trkpt>
      <trkpt lat="43.05751167" lon="-0.43912167">
        <ele>496.0</ele>
        <time>2019-07-07T13:45:34.666Z</time>
      </trkpt>
      <trkpt lat="43.05752" lon="-0.43920667">
        <ele>496.0</ele>
        <time>2019-07-07T13:45:35.681Z</time>
      </trkpt>
      <trkpt lat="43.05752" lon="-0.43920667">
        <ele>496.0</ele>
        <time>2019-07-07T13:45:36.674Z</time>
      </trkpt>
      <trkpt lat="43.05752" lon="-0.43920667">
        <ele>496.0</ele>
        <time>2019-07-07T13:45:37.673Z</time>
      </trkpt>
      <trkpt lat="43.05753" lon="-0.43926333">
        <ele>497.0</ele>
        <time>2019-07-07T13:45:38.670Z</time>
      </trkpt>
      <trkpt lat="43.05753667" lon="-0.43932">
        <ele>498.0</ele>
        <time>2019-07-07T13:45:39.690Z</time>
      </trkpt>
      <trkpt lat="43.05753667" lon="-0.43932">
        <ele>498.0</ele>
        <time>2019-07-07T13:45:40.673Z</time>
      </trkpt>
      <trkpt lat="43.05753667" lon="-0.43932">
        <ele>498.0</ele>
        <time>2019-07-07T13:45:41.684Z</time>
      </trkpt>
      <trkpt lat="43.05754" lon="-0.43937667">
        <ele>498.0</ele>
        <time>2019-07-07T13:45:42.667Z</time>
      </trkpt>
      <trkpt lat="43.05754" lon="-0.43937667">
        <ele>498.0</ele>
        <time>2019-07-07T13:45:43.674Z</time>
      </trkpt>
      <trkpt lat="43.05754667" lon="-0.43943167">
        <ele>499.0</ele>
        <time>2019-07-07T13:45:44.677Z</time>
      </trkpt>
      <trkpt lat="43.05755" lon="-0.43946">
        <ele>499.0</ele>
        <time>2019-07-07T13:45:45.690Z</time>
      </trkpt>
      <trkpt lat="43.05755" lon="-0.43946">
        <ele>499.0</ele>
        <time>2019-07-07T13:45:46.666Z</time>
      </trkpt>
      <trkpt lat="43.05756333" lon="-0.43951667">
        <ele>499.0</ele>
        <time>2019-07-07T13:45:47.686Z</time>
      </trkpt>
      <trkpt lat="43.057575" lon="-0.43957">
        <ele>500.0</ele>
        <time>2019-07-07T13:45:48.694Z</time>
      </trkpt>
      <trkpt lat="43.05758333" lon="-0.439595">
        <ele>500.0</ele>
        <time>2019-07-07T13:45:49.685Z</time>
      </trkpt>
      <trkpt lat="43.05759" lon="-0.43962167">
        <ele>500.0</ele>
        <time>2019-07-07T13:45:50.712Z</time>
      </trkpt>
      <trkpt lat="43.05759" lon="-0.43962167">
        <ele>500.0</ele>
        <time>2019-07-07T13:45:51.672Z</time>
      </trkpt>
      <trkpt lat="43.05760833" lon="-0.43967">
        <ele>500.0</ele>
        <time>2019-07-07T13:45:52.683Z</time>
      </trkpt>
      <trkpt lat="43.05760833" lon="-0.43967">
        <ele>500.0</ele>
        <time>2019-07-07T13:45:53.694Z</time>
      </trkpt>
      <trkpt lat="43.05762167" lon="-0.43969167">
        <ele>500.0</ele>
        <time>2019-07-07T13:45:54.702Z</time>
      </trkpt>
      <trkpt lat="43.05762167" lon="-0.43969167">
        <ele>500.0</ele>
        <time>2019-07-07T13:45:55.668Z</time>
      </trkpt>
      <trkpt lat="43.05765" lon="-0.43972667">
        <ele>500.0</ele>
        <time>2019-07-07T13:45:56.683Z</time>
      </trkpt>
      <trkpt lat="43.05765" lon="-0.43972667">
        <ele>500.0</ele>
        <time>2019-07-07T13:45:57.675Z</time>
      </trkpt>
      <trkpt lat="43.05767833" lon="-0.43976">
        <ele>500.0</ele>
        <time>2019-07-07T13:45:58.671Z</time>
      </trkpt>
      <trkpt lat="43.05770333" lon="-0.43979167">
        <ele>500.0</ele>
        <time>2019-07-07T13:45:59.679Z</time>
      </trkpt>
      <trkpt lat="43.05770333" lon="-0.43979167">
        <ele>500.0</ele>
        <time>2019-07-07T13:46:00.677Z</time>
      </trkpt>
      <trkpt lat="43.057715" lon="-0.43980833">
        <ele>500.0</ele>
        <time>2019-07-07T13:46:01.667Z</time>
      </trkpt>
      <trkpt lat="43.057715" lon="-0.43980833">
        <ele>500.0</ele>
        <time>2019-07-07T13:46:02.675Z</time>
      </trkpt>
      <trkpt lat="43.05774333" lon="-0.43983833">
        <ele>500.0</ele>
        <time>2019-07-07T13:46:03.677Z</time>
      </trkpt>
      <trkpt lat="43.057765" lon="-0.43984833">
        <ele>500.0</ele>
        <time>2019-07-07T13:46:04.684Z</time>
      </trkpt>
      <trkpt lat="43.05781167" lon="-0.439855">
        <ele>500.0</ele>
        <time>2019-07-07T13:46:05.693Z</time>
      </trkpt>
      <trkpt lat="43.057835" lon="-0.439855">
        <ele>501.0</ele>
        <time>2019-07-07T13:46:06.679Z</time>
      </trkpt>
      <trkpt lat="43.057835" lon="-0.439855">
        <ele>501.0</ele>
        <time>2019-07-07T13:46:07.666Z</time>
      </trkpt>
      <trkpt lat="43.05789" lon="-0.43984833">
        <ele>501.0</ele>
        <time>2019-07-07T13:46:08.680Z</time>
      </trkpt>
      <trkpt lat="43.05789" lon="-0.43984833">
        <ele>501.0</ele>
        <time>2019-07-07T13:46:09.676Z</time>
      </trkpt>
      <trkpt lat="43.05791833" lon="-0.43984">
        <ele>502.0</ele>
        <time>2019-07-07T13:46:10.681Z</time>
      </trkpt>
      <trkpt lat="43.057965" lon="-0.43981833">
        <ele>503.0</ele>
        <time>2019-07-07T13:46:11.690Z</time>
      </trkpt>
      <trkpt lat="43.057965" lon="-0.43981833">
        <ele>503.0</ele>
        <time>2019-07-07T13:46:12.672Z</time>
      </trkpt>
      <trkpt lat="43.057965" lon="-0.43981833">
        <ele>503.0</ele>
        <time>2019-07-07T13:46:13.677Z</time>
      </trkpt>
      <trkpt lat="43.05800833" lon="-0.439795">
        <ele>504.0</ele>
        <time>2019-07-07T13:46:14.693Z</time>
      </trkpt>
      <trkpt lat="43.05805" lon="-0.43976667">
        <ele>505.0</ele>
        <time>2019-07-07T13:46:15.703Z</time>
      </trkpt>
      <trkpt lat="43.05805" lon="-0.43976667">
        <ele>505.0</ele>
        <time>2019-07-07T13:46:16.693Z</time>
      </trkpt>
      <trkpt lat="43.05805" lon="-0.43976667">
        <ele>505.0</ele>
        <time>2019-07-07T13:46:17.677Z</time>
      </trkpt>
      <trkpt lat="43.05808833" lon="-0.43974">
        <ele>505.0</ele>
        <time>2019-07-07T13:46:18.705Z</time>
      </trkpt>
      <trkpt lat="43.05808833" lon="-0.43974">
        <ele>505.0</ele>
        <time>2019-07-07T13:46:19.671Z</time>
      </trkpt>
      <trkpt lat="43.05811667" lon="-0.43971">
        <ele>506.0</ele>
        <time>2019-07-07T13:46:20.698Z</time>
      </trkpt>
      <trkpt lat="43.05811667" lon="-0.43971">
        <ele>506.0</ele>
        <time>2019-07-07T13:46:21.679Z</time>
      </trkpt>
      <trkpt lat="43.058145" lon="-0.43967167">
        <ele>507.0</ele>
        <time>2019-07-07T13:46:22.682Z</time>
      </trkpt>
      <trkpt lat="43.05817667" lon="-0.43963667">
        <ele>508.0</ele>
        <time>2019-07-07T13:46:23.697Z</time>
      </trkpt>
      <trkpt lat="43.058195" lon="-0.43961833">
        <ele>508.0</ele>
        <time>2019-07-07T13:46:24.692Z</time>
      </trkpt>
      <trkpt lat="43.058195" lon="-0.43961833">
        <ele>508.0</ele>
        <time>2019-07-07T13:46:25.674Z</time>
      </trkpt>
      <trkpt lat="43.05822833" lon="-0.43957667">
        <ele>509.0</ele>
        <time>2019-07-07T13:46:26.681Z</time>
      </trkpt>
      <trkpt lat="43.05822833" lon="-0.43957667">
        <ele>509.0</ele>
        <time>2019-07-07T13:46:27.673Z</time>
      </trkpt>
      <trkpt lat="43.05826167" lon="-0.439535">
        <ele>509.0</ele>
        <time>2019-07-07T13:46:28.691Z</time>
      </trkpt>
      <trkpt lat="43.05826167" lon="-0.439535">
        <ele>509.0</ele>
        <time>2019-07-07T13:46:29.677Z</time>
      </trkpt>
      <trkpt lat="43.05827833" lon="-0.439515">
        <ele>510.0</ele>
        <time>2019-07-07T13:46:30.677Z</time>
      </trkpt>
      <trkpt lat="43.05831667" lon="-0.43947333">
        <ele>510.0</ele>
        <time>2019-07-07T13:46:31.687Z</time>
      </trkpt>
      <trkpt lat="43.05831667" lon="-0.43947333">
        <ele>510.0</ele>
        <time>2019-07-07T13:46:32.671Z</time>
      </trkpt>
      <trkpt lat="43.05831667" lon="-0.43947333">
        <ele>510.0</ele>
        <time>2019-07-07T13:46:33.678Z</time>
      </trkpt>
      <trkpt lat="43.05835167" lon="-0.43943167">
        <ele>511.0</ele>
        <time>2019-07-07T13:46:34.694Z</time>
      </trkpt>
      <trkpt lat="43.05839" lon="-0.43939333">
        <ele>511.0</ele>
        <time>2019-07-07T13:46:35.703Z</time>
      </trkpt>
      <trkpt lat="43.05840833" lon="-0.43937333">
        <ele>512.0</ele>
        <time>2019-07-07T13:46:36.696Z</time>
      </trkpt>
      <trkpt lat="43.05840833" lon="-0.43937333">
        <ele>512.0</ele>
        <time>2019-07-07T13:46:37.683Z</time>
      </trkpt>
      <trkpt lat="43.05840833" lon="-0.43937333">
        <ele>512.0</ele>
        <time>2019-07-07T13:46:38.675Z</time>
      </trkpt>
      <trkpt lat="43.05845833" lon="-0.43930833">
        <ele>512.0</ele>
        <time>2019-07-07T13:46:39.694Z</time>
      </trkpt>
      <trkpt lat="43.05845833" lon="-0.43930833">
        <ele>512.0</ele>
        <time>2019-07-07T13:46:40.670Z</time>
      </trkpt>
      <trkpt lat="43.05848833" lon="-0.439265">
        <ele>513.0</ele>
        <time>2019-07-07T13:46:41.677Z</time>
      </trkpt>
      <trkpt lat="43.05848833" lon="-0.439265">
        <ele>513.0</ele>
        <time>2019-07-07T13:46:42.672Z</time>
      </trkpt>
      <trkpt lat="43.05851833" lon="-0.43921833">
        <ele>513.0</ele>
        <time>2019-07-07T13:46:43.679Z</time>
      </trkpt>
      <trkpt lat="43.05851833" lon="-0.43921833">
        <ele>513.0</ele>
        <time>2019-07-07T13:46:44.677Z</time>
      </trkpt>
      <trkpt lat="43.058535" lon="-0.439195">
        <ele>513.0</ele>
        <time>2019-07-07T13:46:45.670Z</time>
      </trkpt>
      <trkpt lat="43.05855" lon="-0.43917167">
        <ele>514.0</ele>
        <time>2019-07-07T13:46:46.687Z</time>
      </trkpt>
      <trkpt lat="43.058585" lon="-0.43913">
        <ele>514.0</ele>
        <time>2019-07-07T13:46:47.693Z</time>
      </trkpt>
      <trkpt lat="43.05860167" lon="-0.43911">
        <ele>514.0</ele>
        <time>2019-07-07T13:46:48.685Z</time>
      </trkpt>
      <trkpt lat="43.05860167" lon="-0.43911">
        <ele>514.0</ele>
        <time>2019-07-07T13:46:49.690Z</time>
      </trkpt>
      <trkpt lat="43.05860167" lon="-0.43911">
        <ele>514.0</ele>
        <time>2019-07-07T13:46:50.676Z</time>
      </trkpt>
      <trkpt lat="43.058635" lon="-0.43906833">
        <ele>515.0</ele>
        <time>2019-07-07T13:46:51.704Z</time>
      </trkpt>
      <trkpt lat="43.058635" lon="-0.43906833">
        <ele>515.0</ele>
        <time>2019-07-07T13:46:52.670Z</time>
      </trkpt>
      <trkpt lat="43.058675" lon="-0.43899333">
        <ele>516.0</ele>
        <time>2019-07-07T13:46:53.745Z</time>
      </trkpt>
      <trkpt lat="43.058675" lon="-0.43899333">
        <ele>516.0</ele>
        <time>2019-07-07T13:46:54.704Z</time>
      </trkpt>
      <trkpt lat="43.058675" lon="-0.43899333">
        <ele>516.0</ele>
        <time>2019-07-07T13:46:55.670Z</time>
      </trkpt>
      <trkpt lat="43.05870167" lon="-0.43894167">
        <ele>516.0</ele>
        <time>2019-07-07T13:46:56.671Z</time>
      </trkpt>
      <trkpt lat="43.05870167" lon="-0.43894167">
        <ele>516.0</ele>
        <time>2019-07-07T13:46:57.679Z</time>
      </trkpt>
      <trkpt lat="43.05873167" lon="-0.438895">
        <ele>517.0</ele>
        <time>2019-07-07T13:46:58.673Z</time>
      </trkpt>
      <trkpt lat="43.05876" lon="-0.43884667">
        <ele>517.0</ele>
        <time>2019-07-07T13:46:59.679Z</time>
      </trkpt>
      <trkpt lat="43.05876" lon="-0.43884667">
        <ele>517.0</ele>
        <time>2019-07-07T13:47:00.677Z</time>
      </trkpt>
      <trkpt lat="43.05877" lon="-0.43882167">
        <ele>517.0</ele>
        <time>2019-07-07T13:47:01.666Z</time>
      </trkpt>
      <trkpt lat="43.05879" lon="-0.43876833">
        <ele>518.0</ele>
        <time>2019-07-07T13:47:02.678Z</time>
      </trkpt>
      <trkpt lat="43.05879" lon="-0.43876833">
        <ele>518.0</ele>
        <time>2019-07-07T13:47:03.680Z</time>
      </trkpt>
      <trkpt lat="43.05879833" lon="-0.43874167">
        <ele>518.0</ele>
        <time>2019-07-07T13:47:04.683Z</time>
      </trkpt>
      <trkpt lat="43.05881333" lon="-0.43868667">
        <ele>518.0</ele>
        <time>2019-07-07T13:47:05.694Z</time>
      </trkpt>
      <trkpt lat="43.05881333" lon="-0.43868667">
        <ele>518.0</ele>
        <time>2019-07-07T13:47:06.677Z</time>
      </trkpt>
      <trkpt lat="43.05882167" lon="-0.43865833">
        <ele>518.0</ele>
        <time>2019-07-07T13:47:07.702Z</time>
      </trkpt>
      <trkpt lat="43.05882167" lon="-0.43865833">
        <ele>518.0</ele>
        <time>2019-07-07T13:47:08.668Z</time>
      </trkpt>
      <trkpt lat="43.05885" lon="-0.43860833">
        <ele>519.0</ele>
        <time>2019-07-07T13:47:09.700Z</time>
      </trkpt>
      <trkpt lat="43.05885" lon="-0.43860833">
        <ele>519.0</ele>
        <time>2019-07-07T13:47:10.679Z</time>
      </trkpt>
      <trkpt lat="43.05887333" lon="-0.438555">
        <ele>519.0</ele>
        <time>2019-07-07T13:47:11.673Z</time>
      </trkpt>
      <trkpt lat="43.05890167" lon="-0.43850167">
        <ele>520.0</ele>
        <time>2019-07-07T13:47:12.684Z</time>
      </trkpt>
      <trkpt lat="43.05890167" lon="-0.43850167">
        <ele>520.0</ele>
        <time>2019-07-07T13:47:13.679Z</time>
      </trkpt>
      <trkpt lat="43.058915" lon="-0.438475">
        <ele>520.0</ele>
        <time>2019-07-07T13:47:14.681Z</time>
      </trkpt>
      <trkpt lat="43.058915" lon="-0.438475">
        <ele>520.0</ele>
        <time>2019-07-07T13:47:15.669Z</time>
      </trkpt>
      <trkpt lat="43.05894333" lon="-0.43842333">
        <ele>521.0</ele>
        <time>2019-07-07T13:47:16.696Z</time>
      </trkpt>
      <trkpt lat="43.05894333" lon="-0.43842333">
        <ele>521.0</ele>
        <time>2019-07-07T13:47:17.677Z</time>
      </trkpt>
      <trkpt lat="43.05896833" lon="-0.43837167">
        <ele>521.0</ele>
        <time>2019-07-07T13:47:18.690Z</time>
      </trkpt>
      <trkpt lat="43.05899833" lon="-0.43832667">
        <ele>522.0</ele>
        <time>2019-07-07T13:47:19.696Z</time>
      </trkpt>
      <trkpt lat="43.05899833" lon="-0.43832667">
        <ele>522.0</ele>
        <time>2019-07-07T13:47:20.677Z</time>
      </trkpt>
      <trkpt lat="43.059015" lon="-0.43830667">
        <ele>522.0</ele>
        <time>2019-07-07T13:47:21.689Z</time>
      </trkpt>
      <trkpt lat="43.05905" lon="-0.438265">
        <ele>523.0</ele>
        <time>2019-07-07T13:47:22.694Z</time>
      </trkpt>
      <trkpt lat="43.05906667" lon="-0.43824333">
        <ele>523.0</ele>
        <time>2019-07-07T13:47:23.775Z</time>
      </trkpt>
      <trkpt lat="43.05906667" lon="-0.43824333">
        <ele>523.0</ele>
        <time>2019-07-07T13:47:24.681Z</time>
      </trkpt>
      <trkpt lat="43.059105" lon="-0.43820667">
        <ele>524.0</ele>
        <time>2019-07-07T13:47:25.687Z</time>
      </trkpt>
      <trkpt lat="43.059105" lon="-0.43820667">
        <ele>524.0</ele>
        <time>2019-07-07T13:47:26.670Z</time>
      </trkpt>
      <trkpt lat="43.059105" lon="-0.43820667">
        <ele>524.0</ele>
        <time>2019-07-07T13:47:27.679Z</time>
      </trkpt>
      <trkpt lat="43.059145" lon="-0.43817667">
        <ele>525.0</ele>
        <time>2019-07-07T13:47:28.701Z</time>
      </trkpt>
      <trkpt lat="43.059145" lon="-0.43817667">
        <ele>525.0</ele>
        <time>2019-07-07T13:47:29.671Z</time>
      </trkpt>
      <trkpt lat="43.05919333" lon="-0.43815667">
        <ele>525.0</ele>
        <time>2019-07-07T13:47:30.677Z</time>
      </trkpt>
      <trkpt lat="43.05921833" lon="-0.43814667">
        <ele>526.0</ele>
        <time>2019-07-07T13:47:31.668Z</time>
      </trkpt>
      <trkpt lat="43.05921833" lon="-0.43814667">
        <ele>526.0</ele>
        <time>2019-07-07T13:47:32.675Z</time>
      </trkpt>
      <trkpt lat="43.05926333" lon="-0.438125">
        <ele>526.0</ele>
        <time>2019-07-07T13:47:33.681Z</time>
      </trkpt>
      <trkpt lat="43.059285" lon="-0.43811667">
        <ele>526.0</ele>
        <time>2019-07-07T13:47:34.684Z</time>
      </trkpt>
      <trkpt lat="43.05933" lon="-0.43810167">
        <ele>527.0</ele>
        <time>2019-07-07T13:47:35.693Z</time>
      </trkpt>
      <trkpt lat="43.05933" lon="-0.43810167">
        <ele>527.0</ele>
        <time>2019-07-07T13:47:36.668Z</time>
      </trkpt>
      <trkpt lat="43.05937333" lon="-0.43808833">
        <ele>528.0</ele>
        <time>2019-07-07T13:47:37.772Z</time>
      </trkpt>
      <trkpt lat="43.05937333" lon="-0.43808833">
        <ele>528.0</ele>
        <time>2019-07-07T13:47:38.699Z</time>
      </trkpt>
      <trkpt lat="43.05937333" lon="-0.43808833">
        <ele>528.0</ele>
        <time>2019-07-07T13:47:39.667Z</time>
      </trkpt>
      <trkpt lat="43.05941667" lon="-0.43807833">
        <ele>528.0</ele>
        <time>2019-07-07T13:47:40.686Z</time>
      </trkpt>
      <trkpt lat="43.05941667" lon="-0.43807833">
        <ele>528.0</ele>
        <time>2019-07-07T13:47:41.678Z</time>
      </trkpt>
      <trkpt lat="43.05946" lon="-0.43806833">
        <ele>529.0</ele>
        <time>2019-07-07T13:47:42.674Z</time>
      </trkpt>
      <trkpt lat="43.059505" lon="-0.43806">
        <ele>529.0</ele>
        <time>2019-07-07T13:47:43.694Z</time>
      </trkpt>
      <trkpt lat="43.05952667" lon="-0.43805333">
        <ele>529.0</ele>
        <time>2019-07-07T13:47:44.679Z</time>
      </trkpt>
      <trkpt lat="43.05954833" lon="-0.43805">
        <ele>529.0</ele>
        <time>2019-07-07T13:47:45.672Z</time>
      </trkpt>
      <trkpt lat="43.05954833" lon="-0.43805">
        <ele>529.0</ele>
        <time>2019-07-07T13:47:46.667Z</time>
      </trkpt>
      <trkpt lat="43.05954833" lon="-0.43805">
        <ele>529.0</ele>
        <time>2019-07-07T13:47:47.677Z</time>
      </trkpt>
      <trkpt lat="43.05961667" lon="-0.43803833">
        <ele>531.0</ele>
        <time>2019-07-07T13:47:48.729Z</time>
      </trkpt>
      <trkpt lat="43.05961667" lon="-0.43803833">
        <ele>531.0</ele>
        <time>2019-07-07T13:47:49.672Z</time>
      </trkpt>
      <trkpt lat="43.05965667" lon="-0.43803333">
        <ele>531.0</ele>
        <time>2019-07-07T13:47:50.689Z</time>
      </trkpt>
      <trkpt lat="43.059675" lon="-0.43803167">
        <ele>532.0</ele>
        <time>2019-07-07T13:47:51.685Z</time>
      </trkpt>
      <trkpt lat="43.059675" lon="-0.43803167">
        <ele>532.0</ele>
        <time>2019-07-07T13:47:52.673Z</time>
      </trkpt>
      <trkpt lat="43.05971667" lon="-0.43802333">
        <ele>532.0</ele>
        <time>2019-07-07T13:47:53.705Z</time>
      </trkpt>
      <trkpt lat="43.05971667" lon="-0.43802333">
        <ele>532.0</ele>
        <time>2019-07-07T13:47:54.677Z</time>
      </trkpt>
      <trkpt lat="43.05975667" lon="-0.43801167">
        <ele>532.0</ele>
        <time>2019-07-07T13:47:55.700Z</time>
      </trkpt>
      <trkpt lat="43.05975667" lon="-0.43801167">
        <ele>532.0</ele>
        <time>2019-07-07T13:47:56.676Z</time>
      </trkpt>
      <trkpt lat="43.05981167" lon="-0.43800833">
        <ele>533.0</ele>
        <time>2019-07-07T13:47:57.684Z</time>
      </trkpt>
      <trkpt lat="43.05981167" lon="-0.43800833">
        <ele>533.0</ele>
        <time>2019-07-07T13:47:58.702Z</time>
      </trkpt>
      <trkpt lat="43.05981167" lon="-0.43800833">
        <ele>533.0</ele>
        <time>2019-07-07T13:47:59.667Z</time>
      </trkpt>
      <trkpt lat="43.05986167" lon="-0.438">
        <ele>534.0</ele>
        <time>2019-07-07T13:48:00.678Z</time>
      </trkpt>
      <trkpt lat="43.059885" lon="-0.437995">
        <ele>534.0</ele>
        <time>2019-07-07T13:48:01.689Z</time>
      </trkpt>
      <trkpt lat="43.05993167" lon="-0.43798833">
        <ele>535.0</ele>
        <time>2019-07-07T13:48:02.695Z</time>
      </trkpt>
      <trkpt lat="43.05993167" lon="-0.43798833">
        <ele>535.0</ele>
        <time>2019-07-07T13:48:03.680Z</time>
      </trkpt>
      <trkpt lat="43.059955" lon="-0.43798667">
        <ele>535.0</ele>
        <time>2019-07-07T13:48:04.692Z</time>
      </trkpt>
      <trkpt lat="43.05999833" lon="-0.43798333">
        <ele>536.0</ele>
        <time>2019-07-07T13:48:05.700Z</time>
      </trkpt>
      <trkpt lat="43.06001667" lon="-0.43798">
        <ele>536.0</ele>
        <time>2019-07-07T13:48:06.681Z</time>
      </trkpt>
      <trkpt lat="43.06001667" lon="-0.43798">
        <ele>536.0</ele>
        <time>2019-07-07T13:48:07.670Z</time>
      </trkpt>
      <trkpt lat="43.06001667" lon="-0.43798">
        <ele>536.0</ele>
        <time>2019-07-07T13:48:08.676Z</time>
      </trkpt>
      <trkpt lat="43.06005667" lon="-0.43797">
        <ele>536.0</ele>
        <time>2019-07-07T13:48:09.690Z</time>
      </trkpt>
      <trkpt lat="43.06007833" lon="-0.437965">
        <ele>537.0</ele>
        <time>2019-07-07T13:48:10.671Z</time>
      </trkpt>
      <trkpt lat="43.06012333" lon="-0.43795333">
        <ele>537.0</ele>
        <time>2019-07-07T13:48:11.692Z</time>
      </trkpt>
      <trkpt lat="43.06012333" lon="-0.43795333">
        <ele>537.0</ele>
        <time>2019-07-07T13:48:12.666Z</time>
      </trkpt>
      <trkpt lat="43.06012333" lon="-0.43795333">
        <ele>537.0</ele>
        <time>2019-07-07T13:48:13.676Z</time>
      </trkpt>
      <trkpt lat="43.06016833" lon="-0.43794167">
        <ele>537.0</ele>
        <time>2019-07-07T13:48:14.678Z</time>
      </trkpt>
      <trkpt lat="43.06019167" lon="-0.43793833">
        <ele>537.0</ele>
        <time>2019-07-07T13:48:15.678Z</time>
      </trkpt>
      <trkpt lat="43.06019167" lon="-0.43793833">
        <ele>537.0</ele>
        <time>2019-07-07T13:48:16.684Z</time>
      </trkpt>
      <trkpt lat="43.060235" lon="-0.43792833">
        <ele>538.0</ele>
        <time>2019-07-07T13:48:17.691Z</time>
      </trkpt>
      <trkpt lat="43.06028167" lon="-0.43792667">
        <ele>538.0</ele>
        <time>2019-07-07T13:48:18.781Z</time>
      </trkpt>
      <trkpt lat="43.06028167" lon="-0.43792667">
        <ele>538.0</ele>
        <time>2019-07-07T13:48:19.670Z</time>
      </trkpt>
      <trkpt lat="43.06028167" lon="-0.43792667">
        <ele>538.0</ele>
        <time>2019-07-07T13:48:20.676Z</time>
      </trkpt>
      <trkpt lat="43.06033" lon="-0.43791833">
        <ele>539.0</ele>
        <time>2019-07-07T13:48:21.669Z</time>
      </trkpt>
      <trkpt lat="43.06035167" lon="-0.43791333">
        <ele>539.0</ele>
        <time>2019-07-07T13:48:22.669Z</time>
      </trkpt>
      <trkpt lat="43.06039833" lon="-0.43791">
        <ele>540.0</ele>
        <time>2019-07-07T13:48:23.677Z</time>
      </trkpt>
      <trkpt lat="43.06039833" lon="-0.43791">
        <ele>540.0</ele>
        <time>2019-07-07T13:48:24.679Z</time>
      </trkpt>
      <trkpt lat="43.06042667" lon="-0.43790833">
        <ele>540.0</ele>
        <time>2019-07-07T13:48:25.666Z</time>
      </trkpt>
      <trkpt lat="43.06047833" lon="-0.43790333">
        <ele>541.0</ele>
        <time>2019-07-07T13:48:26.676Z</time>
      </trkpt>
      <trkpt lat="43.0605" lon="-0.4379">
        <ele>541.0</ele>
        <time>2019-07-07T13:48:27.691Z</time>
      </trkpt>
      <trkpt lat="43.0605" lon="-0.4379">
        <ele>541.0</ele>
        <time>2019-07-07T13:48:28.672Z</time>
      </trkpt>
      <trkpt lat="43.06054667" lon="-0.43789167">
        <ele>542.0</ele>
        <time>2019-07-07T13:48:29.695Z</time>
      </trkpt>
      <trkpt lat="43.06054667" lon="-0.43789167">
        <ele>542.0</ele>
        <time>2019-07-07T13:48:30.680Z</time>
      </trkpt>
      <trkpt lat="43.06056667" lon="-0.43789167">
        <ele>542.0</ele>
        <time>2019-07-07T13:48:31.676Z</time>
      </trkpt>
      <trkpt lat="43.06058833" lon="-0.43789167">
        <ele>542.0</ele>
        <time>2019-07-07T13:48:32.693Z</time>
      </trkpt>
      <trkpt lat="43.06058833" lon="-0.43789167">
        <ele>542.0</ele>
        <time>2019-07-07T13:48:33.679Z</time>
      </trkpt>
      <trkpt lat="43.06063333" lon="-0.43789333">
        <ele>543.0</ele>
        <time>2019-07-07T13:48:34.667Z</time>
      </trkpt>
      <trkpt lat="43.06063333" lon="-0.43789333">
        <ele>543.0</ele>
        <time>2019-07-07T13:48:35.673Z</time>
      </trkpt>
      <trkpt lat="43.06067833" lon="-0.43789">
        <ele>543.0</ele>
        <time>2019-07-07T13:48:36.691Z</time>
      </trkpt>
      <trkpt lat="43.06067833" lon="-0.43789">
        <ele>543.0</ele>
        <time>2019-07-07T13:48:37.678Z</time>
      </trkpt>
      <trkpt lat="43.06072333" lon="-0.43788667">
        <ele>544.0</ele>
        <time>2019-07-07T13:48:38.666Z</time>
      </trkpt>
      <trkpt lat="43.06077" lon="-0.43789">
        <ele>544.0</ele>
        <time>2019-07-07T13:48:39.680Z</time>
      </trkpt>
      <trkpt lat="43.06077" lon="-0.43789">
        <ele>544.0</ele>
        <time>2019-07-07T13:48:40.689Z</time>
      </trkpt>
      <trkpt lat="43.06077" lon="-0.43789">
        <ele>544.0</ele>
        <time>2019-07-07T13:48:41.676Z</time>
      </trkpt>
      <trkpt lat="43.06081667" lon="-0.43788667">
        <ele>545.0</ele>
        <time>2019-07-07T13:48:42.666Z</time>
      </trkpt>
      <trkpt lat="43.06081667" lon="-0.43788667">
        <ele>545.0</ele>
        <time>2019-07-07T13:48:43.672Z</time>
      </trkpt>
      <trkpt lat="43.06086667" lon="-0.43788333">
        <ele>546.0</ele>
        <time>2019-07-07T13:48:44.678Z</time>
      </trkpt>
      <trkpt lat="43.06089" lon="-0.43788333">
        <ele>546.0</ele>
        <time>2019-07-07T13:48:45.667Z</time>
      </trkpt>
      <trkpt lat="43.06091333" lon="-0.43788333">
        <ele>546.0</ele>
        <time>2019-07-07T13:48:46.676Z</time>
      </trkpt>
      <trkpt lat="43.06095833" lon="-0.43788">
        <ele>547.0</ele>
        <time>2019-07-07T13:48:47.685Z</time>
      </trkpt>
      <trkpt lat="43.06098167" lon="-0.437875">
        <ele>547.0</ele>
        <time>2019-07-07T13:48:48.681Z</time>
      </trkpt>
      <trkpt lat="43.06098167" lon="-0.437875">
        <ele>547.0</ele>
        <time>2019-07-07T13:48:49.666Z</time>
      </trkpt>
      <trkpt lat="43.06098167" lon="-0.437875">
        <ele>547.0</ele>
        <time>2019-07-07T13:48:50.674Z</time>
      </trkpt>
      <trkpt lat="43.06104833" lon="-0.43786333">
        <ele>548.0</ele>
        <time>2019-07-07T13:48:51.700Z</time>
      </trkpt>
      <trkpt lat="43.06104833" lon="-0.43786333">
        <ele>548.0</ele>
        <time>2019-07-07T13:48:52.681Z</time>
      </trkpt>
      <trkpt lat="43.06104833" lon="-0.43786333">
        <ele>548.0</ele>
        <time>2019-07-07T13:48:53.677Z</time>
      </trkpt>
      <trkpt lat="43.06111833" lon="-0.43784667">
        <ele>549.0</ele>
        <time>2019-07-07T13:48:54.699Z</time>
      </trkpt>
      <trkpt lat="43.06111833" lon="-0.43784667">
        <ele>549.0</ele>
        <time>2019-07-07T13:48:55.681Z</time>
      </trkpt>
      <trkpt lat="43.06116167" lon="-0.43783">
        <ele>550.0</ele>
        <time>2019-07-07T13:48:56.690Z</time>
      </trkpt>
      <trkpt lat="43.06116167" lon="-0.43783">
        <ele>550.0</ele>
        <time>2019-07-07T13:48:57.673Z</time>
      </trkpt>
      <trkpt lat="43.061185" lon="-0.43782167">
        <ele>550.0</ele>
        <time>2019-07-07T13:48:58.666Z</time>
      </trkpt>
      <trkpt lat="43.061185" lon="-0.43782167">
        <ele>550.0</ele>
        <time>2019-07-07T13:48:59.677Z</time>
      </trkpt>
      <trkpt lat="43.06122667" lon="-0.4378">
        <ele>550.0</ele>
        <time>2019-07-07T13:49:00.670Z</time>
      </trkpt>
      <trkpt lat="43.06126833" lon="-0.43777333">
        <ele>551.0</ele>
        <time>2019-07-07T13:49:01.677Z</time>
      </trkpt>
      <trkpt lat="43.06126833" lon="-0.43777333">
        <ele>551.0</ele>
        <time>2019-07-07T13:49:02.667Z</time>
      </trkpt>
      <trkpt lat="43.06126833" lon="-0.43777333">
        <ele>551.0</ele>
        <time>2019-07-07T13:49:03.680Z</time>
      </trkpt>
      <trkpt lat="43.06130833" lon="-0.43774167">
        <ele>551.0</ele>
        <time>2019-07-07T13:49:04.668Z</time>
      </trkpt>
      <trkpt lat="43.06130833" lon="-0.43774167">
        <ele>551.0</ele>
        <time>2019-07-07T13:49:05.675Z</time>
      </trkpt>
      <trkpt lat="43.06136833" lon="-0.43769">
        <ele>552.0</ele>
        <time>2019-07-07T13:49:06.747Z</time>
      </trkpt>
      <trkpt lat="43.06136833" lon="-0.43769">
        <ele>552.0</ele>
        <time>2019-07-07T13:49:07.672Z</time>
      </trkpt>
      <trkpt lat="43.06140667" lon="-0.43765667">
        <ele>552.0</ele>
        <time>2019-07-07T13:49:08.678Z</time>
      </trkpt>
      <trkpt lat="43.06140667" lon="-0.43765667">
        <ele>552.0</ele>
        <time>2019-07-07T13:49:09.678Z</time>
      </trkpt>
      <trkpt lat="43.06142833" lon="-0.43764167">
        <ele>553.0</ele>
        <time>2019-07-07T13:49:10.666Z</time>
      </trkpt>
      <trkpt lat="43.06142833" lon="-0.43764167">
        <ele>553.0</ele>
        <time>2019-07-07T13:49:11.676Z</time>
      </trkpt>
      <trkpt lat="43.06149167" lon="-0.43759333">
        <ele>554.0</ele>
        <time>2019-07-07T13:49:12.692Z</time>
      </trkpt>
      <trkpt lat="43.06149167" lon="-0.43759333">
        <ele>554.0</ele>
        <time>2019-07-07T13:49:13.685Z</time>
      </trkpt>
      <trkpt lat="43.061535" lon="-0.437565">
        <ele>554.0</ele>
        <time>2019-07-07T13:49:14.691Z</time>
      </trkpt>
      <trkpt lat="43.061535" lon="-0.437565">
        <ele>554.0</ele>
        <time>2019-07-07T13:49:15.679Z</time>
      </trkpt>
      <trkpt lat="43.061555" lon="-0.43754833">
        <ele>554.0</ele>
        <time>2019-07-07T13:49:16.685Z</time>
      </trkpt>
      <trkpt lat="43.061595" lon="-0.43752667">
        <ele>555.0</ele>
        <time>2019-07-07T13:49:17.700Z</time>
      </trkpt>
      <trkpt lat="43.061595" lon="-0.43752667">
        <ele>555.0</ele>
        <time>2019-07-07T13:49:18.677Z</time>
      </trkpt>
      <trkpt lat="43.061595" lon="-0.43752667">
        <ele>555.0</ele>
        <time>2019-07-07T13:49:19.700Z</time>
      </trkpt>
      <trkpt lat="43.061635" lon="-0.43752833">
        <ele>555.0</ele>
        <time>2019-07-07T13:49:20.696Z</time>
      </trkpt>
      <trkpt lat="43.06166333" lon="-0.43755167">
        <ele>556.0</ele>
        <time>2019-07-07T13:49:21.708Z</time>
      </trkpt>
      <trkpt lat="43.06166333" lon="-0.43755167">
        <ele>556.0</ele>
        <time>2019-07-07T13:49:22.694Z</time>
      </trkpt>
      <trkpt lat="43.06167833" lon="-0.437565">
        <ele>556.0</ele>
        <time>2019-07-07T13:49:23.666Z</time>
      </trkpt>
      <trkpt lat="43.06167833" lon="-0.437565">
        <ele>556.0</ele>
        <time>2019-07-07T13:49:24.675Z</time>
      </trkpt>
      <trkpt lat="43.06170833" lon="-0.437615">
        <ele>557.0</ele>
        <time>2019-07-07T13:49:25.672Z</time>
      </trkpt>
      <trkpt lat="43.06170833" lon="-0.437615">
        <ele>557.0</ele>
        <time>2019-07-07T13:49:26.678Z</time>
      </trkpt>
      <trkpt lat="43.06174" lon="-0.43770833">
        <ele>558.0</ele>
        <time>2019-07-07T13:49:27.689Z</time>
      </trkpt>
      <trkpt lat="43.06174" lon="-0.43770833">
        <ele>558.0</ele>
        <time>2019-07-07T13:49:28.680Z</time>
      </trkpt>
      <trkpt lat="43.06175" lon="-0.43777667">
        <ele>559.0</ele>
        <time>2019-07-07T13:49:29.686Z</time>
      </trkpt>
      <trkpt lat="43.06175" lon="-0.43777667">
        <ele>559.0</ele>
        <time>2019-07-07T13:49:30.681Z</time>
      </trkpt>
      <trkpt lat="43.06174833" lon="-0.43781333">
        <ele>559.0</ele>
        <time>2019-07-07T13:49:31.669Z</time>
      </trkpt>
      <trkpt lat="43.06174833" lon="-0.43781333">
        <ele>559.0</ele>
        <time>2019-07-07T13:49:32.676Z</time>
      </trkpt>
      <trkpt lat="43.061705" lon="-0.43789667">
        <ele>560.0</ele>
        <time>2019-07-07T13:49:33.745Z</time>
      </trkpt>
      <trkpt lat="43.061705" lon="-0.43789667">
        <ele>560.0</ele>
        <time>2019-07-07T13:49:34.695Z</time>
      </trkpt>
      <trkpt lat="43.061705" lon="-0.43789667">
        <ele>560.0</ele>
        <time>2019-07-07T13:49:35.669Z</time>
      </trkpt>
      <trkpt lat="43.061665" lon="-0.43793833">
        <ele>560.0</ele>
        <time>2019-07-07T13:49:36.667Z</time>
      </trkpt>
      <trkpt lat="43.061665" lon="-0.43793833">
        <ele>560.0</ele>
        <time>2019-07-07T13:49:37.679Z</time>
      </trkpt>
      <trkpt lat="43.06163" lon="-0.43798833">
        <ele>560.0</ele>
        <time>2019-07-07T13:49:38.670Z</time>
      </trkpt>
      <trkpt lat="43.06159167" lon="-0.43803167">
        <ele>561.0</ele>
        <time>2019-07-07T13:49:39.682Z</time>
      </trkpt>
      <trkpt lat="43.06159167" lon="-0.43803167">
        <ele>561.0</ele>
        <time>2019-07-07T13:49:40.680Z</time>
      </trkpt>
      <trkpt lat="43.06157" lon="-0.43805167">
        <ele>561.0</ele>
        <time>2019-07-07T13:49:41.678Z</time>
      </trkpt>
      <trkpt lat="43.06153" lon="-0.43809">
        <ele>562.0</ele>
        <time>2019-07-07T13:49:42.684Z</time>
      </trkpt>
      <trkpt lat="43.06153" lon="-0.43809">
        <ele>562.0</ele>
        <time>2019-07-07T13:49:43.677Z</time>
      </trkpt>
      <trkpt lat="43.06153" lon="-0.43809">
        <ele>562.0</ele>
        <time>2019-07-07T13:49:44.697Z</time>
      </trkpt>
      <trkpt lat="43.06147167" lon="-0.43815333">
        <ele>562.0</ele>
        <time>2019-07-07T13:49:45.693Z</time>
      </trkpt>
      <trkpt lat="43.06147167" lon="-0.43815333">
        <ele>562.0</ele>
        <time>2019-07-07T13:49:46.673Z</time>
      </trkpt>
      <trkpt lat="43.061435" lon="-0.43820667">
        <ele>563.0</ele>
        <time>2019-07-07T13:49:47.683Z</time>
      </trkpt>
      <trkpt lat="43.061435" lon="-0.43820667">
        <ele>563.0</ele>
        <time>2019-07-07T13:49:48.693Z</time>
      </trkpt>
      <trkpt lat="43.06139667" lon="-0.43825667">
        <ele>563.0</ele>
        <time>2019-07-07T13:49:49.701Z</time>
      </trkpt>
      <trkpt lat="43.06139667" lon="-0.43825667">
        <ele>563.0</ele>
        <time>2019-07-07T13:49:50.681Z</time>
      </trkpt>
      <trkpt lat="43.06136333" lon="-0.43830667">
        <ele>564.0</ele>
        <time>2019-07-07T13:49:51.698Z</time>
      </trkpt>
      <trkpt lat="43.06136333" lon="-0.43830667">
        <ele>564.0</ele>
        <time>2019-07-07T13:49:52.677Z</time>
      </trkpt>
      <trkpt lat="43.06136333" lon="-0.43830667">
        <ele>564.0</ele>
        <time>2019-07-07T13:49:53.683Z</time>
      </trkpt>
      <trkpt lat="43.06132833" lon="-0.43835833">
        <ele>564.0</ele>
        <time>2019-07-07T13:49:54.672Z</time>
      </trkpt>
      <trkpt lat="43.06129167" lon="-0.43840833">
        <ele>565.0</ele>
        <time>2019-07-07T13:49:55.686Z</time>
      </trkpt>
      <trkpt lat="43.06129167" lon="-0.43840833">
        <ele>565.0</ele>
        <time>2019-07-07T13:49:56.695Z</time>
      </trkpt>
      <trkpt lat="43.06127167" lon="-0.43843167">
        <ele>565.0</ele>
        <time>2019-07-07T13:49:57.669Z</time>
      </trkpt>
      <trkpt lat="43.06125167" lon="-0.438455">
        <ele>565.0</ele>
        <time>2019-07-07T13:49:58.686Z</time>
      </trkpt>
      <trkpt lat="43.06121333" lon="-0.43850167">
        <ele>566.0</ele>
        <time>2019-07-07T13:49:59.776Z</time>
      </trkpt>
      <trkpt lat="43.06121333" lon="-0.43850167">
        <ele>566.0</ele>
        <time>2019-07-07T13:50:00.683Z</time>
      </trkpt>
      <trkpt lat="43.061175" lon="-0.43854667">
        <ele>566.0</ele>
        <time>2019-07-07T13:50:01.690Z</time>
      </trkpt>
      <trkpt lat="43.06115667" lon="-0.43856833">
        <ele>567.0</ele>
        <time>2019-07-07T13:50:02.777Z</time>
      </trkpt>
      <trkpt lat="43.06115667" lon="-0.43856833">
        <ele>567.0</ele>
        <time>2019-07-07T13:50:03.668Z</time>
      </trkpt>
      <trkpt lat="43.06115667" lon="-0.43856833">
        <ele>567.0</ele>
        <time>2019-07-07T13:50:04.676Z</time>
      </trkpt>
      <trkpt lat="43.06111833" lon="-0.43860833">
        <ele>567.0</ele>
        <time>2019-07-07T13:50:05.679Z</time>
      </trkpt>
      <trkpt lat="43.06109833" lon="-0.43862667">
        <ele>568.0</ele>
        <time>2019-07-07T13:50:06.685Z</time>
      </trkpt>
      <trkpt lat="43.06105833" lon="-0.43866833">
        <ele>569.0</ele>
        <time>2019-07-07T13:50:07.691Z</time>
      </trkpt>
      <trkpt lat="43.06105833" lon="-0.43866833">
        <ele>569.0</ele>
        <time>2019-07-07T13:50:08.674Z</time>
      </trkpt>
      <trkpt lat="43.06105833" lon="-0.43866833">
        <ele>569.0</ele>
        <time>2019-07-07T13:50:09.680Z</time>
      </trkpt>
      <trkpt lat="43.06101833" lon="-0.43870167">
        <ele>570.0</ele>
        <time>2019-07-07T13:50:10.691Z</time>
      </trkpt>
      <trkpt lat="43.06098" lon="-0.43873833">
        <ele>570.0</ele>
        <time>2019-07-07T13:50:11.697Z</time>
      </trkpt>
      <trkpt lat="43.06098" lon="-0.43873833">
        <ele>570.0</ele>
        <time>2019-07-07T13:50:12.680Z</time>
      </trkpt>
      <trkpt lat="43.06094167" lon="-0.43878">
        <ele>571.0</ele>
        <time>2019-07-07T13:50:13.710Z</time>
      </trkpt>
      <trkpt lat="43.06094167" lon="-0.43878">
        <ele>571.0</ele>
        <time>2019-07-07T13:50:14.678Z</time>
      </trkpt>
      <trkpt lat="43.06090167" lon="-0.43881833">
        <ele>571.0</ele>
        <time>2019-07-07T13:50:15.698Z</time>
      </trkpt>
      <trkpt lat="43.06090167" lon="-0.43881833">
        <ele>571.0</ele>
        <time>2019-07-07T13:50:16.678Z</time>
      </trkpt>
      <trkpt lat="43.06090167" lon="-0.43881833">
        <ele>571.0</ele>
        <time>2019-07-07T13:50:17.681Z</time>
      </trkpt>
      <trkpt lat="43.06086167" lon="-0.43886">
        <ele>571.0</ele>
        <time>2019-07-07T13:50:18.672Z</time>
      </trkpt>
      <trkpt lat="43.06086167" lon="-0.43886">
        <ele>571.0</ele>
        <time>2019-07-07T13:50:19.679Z</time>
      </trkpt>
      <trkpt lat="43.06082333" lon="-0.43890167">
        <ele>572.0</ele>
        <time>2019-07-07T13:50:20.687Z</time>
      </trkpt>
      <trkpt lat="43.06082333" lon="-0.43890167">
        <ele>572.0</ele>
        <time>2019-07-07T13:50:21.681Z</time>
      </trkpt>
      <trkpt lat="43.060785" lon="-0.43893833">
        <ele>572.0</ele>
        <time>2019-07-07T13:50:22.680Z</time>
      </trkpt>
      <trkpt lat="43.06074667" lon="-0.438975">
        <ele>573.0</ele>
        <time>2019-07-07T13:50:23.686Z</time>
      </trkpt>
      <trkpt lat="43.06074667" lon="-0.438975">
        <ele>573.0</ele>
        <time>2019-07-07T13:50:24.681Z</time>
      </trkpt>
      <trkpt lat="43.06072833" lon="-0.438995">
        <ele>573.0</ele>
        <time>2019-07-07T13:50:25.681Z</time>
      </trkpt>
      <trkpt lat="43.06069" lon="-0.439035">
        <ele>573.0</ele>
        <time>2019-07-07T13:50:26.693Z</time>
      </trkpt>
      <trkpt lat="43.06067167" lon="-0.439055">
        <ele>574.0</ele>
        <time>2019-07-07T13:50:27.690Z</time>
      </trkpt>
      <trkpt lat="43.06067167" lon="-0.439055">
        <ele>574.0</ele>
        <time>2019-07-07T13:50:28.691Z</time>
      </trkpt>
      <trkpt lat="43.06063333" lon="-0.4391">
        <ele>574.0</ele>
        <time>2019-07-07T13:50:29.697Z</time>
      </trkpt>
      <trkpt lat="43.06063333" lon="-0.4391">
        <ele>574.0</ele>
        <time>2019-07-07T13:50:30.680Z</time>
      </trkpt>
      <trkpt lat="43.06061667" lon="-0.43912333">
        <ele>574.0</ele>
        <time>2019-07-07T13:50:31.689Z</time>
      </trkpt>
      <trkpt lat="43.06058167" lon="-0.439175">
        <ele>575.0</ele>
        <time>2019-07-07T13:50:32.695Z</time>
      </trkpt>
      <trkpt lat="43.060565" lon="-0.43920333">
        <ele>575.0</ele>
        <time>2019-07-07T13:50:33.703Z</time>
      </trkpt>
      <trkpt lat="43.060565" lon="-0.43920333">
        <ele>575.0</ele>
        <time>2019-07-07T13:50:34.696Z</time>
      </trkpt>
      <trkpt lat="43.060565" lon="-0.43920333">
        <ele>575.0</ele>
        <time>2019-07-07T13:50:35.668Z</time>
      </trkpt>
      <trkpt lat="43.060515" lon="-0.43929833">
        <ele>575.0</ele>
        <time>2019-07-07T13:50:36.684Z</time>
      </trkpt>
      <trkpt lat="43.060515" lon="-0.43929833">
        <ele>575.0</ele>
        <time>2019-07-07T13:50:37.675Z</time>
      </trkpt>
      <trkpt lat="43.060515" lon="-0.43929833">
        <ele>575.0</ele>
        <time>2019-07-07T13:50:38.694Z</time>
      </trkpt>
      <trkpt lat="43.060485" lon="-0.43937">
        <ele>576.0</ele>
        <time>2019-07-07T13:50:39.692Z</time>
      </trkpt>
      <trkpt lat="43.06046333" lon="-0.43944833">
        <ele>576.0</ele>
        <time>2019-07-07T13:50:40.699Z</time>
      </trkpt>
      <trkpt lat="43.06046333" lon="-0.43944833">
        <ele>576.0</ele>
        <time>2019-07-07T13:50:41.671Z</time>
      </trkpt>
      <trkpt lat="43.06045" lon="-0.43953333">
        <ele>576.0</ele>
        <time>2019-07-07T13:50:42.689Z</time>
      </trkpt>
      <trkpt lat="43.06045" lon="-0.43953333">
        <ele>576.0</ele>
        <time>2019-07-07T13:50:43.699Z</time>
      </trkpt>
      <trkpt lat="43.06045" lon="-0.43953333">
        <ele>576.0</ele>
        <time>2019-07-07T13:50:44.684Z</time>
      </trkpt>
      <trkpt lat="43.06043667" lon="-0.439615">
        <ele>576.0</ele>
        <time>2019-07-07T13:50:45.677Z</time>
      </trkpt>
      <trkpt lat="43.06042667" lon="-0.43969667">
        <ele>577.0</ele>
        <time>2019-07-07T13:50:46.685Z</time>
      </trkpt>
      <trkpt lat="43.06042667" lon="-0.43969667">
        <ele>577.0</ele>
        <time>2019-07-07T13:50:47.678Z</time>
      </trkpt>
      <trkpt lat="43.06041833" lon="-0.43977833">
        <ele>577.0</ele>
        <time>2019-07-07T13:50:48.781Z</time>
      </trkpt>
      <trkpt lat="43.06041833" lon="-0.43977833">
        <ele>577.0</ele>
        <time>2019-07-07T13:50:49.675Z</time>
      </trkpt>
      <trkpt lat="43.06041" lon="-0.43985667">
        <ele>577.0</ele>
        <time>2019-07-07T13:50:50.687Z</time>
      </trkpt>
      <trkpt lat="43.06041" lon="-0.43985667">
        <ele>577.0</ele>
        <time>2019-07-07T13:50:51.668Z</time>
      </trkpt>
      <trkpt lat="43.06040833" lon="-0.43989667">
        <ele>577.0</ele>
        <time>2019-07-07T13:50:52.671Z</time>
      </trkpt>
      <trkpt lat="43.06040333" lon="-0.439975">
        <ele>578.0</ele>
        <time>2019-07-07T13:50:53.677Z</time>
      </trkpt>
      <trkpt lat="43.06040333" lon="-0.439975">
        <ele>578.0</ele>
        <time>2019-07-07T13:50:54.681Z</time>
      </trkpt>
      <trkpt lat="43.06039833" lon="-0.44001">
        <ele>578.0</ele>
        <time>2019-07-07T13:50:55.702Z</time>
      </trkpt>
      <trkpt lat="43.06039667" lon="-0.44008167">
        <ele>579.0</ele>
        <time>2019-07-07T13:50:56.668Z</time>
      </trkpt>
      <trkpt lat="43.06039667" lon="-0.44008167">
        <ele>579.0</ele>
        <time>2019-07-07T13:50:57.666Z</time>
      </trkpt>
      <trkpt lat="43.06039667" lon="-0.44008167">
        <ele>579.0</ele>
        <time>2019-07-07T13:50:58.681Z</time>
      </trkpt>
      <trkpt lat="43.06039333" lon="-0.44015167">
        <ele>579.0</ele>
        <time>2019-07-07T13:50:59.671Z</time>
      </trkpt>
      <trkpt lat="43.0604" lon="-0.44022167">
        <ele>580.0</ele>
        <time>2019-07-07T13:51:00.678Z</time>
      </trkpt>
      <trkpt lat="43.06040333" lon="-0.44025667">
        <ele>580.0</ele>
        <time>2019-07-07T13:51:01.694Z</time>
      </trkpt>
      <trkpt lat="43.06040333" lon="-0.44025667">
        <ele>580.0</ele>
        <time>2019-07-07T13:51:02.691Z</time>
      </trkpt>
      <trkpt lat="43.06040833" lon="-0.44032333">
        <ele>580.0</ele>
        <time>2019-07-07T13:51:03.698Z</time>
      </trkpt>
      <trkpt lat="43.06040833" lon="-0.44032333">
        <ele>580.0</ele>
        <time>2019-07-07T13:51:04.692Z</time>
      </trkpt>
      <trkpt lat="43.06041667" lon="-0.44038667">
        <ele>580.0</ele>
        <time>2019-07-07T13:51:05.697Z</time>
      </trkpt>
      <trkpt lat="43.06041667" lon="-0.44038667">
        <ele>580.0</ele>
        <time>2019-07-07T13:51:06.672Z</time>
      </trkpt>
      <trkpt lat="43.06041667" lon="-0.44038667">
        <ele>580.0</ele>
        <time>2019-07-07T13:51:07.680Z</time>
      </trkpt>
      <trkpt lat="43.060425" lon="-0.44044833">
        <ele>581.0</ele>
        <time>2019-07-07T13:51:08.692Z</time>
      </trkpt>
      <trkpt lat="43.06044" lon="-0.44050833">
        <ele>582.0</ele>
        <time>2019-07-07T13:51:09.679Z</time>
      </trkpt>
      <trkpt lat="43.06044" lon="-0.44050833">
        <ele>582.0</ele>
        <time>2019-07-07T13:51:10.678Z</time>
      </trkpt>
      <trkpt lat="43.06044" lon="-0.44050833">
        <ele>582.0</ele>
        <time>2019-07-07T13:51:11.682Z</time>
      </trkpt>
      <trkpt lat="43.06045167" lon="-0.44057">
        <ele>582.0</ele>
        <time>2019-07-07T13:51:12.672Z</time>
      </trkpt>
      <trkpt lat="43.06046833" lon="-0.44062833">
        <ele>583.0</ele>
        <time>2019-07-07T13:51:13.689Z</time>
      </trkpt>
      <trkpt lat="43.06046833" lon="-0.44062833">
        <ele>583.0</ele>
        <time>2019-07-07T13:51:14.688Z</time>
      </trkpt>
      <trkpt lat="43.06048" lon="-0.44065667">
        <ele>583.0</ele>
        <time>2019-07-07T13:51:15.688Z</time>
      </trkpt>
      <trkpt lat="43.06049667" lon="-0.440715">
        <ele>584.0</ele>
        <time>2019-07-07T13:51:16.697Z</time>
      </trkpt>
      <trkpt lat="43.06049667" lon="-0.440715">
        <ele>584.0</ele>
        <time>2019-07-07T13:51:17.669Z</time>
      </trkpt>
      <trkpt lat="43.06049667" lon="-0.440715">
        <ele>584.0</ele>
        <time>2019-07-07T13:51:18.695Z</time>
      </trkpt>
      <trkpt lat="43.06051" lon="-0.44077333">
        <ele>584.0</ele>
        <time>2019-07-07T13:51:19.697Z</time>
      </trkpt>
      <trkpt lat="43.06051" lon="-0.44077333">
        <ele>584.0</ele>
        <time>2019-07-07T13:51:20.666Z</time>
      </trkpt>
      <trkpt lat="43.06053167" lon="-0.44086333">
        <ele>585.0</ele>
        <time>2019-07-07T13:51:21.687Z</time>
      </trkpt>
      <trkpt lat="43.06053167" lon="-0.44086333">
        <ele>585.0</ele>
        <time>2019-07-07T13:51:22.693Z</time>
      </trkpt>
      <trkpt lat="43.06053167" lon="-0.44086333">
        <ele>585.0</ele>
        <time>2019-07-07T13:51:23.680Z</time>
      </trkpt>
      <trkpt lat="43.06055167" lon="-0.440955">
        <ele>586.0</ele>
        <time>2019-07-07T13:51:24.680Z</time>
      </trkpt>
      <trkpt lat="43.06055167" lon="-0.440955">
        <ele>586.0</ele>
        <time>2019-07-07T13:51:25.696Z</time>
      </trkpt>
      <trkpt lat="43.06056333" lon="-0.44101667">
        <ele>587.0</ele>
        <time>2019-07-07T13:51:26.702Z</time>
      </trkpt>
      <trkpt lat="43.06057" lon="-0.441045">
        <ele>587.0</ele>
        <time>2019-07-07T13:51:27.679Z</time>
      </trkpt>
      <trkpt lat="43.06057" lon="-0.441045">
        <ele>587.0</ele>
        <time>2019-07-07T13:51:28.674Z</time>
      </trkpt>
      <trkpt lat="43.06057" lon="-0.441045">
        <ele>587.0</ele>
        <time>2019-07-07T13:51:29.687Z</time>
      </trkpt>
      <trkpt lat="43.06057833" lon="-0.441105">
        <ele>587.0</ele>
        <time>2019-07-07T13:51:30.670Z</time>
      </trkpt>
      <trkpt lat="43.06058667" lon="-0.441165">
        <ele>588.0</ele>
        <time>2019-07-07T13:51:31.676Z</time>
      </trkpt>
      <trkpt lat="43.06058667" lon="-0.441165">
        <ele>588.0</ele>
        <time>2019-07-07T13:51:32.674Z</time>
      </trkpt>
      <trkpt lat="43.06059333" lon="-0.441225">
        <ele>588.0</ele>
        <time>2019-07-07T13:51:33.680Z</time>
      </trkpt>
      <trkpt lat="43.06059333" lon="-0.441225">
        <ele>588.0</ele>
        <time>2019-07-07T13:51:34.678Z</time>
      </trkpt>
      <trkpt lat="43.06059333" lon="-0.441225">
        <ele>588.0</ele>
        <time>2019-07-07T13:51:35.680Z</time>
      </trkpt>
      <trkpt lat="43.06059667" lon="-0.44132">
        <ele>589.0</ele>
        <time>2019-07-07T13:51:36.681Z</time>
      </trkpt>
      <trkpt lat="43.06059667" lon="-0.44132">
        <ele>589.0</ele>
        <time>2019-07-07T13:51:37.667Z</time>
      </trkpt>
      <trkpt lat="43.06059667" lon="-0.44132">
        <ele>589.0</ele>
        <time>2019-07-07T13:51:38.681Z</time>
      </trkpt>
      <trkpt lat="43.06059167" lon="-0.44141333">
        <ele>589.0</ele>
        <time>2019-07-07T13:51:39.698Z</time>
      </trkpt>
      <trkpt lat="43.06059167" lon="-0.44141333">
        <ele>589.0</ele>
        <time>2019-07-07T13:51:40.674Z</time>
      </trkpt>
      <trkpt lat="43.06059167" lon="-0.44141333">
        <ele>589.0</ele>
        <time>2019-07-07T13:51:41.671Z</time>
      </trkpt>
      <trkpt lat="43.06058667" lon="-0.44150833">
        <ele>590.0</ele>
        <time>2019-07-07T13:51:42.700Z</time>
      </trkpt>
      <trkpt lat="43.06058667" lon="-0.44150833">
        <ele>590.0</ele>
        <time>2019-07-07T13:51:43.695Z</time>
      </trkpt>
      <trkpt lat="43.06058167" lon="-0.44157167">
        <ele>591.0</ele>
        <time>2019-07-07T13:51:44.701Z</time>
      </trkpt>
      <trkpt lat="43.06058167" lon="-0.44157167">
        <ele>591.0</ele>
        <time>2019-07-07T13:51:45.697Z</time>
      </trkpt>
      <trkpt lat="43.06057833" lon="-0.44160333">
        <ele>591.0</ele>
        <time>2019-07-07T13:51:46.673Z</time>
      </trkpt>
      <trkpt lat="43.060575" lon="-0.441665">
        <ele>591.0</ele>
        <time>2019-07-07T13:51:47.679Z</time>
      </trkpt>
      <trkpt lat="43.060575" lon="-0.441665">
        <ele>591.0</ele>
        <time>2019-07-07T13:51:48.669Z</time>
      </trkpt>
      <trkpt lat="43.060575" lon="-0.441695">
        <ele>591.0</ele>
        <time>2019-07-07T13:51:49.699Z</time>
      </trkpt>
      <trkpt lat="43.060575" lon="-0.441695">
        <ele>591.0</ele>
        <time>2019-07-07T13:51:50.667Z</time>
      </trkpt>
      <trkpt lat="43.06057" lon="-0.441785">
        <ele>592.0</ele>
        <time>2019-07-07T13:51:51.699Z</time>
      </trkpt>
      <trkpt lat="43.06057" lon="-0.441785">
        <ele>592.0</ele>
        <time>2019-07-07T13:51:52.669Z</time>
      </trkpt>
      <trkpt lat="43.06057" lon="-0.441785">
        <ele>592.0</ele>
        <time>2019-07-07T13:51:53.675Z</time>
      </trkpt>
      <trkpt lat="43.06057333" lon="-0.441875">
        <ele>593.0</ele>
        <time>2019-07-07T13:51:54.694Z</time>
      </trkpt>
      <trkpt lat="43.06057333" lon="-0.441875">
        <ele>593.0</ele>
        <time>2019-07-07T13:51:55.677Z</time>
      </trkpt>
      <trkpt lat="43.06057667" lon="-0.44193333">
        <ele>593.0</ele>
        <time>2019-07-07T13:51:56.686Z</time>
      </trkpt>
      <trkpt lat="43.060575" lon="-0.44196333">
        <ele>593.0</ele>
        <time>2019-07-07T13:51:57.695Z</time>
      </trkpt>
      <trkpt lat="43.060575" lon="-0.44196333">
        <ele>593.0</ele>
        <time>2019-07-07T13:51:58.674Z</time>
      </trkpt>
      <trkpt lat="43.06057333" lon="-0.44202333">
        <ele>593.0</ele>
        <time>2019-07-07T13:51:59.692Z</time>
      </trkpt>
      <trkpt lat="43.06057333" lon="-0.44202333">
        <ele>593.0</ele>
        <time>2019-07-07T13:52:00.679Z</time>
      </trkpt>
      <trkpt lat="43.06057333" lon="-0.44205333">
        <ele>594.0</ele>
        <time>2019-07-07T13:52:01.693Z</time>
      </trkpt>
      <trkpt lat="43.06057333" lon="-0.44205333">
        <ele>594.0</ele>
        <time>2019-07-07T13:52:02.681Z</time>
      </trkpt>
      <trkpt lat="43.060575" lon="-0.44211">
        <ele>594.0</ele>
        <time>2019-07-07T13:52:03.691Z</time>
      </trkpt>
      <trkpt lat="43.06058" lon="-0.44217333">
        <ele>594.0</ele>
        <time>2019-07-07T13:52:04.699Z</time>
      </trkpt>
      <trkpt lat="43.06058" lon="-0.44217333">
        <ele>594.0</ele>
        <time>2019-07-07T13:52:05.682Z</time>
      </trkpt>
      <trkpt lat="43.06058167" lon="-0.442205">
        <ele>594.0</ele>
        <time>2019-07-07T13:52:06.673Z</time>
      </trkpt>
      <trkpt lat="43.06058333" lon="-0.442235">
        <ele>594.0</ele>
        <time>2019-07-07T13:52:07.692Z</time>
      </trkpt>
      <trkpt lat="43.06057667" lon="-0.4423">
        <ele>594.0</ele>
        <time>2019-07-07T13:52:08.747Z</time>
      </trkpt>
      <trkpt lat="43.06057333" lon="-0.44233333">
        <ele>595.0</ele>
        <time>2019-07-07T13:52:09.687Z</time>
      </trkpt>
      <trkpt lat="43.06057333" lon="-0.44233333">
        <ele>595.0</ele>
        <time>2019-07-07T13:52:10.698Z</time>
      </trkpt>
      <trkpt lat="43.06057333" lon="-0.44233333">
        <ele>595.0</ele>
        <time>2019-07-07T13:52:11.672Z</time>
      </trkpt>
      <trkpt lat="43.06055833" lon="-0.44243">
        <ele>595.0</ele>
        <time>2019-07-07T13:52:12.696Z</time>
      </trkpt>
      <trkpt lat="43.06055833" lon="-0.44243">
        <ele>595.0</ele>
        <time>2019-07-07T13:52:13.675Z</time>
      </trkpt>
      <trkpt lat="43.06054333" lon="-0.442495">
        <ele>596.0</ele>
        <time>2019-07-07T13:52:14.682Z</time>
      </trkpt>
      <trkpt lat="43.06054333" lon="-0.442495">
        <ele>596.0</ele>
        <time>2019-07-07T13:52:15.678Z</time>
      </trkpt>
      <trkpt lat="43.06053" lon="-0.44255333">
        <ele>596.0</ele>
        <time>2019-07-07T13:52:16.696Z</time>
      </trkpt>
      <trkpt lat="43.06053" lon="-0.44255333">
        <ele>596.0</ele>
        <time>2019-07-07T13:52:17.670Z</time>
      </trkpt>
      <trkpt lat="43.06052167" lon="-0.442615">
        <ele>597.0</ele>
        <time>2019-07-07T13:52:18.677Z</time>
      </trkpt>
      <trkpt lat="43.06052167" lon="-0.442615">
        <ele>597.0</ele>
        <time>2019-07-07T13:52:19.682Z</time>
      </trkpt>
      <trkpt lat="43.06051667" lon="-0.442645">
        <ele>597.0</ele>
        <time>2019-07-07T13:52:20.698Z</time>
      </trkpt>
      <trkpt lat="43.06051667" lon="-0.442645">
        <ele>597.0</ele>
        <time>2019-07-07T13:52:21.669Z</time>
      </trkpt>
      <trkpt lat="43.06050833" lon="-0.44270667">
        <ele>598.0</ele>
        <time>2019-07-07T13:52:22.694Z</time>
      </trkpt>
      <trkpt lat="43.06050333" lon="-0.44277">
        <ele>598.0</ele>
        <time>2019-07-07T13:52:23.749Z</time>
      </trkpt>
      <trkpt lat="43.06050333" lon="-0.44277">
        <ele>598.0</ele>
        <time>2019-07-07T13:52:24.672Z</time>
      </trkpt>
      <trkpt lat="43.06049833" lon="-0.44283333">
        <ele>599.0</ele>
        <time>2019-07-07T13:52:25.696Z</time>
      </trkpt>
      <trkpt lat="43.06049667" lon="-0.44286333">
        <ele>599.0</ele>
        <time>2019-07-07T13:52:26.681Z</time>
      </trkpt>
      <trkpt lat="43.06049667" lon="-0.44286333">
        <ele>599.0</ele>
        <time>2019-07-07T13:52:27.677Z</time>
      </trkpt>
      <trkpt lat="43.0605" lon="-0.442895">
        <ele>600.0</ele>
        <time>2019-07-07T13:52:28.667Z</time>
      </trkpt>
      <trkpt lat="43.0605" lon="-0.442895">
        <ele>600.0</ele>
        <time>2019-07-07T13:52:29.682Z</time>
      </trkpt>
      <trkpt lat="43.06050833" lon="-0.44295333">
        <ele>600.0</ele>
        <time>2019-07-07T13:52:30.686Z</time>
      </trkpt>
      <trkpt lat="43.06051833" lon="-0.44300833">
        <ele>601.0</ele>
        <time>2019-07-07T13:52:31.695Z</time>
      </trkpt>
      <trkpt lat="43.06051833" lon="-0.44300833">
        <ele>601.0</ele>
        <time>2019-07-07T13:52:32.667Z</time>
      </trkpt>
      <trkpt lat="43.06053" lon="-0.443065">
        <ele>601.0</ele>
        <time>2019-07-07T13:52:33.691Z</time>
      </trkpt>
      <trkpt lat="43.06053" lon="-0.443065">
        <ele>601.0</ele>
        <time>2019-07-07T13:52:34.697Z</time>
      </trkpt>
      <trkpt lat="43.06053" lon="-0.443065">
        <ele>601.0</ele>
        <time>2019-07-07T13:52:35.683Z</time>
      </trkpt>
      <trkpt lat="43.06054" lon="-0.44312333">
        <ele>602.0</ele>
        <time>2019-07-07T13:52:36.668Z</time>
      </trkpt>
      <trkpt lat="43.06054" lon="-0.44312333">
        <ele>602.0</ele>
        <time>2019-07-07T13:52:37.677Z</time>
      </trkpt>
      <trkpt lat="43.06055667" lon="-0.44318">
        <ele>602.0</ele>
        <time>2019-07-07T13:52:38.688Z</time>
      </trkpt>
      <trkpt lat="43.060575" lon="-0.443235">
        <ele>603.0</ele>
        <time>2019-07-07T13:52:39.767Z</time>
      </trkpt>
      <trkpt lat="43.060575" lon="-0.443235">
        <ele>603.0</ele>
        <time>2019-07-07T13:52:40.667Z</time>
      </trkpt>
      <trkpt lat="43.060575" lon="-0.443235">
        <ele>603.0</ele>
        <time>2019-07-07T13:52:41.678Z</time>
      </trkpt>
      <trkpt lat="43.06060167" lon="-0.44332">
        <ele>604.0</ele>
        <time>2019-07-07T13:52:42.694Z</time>
      </trkpt>
      <trkpt lat="43.06060167" lon="-0.44332">
        <ele>604.0</ele>
        <time>2019-07-07T13:52:43.686Z</time>
      </trkpt>
      <trkpt lat="43.06062167" lon="-0.443375">
        <ele>604.0</ele>
        <time>2019-07-07T13:52:44.693Z</time>
      </trkpt>
      <trkpt lat="43.06062167" lon="-0.443375">
        <ele>604.0</ele>
        <time>2019-07-07T13:52:45.685Z</time>
      </trkpt>
      <trkpt lat="43.06063167" lon="-0.44340333">
        <ele>605.0</ele>
        <time>2019-07-07T13:52:46.673Z</time>
      </trkpt>
      <trkpt lat="43.06065" lon="-0.44346167">
        <ele>605.0</ele>
        <time>2019-07-07T13:52:47.691Z</time>
      </trkpt>
      <trkpt lat="43.06065" lon="-0.44346167">
        <ele>605.0</ele>
        <time>2019-07-07T13:52:48.668Z</time>
      </trkpt>
      <trkpt lat="43.06065" lon="-0.44346167">
        <ele>605.0</ele>
        <time>2019-07-07T13:52:49.682Z</time>
      </trkpt>
      <trkpt lat="43.06066333" lon="-0.44351833">
        <ele>606.0</ele>
        <time>2019-07-07T13:52:50.680Z</time>
      </trkpt>
      <trkpt lat="43.06066667" lon="-0.44358333">
        <ele>606.0</ele>
        <time>2019-07-07T13:52:51.689Z</time>
      </trkpt>
      <trkpt lat="43.06066667" lon="-0.44358333">
        <ele>606.0</ele>
        <time>2019-07-07T13:52:52.677Z</time>
      </trkpt>
      <trkpt lat="43.06066667" lon="-0.44358333">
        <ele>606.0</ele>
        <time>2019-07-07T13:52:53.687Z</time>
      </trkpt>
      <trkpt lat="43.06066333" lon="-0.44367167">
        <ele>607.0</ele>
        <time>2019-07-07T13:52:54.701Z</time>
      </trkpt>
      <trkpt lat="43.06066333" lon="-0.44367167">
        <ele>607.0</ele>
        <time>2019-07-07T13:52:55.672Z</time>
      </trkpt>
      <trkpt lat="43.06065833" lon="-0.44373167">
        <ele>607.0</ele>
        <time>2019-07-07T13:52:56.678Z</time>
      </trkpt>
      <trkpt lat="43.06065333" lon="-0.44376333">
        <ele>607.0</ele>
        <time>2019-07-07T13:52:57.711Z</time>
      </trkpt>
      <trkpt lat="43.06065333" lon="-0.44376333">
        <ele>607.0</ele>
        <time>2019-07-07T13:52:58.696Z</time>
      </trkpt>
      <trkpt lat="43.06065333" lon="-0.44376333">
        <ele>607.0</ele>
        <time>2019-07-07T13:52:59.682Z</time>
      </trkpt>
      <trkpt lat="43.06064167" lon="-0.44382333">
        <ele>608.0</ele>
        <time>2019-07-07T13:53:00.671Z</time>
      </trkpt>
      <trkpt lat="43.06064167" lon="-0.44382333">
        <ele>608.0</ele>
        <time>2019-07-07T13:53:01.678Z</time>
      </trkpt>
      <trkpt lat="43.060635" lon="-0.44388167">
        <ele>608.0</ele>
        <time>2019-07-07T13:53:02.695Z</time>
      </trkpt>
      <trkpt lat="43.060635" lon="-0.44388167">
        <ele>608.0</ele>
        <time>2019-07-07T13:53:03.687Z</time>
      </trkpt>
      <trkpt lat="43.060635" lon="-0.44394167">
        <ele>609.0</ele>
        <time>2019-07-07T13:53:04.683Z</time>
      </trkpt>
      <trkpt lat="43.060635" lon="-0.44400167">
        <ele>610.0</ele>
        <time>2019-07-07T13:53:05.690Z</time>
      </trkpt>
      <trkpt lat="43.060635" lon="-0.44400167">
        <ele>610.0</ele>
        <time>2019-07-07T13:53:06.670Z</time>
      </trkpt>
      <trkpt lat="43.06063833" lon="-0.44403167">
        <ele>610.0</ele>
        <time>2019-07-07T13:53:07.691Z</time>
      </trkpt>
      <trkpt lat="43.06063833" lon="-0.44403167">
        <ele>610.0</ele>
        <time>2019-07-07T13:53:08.683Z</time>
      </trkpt>
      <trkpt lat="43.06064333" lon="-0.444125">
        <ele>611.0</ele>
        <time>2019-07-07T13:53:09.701Z</time>
      </trkpt>
      <trkpt lat="43.06064333" lon="-0.444125">
        <ele>611.0</ele>
        <time>2019-07-07T13:53:10.677Z</time>
      </trkpt>
      <trkpt lat="43.06064667" lon="-0.444185">
        <ele>612.0</ele>
        <time>2019-07-07T13:53:11.696Z</time>
      </trkpt>
      <trkpt lat="43.06065" lon="-0.44421333">
        <ele>612.0</ele>
        <time>2019-07-07T13:53:12.703Z</time>
      </trkpt>
      <trkpt lat="43.06065" lon="-0.44421333">
        <ele>612.0</ele>
        <time>2019-07-07T13:53:13.678Z</time>
      </trkpt>
      <trkpt lat="43.06065" lon="-0.44421333">
        <ele>612.0</ele>
        <time>2019-07-07T13:53:14.684Z</time>
      </trkpt>
      <trkpt lat="43.060655" lon="-0.44427333">
        <ele>612.0</ele>
        <time>2019-07-07T13:53:15.690Z</time>
      </trkpt>
      <trkpt lat="43.06065833" lon="-0.44430167">
        <ele>613.0</ele>
        <time>2019-07-07T13:53:16.688Z</time>
      </trkpt>
      <trkpt lat="43.060665" lon="-0.44435667">
        <ele>613.0</ele>
        <time>2019-07-07T13:53:17.697Z</time>
      </trkpt>
      <trkpt lat="43.060665" lon="-0.44435667">
        <ele>613.0</ele>
        <time>2019-07-07T13:53:18.673Z</time>
      </trkpt>
      <trkpt lat="43.060665" lon="-0.44435667">
        <ele>613.0</ele>
        <time>2019-07-07T13:53:19.679Z</time>
      </trkpt>
      <trkpt lat="43.06066667" lon="-0.44441167">
        <ele>614.0</ele>
        <time>2019-07-07T13:53:20.668Z</time>
      </trkpt>
      <trkpt lat="43.06066667" lon="-0.44441167">
        <ele>614.0</ele>
        <time>2019-07-07T13:53:21.676Z</time>
      </trkpt>
      <trkpt lat="43.06067" lon="-0.444465">
        <ele>615.0</ele>
        <time>2019-07-07T13:53:22.675Z</time>
      </trkpt>
      <trkpt lat="43.06067" lon="-0.444465">
        <ele>615.0</ele>
        <time>2019-07-07T13:53:23.683Z</time>
      </trkpt>
      <trkpt lat="43.06067667" lon="-0.44452167">
        <ele>615.0</ele>
        <time>2019-07-07T13:53:24.665Z</time>
      </trkpt>
      <trkpt lat="43.06067667" lon="-0.44452167">
        <ele>615.0</ele>
        <time>2019-07-07T13:53:25.676Z</time>
      </trkpt>
      <trkpt lat="43.06068167" lon="-0.44458">
        <ele>615.0</ele>
        <time>2019-07-07T13:53:26.688Z</time>
      </trkpt>
      <trkpt lat="43.06068167" lon="-0.44464167">
        <ele>616.0</ele>
        <time>2019-07-07T13:53:27.781Z</time>
      </trkpt>
      <trkpt lat="43.06068167" lon="-0.44464167">
        <ele>616.0</ele>
        <time>2019-07-07T13:53:28.680Z</time>
      </trkpt>
      <trkpt lat="43.060675" lon="-0.444695">
        <ele>616.0</ele>
        <time>2019-07-07T13:53:29.687Z</time>
      </trkpt>
      <trkpt lat="43.060675" lon="-0.444695">
        <ele>616.0</ele>
        <time>2019-07-07T13:53:30.682Z</time>
      </trkpt>
      <trkpt lat="43.06067333" lon="-0.44472333">
        <ele>616.0</ele>
        <time>2019-07-07T13:53:31.674Z</time>
      </trkpt>
      <trkpt lat="43.06067" lon="-0.44475167">
        <ele>616.0</ele>
        <time>2019-07-07T13:53:32.675Z</time>
      </trkpt>
      <trkpt lat="43.06067" lon="-0.44475167">
        <ele>616.0</ele>
        <time>2019-07-07T13:53:33.684Z</time>
      </trkpt>
      <trkpt lat="43.06066167" lon="-0.44480833">
        <ele>616.0</ele>
        <time>2019-07-07T13:53:34.675Z</time>
      </trkpt>
      <trkpt lat="43.06065667" lon="-0.44486">
        <ele>616.0</ele>
        <time>2019-07-07T13:53:35.697Z</time>
      </trkpt>
      <trkpt lat="43.06065667" lon="-0.44486">
        <ele>616.0</ele>
        <time>2019-07-07T13:53:36.677Z</time>
      </trkpt>
      <trkpt lat="43.06065" lon="-0.44488333">
        <ele>617.0</ele>
        <time>2019-07-07T13:53:37.704Z</time>
      </trkpt>
      <trkpt lat="43.06065" lon="-0.44488333">
        <ele>617.0</ele>
        <time>2019-07-07T13:53:38.671Z</time>
      </trkpt>
      <trkpt lat="43.06063167" lon="-0.444955">
        <ele>617.0</ele>
        <time>2019-07-07T13:53:39.689Z</time>
      </trkpt>
      <trkpt lat="43.06063167" lon="-0.444955">
        <ele>617.0</ele>
        <time>2019-07-07T13:53:40.671Z</time>
      </trkpt>
      <trkpt lat="43.06063833" lon="-0.44499833">
        <ele>617.0</ele>
        <time>2019-07-07T13:53:41.703Z</time>
      </trkpt>
      <trkpt lat="43.06063833" lon="-0.44499833">
        <ele>617.0</ele>
        <time>2019-07-07T13:53:42.697Z</time>
      </trkpt>
      <trkpt lat="43.06066667" lon="-0.44503333">
        <ele>617.0</ele>
        <time>2019-07-07T13:53:43.700Z</time>
      </trkpt>
      <trkpt lat="43.06066667" lon="-0.44503333">
        <ele>617.0</ele>
        <time>2019-07-07T13:53:44.678Z</time>
      </trkpt>
      <trkpt lat="43.0607" lon="-0.44503333">
        <ele>617.0</ele>
        <time>2019-07-07T13:53:45.697Z</time>
      </trkpt>
      <trkpt lat="43.0607" lon="-0.44503333">
        <ele>617.0</ele>
        <time>2019-07-07T13:53:46.685Z</time>
      </trkpt>
      <trkpt lat="43.06073833" lon="-0.445025">
        <ele>618.0</ele>
        <time>2019-07-07T13:53:47.697Z</time>
      </trkpt>
      <trkpt lat="43.06075833" lon="-0.44501333">
        <ele>618.0</ele>
        <time>2019-07-07T13:53:48.678Z</time>
      </trkpt>
      <trkpt lat="43.06078333" lon="-0.44499667">
        <ele>619.0</ele>
        <time>2019-07-07T13:53:49.685Z</time>
      </trkpt>
      <trkpt lat="43.06078333" lon="-0.44499667">
        <ele>619.0</ele>
        <time>2019-07-07T13:53:50.681Z</time>
      </trkpt>
      <trkpt lat="43.06082333" lon="-0.44495333">
        <ele>620.0</ele>
        <time>2019-07-07T13:53:51.690Z</time>
      </trkpt>
      <trkpt lat="43.06082333" lon="-0.44495333">
        <ele>620.0</ele>
        <time>2019-07-07T13:53:52.688Z</time>
      </trkpt>
      <trkpt lat="43.06085333" lon="-0.44489667">
        <ele>620.0</ele>
        <time>2019-07-07T13:53:53.700Z</time>
      </trkpt>
      <trkpt lat="43.06085333" lon="-0.44489667">
        <ele>620.0</ele>
        <time>2019-07-07T13:53:54.683Z</time>
      </trkpt>
      <trkpt lat="43.06086833" lon="-0.44486833">
        <ele>620.0</ele>
        <time>2019-07-07T13:53:55.679Z</time>
      </trkpt>
      <trkpt lat="43.06087667" lon="-0.444835">
        <ele>620.0</ele>
        <time>2019-07-07T13:53:56.671Z</time>
      </trkpt>
      <trkpt lat="43.06087667" lon="-0.444835">
        <ele>620.0</ele>
        <time>2019-07-07T13:53:57.678Z</time>
      </trkpt>
      <trkpt lat="43.06090333" lon="-0.44477167">
        <ele>621.0</ele>
        <time>2019-07-07T13:53:58.704Z</time>
      </trkpt>
      <trkpt lat="43.06090333" lon="-0.44477167">
        <ele>621.0</ele>
        <time>2019-07-07T13:53:59.672Z</time>
      </trkpt>
      <trkpt lat="43.06092833" lon="-0.44470833">
        <ele>621.0</ele>
        <time>2019-07-07T13:54:00.670Z</time>
      </trkpt>
      <trkpt lat="43.06095333" lon="-0.44464667">
        <ele>621.0</ele>
        <time>2019-07-07T13:54:01.677Z</time>
      </trkpt>
      <trkpt lat="43.06096667" lon="-0.44461333">
        <ele>621.0</ele>
        <time>2019-07-07T13:54:02.693Z</time>
      </trkpt>
      <trkpt lat="43.06096667" lon="-0.44461333">
        <ele>621.0</ele>
        <time>2019-07-07T13:54:03.679Z</time>
      </trkpt>
      <trkpt lat="43.06096667" lon="-0.44461333">
        <ele>621.0</ele>
        <time>2019-07-07T13:54:04.683Z</time>
      </trkpt>
      <trkpt lat="43.06098667" lon="-0.44454833">
        <ele>622.0</ele>
        <time>2019-07-07T13:54:05.677Z</time>
      </trkpt>
      <trkpt lat="43.06101" lon="-0.44448833">
        <ele>622.0</ele>
        <time>2019-07-07T13:54:06.688Z</time>
      </trkpt>
      <trkpt lat="43.06101" lon="-0.44448833">
        <ele>622.0</ele>
        <time>2019-07-07T13:54:07.680Z</time>
      </trkpt>
      <trkpt lat="43.06101" lon="-0.44448833">
        <ele>622.0</ele>
        <time>2019-07-07T13:54:08.683Z</time>
      </trkpt>
      <trkpt lat="43.06103833" lon="-0.44443">
        <ele>622.0</ele>
        <time>2019-07-07T13:54:09.696Z</time>
      </trkpt>
      <trkpt lat="43.061055" lon="-0.44440167">
        <ele>623.0</ele>
        <time>2019-07-07T13:54:10.686Z</time>
      </trkpt>
      <trkpt lat="43.06109167" lon="-0.44434833">
        <ele>623.0</ele>
        <time>2019-07-07T13:54:11.692Z</time>
      </trkpt>
      <trkpt lat="43.06109167" lon="-0.44434833">
        <ele>623.0</ele>
        <time>2019-07-07T13:54:12.679Z</time>
      </trkpt>
      <trkpt lat="43.06113" lon="-0.44429667">
        <ele>624.0</ele>
        <time>2019-07-07T13:54:13.685Z</time>
      </trkpt>
      <trkpt lat="43.06113" lon="-0.44429667">
        <ele>624.0</ele>
        <time>2019-07-07T13:54:14.681Z</time>
      </trkpt>
      <trkpt lat="43.06114833" lon="-0.44427167">
        <ele>624.0</ele>
        <time>2019-07-07T13:54:15.676Z</time>
      </trkpt>
      <trkpt lat="43.06118667" lon="-0.44422">
        <ele>624.0</ele>
        <time>2019-07-07T13:54:16.681Z</time>
      </trkpt>
      <trkpt lat="43.06118667" lon="-0.44422">
        <ele>624.0</ele>
        <time>2019-07-07T13:54:17.684Z</time>
      </trkpt>
      <trkpt lat="43.06120667" lon="-0.444195">
        <ele>624.0</ele>
        <time>2019-07-07T13:54:18.677Z</time>
      </trkpt>
      <trkpt lat="43.06120667" lon="-0.444195">
        <ele>624.0</ele>
        <time>2019-07-07T13:54:19.674Z</time>
      </trkpt>
      <trkpt lat="43.061245" lon="-0.44414333">
        <ele>625.0</ele>
        <time>2019-07-07T13:54:20.672Z</time>
      </trkpt>
      <trkpt lat="43.06126167" lon="-0.444115">
        <ele>625.0</ele>
        <time>2019-07-07T13:54:21.693Z</time>
      </trkpt>
      <trkpt lat="43.06128167" lon="-0.44409">
        <ele>625.0</ele>
        <time>2019-07-07T13:54:22.702Z</time>
      </trkpt>
      <trkpt lat="43.06128167" lon="-0.44409">
        <ele>625.0</ele>
        <time>2019-07-07T13:54:23.683Z</time>
      </trkpt>
      <trkpt lat="43.06132167" lon="-0.44404">
        <ele>625.0</ele>
        <time>2019-07-07T13:54:24.680Z</time>
      </trkpt>
      <trkpt lat="43.06135833" lon="-0.44398667">
        <ele>626.0</ele>
        <time>2019-07-07T13:54:25.689Z</time>
      </trkpt>
      <trkpt lat="43.06135833" lon="-0.44398667">
        <ele>626.0</ele>
        <time>2019-07-07T13:54:26.683Z</time>
      </trkpt>
      <trkpt lat="43.06139333" lon="-0.44393333">
        <ele>626.0</ele>
        <time>2019-07-07T13:54:27.694Z</time>
      </trkpt>
      <trkpt lat="43.06139333" lon="-0.44393333">
        <ele>626.0</ele>
        <time>2019-07-07T13:54:28.667Z</time>
      </trkpt>
      <trkpt lat="43.06139333" lon="-0.44393333">
        <ele>626.0</ele>
        <time>2019-07-07T13:54:29.684Z</time>
      </trkpt>
      <trkpt lat="43.06142833" lon="-0.443875">
        <ele>626.0</ele>
        <time>2019-07-07T13:54:30.676Z</time>
      </trkpt>
      <trkpt lat="43.06146333" lon="-0.44381833">
        <ele>627.0</ele>
        <time>2019-07-07T13:54:31.682Z</time>
      </trkpt>
      <trkpt lat="43.06146333" lon="-0.44381833">
        <ele>627.0</ele>
        <time>2019-07-07T13:54:32.672Z</time>
      </trkpt>
      <trkpt lat="43.06146333" lon="-0.44381833">
        <ele>627.0</ele>
        <time>2019-07-07T13:54:33.686Z</time>
      </trkpt>
      <trkpt lat="43.06149667" lon="-0.44375667">
        <ele>627.0</ele>
        <time>2019-07-07T13:54:34.697Z</time>
      </trkpt>
      <trkpt lat="43.06149667" lon="-0.44375667">
        <ele>627.0</ele>
        <time>2019-07-07T13:54:35.670Z</time>
      </trkpt>
      <trkpt lat="43.06152833" lon="-0.443695">
        <ele>627.0</ele>
        <time>2019-07-07T13:54:36.686Z</time>
      </trkpt>
      <trkpt lat="43.06155667" lon="-0.44363167">
        <ele>627.0</ele>
        <time>2019-07-07T13:54:37.724Z</time>
      </trkpt>
      <trkpt lat="43.06155667" lon="-0.44363167">
        <ele>627.0</ele>
        <time>2019-07-07T13:54:38.692Z</time>
      </trkpt>
      <trkpt lat="43.06158833" lon="-0.44356833">
        <ele>627.0</ele>
        <time>2019-07-07T13:54:39.698Z</time>
      </trkpt>
      <trkpt lat="43.06158833" lon="-0.44356833">
        <ele>627.0</ele>
        <time>2019-07-07T13:54:40.692Z</time>
      </trkpt>
      <trkpt lat="43.06158833" lon="-0.44356833">
        <ele>627.0</ele>
        <time>2019-07-07T13:54:41.683Z</time>
      </trkpt>
      <trkpt lat="43.06161667" lon="-0.443505">
        <ele>628.0</ele>
        <time>2019-07-07T13:54:42.674Z</time>
      </trkpt>
      <trkpt lat="43.06164833" lon="-0.44343833">
        <ele>628.0</ele>
        <time>2019-07-07T13:54:43.680Z</time>
      </trkpt>
      <trkpt lat="43.06164833" lon="-0.44343833">
        <ele>628.0</ele>
        <time>2019-07-07T13:54:44.675Z</time>
      </trkpt>
      <trkpt lat="43.06167833" lon="-0.443375">
        <ele>628.0</ele>
        <time>2019-07-07T13:54:45.756Z</time>
      </trkpt>
      <trkpt lat="43.06167833" lon="-0.443375">
        <ele>628.0</ele>
        <time>2019-07-07T13:54:46.674Z</time>
      </trkpt>
      <trkpt lat="43.06167833" lon="-0.443375">
        <ele>628.0</ele>
        <time>2019-07-07T13:54:47.680Z</time>
      </trkpt>
      <trkpt lat="43.06171667" lon="-0.44327667">
        <ele>629.0</ele>
        <time>2019-07-07T13:54:48.698Z</time>
      </trkpt>
      <trkpt lat="43.06171667" lon="-0.44327667">
        <ele>629.0</ele>
        <time>2019-07-07T13:54:49.681Z</time>
      </trkpt>
      <trkpt lat="43.06173" lon="-0.443245">
        <ele>629.0</ele>
        <time>2019-07-07T13:54:50.698Z</time>
      </trkpt>
      <trkpt lat="43.06173" lon="-0.443245">
        <ele>629.0</ele>
        <time>2019-07-07T13:54:51.675Z</time>
      </trkpt>
      <trkpt lat="43.06175" lon="-0.44318">
        <ele>629.0</ele>
        <time>2019-07-07T13:54:52.705Z</time>
      </trkpt>
      <trkpt lat="43.06175" lon="-0.44318">
        <ele>629.0</ele>
        <time>2019-07-07T13:54:53.686Z</time>
      </trkpt>
      <trkpt lat="43.06177333" lon="-0.44311167">
        <ele>630.0</ele>
        <time>2019-07-07T13:54:54.699Z</time>
      </trkpt>
      <trkpt lat="43.06177333" lon="-0.44311167">
        <ele>630.0</ele>
        <time>2019-07-07T13:54:55.665Z</time>
      </trkpt>
      <trkpt lat="43.06178667" lon="-0.44304167">
        <ele>631.0</ele>
        <time>2019-07-07T13:54:56.675Z</time>
      </trkpt>
      <trkpt lat="43.06178667" lon="-0.44304167">
        <ele>631.0</ele>
        <time>2019-07-07T13:54:57.686Z</time>
      </trkpt>
      <trkpt lat="43.06179667" lon="-0.44297333">
        <ele>631.0</ele>
        <time>2019-07-07T13:54:58.668Z</time>
      </trkpt>
      <trkpt lat="43.06181333" lon="-0.442905">
        <ele>631.0</ele>
        <time>2019-07-07T13:54:59.680Z</time>
      </trkpt>
      <trkpt lat="43.06181333" lon="-0.442905">
        <ele>631.0</ele>
        <time>2019-07-07T13:55:00.684Z</time>
      </trkpt>
      <trkpt lat="43.06182667" lon="-0.44287">
        <ele>632.0</ele>
        <time>2019-07-07T13:55:01.703Z</time>
      </trkpt>
      <trkpt lat="43.06182667" lon="-0.44287">
        <ele>632.0</ele>
        <time>2019-07-07T13:55:02.672Z</time>
      </trkpt>
      <trkpt lat="43.06184833" lon="-0.44279833">
        <ele>632.0</ele>
        <time>2019-07-07T13:55:03.689Z</time>
      </trkpt>
      <trkpt lat="43.06185667" lon="-0.442765">
        <ele>633.0</ele>
        <time>2019-07-07T13:55:04.690Z</time>
      </trkpt>
      <trkpt lat="43.061875" lon="-0.44269833">
        <ele>633.0</ele>
        <time>2019-07-07T13:55:05.696Z</time>
      </trkpt>
      <trkpt lat="43.061875" lon="-0.44269833">
        <ele>633.0</ele>
        <time>2019-07-07T13:55:06.673Z</time>
      </trkpt>
      <trkpt lat="43.061875" lon="-0.44269833">
        <ele>633.0</ele>
        <time>2019-07-07T13:55:07.671Z</time>
      </trkpt>
      <trkpt lat="43.06189" lon="-0.442625">
        <ele>634.0</ele>
        <time>2019-07-07T13:55:08.671Z</time>
      </trkpt>
      <trkpt lat="43.06189" lon="-0.442625">
        <ele>634.0</ele>
        <time>2019-07-07T13:55:09.679Z</time>
      </trkpt>
      <trkpt lat="43.06191" lon="-0.44255333">
        <ele>635.0</ele>
        <time>2019-07-07T13:55:10.700Z</time>
      </trkpt>
      <trkpt lat="43.06191" lon="-0.44255333">
        <ele>635.0</ele>
        <time>2019-07-07T13:55:11.681Z</time>
      </trkpt>
      <trkpt lat="43.06193667" lon="-0.44248167">
        <ele>635.0</ele>
        <time>2019-07-07T13:55:12.695Z</time>
      </trkpt>
      <trkpt lat="43.06195333" lon="-0.44240833">
        <ele>636.0</ele>
        <time>2019-07-07T13:55:13.701Z</time>
      </trkpt>
      <trkpt lat="43.06195333" lon="-0.44240833">
        <ele>636.0</ele>
        <time>2019-07-07T13:55:14.701Z</time>
      </trkpt>
      <trkpt lat="43.06196333" lon="-0.44237333">
        <ele>636.0</ele>
        <time>2019-07-07T13:55:15.676Z</time>
      </trkpt>
      <trkpt lat="43.06196333" lon="-0.44237333">
        <ele>636.0</ele>
        <time>2019-07-07T13:55:16.683Z</time>
      </trkpt>
      <trkpt lat="43.061985" lon="-0.442305">
        <ele>637.0</ele>
        <time>2019-07-07T13:55:17.679Z</time>
      </trkpt>
      <trkpt lat="43.061985" lon="-0.442305">
        <ele>637.0</ele>
        <time>2019-07-07T13:55:18.686Z</time>
      </trkpt>
      <trkpt lat="43.062005" lon="-0.442235">
        <ele>638.0</ele>
        <time>2019-07-07T13:55:19.673Z</time>
      </trkpt>
      <trkpt lat="43.06202333" lon="-0.442165">
        <ele>638.0</ele>
        <time>2019-07-07T13:55:20.682Z</time>
      </trkpt>
      <trkpt lat="43.06202333" lon="-0.442165">
        <ele>638.0</ele>
        <time>2019-07-07T13:55:21.678Z</time>
      </trkpt>
      <trkpt lat="43.06203" lon="-0.44213">
        <ele>639.0</ele>
        <time>2019-07-07T13:55:22.690Z</time>
      </trkpt>
      <trkpt lat="43.06204167" lon="-0.44206">
        <ele>639.0</ele>
        <time>2019-07-07T13:55:23.697Z</time>
      </trkpt>
      <trkpt lat="43.06204167" lon="-0.44206">
        <ele>639.0</ele>
        <time>2019-07-07T13:55:24.701Z</time>
      </trkpt>
      <trkpt lat="43.06204167" lon="-0.44206">
        <ele>639.0</ele>
        <time>2019-07-07T13:55:25.729Z</time>
      </trkpt>
      <trkpt lat="43.06206167" lon="-0.44199167">
        <ele>639.0</ele>
        <time>2019-07-07T13:55:26.689Z</time>
      </trkpt>
      <trkpt lat="43.06207833" lon="-0.441915">
        <ele>639.0</ele>
        <time>2019-07-07T13:55:27.696Z</time>
      </trkpt>
      <trkpt lat="43.06207833" lon="-0.441915">
        <ele>639.0</ele>
        <time>2019-07-07T13:55:28.679Z</time>
      </trkpt>
      <trkpt lat="43.062105" lon="-0.44184667">
        <ele>640.0</ele>
        <time>2019-07-07T13:55:29.688Z</time>
      </trkpt>
      <trkpt lat="43.062105" lon="-0.44184667">
        <ele>640.0</ele>
        <time>2019-07-07T13:55:30.676Z</time>
      </trkpt>
      <trkpt lat="43.06211667" lon="-0.44181">
        <ele>640.0</ele>
        <time>2019-07-07T13:55:31.680Z</time>
      </trkpt>
      <trkpt lat="43.06213667" lon="-0.44174167">
        <ele>641.0</ele>
        <time>2019-07-07T13:55:32.688Z</time>
      </trkpt>
      <trkpt lat="43.06213667" lon="-0.44174167">
        <ele>641.0</ele>
        <time>2019-07-07T13:55:33.675Z</time>
      </trkpt>
      <trkpt lat="43.06214667" lon="-0.44170833">
        <ele>641.0</ele>
        <time>2019-07-07T13:55:34.697Z</time>
      </trkpt>
      <trkpt lat="43.06214667" lon="-0.44170833">
        <ele>641.0</ele>
        <time>2019-07-07T13:55:35.684Z</time>
      </trkpt>
      <trkpt lat="43.062165" lon="-0.44164333">
        <ele>641.0</ele>
        <time>2019-07-07T13:55:36.683Z</time>
      </trkpt>
      <trkpt lat="43.062165" lon="-0.44164333">
        <ele>641.0</ele>
        <time>2019-07-07T13:55:37.691Z</time>
      </trkpt>
      <trkpt lat="43.0622" lon="-0.441535">
        <ele>642.0</ele>
        <time>2019-07-07T13:55:38.706Z</time>
      </trkpt>
      <trkpt lat="43.06221167" lon="-0.4415">
        <ele>642.0</ele>
        <time>2019-07-07T13:55:39.694Z</time>
      </trkpt>
      <trkpt lat="43.06221167" lon="-0.4415">
        <ele>642.0</ele>
        <time>2019-07-07T13:55:40.680Z</time>
      </trkpt>
      <trkpt lat="43.062235" lon="-0.44143">
        <ele>642.0</ele>
        <time>2019-07-07T13:55:41.687Z</time>
      </trkpt>
      <trkpt lat="43.062235" lon="-0.44143">
        <ele>642.0</ele>
        <time>2019-07-07T13:55:42.675Z</time>
      </trkpt>
      <trkpt lat="43.062245" lon="-0.44139833">
        <ele>642.0</ele>
        <time>2019-07-07T13:55:43.665Z</time>
      </trkpt>
      <trkpt lat="43.062255" lon="-0.441365">
        <ele>642.0</ele>
        <time>2019-07-07T13:55:44.680Z</time>
      </trkpt>
      <trkpt lat="43.062255" lon="-0.441365">
        <ele>642.0</ele>
        <time>2019-07-07T13:55:45.699Z</time>
      </trkpt>
      <trkpt lat="43.062275" lon="-0.44129667">
        <ele>643.0</ele>
        <time>2019-07-07T13:55:46.673Z</time>
      </trkpt>
      <trkpt lat="43.062275" lon="-0.44129667">
        <ele>643.0</ele>
        <time>2019-07-07T13:55:47.682Z</time>
      </trkpt>
      <trkpt lat="43.062295" lon="-0.44123167">
        <ele>643.0</ele>
        <time>2019-07-07T13:55:48.670Z</time>
      </trkpt>
      <trkpt lat="43.062295" lon="-0.44123167">
        <ele>643.0</ele>
        <time>2019-07-07T13:55:49.676Z</time>
      </trkpt>
      <trkpt lat="43.06231667" lon="-0.44116">
        <ele>644.0</ele>
        <time>2019-07-07T13:55:50.670Z</time>
      </trkpt>
      <trkpt lat="43.062325" lon="-0.441085">
        <ele>644.0</ele>
        <time>2019-07-07T13:55:51.683Z</time>
      </trkpt>
      <trkpt lat="43.062325" lon="-0.441085">
        <ele>644.0</ele>
        <time>2019-07-07T13:55:52.673Z</time>
      </trkpt>
      <trkpt lat="43.06233" lon="-0.441005">
        <ele>645.0</ele>
        <time>2019-07-07T13:55:53.685Z</time>
      </trkpt>
      <trkpt lat="43.06233" lon="-0.441005">
        <ele>645.0</ele>
        <time>2019-07-07T13:55:54.697Z</time>
      </trkpt>
      <trkpt lat="43.06233667" lon="-0.440965">
        <ele>645.0</ele>
        <time>2019-07-07T13:55:55.665Z</time>
      </trkpt>
      <trkpt lat="43.06233667" lon="-0.440965">
        <ele>645.0</ele>
        <time>2019-07-07T13:55:56.672Z</time>
      </trkpt>
      <trkpt lat="43.06234833" lon="-0.44084833">
        <ele>646.0</ele>
        <time>2019-07-07T13:55:57.702Z</time>
      </trkpt>
      <trkpt lat="43.06234833" lon="-0.44084833">
        <ele>646.0</ele>
        <time>2019-07-07T13:55:58.678Z</time>
      </trkpt>
      <trkpt lat="43.06234833" lon="-0.44084833">
        <ele>646.0</ele>
        <time>2019-07-07T13:55:59.685Z</time>
      </trkpt>
      <trkpt lat="43.06233833" lon="-0.44077167">
        <ele>647.0</ele>
        <time>2019-07-07T13:56:00.703Z</time>
      </trkpt>
      <trkpt lat="43.06233833" lon="-0.44077167">
        <ele>647.0</ele>
        <time>2019-07-07T13:56:01.675Z</time>
      </trkpt>
      <trkpt lat="43.06233333" lon="-0.44069667">
        <ele>647.0</ele>
        <time>2019-07-07T13:56:02.698Z</time>
      </trkpt>
      <trkpt lat="43.06233333" lon="-0.44069667">
        <ele>647.0</ele>
        <time>2019-07-07T13:56:03.669Z</time>
      </trkpt>
      <trkpt lat="43.062325" lon="-0.44062333">
        <ele>648.0</ele>
        <time>2019-07-07T13:56:04.665Z</time>
      </trkpt>
      <trkpt lat="43.062325" lon="-0.44062333">
        <ele>648.0</ele>
        <time>2019-07-07T13:56:05.684Z</time>
      </trkpt>
      <trkpt lat="43.06232" lon="-0.44054667">
        <ele>649.0</ele>
        <time>2019-07-07T13:56:06.701Z</time>
      </trkpt>
      <trkpt lat="43.06232" lon="-0.44054667">
        <ele>649.0</ele>
        <time>2019-07-07T13:56:07.674Z</time>
      </trkpt>
      <trkpt lat="43.06233167" lon="-0.44047667">
        <ele>649.0</ele>
        <time>2019-07-07T13:56:08.684Z</time>
      </trkpt>
      <trkpt lat="43.06235833" lon="-0.44041167">
        <ele>649.0</ele>
        <time>2019-07-07T13:56:09.703Z</time>
      </trkpt>
      <trkpt lat="43.06235833" lon="-0.44041167">
        <ele>649.0</ele>
        <time>2019-07-07T13:56:10.684Z</time>
      </trkpt>
      <trkpt lat="43.06239667" lon="-0.44035833">
        <ele>650.0</ele>
        <time>2019-07-07T13:56:11.691Z</time>
      </trkpt>
      <trkpt lat="43.06239667" lon="-0.44035833">
        <ele>650.0</ele>
        <time>2019-07-07T13:56:12.670Z</time>
      </trkpt>
      <trkpt lat="43.06239667" lon="-0.44035833">
        <ele>650.0</ele>
        <time>2019-07-07T13:56:13.676Z</time>
      </trkpt>
      <trkpt lat="43.06247667" lon="-0.44031167">
        <ele>650.0</ele>
        <time>2019-07-07T13:56:14.705Z</time>
      </trkpt>
      <trkpt lat="43.06250667" lon="-0.44030833">
        <ele>650.0</ele>
        <time>2019-07-07T13:56:15.703Z</time>
      </trkpt>
      <trkpt lat="43.06250667" lon="-0.44030833">
        <ele>650.0</ele>
        <time>2019-07-07T13:56:16.686Z</time>
      </trkpt>
      <trkpt lat="43.062565" lon="-0.440315">
        <ele>650.0</ele>
        <time>2019-07-07T13:56:17.693Z</time>
      </trkpt>
      <trkpt lat="43.062565" lon="-0.440315">
        <ele>650.0</ele>
        <time>2019-07-07T13:56:18.677Z</time>
      </trkpt>
      <trkpt lat="43.06261833" lon="-0.44035">
        <ele>651.0</ele>
        <time>2019-07-07T13:56:19.683Z</time>
      </trkpt>
      <trkpt lat="43.06261833" lon="-0.44035">
        <ele>651.0</ele>
        <time>2019-07-07T13:56:20.676Z</time>
      </trkpt>
      <trkpt lat="43.06264" lon="-0.440375">
        <ele>651.0</ele>
        <time>2019-07-07T13:56:21.685Z</time>
      </trkpt>
      <trkpt lat="43.06265833" lon="-0.44040667">
        <ele>651.0</ele>
        <time>2019-07-07T13:56:22.679Z</time>
      </trkpt>
      <trkpt lat="43.06265833" lon="-0.44040667">
        <ele>651.0</ele>
        <time>2019-07-07T13:56:23.669Z</time>
      </trkpt>
      <trkpt lat="43.06268667" lon="-0.44047833">
        <ele>651.0</ele>
        <time>2019-07-07T13:56:24.676Z</time>
      </trkpt>
      <trkpt lat="43.06269167" lon="-0.44052">
        <ele>652.0</ele>
        <time>2019-07-07T13:56:25.694Z</time>
      </trkpt>
      <trkpt lat="43.06268667" lon="-0.4406">
        <ele>652.0</ele>
        <time>2019-07-07T13:56:26.700Z</time>
      </trkpt>
      <trkpt lat="43.06268667" lon="-0.4406">
        <ele>652.0</ele>
        <time>2019-07-07T13:56:27.679Z</time>
      </trkpt>
      <trkpt lat="43.06268667" lon="-0.4406">
        <ele>652.0</ele>
        <time>2019-07-07T13:56:28.698Z</time>
      </trkpt>
      <trkpt lat="43.06267" lon="-0.44068167">
        <ele>652.0</ele>
        <time>2019-07-07T13:56:29.677Z</time>
      </trkpt>
      <trkpt lat="43.06264333" lon="-0.440765">
        <ele>653.0</ele>
        <time>2019-07-07T13:56:30.684Z</time>
      </trkpt>
      <trkpt lat="43.06263" lon="-0.44080667">
        <ele>653.0</ele>
        <time>2019-07-07T13:56:31.681Z</time>
      </trkpt>
      <trkpt lat="43.06263" lon="-0.44080667">
        <ele>653.0</ele>
        <time>2019-07-07T13:56:32.667Z</time>
      </trkpt>
      <trkpt lat="43.06261667" lon="-0.44084833">
        <ele>653.0</ele>
        <time>2019-07-07T13:56:33.689Z</time>
      </trkpt>
      <trkpt lat="43.06259833" lon="-0.44092833">
        <ele>653.0</ele>
        <time>2019-07-07T13:56:34.695Z</time>
      </trkpt>
      <trkpt lat="43.06259833" lon="-0.44092833">
        <ele>653.0</ele>
        <time>2019-07-07T13:56:35.683Z</time>
      </trkpt>
      <trkpt lat="43.06258833" lon="-0.44100833">
        <ele>654.0</ele>
        <time>2019-07-07T13:56:36.773Z</time>
      </trkpt>
      <trkpt lat="43.062585" lon="-0.44104667">
        <ele>654.0</ele>
        <time>2019-07-07T13:56:37.690Z</time>
      </trkpt>
      <trkpt lat="43.062585" lon="-0.44104667">
        <ele>654.0</ele>
        <time>2019-07-07T13:56:38.680Z</time>
      </trkpt>
      <trkpt lat="43.06258333" lon="-0.441085">
        <ele>655.0</ele>
        <time>2019-07-07T13:56:39.697Z</time>
      </trkpt>
      <trkpt lat="43.06258833" lon="-0.44116167">
        <ele>655.0</ele>
        <time>2019-07-07T13:56:40.704Z</time>
      </trkpt>
      <trkpt lat="43.06258833" lon="-0.44116167">
        <ele>655.0</ele>
        <time>2019-07-07T13:56:41.683Z</time>
      </trkpt>
      <trkpt lat="43.06259667" lon="-0.44123667">
        <ele>656.0</ele>
        <time>2019-07-07T13:56:42.690Z</time>
      </trkpt>
      <trkpt lat="43.06259667" lon="-0.44123667">
        <ele>656.0</ele>
        <time>2019-07-07T13:56:43.684Z</time>
      </trkpt>
      <trkpt lat="43.06259667" lon="-0.44123667">
        <ele>656.0</ele>
        <time>2019-07-07T13:56:44.687Z</time>
      </trkpt>
      <trkpt lat="43.06260333" lon="-0.44131">
        <ele>657.0</ele>
        <time>2019-07-07T13:56:45.675Z</time>
      </trkpt>
      <trkpt lat="43.062605" lon="-0.44134333">
        <ele>657.0</ele>
        <time>2019-07-07T13:56:46.673Z</time>
      </trkpt>
      <trkpt lat="43.06261" lon="-0.44141667">
        <ele>658.0</ele>
        <time>2019-07-07T13:56:47.683Z</time>
      </trkpt>
      <trkpt lat="43.06261" lon="-0.44141667">
        <ele>658.0</ele>
        <time>2019-07-07T13:56:48.670Z</time>
      </trkpt>
      <trkpt lat="43.06261" lon="-0.44141667">
        <ele>658.0</ele>
        <time>2019-07-07T13:56:49.686Z</time>
      </trkpt>
      <trkpt lat="43.062615" lon="-0.44148667">
        <ele>659.0</ele>
        <time>2019-07-07T13:56:50.680Z</time>
      </trkpt>
      <trkpt lat="43.06261667" lon="-0.44155333">
        <ele>660.0</ele>
        <time>2019-07-07T13:56:51.688Z</time>
      </trkpt>
      <trkpt lat="43.06261667" lon="-0.44155333">
        <ele>660.0</ele>
        <time>2019-07-07T13:56:52.684Z</time>
      </trkpt>
      <trkpt lat="43.06261667" lon="-0.44155333">
        <ele>660.0</ele>
        <time>2019-07-07T13:56:53.686Z</time>
      </trkpt>
      <trkpt lat="43.06262167" lon="-0.441625">
        <ele>662.0</ele>
        <time>2019-07-07T13:56:54.687Z</time>
      </trkpt>
      <trkpt lat="43.062625" lon="-0.44169">
        <ele>663.0</ele>
        <time>2019-07-07T13:56:55.694Z</time>
      </trkpt>
      <trkpt lat="43.062625" lon="-0.44169">
        <ele>663.0</ele>
        <time>2019-07-07T13:56:56.672Z</time>
      </trkpt>
      <trkpt lat="43.062625" lon="-0.44169">
        <ele>663.0</ele>
        <time>2019-07-07T13:56:57.687Z</time>
      </trkpt>
      <trkpt lat="43.062625" lon="-0.44175167">
        <ele>664.0</ele>
        <time>2019-07-07T13:56:58.670Z</time>
      </trkpt>
      <trkpt lat="43.062625" lon="-0.44175167">
        <ele>664.0</ele>
        <time>2019-07-07T13:56:59.679Z</time>
      </trkpt>
      <trkpt lat="43.06262167" lon="-0.44181833">
        <ele>665.0</ele>
        <time>2019-07-07T13:57:00.671Z</time>
      </trkpt>
      <trkpt lat="43.06261833" lon="-0.44188667">
        <ele>666.0</ele>
        <time>2019-07-07T13:57:01.680Z</time>
      </trkpt>
      <trkpt lat="43.06261833" lon="-0.44188667">
        <ele>666.0</ele>
        <time>2019-07-07T13:57:02.683Z</time>
      </trkpt>
      <trkpt lat="43.06261833" lon="-0.44188667">
        <ele>666.0</ele>
        <time>2019-07-07T13:57:03.689Z</time>
      </trkpt>
      <trkpt lat="43.062615" lon="-0.44195667">
        <ele>667.0</ele>
        <time>2019-07-07T13:57:04.695Z</time>
      </trkpt>
      <trkpt lat="43.062615" lon="-0.44202833">
        <ele>667.0</ele>
        <time>2019-07-07T13:57:05.702Z</time>
      </trkpt>
      <trkpt lat="43.06261667" lon="-0.44206167">
        <ele>668.0</ele>
        <time>2019-07-07T13:57:06.689Z</time>
      </trkpt>
      <trkpt lat="43.06261667" lon="-0.44206167">
        <ele>668.0</ele>
        <time>2019-07-07T13:57:07.702Z</time>
      </trkpt>
      <trkpt lat="43.06261667" lon="-0.44206167">
        <ele>668.0</ele>
        <time>2019-07-07T13:57:08.671Z</time>
      </trkpt>
      <trkpt lat="43.06262333" lon="-0.44218833">
        <ele>669.0</ele>
        <time>2019-07-07T13:57:09.695Z</time>
      </trkpt>
      <trkpt lat="43.06262333" lon="-0.44218833">
        <ele>669.0</ele>
        <time>2019-07-07T13:57:10.684Z</time>
      </trkpt>
      <trkpt lat="43.06262167" lon="-0.44226667">
        <ele>669.0</ele>
        <time>2019-07-07T13:57:11.702Z</time>
      </trkpt>
      <trkpt lat="43.06262167" lon="-0.442305">
        <ele>670.0</ele>
        <time>2019-07-07T13:57:12.722Z</time>
      </trkpt>
      <trkpt lat="43.06262167" lon="-0.442305">
        <ele>670.0</ele>
        <time>2019-07-07T13:57:13.674Z</time>
      </trkpt>
      <trkpt lat="43.06262167" lon="-0.442305">
        <ele>670.0</ele>
        <time>2019-07-07T13:57:14.681Z</time>
      </trkpt>
      <trkpt lat="43.06262" lon="-0.44237667">
        <ele>671.0</ele>
        <time>2019-07-07T13:57:15.687Z</time>
      </trkpt>
      <trkpt lat="43.06261833" lon="-0.442415">
        <ele>671.0</ele>
        <time>2019-07-07T13:57:16.673Z</time>
      </trkpt>
      <trkpt lat="43.06261667" lon="-0.44248833">
        <ele>672.0</ele>
        <time>2019-07-07T13:57:17.680Z</time>
      </trkpt>
      <trkpt lat="43.06261667" lon="-0.44248833">
        <ele>672.0</ele>
        <time>2019-07-07T13:57:18.675Z</time>
      </trkpt>
      <trkpt lat="43.06261333" lon="-0.44251833">
        <ele>672.0</ele>
        <time>2019-07-07T13:57:19.695Z</time>
      </trkpt>
      <trkpt lat="43.06261167" lon="-0.44258833">
        <ele>673.0</ele>
        <time>2019-07-07T13:57:20.701Z</time>
      </trkpt>
      <trkpt lat="43.06261167" lon="-0.44258833">
        <ele>673.0</ele>
        <time>2019-07-07T13:57:21.680Z</time>
      </trkpt>
      <trkpt lat="43.06261167" lon="-0.44265333">
        <ele>674.0</ele>
        <time>2019-07-07T13:57:22.704Z</time>
      </trkpt>
      <trkpt lat="43.06261167" lon="-0.44265333">
        <ele>674.0</ele>
        <time>2019-07-07T13:57:23.674Z</time>
      </trkpt>
      <trkpt lat="43.06260833" lon="-0.44272333">
        <ele>674.0</ele>
        <time>2019-07-07T13:57:24.695Z</time>
      </trkpt>
      <trkpt lat="43.06261" lon="-0.44275833">
        <ele>674.0</ele>
        <time>2019-07-07T13:57:25.701Z</time>
      </trkpt>
      <trkpt lat="43.06261" lon="-0.44275833">
        <ele>674.0</ele>
        <time>2019-07-07T13:57:26.684Z</time>
      </trkpt>
      <trkpt lat="43.06261" lon="-0.44275833">
        <ele>674.0</ele>
        <time>2019-07-07T13:57:27.784Z</time>
      </trkpt>
      <trkpt lat="43.06260833" lon="-0.442825">
        <ele>675.0</ele>
        <time>2019-07-07T13:57:28.701Z</time>
      </trkpt>
      <trkpt lat="43.06260833" lon="-0.442825">
        <ele>675.0</ele>
        <time>2019-07-07T13:57:29.671Z</time>
      </trkpt>
      <trkpt lat="43.06260833" lon="-0.44289167">
        <ele>675.0</ele>
        <time>2019-07-07T13:57:30.704Z</time>
      </trkpt>
      <trkpt lat="43.06260833" lon="-0.44289167">
        <ele>675.0</ele>
        <time>2019-07-07T13:57:31.672Z</time>
      </trkpt>
      <trkpt lat="43.06260667" lon="-0.442965">
        <ele>676.0</ele>
        <time>2019-07-07T13:57:32.695Z</time>
      </trkpt>
      <trkpt lat="43.062605" lon="-0.44303333">
        <ele>676.0</ele>
        <time>2019-07-07T13:57:33.782Z</time>
      </trkpt>
      <trkpt lat="43.062605" lon="-0.44303333">
        <ele>676.0</ele>
        <time>2019-07-07T13:57:34.697Z</time>
      </trkpt>
      <trkpt lat="43.06260833" lon="-0.44309833">
        <ele>677.0</ele>
        <time>2019-07-07T13:57:35.704Z</time>
      </trkpt>
      <trkpt lat="43.06260833" lon="-0.44309833">
        <ele>677.0</ele>
        <time>2019-07-07T13:57:36.680Z</time>
      </trkpt>
      <trkpt lat="43.06260667" lon="-0.443165">
        <ele>677.0</ele>
        <time>2019-07-07T13:57:37.687Z</time>
      </trkpt>
      <trkpt lat="43.06260667" lon="-0.443165">
        <ele>677.0</ele>
        <time>2019-07-07T13:57:38.682Z</time>
      </trkpt>
      <trkpt lat="43.06260667" lon="-0.443165">
        <ele>677.0</ele>
        <time>2019-07-07T13:57:39.688Z</time>
      </trkpt>
      <trkpt lat="43.06260333" lon="-0.44324">
        <ele>677.0</ele>
        <time>2019-07-07T13:57:40.673Z</time>
      </trkpt>
      <trkpt lat="43.06260333" lon="-0.44324">
        <ele>677.0</ele>
        <time>2019-07-07T13:57:41.679Z</time>
      </trkpt>
      <trkpt lat="43.06261" lon="-0.443355">
        <ele>678.0</ele>
        <time>2019-07-07T13:57:42.700Z</time>
      </trkpt>
      <trkpt lat="43.06261" lon="-0.443355">
        <ele>678.0</ele>
        <time>2019-07-07T13:57:43.667Z</time>
      </trkpt>
      <trkpt lat="43.06261" lon="-0.443355">
        <ele>678.0</ele>
        <time>2019-07-07T13:57:44.674Z</time>
      </trkpt>
      <trkpt lat="43.06261" lon="-0.44342333">
        <ele>679.0</ele>
        <time>2019-07-07T13:57:45.682Z</time>
      </trkpt>
      <trkpt lat="43.06261333" lon="-0.443485">
        <ele>679.0</ele>
        <time>2019-07-07T13:57:46.690Z</time>
      </trkpt>
      <trkpt lat="43.06261333" lon="-0.443485">
        <ele>679.0</ele>
        <time>2019-07-07T13:57:47.699Z</time>
      </trkpt>
      <trkpt lat="43.06261333" lon="-0.443485">
        <ele>679.0</ele>
        <time>2019-07-07T13:57:48.673Z</time>
      </trkpt>
      <trkpt lat="43.06261167" lon="-0.443555">
        <ele>680.0</ele>
        <time>2019-07-07T13:57:49.677Z</time>
      </trkpt>
      <trkpt lat="43.06261167" lon="-0.443555">
        <ele>680.0</ele>
        <time>2019-07-07T13:57:50.688Z</time>
      </trkpt>
      <trkpt lat="43.06261833" lon="-0.44362167">
        <ele>681.0</ele>
        <time>2019-07-07T13:57:51.689Z</time>
      </trkpt>
      <trkpt lat="43.06262167" lon="-0.44368667">
        <ele>681.0</ele>
        <time>2019-07-07T13:57:52.704Z</time>
      </trkpt>
      <trkpt lat="43.06262167" lon="-0.44368667">
        <ele>681.0</ele>
        <time>2019-07-07T13:57:53.696Z</time>
      </trkpt>
      <trkpt lat="43.06262" lon="-0.44371667">
        <ele>681.0</ele>
        <time>2019-07-07T13:57:54.672Z</time>
      </trkpt>
      <trkpt lat="43.06262" lon="-0.44371667">
        <ele>681.0</ele>
        <time>2019-07-07T13:57:55.682Z</time>
      </trkpt>
      <trkpt lat="43.06262" lon="-0.44377667">
        <ele>682.0</ele>
        <time>2019-07-07T13:57:56.681Z</time>
      </trkpt>
      <trkpt lat="43.062625" lon="-0.44384667">
        <ele>682.0</ele>
        <time>2019-07-07T13:57:57.713Z</time>
      </trkpt>
      <trkpt lat="43.062625" lon="-0.44384667">
        <ele>682.0</ele>
        <time>2019-07-07T13:57:58.694Z</time>
      </trkpt>
      <trkpt lat="43.06262667" lon="-0.44391333">
        <ele>682.0</ele>
        <time>2019-07-07T13:57:59.701Z</time>
      </trkpt>
      <trkpt lat="43.06263" lon="-0.44395167">
        <ele>683.0</ele>
        <time>2019-07-07T13:58:00.690Z</time>
      </trkpt>
      <trkpt lat="43.06263333" lon="-0.443985">
        <ele>683.0</ele>
        <time>2019-07-07T13:58:01.703Z</time>
      </trkpt>
      <trkpt lat="43.06263333" lon="-0.443985">
        <ele>683.0</ele>
        <time>2019-07-07T13:58:02.665Z</time>
      </trkpt>
      <trkpt lat="43.06263333" lon="-0.443985">
        <ele>683.0</ele>
        <time>2019-07-07T13:58:03.679Z</time>
      </trkpt>
      <trkpt lat="43.06263667" lon="-0.44405333">
        <ele>683.0</ele>
        <time>2019-07-07T13:58:04.702Z</time>
      </trkpt>
      <trkpt lat="43.06263667" lon="-0.44405333">
        <ele>683.0</ele>
        <time>2019-07-07T13:58:05.669Z</time>
      </trkpt>
      <trkpt lat="43.06264167" lon="-0.44415167">
        <ele>684.0</ele>
        <time>2019-07-07T13:58:06.703Z</time>
      </trkpt>
      <trkpt lat="43.06264167" lon="-0.44415167">
        <ele>684.0</ele>
        <time>2019-07-07T13:58:07.679Z</time>
      </trkpt>
      <trkpt lat="43.06264167" lon="-0.44418333">
        <ele>684.0</ele>
        <time>2019-07-07T13:58:08.701Z</time>
      </trkpt>
      <trkpt lat="43.06264167" lon="-0.44418333">
        <ele>684.0</ele>
        <time>2019-07-07T13:58:09.667Z</time>
      </trkpt>
      <trkpt lat="43.062645" lon="-0.444255">
        <ele>685.0</ele>
        <time>2019-07-07T13:58:10.687Z</time>
      </trkpt>
      <trkpt lat="43.06264667" lon="-0.44433167">
        <ele>685.0</ele>
        <time>2019-07-07T13:58:11.787Z</time>
      </trkpt>
      <trkpt lat="43.06264667" lon="-0.44433167">
        <ele>685.0</ele>
        <time>2019-07-07T13:58:12.686Z</time>
      </trkpt>
      <trkpt lat="43.062645" lon="-0.444405">
        <ele>685.0</ele>
        <time>2019-07-07T13:58:13.694Z</time>
      </trkpt>
      <trkpt lat="43.062645" lon="-0.444405">
        <ele>685.0</ele>
        <time>2019-07-07T13:58:14.696Z</time>
      </trkpt>
      <trkpt lat="43.06263667" lon="-0.444475">
        <ele>686.0</ele>
        <time>2019-07-07T13:58:15.703Z</time>
      </trkpt>
      <trkpt lat="43.06263667" lon="-0.444475">
        <ele>686.0</ele>
        <time>2019-07-07T13:58:16.680Z</time>
      </trkpt>
      <trkpt lat="43.06263667" lon="-0.444475">
        <ele>686.0</ele>
        <time>2019-07-07T13:58:17.686Z</time>
      </trkpt>
      <trkpt lat="43.06263" lon="-0.444545">
        <ele>687.0</ele>
        <time>2019-07-07T13:58:18.677Z</time>
      </trkpt>
      <trkpt lat="43.06261833" lon="-0.44461667">
        <ele>687.0</ele>
        <time>2019-07-07T13:58:19.684Z</time>
      </trkpt>
      <trkpt lat="43.06261" lon="-0.44465167">
        <ele>688.0</ele>
        <time>2019-07-07T13:58:20.791Z</time>
      </trkpt>
      <trkpt lat="43.06261" lon="-0.44465167">
        <ele>688.0</ele>
        <time>2019-07-07T13:58:21.681Z</time>
      </trkpt>
      <trkpt lat="43.06260167" lon="-0.44472">
        <ele>689.0</ele>
        <time>2019-07-07T13:58:22.697Z</time>
      </trkpt>
      <trkpt lat="43.06260167" lon="-0.44472">
        <ele>689.0</ele>
        <time>2019-07-07T13:58:23.703Z</time>
      </trkpt>
      <trkpt lat="43.06260167" lon="-0.44472">
        <ele>689.0</ele>
        <time>2019-07-07T13:58:24.674Z</time>
      </trkpt>
      <trkpt lat="43.062595" lon="-0.44482">
        <ele>689.0</ele>
        <time>2019-07-07T13:58:25.699Z</time>
      </trkpt>
      <trkpt lat="43.062595" lon="-0.44482">
        <ele>689.0</ele>
        <time>2019-07-07T13:58:26.683Z</time>
      </trkpt>
      <trkpt lat="43.06258833" lon="-0.44488333">
        <ele>689.0</ele>
        <time>2019-07-07T13:58:27.693Z</time>
      </trkpt>
      <trkpt lat="43.06258833" lon="-0.44488333">
        <ele>689.0</ele>
        <time>2019-07-07T13:58:28.684Z</time>
      </trkpt>
      <trkpt lat="43.06258833" lon="-0.44488333">
        <ele>689.0</ele>
        <time>2019-07-07T13:58:29.699Z</time>
      </trkpt>
      <trkpt lat="43.06258" lon="-0.44495">
        <ele>690.0</ele>
        <time>2019-07-07T13:58:30.683Z</time>
      </trkpt>
      <trkpt lat="43.06257167" lon="-0.44501">
        <ele>690.0</ele>
        <time>2019-07-07T13:58:31.679Z</time>
      </trkpt>
      <trkpt lat="43.06257167" lon="-0.44501">
        <ele>690.0</ele>
        <time>2019-07-07T13:58:32.692Z</time>
      </trkpt>
      <trkpt lat="43.06257" lon="-0.44507333">
        <ele>691.0</ele>
        <time>2019-07-07T13:58:33.699Z</time>
      </trkpt>
      <trkpt lat="43.06257" lon="-0.44507333">
        <ele>691.0</ele>
        <time>2019-07-07T13:58:34.680Z</time>
      </trkpt>
      <trkpt lat="43.06256833" lon="-0.44514">
        <ele>691.0</ele>
        <time>2019-07-07T13:58:35.687Z</time>
      </trkpt>
      <trkpt lat="43.06256833" lon="-0.44514">
        <ele>691.0</ele>
        <time>2019-07-07T13:58:36.687Z</time>
      </trkpt>
      <trkpt lat="43.06256833" lon="-0.44520167">
        <ele>691.0</ele>
        <time>2019-07-07T13:58:37.791Z</time>
      </trkpt>
      <trkpt lat="43.06256833" lon="-0.44520167">
        <ele>691.0</ele>
        <time>2019-07-07T13:58:38.702Z</time>
      </trkpt>
      <trkpt lat="43.06256833" lon="-0.44520167">
        <ele>691.0</ele>
        <time>2019-07-07T13:58:39.668Z</time>
      </trkpt>
      <trkpt lat="43.062575" lon="-0.44526833">
        <ele>693.0</ele>
        <time>2019-07-07T13:58:40.680Z</time>
      </trkpt>
      <trkpt lat="43.06258" lon="-0.44534833">
        <ele>694.0</ele>
        <time>2019-07-07T13:58:41.687Z</time>
      </trkpt>
      <trkpt lat="43.06258" lon="-0.44534833">
        <ele>694.0</ele>
        <time>2019-07-07T13:58:42.677Z</time>
      </trkpt>
      <trkpt lat="43.06258" lon="-0.44534833">
        <ele>694.0</ele>
        <time>2019-07-07T13:58:43.686Z</time>
      </trkpt>
      <trkpt lat="43.06257333" lon="-0.44542167">
        <ele>694.0</ele>
        <time>2019-07-07T13:58:44.700Z</time>
      </trkpt>
      <trkpt lat="43.06257333" lon="-0.44542167">
        <ele>694.0</ele>
        <time>2019-07-07T13:58:45.676Z</time>
      </trkpt>
      <trkpt lat="43.06256333" lon="-0.44549667">
        <ele>695.0</ele>
        <time>2019-07-07T13:58:46.699Z</time>
      </trkpt>
      <trkpt lat="43.06256333" lon="-0.44549667">
        <ele>695.0</ele>
        <time>2019-07-07T13:58:47.665Z</time>
      </trkpt>
      <trkpt lat="43.06253667" lon="-0.44561167">
        <ele>696.0</ele>
        <time>2019-07-07T13:58:48.702Z</time>
      </trkpt>
      <trkpt lat="43.06253667" lon="-0.44561167">
        <ele>696.0</ele>
        <time>2019-07-07T13:58:49.686Z</time>
      </trkpt>
      <trkpt lat="43.062535" lon="-0.44565">
        <ele>695.0</ele>
        <time>2019-07-07T13:58:50.693Z</time>
      </trkpt>
      <trkpt lat="43.06253833" lon="-0.44572333">
        <ele>696.0</ele>
        <time>2019-07-07T13:58:51.701Z</time>
      </trkpt>
      <trkpt lat="43.06253833" lon="-0.44572333">
        <ele>696.0</ele>
        <time>2019-07-07T13:58:52.689Z</time>
      </trkpt>
      <trkpt lat="43.062545" lon="-0.445795">
        <ele>697.0</ele>
        <time>2019-07-07T13:58:53.761Z</time>
      </trkpt>
      <trkpt lat="43.062545" lon="-0.445795">
        <ele>697.0</ele>
        <time>2019-07-07T13:58:54.671Z</time>
      </trkpt>
      <trkpt lat="43.06254833" lon="-0.44587">
        <ele>697.0</ele>
        <time>2019-07-07T13:58:55.689Z</time>
      </trkpt>
      <trkpt lat="43.06254833" lon="-0.44587">
        <ele>697.0</ele>
        <time>2019-07-07T13:58:56.686Z</time>
      </trkpt>
      <trkpt lat="43.06254833" lon="-0.44587">
        <ele>697.0</ele>
        <time>2019-07-07T13:58:57.693Z</time>
      </trkpt>
      <trkpt lat="43.062555" lon="-0.44594167">
        <ele>697.0</ele>
        <time>2019-07-07T13:58:58.679Z</time>
      </trkpt>
      <trkpt lat="43.06256333" lon="-0.44600667">
        <ele>697.0</ele>
        <time>2019-07-07T13:58:59.689Z</time>
      </trkpt>
      <trkpt lat="43.06256333" lon="-0.44600667">
        <ele>697.0</ele>
        <time>2019-07-07T13:59:00.681Z</time>
      </trkpt>
      <trkpt lat="43.06257" lon="-0.44607333">
        <ele>697.0</ele>
        <time>2019-07-07T13:59:01.689Z</time>
      </trkpt>
      <trkpt lat="43.06257" lon="-0.44607333">
        <ele>697.0</ele>
        <time>2019-07-07T13:59:02.676Z</time>
      </trkpt>
      <trkpt lat="43.06257" lon="-0.44607333">
        <ele>697.0</ele>
        <time>2019-07-07T13:59:03.688Z</time>
      </trkpt>
      <trkpt lat="43.062575" lon="-0.44614667">
        <ele>697.0</ele>
        <time>2019-07-07T13:59:04.685Z</time>
      </trkpt>
      <trkpt lat="43.06258167" lon="-0.44621167">
        <ele>697.0</ele>
        <time>2019-07-07T13:59:05.696Z</time>
      </trkpt>
      <trkpt lat="43.06258167" lon="-0.44621167">
        <ele>697.0</ele>
        <time>2019-07-07T13:59:06.677Z</time>
      </trkpt>
      <trkpt lat="43.06259" lon="-0.446285">
        <ele>698.0</ele>
        <time>2019-07-07T13:59:07.688Z</time>
      </trkpt>
      <trkpt lat="43.06259" lon="-0.446285">
        <ele>698.0</ele>
        <time>2019-07-07T13:59:08.684Z</time>
      </trkpt>
      <trkpt lat="43.06260333" lon="-0.44635333">
        <ele>698.0</ele>
        <time>2019-07-07T13:59:09.691Z</time>
      </trkpt>
      <trkpt lat="43.06260333" lon="-0.44635333">
        <ele>698.0</ele>
        <time>2019-07-07T13:59:10.687Z</time>
      </trkpt>
      <trkpt lat="43.06261833" lon="-0.44642">
        <ele>699.0</ele>
        <time>2019-07-07T13:59:11.702Z</time>
      </trkpt>
      <trkpt lat="43.06263" lon="-0.44644667">
        <ele>698.0</ele>
        <time>2019-07-07T13:59:12.682Z</time>
      </trkpt>
      <trkpt lat="43.06263" lon="-0.44644667">
        <ele>698.0</ele>
        <time>2019-07-07T13:59:13.690Z</time>
      </trkpt>
      <trkpt lat="43.06264667" lon="-0.44649667">
        <ele>698.0</ele>
        <time>2019-07-07T13:59:14.697Z</time>
      </trkpt>
      <trkpt lat="43.06265333" lon="-0.44653">
        <ele>698.0</ele>
        <time>2019-07-07T13:59:15.701Z</time>
      </trkpt>
      <trkpt lat="43.06265333" lon="-0.44653">
        <ele>698.0</ele>
        <time>2019-07-07T13:59:16.702Z</time>
      </trkpt>
      <trkpt lat="43.06265333" lon="-0.44653">
        <ele>698.0</ele>
        <time>2019-07-07T13:59:17.671Z</time>
      </trkpt>
      <trkpt lat="43.06267" lon="-0.44660333">
        <ele>699.0</ele>
        <time>2019-07-07T13:59:18.693Z</time>
      </trkpt>
      <trkpt lat="43.06269" lon="-0.44668167">
        <ele>699.0</ele>
        <time>2019-07-07T13:59:19.699Z</time>
      </trkpt>
      <trkpt lat="43.06269667" lon="-0.44672167">
        <ele>700.0</ele>
        <time>2019-07-07T13:59:20.683Z</time>
      </trkpt>
      <trkpt lat="43.06269667" lon="-0.44672167">
        <ele>700.0</ele>
        <time>2019-07-07T13:59:21.671Z</time>
      </trkpt>
      <trkpt lat="43.06271" lon="-0.446795">
        <ele>700.0</ele>
        <time>2019-07-07T13:59:22.690Z</time>
      </trkpt>
      <trkpt lat="43.06271" lon="-0.446795">
        <ele>700.0</ele>
        <time>2019-07-07T13:59:23.683Z</time>
      </trkpt>
      <trkpt lat="43.06272333" lon="-0.44686167">
        <ele>700.0</ele>
        <time>2019-07-07T13:59:24.692Z</time>
      </trkpt>
      <trkpt lat="43.06272333" lon="-0.44686167">
        <ele>700.0</ele>
        <time>2019-07-07T13:59:25.686Z</time>
      </trkpt>
      <trkpt lat="43.062735" lon="-0.44693">
        <ele>700.0</ele>
        <time>2019-07-07T13:59:26.694Z</time>
      </trkpt>
      <trkpt lat="43.06274" lon="-0.44696333">
        <ele>700.0</ele>
        <time>2019-07-07T13:59:27.695Z</time>
      </trkpt>
      <trkpt lat="43.06274" lon="-0.44696333">
        <ele>700.0</ele>
        <time>2019-07-07T13:59:28.679Z</time>
      </trkpt>
      <trkpt lat="43.062755" lon="-0.44703833">
        <ele>701.0</ele>
        <time>2019-07-07T13:59:29.698Z</time>
      </trkpt>
      <trkpt lat="43.062755" lon="-0.44703833">
        <ele>701.0</ele>
        <time>2019-07-07T13:59:30.675Z</time>
      </trkpt>
      <trkpt lat="43.06276667" lon="-0.44711167">
        <ele>701.0</ele>
        <time>2019-07-07T13:59:31.681Z</time>
      </trkpt>
      <trkpt lat="43.06276667" lon="-0.44711167">
        <ele>701.0</ele>
        <time>2019-07-07T13:59:32.682Z</time>
      </trkpt>
      <trkpt lat="43.06277667" lon="-0.44718">
        <ele>702.0</ele>
        <time>2019-07-07T13:59:33.689Z</time>
      </trkpt>
      <trkpt lat="43.06277667" lon="-0.44718">
        <ele>702.0</ele>
        <time>2019-07-07T13:59:34.682Z</time>
      </trkpt>
      <trkpt lat="43.06279333" lon="-0.44724667">
        <ele>703.0</ele>
        <time>2019-07-07T13:59:35.688Z</time>
      </trkpt>
      <trkpt lat="43.06279333" lon="-0.44724667">
        <ele>703.0</ele>
        <time>2019-07-07T13:59:36.678Z</time>
      </trkpt>
      <trkpt lat="43.06279833" lon="-0.44728333">
        <ele>703.0</ele>
        <time>2019-07-07T13:59:37.672Z</time>
      </trkpt>
      <trkpt lat="43.06279833" lon="-0.44728333">
        <ele>703.0</ele>
        <time>2019-07-07T13:59:38.684Z</time>
      </trkpt>
      <trkpt lat="43.06281333" lon="-0.447385">
        <ele>704.0</ele>
        <time>2019-07-07T13:59:39.682Z</time>
      </trkpt>
      <trkpt lat="43.06281333" lon="-0.447385">
        <ele>704.0</ele>
        <time>2019-07-07T13:59:40.665Z</time>
      </trkpt>
      <trkpt lat="43.06281333" lon="-0.447385">
        <ele>704.0</ele>
        <time>2019-07-07T13:59:41.676Z</time>
      </trkpt>
      <trkpt lat="43.06282167" lon="-0.44744667">
        <ele>705.0</ele>
        <time>2019-07-07T13:59:42.671Z</time>
      </trkpt>
      <trkpt lat="43.06284333" lon="-0.447515">
        <ele>705.0</ele>
        <time>2019-07-07T13:59:43.695Z</time>
      </trkpt>
      <trkpt lat="43.06284667" lon="-0.447555">
        <ele>705.0</ele>
        <time>2019-07-07T13:59:44.686Z</time>
      </trkpt>
      <trkpt lat="43.06284667" lon="-0.44758833">
        <ele>706.0</ele>
        <time>2019-07-07T13:59:45.683Z</time>
      </trkpt>
      <trkpt lat="43.06284667" lon="-0.44758833">
        <ele>706.0</ele>
        <time>2019-07-07T13:59:46.685Z</time>
      </trkpt>
      <trkpt lat="43.06286833" lon="-0.44765167">
        <ele>705.0</ele>
        <time>2019-07-07T13:59:47.692Z</time>
      </trkpt>
      <trkpt lat="43.06286833" lon="-0.44765167">
        <ele>705.0</ele>
        <time>2019-07-07T13:59:48.677Z</time>
      </trkpt>
      <trkpt lat="43.06286833" lon="-0.44765167">
        <ele>705.0</ele>
        <time>2019-07-07T13:59:49.683Z</time>
      </trkpt>
      <trkpt lat="43.06289" lon="-0.447715">
        <ele>705.0</ele>
        <time>2019-07-07T13:59:50.701Z</time>
      </trkpt>
      <trkpt lat="43.06289" lon="-0.447715">
        <ele>705.0</ele>
        <time>2019-07-07T13:59:51.689Z</time>
      </trkpt>
      <trkpt lat="43.06290333" lon="-0.44778333">
        <ele>705.0</ele>
        <time>2019-07-07T13:59:52.695Z</time>
      </trkpt>
      <trkpt lat="43.062915" lon="-0.44784833">
        <ele>705.0</ele>
        <time>2019-07-07T13:59:53.703Z</time>
      </trkpt>
      <trkpt lat="43.062915" lon="-0.44784833">
        <ele>705.0</ele>
        <time>2019-07-07T13:59:54.702Z</time>
      </trkpt>
      <trkpt lat="43.06291833" lon="-0.44788333">
        <ele>706.0</ele>
        <time>2019-07-07T13:59:55.673Z</time>
      </trkpt>
      <trkpt lat="43.06291833" lon="-0.44795167">
        <ele>707.0</ele>
        <time>2019-07-07T13:59:56.689Z</time>
      </trkpt>
      <trkpt lat="43.06291833" lon="-0.44795167">
        <ele>707.0</ele>
        <time>2019-07-07T13:59:57.680Z</time>
      </trkpt>
      <trkpt lat="43.06292667" lon="-0.44802">
        <ele>707.0</ele>
        <time>2019-07-07T13:59:58.697Z</time>
      </trkpt>
      <trkpt lat="43.06292667" lon="-0.44802">
        <ele>707.0</ele>
        <time>2019-07-07T13:59:59.692Z</time>
      </trkpt>
      <trkpt lat="43.06293667" lon="-0.448085">
        <ele>706.0</ele>
        <time>2019-07-07T14:00:00.794Z</time>
      </trkpt>
      <trkpt lat="43.06293667" lon="-0.448085">
        <ele>706.0</ele>
        <time>2019-07-07T14:00:01.673Z</time>
      </trkpt>
      <trkpt lat="43.062945" lon="-0.44815333">
        <ele>706.0</ele>
        <time>2019-07-07T14:00:02.685Z</time>
      </trkpt>
      <trkpt lat="43.062945" lon="-0.44815333">
        <ele>706.0</ele>
        <time>2019-07-07T14:00:03.682Z</time>
      </trkpt>
      <trkpt lat="43.062945" lon="-0.44815333">
        <ele>706.0</ele>
        <time>2019-07-07T14:00:04.692Z</time>
      </trkpt>
      <trkpt lat="43.062945" lon="-0.44821667">
        <ele>705.0</ele>
        <time>2019-07-07T14:00:05.703Z</time>
      </trkpt>
      <trkpt lat="43.062945" lon="-0.44821667">
        <ele>705.0</ele>
        <time>2019-07-07T14:00:06.675Z</time>
      </trkpt>
      <trkpt lat="43.06295" lon="-0.448315">
        <ele>706.0</ele>
        <time>2019-07-07T14:00:07.697Z</time>
      </trkpt>
      <trkpt lat="43.06295167" lon="-0.44835">
        <ele>706.0</ele>
        <time>2019-07-07T14:00:08.702Z</time>
      </trkpt>
      <trkpt lat="43.06295167" lon="-0.44835">
        <ele>706.0</ele>
        <time>2019-07-07T14:00:09.682Z</time>
      </trkpt>
      <trkpt lat="43.06295667" lon="-0.44842">
        <ele>706.0</ele>
        <time>2019-07-07T14:00:10.688Z</time>
      </trkpt>
      <trkpt lat="43.06295667" lon="-0.44842">
        <ele>706.0</ele>
        <time>2019-07-07T14:00:11.677Z</time>
      </trkpt>
      <trkpt lat="43.06295667" lon="-0.44842">
        <ele>706.0</ele>
        <time>2019-07-07T14:00:12.684Z</time>
      </trkpt>
      <trkpt lat="43.06295833" lon="-0.44849">
        <ele>706.0</ele>
        <time>2019-07-07T14:00:13.685Z</time>
      </trkpt>
      <trkpt lat="43.062965" lon="-0.44857">
        <ele>707.0</ele>
        <time>2019-07-07T14:00:14.692Z</time>
      </trkpt>
      <trkpt lat="43.062965" lon="-0.44857">
        <ele>707.0</ele>
        <time>2019-07-07T14:00:15.665Z</time>
      </trkpt>
      <trkpt lat="43.062965" lon="-0.44857">
        <ele>707.0</ele>
        <time>2019-07-07T14:00:16.681Z</time>
      </trkpt>
      <trkpt lat="43.06298" lon="-0.44868167">
        <ele>708.0</ele>
        <time>2019-07-07T14:00:17.702Z</time>
      </trkpt>
      <trkpt lat="43.06298" lon="-0.44868167">
        <ele>708.0</ele>
        <time>2019-07-07T14:00:18.704Z</time>
      </trkpt>
      <trkpt lat="43.06298" lon="-0.44868167">
        <ele>708.0</ele>
        <time>2019-07-07T14:00:19.674Z</time>
      </trkpt>
      <trkpt lat="43.06298333" lon="-0.44875667">
        <ele>708.0</ele>
        <time>2019-07-07T14:00:20.670Z</time>
      </trkpt>
      <trkpt lat="43.062985" lon="-0.448795">
        <ele>708.0</ele>
        <time>2019-07-07T14:00:21.677Z</time>
      </trkpt>
      <trkpt lat="43.06299" lon="-0.44886333">
        <ele>709.0</ele>
        <time>2019-07-07T14:00:22.702Z</time>
      </trkpt>
      <trkpt lat="43.06299" lon="-0.44886333">
        <ele>709.0</ele>
        <time>2019-07-07T14:00:23.688Z</time>
      </trkpt>
      <trkpt lat="43.06299167" lon="-0.44889167">
        <ele>709.0</ele>
        <time>2019-07-07T14:00:24.690Z</time>
      </trkpt>
      <trkpt lat="43.06299667" lon="-0.44895">
        <ele>709.0</ele>
        <time>2019-07-07T14:00:25.697Z</time>
      </trkpt>
      <trkpt lat="43.06299667" lon="-0.44895">
        <ele>709.0</ele>
        <time>2019-07-07T14:00:26.676Z</time>
      </trkpt>
      <trkpt lat="43.06299667" lon="-0.44895">
        <ele>709.0</ele>
        <time>2019-07-07T14:00:27.682Z</time>
      </trkpt>
      <trkpt lat="43.06300167" lon="-0.44900667">
        <ele>709.0</ele>
        <time>2019-07-07T14:00:28.674Z</time>
      </trkpt>
      <trkpt lat="43.06300167" lon="-0.44900667">
        <ele>709.0</ele>
        <time>2019-07-07T14:00:29.690Z</time>
      </trkpt>
      <trkpt lat="43.063015" lon="-0.44906333">
        <ele>710.0</ele>
        <time>2019-07-07T14:00:30.691Z</time>
      </trkpt>
      <trkpt lat="43.06302667" lon="-0.44913167">
        <ele>711.0</ele>
        <time>2019-07-07T14:00:31.706Z</time>
      </trkpt>
      <trkpt lat="43.06302667" lon="-0.44913167">
        <ele>711.0</ele>
        <time>2019-07-07T14:00:32.686Z</time>
      </trkpt>
      <trkpt lat="43.06302667" lon="-0.44920833">
        <ele>711.0</ele>
        <time>2019-07-07T14:00:33.710Z</time>
      </trkpt>
      <trkpt lat="43.06302333" lon="-0.44924833">
        <ele>711.0</ele>
        <time>2019-07-07T14:00:34.699Z</time>
      </trkpt>
      <trkpt lat="43.06302333" lon="-0.44924833">
        <ele>711.0</ele>
        <time>2019-07-07T14:00:35.674Z</time>
      </trkpt>
      <trkpt lat="43.06302333" lon="-0.44924833">
        <ele>711.0</ele>
        <time>2019-07-07T14:00:36.681Z</time>
      </trkpt>
      <trkpt lat="43.06302667" lon="-0.449365">
        <ele>713.0</ele>
        <time>2019-07-07T14:00:37.700Z</time>
      </trkpt>
      <trkpt lat="43.06302667" lon="-0.449365">
        <ele>713.0</ele>
        <time>2019-07-07T14:00:38.666Z</time>
      </trkpt>
      <trkpt lat="43.06302667" lon="-0.449365">
        <ele>713.0</ele>
        <time>2019-07-07T14:00:39.680Z</time>
      </trkpt>
      <trkpt lat="43.06302667" lon="-0.44944333">
        <ele>714.0</ele>
        <time>2019-07-07T14:00:40.686Z</time>
      </trkpt>
      <trkpt lat="43.06301833" lon="-0.44952">
        <ele>714.0</ele>
        <time>2019-07-07T14:00:41.705Z</time>
      </trkpt>
      <trkpt lat="43.06301833" lon="-0.44952">
        <ele>714.0</ele>
        <time>2019-07-07T14:00:42.685Z</time>
      </trkpt>
      <trkpt lat="43.06301" lon="-0.44959333">
        <ele>715.0</ele>
        <time>2019-07-07T14:00:43.784Z</time>
      </trkpt>
      <trkpt lat="43.06301" lon="-0.44959333">
        <ele>715.0</ele>
        <time>2019-07-07T14:00:44.700Z</time>
      </trkpt>
      <trkpt lat="43.06301" lon="-0.44959333">
        <ele>715.0</ele>
        <time>2019-07-07T14:00:45.679Z</time>
      </trkpt>
      <trkpt lat="43.063005" lon="-0.44967">
        <ele>715.0</ele>
        <time>2019-07-07T14:00:46.678Z</time>
      </trkpt>
      <trkpt lat="43.063005" lon="-0.44974667">
        <ele>716.0</ele>
        <time>2019-07-07T14:00:47.689Z</time>
      </trkpt>
      <trkpt lat="43.063005" lon="-0.44974667">
        <ele>716.0</ele>
        <time>2019-07-07T14:00:48.683Z</time>
      </trkpt>
      <trkpt lat="43.063005" lon="-0.44974667">
        <ele>716.0</ele>
        <time>2019-07-07T14:00:49.690Z</time>
      </trkpt>
      <trkpt lat="43.06299667" lon="-0.44981833">
        <ele>716.0</ele>
        <time>2019-07-07T14:00:50.690Z</time>
      </trkpt>
      <trkpt lat="43.06299333" lon="-0.44988833">
        <ele>716.0</ele>
        <time>2019-07-07T14:00:51.698Z</time>
      </trkpt>
      <trkpt lat="43.06299333" lon="-0.44988833">
        <ele>716.0</ele>
        <time>2019-07-07T14:00:52.700Z</time>
      </trkpt>
      <trkpt lat="43.06299333" lon="-0.44988833">
        <ele>716.0</ele>
        <time>2019-07-07T14:00:53.666Z</time>
      </trkpt>
      <trkpt lat="43.06298667" lon="-0.44995833">
        <ele>716.0</ele>
        <time>2019-07-07T14:00:54.690Z</time>
      </trkpt>
      <trkpt lat="43.06297667" lon="-0.45002667">
        <ele>717.0</ele>
        <time>2019-07-07T14:00:55.696Z</time>
      </trkpt>
      <trkpt lat="43.06297333" lon="-0.45006167">
        <ele>717.0</ele>
        <time>2019-07-07T14:00:56.689Z</time>
      </trkpt>
      <trkpt lat="43.06297" lon="-0.45009833">
        <ele>717.0</ele>
        <time>2019-07-07T14:00:57.698Z</time>
      </trkpt>
      <trkpt lat="43.06297" lon="-0.45009833">
        <ele>717.0</ele>
        <time>2019-07-07T14:00:58.683Z</time>
      </trkpt>
      <trkpt lat="43.06296333" lon="-0.45017167">
        <ele>718.0</ele>
        <time>2019-07-07T14:00:59.692Z</time>
      </trkpt>
      <trkpt lat="43.06296333" lon="-0.45017167">
        <ele>718.0</ele>
        <time>2019-07-07T14:01:00.678Z</time>
      </trkpt>
      <trkpt lat="43.06295667" lon="-0.450245">
        <ele>718.0</ele>
        <time>2019-07-07T14:01:01.700Z</time>
      </trkpt>
      <trkpt lat="43.06295667" lon="-0.450245">
        <ele>718.0</ele>
        <time>2019-07-07T14:01:02.686Z</time>
      </trkpt>
      <trkpt lat="43.06295" lon="-0.45031667">
        <ele>718.0</ele>
        <time>2019-07-07T14:01:03.691Z</time>
      </trkpt>
      <trkpt lat="43.06295" lon="-0.45031667">
        <ele>718.0</ele>
        <time>2019-07-07T14:01:04.684Z</time>
      </trkpt>
      <trkpt lat="43.06294167" lon="-0.45039">
        <ele>719.0</ele>
        <time>2019-07-07T14:01:05.702Z</time>
      </trkpt>
      <trkpt lat="43.06294167" lon="-0.45039">
        <ele>719.0</ele>
        <time>2019-07-07T14:01:06.681Z</time>
      </trkpt>
      <trkpt lat="43.06294167" lon="-0.45039">
        <ele>719.0</ele>
        <time>2019-07-07T14:01:07.690Z</time>
      </trkpt>
      <trkpt lat="43.06293167" lon="-0.45046167">
        <ele>720.0</ele>
        <time>2019-07-07T14:01:08.675Z</time>
      </trkpt>
      <trkpt lat="43.06293167" lon="-0.45046167">
        <ele>720.0</ele>
        <time>2019-07-07T14:01:09.682Z</time>
      </trkpt>
      <trkpt lat="43.06292167" lon="-0.450535">
        <ele>720.0</ele>
        <time>2019-07-07T14:01:10.680Z</time>
      </trkpt>
      <trkpt lat="43.06290667" lon="-0.45060333">
        <ele>721.0</ele>
        <time>2019-07-07T14:01:11.692Z</time>
      </trkpt>
      <trkpt lat="43.06289667" lon="-0.45063667">
        <ele>721.0</ele>
        <time>2019-07-07T14:01:12.688Z</time>
      </trkpt>
      <trkpt lat="43.06289667" lon="-0.45063667">
        <ele>721.0</ele>
        <time>2019-07-07T14:01:13.701Z</time>
      </trkpt>
      <trkpt lat="43.06289667" lon="-0.45063667">
        <ele>721.0</ele>
        <time>2019-07-07T14:01:14.666Z</time>
      </trkpt>
      <trkpt lat="43.06287333" lon="-0.45070167">
        <ele>721.0</ele>
        <time>2019-07-07T14:01:15.665Z</time>
      </trkpt>
      <trkpt lat="43.06286167" lon="-0.45073167">
        <ele>722.0</ele>
        <time>2019-07-07T14:01:16.683Z</time>
      </trkpt>
      <trkpt lat="43.06284" lon="-0.45078833">
        <ele>722.0</ele>
        <time>2019-07-07T14:01:17.692Z</time>
      </trkpt>
      <trkpt lat="43.06284" lon="-0.45078833">
        <ele>722.0</ele>
        <time>2019-07-07T14:01:18.702Z</time>
      </trkpt>
      <trkpt lat="43.06284" lon="-0.45078833">
        <ele>722.0</ele>
        <time>2019-07-07T14:01:19.678Z</time>
      </trkpt>
      <trkpt lat="43.062795" lon="-0.45087333">
        <ele>723.0</ele>
        <time>2019-07-07T14:01:20.693Z</time>
      </trkpt>
      <trkpt lat="43.062795" lon="-0.45087333">
        <ele>723.0</ele>
        <time>2019-07-07T14:01:21.667Z</time>
      </trkpt>
      <trkpt lat="43.06278" lon="-0.45090333">
        <ele>723.0</ele>
        <time>2019-07-07T14:01:22.666Z</time>
      </trkpt>
      <trkpt lat="43.06274667" lon="-0.45095833">
        <ele>724.0</ele>
        <time>2019-07-07T14:01:23.697Z</time>
      </trkpt>
      <trkpt lat="43.06274667" lon="-0.45095833">
        <ele>724.0</ele>
        <time>2019-07-07T14:01:24.679Z</time>
      </trkpt>
      <trkpt lat="43.06272167" lon="-0.45101833">
        <ele>725.0</ele>
        <time>2019-07-07T14:01:25.689Z</time>
      </trkpt>
      <trkpt lat="43.06272167" lon="-0.45101833">
        <ele>725.0</ele>
        <time>2019-07-07T14:01:26.692Z</time>
      </trkpt>
      <trkpt lat="43.06269167" lon="-0.45107333">
        <ele>725.0</ele>
        <time>2019-07-07T14:01:27.704Z</time>
      </trkpt>
      <trkpt lat="43.06269167" lon="-0.45107333">
        <ele>725.0</ele>
        <time>2019-07-07T14:01:28.666Z</time>
      </trkpt>
      <trkpt lat="43.06267833" lon="-0.45110333">
        <ele>725.0</ele>
        <time>2019-07-07T14:01:29.688Z</time>
      </trkpt>
      <trkpt lat="43.06265" lon="-0.451165">
        <ele>725.0</ele>
        <time>2019-07-07T14:01:30.698Z</time>
      </trkpt>
      <trkpt lat="43.06265" lon="-0.451165">
        <ele>725.0</ele>
        <time>2019-07-07T14:01:31.677Z</time>
      </trkpt>
      <trkpt lat="43.06265" lon="-0.451165">
        <ele>725.0</ele>
        <time>2019-07-07T14:01:32.684Z</time>
      </trkpt>
      <trkpt lat="43.06262167" lon="-0.45122333">
        <ele>725.0</ele>
        <time>2019-07-07T14:01:33.668Z</time>
      </trkpt>
      <trkpt lat="43.06259333" lon="-0.45128167">
        <ele>726.0</ele>
        <time>2019-07-07T14:01:34.686Z</time>
      </trkpt>
      <trkpt lat="43.06259333" lon="-0.45128167">
        <ele>726.0</ele>
        <time>2019-07-07T14:01:35.688Z</time>
      </trkpt>
      <trkpt lat="43.06256333" lon="-0.45134">
        <ele>726.0</ele>
        <time>2019-07-07T14:01:36.695Z</time>
      </trkpt>
      <trkpt lat="43.06256333" lon="-0.45134">
        <ele>726.0</ele>
        <time>2019-07-07T14:01:37.681Z</time>
      </trkpt>
      <trkpt lat="43.06253167" lon="-0.45139833">
        <ele>726.0</ele>
        <time>2019-07-07T14:01:38.700Z</time>
      </trkpt>
      <trkpt lat="43.06253167" lon="-0.45139833">
        <ele>726.0</ele>
        <time>2019-07-07T14:01:39.666Z</time>
      </trkpt>
      <trkpt lat="43.06251667" lon="-0.45142833">
        <ele>726.0</ele>
        <time>2019-07-07T14:01:40.685Z</time>
      </trkpt>
      <trkpt lat="43.06248833" lon="-0.45148833">
        <ele>727.0</ele>
        <time>2019-07-07T14:01:41.693Z</time>
      </trkpt>
      <trkpt lat="43.06248833" lon="-0.45148833">
        <ele>727.0</ele>
        <time>2019-07-07T14:01:42.688Z</time>
      </trkpt>
      <trkpt lat="43.06246" lon="-0.45154667">
        <ele>727.0</ele>
        <time>2019-07-07T14:01:43.697Z</time>
      </trkpt>
      <trkpt lat="43.06246" lon="-0.45154667">
        <ele>727.0</ele>
        <time>2019-07-07T14:01:44.686Z</time>
      </trkpt>
      <trkpt lat="43.06243" lon="-0.45160333">
        <ele>727.0</ele>
        <time>2019-07-07T14:01:45.704Z</time>
      </trkpt>
      <trkpt lat="43.06243" lon="-0.45160333">
        <ele>727.0</ele>
        <time>2019-07-07T14:01:46.678Z</time>
      </trkpt>
      <trkpt lat="43.06240333" lon="-0.45166333">
        <ele>728.0</ele>
        <time>2019-07-07T14:01:47.686Z</time>
      </trkpt>
      <trkpt lat="43.06240333" lon="-0.45166333">
        <ele>728.0</ele>
        <time>2019-07-07T14:01:48.690Z</time>
      </trkpt>
      <trkpt lat="43.06237667" lon="-0.45171833">
        <ele>728.0</ele>
        <time>2019-07-07T14:01:49.793Z</time>
      </trkpt>
      <trkpt lat="43.06237667" lon="-0.45171833">
        <ele>728.0</ele>
        <time>2019-07-07T14:01:50.676Z</time>
      </trkpt>
      <trkpt lat="43.06237667" lon="-0.45171833">
        <ele>728.0</ele>
        <time>2019-07-07T14:01:51.683Z</time>
      </trkpt>
      <trkpt lat="43.06234667" lon="-0.45178">
        <ele>728.0</ele>
        <time>2019-07-07T14:01:52.703Z</time>
      </trkpt>
      <trkpt lat="43.06234667" lon="-0.45178">
        <ele>728.0</ele>
        <time>2019-07-07T14:01:53.688Z</time>
      </trkpt>
      <trkpt lat="43.06231333" lon="-0.45184167">
        <ele>729.0</ele>
        <time>2019-07-07T14:01:54.689Z</time>
      </trkpt>
      <trkpt lat="43.062285" lon="-0.45190167">
        <ele>729.0</ele>
        <time>2019-07-07T14:01:55.704Z</time>
      </trkpt>
      <trkpt lat="43.062285" lon="-0.45190167">
        <ele>729.0</ele>
        <time>2019-07-07T14:01:56.700Z</time>
      </trkpt>
      <trkpt lat="43.062285" lon="-0.45190167">
        <ele>729.0</ele>
        <time>2019-07-07T14:01:57.669Z</time>
      </trkpt>
      <trkpt lat="43.062255" lon="-0.45196167">
        <ele>730.0</ele>
        <time>2019-07-07T14:01:58.702Z</time>
      </trkpt>
      <trkpt lat="43.062255" lon="-0.45196167">
        <ele>730.0</ele>
        <time>2019-07-07T14:01:59.668Z</time>
      </trkpt>
      <trkpt lat="43.06222667" lon="-0.45201">
        <ele>731.0</ele>
        <time>2019-07-07T14:02:00.702Z</time>
      </trkpt>
      <trkpt lat="43.06222667" lon="-0.45201">
        <ele>731.0</ele>
        <time>2019-07-07T14:02:01.667Z</time>
      </trkpt>
      <trkpt lat="43.062195" lon="-0.45206333">
        <ele>730.0</ele>
        <time>2019-07-07T14:02:02.700Z</time>
      </trkpt>
      <trkpt lat="43.062195" lon="-0.45206333">
        <ele>730.0</ele>
        <time>2019-07-07T14:02:03.688Z</time>
      </trkpt>
      <trkpt lat="43.06216167" lon="-0.45212">
        <ele>730.0</ele>
        <time>2019-07-07T14:02:04.700Z</time>
      </trkpt>
      <trkpt lat="43.06216167" lon="-0.45212">
        <ele>730.0</ele>
        <time>2019-07-07T14:02:05.665Z</time>
      </trkpt>
      <trkpt lat="43.06212833" lon="-0.45217667">
        <ele>730.0</ele>
        <time>2019-07-07T14:02:06.679Z</time>
      </trkpt>
      <trkpt lat="43.06212833" lon="-0.45217667">
        <ele>730.0</ele>
        <time>2019-07-07T14:02:07.685Z</time>
      </trkpt>
      <trkpt lat="43.06207333" lon="-0.45225333">
        <ele>730.0</ele>
        <time>2019-07-07T14:02:08.704Z</time>
      </trkpt>
      <trkpt lat="43.06207333" lon="-0.45225333">
        <ele>730.0</ele>
        <time>2019-07-07T14:02:09.675Z</time>
      </trkpt>
      <trkpt lat="43.06207333" lon="-0.45225333">
        <ele>730.0</ele>
        <time>2019-07-07T14:02:10.683Z</time>
      </trkpt>
      <trkpt lat="43.06203833" lon="-0.45230333">
        <ele>730.0</ele>
        <time>2019-07-07T14:02:11.693Z</time>
      </trkpt>
      <trkpt lat="43.06203833" lon="-0.45230333">
        <ele>730.0</ele>
        <time>2019-07-07T14:02:12.699Z</time>
      </trkpt>
      <trkpt lat="43.06200333" lon="-0.45234833">
        <ele>730.0</ele>
        <time>2019-07-07T14:02:13.691Z</time>
      </trkpt>
      <trkpt lat="43.06196333" lon="-0.45239">
        <ele>731.0</ele>
        <time>2019-07-07T14:02:14.769Z</time>
      </trkpt>
      <trkpt lat="43.06196333" lon="-0.45239">
        <ele>731.0</ele>
        <time>2019-07-07T14:02:15.682Z</time>
      </trkpt>
      <trkpt lat="43.06194167" lon="-0.45240833">
        <ele>731.0</ele>
        <time>2019-07-07T14:02:16.695Z</time>
      </trkpt>
      <trkpt lat="43.06189833" lon="-0.45244333">
        <ele>732.0</ele>
        <time>2019-07-07T14:02:17.701Z</time>
      </trkpt>
      <trkpt lat="43.06189833" lon="-0.45244333">
        <ele>732.0</ele>
        <time>2019-07-07T14:02:18.700Z</time>
      </trkpt>
      <trkpt lat="43.06189833" lon="-0.45244333">
        <ele>732.0</ele>
        <time>2019-07-07T14:02:19.666Z</time>
      </trkpt>
      <trkpt lat="43.06185333" lon="-0.45249">
        <ele>732.0</ele>
        <time>2019-07-07T14:02:20.697Z</time>
      </trkpt>
      <trkpt lat="43.06181" lon="-0.45252333">
        <ele>732.0</ele>
        <time>2019-07-07T14:02:21.704Z</time>
      </trkpt>
      <trkpt lat="43.06181" lon="-0.45252333">
        <ele>732.0</ele>
        <time>2019-07-07T14:02:22.700Z</time>
      </trkpt>
      <trkpt lat="43.06181" lon="-0.45252333">
        <ele>732.0</ele>
        <time>2019-07-07T14:02:23.670Z</time>
      </trkpt>
      <trkpt lat="43.06176333" lon="-0.45255333">
        <ele>732.0</ele>
        <time>2019-07-07T14:02:24.704Z</time>
      </trkpt>
      <trkpt lat="43.06176333" lon="-0.45255333">
        <ele>732.0</ele>
        <time>2019-07-07T14:02:25.670Z</time>
      </trkpt>
      <trkpt lat="43.06168667" lon="-0.45259333">
        <ele>733.0</ele>
        <time>2019-07-07T14:02:26.702Z</time>
      </trkpt>
      <trkpt lat="43.06168667" lon="-0.45259333">
        <ele>733.0</ele>
        <time>2019-07-07T14:02:27.667Z</time>
      </trkpt>
      <trkpt lat="43.06166333" lon="-0.45260667">
        <ele>733.0</ele>
        <time>2019-07-07T14:02:28.698Z</time>
      </trkpt>
      <trkpt lat="43.06166333" lon="-0.45260667">
        <ele>733.0</ele>
        <time>2019-07-07T14:02:29.665Z</time>
      </trkpt>
      <trkpt lat="43.06161667" lon="-0.45263667">
        <ele>734.0</ele>
        <time>2019-07-07T14:02:30.697Z</time>
      </trkpt>
      <trkpt lat="43.06157" lon="-0.45267">
        <ele>734.0</ele>
        <time>2019-07-07T14:02:31.794Z</time>
      </trkpt>
      <trkpt lat="43.061545" lon="-0.45268667">
        <ele>734.0</ele>
        <time>2019-07-07T14:02:32.699Z</time>
      </trkpt>
      <trkpt lat="43.061545" lon="-0.45268667">
        <ele>734.0</ele>
        <time>2019-07-07T14:02:33.699Z</time>
      </trkpt>
      <trkpt lat="43.061545" lon="-0.45268667">
        <ele>734.0</ele>
        <time>2019-07-07T14:02:34.688Z</time>
      </trkpt>
      <trkpt lat="43.0615" lon="-0.45272333">
        <ele>735.0</ele>
        <time>2019-07-07T14:02:35.694Z</time>
      </trkpt>
      <trkpt lat="43.06145833" lon="-0.45276">
        <ele>735.0</ele>
        <time>2019-07-07T14:02:36.700Z</time>
      </trkpt>
      <trkpt lat="43.06145833" lon="-0.45276">
        <ele>735.0</ele>
        <time>2019-07-07T14:02:37.668Z</time>
      </trkpt>
      <trkpt lat="43.06143667" lon="-0.45277667">
        <ele>736.0</ele>
        <time>2019-07-07T14:02:38.702Z</time>
      </trkpt>
      <trkpt lat="43.06143667" lon="-0.45277667">
        <ele>736.0</ele>
        <time>2019-07-07T14:02:39.668Z</time>
      </trkpt>
      <trkpt lat="43.06139" lon="-0.45281">
        <ele>737.0</ele>
        <time>2019-07-07T14:02:40.668Z</time>
      </trkpt>
      <trkpt lat="43.06139" lon="-0.45281">
        <ele>737.0</ele>
        <time>2019-07-07T14:02:41.666Z</time>
      </trkpt>
      <trkpt lat="43.061325" lon="-0.45285667">
        <ele>738.0</ele>
        <time>2019-07-07T14:02:42.692Z</time>
      </trkpt>
      <trkpt lat="43.061325" lon="-0.45285667">
        <ele>738.0</ele>
        <time>2019-07-07T14:02:43.698Z</time>
      </trkpt>
      <trkpt lat="43.061325" lon="-0.45285667">
        <ele>738.0</ele>
        <time>2019-07-07T14:02:44.666Z</time>
      </trkpt>
      <trkpt lat="43.06126667" lon="-0.4529">
        <ele>740.0</ele>
        <time>2019-07-07T14:02:45.685Z</time>
      </trkpt>
      <trkpt lat="43.06126667" lon="-0.4529">
        <ele>740.0</ele>
        <time>2019-07-07T14:02:46.693Z</time>
      </trkpt>
      <trkpt lat="43.06122167" lon="-0.45293333">
        <ele>740.0</ele>
        <time>2019-07-07T14:02:47.699Z</time>
      </trkpt>
      <trkpt lat="43.06119667" lon="-0.45295">
        <ele>741.0</ele>
        <time>2019-07-07T14:02:48.698Z</time>
      </trkpt>
      <trkpt lat="43.06119667" lon="-0.45295">
        <ele>741.0</ele>
        <time>2019-07-07T14:02:49.686Z</time>
      </trkpt>
      <trkpt lat="43.06114667" lon="-0.45298167">
        <ele>741.0</ele>
        <time>2019-07-07T14:02:50.699Z</time>
      </trkpt>
      <trkpt lat="43.06114667" lon="-0.45298167">
        <ele>741.0</ele>
        <time>2019-07-07T14:02:51.666Z</time>
      </trkpt>
      <trkpt lat="43.061125" lon="-0.45299667">
        <ele>742.0</ele>
        <time>2019-07-07T14:02:52.669Z</time>
      </trkpt>
      <trkpt lat="43.061125" lon="-0.45299667">
        <ele>742.0</ele>
        <time>2019-07-07T14:02:53.684Z</time>
      </trkpt>
      <trkpt lat="43.06105167" lon="-0.45304167">
        <ele>743.0</ele>
        <time>2019-07-07T14:02:54.698Z</time>
      </trkpt>
      <trkpt lat="43.06105167" lon="-0.45304167">
        <ele>743.0</ele>
        <time>2019-07-07T14:02:55.666Z</time>
      </trkpt>
      <trkpt lat="43.06101167" lon="-0.45307167">
        <ele>744.0</ele>
        <time>2019-07-07T14:02:56.689Z</time>
      </trkpt>
      <trkpt lat="43.06099" lon="-0.45309">
        <ele>744.0</ele>
        <time>2019-07-07T14:02:57.683Z</time>
      </trkpt>
      <trkpt lat="43.06099" lon="-0.45309">
        <ele>744.0</ele>
        <time>2019-07-07T14:02:58.691Z</time>
      </trkpt>
      <trkpt lat="43.06094333" lon="-0.45311833">
        <ele>745.0</ele>
        <time>2019-07-07T14:02:59.697Z</time>
      </trkpt>
      <trkpt lat="43.06094333" lon="-0.45311833">
        <ele>745.0</ele>
        <time>2019-07-07T14:03:00.695Z</time>
      </trkpt>
      <trkpt lat="43.06089333" lon="-0.453145">
        <ele>746.0</ele>
        <time>2019-07-07T14:03:01.736Z</time>
      </trkpt>
      <trkpt lat="43.06086667" lon="-0.45316167">
        <ele>746.0</ele>
        <time>2019-07-07T14:03:02.704Z</time>
      </trkpt>
      <trkpt lat="43.06086667" lon="-0.45316167">
        <ele>746.0</ele>
        <time>2019-07-07T14:03:03.695Z</time>
      </trkpt>
      <trkpt lat="43.06081667" lon="-0.45319833">
        <ele>746.0</ele>
        <time>2019-07-07T14:03:04.788Z</time>
      </trkpt>
      <trkpt lat="43.06081667" lon="-0.45319833">
        <ele>746.0</ele>
        <time>2019-07-07T14:03:05.667Z</time>
      </trkpt>
      <trkpt lat="43.06081667" lon="-0.45319833">
        <ele>746.0</ele>
        <time>2019-07-07T14:03:06.688Z</time>
      </trkpt>
      <trkpt lat="43.06076333" lon="-0.45322833">
        <ele>746.0</ele>
        <time>2019-07-07T14:03:07.677Z</time>
      </trkpt>
      <trkpt lat="43.06073833" lon="-0.45324333">
        <ele>746.0</ele>
        <time>2019-07-07T14:03:08.691Z</time>
      </trkpt>
      <trkpt lat="43.06069333" lon="-0.45327667">
        <ele>747.0</ele>
        <time>2019-07-07T14:03:09.701Z</time>
      </trkpt>
      <trkpt lat="43.06069333" lon="-0.45327667">
        <ele>747.0</ele>
        <time>2019-07-07T14:03:10.700Z</time>
      </trkpt>
      <trkpt lat="43.06069333" lon="-0.45327667">
        <ele>747.0</ele>
        <time>2019-07-07T14:03:11.669Z</time>
      </trkpt>
      <trkpt lat="43.060645" lon="-0.45329833">
        <ele>747.0</ele>
        <time>2019-07-07T14:03:12.697Z</time>
      </trkpt>
      <trkpt lat="43.060645" lon="-0.45329833">
        <ele>747.0</ele>
        <time>2019-07-07T14:03:13.665Z</time>
      </trkpt>
      <trkpt lat="43.06057667" lon="-0.45333333">
        <ele>748.0</ele>
        <time>2019-07-07T14:03:14.701Z</time>
      </trkpt>
      <trkpt lat="43.06057667" lon="-0.45333333">
        <ele>748.0</ele>
        <time>2019-07-07T14:03:15.685Z</time>
      </trkpt>
      <trkpt lat="43.06057667" lon="-0.45333333">
        <ele>748.0</ele>
        <time>2019-07-07T14:03:16.689Z</time>
      </trkpt>
      <trkpt lat="43.06052833" lon="-0.45335333">
        <ele>749.0</ele>
        <time>2019-07-07T14:03:17.680Z</time>
      </trkpt>
      <trkpt lat="43.06052833" lon="-0.45335333">
        <ele>749.0</ele>
        <time>2019-07-07T14:03:18.686Z</time>
      </trkpt>
      <trkpt lat="43.06048167" lon="-0.45337833">
        <ele>750.0</ele>
        <time>2019-07-07T14:03:19.683Z</time>
      </trkpt>
      <trkpt lat="43.06048167" lon="-0.45337833">
        <ele>750.0</ele>
        <time>2019-07-07T14:03:20.682Z</time>
      </trkpt>
      <trkpt lat="43.06043" lon="-0.45341333">
        <ele>750.0</ele>
        <time>2019-07-07T14:03:21.683Z</time>
      </trkpt>
      <trkpt lat="43.060405" lon="-0.45342333">
        <ele>750.0</ele>
        <time>2019-07-07T14:03:22.683Z</time>
      </trkpt>
      <trkpt lat="43.060405" lon="-0.45342333">
        <ele>750.0</ele>
        <time>2019-07-07T14:03:23.690Z</time>
      </trkpt>
      <trkpt lat="43.060355" lon="-0.45344667">
        <ele>750.0</ele>
        <time>2019-07-07T14:03:24.667Z</time>
      </trkpt>
      <trkpt lat="43.06033167" lon="-0.45346167">
        <ele>750.0</ele>
        <time>2019-07-07T14:03:25.692Z</time>
      </trkpt>
      <trkpt lat="43.06027833" lon="-0.45348333">
        <ele>750.0</ele>
        <time>2019-07-07T14:03:26.698Z</time>
      </trkpt>
      <trkpt lat="43.06027833" lon="-0.45348333">
        <ele>750.0</ele>
        <time>2019-07-07T14:03:27.685Z</time>
      </trkpt>
      <trkpt lat="43.06025333" lon="-0.45349667">
        <ele>750.0</ele>
        <time>2019-07-07T14:03:28.704Z</time>
      </trkpt>
      <trkpt lat="43.06025333" lon="-0.45349667">
        <ele>750.0</ele>
        <time>2019-07-07T14:03:29.669Z</time>
      </trkpt>
      <trkpt lat="43.060205" lon="-0.45353">
        <ele>750.0</ele>
        <time>2019-07-07T14:03:30.691Z</time>
      </trkpt>
      <trkpt lat="43.060205" lon="-0.45353">
        <ele>750.0</ele>
        <time>2019-07-07T14:03:31.688Z</time>
      </trkpt>
      <trkpt lat="43.06016" lon="-0.45357">
        <ele>750.0</ele>
        <time>2019-07-07T14:03:32.700Z</time>
      </trkpt>
      <trkpt lat="43.06016" lon="-0.45357">
        <ele>750.0</ele>
        <time>2019-07-07T14:03:33.665Z</time>
      </trkpt>
      <trkpt lat="43.06011833" lon="-0.453615">
        <ele>750.0</ele>
        <time>2019-07-07T14:03:34.700Z</time>
      </trkpt>
      <trkpt lat="43.06011833" lon="-0.453615">
        <ele>750.0</ele>
        <time>2019-07-07T14:03:35.666Z</time>
      </trkpt>
      <trkpt lat="43.06008" lon="-0.453665">
        <ele>750.0</ele>
        <time>2019-07-07T14:03:36.703Z</time>
      </trkpt>
      <trkpt lat="43.06008" lon="-0.453665">
        <ele>750.0</ele>
        <time>2019-07-07T14:03:37.690Z</time>
      </trkpt>
      <trkpt lat="43.060045" lon="-0.45372">
        <ele>750.0</ele>
        <time>2019-07-07T14:03:38.693Z</time>
      </trkpt>
      <trkpt lat="43.06001" lon="-0.45377667">
        <ele>750.0</ele>
        <time>2019-07-07T14:03:39.700Z</time>
      </trkpt>
      <trkpt lat="43.06001" lon="-0.45377667">
        <ele>750.0</ele>
        <time>2019-07-07T14:03:40.683Z</time>
      </trkpt>
      <trkpt lat="43.05998" lon="-0.45383333">
        <ele>750.0</ele>
        <time>2019-07-07T14:03:41.691Z</time>
      </trkpt>
      <trkpt lat="43.05998" lon="-0.45383333">
        <ele>750.0</ele>
        <time>2019-07-07T14:03:42.683Z</time>
      </trkpt>
      <trkpt lat="43.059965" lon="-0.45386167">
        <ele>750.0</ele>
        <time>2019-07-07T14:03:43.678Z</time>
      </trkpt>
      <trkpt lat="43.059965" lon="-0.45386167">
        <ele>750.0</ele>
        <time>2019-07-07T14:03:44.685Z</time>
      </trkpt>
      <trkpt lat="43.05993833" lon="-0.45391833">
        <ele>751.0</ele>
        <time>2019-07-07T14:03:45.674Z</time>
      </trkpt>
      <trkpt lat="43.05993" lon="-0.45394167">
        <ele>751.0</ele>
        <time>2019-07-07T14:03:46.698Z</time>
      </trkpt>
      <trkpt lat="43.05993" lon="-0.45394167">
        <ele>751.0</ele>
        <time>2019-07-07T14:03:47.668Z</time>
      </trkpt>
      <trkpt lat="43.059905" lon="-0.45399">
        <ele>751.0</ele>
        <time>2019-07-07T14:03:48.693Z</time>
      </trkpt>
      <trkpt lat="43.05988167" lon="-0.45403667">
        <ele>751.0</ele>
        <time>2019-07-07T14:03:49.695Z</time>
      </trkpt>
      <trkpt lat="43.05988167" lon="-0.45403667">
        <ele>751.0</ele>
        <time>2019-07-07T14:03:50.685Z</time>
      </trkpt>
      <trkpt lat="43.05986833" lon="-0.45406">
        <ele>752.0</ele>
        <time>2019-07-07T14:03:51.685Z</time>
      </trkpt>
      <trkpt lat="43.05984333" lon="-0.45411333">
        <ele>752.0</ele>
        <time>2019-07-07T14:03:52.701Z</time>
      </trkpt>
      <trkpt lat="43.05984333" lon="-0.45411333">
        <ele>752.0</ele>
        <time>2019-07-07T14:03:53.668Z</time>
      </trkpt>
      <trkpt lat="43.05984333" lon="-0.45411333">
        <ele>752.0</ele>
        <time>2019-07-07T14:03:54.679Z</time>
      </trkpt>
      <trkpt lat="43.05980833" lon="-0.45415667">
        <ele>752.0</ele>
        <time>2019-07-07T14:03:55.665Z</time>
      </trkpt>
      <trkpt lat="43.059775" lon="-0.45418833">
        <ele>753.0</ele>
        <time>2019-07-07T14:03:56.698Z</time>
      </trkpt>
      <trkpt lat="43.05976" lon="-0.45420667">
        <ele>753.0</ele>
        <time>2019-07-07T14:03:57.705Z</time>
      </trkpt>
      <trkpt lat="43.05976" lon="-0.45420667">
        <ele>753.0</ele>
        <time>2019-07-07T14:03:58.665Z</time>
      </trkpt>
      <trkpt lat="43.05976" lon="-0.45420667">
        <ele>753.0</ele>
        <time>2019-07-07T14:03:59.679Z</time>
      </trkpt>
      <trkpt lat="43.059705" lon="-0.454245">
        <ele>754.0</ele>
        <time>2019-07-07T14:04:00.701Z</time>
      </trkpt>
      <trkpt lat="43.059705" lon="-0.454245">
        <ele>754.0</ele>
        <time>2019-07-07T14:04:01.681Z</time>
      </trkpt>
      <trkpt lat="43.05968833" lon="-0.454255">
        <ele>754.0</ele>
        <time>2019-07-07T14:04:02.699Z</time>
      </trkpt>
      <trkpt lat="43.059655" lon="-0.45428333">
        <ele>754.0</ele>
        <time>2019-07-07T14:04:03.705Z</time>
      </trkpt>
      <trkpt lat="43.059655" lon="-0.45428333">
        <ele>754.0</ele>
        <time>2019-07-07T14:04:04.713Z</time>
      </trkpt>
      <trkpt lat="43.05963833" lon="-0.45429833">
        <ele>755.0</ele>
        <time>2019-07-07T14:04:05.699Z</time>
      </trkpt>
      <trkpt lat="43.05963833" lon="-0.45429833">
        <ele>755.0</ele>
        <time>2019-07-07T14:04:06.666Z</time>
      </trkpt>
      <trkpt lat="43.05960167" lon="-0.45431167">
        <ele>755.0</ele>
        <time>2019-07-07T14:04:07.697Z</time>
      </trkpt>
      <trkpt lat="43.05955833" lon="-0.45431333">
        <ele>755.0</ele>
        <time>2019-07-07T14:04:08.707Z</time>
      </trkpt>
      <trkpt lat="43.05953833" lon="-0.454315">
        <ele>756.0</ele>
        <time>2019-07-07T14:04:09.694Z</time>
      </trkpt>
      <trkpt lat="43.05953833" lon="-0.454315">
        <ele>756.0</ele>
        <time>2019-07-07T14:04:10.688Z</time>
      </trkpt>
      <trkpt lat="43.05949833" lon="-0.45432167">
        <ele>756.0</ele>
        <time>2019-07-07T14:04:11.697Z</time>
      </trkpt>
      <trkpt lat="43.059475" lon="-0.45432">
        <ele>756.0</ele>
        <time>2019-07-07T14:04:12.704Z</time>
      </trkpt>
      <trkpt lat="43.059475" lon="-0.45432">
        <ele>756.0</ele>
        <time>2019-07-07T14:04:13.699Z</time>
      </trkpt>
      <trkpt lat="43.059475" lon="-0.45432">
        <ele>756.0</ele>
        <time>2019-07-07T14:04:14.666Z</time>
      </trkpt>
      <trkpt lat="43.05940833" lon="-0.45432833">
        <ele>756.0</ele>
        <time>2019-07-07T14:04:15.690Z</time>
      </trkpt>
      <trkpt lat="43.05940833" lon="-0.45432833">
        <ele>756.0</ele>
        <time>2019-07-07T14:04:16.696Z</time>
      </trkpt>
      <trkpt lat="43.05940833" lon="-0.45432833">
        <ele>756.0</ele>
        <time>2019-07-07T14:04:17.667Z</time>
      </trkpt>
      <trkpt lat="43.05934333" lon="-0.45432833">
        <ele>756.0</ele>
        <time>2019-07-07T14:04:18.700Z</time>
      </trkpt>
      <trkpt lat="43.05934333" lon="-0.45432833">
        <ele>756.0</ele>
        <time>2019-07-07T14:04:19.685Z</time>
      </trkpt>
      <trkpt lat="43.05934333" lon="-0.45432833">
        <ele>756.0</ele>
        <time>2019-07-07T14:04:20.687Z</time>
      </trkpt>
      <trkpt lat="43.05929833" lon="-0.45432667">
        <ele>756.0</ele>
        <time>2019-07-07T14:04:21.682Z</time>
      </trkpt>
      <trkpt lat="43.05929833" lon="-0.45432667">
        <ele>756.0</ele>
        <time>2019-07-07T14:04:22.699Z</time>
      </trkpt>
      <trkpt lat="43.05924333" lon="-0.45432833">
        <ele>756.0</ele>
        <time>2019-07-07T14:04:23.682Z</time>
      </trkpt>
      <trkpt lat="43.05924333" lon="-0.45432833">
        <ele>756.0</ele>
        <time>2019-07-07T14:04:24.688Z</time>
      </trkpt>
      <trkpt lat="43.05920833" lon="-0.45432333">
        <ele>756.0</ele>
        <time>2019-07-07T14:04:25.690Z</time>
      </trkpt>
      <trkpt lat="43.05916167" lon="-0.45431333">
        <ele>757.0</ele>
        <time>2019-07-07T14:04:26.786Z</time>
      </trkpt>
      <trkpt lat="43.05916167" lon="-0.45431333">
        <ele>757.0</ele>
        <time>2019-07-07T14:04:27.667Z</time>
      </trkpt>
      <trkpt lat="43.05916167" lon="-0.45431333">
        <ele>757.0</ele>
        <time>2019-07-07T14:04:28.688Z</time>
      </trkpt>
      <trkpt lat="43.05912333" lon="-0.45432">
        <ele>758.0</ele>
        <time>2019-07-07T14:04:29.678Z</time>
      </trkpt>
      <trkpt lat="43.05908167" lon="-0.45431833">
        <ele>758.0</ele>
        <time>2019-07-07T14:04:30.688Z</time>
      </trkpt>
      <trkpt lat="43.05908167" lon="-0.45431833">
        <ele>758.0</ele>
        <time>2019-07-07T14:04:31.679Z</time>
      </trkpt>
      <trkpt lat="43.05906" lon="-0.45431667">
        <ele>759.0</ele>
        <time>2019-07-07T14:04:32.667Z</time>
      </trkpt>
      <trkpt lat="43.05903833" lon="-0.45431333">
        <ele>759.0</ele>
        <time>2019-07-07T14:04:33.700Z</time>
      </trkpt>
      <trkpt lat="43.05903833" lon="-0.45431333">
        <ele>759.0</ele>
        <time>2019-07-07T14:04:34.672Z</time>
      </trkpt>
      <trkpt lat="43.05899" lon="-0.45430333">
        <ele>760.0</ele>
        <time>2019-07-07T14:04:35.692Z</time>
      </trkpt>
      <trkpt lat="43.05894167" lon="-0.454295">
        <ele>760.0</ele>
        <time>2019-07-07T14:04:36.699Z</time>
      </trkpt>
      <trkpt lat="43.05891833" lon="-0.45429333">
        <ele>761.0</ele>
        <time>2019-07-07T14:04:37.691Z</time>
      </trkpt>
      <trkpt lat="43.05891833" lon="-0.45429333">
        <ele>761.0</ele>
        <time>2019-07-07T14:04:38.693Z</time>
      </trkpt>
      <trkpt lat="43.05891833" lon="-0.45429333">
        <ele>761.0</ele>
        <time>2019-07-07T14:04:39.699Z</time>
      </trkpt>
      <trkpt lat="43.05887333" lon="-0.4543">
        <ele>761.0</ele>
        <time>2019-07-07T14:04:40.689Z</time>
      </trkpt>
      <trkpt lat="43.05883" lon="-0.454305">
        <ele>761.0</ele>
        <time>2019-07-07T14:04:41.729Z</time>
      </trkpt>
      <trkpt lat="43.05883" lon="-0.454305">
        <ele>761.0</ele>
        <time>2019-07-07T14:04:42.681Z</time>
      </trkpt>
      <trkpt lat="43.058785" lon="-0.45431833">
        <ele>762.0</ele>
        <time>2019-07-07T14:04:43.687Z</time>
      </trkpt>
      <trkpt lat="43.05876333" lon="-0.454325">
        <ele>762.0</ele>
        <time>2019-07-07T14:04:44.705Z</time>
      </trkpt>
      <trkpt lat="43.05876333" lon="-0.454325">
        <ele>762.0</ele>
        <time>2019-07-07T14:04:45.694Z</time>
      </trkpt>
      <trkpt lat="43.05872" lon="-0.45434167">
        <ele>763.0</ele>
        <time>2019-07-07T14:04:46.702Z</time>
      </trkpt>
      <trkpt lat="43.05872" lon="-0.45434167">
        <ele>763.0</ele>
        <time>2019-07-07T14:04:47.684Z</time>
      </trkpt>
      <trkpt lat="43.05869833" lon="-0.45435167">
        <ele>763.0</ele>
        <time>2019-07-07T14:04:48.690Z</time>
      </trkpt>
      <trkpt lat="43.058655" lon="-0.45437333">
        <ele>763.0</ele>
        <time>2019-07-07T14:04:49.701Z</time>
      </trkpt>
      <trkpt lat="43.058655" lon="-0.45437333">
        <ele>763.0</ele>
        <time>2019-07-07T14:04:50.694Z</time>
      </trkpt>
      <trkpt lat="43.05861833" lon="-0.45440333">
        <ele>764.0</ele>
        <time>2019-07-07T14:04:51.751Z</time>
      </trkpt>
      <trkpt lat="43.05861833" lon="-0.45440333">
        <ele>764.0</ele>
        <time>2019-07-07T14:04:52.699Z</time>
      </trkpt>
      <trkpt lat="43.05861833" lon="-0.45440333">
        <ele>764.0</ele>
        <time>2019-07-07T14:04:53.670Z</time>
      </trkpt>
      <trkpt lat="43.05859" lon="-0.454445">
        <ele>765.0</ele>
        <time>2019-07-07T14:04:54.691Z</time>
      </trkpt>
      <trkpt lat="43.05858" lon="-0.45447">
        <ele>765.0</ele>
        <time>2019-07-07T14:04:55.687Z</time>
      </trkpt>
      <trkpt lat="43.05858" lon="-0.45447">
        <ele>765.0</ele>
        <time>2019-07-07T14:04:56.687Z</time>
      </trkpt>
      <trkpt lat="43.05857" lon="-0.45452333">
        <ele>766.0</ele>
        <time>2019-07-07T14:04:57.674Z</time>
      </trkpt>
      <trkpt lat="43.05857" lon="-0.45452333">
        <ele>766.0</ele>
        <time>2019-07-07T14:04:58.684Z</time>
      </trkpt>
      <trkpt lat="43.05857833" lon="-0.45457">
        <ele>767.0</ele>
        <time>2019-07-07T14:04:59.680Z</time>
      </trkpt>
      <trkpt lat="43.05857833" lon="-0.45457">
        <ele>767.0</ele>
        <time>2019-07-07T14:05:00.687Z</time>
      </trkpt>
      <trkpt lat="43.05858833" lon="-0.454615">
        <ele>768.0</ele>
        <time>2019-07-07T14:05:01.678Z</time>
      </trkpt>
      <trkpt lat="43.05858833" lon="-0.454615">
        <ele>768.0</ele>
        <time>2019-07-07T14:05:02.685Z</time>
      </trkpt>
      <trkpt lat="43.05861167" lon="-0.45466667">
        <ele>769.0</ele>
        <time>2019-07-07T14:05:03.672Z</time>
      </trkpt>
      <trkpt lat="43.05862833" lon="-0.45468833">
        <ele>769.0</ele>
        <time>2019-07-07T14:05:04.704Z</time>
      </trkpt>
      <trkpt lat="43.05862833" lon="-0.45468833">
        <ele>769.0</ele>
        <time>2019-07-07T14:05:05.670Z</time>
      </trkpt>
      <trkpt lat="43.05866" lon="-0.45471333">
        <ele>770.0</ele>
        <time>2019-07-07T14:05:06.698Z</time>
      </trkpt>
      <trkpt lat="43.05869167" lon="-0.45472667">
        <ele>770.0</ele>
        <time>2019-07-07T14:05:07.708Z</time>
      </trkpt>
      <trkpt lat="43.05869167" lon="-0.45472667">
        <ele>770.0</ele>
        <time>2019-07-07T14:05:08.693Z</time>
      </trkpt>
      <trkpt lat="43.05873" lon="-0.45472833">
        <ele>771.0</ele>
        <time>2019-07-07T14:05:09.765Z</time>
      </trkpt>
      <trkpt lat="43.05873" lon="-0.45472833">
        <ele>771.0</ele>
        <time>2019-07-07T14:05:10.702Z</time>
      </trkpt>
      <trkpt lat="43.05873" lon="-0.45472833">
        <ele>771.0</ele>
        <time>2019-07-07T14:05:11.670Z</time>
      </trkpt>
      <trkpt lat="43.05877167" lon="-0.45472667">
        <ele>772.0</ele>
        <time>2019-07-07T14:05:12.681Z</time>
      </trkpt>
      <trkpt lat="43.05879167" lon="-0.45472833">
        <ele>772.0</ele>
        <time>2019-07-07T14:05:13.665Z</time>
      </trkpt>
      <trkpt lat="43.05879167" lon="-0.45472833">
        <ele>772.0</ele>
        <time>2019-07-07T14:05:14.680Z</time>
      </trkpt>
      <trkpt lat="43.05883833" lon="-0.45473333">
        <ele>771.0</ele>
        <time>2019-07-07T14:05:15.693Z</time>
      </trkpt>
      <trkpt lat="43.05886333" lon="-0.45473667">
        <ele>772.0</ele>
        <time>2019-07-07T14:05:16.702Z</time>
      </trkpt>
      <trkpt lat="43.05886333" lon="-0.45473667">
        <ele>772.0</ele>
        <time>2019-07-07T14:05:17.666Z</time>
      </trkpt>
      <trkpt lat="43.05891333" lon="-0.45474667">
        <ele>772.0</ele>
        <time>2019-07-07T14:05:18.667Z</time>
      </trkpt>
      <trkpt lat="43.05893833" lon="-0.45475333">
        <ele>772.0</ele>
        <time>2019-07-07T14:05:19.700Z</time>
      </trkpt>
      <trkpt lat="43.05893833" lon="-0.45475333">
        <ele>772.0</ele>
        <time>2019-07-07T14:05:20.667Z</time>
      </trkpt>
      <trkpt lat="43.05899" lon="-0.45477667">
        <ele>772.0</ele>
        <time>2019-07-07T14:05:21.677Z</time>
      </trkpt>
      <trkpt lat="43.05899" lon="-0.45477667">
        <ele>772.0</ele>
        <time>2019-07-07T14:05:22.684Z</time>
      </trkpt>
      <trkpt lat="43.05903667" lon="-0.45480833">
        <ele>773.0</ele>
        <time>2019-07-07T14:05:23.682Z</time>
      </trkpt>
      <trkpt lat="43.05906" lon="-0.45482333">
        <ele>773.0</ele>
        <time>2019-07-07T14:05:24.674Z</time>
      </trkpt>
      <trkpt lat="43.05906" lon="-0.45482333">
        <ele>773.0</ele>
        <time>2019-07-07T14:05:25.685Z</time>
      </trkpt>
      <trkpt lat="43.05913167" lon="-0.45486667">
        <ele>773.0</ele>
        <time>2019-07-07T14:05:26.706Z</time>
      </trkpt>
      <trkpt lat="43.05913167" lon="-0.45486667">
        <ele>773.0</ele>
        <time>2019-07-07T14:05:27.702Z</time>
      </trkpt>
      <trkpt lat="43.05913167" lon="-0.45486667">
        <ele>773.0</ele>
        <time>2019-07-07T14:05:28.668Z</time>
      </trkpt>
      <trkpt lat="43.05918167" lon="-0.45489">
        <ele>774.0</ele>
        <time>2019-07-07T14:05:29.698Z</time>
      </trkpt>
      <trkpt lat="43.05923" lon="-0.454915">
        <ele>774.0</ele>
        <time>2019-07-07T14:05:30.715Z</time>
      </trkpt>
      <trkpt lat="43.05923" lon="-0.454915">
        <ele>774.0</ele>
        <time>2019-07-07T14:05:31.693Z</time>
      </trkpt>
      <trkpt lat="43.05923" lon="-0.454915">
        <ele>774.0</ele>
        <time>2019-07-07T14:05:32.681Z</time>
      </trkpt>
      <trkpt lat="43.05927833" lon="-0.454935">
        <ele>774.0</ele>
        <time>2019-07-07T14:05:33.689Z</time>
      </trkpt>
      <trkpt lat="43.05930333" lon="-0.45494167">
        <ele>774.0</ele>
        <time>2019-07-07T14:05:34.684Z</time>
      </trkpt>
      <trkpt lat="43.05930333" lon="-0.45494167">
        <ele>774.0</ele>
        <time>2019-07-07T14:05:35.709Z</time>
      </trkpt>
      <trkpt lat="43.059385" lon="-0.45495667">
        <ele>775.0</ele>
        <time>2019-07-07T14:05:36.704Z</time>
      </trkpt>
      <trkpt lat="43.059385" lon="-0.45495667">
        <ele>775.0</ele>
        <time>2019-07-07T14:05:37.680Z</time>
      </trkpt>
      <trkpt lat="43.059385" lon="-0.45495667">
        <ele>775.0</ele>
        <time>2019-07-07T14:05:38.686Z</time>
      </trkpt>
      <trkpt lat="43.059435" lon="-0.45496667">
        <ele>775.0</ele>
        <time>2019-07-07T14:05:39.665Z</time>
      </trkpt>
      <trkpt lat="43.05946" lon="-0.45497167">
        <ele>775.0</ele>
        <time>2019-07-07T14:05:40.685Z</time>
      </trkpt>
      <trkpt lat="43.05951" lon="-0.45498333">
        <ele>776.0</ele>
        <time>2019-07-07T14:05:41.697Z</time>
      </trkpt>
      <trkpt lat="43.05951" lon="-0.45498333">
        <ele>776.0</ele>
        <time>2019-07-07T14:05:42.692Z</time>
      </trkpt>
      <trkpt lat="43.05956167" lon="-0.45499333">
        <ele>776.0</ele>
        <time>2019-07-07T14:05:43.699Z</time>
      </trkpt>
      <trkpt lat="43.05956167" lon="-0.45499333">
        <ele>776.0</ele>
        <time>2019-07-07T14:05:44.683Z</time>
      </trkpt>
      <trkpt lat="43.05956167" lon="-0.45499333">
        <ele>776.0</ele>
        <time>2019-07-07T14:05:45.694Z</time>
      </trkpt>
      <trkpt lat="43.05960833" lon="-0.45501333">
        <ele>776.0</ele>
        <time>2019-07-07T14:05:46.666Z</time>
      </trkpt>
      <trkpt lat="43.05965333" lon="-0.455035">
        <ele>777.0</ele>
        <time>2019-07-07T14:05:47.695Z</time>
      </trkpt>
      <trkpt lat="43.05967667" lon="-0.45504667">
        <ele>777.0</ele>
        <time>2019-07-07T14:05:48.698Z</time>
      </trkpt>
      <trkpt lat="43.05967667" lon="-0.45504667">
        <ele>777.0</ele>
        <time>2019-07-07T14:05:49.682Z</time>
      </trkpt>
      <trkpt lat="43.05972333" lon="-0.45507167">
        <ele>778.0</ele>
        <time>2019-07-07T14:05:50.700Z</time>
      </trkpt>
      <trkpt lat="43.05974667" lon="-0.45508167">
        <ele>778.0</ele>
        <time>2019-07-07T14:05:51.696Z</time>
      </trkpt>
      <trkpt lat="43.05974667" lon="-0.45508167">
        <ele>778.0</ele>
        <time>2019-07-07T14:05:52.688Z</time>
      </trkpt>
      <trkpt lat="43.05979333" lon="-0.4551">
        <ele>779.0</ele>
        <time>2019-07-07T14:05:53.717Z</time>
      </trkpt>
      <trkpt lat="43.05979333" lon="-0.4551">
        <ele>779.0</ele>
        <time>2019-07-07T14:05:54.683Z</time>
      </trkpt>
      <trkpt lat="43.059815" lon="-0.455115">
        <ele>779.0</ele>
        <time>2019-07-07T14:05:55.690Z</time>
      </trkpt>
      <trkpt lat="43.059815" lon="-0.455115">
        <ele>779.0</ele>
        <time>2019-07-07T14:05:56.696Z</time>
      </trkpt>
      <trkpt lat="43.05986" lon="-0.45514">
        <ele>780.0</ele>
        <time>2019-07-07T14:05:57.681Z</time>
      </trkpt>
      <trkpt lat="43.05988333" lon="-0.45514833">
        <ele>780.0</ele>
        <time>2019-07-07T14:05:58.698Z</time>
      </trkpt>
      <trkpt lat="43.05988333" lon="-0.45514833">
        <ele>780.0</ele>
        <time>2019-07-07T14:05:59.666Z</time>
      </trkpt>
      <trkpt lat="43.05993" lon="-0.45517167">
        <ele>781.0</ele>
        <time>2019-07-07T14:06:00.670Z</time>
      </trkpt>
      <trkpt lat="43.05993" lon="-0.45517167">
        <ele>781.0</ele>
        <time>2019-07-07T14:06:01.680Z</time>
      </trkpt>
      <trkpt lat="43.05997667" lon="-0.45518833">
        <ele>781.0</ele>
        <time>2019-07-07T14:06:02.686Z</time>
      </trkpt>
      <trkpt lat="43.05997667" lon="-0.45518833">
        <ele>781.0</ele>
        <time>2019-07-07T14:06:03.693Z</time>
      </trkpt>
      <trkpt lat="43.06002167" lon="-0.455205">
        <ele>782.0</ele>
        <time>2019-07-07T14:06:04.704Z</time>
      </trkpt>
      <trkpt lat="43.06002167" lon="-0.455205">
        <ele>782.0</ele>
        <time>2019-07-07T14:06:05.671Z</time>
      </trkpt>
      <trkpt lat="43.06006833" lon="-0.45523167">
        <ele>782.0</ele>
        <time>2019-07-07T14:06:06.671Z</time>
      </trkpt>
      <trkpt lat="43.06009333" lon="-0.45524333">
        <ele>782.0</ele>
        <time>2019-07-07T14:06:07.692Z</time>
      </trkpt>
      <trkpt lat="43.06009333" lon="-0.45524333">
        <ele>782.0</ele>
        <time>2019-07-07T14:06:08.667Z</time>
      </trkpt>
      <trkpt lat="43.06014" lon="-0.45526333">
        <ele>783.0</ele>
        <time>2019-07-07T14:06:09.672Z</time>
      </trkpt>
      <trkpt lat="43.06016333" lon="-0.45527167">
        <ele>783.0</ele>
        <time>2019-07-07T14:06:10.669Z</time>
      </trkpt>
      <trkpt lat="43.06020667" lon="-0.45529">
        <ele>784.0</ele>
        <time>2019-07-07T14:06:11.699Z</time>
      </trkpt>
      <trkpt lat="43.06020667" lon="-0.45529">
        <ele>784.0</ele>
        <time>2019-07-07T14:06:12.681Z</time>
      </trkpt>
      <trkpt lat="43.06025" lon="-0.45531167">
        <ele>784.0</ele>
        <time>2019-07-07T14:06:13.694Z</time>
      </trkpt>
      <trkpt lat="43.06025" lon="-0.45531167">
        <ele>784.0</ele>
        <time>2019-07-07T14:06:14.679Z</time>
      </trkpt>
      <trkpt lat="43.06025" lon="-0.45531167">
        <ele>784.0</ele>
        <time>2019-07-07T14:06:15.697Z</time>
      </trkpt>
      <trkpt lat="43.06029167" lon="-0.45533167">
        <ele>785.0</ele>
        <time>2019-07-07T14:06:16.701Z</time>
      </trkpt>
      <trkpt lat="43.06029167" lon="-0.45533167">
        <ele>785.0</ele>
        <time>2019-07-07T14:06:17.672Z</time>
      </trkpt>
      <trkpt lat="43.06033667" lon="-0.45535333">
        <ele>785.0</ele>
        <time>2019-07-07T14:06:18.670Z</time>
      </trkpt>
      <trkpt lat="43.06035833" lon="-0.455365">
        <ele>786.0</ele>
        <time>2019-07-07T14:06:19.700Z</time>
      </trkpt>
      <trkpt lat="43.06035833" lon="-0.455365">
        <ele>786.0</ele>
        <time>2019-07-07T14:06:20.669Z</time>
      </trkpt>
      <trkpt lat="43.06042333" lon="-0.45540167">
        <ele>787.0</ele>
        <time>2019-07-07T14:06:21.692Z</time>
      </trkpt>
      <trkpt lat="43.06042333" lon="-0.45540167">
        <ele>787.0</ele>
        <time>2019-07-07T14:06:22.701Z</time>
      </trkpt>
      <trkpt lat="43.06042333" lon="-0.45540167">
        <ele>787.0</ele>
        <time>2019-07-07T14:06:23.695Z</time>
      </trkpt>
      <trkpt lat="43.06046833" lon="-0.45542333">
        <ele>787.0</ele>
        <time>2019-07-07T14:06:24.686Z</time>
      </trkpt>
      <trkpt lat="43.06051333" lon="-0.45544333">
        <ele>788.0</ele>
        <time>2019-07-07T14:06:25.697Z</time>
      </trkpt>
      <trkpt lat="43.06051333" lon="-0.45544333">
        <ele>788.0</ele>
        <time>2019-07-07T14:06:26.683Z</time>
      </trkpt>
      <trkpt lat="43.06053333" lon="-0.45545667">
        <ele>788.0</ele>
        <time>2019-07-07T14:06:27.686Z</time>
      </trkpt>
      <trkpt lat="43.060575" lon="-0.45548">
        <ele>788.0</ele>
        <time>2019-07-07T14:06:28.697Z</time>
      </trkpt>
      <trkpt lat="43.060595" lon="-0.45549">
        <ele>789.0</ele>
        <time>2019-07-07T14:06:29.705Z</time>
      </trkpt>
      <trkpt lat="43.060595" lon="-0.45549">
        <ele>789.0</ele>
        <time>2019-07-07T14:06:30.688Z</time>
      </trkpt>
      <trkpt lat="43.060615" lon="-0.45549833">
        <ele>789.0</ele>
        <time>2019-07-07T14:06:31.690Z</time>
      </trkpt>
      <trkpt lat="43.06065667" lon="-0.45552">
        <ele>789.0</ele>
        <time>2019-07-07T14:06:32.711Z</time>
      </trkpt>
      <trkpt lat="43.06065667" lon="-0.45552">
        <ele>789.0</ele>
        <time>2019-07-07T14:06:33.687Z</time>
      </trkpt>
      <trkpt lat="43.06067833" lon="-0.45553">
        <ele>790.0</ele>
        <time>2019-07-07T14:06:34.685Z</time>
      </trkpt>
      <trkpt lat="43.0607" lon="-0.45554">
        <ele>790.0</ele>
        <time>2019-07-07T14:06:35.693Z</time>
      </trkpt>
      <trkpt lat="43.060745" lon="-0.45555167">
        <ele>790.0</ele>
        <time>2019-07-07T14:06:36.701Z</time>
      </trkpt>
      <trkpt lat="43.060745" lon="-0.45555167">
        <ele>790.0</ele>
        <time>2019-07-07T14:06:37.682Z</time>
      </trkpt>
      <trkpt lat="43.06079" lon="-0.45556167">
        <ele>791.0</ele>
        <time>2019-07-07T14:06:38.692Z</time>
      </trkpt>
      <trkpt lat="43.06081333" lon="-0.455565">
        <ele>791.0</ele>
        <time>2019-07-07T14:06:39.699Z</time>
      </trkpt>
      <trkpt lat="43.06081333" lon="-0.455565">
        <ele>791.0</ele>
        <time>2019-07-07T14:06:40.683Z</time>
      </trkpt>
      <trkpt lat="43.06081333" lon="-0.455565">
        <ele>791.0</ele>
        <time>2019-07-07T14:06:41.694Z</time>
      </trkpt>
      <trkpt lat="43.06085667" lon="-0.45557833">
        <ele>791.0</ele>
        <time>2019-07-07T14:06:42.692Z</time>
      </trkpt>
      <trkpt lat="43.06087667" lon="-0.45558333">
        <ele>791.0</ele>
        <time>2019-07-07T14:06:43.685Z</time>
      </trkpt>
      <trkpt lat="43.06092167" lon="-0.45559">
        <ele>792.0</ele>
        <time>2019-07-07T14:06:44.705Z</time>
      </trkpt>
      <trkpt lat="43.06094333" lon="-0.45559167">
        <ele>792.0</ele>
        <time>2019-07-07T14:06:45.699Z</time>
      </trkpt>
      <trkpt lat="43.06094333" lon="-0.45559167">
        <ele>792.0</ele>
        <time>2019-07-07T14:06:46.678Z</time>
      </trkpt>
      <trkpt lat="43.06098833" lon="-0.45559333">
        <ele>792.0</ele>
        <time>2019-07-07T14:06:47.707Z</time>
      </trkpt>
      <trkpt lat="43.06098833" lon="-0.45559333">
        <ele>792.0</ele>
        <time>2019-07-07T14:06:48.667Z</time>
      </trkpt>
      <trkpt lat="43.06098833" lon="-0.45559333">
        <ele>792.0</ele>
        <time>2019-07-07T14:06:49.691Z</time>
      </trkpt>
      <trkpt lat="43.061035" lon="-0.4556">
        <ele>793.0</ele>
        <time>2019-07-07T14:06:50.677Z</time>
      </trkpt>
      <trkpt lat="43.061035" lon="-0.4556">
        <ele>793.0</ele>
        <time>2019-07-07T14:06:51.684Z</time>
      </trkpt>
      <trkpt lat="43.06108333" lon="-0.45560667">
        <ele>793.0</ele>
        <time>2019-07-07T14:06:52.690Z</time>
      </trkpt>
      <trkpt lat="43.06113" lon="-0.45561167">
        <ele>793.0</ele>
        <time>2019-07-07T14:06:53.704Z</time>
      </trkpt>
      <trkpt lat="43.06113" lon="-0.45561167">
        <ele>793.0</ele>
        <time>2019-07-07T14:06:54.688Z</time>
      </trkpt>
      <trkpt lat="43.06113" lon="-0.45561167">
        <ele>793.0</ele>
        <time>2019-07-07T14:06:55.695Z</time>
      </trkpt>
      <trkpt lat="43.0612" lon="-0.45562333">
        <ele>793.0</ele>
        <time>2019-07-07T14:06:56.701Z</time>
      </trkpt>
      <trkpt lat="43.0612" lon="-0.45562333">
        <ele>793.0</ele>
        <time>2019-07-07T14:06:57.667Z</time>
      </trkpt>
      <trkpt lat="43.06122" lon="-0.45563">
        <ele>794.0</ele>
        <time>2019-07-07T14:06:58.699Z</time>
      </trkpt>
      <trkpt lat="43.06122" lon="-0.45563">
        <ele>794.0</ele>
        <time>2019-07-07T14:06:59.671Z</time>
      </trkpt>
      <trkpt lat="43.06126833" lon="-0.45563333">
        <ele>794.0</ele>
        <time>2019-07-07T14:07:00.670Z</time>
      </trkpt>
      <trkpt lat="43.06126833" lon="-0.45563333">
        <ele>794.0</ele>
        <time>2019-07-07T14:07:01.694Z</time>
      </trkpt>
      <trkpt lat="43.0613" lon="-0.45563333">
        <ele>794.0</ele>
        <time>2019-07-07T14:07:02.688Z</time>
      </trkpt>
      <trkpt lat="43.06133833" lon="-0.45563167">
        <ele>795.0</ele>
        <time>2019-07-07T14:07:03.699Z</time>
      </trkpt>
      <trkpt lat="43.06133833" lon="-0.45563167">
        <ele>795.0</ele>
        <time>2019-07-07T14:07:04.704Z</time>
      </trkpt>
      <trkpt lat="43.06135833" lon="-0.45562833">
        <ele>795.0</ele>
        <time>2019-07-07T14:07:05.686Z</time>
      </trkpt>
      <trkpt lat="43.06140667" lon="-0.45563167">
        <ele>795.0</ele>
        <time>2019-07-07T14:07:06.697Z</time>
      </trkpt>
      <trkpt lat="43.06143" lon="-0.455635">
        <ele>796.0</ele>
        <time>2019-07-07T14:07:07.701Z</time>
      </trkpt>
      <trkpt lat="43.06143" lon="-0.455635">
        <ele>796.0</ele>
        <time>2019-07-07T14:07:08.686Z</time>
      </trkpt>
      <trkpt lat="43.06143" lon="-0.455635">
        <ele>796.0</ele>
        <time>2019-07-07T14:07:09.693Z</time>
      </trkpt>
      <trkpt lat="43.06146833" lon="-0.45563833">
        <ele>797.0</ele>
        <time>2019-07-07T14:07:10.681Z</time>
      </trkpt>
      <trkpt lat="43.061515" lon="-0.45564833">
        <ele>798.0</ele>
        <time>2019-07-07T14:07:11.688Z</time>
      </trkpt>
      <trkpt lat="43.061515" lon="-0.45564833">
        <ele>798.0</ele>
        <time>2019-07-07T14:07:12.687Z</time>
      </trkpt>
      <trkpt lat="43.06156167" lon="-0.45565833">
        <ele>798.0</ele>
        <time>2019-07-07T14:07:13.713Z</time>
      </trkpt>
      <trkpt lat="43.06158333" lon="-0.45565667">
        <ele>799.0</ele>
        <time>2019-07-07T14:07:14.710Z</time>
      </trkpt>
      <trkpt lat="43.06158333" lon="-0.45565667">
        <ele>799.0</ele>
        <time>2019-07-07T14:07:15.701Z</time>
      </trkpt>
      <trkpt lat="43.06158333" lon="-0.45565667">
        <ele>799.0</ele>
        <time>2019-07-07T14:07:16.667Z</time>
      </trkpt>
      <trkpt lat="43.06162833" lon="-0.45565833">
        <ele>799.0</ele>
        <time>2019-07-07T14:07:17.699Z</time>
      </trkpt>
      <trkpt lat="43.06162833" lon="-0.45565833">
        <ele>799.0</ele>
        <time>2019-07-07T14:07:18.666Z</time>
      </trkpt>
      <trkpt lat="43.06167167" lon="-0.45567">
        <ele>800.0</ele>
        <time>2019-07-07T14:07:19.694Z</time>
      </trkpt>
      <trkpt lat="43.06171333" lon="-0.45567833">
        <ele>800.0</ele>
        <time>2019-07-07T14:07:20.732Z</time>
      </trkpt>
      <trkpt lat="43.06171333" lon="-0.45567833">
        <ele>800.0</ele>
        <time>2019-07-07T14:07:21.667Z</time>
      </trkpt>
      <trkpt lat="43.06171333" lon="-0.45567833">
        <ele>800.0</ele>
        <time>2019-07-07T14:07:22.687Z</time>
      </trkpt>
      <trkpt lat="43.06175667" lon="-0.45568">
        <ele>801.0</ele>
        <time>2019-07-07T14:07:23.681Z</time>
      </trkpt>
      <trkpt lat="43.06177833" lon="-0.45568167">
        <ele>801.0</ele>
        <time>2019-07-07T14:07:24.703Z</time>
      </trkpt>
      <trkpt lat="43.06177833" lon="-0.45568167">
        <ele>801.0</ele>
        <time>2019-07-07T14:07:25.669Z</time>
      </trkpt>
      <trkpt lat="43.06182333" lon="-0.45568333">
        <ele>802.0</ele>
        <time>2019-07-07T14:07:26.670Z</time>
      </trkpt>
      <trkpt lat="43.06187167" lon="-0.45569167">
        <ele>802.0</ele>
        <time>2019-07-07T14:07:27.701Z</time>
      </trkpt>
      <trkpt lat="43.06187167" lon="-0.45569167">
        <ele>802.0</ele>
        <time>2019-07-07T14:07:28.667Z</time>
      </trkpt>
      <trkpt lat="43.06189667" lon="-0.455695">
        <ele>802.0</ele>
        <time>2019-07-07T14:07:29.693Z</time>
      </trkpt>
      <trkpt lat="43.06194833" lon="-0.45570167">
        <ele>803.0</ele>
        <time>2019-07-07T14:07:30.701Z</time>
      </trkpt>
      <trkpt lat="43.06194833" lon="-0.45570167">
        <ele>803.0</ele>
        <time>2019-07-07T14:07:31.679Z</time>
      </trkpt>
      <trkpt lat="43.06197167" lon="-0.45571167">
        <ele>804.0</ele>
        <time>2019-07-07T14:07:32.690Z</time>
      </trkpt>
      <trkpt lat="43.06197167" lon="-0.45571167">
        <ele>804.0</ele>
        <time>2019-07-07T14:07:33.672Z</time>
      </trkpt>
      <trkpt lat="43.06201" lon="-0.45574167">
        <ele>804.0</ele>
        <time>2019-07-07T14:07:34.670Z</time>
      </trkpt>
      <trkpt lat="43.06203" lon="-0.45576167">
        <ele>804.0</ele>
        <time>2019-07-07T14:07:35.669Z</time>
      </trkpt>
      <trkpt lat="43.06206667" lon="-0.45580167">
        <ele>804.0</ele>
        <time>2019-07-07T14:07:36.688Z</time>
      </trkpt>
      <trkpt lat="43.06206667" lon="-0.45580167">
        <ele>804.0</ele>
        <time>2019-07-07T14:07:37.688Z</time>
      </trkpt>
      <trkpt lat="43.06208333" lon="-0.45582333">
        <ele>805.0</ele>
        <time>2019-07-07T14:07:38.697Z</time>
      </trkpt>
      <trkpt lat="43.06211667" lon="-0.45587">
        <ele>805.0</ele>
        <time>2019-07-07T14:07:39.705Z</time>
      </trkpt>
      <trkpt lat="43.06211667" lon="-0.45587">
        <ele>805.0</ele>
        <time>2019-07-07T14:07:40.670Z</time>
      </trkpt>
      <trkpt lat="43.06214833" lon="-0.455925">
        <ele>805.0</ele>
        <time>2019-07-07T14:07:41.687Z</time>
      </trkpt>
      <trkpt lat="43.06214833" lon="-0.455925">
        <ele>805.0</ele>
        <time>2019-07-07T14:07:42.684Z</time>
      </trkpt>
      <trkpt lat="43.06216167" lon="-0.45595333">
        <ele>805.0</ele>
        <time>2019-07-07T14:07:43.688Z</time>
      </trkpt>
      <trkpt lat="43.06217667" lon="-0.45601667">
        <ele>805.0</ele>
        <time>2019-07-07T14:07:44.699Z</time>
      </trkpt>
      <trkpt lat="43.062185" lon="-0.45604667">
        <ele>806.0</ele>
        <time>2019-07-07T14:07:45.701Z</time>
      </trkpt>
      <trkpt lat="43.062185" lon="-0.45604667">
        <ele>806.0</ele>
        <time>2019-07-07T14:07:46.693Z</time>
      </trkpt>
      <trkpt lat="43.062195" lon="-0.45611333">
        <ele>806.0</ele>
        <time>2019-07-07T14:07:47.713Z</time>
      </trkpt>
      <trkpt lat="43.062195" lon="-0.45615">
        <ele>806.0</ele>
        <time>2019-07-07T14:07:48.699Z</time>
      </trkpt>
      <trkpt lat="43.062195" lon="-0.45615">
        <ele>806.0</ele>
        <time>2019-07-07T14:07:49.683Z</time>
      </trkpt>
      <trkpt lat="43.062195" lon="-0.45615">
        <ele>806.0</ele>
        <time>2019-07-07T14:07:50.691Z</time>
      </trkpt>
      <trkpt lat="43.062185" lon="-0.45622">
        <ele>807.0</ele>
        <time>2019-07-07T14:07:51.680Z</time>
      </trkpt>
      <trkpt lat="43.062185" lon="-0.45622">
        <ele>807.0</ele>
        <time>2019-07-07T14:07:52.707Z</time>
      </trkpt>
      <trkpt lat="43.06216833" lon="-0.45627333">
        <ele>807.0</ele>
        <time>2019-07-07T14:07:53.703Z</time>
      </trkpt>
      <trkpt lat="43.06216833" lon="-0.45627333">
        <ele>807.0</ele>
        <time>2019-07-07T14:07:54.669Z</time>
      </trkpt>
      <trkpt lat="43.06214833" lon="-0.45632833">
        <ele>808.0</ele>
        <time>2019-07-07T14:07:55.666Z</time>
      </trkpt>
      <trkpt lat="43.06214833" lon="-0.45632833">
        <ele>808.0</ele>
        <time>2019-07-07T14:07:56.677Z</time>
      </trkpt>
      <trkpt lat="43.06212833" lon="-0.456385">
        <ele>808.0</ele>
        <time>2019-07-07T14:07:57.669Z</time>
      </trkpt>
      <trkpt lat="43.06211833" lon="-0.456415">
        <ele>808.0</ele>
        <time>2019-07-07T14:07:58.702Z</time>
      </trkpt>
      <trkpt lat="43.06211833" lon="-0.456415">
        <ele>808.0</ele>
        <time>2019-07-07T14:07:59.670Z</time>
      </trkpt>
      <trkpt lat="43.06208333" lon="-0.45649667">
        <ele>809.0</ele>
        <time>2019-07-07T14:08:00.690Z</time>
      </trkpt>
      <trkpt lat="43.06208333" lon="-0.45649667">
        <ele>809.0</ele>
        <time>2019-07-07T14:08:01.697Z</time>
      </trkpt>
      <trkpt lat="43.062045" lon="-0.456545">
        <ele>809.0</ele>
        <time>2019-07-07T14:08:02.705Z</time>
      </trkpt>
      <trkpt lat="43.062045" lon="-0.456545">
        <ele>809.0</ele>
        <time>2019-07-07T14:08:03.672Z</time>
      </trkpt>
      <trkpt lat="43.062045" lon="-0.456545">
        <ele>809.0</ele>
        <time>2019-07-07T14:08:04.691Z</time>
      </trkpt>
      <trkpt lat="43.06200333" lon="-0.456595">
        <ele>810.0</ele>
        <time>2019-07-07T14:08:05.700Z</time>
      </trkpt>
      <trkpt lat="43.06200333" lon="-0.456595">
        <ele>810.0</ele>
        <time>2019-07-07T14:08:06.668Z</time>
      </trkpt>
      <trkpt lat="43.061945" lon="-0.45666833">
        <ele>811.0</ele>
        <time>2019-07-07T14:08:07.692Z</time>
      </trkpt>
      <trkpt lat="43.061945" lon="-0.45666833">
        <ele>811.0</ele>
        <time>2019-07-07T14:08:08.685Z</time>
      </trkpt>
      <trkpt lat="43.061945" lon="-0.45666833">
        <ele>811.0</ele>
        <time>2019-07-07T14:08:09.695Z</time>
      </trkpt>
      <trkpt lat="43.061905" lon="-0.45670833">
        <ele>811.0</ele>
        <time>2019-07-07T14:08:10.670Z</time>
      </trkpt>
      <trkpt lat="43.061905" lon="-0.45670833">
        <ele>811.0</ele>
        <time>2019-07-07T14:08:11.690Z</time>
      </trkpt>
      <trkpt lat="43.06186167" lon="-0.45674">
        <ele>812.0</ele>
        <time>2019-07-07T14:08:12.669Z</time>
      </trkpt>
      <trkpt lat="43.06184" lon="-0.456755">
        <ele>812.0</ele>
        <time>2019-07-07T14:08:13.684Z</time>
      </trkpt>
      <trkpt lat="43.06184" lon="-0.456755">
        <ele>812.0</ele>
        <time>2019-07-07T14:08:14.690Z</time>
      </trkpt>
      <trkpt lat="43.06179333" lon="-0.45678833">
        <ele>812.0</ele>
        <time>2019-07-07T14:08:15.667Z</time>
      </trkpt>
      <trkpt lat="43.06179333" lon="-0.45678833">
        <ele>812.0</ele>
        <time>2019-07-07T14:08:16.687Z</time>
      </trkpt>
      <trkpt lat="43.06175333" lon="-0.45682">
        <ele>812.0</ele>
        <time>2019-07-07T14:08:17.680Z</time>
      </trkpt>
      <trkpt lat="43.06175333" lon="-0.45682">
        <ele>812.0</ele>
        <time>2019-07-07T14:08:18.686Z</time>
      </trkpt>
      <trkpt lat="43.061695" lon="-0.45687333">
        <ele>813.0</ele>
        <time>2019-07-07T14:08:19.703Z</time>
      </trkpt>
      <trkpt lat="43.061695" lon="-0.45687333">
        <ele>813.0</ele>
        <time>2019-07-07T14:08:20.684Z</time>
      </trkpt>
      <trkpt lat="43.06165167" lon="-0.45691667">
        <ele>813.0</ele>
        <time>2019-07-07T14:08:21.695Z</time>
      </trkpt>
      <trkpt lat="43.06165167" lon="-0.45691667">
        <ele>813.0</ele>
        <time>2019-07-07T14:08:22.701Z</time>
      </trkpt>
      <trkpt lat="43.06165167" lon="-0.45691667">
        <ele>813.0</ele>
        <time>2019-07-07T14:08:23.667Z</time>
      </trkpt>
      <trkpt lat="43.06159333" lon="-0.45699667">
        <ele>814.0</ele>
        <time>2019-07-07T14:08:24.703Z</time>
      </trkpt>
      <trkpt lat="43.06159333" lon="-0.45699667">
        <ele>814.0</ele>
        <time>2019-07-07T14:08:25.670Z</time>
      </trkpt>
      <trkpt lat="43.061575" lon="-0.457025">
        <ele>814.0</ele>
        <time>2019-07-07T14:08:26.693Z</time>
      </trkpt>
      <trkpt lat="43.06155167" lon="-0.45709">
        <ele>815.0</ele>
        <time>2019-07-07T14:08:27.748Z</time>
      </trkpt>
      <trkpt lat="43.06155167" lon="-0.45709">
        <ele>815.0</ele>
        <time>2019-07-07T14:08:28.699Z</time>
      </trkpt>
      <trkpt lat="43.06155167" lon="-0.45709">
        <ele>815.0</ele>
        <time>2019-07-07T14:08:29.666Z</time>
      </trkpt>
      <trkpt lat="43.06155" lon="-0.45716">
        <ele>815.0</ele>
        <time>2019-07-07T14:08:30.687Z</time>
      </trkpt>
      <trkpt lat="43.06157167" lon="-0.45721833">
        <ele>816.0</ele>
        <time>2019-07-07T14:08:31.698Z</time>
      </trkpt>
      <trkpt lat="43.06157167" lon="-0.45721833">
        <ele>816.0</ele>
        <time>2019-07-07T14:08:32.698Z</time>
      </trkpt>
      <trkpt lat="43.06157167" lon="-0.45721833">
        <ele>816.0</ele>
        <time>2019-07-07T14:08:33.665Z</time>
      </trkpt>
      <trkpt lat="43.06160167" lon="-0.45726833">
        <ele>816.0</ele>
        <time>2019-07-07T14:08:34.685Z</time>
      </trkpt>
      <trkpt lat="43.06163833" lon="-0.45731167">
        <ele>816.0</ele>
        <time>2019-07-07T14:08:35.704Z</time>
      </trkpt>
      <trkpt lat="43.06165833" lon="-0.45733">
        <ele>816.0</ele>
        <time>2019-07-07T14:08:36.703Z</time>
      </trkpt>
      <trkpt lat="43.06165833" lon="-0.45733">
        <ele>816.0</ele>
        <time>2019-07-07T14:08:37.681Z</time>
      </trkpt>
      <trkpt lat="43.06165833" lon="-0.45733">
        <ele>816.0</ele>
        <time>2019-07-07T14:08:38.688Z</time>
      </trkpt>
      <trkpt lat="43.06169333" lon="-0.457375">
        <ele>816.0</ele>
        <time>2019-07-07T14:08:39.685Z</time>
      </trkpt>
      <trkpt lat="43.06171167" lon="-0.45739167">
        <ele>816.0</ele>
        <time>2019-07-07T14:08:40.671Z</time>
      </trkpt>
      <trkpt lat="43.06173333" lon="-0.45740833">
        <ele>816.0</ele>
        <time>2019-07-07T14:08:41.666Z</time>
      </trkpt>
      <trkpt lat="43.06173333" lon="-0.45740833">
        <ele>816.0</ele>
        <time>2019-07-07T14:08:42.685Z</time>
      </trkpt>
      <trkpt lat="43.06177333" lon="-0.45744667">
        <ele>816.0</ele>
        <time>2019-07-07T14:08:43.703Z</time>
      </trkpt>
      <trkpt lat="43.06177333" lon="-0.45744667">
        <ele>816.0</ele>
        <time>2019-07-07T14:08:44.669Z</time>
      </trkpt>
      <trkpt lat="43.06181667" lon="-0.45748">
        <ele>817.0</ele>
        <time>2019-07-07T14:08:45.675Z</time>
      </trkpt>
      <trkpt lat="43.06183667" lon="-0.45749833">
        <ele>818.0</ele>
        <time>2019-07-07T14:08:46.697Z</time>
      </trkpt>
      <trkpt lat="43.06187833" lon="-0.45753">
        <ele>819.0</ele>
        <time>2019-07-07T14:08:47.709Z</time>
      </trkpt>
      <trkpt lat="43.06187833" lon="-0.45753">
        <ele>819.0</ele>
        <time>2019-07-07T14:08:48.688Z</time>
      </trkpt>
      <trkpt lat="43.0619" lon="-0.45754167">
        <ele>819.0</ele>
        <time>2019-07-07T14:08:49.679Z</time>
      </trkpt>
      <trkpt lat="43.061925" lon="-0.45755167">
        <ele>819.0</ele>
        <time>2019-07-07T14:08:50.680Z</time>
      </trkpt>
      <trkpt lat="43.06197" lon="-0.45756833">
        <ele>819.0</ele>
        <time>2019-07-07T14:08:51.699Z</time>
      </trkpt>
      <trkpt lat="43.06197" lon="-0.45756833">
        <ele>819.0</ele>
        <time>2019-07-07T14:08:52.682Z</time>
      </trkpt>
      <trkpt lat="43.06202667" lon="-0.45758">
        <ele>820.0</ele>
        <time>2019-07-07T14:08:53.700Z</time>
      </trkpt>
      <trkpt lat="43.06202667" lon="-0.45758">
        <ele>820.0</ele>
        <time>2019-07-07T14:08:54.667Z</time>
      </trkpt>
      <trkpt lat="43.062055" lon="-0.45757833">
        <ele>820.0</ele>
        <time>2019-07-07T14:08:55.665Z</time>
      </trkpt>
      <trkpt lat="43.062055" lon="-0.45757833">
        <ele>820.0</ele>
        <time>2019-07-07T14:08:56.673Z</time>
      </trkpt>
      <trkpt lat="43.06210833" lon="-0.45757667">
        <ele>821.0</ele>
        <time>2019-07-07T14:08:57.668Z</time>
      </trkpt>
      <trkpt lat="43.062135" lon="-0.45757667">
        <ele>821.0</ele>
        <time>2019-07-07T14:08:58.697Z</time>
      </trkpt>
      <trkpt lat="43.062135" lon="-0.45757667">
        <ele>821.0</ele>
        <time>2019-07-07T14:08:59.706Z</time>
      </trkpt>
      <trkpt lat="43.062195" lon="-0.45757333">
        <ele>822.0</ele>
        <time>2019-07-07T14:09:00.691Z</time>
      </trkpt>
      <trkpt lat="43.062195" lon="-0.45757333">
        <ele>822.0</ele>
        <time>2019-07-07T14:09:01.694Z</time>
      </trkpt>
      <trkpt lat="43.06224833" lon="-0.45757833">
        <ele>823.0</ele>
        <time>2019-07-07T14:09:02.680Z</time>
      </trkpt>
      <trkpt lat="43.06229667" lon="-0.45758167">
        <ele>823.0</ele>
        <time>2019-07-07T14:09:03.689Z</time>
      </trkpt>
      <trkpt lat="43.06229667" lon="-0.45758167">
        <ele>823.0</ele>
        <time>2019-07-07T14:09:04.696Z</time>
      </trkpt>
      <trkpt lat="43.06233667" lon="-0.4576">
        <ele>824.0</ele>
        <time>2019-07-07T14:09:05.702Z</time>
      </trkpt>
      <trkpt lat="43.06233667" lon="-0.4576">
        <ele>824.0</ele>
        <time>2019-07-07T14:09:06.681Z</time>
      </trkpt>
      <trkpt lat="43.062365" lon="-0.45760833">
        <ele>825.0</ele>
        <time>2019-07-07T14:09:07.670Z</time>
      </trkpt>
      <trkpt lat="43.062365" lon="-0.45760833">
        <ele>825.0</ele>
        <time>2019-07-07T14:09:08.692Z</time>
      </trkpt>
      <trkpt lat="43.06241333" lon="-0.45761833">
        <ele>825.0</ele>
        <time>2019-07-07T14:09:09.691Z</time>
      </trkpt>
      <trkpt lat="43.062465" lon="-0.45763667">
        <ele>825.0</ele>
        <time>2019-07-07T14:09:10.699Z</time>
      </trkpt>
      <trkpt lat="43.062465" lon="-0.45763667">
        <ele>825.0</ele>
        <time>2019-07-07T14:09:11.692Z</time>
      </trkpt>
      <trkpt lat="43.06251667" lon="-0.45765833">
        <ele>826.0</ele>
        <time>2019-07-07T14:09:12.704Z</time>
      </trkpt>
      <trkpt lat="43.06251667" lon="-0.45765833">
        <ele>826.0</ele>
        <time>2019-07-07T14:09:13.700Z</time>
      </trkpt>
      <trkpt lat="43.06251667" lon="-0.45765833">
        <ele>826.0</ele>
        <time>2019-07-07T14:09:14.665Z</time>
      </trkpt>
      <trkpt lat="43.062565" lon="-0.45768833">
        <ele>827.0</ele>
        <time>2019-07-07T14:09:15.669Z</time>
      </trkpt>
      <trkpt lat="43.062565" lon="-0.45768833">
        <ele>827.0</ele>
        <time>2019-07-07T14:09:16.683Z</time>
      </trkpt>
      <trkpt lat="43.06261" lon="-0.457725">
        <ele>827.0</ele>
        <time>2019-07-07T14:09:17.671Z</time>
      </trkpt>
      <trkpt lat="43.062635" lon="-0.45774167">
        <ele>828.0</ele>
        <time>2019-07-07T14:09:18.695Z</time>
      </trkpt>
      <trkpt lat="43.06268333" lon="-0.45777667">
        <ele>828.0</ele>
        <time>2019-07-07T14:09:19.702Z</time>
      </trkpt>
      <trkpt lat="43.06268333" lon="-0.45777667">
        <ele>828.0</ele>
        <time>2019-07-07T14:09:20.693Z</time>
      </trkpt>
      <trkpt lat="43.06272833" lon="-0.45780833">
        <ele>828.0</ele>
        <time>2019-07-07T14:09:21.675Z</time>
      </trkpt>
      <trkpt lat="43.06272833" lon="-0.45780833">
        <ele>828.0</ele>
        <time>2019-07-07T14:09:22.681Z</time>
      </trkpt>
      <trkpt lat="43.06272833" lon="-0.45780833">
        <ele>828.0</ele>
        <time>2019-07-07T14:09:23.691Z</time>
      </trkpt>
      <trkpt lat="43.062775" lon="-0.45783667">
        <ele>829.0</ele>
        <time>2019-07-07T14:09:24.686Z</time>
      </trkpt>
      <trkpt lat="43.0628" lon="-0.45784667">
        <ele>829.0</ele>
        <time>2019-07-07T14:09:25.677Z</time>
      </trkpt>
      <trkpt lat="43.0628" lon="-0.45784667">
        <ele>829.0</ele>
        <time>2019-07-07T14:09:26.687Z</time>
      </trkpt>
      <trkpt lat="43.06288167" lon="-0.457865">
        <ele>830.0</ele>
        <time>2019-07-07T14:09:27.711Z</time>
      </trkpt>
      <trkpt lat="43.06288167" lon="-0.457865">
        <ele>830.0</ele>
        <time>2019-07-07T14:09:28.691Z</time>
      </trkpt>
      <trkpt lat="43.06293833" lon="-0.45786833">
        <ele>830.0</ele>
        <time>2019-07-07T14:09:29.699Z</time>
      </trkpt>
      <trkpt lat="43.06293833" lon="-0.45786833">
        <ele>830.0</ele>
        <time>2019-07-07T14:09:30.681Z</time>
      </trkpt>
      <trkpt lat="43.062965" lon="-0.45786667">
        <ele>830.0</ele>
        <time>2019-07-07T14:09:31.684Z</time>
      </trkpt>
      <trkpt lat="43.063025" lon="-0.45785833">
        <ele>831.0</ele>
        <time>2019-07-07T14:09:32.690Z</time>
      </trkpt>
      <trkpt lat="43.063025" lon="-0.45785833">
        <ele>831.0</ele>
        <time>2019-07-07T14:09:33.691Z</time>
      </trkpt>
      <trkpt lat="43.063025" lon="-0.45785833">
        <ele>831.0</ele>
        <time>2019-07-07T14:09:34.694Z</time>
      </trkpt>
      <trkpt lat="43.06307667" lon="-0.45784">
        <ele>831.0</ele>
        <time>2019-07-07T14:09:35.683Z</time>
      </trkpt>
      <trkpt lat="43.06312667" lon="-0.45781167">
        <ele>831.0</ele>
        <time>2019-07-07T14:09:36.715Z</time>
      </trkpt>
      <trkpt lat="43.06315" lon="-0.457805">
        <ele>832.0</ele>
        <time>2019-07-07T14:09:37.703Z</time>
      </trkpt>
      <trkpt lat="43.06315" lon="-0.457805">
        <ele>832.0</ele>
        <time>2019-07-07T14:09:38.701Z</time>
      </trkpt>
      <trkpt lat="43.06315" lon="-0.457805">
        <ele>832.0</ele>
        <time>2019-07-07T14:09:39.667Z</time>
      </trkpt>
      <trkpt lat="43.0632" lon="-0.45778167">
        <ele>832.0</ele>
        <time>2019-07-07T14:09:40.677Z</time>
      </trkpt>
      <trkpt lat="43.0632" lon="-0.45778167">
        <ele>832.0</ele>
        <time>2019-07-07T14:09:41.684Z</time>
      </trkpt>
      <trkpt lat="43.06325333" lon="-0.45775833">
        <ele>832.0</ele>
        <time>2019-07-07T14:09:42.686Z</time>
      </trkpt>
      <trkpt lat="43.063305" lon="-0.45774">
        <ele>832.0</ele>
        <time>2019-07-07T14:09:43.693Z</time>
      </trkpt>
      <trkpt lat="43.063305" lon="-0.45774">
        <ele>832.0</ele>
        <time>2019-07-07T14:09:44.681Z</time>
      </trkpt>
      <trkpt lat="43.06335833" lon="-0.45773167">
        <ele>833.0</ele>
        <time>2019-07-07T14:09:45.703Z</time>
      </trkpt>
      <trkpt lat="43.06335833" lon="-0.45773167">
        <ele>833.0</ele>
        <time>2019-07-07T14:09:46.696Z</time>
      </trkpt>
      <trkpt lat="43.06335833" lon="-0.45773167">
        <ele>833.0</ele>
        <time>2019-07-07T14:09:47.670Z</time>
      </trkpt>
      <trkpt lat="43.063415" lon="-0.457735">
        <ele>833.0</ele>
        <time>2019-07-07T14:09:48.665Z</time>
      </trkpt>
      <trkpt lat="43.06344333" lon="-0.45774">
        <ele>833.0</ele>
        <time>2019-07-07T14:09:49.674Z</time>
      </trkpt>
      <trkpt lat="43.06349667" lon="-0.45776333">
        <ele>833.0</ele>
        <time>2019-07-07T14:09:50.696Z</time>
      </trkpt>
      <trkpt lat="43.06349667" lon="-0.45776333">
        <ele>833.0</ele>
        <time>2019-07-07T14:09:51.671Z</time>
      </trkpt>
      <trkpt lat="43.06352" lon="-0.45778">
        <ele>833.0</ele>
        <time>2019-07-07T14:09:52.677Z</time>
      </trkpt>
      <trkpt lat="43.06352" lon="-0.45778">
        <ele>833.0</ele>
        <time>2019-07-07T14:09:53.693Z</time>
      </trkpt>
      <trkpt lat="43.06356667" lon="-0.45781833">
        <ele>834.0</ele>
        <time>2019-07-07T14:09:54.680Z</time>
      </trkpt>
      <trkpt lat="43.06358833" lon="-0.45783667">
        <ele>834.0</ele>
        <time>2019-07-07T14:09:55.678Z</time>
      </trkpt>
      <trkpt lat="43.06363" lon="-0.45787833">
        <ele>834.0</ele>
        <time>2019-07-07T14:09:56.696Z</time>
      </trkpt>
      <trkpt lat="43.06363" lon="-0.45787833">
        <ele>834.0</ele>
        <time>2019-07-07T14:09:57.670Z</time>
      </trkpt>
      <trkpt lat="43.06365167" lon="-0.45789833">
        <ele>834.0</ele>
        <time>2019-07-07T14:09:58.671Z</time>
      </trkpt>
      <trkpt lat="43.06369667" lon="-0.45793833">
        <ele>835.0</ele>
        <time>2019-07-07T14:09:59.689Z</time>
      </trkpt>
      <trkpt lat="43.06372" lon="-0.45795667">
        <ele>835.0</ele>
        <time>2019-07-07T14:10:00.701Z</time>
      </trkpt>
      <trkpt lat="43.06372" lon="-0.45795667">
        <ele>835.0</ele>
        <time>2019-07-07T14:10:01.690Z</time>
      </trkpt>
      <trkpt lat="43.06376667" lon="-0.45798667">
        <ele>835.0</ele>
        <time>2019-07-07T14:10:02.698Z</time>
      </trkpt>
      <trkpt lat="43.06376667" lon="-0.45798667">
        <ele>835.0</ele>
        <time>2019-07-07T14:10:03.697Z</time>
      </trkpt>
      <trkpt lat="43.06379" lon="-0.45800167">
        <ele>835.0</ele>
        <time>2019-07-07T14:10:04.668Z</time>
      </trkpt>
      <trkpt lat="43.06379" lon="-0.45800167">
        <ele>835.0</ele>
        <time>2019-07-07T14:10:05.677Z</time>
      </trkpt>
      <trkpt lat="43.06386333" lon="-0.45804167">
        <ele>836.0</ele>
        <time>2019-07-07T14:10:06.699Z</time>
      </trkpt>
      <trkpt lat="43.06386333" lon="-0.45804167">
        <ele>836.0</ele>
        <time>2019-07-07T14:10:07.665Z</time>
      </trkpt>
      <trkpt lat="43.06386333" lon="-0.45804167">
        <ele>836.0</ele>
        <time>2019-07-07T14:10:08.696Z</time>
      </trkpt>
      <trkpt lat="43.06391167" lon="-0.45806">
        <ele>836.0</ele>
        <time>2019-07-07T14:10:09.700Z</time>
      </trkpt>
      <trkpt lat="43.06391167" lon="-0.45806">
        <ele>836.0</ele>
        <time>2019-07-07T14:10:10.666Z</time>
      </trkpt>
      <trkpt lat="43.06396" lon="-0.45807833">
        <ele>836.0</ele>
        <time>2019-07-07T14:10:11.669Z</time>
      </trkpt>
      <trkpt lat="43.06396" lon="-0.45807833">
        <ele>836.0</ele>
        <time>2019-07-07T14:10:12.684Z</time>
      </trkpt>
      <trkpt lat="43.06401" lon="-0.45809">
        <ele>836.0</ele>
        <time>2019-07-07T14:10:13.693Z</time>
      </trkpt>
      <trkpt lat="43.064035" lon="-0.45809667">
        <ele>837.0</ele>
        <time>2019-07-07T14:10:14.697Z</time>
      </trkpt>
      <trkpt lat="43.06408667" lon="-0.45810667">
        <ele>837.0</ele>
        <time>2019-07-07T14:10:15.706Z</time>
      </trkpt>
      <trkpt lat="43.06408667" lon="-0.45810667">
        <ele>837.0</ele>
        <time>2019-07-07T14:10:16.681Z</time>
      </trkpt>
      <trkpt lat="43.06408667" lon="-0.45810667">
        <ele>837.0</ele>
        <time>2019-07-07T14:10:17.692Z</time>
      </trkpt>
      <trkpt lat="43.064135" lon="-0.45811667">
        <ele>837.0</ele>
        <time>2019-07-07T14:10:18.670Z</time>
      </trkpt>
      <trkpt lat="43.06418667" lon="-0.45812667">
        <ele>837.0</ele>
        <time>2019-07-07T14:10:19.701Z</time>
      </trkpt>
      <trkpt lat="43.06418667" lon="-0.45812667">
        <ele>837.0</ele>
        <time>2019-07-07T14:10:20.666Z</time>
      </trkpt>
      <trkpt lat="43.06418667" lon="-0.45812667">
        <ele>837.0</ele>
        <time>2019-07-07T14:10:21.687Z</time>
      </trkpt>
      <trkpt lat="43.06423667" lon="-0.45813333">
        <ele>838.0</ele>
        <time>2019-07-07T14:10:22.689Z</time>
      </trkpt>
      <trkpt lat="43.06428833" lon="-0.45814167">
        <ele>838.0</ele>
        <time>2019-07-07T14:10:23.708Z</time>
      </trkpt>
      <trkpt lat="43.06431333" lon="-0.458145">
        <ele>838.0</ele>
        <time>2019-07-07T14:10:24.703Z</time>
      </trkpt>
      <trkpt lat="43.06431333" lon="-0.458145">
        <ele>838.0</ele>
        <time>2019-07-07T14:10:25.689Z</time>
      </trkpt>
      <trkpt lat="43.06431333" lon="-0.458145">
        <ele>838.0</ele>
        <time>2019-07-07T14:10:26.682Z</time>
      </trkpt>
      <trkpt lat="43.06439167" lon="-0.458165">
        <ele>839.0</ele>
        <time>2019-07-07T14:10:27.697Z</time>
      </trkpt>
      <trkpt lat="43.06439167" lon="-0.458165">
        <ele>839.0</ele>
        <time>2019-07-07T14:10:28.665Z</time>
      </trkpt>
      <trkpt lat="43.06439167" lon="-0.458165">
        <ele>839.0</ele>
        <time>2019-07-07T14:10:29.710Z</time>
      </trkpt>
      <trkpt lat="43.064445" lon="-0.458185">
        <ele>839.0</ele>
        <time>2019-07-07T14:10:30.695Z</time>
      </trkpt>
      <trkpt lat="43.064495" lon="-0.45820667">
        <ele>840.0</ele>
        <time>2019-07-07T14:10:31.704Z</time>
      </trkpt>
      <trkpt lat="43.064495" lon="-0.45820667">
        <ele>840.0</ele>
        <time>2019-07-07T14:10:32.688Z</time>
      </trkpt>
      <trkpt lat="43.064495" lon="-0.45820667">
        <ele>840.0</ele>
        <time>2019-07-07T14:10:33.695Z</time>
      </trkpt>
      <trkpt lat="43.06454333" lon="-0.45823167">
        <ele>840.0</ele>
        <time>2019-07-07T14:10:34.671Z</time>
      </trkpt>
      <trkpt lat="43.06459167" lon="-0.45826">
        <ele>840.0</ele>
        <time>2019-07-07T14:10:35.697Z</time>
      </trkpt>
      <trkpt lat="43.06459167" lon="-0.45826">
        <ele>840.0</ele>
        <time>2019-07-07T14:10:36.689Z</time>
      </trkpt>
      <trkpt lat="43.064615" lon="-0.458275">
        <ele>841.0</ele>
        <time>2019-07-07T14:10:37.682Z</time>
      </trkpt>
      <trkpt lat="43.06466167" lon="-0.45830167">
        <ele>841.0</ele>
        <time>2019-07-07T14:10:38.693Z</time>
      </trkpt>
      <trkpt lat="43.064685" lon="-0.45831667">
        <ele>841.0</ele>
        <time>2019-07-07T14:10:39.703Z</time>
      </trkpt>
      <trkpt lat="43.064685" lon="-0.45831667">
        <ele>841.0</ele>
        <time>2019-07-07T14:10:40.669Z</time>
      </trkpt>
      <trkpt lat="43.064685" lon="-0.45831667">
        <ele>841.0</ele>
        <time>2019-07-07T14:10:41.691Z</time>
      </trkpt>
      <trkpt lat="43.06472667" lon="-0.45835167">
        <ele>841.0</ele>
        <time>2019-07-07T14:10:42.670Z</time>
      </trkpt>
      <trkpt lat="43.06474833" lon="-0.45836833">
        <ele>841.0</ele>
        <time>2019-07-07T14:10:43.681Z</time>
      </trkpt>
      <trkpt lat="43.06479" lon="-0.45840333">
        <ele>842.0</ele>
        <time>2019-07-07T14:10:44.699Z</time>
      </trkpt>
      <trkpt lat="43.06479" lon="-0.45840333">
        <ele>842.0</ele>
        <time>2019-07-07T14:10:45.666Z</time>
      </trkpt>
      <trkpt lat="43.06481167" lon="-0.45842167">
        <ele>842.0</ele>
        <time>2019-07-07T14:10:46.695Z</time>
      </trkpt>
      <trkpt lat="43.06485333" lon="-0.45846167">
        <ele>842.0</ele>
        <time>2019-07-07T14:10:47.702Z</time>
      </trkpt>
      <trkpt lat="43.06487333" lon="-0.45848167">
        <ele>842.0</ele>
        <time>2019-07-07T14:10:48.701Z</time>
      </trkpt>
      <trkpt lat="43.064895" lon="-0.4585">
        <ele>842.0</ele>
        <time>2019-07-07T14:10:49.695Z</time>
      </trkpt>
      <trkpt lat="43.064895" lon="-0.4585">
        <ele>842.0</ele>
        <time>2019-07-07T14:10:50.681Z</time>
      </trkpt>
      <trkpt lat="43.064895" lon="-0.4585">
        <ele>842.0</ele>
        <time>2019-07-07T14:10:51.693Z</time>
      </trkpt>
      <trkpt lat="43.064935" lon="-0.45854">
        <ele>843.0</ele>
        <time>2019-07-07T14:10:52.704Z</time>
      </trkpt>
      <trkpt lat="43.064935" lon="-0.45854">
        <ele>843.0</ele>
        <time>2019-07-07T14:10:53.672Z</time>
      </trkpt>
      <trkpt lat="43.064975" lon="-0.45857667">
        <ele>843.0</ele>
        <time>2019-07-07T14:10:54.666Z</time>
      </trkpt>
      <trkpt lat="43.064975" lon="-0.45857667">
        <ele>843.0</ele>
        <time>2019-07-07T14:10:55.673Z</time>
      </trkpt>
      <trkpt lat="43.065015" lon="-0.45861333">
        <ele>843.0</ele>
        <time>2019-07-07T14:10:56.684Z</time>
      </trkpt>
      <trkpt lat="43.065015" lon="-0.45861333">
        <ele>843.0</ele>
        <time>2019-07-07T14:10:57.692Z</time>
      </trkpt>
      <trkpt lat="43.06505333" lon="-0.45865167">
        <ele>844.0</ele>
        <time>2019-07-07T14:10:58.681Z</time>
      </trkpt>
      <trkpt lat="43.06505333" lon="-0.45865167">
        <ele>844.0</ele>
        <time>2019-07-07T14:10:59.697Z</time>
      </trkpt>
      <trkpt lat="43.06509667" lon="-0.458685">
        <ele>844.0</ele>
        <time>2019-07-07T14:11:00.674Z</time>
      </trkpt>
      <trkpt lat="43.06509667" lon="-0.458685">
        <ele>844.0</ele>
        <time>2019-07-07T14:11:01.691Z</time>
      </trkpt>
      <trkpt lat="43.06517167" lon="-0.45873167">
        <ele>844.0</ele>
        <time>2019-07-07T14:11:02.702Z</time>
      </trkpt>
      <trkpt lat="43.06517167" lon="-0.45873167">
        <ele>844.0</ele>
        <time>2019-07-07T14:11:03.666Z</time>
      </trkpt>
      <trkpt lat="43.0652" lon="-0.45874667">
        <ele>845.0</ele>
        <time>2019-07-07T14:11:04.695Z</time>
      </trkpt>
      <trkpt lat="43.06525667" lon="-0.45877333">
        <ele>845.0</ele>
        <time>2019-07-07T14:11:05.700Z</time>
      </trkpt>
      <trkpt lat="43.06525667" lon="-0.45877333">
        <ele>845.0</ele>
        <time>2019-07-07T14:11:06.682Z</time>
      </trkpt>
      <trkpt lat="43.06528667" lon="-0.458785">
        <ele>845.0</ele>
        <time>2019-07-07T14:11:07.673Z</time>
      </trkpt>
      <trkpt lat="43.06535167" lon="-0.458815">
        <ele>845.0</ele>
        <time>2019-07-07T14:11:08.692Z</time>
      </trkpt>
      <trkpt lat="43.06535167" lon="-0.458815">
        <ele>845.0</ele>
        <time>2019-07-07T14:11:09.699Z</time>
      </trkpt>
      <trkpt lat="43.06538333" lon="-0.458835">
        <ele>845.0</ele>
        <time>2019-07-07T14:11:10.703Z</time>
      </trkpt>
      <trkpt lat="43.065445" lon="-0.45888667">
        <ele>845.0</ele>
        <time>2019-07-07T14:11:11.706Z</time>
      </trkpt>
      <trkpt lat="43.065445" lon="-0.45888667">
        <ele>845.0</ele>
        <time>2019-07-07T14:11:12.668Z</time>
      </trkpt>
      <trkpt lat="43.065445" lon="-0.45888667">
        <ele>845.0</ele>
        <time>2019-07-07T14:11:13.689Z</time>
      </trkpt>
      <trkpt lat="43.06549667" lon="-0.45894833">
        <ele>846.0</ele>
        <time>2019-07-07T14:11:14.667Z</time>
      </trkpt>
      <trkpt lat="43.06551667" lon="-0.45898333">
        <ele>846.0</ele>
        <time>2019-07-07T14:11:15.677Z</time>
      </trkpt>
      <trkpt lat="43.06553167" lon="-0.45901667">
        <ele>846.0</ele>
        <time>2019-07-07T14:11:16.699Z</time>
      </trkpt>
      <trkpt lat="43.06553167" lon="-0.45901667">
        <ele>846.0</ele>
        <time>2019-07-07T14:11:17.686Z</time>
      </trkpt>
      <trkpt lat="43.06555333" lon="-0.45908">
        <ele>847.0</ele>
        <time>2019-07-07T14:11:18.668Z</time>
      </trkpt>
      <trkpt lat="43.06555333" lon="-0.45908">
        <ele>847.0</ele>
        <time>2019-07-07T14:11:19.688Z</time>
      </trkpt>
      <trkpt lat="43.06557" lon="-0.45914333">
        <ele>847.0</ele>
        <time>2019-07-07T14:11:20.691Z</time>
      </trkpt>
      <trkpt lat="43.06557" lon="-0.45914333">
        <ele>847.0</ele>
        <time>2019-07-07T14:11:21.677Z</time>
      </trkpt>
      <trkpt lat="43.06558833" lon="-0.45921667">
        <ele>848.0</ele>
        <time>2019-07-07T14:11:22.686Z</time>
      </trkpt>
      <trkpt lat="43.065615" lon="-0.45928833">
        <ele>848.0</ele>
        <time>2019-07-07T14:11:23.738Z</time>
      </trkpt>
      <trkpt lat="43.06563" lon="-0.45932">
        <ele>848.0</ele>
        <time>2019-07-07T14:11:24.719Z</time>
      </trkpt>
      <trkpt lat="43.06564667" lon="-0.45935333">
        <ele>848.0</ele>
        <time>2019-07-07T14:11:25.725Z</time>
      </trkpt>
      <trkpt lat="43.06564667" lon="-0.45935333">
        <ele>848.0</ele>
        <time>2019-07-07T14:11:26.667Z</time>
      </trkpt>
      <trkpt lat="43.06564667" lon="-0.45935333">
        <ele>848.0</ele>
        <time>2019-07-07T14:11:27.688Z</time>
      </trkpt>
      <trkpt lat="43.065685" lon="-0.45941833">
        <ele>848.0</ele>
        <time>2019-07-07T14:11:28.699Z</time>
      </trkpt>
      <trkpt lat="43.065685" lon="-0.45941833">
        <ele>848.0</ele>
        <time>2019-07-07T14:11:29.676Z</time>
      </trkpt>
      <trkpt lat="43.065755" lon="-0.45950667">
        <ele>849.0</ele>
        <time>2019-07-07T14:11:30.695Z</time>
      </trkpt>
      <trkpt lat="43.065755" lon="-0.45950667">
        <ele>849.0</ele>
        <time>2019-07-07T14:11:31.702Z</time>
      </trkpt>
      <trkpt lat="43.065755" lon="-0.45950667">
        <ele>849.0</ele>
        <time>2019-07-07T14:11:32.668Z</time>
      </trkpt>
      <trkpt lat="43.065805" lon="-0.45955833">
        <ele>849.0</ele>
        <time>2019-07-07T14:11:33.685Z</time>
      </trkpt>
      <trkpt lat="43.06583167" lon="-0.45958167">
        <ele>849.0</ele>
        <time>2019-07-07T14:11:34.699Z</time>
      </trkpt>
      <trkpt lat="43.06583167" lon="-0.45958167">
        <ele>849.0</ele>
        <time>2019-07-07T14:11:35.674Z</time>
      </trkpt>
      <trkpt lat="43.065885" lon="-0.45963">
        <ele>850.0</ele>
        <time>2019-07-07T14:11:36.691Z</time>
      </trkpt>
      <trkpt lat="43.06593833" lon="-0.45966667">
        <ele>850.0</ele>
        <time>2019-07-07T14:11:37.698Z</time>
      </trkpt>
      <trkpt lat="43.06593833" lon="-0.45966667">
        <ele>850.0</ele>
        <time>2019-07-07T14:11:38.668Z</time>
      </trkpt>
      <trkpt lat="43.06596667" lon="-0.45968167">
        <ele>851.0</ele>
        <time>2019-07-07T14:11:39.696Z</time>
      </trkpt>
      <trkpt lat="43.06596667" lon="-0.45968167">
        <ele>851.0</ele>
        <time>2019-07-07T14:11:40.703Z</time>
      </trkpt>
      <trkpt lat="43.06602" lon="-0.45971167">
        <ele>851.0</ele>
        <time>2019-07-07T14:11:41.693Z</time>
      </trkpt>
      <trkpt lat="43.06607833" lon="-0.45974333">
        <ele>852.0</ele>
        <time>2019-07-07T14:11:42.699Z</time>
      </trkpt>
      <trkpt lat="43.06607833" lon="-0.45974333">
        <ele>852.0</ele>
        <time>2019-07-07T14:11:43.670Z</time>
      </trkpt>
      <trkpt lat="43.06610667" lon="-0.45976">
        <ele>852.0</ele>
        <time>2019-07-07T14:11:44.668Z</time>
      </trkpt>
      <trkpt lat="43.06616333" lon="-0.45979667">
        <ele>852.0</ele>
        <time>2019-07-07T14:11:45.698Z</time>
      </trkpt>
      <trkpt lat="43.06616333" lon="-0.45979667">
        <ele>852.0</ele>
        <time>2019-07-07T14:11:46.673Z</time>
      </trkpt>
      <trkpt lat="43.06616333" lon="-0.45979667">
        <ele>852.0</ele>
        <time>2019-07-07T14:11:47.689Z</time>
      </trkpt>
      <trkpt lat="43.06621333" lon="-0.45984667">
        <ele>852.0</ele>
        <time>2019-07-07T14:11:48.690Z</time>
      </trkpt>
      <trkpt lat="43.066235" lon="-0.45987667">
        <ele>852.0</ele>
        <time>2019-07-07T14:11:49.692Z</time>
      </trkpt>
      <trkpt lat="43.066275" lon="-0.45994667">
        <ele>852.0</ele>
        <time>2019-07-07T14:11:50.699Z</time>
      </trkpt>
      <trkpt lat="43.066275" lon="-0.45994667">
        <ele>852.0</ele>
        <time>2019-07-07T14:11:51.670Z</time>
      </trkpt>
      <trkpt lat="43.06629333" lon="-0.459985">
        <ele>852.0</ele>
        <time>2019-07-07T14:11:52.671Z</time>
      </trkpt>
      <trkpt lat="43.06629333" lon="-0.459985">
        <ele>852.0</ele>
        <time>2019-07-07T14:11:53.691Z</time>
      </trkpt>
      <trkpt lat="43.066315" lon="-0.46007">
        <ele>852.0</ele>
        <time>2019-07-07T14:11:54.681Z</time>
      </trkpt>
      <trkpt lat="43.06632667" lon="-0.46015667">
        <ele>853.0</ele>
        <time>2019-07-07T14:11:55.699Z</time>
      </trkpt>
      <trkpt lat="43.06632667" lon="-0.46015667">
        <ele>853.0</ele>
        <time>2019-07-07T14:11:56.686Z</time>
      </trkpt>
      <trkpt lat="43.06633167" lon="-0.46020333">
        <ele>853.0</ele>
        <time>2019-07-07T14:11:57.670Z</time>
      </trkpt>
      <trkpt lat="43.06633333" lon="-0.46024833">
        <ele>853.0</ele>
        <time>2019-07-07T14:11:58.678Z</time>
      </trkpt>
      <trkpt lat="43.06633333" lon="-0.46024833">
        <ele>853.0</ele>
        <time>2019-07-07T14:11:59.692Z</time>
      </trkpt>
      <trkpt lat="43.066335" lon="-0.46033833">
        <ele>853.0</ele>
        <time>2019-07-07T14:12:00.689Z</time>
      </trkpt>
      <trkpt lat="43.066335" lon="-0.46033833">
        <ele>853.0</ele>
        <time>2019-07-07T14:12:01.667Z</time>
      </trkpt>
      <trkpt lat="43.06633833" lon="-0.460425">
        <ele>854.0</ele>
        <time>2019-07-07T14:12:02.684Z</time>
      </trkpt>
      <trkpt lat="43.06633833" lon="-0.460515">
        <ele>854.0</ele>
        <time>2019-07-07T14:12:03.694Z</time>
      </trkpt>
      <trkpt lat="43.06633833" lon="-0.460515">
        <ele>854.0</ele>
        <time>2019-07-07T14:12:04.701Z</time>
      </trkpt>
      <trkpt lat="43.06633833" lon="-0.460515">
        <ele>854.0</ele>
        <time>2019-07-07T14:12:05.667Z</time>
      </trkpt>
      <trkpt lat="43.06634" lon="-0.46060167">
        <ele>854.0</ele>
        <time>2019-07-07T14:12:06.700Z</time>
      </trkpt>
      <trkpt lat="43.06634" lon="-0.46060167">
        <ele>854.0</ele>
        <time>2019-07-07T14:12:07.667Z</time>
      </trkpt>
      <trkpt lat="43.06634333" lon="-0.46068833">
        <ele>854.0</ele>
        <time>2019-07-07T14:12:08.670Z</time>
      </trkpt>
      <trkpt lat="43.066345" lon="-0.46077333">
        <ele>855.0</ele>
        <time>2019-07-07T14:12:09.704Z</time>
      </trkpt>
      <trkpt lat="43.066345" lon="-0.46077333">
        <ele>855.0</ele>
        <time>2019-07-07T14:12:10.670Z</time>
      </trkpt>
      <trkpt lat="43.066345" lon="-0.46077333">
        <ele>855.0</ele>
        <time>2019-07-07T14:12:11.696Z</time>
      </trkpt>
      <trkpt lat="43.06634667" lon="-0.46085667">
        <ele>855.0</ele>
        <time>2019-07-07T14:12:12.669Z</time>
      </trkpt>
      <trkpt lat="43.06634667" lon="-0.46085667">
        <ele>855.0</ele>
        <time>2019-07-07T14:12:13.679Z</time>
      </trkpt>
      <trkpt lat="43.06635167" lon="-0.46094167">
        <ele>856.0</ele>
        <time>2019-07-07T14:12:14.686Z</time>
      </trkpt>
      <trkpt lat="43.06635333" lon="-0.460985">
        <ele>856.0</ele>
        <time>2019-07-07T14:12:15.700Z</time>
      </trkpt>
      <trkpt lat="43.06635667" lon="-0.46102833">
        <ele>856.0</ele>
        <time>2019-07-07T14:12:16.699Z</time>
      </trkpt>
      <trkpt lat="43.06635667" lon="-0.46102833">
        <ele>856.0</ele>
        <time>2019-07-07T14:12:17.665Z</time>
      </trkpt>
      <trkpt lat="43.06635833" lon="-0.461115">
        <ele>856.0</ele>
        <time>2019-07-07T14:12:18.689Z</time>
      </trkpt>
      <trkpt lat="43.06635833" lon="-0.461115">
        <ele>856.0</ele>
        <time>2019-07-07T14:12:19.670Z</time>
      </trkpt>
      <trkpt lat="43.06636" lon="-0.46120167">
        <ele>857.0</ele>
        <time>2019-07-07T14:12:20.686Z</time>
      </trkpt>
      <trkpt lat="43.06636" lon="-0.46120167">
        <ele>857.0</ele>
        <time>2019-07-07T14:12:21.699Z</time>
      </trkpt>
      <trkpt lat="43.06636" lon="-0.46129333">
        <ele>857.0</ele>
        <time>2019-07-07T14:12:22.699Z</time>
      </trkpt>
      <trkpt lat="43.06636" lon="-0.46129333">
        <ele>857.0</ele>
        <time>2019-07-07T14:12:23.665Z</time>
      </trkpt>
      <trkpt lat="43.06635667" lon="-0.461385">
        <ele>857.0</ele>
        <time>2019-07-07T14:12:24.712Z</time>
      </trkpt>
      <trkpt lat="43.06635167" lon="-0.46143">
        <ele>858.0</ele>
        <time>2019-07-07T14:12:25.695Z</time>
      </trkpt>
      <trkpt lat="43.06635167" lon="-0.46143">
        <ele>858.0</ele>
        <time>2019-07-07T14:12:26.697Z</time>
      </trkpt>
      <trkpt lat="43.06632833" lon="-0.46151667">
        <ele>858.0</ele>
        <time>2019-07-07T14:12:27.699Z</time>
      </trkpt>
      <trkpt lat="43.06632833" lon="-0.46151667">
        <ele>858.0</ele>
        <time>2019-07-07T14:12:28.665Z</time>
      </trkpt>
      <trkpt lat="43.06629833" lon="-0.46159833">
        <ele>858.0</ele>
        <time>2019-07-07T14:12:29.689Z</time>
      </trkpt>
      <trkpt lat="43.06626833" lon="-0.461675">
        <ele>859.0</ele>
        <time>2019-07-07T14:12:30.695Z</time>
      </trkpt>
      <trkpt lat="43.06626833" lon="-0.461675">
        <ele>859.0</ele>
        <time>2019-07-07T14:12:31.693Z</time>
      </trkpt>
      <trkpt lat="43.06626833" lon="-0.461675">
        <ele>859.0</ele>
        <time>2019-07-07T14:12:32.699Z</time>
      </trkpt>
      <trkpt lat="43.06622333" lon="-0.461785">
        <ele>859.0</ele>
        <time>2019-07-07T14:12:33.698Z</time>
      </trkpt>
      <trkpt lat="43.06622333" lon="-0.461785">
        <ele>859.0</ele>
        <time>2019-07-07T14:12:34.702Z</time>
      </trkpt>
      <trkpt lat="43.06622333" lon="-0.461785">
        <ele>859.0</ele>
        <time>2019-07-07T14:12:35.668Z</time>
      </trkpt>
      <trkpt lat="43.066195" lon="-0.46185833">
        <ele>859.0</ele>
        <time>2019-07-07T14:12:36.666Z</time>
      </trkpt>
      <trkpt lat="43.06618167" lon="-0.46189667">
        <ele>859.0</ele>
        <time>2019-07-07T14:12:37.700Z</time>
      </trkpt>
      <trkpt lat="43.06618167" lon="-0.46189667">
        <ele>859.0</ele>
        <time>2019-07-07T14:12:38.666Z</time>
      </trkpt>
      <trkpt lat="43.06615667" lon="-0.461975">
        <ele>860.0</ele>
        <time>2019-07-07T14:12:39.670Z</time>
      </trkpt>
      <trkpt lat="43.066145" lon="-0.46201333">
        <ele>860.0</ele>
        <time>2019-07-07T14:12:40.692Z</time>
      </trkpt>
      <trkpt lat="43.066145" lon="-0.46201333">
        <ele>860.0</ele>
        <time>2019-07-07T14:12:41.697Z</time>
      </trkpt>
      <trkpt lat="43.06612" lon="-0.46209167">
        <ele>860.0</ele>
        <time>2019-07-07T14:12:42.687Z</time>
      </trkpt>
      <trkpt lat="43.06609333" lon="-0.46217">
        <ele>861.0</ele>
        <time>2019-07-07T14:12:43.717Z</time>
      </trkpt>
      <trkpt lat="43.06609333" lon="-0.46217">
        <ele>861.0</ele>
        <time>2019-07-07T14:12:44.700Z</time>
      </trkpt>
      <trkpt lat="43.06609333" lon="-0.46217">
        <ele>861.0</ele>
        <time>2019-07-07T14:12:45.678Z</time>
      </trkpt>
      <trkpt lat="43.06606833" lon="-0.46224833">
        <ele>861.0</ele>
        <time>2019-07-07T14:12:46.708Z</time>
      </trkpt>
      <trkpt lat="43.06606833" lon="-0.46224833">
        <ele>861.0</ele>
        <time>2019-07-07T14:12:47.679Z</time>
      </trkpt>
      <trkpt lat="43.06604333" lon="-0.462325">
        <ele>861.0</ele>
        <time>2019-07-07T14:12:48.690Z</time>
      </trkpt>
      <trkpt lat="43.06604333" lon="-0.462325">
        <ele>861.0</ele>
        <time>2019-07-07T14:12:49.699Z</time>
      </trkpt>
      <trkpt lat="43.06601833" lon="-0.46240333">
        <ele>862.0</ele>
        <time>2019-07-07T14:12:50.684Z</time>
      </trkpt>
      <trkpt lat="43.06601833" lon="-0.46240333">
        <ele>862.0</ele>
        <time>2019-07-07T14:12:51.693Z</time>
      </trkpt>
      <trkpt lat="43.06598833" lon="-0.46248333">
        <ele>863.0</ele>
        <time>2019-07-07T14:12:52.690Z</time>
      </trkpt>
      <trkpt lat="43.06598833" lon="-0.46248333">
        <ele>863.0</ele>
        <time>2019-07-07T14:12:53.672Z</time>
      </trkpt>
      <trkpt lat="43.06596167" lon="-0.46255833">
        <ele>863.0</ele>
        <time>2019-07-07T14:12:54.667Z</time>
      </trkpt>
      <trkpt lat="43.06596167" lon="-0.46255833">
        <ele>863.0</ele>
        <time>2019-07-07T14:12:55.694Z</time>
      </trkpt>
      <trkpt lat="43.06592833" lon="-0.462635">
        <ele>864.0</ele>
        <time>2019-07-07T14:12:56.686Z</time>
      </trkpt>
      <trkpt lat="43.06591" lon="-0.46267333">
        <ele>864.0</ele>
        <time>2019-07-07T14:12:57.679Z</time>
      </trkpt>
      <trkpt lat="43.06589333" lon="-0.46271">
        <ele>864.0</ele>
        <time>2019-07-07T14:12:58.675Z</time>
      </trkpt>
      <trkpt lat="43.06589333" lon="-0.46271">
        <ele>864.0</ele>
        <time>2019-07-07T14:12:59.692Z</time>
      </trkpt>
      <trkpt lat="43.06586" lon="-0.46278667">
        <ele>865.0</ele>
        <time>2019-07-07T14:13:00.685Z</time>
      </trkpt>
      <trkpt lat="43.06586" lon="-0.46278667">
        <ele>865.0</ele>
        <time>2019-07-07T14:13:01.692Z</time>
      </trkpt>
      <trkpt lat="43.065825" lon="-0.46286">
        <ele>865.0</ele>
        <time>2019-07-07T14:13:02.680Z</time>
      </trkpt>
      <trkpt lat="43.06579333" lon="-0.46293167">
        <ele>866.0</ele>
        <time>2019-07-07T14:13:03.692Z</time>
      </trkpt>
      <trkpt lat="43.06579333" lon="-0.46293167">
        <ele>866.0</ele>
        <time>2019-07-07T14:13:04.665Z</time>
      </trkpt>
      <trkpt lat="43.06579333" lon="-0.46293167">
        <ele>866.0</ele>
        <time>2019-07-07T14:13:05.671Z</time>
      </trkpt>
      <trkpt lat="43.06576" lon="-0.46300667">
        <ele>867.0</ele>
        <time>2019-07-07T14:13:06.691Z</time>
      </trkpt>
      <trkpt lat="43.06572667" lon="-0.46308333">
        <ele>867.0</ele>
        <time>2019-07-07T14:13:07.702Z</time>
      </trkpt>
      <trkpt lat="43.06572667" lon="-0.46308333">
        <ele>867.0</ele>
        <time>2019-07-07T14:13:08.671Z</time>
      </trkpt>
      <trkpt lat="43.06572667" lon="-0.46308333">
        <ele>867.0</ele>
        <time>2019-07-07T14:13:09.685Z</time>
      </trkpt>
      <trkpt lat="43.06569833" lon="-0.46316">
        <ele>868.0</ele>
        <time>2019-07-07T14:13:10.673Z</time>
      </trkpt>
      <trkpt lat="43.06569833" lon="-0.46316">
        <ele>868.0</ele>
        <time>2019-07-07T14:13:11.679Z</time>
      </trkpt>
      <trkpt lat="43.06567167" lon="-0.463235">
        <ele>868.0</ele>
        <time>2019-07-07T14:13:12.705Z</time>
      </trkpt>
      <trkpt lat="43.06567167" lon="-0.463235">
        <ele>868.0</ele>
        <time>2019-07-07T14:13:13.672Z</time>
      </trkpt>
      <trkpt lat="43.065645" lon="-0.46331333">
        <ele>869.0</ele>
        <time>2019-07-07T14:13:14.680Z</time>
      </trkpt>
      <trkpt lat="43.06562" lon="-0.46339">
        <ele>869.0</ele>
        <time>2019-07-07T14:13:15.695Z</time>
      </trkpt>
      <trkpt lat="43.06562" lon="-0.46339">
        <ele>869.0</ele>
        <time>2019-07-07T14:13:16.670Z</time>
      </trkpt>
      <trkpt lat="43.06560833" lon="-0.46343">
        <ele>870.0</ele>
        <time>2019-07-07T14:13:17.689Z</time>
      </trkpt>
      <trkpt lat="43.06558333" lon="-0.46350833">
        <ele>870.0</ele>
        <time>2019-07-07T14:13:18.703Z</time>
      </trkpt>
      <trkpt lat="43.06558333" lon="-0.46350833">
        <ele>870.0</ele>
        <time>2019-07-07T14:13:19.693Z</time>
      </trkpt>
      <trkpt lat="43.06556167" lon="-0.46359">
        <ele>870.0</ele>
        <time>2019-07-07T14:13:20.701Z</time>
      </trkpt>
      <trkpt lat="43.06555" lon="-0.46363333">
        <ele>870.0</ele>
        <time>2019-07-07T14:13:21.706Z</time>
      </trkpt>
      <trkpt lat="43.06555" lon="-0.46363333">
        <ele>870.0</ele>
        <time>2019-07-07T14:13:22.686Z</time>
      </trkpt>
      <trkpt lat="43.06552667" lon="-0.463715">
        <ele>871.0</ele>
        <time>2019-07-07T14:13:23.694Z</time>
      </trkpt>
      <trkpt lat="43.06551333" lon="-0.463755">
        <ele>871.0</ele>
        <time>2019-07-07T14:13:24.694Z</time>
      </trkpt>
      <trkpt lat="43.06549833" lon="-0.46379333">
        <ele>871.0</ele>
        <time>2019-07-07T14:13:25.695Z</time>
      </trkpt>
      <trkpt lat="43.06549833" lon="-0.46379333">
        <ele>871.0</ele>
        <time>2019-07-07T14:13:26.696Z</time>
      </trkpt>
      <trkpt lat="43.06546667" lon="-0.46386667">
        <ele>871.0</ele>
        <time>2019-07-07T14:13:27.699Z</time>
      </trkpt>
      <trkpt lat="43.06546667" lon="-0.46386667">
        <ele>871.0</ele>
        <time>2019-07-07T14:13:28.674Z</time>
      </trkpt>
      <trkpt lat="43.06546667" lon="-0.46386667">
        <ele>871.0</ele>
        <time>2019-07-07T14:13:29.693Z</time>
      </trkpt>
      <trkpt lat="43.06543667" lon="-0.46393667">
        <ele>872.0</ele>
        <time>2019-07-07T14:13:30.692Z</time>
      </trkpt>
      <trkpt lat="43.06542333" lon="-0.46397333">
        <ele>872.0</ele>
        <time>2019-07-07T14:13:31.690Z</time>
      </trkpt>
      <trkpt lat="43.06542333" lon="-0.46397333">
        <ele>872.0</ele>
        <time>2019-07-07T14:13:32.696Z</time>
      </trkpt>
      <trkpt lat="43.06539833" lon="-0.46405">
        <ele>873.0</ele>
        <time>2019-07-07T14:13:33.690Z</time>
      </trkpt>
      <trkpt lat="43.06538833" lon="-0.46409">
        <ele>873.0</ele>
        <time>2019-07-07T14:13:34.673Z</time>
      </trkpt>
      <trkpt lat="43.06537333" lon="-0.464175">
        <ele>874.0</ele>
        <time>2019-07-07T14:13:35.706Z</time>
      </trkpt>
      <trkpt lat="43.06537333" lon="-0.464175">
        <ele>874.0</ele>
        <time>2019-07-07T14:13:36.697Z</time>
      </trkpt>
      <trkpt lat="43.06537167" lon="-0.46425667">
        <ele>874.0</ele>
        <time>2019-07-07T14:13:37.710Z</time>
      </trkpt>
      <trkpt lat="43.06537167" lon="-0.46425667">
        <ele>874.0</ele>
        <time>2019-07-07T14:13:38.687Z</time>
      </trkpt>
      <trkpt lat="43.06537167" lon="-0.46425667">
        <ele>874.0</ele>
        <time>2019-07-07T14:13:39.695Z</time>
      </trkpt>
      <trkpt lat="43.06537667" lon="-0.46438">
        <ele>874.0</ele>
        <time>2019-07-07T14:13:40.720Z</time>
      </trkpt>
      <trkpt lat="43.06537667" lon="-0.46438">
        <ele>874.0</ele>
        <time>2019-07-07T14:13:41.676Z</time>
      </trkpt>
      <trkpt lat="43.06537667" lon="-0.46438">
        <ele>874.0</ele>
        <time>2019-07-07T14:13:42.694Z</time>
      </trkpt>
      <trkpt lat="43.06537667" lon="-0.46447">
        <ele>875.0</ele>
        <time>2019-07-07T14:13:43.691Z</time>
      </trkpt>
      <trkpt lat="43.065375" lon="-0.46451667">
        <ele>875.0</ele>
        <time>2019-07-07T14:13:44.670Z</time>
      </trkpt>
      <trkpt lat="43.06537167" lon="-0.46456333">
        <ele>875.0</ele>
        <time>2019-07-07T14:13:45.696Z</time>
      </trkpt>
      <trkpt lat="43.06536667" lon="-0.46465833">
        <ele>875.0</ele>
        <time>2019-07-07T14:13:46.705Z</time>
      </trkpt>
      <trkpt lat="43.06536667" lon="-0.46465833">
        <ele>875.0</ele>
        <time>2019-07-07T14:13:47.675Z</time>
      </trkpt>
      <trkpt lat="43.065365" lon="-0.46470167">
        <ele>875.0</ele>
        <time>2019-07-07T14:13:48.689Z</time>
      </trkpt>
      <trkpt lat="43.06535667" lon="-0.46478833">
        <ele>876.0</ele>
        <time>2019-07-07T14:13:49.700Z</time>
      </trkpt>
      <trkpt lat="43.06535667" lon="-0.46478833">
        <ele>876.0</ele>
        <time>2019-07-07T14:13:50.669Z</time>
      </trkpt>
      <trkpt lat="43.065355" lon="-0.46483167">
        <ele>876.0</ele>
        <time>2019-07-07T14:13:51.700Z</time>
      </trkpt>
      <trkpt lat="43.065355" lon="-0.46483167">
        <ele>876.0</ele>
        <time>2019-07-07T14:13:52.671Z</time>
      </trkpt>
      <trkpt lat="43.06535333" lon="-0.46492167">
        <ele>876.0</ele>
        <time>2019-07-07T14:13:53.670Z</time>
      </trkpt>
      <trkpt lat="43.06535333" lon="-0.46492167">
        <ele>876.0</ele>
        <time>2019-07-07T14:13:54.687Z</time>
      </trkpt>
      <trkpt lat="43.06535833" lon="-0.46501833">
        <ele>876.0</ele>
        <time>2019-07-07T14:13:55.675Z</time>
      </trkpt>
      <trkpt lat="43.06536333" lon="-0.46507">
        <ele>876.0</ele>
        <time>2019-07-07T14:13:56.689Z</time>
      </trkpt>
      <trkpt lat="43.06536333" lon="-0.46507">
        <ele>876.0</ele>
        <time>2019-07-07T14:13:57.696Z</time>
      </trkpt>
      <trkpt lat="43.06537833" lon="-0.46518667">
        <ele>875.0</ele>
        <time>2019-07-07T14:13:58.686Z</time>
      </trkpt>
      <trkpt lat="43.06540333" lon="-0.46532333">
        <ele>874.0</ele>
        <time>2019-07-07T14:13:59.693Z</time>
      </trkpt>
      <trkpt lat="43.06540333" lon="-0.46532333">
        <ele>874.0</ele>
        <time>2019-07-07T14:14:00.680Z</time>
      </trkpt>
      <trkpt lat="43.06542833" lon="-0.46547333">
        <ele>874.0</ele>
        <time>2019-07-07T14:14:01.691Z</time>
      </trkpt>
      <trkpt lat="43.06542833" lon="-0.46547333">
        <ele>874.0</ele>
        <time>2019-07-07T14:14:02.695Z</time>
      </trkpt>
      <trkpt lat="43.06545" lon="-0.46563167">
        <ele>873.0</ele>
        <time>2019-07-07T14:14:03.726Z</time>
      </trkpt>
      <trkpt lat="43.06545" lon="-0.46563167">
        <ele>873.0</ele>
        <time>2019-07-07T14:14:04.687Z</time>
      </trkpt>
      <trkpt lat="43.06546667" lon="-0.46579667">
        <ele>873.0</ele>
        <time>2019-07-07T14:14:05.698Z</time>
      </trkpt>
      <trkpt lat="43.06546667" lon="-0.46579667">
        <ele>873.0</ele>
        <time>2019-07-07T14:14:06.701Z</time>
      </trkpt>
      <trkpt lat="43.06546667" lon="-0.46579667">
        <ele>873.0</ele>
        <time>2019-07-07T14:14:07.666Z</time>
      </trkpt>
      <trkpt lat="43.06547667" lon="-0.46596">
        <ele>874.0</ele>
        <time>2019-07-07T14:14:08.717Z</time>
      </trkpt>
      <trkpt lat="43.06547667" lon="-0.46604333">
        <ele>874.0</ele>
        <time>2019-07-07T14:14:09.670Z</time>
      </trkpt>
      <trkpt lat="43.06547667" lon="-0.46604333">
        <ele>874.0</ele>
        <time>2019-07-07T14:14:10.698Z</time>
      </trkpt>
      <trkpt lat="43.06547167" lon="-0.46621167">
        <ele>873.0</ele>
        <time>2019-07-07T14:14:11.685Z</time>
      </trkpt>
      <trkpt lat="43.06547167" lon="-0.46621167">
        <ele>873.0</ele>
        <time>2019-07-07T14:14:12.690Z</time>
      </trkpt>
      <trkpt lat="43.06546333" lon="-0.466385">
        <ele>873.0</ele>
        <time>2019-07-07T14:14:13.684Z</time>
      </trkpt>
      <trkpt lat="43.06546333" lon="-0.466385">
        <ele>873.0</ele>
        <time>2019-07-07T14:14:14.691Z</time>
      </trkpt>
      <trkpt lat="43.06545333" lon="-0.46656167">
        <ele>873.0</ele>
        <time>2019-07-07T14:14:15.689Z</time>
      </trkpt>
      <trkpt lat="43.06544833" lon="-0.46665167">
        <ele>873.0</ele>
        <time>2019-07-07T14:14:16.689Z</time>
      </trkpt>
      <trkpt lat="43.06544" lon="-0.46683667">
        <ele>872.0</ele>
        <time>2019-07-07T14:14:17.699Z</time>
      </trkpt>
      <trkpt lat="43.065435" lon="-0.46693">
        <ele>872.0</ele>
        <time>2019-07-07T14:14:18.710Z</time>
      </trkpt>
      <trkpt lat="43.065435" lon="-0.46693">
        <ele>872.0</ele>
        <time>2019-07-07T14:14:19.688Z</time>
      </trkpt>
      <trkpt lat="43.06543" lon="-0.467025">
        <ele>872.0</ele>
        <time>2019-07-07T14:14:20.695Z</time>
      </trkpt>
      <trkpt lat="43.06543" lon="-0.467025">
        <ele>872.0</ele>
        <time>2019-07-07T14:14:21.688Z</time>
      </trkpt>
      <trkpt lat="43.06542" lon="-0.467215">
        <ele>872.0</ele>
        <time>2019-07-07T14:14:22.690Z</time>
      </trkpt>
      <trkpt lat="43.06542" lon="-0.467215">
        <ele>872.0</ele>
        <time>2019-07-07T14:14:23.695Z</time>
      </trkpt>
      <trkpt lat="43.06541" lon="-0.46741167">
        <ele>871.0</ele>
        <time>2019-07-07T14:14:24.686Z</time>
      </trkpt>
      <trkpt lat="43.0654" lon="-0.467615">
        <ele>871.0</ele>
        <time>2019-07-07T14:14:25.693Z</time>
      </trkpt>
      <trkpt lat="43.065395" lon="-0.46771833">
        <ele>871.0</ele>
        <time>2019-07-07T14:14:26.713Z</time>
      </trkpt>
      <trkpt lat="43.065395" lon="-0.46771833">
        <ele>871.0</ele>
        <time>2019-07-07T14:14:27.702Z</time>
      </trkpt>
      <trkpt lat="43.065395" lon="-0.46771833">
        <ele>871.0</ele>
        <time>2019-07-07T14:14:28.669Z</time>
      </trkpt>
      <trkpt lat="43.06538833" lon="-0.46792333">
        <ele>871.0</ele>
        <time>2019-07-07T14:14:29.666Z</time>
      </trkpt>
      <trkpt lat="43.065385" lon="-0.468025">
        <ele>871.0</ele>
        <time>2019-07-07T14:14:30.670Z</time>
      </trkpt>
      <trkpt lat="43.06537833" lon="-0.46812833">
        <ele>871.0</ele>
        <time>2019-07-07T14:14:31.702Z</time>
      </trkpt>
      <trkpt lat="43.06537833" lon="-0.46812833">
        <ele>871.0</ele>
        <time>2019-07-07T14:14:32.667Z</time>
      </trkpt>
      <trkpt lat="43.06535" lon="-0.46843667">
        <ele>871.0</ele>
        <time>2019-07-07T14:14:33.700Z</time>
      </trkpt>
      <trkpt lat="43.06535" lon="-0.46843667">
        <ele>871.0</ele>
        <time>2019-07-07T14:14:34.666Z</time>
      </trkpt>
      <trkpt lat="43.06535" lon="-0.46843667">
        <ele>871.0</ele>
        <time>2019-07-07T14:14:35.673Z</time>
      </trkpt>
      <trkpt lat="43.06531" lon="-0.46864167">
        <ele>871.0</ele>
        <time>2019-07-07T14:14:36.671Z</time>
      </trkpt>
      <trkpt lat="43.06528833" lon="-0.46874167">
        <ele>871.0</ele>
        <time>2019-07-07T14:14:37.694Z</time>
      </trkpt>
      <trkpt lat="43.06524167" lon="-0.468945">
        <ele>870.0</ele>
        <time>2019-07-07T14:14:38.703Z</time>
      </trkpt>
      <trkpt lat="43.06524167" lon="-0.468945">
        <ele>870.0</ele>
        <time>2019-07-07T14:14:39.677Z</time>
      </trkpt>
      <trkpt lat="43.06521667" lon="-0.46904333">
        <ele>870.0</ele>
        <time>2019-07-07T14:14:40.669Z</time>
      </trkpt>
      <trkpt lat="43.06521667" lon="-0.46904333">
        <ele>870.0</ele>
        <time>2019-07-07T14:14:41.675Z</time>
      </trkpt>
      <trkpt lat="43.06517" lon="-0.46923833">
        <ele>870.0</ele>
        <time>2019-07-07T14:14:42.687Z</time>
      </trkpt>
      <trkpt lat="43.06517" lon="-0.46923833">
        <ele>870.0</ele>
        <time>2019-07-07T14:14:43.699Z</time>
      </trkpt>
      <trkpt lat="43.06513" lon="-0.469435">
        <ele>870.0</ele>
        <time>2019-07-07T14:14:44.689Z</time>
      </trkpt>
      <trkpt lat="43.06513" lon="-0.469435">
        <ele>870.0</ele>
        <time>2019-07-07T14:14:45.667Z</time>
      </trkpt>
      <trkpt lat="43.06509167" lon="-0.46963167">
        <ele>870.0</ele>
        <time>2019-07-07T14:14:46.694Z</time>
      </trkpt>
      <trkpt lat="43.06506833" lon="-0.46982833">
        <ele>870.0</ele>
        <time>2019-07-07T14:14:47.701Z</time>
      </trkpt>
      <trkpt lat="43.06506833" lon="-0.46982833">
        <ele>870.0</ele>
        <time>2019-07-07T14:14:48.665Z</time>
      </trkpt>
      <trkpt lat="43.06506833" lon="-0.46982833">
        <ele>870.0</ele>
        <time>2019-07-07T14:14:49.698Z</time>
      </trkpt>
      <trkpt lat="43.065065" lon="-0.47002833">
        <ele>870.0</ele>
        <time>2019-07-07T14:14:50.665Z</time>
      </trkpt>
      <trkpt lat="43.065065" lon="-0.47002833">
        <ele>870.0</ele>
        <time>2019-07-07T14:14:51.673Z</time>
      </trkpt>
      <trkpt lat="43.06507167" lon="-0.47023167">
        <ele>869.0</ele>
        <time>2019-07-07T14:14:52.685Z</time>
      </trkpt>
      <trkpt lat="43.06507167" lon="-0.47023167">
        <ele>869.0</ele>
        <time>2019-07-07T14:14:53.696Z</time>
      </trkpt>
      <trkpt lat="43.06506833" lon="-0.47043667">
        <ele>870.0</ele>
        <time>2019-07-07T14:14:54.690Z</time>
      </trkpt>
      <trkpt lat="43.06501" lon="-0.47061">
        <ele>870.0</ele>
        <time>2019-07-07T14:14:55.695Z</time>
      </trkpt>
      <trkpt lat="43.06501" lon="-0.47061">
        <ele>870.0</ele>
        <time>2019-07-07T14:14:56.665Z</time>
      </trkpt>
      <trkpt lat="43.06501" lon="-0.47061">
        <ele>870.0</ele>
        <time>2019-07-07T14:14:57.671Z</time>
      </trkpt>
      <trkpt lat="43.06491667" lon="-0.47074">
        <ele>870.0</ele>
        <time>2019-07-07T14:14:58.675Z</time>
      </trkpt>
      <trkpt lat="43.06481333" lon="-0.47084667">
        <ele>870.0</ele>
        <time>2019-07-07T14:14:59.698Z</time>
      </trkpt>
      <trkpt lat="43.06481333" lon="-0.47084667">
        <ele>870.0</ele>
        <time>2019-07-07T14:15:00.699Z</time>
      </trkpt>
      <trkpt lat="43.06481333" lon="-0.47084667">
        <ele>870.0</ele>
        <time>2019-07-07T14:15:01.665Z</time>
      </trkpt>
      <trkpt lat="43.06466333" lon="-0.47100167">
        <ele>870.0</ele>
        <time>2019-07-07T14:15:02.696Z</time>
      </trkpt>
      <trkpt lat="43.064615" lon="-0.47105333">
        <ele>870.0</ele>
        <time>2019-07-07T14:15:03.708Z</time>
      </trkpt>
      <trkpt lat="43.064615" lon="-0.47105333">
        <ele>870.0</ele>
        <time>2019-07-07T14:15:04.705Z</time>
      </trkpt>
      <trkpt lat="43.064615" lon="-0.47105333">
        <ele>870.0</ele>
        <time>2019-07-07T14:15:05.670Z</time>
      </trkpt>
      <trkpt lat="43.06451333" lon="-0.47115667">
        <ele>870.0</ele>
        <time>2019-07-07T14:15:06.699Z</time>
      </trkpt>
      <trkpt lat="43.06441167" lon="-0.47126">
        <ele>871.0</ele>
        <time>2019-07-07T14:15:07.705Z</time>
      </trkpt>
      <trkpt lat="43.06441167" lon="-0.47126">
        <ele>871.0</ele>
        <time>2019-07-07T14:15:08.686Z</time>
      </trkpt>
      <trkpt lat="43.06441167" lon="-0.47126">
        <ele>871.0</ele>
        <time>2019-07-07T14:15:09.692Z</time>
      </trkpt>
      <trkpt lat="43.06431333" lon="-0.47137167">
        <ele>870.0</ele>
        <time>2019-07-07T14:15:10.700Z</time>
      </trkpt>
      <trkpt lat="43.06431333" lon="-0.47137167">
        <ele>870.0</ele>
        <time>2019-07-07T14:15:11.665Z</time>
      </trkpt>
      <trkpt lat="43.06423333" lon="-0.47151">
        <ele>870.0</ele>
        <time>2019-07-07T14:15:12.677Z</time>
      </trkpt>
      <trkpt lat="43.064175" lon="-0.471675">
        <ele>870.0</ele>
        <time>2019-07-07T14:15:13.698Z</time>
      </trkpt>
      <trkpt lat="43.064175" lon="-0.471675">
        <ele>870.0</ele>
        <time>2019-07-07T14:15:14.699Z</time>
      </trkpt>
      <trkpt lat="43.06415333" lon="-0.47176167">
        <ele>870.0</ele>
        <time>2019-07-07T14:15:15.669Z</time>
      </trkpt>
      <trkpt lat="43.06413333" lon="-0.47185">
        <ele>870.0</ele>
        <time>2019-07-07T14:15:16.670Z</time>
      </trkpt>
      <trkpt lat="43.06411167" lon="-0.47193667">
        <ele>870.0</ele>
        <time>2019-07-07T14:15:17.688Z</time>
      </trkpt>
      <trkpt lat="43.06406333" lon="-0.47210833">
        <ele>870.0</ele>
        <time>2019-07-07T14:15:18.698Z</time>
      </trkpt>
      <trkpt lat="43.06406333" lon="-0.47210833">
        <ele>870.0</ele>
        <time>2019-07-07T14:15:19.670Z</time>
      </trkpt>
      <trkpt lat="43.06401167" lon="-0.47227333">
        <ele>870.0</ele>
        <time>2019-07-07T14:15:20.705Z</time>
      </trkpt>
      <trkpt lat="43.06401167" lon="-0.47227333">
        <ele>870.0</ele>
        <time>2019-07-07T14:15:21.671Z</time>
      </trkpt>
      <trkpt lat="43.06401167" lon="-0.47227333">
        <ele>870.0</ele>
        <time>2019-07-07T14:15:22.677Z</time>
      </trkpt>
      <trkpt lat="43.063965" lon="-0.47244167">
        <ele>870.0</ele>
        <time>2019-07-07T14:15:23.687Z</time>
      </trkpt>
      <trkpt lat="43.063965" lon="-0.47244167">
        <ele>870.0</ele>
        <time>2019-07-07T14:15:24.712Z</time>
      </trkpt>
      <trkpt lat="43.063925" lon="-0.47262167">
        <ele>870.0</ele>
        <time>2019-07-07T14:15:25.667Z</time>
      </trkpt>
      <trkpt lat="43.063925" lon="-0.47262167">
        <ele>870.0</ele>
        <time>2019-07-07T14:15:26.673Z</time>
      </trkpt>
      <trkpt lat="43.063875" lon="-0.47279667">
        <ele>870.0</ele>
        <time>2019-07-07T14:15:27.691Z</time>
      </trkpt>
      <trkpt lat="43.06385" lon="-0.47288333">
        <ele>870.0</ele>
        <time>2019-07-07T14:15:28.699Z</time>
      </trkpt>
      <trkpt lat="43.06385" lon="-0.47288333">
        <ele>870.0</ele>
        <time>2019-07-07T14:15:29.665Z</time>
      </trkpt>
      <trkpt lat="43.06379833" lon="-0.47305333">
        <ele>870.0</ele>
        <time>2019-07-07T14:15:30.699Z</time>
      </trkpt>
      <trkpt lat="43.06379833" lon="-0.47305333">
        <ele>870.0</ele>
        <time>2019-07-07T14:15:31.665Z</time>
      </trkpt>
      <trkpt lat="43.063745" lon="-0.47322167">
        <ele>871.0</ele>
        <time>2019-07-07T14:15:32.700Z</time>
      </trkpt>
      <trkpt lat="43.063745" lon="-0.47322167">
        <ele>871.0</ele>
        <time>2019-07-07T14:15:33.667Z</time>
      </trkpt>
      <trkpt lat="43.06368667" lon="-0.47338667">
        <ele>871.0</ele>
        <time>2019-07-07T14:15:34.697Z</time>
      </trkpt>
      <trkpt lat="43.06368667" lon="-0.47338667">
        <ele>871.0</ele>
        <time>2019-07-07T14:15:35.699Z</time>
      </trkpt>
      <trkpt lat="43.063575" lon="-0.47362">
        <ele>872.0</ele>
        <time>2019-07-07T14:15:36.700Z</time>
      </trkpt>
      <trkpt lat="43.063575" lon="-0.47362">
        <ele>872.0</ele>
        <time>2019-07-07T14:15:37.702Z</time>
      </trkpt>
      <trkpt lat="43.063575" lon="-0.47362">
        <ele>872.0</ele>
        <time>2019-07-07T14:15:38.667Z</time>
      </trkpt>
      <trkpt lat="43.06345167" lon="-0.473835">
        <ele>872.0</ele>
        <time>2019-07-07T14:15:39.690Z</time>
      </trkpt>
      <trkpt lat="43.06345167" lon="-0.473835">
        <ele>872.0</ele>
        <time>2019-07-07T14:15:40.703Z</time>
      </trkpt>
      <trkpt lat="43.06345167" lon="-0.473835">
        <ele>872.0</ele>
        <time>2019-07-07T14:15:41.668Z</time>
      </trkpt>
      <trkpt lat="43.06329667" lon="-0.47399167">
        <ele>872.0</ele>
        <time>2019-07-07T14:15:42.701Z</time>
      </trkpt>
      <trkpt lat="43.06329667" lon="-0.47399167">
        <ele>872.0</ele>
        <time>2019-07-07T14:15:43.666Z</time>
      </trkpt>
      <trkpt lat="43.06329667" lon="-0.47399167">
        <ele>872.0</ele>
        <time>2019-07-07T14:15:44.672Z</time>
      </trkpt>
      <trkpt lat="43.06317167" lon="-0.47405333">
        <ele>872.0</ele>
        <time>2019-07-07T14:15:45.688Z</time>
      </trkpt>
      <trkpt lat="43.06310667" lon="-0.47408">
        <ele>872.0</ele>
        <time>2019-07-07T14:15:46.702Z</time>
      </trkpt>
      <trkpt lat="43.06310667" lon="-0.47408">
        <ele>872.0</ele>
        <time>2019-07-07T14:15:47.667Z</time>
      </trkpt>
      <trkpt lat="43.06297667" lon="-0.47412167">
        <ele>873.0</ele>
        <time>2019-07-07T14:15:48.697Z</time>
      </trkpt>
      <trkpt lat="43.06285" lon="-0.47416833">
        <ele>873.0</ele>
        <time>2019-07-07T14:15:49.707Z</time>
      </trkpt>
      <trkpt lat="43.06285" lon="-0.47416833">
        <ele>873.0</ele>
        <time>2019-07-07T14:15:50.697Z</time>
      </trkpt>
      <trkpt lat="43.06278667" lon="-0.47419833">
        <ele>873.0</ele>
        <time>2019-07-07T14:15:51.699Z</time>
      </trkpt>
      <trkpt lat="43.06268333" lon="-0.47430667">
        <ele>873.0</ele>
        <time>2019-07-07T14:15:52.737Z</time>
      </trkpt>
      <trkpt lat="43.06268333" lon="-0.47430667">
        <ele>873.0</ele>
        <time>2019-07-07T14:15:53.700Z</time>
      </trkpt>
      <trkpt lat="43.06268333" lon="-0.47430667">
        <ele>873.0</ele>
        <time>2019-07-07T14:15:54.666Z</time>
      </trkpt>
      <trkpt lat="43.06261333" lon="-0.47445833">
        <ele>874.0</ele>
        <time>2019-07-07T14:15:55.671Z</time>
      </trkpt>
      <trkpt lat="43.06258667" lon="-0.47453667">
        <ele>874.0</ele>
        <time>2019-07-07T14:15:56.685Z</time>
      </trkpt>
      <trkpt lat="43.06258667" lon="-0.47453667">
        <ele>874.0</ele>
        <time>2019-07-07T14:15:57.695Z</time>
      </trkpt>
      <trkpt lat="43.062535" lon="-0.47469667">
        <ele>875.0</ele>
        <time>2019-07-07T14:15:58.688Z</time>
      </trkpt>
      <trkpt lat="43.062535" lon="-0.47469667">
        <ele>875.0</ele>
        <time>2019-07-07T14:15:59.696Z</time>
      </trkpt>
      <trkpt lat="43.06248333" lon="-0.47485667">
        <ele>875.0</ele>
        <time>2019-07-07T14:16:00.704Z</time>
      </trkpt>
      <trkpt lat="43.06248333" lon="-0.47485667">
        <ele>875.0</ele>
        <time>2019-07-07T14:16:01.670Z</time>
      </trkpt>
      <trkpt lat="43.06243" lon="-0.47501833">
        <ele>875.0</ele>
        <time>2019-07-07T14:16:02.689Z</time>
      </trkpt>
      <trkpt lat="43.06243" lon="-0.47501833">
        <ele>875.0</ele>
        <time>2019-07-07T14:16:03.695Z</time>
      </trkpt>
      <trkpt lat="43.06238" lon="-0.47518">
        <ele>875.0</ele>
        <time>2019-07-07T14:16:04.688Z</time>
      </trkpt>
      <trkpt lat="43.06238" lon="-0.47518">
        <ele>875.0</ele>
        <time>2019-07-07T14:16:05.694Z</time>
      </trkpt>
      <trkpt lat="43.06232833" lon="-0.47534167">
        <ele>875.0</ele>
        <time>2019-07-07T14:16:06.666Z</time>
      </trkpt>
      <trkpt lat="43.06232833" lon="-0.47534167">
        <ele>875.0</ele>
        <time>2019-07-07T14:16:07.673Z</time>
      </trkpt>
      <trkpt lat="43.06227833" lon="-0.47550333">
        <ele>875.0</ele>
        <time>2019-07-07T14:16:08.686Z</time>
      </trkpt>
      <trkpt lat="43.06223167" lon="-0.47566667">
        <ele>874.0</ele>
        <time>2019-07-07T14:16:09.695Z</time>
      </trkpt>
      <trkpt lat="43.06223167" lon="-0.47566667">
        <ele>874.0</ele>
        <time>2019-07-07T14:16:10.704Z</time>
      </trkpt>
      <trkpt lat="43.06223167" lon="-0.47566667">
        <ele>874.0</ele>
        <time>2019-07-07T14:16:11.669Z</time>
      </trkpt>
      <trkpt lat="43.06216333" lon="-0.47591667">
        <ele>874.0</ele>
        <time>2019-07-07T14:16:12.695Z</time>
      </trkpt>
      <trkpt lat="43.06216333" lon="-0.47591667">
        <ele>874.0</ele>
        <time>2019-07-07T14:16:13.701Z</time>
      </trkpt>
      <trkpt lat="43.06216333" lon="-0.47591667">
        <ele>874.0</ele>
        <time>2019-07-07T14:16:14.666Z</time>
      </trkpt>
      <trkpt lat="43.06211667" lon="-0.47608667">
        <ele>874.0</ele>
        <time>2019-07-07T14:16:15.676Z</time>
      </trkpt>
      <trkpt lat="43.062095" lon="-0.47617333">
        <ele>874.0</ele>
        <time>2019-07-07T14:16:16.681Z</time>
      </trkpt>
      <trkpt lat="43.062095" lon="-0.47617333">
        <ele>874.0</ele>
        <time>2019-07-07T14:16:17.696Z</time>
      </trkpt>
      <trkpt lat="43.06203" lon="-0.47643167">
        <ele>874.0</ele>
        <time>2019-07-07T14:16:18.703Z</time>
      </trkpt>
      <trkpt lat="43.06203" lon="-0.47643167">
        <ele>874.0</ele>
        <time>2019-07-07T14:16:19.669Z</time>
      </trkpt>
      <trkpt lat="43.06203" lon="-0.47643167">
        <ele>874.0</ele>
        <time>2019-07-07T14:16:20.675Z</time>
      </trkpt>
      <trkpt lat="43.06198" lon="-0.47659833">
        <ele>874.0</ele>
        <time>2019-07-07T14:16:21.671Z</time>
      </trkpt>
      <trkpt lat="43.06195333" lon="-0.47668">
        <ele>874.0</ele>
        <time>2019-07-07T14:16:22.670Z</time>
      </trkpt>
      <trkpt lat="43.06195333" lon="-0.47668">
        <ele>874.0</ele>
        <time>2019-07-07T14:16:23.676Z</time>
      </trkpt>
      <trkpt lat="43.06190333" lon="-0.47684667">
        <ele>875.0</ele>
        <time>2019-07-07T14:16:24.693Z</time>
      </trkpt>
      <trkpt lat="43.06187667" lon="-0.47693">
        <ele>875.0</ele>
        <time>2019-07-07T14:16:25.705Z</time>
      </trkpt>
      <trkpt lat="43.06187667" lon="-0.47693">
        <ele>875.0</ele>
        <time>2019-07-07T14:16:26.684Z</time>
      </trkpt>
      <trkpt lat="43.061825" lon="-0.47709667">
        <ele>875.0</ele>
        <time>2019-07-07T14:16:27.692Z</time>
      </trkpt>
      <trkpt lat="43.06179833" lon="-0.47718167">
        <ele>875.0</ele>
        <time>2019-07-07T14:16:28.704Z</time>
      </trkpt>
      <trkpt lat="43.06179833" lon="-0.47718167">
        <ele>875.0</ele>
        <time>2019-07-07T14:16:29.670Z</time>
      </trkpt>
      <trkpt lat="43.06174167" lon="-0.47734667">
        <ele>875.0</ele>
        <time>2019-07-07T14:16:30.670Z</time>
      </trkpt>
      <trkpt lat="43.061715" lon="-0.47743167">
        <ele>875.0</ele>
        <time>2019-07-07T14:16:31.704Z</time>
      </trkpt>
      <trkpt lat="43.061715" lon="-0.47743167">
        <ele>875.0</ele>
        <time>2019-07-07T14:16:32.700Z</time>
      </trkpt>
      <trkpt lat="43.06165167" lon="-0.47759833">
        <ele>875.0</ele>
        <time>2019-07-07T14:16:33.680Z</time>
      </trkpt>
      <trkpt lat="43.06161833" lon="-0.47767833">
        <ele>875.0</ele>
        <time>2019-07-07T14:16:34.688Z</time>
      </trkpt>
      <trkpt lat="43.06161833" lon="-0.47767833">
        <ele>875.0</ele>
        <time>2019-07-07T14:16:35.696Z</time>
      </trkpt>
      <trkpt lat="43.06155167" lon="-0.47784167">
        <ele>875.0</ele>
        <time>2019-07-07T14:16:36.700Z</time>
      </trkpt>
      <trkpt lat="43.06155167" lon="-0.47784167">
        <ele>875.0</ele>
        <time>2019-07-07T14:16:37.666Z</time>
      </trkpt>
      <trkpt lat="43.06148333" lon="-0.47800667">
        <ele>874.0</ele>
        <time>2019-07-07T14:16:38.692Z</time>
      </trkpt>
      <trkpt lat="43.06145" lon="-0.47809">
        <ele>874.0</ele>
        <time>2019-07-07T14:16:39.703Z</time>
      </trkpt>
      <trkpt lat="43.06145" lon="-0.47809">
        <ele>874.0</ele>
        <time>2019-07-07T14:16:40.669Z</time>
      </trkpt>
      <trkpt lat="43.06138167" lon="-0.47825167">
        <ele>874.0</ele>
        <time>2019-07-07T14:16:41.689Z</time>
      </trkpt>
      <trkpt lat="43.061305" lon="-0.47840333">
        <ele>874.0</ele>
        <time>2019-07-07T14:16:42.706Z</time>
      </trkpt>
      <trkpt lat="43.061305" lon="-0.47840333">
        <ele>874.0</ele>
        <time>2019-07-07T14:16:43.671Z</time>
      </trkpt>
      <trkpt lat="43.061305" lon="-0.47840333">
        <ele>874.0</ele>
        <time>2019-07-07T14:16:44.677Z</time>
      </trkpt>
      <trkpt lat="43.06118333" lon="-0.47862333">
        <ele>874.0</ele>
        <time>2019-07-07T14:16:45.699Z</time>
      </trkpt>
      <trkpt lat="43.06118333" lon="-0.47862333">
        <ele>874.0</ele>
        <time>2019-07-07T14:16:46.690Z</time>
      </trkpt>
      <trkpt lat="43.061125" lon="-0.47879">
        <ele>874.0</ele>
        <time>2019-07-07T14:16:47.697Z</time>
      </trkpt>
      <trkpt lat="43.061125" lon="-0.47879">
        <ele>874.0</ele>
        <time>2019-07-07T14:16:48.672Z</time>
      </trkpt>
      <trkpt lat="43.06110167" lon="-0.478875">
        <ele>874.0</ele>
        <time>2019-07-07T14:16:49.674Z</time>
      </trkpt>
      <trkpt lat="43.06106167" lon="-0.479045">
        <ele>875.0</ele>
        <time>2019-07-07T14:16:50.710Z</time>
      </trkpt>
      <trkpt lat="43.06106167" lon="-0.479045">
        <ele>875.0</ele>
        <time>2019-07-07T14:16:51.686Z</time>
      </trkpt>
      <trkpt lat="43.06106167" lon="-0.479045">
        <ele>875.0</ele>
        <time>2019-07-07T14:16:52.696Z</time>
      </trkpt>
      <trkpt lat="43.06102833" lon="-0.47921167">
        <ele>875.0</ele>
        <time>2019-07-07T14:16:53.701Z</time>
      </trkpt>
      <trkpt lat="43.06102833" lon="-0.47921167">
        <ele>875.0</ele>
        <time>2019-07-07T14:16:54.666Z</time>
      </trkpt>
      <trkpt lat="43.060995" lon="-0.47937833">
        <ele>875.0</ele>
        <time>2019-07-07T14:16:55.671Z</time>
      </trkpt>
      <trkpt lat="43.06097833" lon="-0.47946">
        <ele>875.0</ele>
        <time>2019-07-07T14:16:56.670Z</time>
      </trkpt>
      <trkpt lat="43.06096" lon="-0.47954167">
        <ele>875.0</ele>
        <time>2019-07-07T14:16:57.670Z</time>
      </trkpt>
      <trkpt lat="43.06094333" lon="-0.47962167">
        <ele>875.0</ele>
        <time>2019-07-07T14:16:58.668Z</time>
      </trkpt>
      <trkpt lat="43.06094333" lon="-0.47962167">
        <ele>875.0</ele>
        <time>2019-07-07T14:16:59.674Z</time>
      </trkpt>
      <trkpt lat="43.06090833" lon="-0.47978">
        <ele>875.0</ele>
        <time>2019-07-07T14:17:00.668Z</time>
      </trkpt>
      <trkpt lat="43.06090833" lon="-0.47978">
        <ele>875.0</ele>
        <time>2019-07-07T14:17:01.674Z</time>
      </trkpt>
      <trkpt lat="43.060875" lon="-0.47993333">
        <ele>876.0</ele>
        <time>2019-07-07T14:17:02.680Z</time>
      </trkpt>
      <trkpt lat="43.060875" lon="-0.47993333">
        <ele>876.0</ele>
        <time>2019-07-07T14:17:03.691Z</time>
      </trkpt>
      <trkpt lat="43.06084" lon="-0.48007833">
        <ele>876.0</ele>
        <time>2019-07-07T14:17:04.667Z</time>
      </trkpt>
      <trkpt lat="43.06084" lon="-0.48007833">
        <ele>876.0</ele>
        <time>2019-07-07T14:17:05.673Z</time>
      </trkpt>
      <trkpt lat="43.06080667" lon="-0.48022167">
        <ele>876.0</ele>
        <time>2019-07-07T14:17:06.680Z</time>
      </trkpt>
      <trkpt lat="43.06077833" lon="-0.48036">
        <ele>877.0</ele>
        <time>2019-07-07T14:17:07.697Z</time>
      </trkpt>
      <trkpt lat="43.06077833" lon="-0.48036">
        <ele>877.0</ele>
        <time>2019-07-07T14:17:08.692Z</time>
      </trkpt>
      <trkpt lat="43.060755" lon="-0.48049667">
        <ele>877.0</ele>
        <time>2019-07-07T14:17:09.701Z</time>
      </trkpt>
      <trkpt lat="43.060755" lon="-0.48049667">
        <ele>877.0</ele>
        <time>2019-07-07T14:17:10.672Z</time>
      </trkpt>
      <trkpt lat="43.060755" lon="-0.48049667">
        <ele>877.0</ele>
        <time>2019-07-07T14:17:11.678Z</time>
      </trkpt>
      <trkpt lat="43.06073" lon="-0.48069667">
        <ele>878.0</ele>
        <time>2019-07-07T14:17:12.695Z</time>
      </trkpt>
      <trkpt lat="43.06073" lon="-0.48069667">
        <ele>878.0</ele>
        <time>2019-07-07T14:17:13.703Z</time>
      </trkpt>
      <trkpt lat="43.06073" lon="-0.48069667">
        <ele>878.0</ele>
        <time>2019-07-07T14:17:14.669Z</time>
      </trkpt>
      <trkpt lat="43.060715" lon="-0.480825">
        <ele>879.0</ele>
        <time>2019-07-07T14:17:15.672Z</time>
      </trkpt>
      <trkpt lat="43.06070667" lon="-0.48088833">
        <ele>879.0</ele>
        <time>2019-07-07T14:17:16.702Z</time>
      </trkpt>
      <trkpt lat="43.06070667" lon="-0.48088833">
        <ele>879.0</ele>
        <time>2019-07-07T14:17:17.668Z</time>
      </trkpt>
      <trkpt lat="43.06068833" lon="-0.48108">
        <ele>879.0</ele>
        <time>2019-07-07T14:17:18.700Z</time>
      </trkpt>
      <trkpt lat="43.06068833" lon="-0.48108">
        <ele>879.0</ele>
        <time>2019-07-07T14:17:19.666Z</time>
      </trkpt>
      <trkpt lat="43.06068833" lon="-0.48108">
        <ele>879.0</ele>
        <time>2019-07-07T14:17:20.672Z</time>
      </trkpt>
      <trkpt lat="43.06068" lon="-0.481205">
        <ele>880.0</ele>
        <time>2019-07-07T14:17:21.683Z</time>
      </trkpt>
      <trkpt lat="43.060675" lon="-0.48126667">
        <ele>880.0</ele>
        <time>2019-07-07T14:17:22.677Z</time>
      </trkpt>
      <trkpt lat="43.060675" lon="-0.48126667">
        <ele>880.0</ele>
        <time>2019-07-07T14:17:23.688Z</time>
      </trkpt>
      <trkpt lat="43.060665" lon="-0.48145333">
        <ele>880.0</ele>
        <time>2019-07-07T14:17:24.691Z</time>
      </trkpt>
      <trkpt lat="43.06066" lon="-0.48151333">
        <ele>881.0</ele>
        <time>2019-07-07T14:17:25.719Z</time>
      </trkpt>
      <trkpt lat="43.06066" lon="-0.48151333">
        <ele>881.0</ele>
        <time>2019-07-07T14:17:26.677Z</time>
      </trkpt>
      <trkpt lat="43.06066" lon="-0.48151333">
        <ele>881.0</ele>
        <time>2019-07-07T14:17:27.694Z</time>
      </trkpt>
      <trkpt lat="43.06064667" lon="-0.48163">
        <ele>881.0</ele>
        <time>2019-07-07T14:17:28.694Z</time>
      </trkpt>
      <trkpt lat="43.06063667" lon="-0.481745">
        <ele>881.0</ele>
        <time>2019-07-07T14:17:29.700Z</time>
      </trkpt>
      <trkpt lat="43.06063667" lon="-0.481745">
        <ele>881.0</ele>
        <time>2019-07-07T14:17:30.692Z</time>
      </trkpt>
      <trkpt lat="43.06063167" lon="-0.48180167">
        <ele>882.0</ele>
        <time>2019-07-07T14:17:31.700Z</time>
      </trkpt>
      <trkpt lat="43.06063167" lon="-0.48180167">
        <ele>882.0</ele>
        <time>2019-07-07T14:17:32.666Z</time>
      </trkpt>
      <trkpt lat="43.06062" lon="-0.48191667">
        <ele>882.0</ele>
        <time>2019-07-07T14:17:33.665Z</time>
      </trkpt>
      <trkpt lat="43.06061167" lon="-0.48197333">
        <ele>882.0</ele>
        <time>2019-07-07T14:17:34.696Z</time>
      </trkpt>
      <trkpt lat="43.06059833" lon="-0.48208333">
        <ele>883.0</ele>
        <time>2019-07-07T14:17:35.702Z</time>
      </trkpt>
      <trkpt lat="43.06059833" lon="-0.48208333">
        <ele>883.0</ele>
        <time>2019-07-07T14:17:36.680Z</time>
      </trkpt>
      <trkpt lat="43.06058667" lon="-0.482185">
        <ele>883.0</ele>
        <time>2019-07-07T14:17:37.695Z</time>
      </trkpt>
      <trkpt lat="43.06058667" lon="-0.482185">
        <ele>883.0</ele>
        <time>2019-07-07T14:17:38.702Z</time>
      </trkpt>
      <trkpt lat="43.06058667" lon="-0.482185">
        <ele>883.0</ele>
        <time>2019-07-07T14:17:39.668Z</time>
      </trkpt>
      <trkpt lat="43.060575" lon="-0.48229167">
        <ele>883.0</ele>
        <time>2019-07-07T14:17:40.700Z</time>
      </trkpt>
      <trkpt lat="43.060575" lon="-0.48229167">
        <ele>883.0</ele>
        <time>2019-07-07T14:17:41.665Z</time>
      </trkpt>
      <trkpt lat="43.06054833" lon="-0.48246">
        <ele>884.0</ele>
        <time>2019-07-07T14:17:42.697Z</time>
      </trkpt>
      <trkpt lat="43.06054833" lon="-0.48246">
        <ele>884.0</ele>
        <time>2019-07-07T14:17:43.703Z</time>
      </trkpt>
      <trkpt lat="43.06054833" lon="-0.48246">
        <ele>884.0</ele>
        <time>2019-07-07T14:17:44.669Z</time>
      </trkpt>
      <trkpt lat="43.06052333" lon="-0.48262">
        <ele>884.0</ele>
        <time>2019-07-07T14:17:45.695Z</time>
      </trkpt>
      <trkpt lat="43.06052333" lon="-0.48262">
        <ele>884.0</ele>
        <time>2019-07-07T14:17:46.704Z</time>
      </trkpt>
      <trkpt lat="43.06052333" lon="-0.48262">
        <ele>884.0</ele>
        <time>2019-07-07T14:17:47.670Z</time>
      </trkpt>
      <trkpt lat="43.060505" lon="-0.48272667">
        <ele>885.0</ele>
        <time>2019-07-07T14:17:48.695Z</time>
      </trkpt>
      <trkpt lat="43.060505" lon="-0.48272667">
        <ele>885.0</ele>
        <time>2019-07-07T14:17:49.698Z</time>
      </trkpt>
      <trkpt lat="43.06049" lon="-0.48283167">
        <ele>885.0</ele>
        <time>2019-07-07T14:17:50.687Z</time>
      </trkpt>
      <trkpt lat="43.06049" lon="-0.48283167">
        <ele>885.0</ele>
        <time>2019-07-07T14:17:51.694Z</time>
      </trkpt>
      <trkpt lat="43.06047333" lon="-0.48294333">
        <ele>886.0</ele>
        <time>2019-07-07T14:17:52.667Z</time>
      </trkpt>
      <trkpt lat="43.06047333" lon="-0.48294333">
        <ele>886.0</ele>
        <time>2019-07-07T14:17:53.673Z</time>
      </trkpt>
      <trkpt lat="43.06045" lon="-0.48305333">
        <ele>886.0</ele>
        <time>2019-07-07T14:17:54.670Z</time>
      </trkpt>
      <trkpt lat="43.06045" lon="-0.48305333">
        <ele>886.0</ele>
        <time>2019-07-07T14:17:55.676Z</time>
      </trkpt>
      <trkpt lat="43.06043167" lon="-0.48316333">
        <ele>887.0</ele>
        <time>2019-07-07T14:17:56.675Z</time>
      </trkpt>
      <trkpt lat="43.06043167" lon="-0.48316333">
        <ele>887.0</ele>
        <time>2019-07-07T14:17:57.687Z</time>
      </trkpt>
      <trkpt lat="43.06041833" lon="-0.48327">
        <ele>887.0</ele>
        <time>2019-07-07T14:17:58.675Z</time>
      </trkpt>
      <trkpt lat="43.06041833" lon="-0.48327">
        <ele>887.0</ele>
        <time>2019-07-07T14:17:59.699Z</time>
      </trkpt>
      <trkpt lat="43.06039333" lon="-0.48341833">
        <ele>889.0</ele>
        <time>2019-07-07T14:18:00.708Z</time>
      </trkpt>
      <trkpt lat="43.060385" lon="-0.48346667">
        <ele>889.0</ele>
        <time>2019-07-07T14:18:01.703Z</time>
      </trkpt>
      <trkpt lat="43.060385" lon="-0.48346667">
        <ele>889.0</ele>
        <time>2019-07-07T14:18:02.691Z</time>
      </trkpt>
      <trkpt lat="43.06037" lon="-0.48356667">
        <ele>889.0</ele>
        <time>2019-07-07T14:18:03.697Z</time>
      </trkpt>
      <trkpt lat="43.06037" lon="-0.48356667">
        <ele>889.0</ele>
        <time>2019-07-07T14:18:04.676Z</time>
      </trkpt>
      <trkpt lat="43.06036167" lon="-0.48361667">
        <ele>890.0</ele>
        <time>2019-07-07T14:18:05.680Z</time>
      </trkpt>
      <trkpt lat="43.06036167" lon="-0.48361667">
        <ele>890.0</ele>
        <time>2019-07-07T14:18:06.698Z</time>
      </trkpt>
      <trkpt lat="43.06034833" lon="-0.483715">
        <ele>890.0</ele>
        <time>2019-07-07T14:18:07.690Z</time>
      </trkpt>
      <trkpt lat="43.06034833" lon="-0.483715">
        <ele>890.0</ele>
        <time>2019-07-07T14:18:08.696Z</time>
      </trkpt>
      <trkpt lat="43.06033333" lon="-0.48381167">
        <ele>891.0</ele>
        <time>2019-07-07T14:18:09.699Z</time>
      </trkpt>
      <trkpt lat="43.060325" lon="-0.48386167">
        <ele>891.0</ele>
        <time>2019-07-07T14:18:10.700Z</time>
      </trkpt>
      <trkpt lat="43.060325" lon="-0.48386167">
        <ele>891.0</ele>
        <time>2019-07-07T14:18:11.665Z</time>
      </trkpt>
      <trkpt lat="43.06030667" lon="-0.48400833">
        <ele>892.0</ele>
        <time>2019-07-07T14:18:12.700Z</time>
      </trkpt>
      <trkpt lat="43.06030667" lon="-0.48400833">
        <ele>892.0</ele>
        <time>2019-07-07T14:18:13.666Z</time>
      </trkpt>
      <trkpt lat="43.06030667" lon="-0.48400833">
        <ele>892.0</ele>
        <time>2019-07-07T14:18:14.672Z</time>
      </trkpt>
      <trkpt lat="43.06029" lon="-0.48410667">
        <ele>892.0</ele>
        <time>2019-07-07T14:18:15.697Z</time>
      </trkpt>
      <trkpt lat="43.06028333" lon="-0.484155">
        <ele>892.0</ele>
        <time>2019-07-07T14:18:16.690Z</time>
      </trkpt>
      <trkpt lat="43.06028333" lon="-0.484155">
        <ele>892.0</ele>
        <time>2019-07-07T14:18:17.696Z</time>
      </trkpt>
      <trkpt lat="43.06027167" lon="-0.48424833">
        <ele>892.0</ele>
        <time>2019-07-07T14:18:18.698Z</time>
      </trkpt>
      <trkpt lat="43.060265" lon="-0.48429667">
        <ele>892.0</ele>
        <time>2019-07-07T14:18:19.680Z</time>
      </trkpt>
      <trkpt lat="43.060265" lon="-0.48429667">
        <ele>892.0</ele>
        <time>2019-07-07T14:18:20.698Z</time>
      </trkpt>
      <trkpt lat="43.06024833" lon="-0.48439">
        <ele>893.0</ele>
        <time>2019-07-07T14:18:21.695Z</time>
      </trkpt>
      <trkpt lat="43.06024167" lon="-0.48443667">
        <ele>893.0</ele>
        <time>2019-07-07T14:18:22.675Z</time>
      </trkpt>
      <trkpt lat="43.06024167" lon="-0.48443667">
        <ele>893.0</ele>
        <time>2019-07-07T14:18:23.692Z</time>
      </trkpt>
      <trkpt lat="43.06022167" lon="-0.48458333">
        <ele>893.0</ele>
        <time>2019-07-07T14:18:24.700Z</time>
      </trkpt>
      <trkpt lat="43.06022167" lon="-0.48458333">
        <ele>893.0</ele>
        <time>2019-07-07T14:18:25.673Z</time>
      </trkpt>
      <trkpt lat="43.06022167" lon="-0.48458333">
        <ele>893.0</ele>
        <time>2019-07-07T14:18:26.680Z</time>
      </trkpt>
      <trkpt lat="43.06020833" lon="-0.48467833">
        <ele>894.0</ele>
        <time>2019-07-07T14:18:27.670Z</time>
      </trkpt>
      <trkpt lat="43.06020833" lon="-0.48467833">
        <ele>894.0</ele>
        <time>2019-07-07T14:18:28.676Z</time>
      </trkpt>
      <trkpt lat="43.06019333" lon="-0.48477">
        <ele>894.0</ele>
        <time>2019-07-07T14:18:29.678Z</time>
      </trkpt>
      <trkpt lat="43.06018167" lon="-0.48485667">
        <ele>895.0</ele>
        <time>2019-07-07T14:18:30.704Z</time>
      </trkpt>
      <trkpt lat="43.06018167" lon="-0.48485667">
        <ele>895.0</ele>
        <time>2019-07-07T14:18:31.680Z</time>
      </trkpt>
      <trkpt lat="43.06016667" lon="-0.48494333">
        <ele>895.0</ele>
        <time>2019-07-07T14:18:32.697Z</time>
      </trkpt>
      <trkpt lat="43.06016667" lon="-0.48494333">
        <ele>895.0</ele>
        <time>2019-07-07T14:18:33.700Z</time>
      </trkpt>
      <trkpt lat="43.06016667" lon="-0.48494333">
        <ele>895.0</ele>
        <time>2019-07-07T14:18:34.666Z</time>
      </trkpt>
      <trkpt lat="43.06015167" lon="-0.48502833">
        <ele>896.0</ele>
        <time>2019-07-07T14:18:35.704Z</time>
      </trkpt>
      <trkpt lat="43.06015167" lon="-0.48502833">
        <ele>896.0</ele>
        <time>2019-07-07T14:18:36.671Z</time>
      </trkpt>
      <trkpt lat="43.06013833" lon="-0.48511">
        <ele>896.0</ele>
        <time>2019-07-07T14:18:37.666Z</time>
      </trkpt>
      <trkpt lat="43.06013167" lon="-0.48515">
        <ele>896.0</ele>
        <time>2019-07-07T14:18:38.673Z</time>
      </trkpt>
      <trkpt lat="43.06012333" lon="-0.48523">
        <ele>897.0</ele>
        <time>2019-07-07T14:18:39.704Z</time>
      </trkpt>
      <trkpt lat="43.06012333" lon="-0.48523">
        <ele>897.0</ele>
        <time>2019-07-07T14:18:40.670Z</time>
      </trkpt>
      <trkpt lat="43.06012333" lon="-0.48523">
        <ele>897.0</ele>
        <time>2019-07-07T14:18:41.676Z</time>
      </trkpt>
      <trkpt lat="43.06011167" lon="-0.48531">
        <ele>897.0</ele>
        <time>2019-07-07T14:18:42.688Z</time>
      </trkpt>
      <trkpt lat="43.06009667" lon="-0.485395">
        <ele>898.0</ele>
        <time>2019-07-07T14:18:43.707Z</time>
      </trkpt>
      <trkpt lat="43.06009" lon="-0.48543667">
        <ele>898.0</ele>
        <time>2019-07-07T14:18:44.700Z</time>
      </trkpt>
      <trkpt lat="43.06009" lon="-0.48543667">
        <ele>898.0</ele>
        <time>2019-07-07T14:18:45.690Z</time>
      </trkpt>
      <trkpt lat="43.06007333" lon="-0.48552">
        <ele>899.0</ele>
        <time>2019-07-07T14:18:46.701Z</time>
      </trkpt>
      <trkpt lat="43.06007333" lon="-0.48552">
        <ele>899.0</ele>
        <time>2019-07-07T14:18:47.703Z</time>
      </trkpt>
      <trkpt lat="43.06007333" lon="-0.48552">
        <ele>899.0</ele>
        <time>2019-07-07T14:18:48.669Z</time>
      </trkpt>
      <trkpt lat="43.06006" lon="-0.48559833">
        <ele>899.0</ele>
        <time>2019-07-07T14:18:49.674Z</time>
      </trkpt>
      <trkpt lat="43.06005167" lon="-0.485635">
        <ele>899.0</ele>
        <time>2019-07-07T14:18:50.703Z</time>
      </trkpt>
      <trkpt lat="43.06005167" lon="-0.485635">
        <ele>899.0</ele>
        <time>2019-07-07T14:18:51.668Z</time>
      </trkpt>
      <trkpt lat="43.06003333" lon="-0.48570833">
        <ele>900.0</ele>
        <time>2019-07-07T14:18:52.675Z</time>
      </trkpt>
      <trkpt lat="43.06003333" lon="-0.48570833">
        <ele>900.0</ele>
        <time>2019-07-07T14:18:53.694Z</time>
      </trkpt>
      <trkpt lat="43.06" lon="-0.485815">
        <ele>901.0</ele>
        <time>2019-07-07T14:18:54.714Z</time>
      </trkpt>
      <trkpt lat="43.06" lon="-0.485815">
        <ele>901.0</ele>
        <time>2019-07-07T14:18:55.690Z</time>
      </trkpt>
      <trkpt lat="43.06" lon="-0.485815">
        <ele>901.0</ele>
        <time>2019-07-07T14:18:56.696Z</time>
      </trkpt>
      <trkpt lat="43.05998" lon="-0.48588667">
        <ele>901.0</ele>
        <time>2019-07-07T14:18:57.705Z</time>
      </trkpt>
      <trkpt lat="43.05998" lon="-0.48588667">
        <ele>901.0</ele>
        <time>2019-07-07T14:18:58.670Z</time>
      </trkpt>
      <trkpt lat="43.05995333" lon="-0.48595333">
        <ele>902.0</ele>
        <time>2019-07-07T14:18:59.670Z</time>
      </trkpt>
      <trkpt lat="43.05995333" lon="-0.48595333">
        <ele>902.0</ele>
        <time>2019-07-07T14:19:00.676Z</time>
      </trkpt>
      <trkpt lat="43.05991333" lon="-0.48605167">
        <ele>902.0</ele>
        <time>2019-07-07T14:19:01.700Z</time>
      </trkpt>
      <trkpt lat="43.05991333" lon="-0.48605167">
        <ele>902.0</ele>
        <time>2019-07-07T14:19:02.679Z</time>
      </trkpt>
      <trkpt lat="43.05991333" lon="-0.48605167">
        <ele>902.0</ele>
        <time>2019-07-07T14:19:03.697Z</time>
      </trkpt>
      <trkpt lat="43.05989" lon="-0.48611833">
        <ele>902.0</ele>
        <time>2019-07-07T14:19:04.703Z</time>
      </trkpt>
      <trkpt lat="43.05989" lon="-0.48611833">
        <ele>902.0</ele>
        <time>2019-07-07T14:19:05.669Z</time>
      </trkpt>
      <trkpt lat="43.05986167" lon="-0.48619">
        <ele>903.0</ele>
        <time>2019-07-07T14:19:06.700Z</time>
      </trkpt>
      <trkpt lat="43.05986167" lon="-0.48619">
        <ele>903.0</ele>
        <time>2019-07-07T14:19:07.666Z</time>
      </trkpt>
      <trkpt lat="43.05983167" lon="-0.48625833">
        <ele>903.0</ele>
        <time>2019-07-07T14:19:08.666Z</time>
      </trkpt>
      <trkpt lat="43.05983167" lon="-0.48625833">
        <ele>903.0</ele>
        <time>2019-07-07T14:19:09.684Z</time>
      </trkpt>
      <trkpt lat="43.05980667" lon="-0.48632833">
        <ele>904.0</ele>
        <time>2019-07-07T14:19:10.701Z</time>
      </trkpt>
      <trkpt lat="43.05980667" lon="-0.48632833">
        <ele>904.0</ele>
        <time>2019-07-07T14:19:11.666Z</time>
      </trkpt>
      <trkpt lat="43.05977667" lon="-0.48643167">
        <ele>904.0</ele>
        <time>2019-07-07T14:19:12.700Z</time>
      </trkpt>
      <trkpt lat="43.05977667" lon="-0.48643167">
        <ele>904.0</ele>
        <time>2019-07-07T14:19:13.666Z</time>
      </trkpt>
      <trkpt lat="43.05976833" lon="-0.48646333">
        <ele>905.0</ele>
        <time>2019-07-07T14:19:14.666Z</time>
      </trkpt>
      <trkpt lat="43.05976833" lon="-0.48646333">
        <ele>905.0</ele>
        <time>2019-07-07T14:19:15.673Z</time>
      </trkpt>
      <trkpt lat="43.05975" lon="-0.48653">
        <ele>905.0</ele>
        <time>2019-07-07T14:19:16.670Z</time>
      </trkpt>
      <trkpt lat="43.05975" lon="-0.48653">
        <ele>905.0</ele>
        <time>2019-07-07T14:19:17.676Z</time>
      </trkpt>
      <trkpt lat="43.05973" lon="-0.48659667">
        <ele>905.0</ele>
        <time>2019-07-07T14:19:18.695Z</time>
      </trkpt>
      <trkpt lat="43.05973" lon="-0.48659667">
        <ele>905.0</ele>
        <time>2019-07-07T14:19:19.687Z</time>
      </trkpt>
      <trkpt lat="43.05969167" lon="-0.48669333">
        <ele>906.0</ele>
        <time>2019-07-07T14:19:20.699Z</time>
      </trkpt>
      <trkpt lat="43.05969167" lon="-0.48669333">
        <ele>906.0</ele>
        <time>2019-07-07T14:19:21.665Z</time>
      </trkpt>
      <trkpt lat="43.05968167" lon="-0.48672667">
        <ele>906.0</ele>
        <time>2019-07-07T14:19:22.666Z</time>
      </trkpt>
      <trkpt lat="43.05968167" lon="-0.48672667">
        <ele>906.0</ele>
        <time>2019-07-07T14:19:23.672Z</time>
      </trkpt>
      <trkpt lat="43.059665" lon="-0.48679167">
        <ele>906.0</ele>
        <time>2019-07-07T14:19:24.681Z</time>
      </trkpt>
      <trkpt lat="43.05965167" lon="-0.48684333">
        <ele>906.0</ele>
        <time>2019-07-07T14:19:25.700Z</time>
      </trkpt>
      <trkpt lat="43.05965167" lon="-0.48684333">
        <ele>906.0</ele>
        <time>2019-07-07T14:19:26.688Z</time>
      </trkpt>
      <trkpt lat="43.05965167" lon="-0.48684333">
        <ele>906.0</ele>
        <time>2019-07-07T14:19:27.697Z</time>
      </trkpt>
      <trkpt lat="43.05962333" lon="-0.48690833">
        <ele>907.0</ele>
        <time>2019-07-07T14:19:28.678Z</time>
      </trkpt>
      <trkpt lat="43.05962333" lon="-0.48690833">
        <ele>907.0</ele>
        <time>2019-07-07T14:19:29.696Z</time>
      </trkpt>
      <trkpt lat="43.059615" lon="-0.487">
        <ele>908.0</ele>
        <time>2019-07-07T14:19:30.701Z</time>
      </trkpt>
      <trkpt lat="43.059615" lon="-0.487">
        <ele>908.0</ele>
        <time>2019-07-07T14:19:31.671Z</time>
      </trkpt>
      <trkpt lat="43.059615" lon="-0.487">
        <ele>908.0</ele>
        <time>2019-07-07T14:19:32.677Z</time>
      </trkpt>
      <trkpt lat="43.059605" lon="-0.48704833">
        <ele>909.0</ele>
        <time>2019-07-07T14:19:33.691Z</time>
      </trkpt>
      <trkpt lat="43.059605" lon="-0.48709167">
        <ele>909.0</ele>
        <time>2019-07-07T14:19:34.701Z</time>
      </trkpt>
      <trkpt lat="43.059605" lon="-0.48709167">
        <ele>909.0</ele>
        <time>2019-07-07T14:19:35.700Z</time>
      </trkpt>
      <trkpt lat="43.059605" lon="-0.48709167">
        <ele>909.0</ele>
        <time>2019-07-07T14:19:36.666Z</time>
      </trkpt>
      <trkpt lat="43.05958833" lon="-0.48715">
        <ele>910.0</ele>
        <time>2019-07-07T14:19:37.667Z</time>
      </trkpt>
      <trkpt lat="43.05958833" lon="-0.48715">
        <ele>910.0</ele>
        <time>2019-07-07T14:19:38.673Z</time>
      </trkpt>
      <trkpt lat="43.05957833" lon="-0.487195">
        <ele>910.0</ele>
        <time>2019-07-07T14:19:39.680Z</time>
      </trkpt>
      <trkpt lat="43.059565" lon="-0.48721833">
        <ele>911.0</ele>
        <time>2019-07-07T14:19:40.693Z</time>
      </trkpt>
      <trkpt lat="43.05955333" lon="-0.48726333">
        <ele>911.0</ele>
        <time>2019-07-07T14:19:41.709Z</time>
      </trkpt>
      <trkpt lat="43.05955333" lon="-0.48726333">
        <ele>911.0</ele>
        <time>2019-07-07T14:19:42.701Z</time>
      </trkpt>
      <trkpt lat="43.05955333" lon="-0.48726333">
        <ele>911.0</ele>
        <time>2019-07-07T14:19:43.666Z</time>
      </trkpt>
      <trkpt lat="43.05955667" lon="-0.48730667">
        <ele>912.0</ele>
        <time>2019-07-07T14:19:44.703Z</time>
      </trkpt>
      <trkpt lat="43.05955833" lon="-0.48733">
        <ele>912.0</ele>
        <time>2019-07-07T14:19:45.695Z</time>
      </trkpt>
      <trkpt lat="43.05955" lon="-0.48735833">
        <ele>913.0</ele>
        <time>2019-07-07T14:19:46.691Z</time>
      </trkpt>
      <trkpt lat="43.05952167" lon="-0.48743">
        <ele>913.0</ele>
        <time>2019-07-07T14:19:47.711Z</time>
      </trkpt>
      <trkpt lat="43.05952167" lon="-0.48743">
        <ele>913.0</ele>
        <time>2019-07-07T14:19:48.690Z</time>
      </trkpt>
      <trkpt lat="43.05952167" lon="-0.48743">
        <ele>913.0</ele>
        <time>2019-07-07T14:19:49.673Z</time>
      </trkpt>
      <trkpt lat="43.05950333" lon="-0.48749333">
        <ele>914.0</ele>
        <time>2019-07-07T14:19:50.667Z</time>
      </trkpt>
      <trkpt lat="43.05950333" lon="-0.48749333">
        <ele>914.0</ele>
        <time>2019-07-07T14:19:51.675Z</time>
      </trkpt>
      <trkpt lat="43.05949667" lon="-0.48754833">
        <ele>914.0</ele>
        <time>2019-07-07T14:19:52.677Z</time>
      </trkpt>
      <trkpt lat="43.05949667" lon="-0.48754833">
        <ele>914.0</ele>
        <time>2019-07-07T14:19:53.691Z</time>
      </trkpt>
      <trkpt lat="43.05946" lon="-0.487615">
        <ele>915.0</ele>
        <time>2019-07-07T14:19:54.670Z</time>
      </trkpt>
      <trkpt lat="43.05944167" lon="-0.48765">
        <ele>916.0</ele>
        <time>2019-07-07T14:19:55.678Z</time>
      </trkpt>
      <trkpt lat="43.05943" lon="-0.48768">
        <ele>916.0</ele>
        <time>2019-07-07T14:19:56.701Z</time>
      </trkpt>
      <trkpt lat="43.05943" lon="-0.48768">
        <ele>916.0</ele>
        <time>2019-07-07T14:19:57.681Z</time>
      </trkpt>
      <trkpt lat="43.0594" lon="-0.48776">
        <ele>917.0</ele>
        <time>2019-07-07T14:19:58.699Z</time>
      </trkpt>
      <trkpt lat="43.0594" lon="-0.48776">
        <ele>917.0</ele>
        <time>2019-07-07T14:19:59.665Z</time>
      </trkpt>
      <trkpt lat="43.059385" lon="-0.48785">
        <ele>917.0</ele>
        <time>2019-07-07T14:20:00.702Z</time>
      </trkpt>
      <trkpt lat="43.059385" lon="-0.48785">
        <ele>917.0</ele>
        <time>2019-07-07T14:20:01.668Z</time>
      </trkpt>
      <trkpt lat="43.059385" lon="-0.48785">
        <ele>917.0</ele>
        <time>2019-07-07T14:20:02.674Z</time>
      </trkpt>
      <trkpt lat="43.05936833" lon="-0.48790833">
        <ele>918.0</ele>
        <time>2019-07-07T14:20:03.705Z</time>
      </trkpt>
      <trkpt lat="43.05935333" lon="-0.48794333">
        <ele>919.0</ele>
        <time>2019-07-07T14:20:04.700Z</time>
      </trkpt>
      <trkpt lat="43.05935333" lon="-0.48794333">
        <ele>919.0</ele>
        <time>2019-07-07T14:20:05.702Z</time>
      </trkpt>
      <trkpt lat="43.05931167" lon="-0.48801833">
        <ele>919.0</ele>
        <time>2019-07-07T14:20:06.675Z</time>
      </trkpt>
      <trkpt lat="43.05931167" lon="-0.48801833">
        <ele>919.0</ele>
        <time>2019-07-07T14:20:07.689Z</time>
      </trkpt>
      <trkpt lat="43.059295" lon="-0.48807167">
        <ele>920.0</ele>
        <time>2019-07-07T14:20:08.685Z</time>
      </trkpt>
      <trkpt lat="43.059295" lon="-0.48807167">
        <ele>920.0</ele>
        <time>2019-07-07T14:20:09.683Z</time>
      </trkpt>
      <trkpt lat="43.05927167" lon="-0.48813">
        <ele>921.0</ele>
        <time>2019-07-07T14:20:10.703Z</time>
      </trkpt>
      <trkpt lat="43.05927167" lon="-0.48813">
        <ele>921.0</ele>
        <time>2019-07-07T14:20:11.669Z</time>
      </trkpt>
      <trkpt lat="43.05925167" lon="-0.48819667">
        <ele>921.0</ele>
        <time>2019-07-07T14:20:12.691Z</time>
      </trkpt>
      <trkpt lat="43.05925167" lon="-0.48819667">
        <ele>921.0</ele>
        <time>2019-07-07T14:20:13.700Z</time>
      </trkpt>
      <trkpt lat="43.059235" lon="-0.48824333">
        <ele>922.0</ele>
        <time>2019-07-07T14:20:14.693Z</time>
      </trkpt>
      <trkpt lat="43.05920167" lon="-0.488305">
        <ele>922.0</ele>
        <time>2019-07-07T14:20:15.704Z</time>
      </trkpt>
      <trkpt lat="43.05920167" lon="-0.488305">
        <ele>922.0</ele>
        <time>2019-07-07T14:20:16.682Z</time>
      </trkpt>
      <trkpt lat="43.05920167" lon="-0.488305">
        <ele>922.0</ele>
        <time>2019-07-07T14:20:17.690Z</time>
      </trkpt>
      <trkpt lat="43.05917333" lon="-0.488395">
        <ele>923.0</ele>
        <time>2019-07-07T14:20:18.696Z</time>
      </trkpt>
      <trkpt lat="43.05917333" lon="-0.488395">
        <ele>923.0</ele>
        <time>2019-07-07T14:20:19.704Z</time>
      </trkpt>
      <trkpt lat="43.05917333" lon="-0.488395">
        <ele>923.0</ele>
        <time>2019-07-07T14:20:20.670Z</time>
      </trkpt>
      <trkpt lat="43.05916333" lon="-0.488445">
        <ele>923.0</ele>
        <time>2019-07-07T14:20:21.674Z</time>
      </trkpt>
      <trkpt lat="43.05916" lon="-0.48847">
        <ele>924.0</ele>
        <time>2019-07-07T14:20:22.694Z</time>
      </trkpt>
      <trkpt lat="43.05916" lon="-0.48847">
        <ele>924.0</ele>
        <time>2019-07-07T14:20:23.702Z</time>
      </trkpt>
      <trkpt lat="43.05915" lon="-0.48852">
        <ele>924.0</ele>
        <time>2019-07-07T14:20:24.694Z</time>
      </trkpt>
      <trkpt lat="43.05914167" lon="-0.488545">
        <ele>924.0</ele>
        <time>2019-07-07T14:20:25.690Z</time>
      </trkpt>
      <trkpt lat="43.05914167" lon="-0.488545">
        <ele>924.0</ele>
        <time>2019-07-07T14:20:26.697Z</time>
      </trkpt>
      <trkpt lat="43.05913167" lon="-0.4886">
        <ele>925.0</ele>
        <time>2019-07-07T14:20:27.681Z</time>
      </trkpt>
      <trkpt lat="43.05911833" lon="-0.488625">
        <ele>925.0</ele>
        <time>2019-07-07T14:20:28.677Z</time>
      </trkpt>
      <trkpt lat="43.05911833" lon="-0.488625">
        <ele>925.0</ele>
        <time>2019-07-07T14:20:29.694Z</time>
      </trkpt>
      <trkpt lat="43.05906833" lon="-0.48869333">
        <ele>925.0</ele>
        <time>2019-07-07T14:20:30.698Z</time>
      </trkpt>
      <trkpt lat="43.05906" lon="-0.48871667">
        <ele>925.0</ele>
        <time>2019-07-07T14:20:31.701Z</time>
      </trkpt>
      <trkpt lat="43.05904833" lon="-0.48874667">
        <ele>926.0</ele>
        <time>2019-07-07T14:20:32.670Z</time>
      </trkpt>
      <trkpt lat="43.05904833" lon="-0.48874667">
        <ele>926.0</ele>
        <time>2019-07-07T14:20:33.676Z</time>
      </trkpt>
      <trkpt lat="43.05902833" lon="-0.4888">
        <ele>926.0</ele>
        <time>2019-07-07T14:20:34.699Z</time>
      </trkpt>
      <trkpt lat="43.05902833" lon="-0.4888">
        <ele>926.0</ele>
        <time>2019-07-07T14:20:35.703Z</time>
      </trkpt>
      <trkpt lat="43.05901333" lon="-0.48884833">
        <ele>927.0</ele>
        <time>2019-07-07T14:20:36.700Z</time>
      </trkpt>
      <trkpt lat="43.05901333" lon="-0.48884833">
        <ele>927.0</ele>
        <time>2019-07-07T14:20:37.666Z</time>
      </trkpt>
      <trkpt lat="43.05899167" lon="-0.48889667">
        <ele>928.0</ele>
        <time>2019-07-07T14:20:38.665Z</time>
      </trkpt>
      <trkpt lat="43.05899167" lon="-0.48889667">
        <ele>928.0</ele>
        <time>2019-07-07T14:20:39.672Z</time>
      </trkpt>
      <trkpt lat="43.05897667" lon="-0.48895833">
        <ele>928.0</ele>
        <time>2019-07-07T14:20:40.671Z</time>
      </trkpt>
      <trkpt lat="43.05897667" lon="-0.48895833">
        <ele>928.0</ele>
        <time>2019-07-07T14:20:41.677Z</time>
      </trkpt>
      <trkpt lat="43.05896333" lon="-0.48902667">
        <ele>929.0</ele>
        <time>2019-07-07T14:20:42.691Z</time>
      </trkpt>
      <trkpt lat="43.05896333" lon="-0.48905833">
        <ele>929.0</ele>
        <time>2019-07-07T14:20:43.697Z</time>
      </trkpt>
      <trkpt lat="43.05898667" lon="-0.489105">
        <ele>930.0</ele>
        <time>2019-07-07T14:20:44.709Z</time>
      </trkpt>
      <trkpt lat="43.05898667" lon="-0.489105">
        <ele>930.0</ele>
        <time>2019-07-07T14:20:45.680Z</time>
      </trkpt>
      <trkpt lat="43.05899667" lon="-0.48912333">
        <ele>930.0</ele>
        <time>2019-07-07T14:20:46.679Z</time>
      </trkpt>
      <trkpt lat="43.05900833" lon="-0.48914167">
        <ele>930.0</ele>
        <time>2019-07-07T14:20:47.683Z</time>
      </trkpt>
      <trkpt lat="43.05900833" lon="-0.48914167">
        <ele>930.0</ele>
        <time>2019-07-07T14:20:48.701Z</time>
      </trkpt>
      <trkpt lat="43.059035" lon="-0.48917167">
        <ele>931.0</ele>
        <time>2019-07-07T14:20:49.679Z</time>
      </trkpt>
      <trkpt lat="43.05905167" lon="-0.489185">
        <ele>931.0</ele>
        <time>2019-07-07T14:20:50.691Z</time>
      </trkpt>
      <trkpt lat="43.05908333" lon="-0.48919667">
        <ele>932.0</ele>
        <time>2019-07-07T14:20:51.698Z</time>
      </trkpt>
      <trkpt lat="43.05908333" lon="-0.48919667">
        <ele>932.0</ele>
        <time>2019-07-07T14:20:52.683Z</time>
      </trkpt>
      <trkpt lat="43.05908333" lon="-0.48919667">
        <ele>932.0</ele>
        <time>2019-07-07T14:20:53.702Z</time>
      </trkpt>
      <trkpt lat="43.05911667" lon="-0.48919">
        <ele>932.0</ele>
        <time>2019-07-07T14:20:54.676Z</time>
      </trkpt>
      <trkpt lat="43.05913833" lon="-0.489185">
        <ele>933.0</ele>
        <time>2019-07-07T14:20:55.696Z</time>
      </trkpt>
      <trkpt lat="43.059185" lon="-0.48918167">
        <ele>934.0</ele>
        <time>2019-07-07T14:20:56.715Z</time>
      </trkpt>
      <trkpt lat="43.059185" lon="-0.48918167">
        <ele>934.0</ele>
        <time>2019-07-07T14:20:57.680Z</time>
      </trkpt>
      <trkpt lat="43.059205" lon="-0.48918167">
        <ele>934.0</ele>
        <time>2019-07-07T14:20:58.683Z</time>
      </trkpt>
      <trkpt lat="43.059205" lon="-0.48918167">
        <ele>934.0</ele>
        <time>2019-07-07T14:20:59.696Z</time>
      </trkpt>
      <trkpt lat="43.05926" lon="-0.48916667">
        <ele>934.0</ele>
        <time>2019-07-07T14:21:00.729Z</time>
      </trkpt>
      <trkpt lat="43.05926" lon="-0.48916667">
        <ele>934.0</ele>
        <time>2019-07-07T14:21:01.697Z</time>
      </trkpt>
      <trkpt lat="43.059275" lon="-0.489155">
        <ele>935.0</ele>
        <time>2019-07-07T14:21:02.680Z</time>
      </trkpt>
      <trkpt lat="43.059275" lon="-0.489155">
        <ele>935.0</ele>
        <time>2019-07-07T14:21:03.665Z</time>
      </trkpt>
      <trkpt lat="43.05929667" lon="-0.48913667">
        <ele>935.0</ele>
        <time>2019-07-07T14:21:04.701Z</time>
      </trkpt>
      <trkpt lat="43.05929667" lon="-0.48913667">
        <ele>935.0</ele>
        <time>2019-07-07T14:21:05.703Z</time>
      </trkpt>
      <trkpt lat="43.05931167" lon="-0.48912333">
        <ele>936.0</ele>
        <time>2019-07-07T14:21:06.696Z</time>
      </trkpt>
      <trkpt lat="43.05933833" lon="-0.48910667">
        <ele>936.0</ele>
        <time>2019-07-07T14:21:07.713Z</time>
      </trkpt>
      <trkpt lat="43.05933833" lon="-0.48910667">
        <ele>936.0</ele>
        <time>2019-07-07T14:21:08.699Z</time>
      </trkpt>
      <trkpt lat="43.05933833" lon="-0.48910667">
        <ele>936.0</ele>
        <time>2019-07-07T14:21:09.665Z</time>
      </trkpt>
      <trkpt lat="43.05938" lon="-0.489095">
        <ele>938.0</ele>
        <time>2019-07-07T14:21:10.703Z</time>
      </trkpt>
      <trkpt lat="43.05939333" lon="-0.489085">
        <ele>938.0</ele>
        <time>2019-07-07T14:21:11.699Z</time>
      </trkpt>
      <trkpt lat="43.05939333" lon="-0.489085">
        <ele>938.0</ele>
        <time>2019-07-07T14:21:12.719Z</time>
      </trkpt>
      <trkpt lat="43.05943333" lon="-0.48906">
        <ele>939.0</ele>
        <time>2019-07-07T14:21:13.700Z</time>
      </trkpt>
      <trkpt lat="43.05943333" lon="-0.48906">
        <ele>939.0</ele>
        <time>2019-07-07T14:21:14.666Z</time>
      </trkpt>
      <trkpt lat="43.059485" lon="-0.48902667">
        <ele>940.0</ele>
        <time>2019-07-07T14:21:15.690Z</time>
      </trkpt>
      <trkpt lat="43.05950333" lon="-0.48900833">
        <ele>940.0</ele>
        <time>2019-07-07T14:21:16.665Z</time>
      </trkpt>
      <trkpt lat="43.05950333" lon="-0.48900833">
        <ele>940.0</ele>
        <time>2019-07-07T14:21:17.670Z</time>
      </trkpt>
      <trkpt lat="43.05953333" lon="-0.48896667">
        <ele>941.0</ele>
        <time>2019-07-07T14:21:18.670Z</time>
      </trkpt>
      <trkpt lat="43.05956167" lon="-0.48894">
        <ele>941.0</ele>
        <time>2019-07-07T14:21:19.703Z</time>
      </trkpt>
      <trkpt lat="43.05956167" lon="-0.48894">
        <ele>941.0</ele>
        <time>2019-07-07T14:21:20.687Z</time>
      </trkpt>
      <trkpt lat="43.05961833" lon="-0.48887333">
        <ele>943.0</ele>
        <time>2019-07-07T14:21:21.702Z</time>
      </trkpt>
      <trkpt lat="43.05961833" lon="-0.48887333">
        <ele>943.0</ele>
        <time>2019-07-07T14:21:22.667Z</time>
      </trkpt>
      <trkpt lat="43.05961833" lon="-0.48887333">
        <ele>943.0</ele>
        <time>2019-07-07T14:21:23.673Z</time>
      </trkpt>
      <trkpt lat="43.05968333" lon="-0.48881667">
        <ele>945.0</ele>
        <time>2019-07-07T14:21:24.702Z</time>
      </trkpt>
      <trkpt lat="43.05968333" lon="-0.48881667">
        <ele>945.0</ele>
        <time>2019-07-07T14:21:25.667Z</time>
      </trkpt>
      <trkpt lat="43.05968333" lon="-0.48881667">
        <ele>945.0</ele>
        <time>2019-07-07T14:21:26.673Z</time>
      </trkpt>
      <trkpt lat="43.05972333" lon="-0.48877">
        <ele>946.0</ele>
        <time>2019-07-07T14:21:27.698Z</time>
      </trkpt>
      <trkpt lat="43.05972333" lon="-0.48877">
        <ele>946.0</ele>
        <time>2019-07-07T14:21:28.665Z</time>
      </trkpt>
      <trkpt lat="43.05972333" lon="-0.48877">
        <ele>946.0</ele>
        <time>2019-07-07T14:21:29.671Z</time>
      </trkpt>
      <trkpt lat="43.05975667" lon="-0.48874167">
        <ele>947.0</ele>
        <time>2019-07-07T14:21:30.680Z</time>
      </trkpt>
      <trkpt lat="43.05975667" lon="-0.48874167">
        <ele>947.0</ele>
        <time>2019-07-07T14:21:31.701Z</time>
      </trkpt>
      <trkpt lat="43.05979333" lon="-0.48872833">
        <ele>948.0</ele>
        <time>2019-07-07T14:21:32.694Z</time>
      </trkpt>
      <trkpt lat="43.059815" lon="-0.48872167">
        <ele>948.0</ele>
        <time>2019-07-07T14:21:33.701Z</time>
      </trkpt>
      <trkpt lat="43.059815" lon="-0.48872167">
        <ele>948.0</ele>
        <time>2019-07-07T14:21:34.673Z</time>
      </trkpt>
      <trkpt lat="43.059815" lon="-0.48872167">
        <ele>948.0</ele>
        <time>2019-07-07T14:21:35.679Z</time>
      </trkpt>
      <trkpt lat="43.05986833" lon="-0.48869167">
        <ele>950.0</ele>
        <time>2019-07-07T14:21:36.698Z</time>
      </trkpt>
      <trkpt lat="43.05986833" lon="-0.48869167">
        <ele>950.0</ele>
        <time>2019-07-07T14:21:37.704Z</time>
      </trkpt>
      <trkpt lat="43.05986833" lon="-0.48869167">
        <ele>950.0</ele>
        <time>2019-07-07T14:21:38.670Z</time>
      </trkpt>
      <trkpt lat="43.05991333" lon="-0.48866667">
        <ele>950.0</ele>
        <time>2019-07-07T14:21:39.691Z</time>
      </trkpt>
      <trkpt lat="43.05993333" lon="-0.48865167">
        <ele>950.0</ele>
        <time>2019-07-07T14:21:40.696Z</time>
      </trkpt>
      <trkpt lat="43.05997333" lon="-0.48862167">
        <ele>951.0</ele>
        <time>2019-07-07T14:21:41.705Z</time>
      </trkpt>
      <trkpt lat="43.05997333" lon="-0.48862167">
        <ele>951.0</ele>
        <time>2019-07-07T14:21:42.697Z</time>
      </trkpt>
      <trkpt lat="43.05999833" lon="-0.48860333">
        <ele>951.0</ele>
        <time>2019-07-07T14:21:43.700Z</time>
      </trkpt>
      <trkpt lat="43.05999833" lon="-0.48860333">
        <ele>951.0</ele>
        <time>2019-07-07T14:21:44.666Z</time>
      </trkpt>
      <trkpt lat="43.060045" lon="-0.48857333">
        <ele>951.0</ele>
        <time>2019-07-07T14:21:45.670Z</time>
      </trkpt>
      <trkpt lat="43.060045" lon="-0.48857333">
        <ele>951.0</ele>
        <time>2019-07-07T14:21:46.680Z</time>
      </trkpt>
      <trkpt lat="43.06008167" lon="-0.48854167">
        <ele>951.0</ele>
        <time>2019-07-07T14:21:47.698Z</time>
      </trkpt>
      <trkpt lat="43.06008167" lon="-0.48854167">
        <ele>951.0</ele>
        <time>2019-07-07T14:21:48.666Z</time>
      </trkpt>
      <trkpt lat="43.06014333" lon="-0.48848667">
        <ele>951.0</ele>
        <time>2019-07-07T14:21:49.700Z</time>
      </trkpt>
      <trkpt lat="43.06014333" lon="-0.48848667">
        <ele>951.0</ele>
        <time>2019-07-07T14:21:50.666Z</time>
      </trkpt>
      <trkpt lat="43.06014333" lon="-0.48848667">
        <ele>951.0</ele>
        <time>2019-07-07T14:21:51.672Z</time>
      </trkpt>
      <trkpt lat="43.060175" lon="-0.48844167">
        <ele>952.0</ele>
        <time>2019-07-07T14:21:52.680Z</time>
      </trkpt>
      <trkpt lat="43.060175" lon="-0.48844167">
        <ele>952.0</ele>
        <time>2019-07-07T14:21:53.696Z</time>
      </trkpt>
      <trkpt lat="43.06020167" lon="-0.4884">
        <ele>952.0</ele>
        <time>2019-07-07T14:21:54.668Z</time>
      </trkpt>
      <trkpt lat="43.060225" lon="-0.48835833">
        <ele>952.0</ele>
        <time>2019-07-07T14:21:55.700Z</time>
      </trkpt>
      <trkpt lat="43.060225" lon="-0.48835833">
        <ele>952.0</ele>
        <time>2019-07-07T14:21:56.666Z</time>
      </trkpt>
      <trkpt lat="43.060225" lon="-0.48835833">
        <ele>952.0</ele>
        <time>2019-07-07T14:21:57.672Z</time>
      </trkpt>
      <trkpt lat="43.06025" lon="-0.488315">
        <ele>953.0</ele>
        <time>2019-07-07T14:21:58.670Z</time>
      </trkpt>
      <trkpt lat="43.06025" lon="-0.488315">
        <ele>953.0</ele>
        <time>2019-07-07T14:21:59.677Z</time>
      </trkpt>
      <trkpt lat="43.06027667" lon="-0.488275">
        <ele>953.0</ele>
        <time>2019-07-07T14:22:00.676Z</time>
      </trkpt>
      <trkpt lat="43.06029333" lon="-0.48825833">
        <ele>954.0</ele>
        <time>2019-07-07T14:22:01.695Z</time>
      </trkpt>
      <trkpt lat="43.06030667" lon="-0.488235">
        <ele>954.0</ele>
        <time>2019-07-07T14:22:02.703Z</time>
      </trkpt>
      <trkpt lat="43.06030667" lon="-0.488235">
        <ele>954.0</ele>
        <time>2019-07-07T14:22:03.668Z</time>
      </trkpt>
      <trkpt lat="43.06034" lon="-0.48822833">
        <ele>954.0</ele>
        <time>2019-07-07T14:22:04.667Z</time>
      </trkpt>
      <trkpt lat="43.06034" lon="-0.48822833">
        <ele>954.0</ele>
        <time>2019-07-07T14:22:05.673Z</time>
      </trkpt>
      <trkpt lat="43.06037167" lon="-0.48823667">
        <ele>955.0</ele>
        <time>2019-07-07T14:22:06.701Z</time>
      </trkpt>
      <trkpt lat="43.06037167" lon="-0.48823667">
        <ele>955.0</ele>
        <time>2019-07-07T14:22:07.667Z</time>
      </trkpt>
      <trkpt lat="43.06042833" lon="-0.48829667">
        <ele>956.0</ele>
        <time>2019-07-07T14:22:08.704Z</time>
      </trkpt>
      <trkpt lat="43.06042833" lon="-0.48829667">
        <ele>956.0</ele>
        <time>2019-07-07T14:22:09.670Z</time>
      </trkpt>
      <trkpt lat="43.06044333" lon="-0.48832333">
        <ele>956.0</ele>
        <time>2019-07-07T14:22:10.666Z</time>
      </trkpt>
      <trkpt lat="43.06044333" lon="-0.48832333">
        <ele>956.0</ele>
        <time>2019-07-07T14:22:11.672Z</time>
      </trkpt>
      <trkpt lat="43.06045" lon="-0.48837333">
        <ele>957.0</ele>
        <time>2019-07-07T14:22:12.683Z</time>
      </trkpt>
      <trkpt lat="43.06045" lon="-0.48837333">
        <ele>957.0</ele>
        <time>2019-07-07T14:22:13.701Z</time>
      </trkpt>
      <trkpt lat="43.06044167" lon="-0.48841333">
        <ele>957.0</ele>
        <time>2019-07-07T14:22:14.697Z</time>
      </trkpt>
      <trkpt lat="43.06043333" lon="-0.48843">
        <ele>957.0</ele>
        <time>2019-07-07T14:22:15.670Z</time>
      </trkpt>
      <trkpt lat="43.06042167" lon="-0.48844833">
        <ele>957.0</ele>
        <time>2019-07-07T14:22:16.676Z</time>
      </trkpt>
      <trkpt lat="43.06042167" lon="-0.48844833">
        <ele>957.0</ele>
        <time>2019-07-07T14:22:17.683Z</time>
      </trkpt>
      <trkpt lat="43.060395" lon="-0.48848">
        <ele>957.0</ele>
        <time>2019-07-07T14:22:18.694Z</time>
      </trkpt>
      <trkpt lat="43.060395" lon="-0.48848">
        <ele>957.0</ele>
        <time>2019-07-07T14:22:19.700Z</time>
      </trkpt>
      <trkpt lat="43.06037667" lon="-0.4885">
        <ele>958.0</ele>
        <time>2019-07-07T14:22:20.697Z</time>
      </trkpt>
      <trkpt lat="43.06037667" lon="-0.4885">
        <ele>958.0</ele>
        <time>2019-07-07T14:22:21.691Z</time>
      </trkpt>
      <trkpt lat="43.060355" lon="-0.48852">
        <ele>958.0</ele>
        <time>2019-07-07T14:22:22.691Z</time>
      </trkpt>
      <trkpt lat="43.060355" lon="-0.48852">
        <ele>958.0</ele>
        <time>2019-07-07T14:22:23.698Z</time>
      </trkpt>
      <trkpt lat="43.06033" lon="-0.48854333">
        <ele>958.0</ele>
        <time>2019-07-07T14:22:24.698Z</time>
      </trkpt>
      <trkpt lat="43.06031667" lon="-0.48855667">
        <ele>958.0</ele>
        <time>2019-07-07T14:22:25.680Z</time>
      </trkpt>
      <trkpt lat="43.060295" lon="-0.48858167">
        <ele>958.0</ele>
        <time>2019-07-07T14:22:26.709Z</time>
      </trkpt>
      <trkpt lat="43.060295" lon="-0.48858167">
        <ele>958.0</ele>
        <time>2019-07-07T14:22:27.676Z</time>
      </trkpt>
      <trkpt lat="43.06028333" lon="-0.488595">
        <ele>959.0</ele>
        <time>2019-07-07T14:22:28.680Z</time>
      </trkpt>
      <trkpt lat="43.06026" lon="-0.48864167">
        <ele>959.0</ele>
        <time>2019-07-07T14:22:29.703Z</time>
      </trkpt>
      <trkpt lat="43.06026" lon="-0.48864167">
        <ele>959.0</ele>
        <time>2019-07-07T14:22:30.673Z</time>
      </trkpt>
      <trkpt lat="43.06025" lon="-0.48866833">
        <ele>959.0</ele>
        <time>2019-07-07T14:22:31.667Z</time>
      </trkpt>
      <trkpt lat="43.06025" lon="-0.48866833">
        <ele>959.0</ele>
        <time>2019-07-07T14:22:32.673Z</time>
      </trkpt>
      <trkpt lat="43.06022667" lon="-0.48872833">
        <ele>959.0</ele>
        <time>2019-07-07T14:22:33.676Z</time>
      </trkpt>
      <trkpt lat="43.06021167" lon="-0.48874833">
        <ele>959.0</ele>
        <time>2019-07-07T14:22:34.679Z</time>
      </trkpt>
      <trkpt lat="43.06021167" lon="-0.48874833">
        <ele>959.0</ele>
        <time>2019-07-07T14:22:35.690Z</time>
      </trkpt>
      <trkpt lat="43.06017833" lon="-0.48881">
        <ele>959.0</ele>
        <time>2019-07-07T14:22:36.699Z</time>
      </trkpt>
      <trkpt lat="43.06017833" lon="-0.48881">
        <ele>959.0</ele>
        <time>2019-07-07T14:22:37.694Z</time>
      </trkpt>
      <trkpt lat="43.06017833" lon="-0.48881">
        <ele>959.0</ele>
        <time>2019-07-07T14:22:38.700Z</time>
      </trkpt>
      <trkpt lat="43.06016" lon="-0.48886833">
        <ele>959.0</ele>
        <time>2019-07-07T14:22:39.681Z</time>
      </trkpt>
      <trkpt lat="43.06015833" lon="-0.48889333">
        <ele>960.0</ele>
        <time>2019-07-07T14:22:40.679Z</time>
      </trkpt>
      <trkpt lat="43.06015833" lon="-0.48889333">
        <ele>960.0</ele>
        <time>2019-07-07T14:22:41.695Z</time>
      </trkpt>
      <trkpt lat="43.06015" lon="-0.48894667">
        <ele>960.0</ele>
        <time>2019-07-07T14:22:42.670Z</time>
      </trkpt>
      <trkpt lat="43.06015167" lon="-0.48896833">
        <ele>960.0</ele>
        <time>2019-07-07T14:22:43.671Z</time>
      </trkpt>
      <trkpt lat="43.06015167" lon="-0.48896833">
        <ele>960.0</ele>
        <time>2019-07-07T14:22:44.677Z</time>
      </trkpt>
      <trkpt lat="43.06013167" lon="-0.48903833">
        <ele>961.0</ele>
        <time>2019-07-07T14:22:45.704Z</time>
      </trkpt>
      <trkpt lat="43.06013167" lon="-0.48903833">
        <ele>961.0</ele>
        <time>2019-07-07T14:22:46.690Z</time>
      </trkpt>
      <trkpt lat="43.06011833" lon="-0.48907">
        <ele>962.0</ele>
        <time>2019-07-07T14:22:47.702Z</time>
      </trkpt>
      <trkpt lat="43.06011833" lon="-0.48907">
        <ele>962.0</ele>
        <time>2019-07-07T14:22:48.700Z</time>
      </trkpt>
      <trkpt lat="43.06011833" lon="-0.48907">
        <ele>962.0</ele>
        <time>2019-07-07T14:22:49.666Z</time>
      </trkpt>
      <trkpt lat="43.060105" lon="-0.48911167">
        <ele>962.0</ele>
        <time>2019-07-07T14:22:50.667Z</time>
      </trkpt>
      <trkpt lat="43.060105" lon="-0.48911167">
        <ele>962.0</ele>
        <time>2019-07-07T14:22:51.673Z</time>
      </trkpt>
      <trkpt lat="43.06009667" lon="-0.48914833">
        <ele>963.0</ele>
        <time>2019-07-07T14:22:52.668Z</time>
      </trkpt>
      <trkpt lat="43.06009667" lon="-0.48914833">
        <ele>963.0</ele>
        <time>2019-07-07T14:22:53.674Z</time>
      </trkpt>
      <trkpt lat="43.06007667" lon="-0.48919">
        <ele>963.0</ele>
        <time>2019-07-07T14:22:54.670Z</time>
      </trkpt>
      <trkpt lat="43.06007667" lon="-0.48919">
        <ele>963.0</ele>
        <time>2019-07-07T14:22:55.676Z</time>
      </trkpt>
      <trkpt lat="43.06004667" lon="-0.48923333">
        <ele>964.0</ele>
        <time>2019-07-07T14:22:56.666Z</time>
      </trkpt>
      <trkpt lat="43.06004" lon="-0.48925333">
        <ele>964.0</ele>
        <time>2019-07-07T14:22:57.667Z</time>
      </trkpt>
      <trkpt lat="43.06002667" lon="-0.48927333">
        <ele>965.0</ele>
        <time>2019-07-07T14:22:58.680Z</time>
      </trkpt>
      <trkpt lat="43.06002667" lon="-0.48927333">
        <ele>965.0</ele>
        <time>2019-07-07T14:22:59.688Z</time>
      </trkpt>
      <trkpt lat="43.06000333" lon="-0.48930833">
        <ele>965.0</ele>
        <time>2019-07-07T14:23:00.700Z</time>
      </trkpt>
      <trkpt lat="43.06000333" lon="-0.48930833">
        <ele>965.0</ele>
        <time>2019-07-07T14:23:01.666Z</time>
      </trkpt>
      <trkpt lat="43.05998167" lon="-0.48934167">
        <ele>966.0</ele>
        <time>2019-07-07T14:23:02.665Z</time>
      </trkpt>
      <trkpt lat="43.05998167" lon="-0.48934167">
        <ele>966.0</ele>
        <time>2019-07-07T14:23:03.671Z</time>
      </trkpt>
      <trkpt lat="43.059975" lon="-0.48942333">
        <ele>967.0</ele>
        <time>2019-07-07T14:23:04.670Z</time>
      </trkpt>
      <trkpt lat="43.059975" lon="-0.48942333">
        <ele>967.0</ele>
        <time>2019-07-07T14:23:05.676Z</time>
      </trkpt>
      <trkpt lat="43.059955" lon="-0.48948167">
        <ele>967.0</ele>
        <time>2019-07-07T14:23:06.677Z</time>
      </trkpt>
      <trkpt lat="43.059945" lon="-0.48950333">
        <ele>968.0</ele>
        <time>2019-07-07T14:23:07.677Z</time>
      </trkpt>
      <trkpt lat="43.059945" lon="-0.48950333">
        <ele>968.0</ele>
        <time>2019-07-07T14:23:08.685Z</time>
      </trkpt>
      <trkpt lat="43.059925" lon="-0.489535">
        <ele>968.0</ele>
        <time>2019-07-07T14:23:09.695Z</time>
      </trkpt>
      <trkpt lat="43.05991333" lon="-0.48955333">
        <ele>969.0</ele>
        <time>2019-07-07T14:23:10.700Z</time>
      </trkpt>
      <trkpt lat="43.05991333" lon="-0.48955333">
        <ele>969.0</ele>
        <time>2019-07-07T14:23:11.665Z</time>
      </trkpt>
      <trkpt lat="43.05989333" lon="-0.489595">
        <ele>969.0</ele>
        <time>2019-07-07T14:23:12.699Z</time>
      </trkpt>
      <trkpt lat="43.05989333" lon="-0.489595">
        <ele>969.0</ele>
        <time>2019-07-07T14:23:13.665Z</time>
      </trkpt>
      <trkpt lat="43.05987833" lon="-0.48964167">
        <ele>970.0</ele>
        <time>2019-07-07T14:23:14.694Z</time>
      </trkpt>
      <trkpt lat="43.05985167" lon="-0.48969667">
        <ele>970.0</ele>
        <time>2019-07-07T14:23:15.723Z</time>
      </trkpt>
      <trkpt lat="43.05985167" lon="-0.48969667">
        <ele>970.0</ele>
        <time>2019-07-07T14:23:16.696Z</time>
      </trkpt>
      <trkpt lat="43.059825" lon="-0.48974">
        <ele>971.0</ele>
        <time>2019-07-07T14:23:17.703Z</time>
      </trkpt>
      <trkpt lat="43.059825" lon="-0.48974">
        <ele>971.0</ele>
        <time>2019-07-07T14:23:18.680Z</time>
      </trkpt>
      <trkpt lat="43.059825" lon="-0.48974">
        <ele>971.0</ele>
        <time>2019-07-07T14:23:19.699Z</time>
      </trkpt>
      <trkpt lat="43.059805" lon="-0.48977">
        <ele>971.0</ele>
        <time>2019-07-07T14:23:20.687Z</time>
      </trkpt>
      <trkpt lat="43.0598" lon="-0.48978167">
        <ele>972.0</ele>
        <time>2019-07-07T14:23:21.670Z</time>
      </trkpt>
      <trkpt lat="43.0598" lon="-0.48978167">
        <ele>972.0</ele>
        <time>2019-07-07T14:23:22.676Z</time>
      </trkpt>
      <trkpt lat="43.05979" lon="-0.48982167">
        <ele>972.0</ele>
        <time>2019-07-07T14:23:23.669Z</time>
      </trkpt>
      <trkpt lat="43.05979" lon="-0.48982167">
        <ele>972.0</ele>
        <time>2019-07-07T14:23:24.675Z</time>
      </trkpt>
      <trkpt lat="43.05976167" lon="-0.48987333">
        <ele>973.0</ele>
        <time>2019-07-07T14:23:25.677Z</time>
      </trkpt>
      <trkpt lat="43.05976167" lon="-0.48987333">
        <ele>973.0</ele>
        <time>2019-07-07T14:23:26.684Z</time>
      </trkpt>
      <trkpt lat="43.05974333" lon="-0.48991833">
        <ele>973.0</ele>
        <time>2019-07-07T14:23:27.667Z</time>
      </trkpt>
      <trkpt lat="43.05973167" lon="-0.48993667">
        <ele>974.0</ele>
        <time>2019-07-07T14:23:28.697Z</time>
      </trkpt>
      <trkpt lat="43.05970667" lon="-0.48997167">
        <ele>974.0</ele>
        <time>2019-07-07T14:23:29.709Z</time>
      </trkpt>
      <trkpt lat="43.059705" lon="-0.489995">
        <ele>975.0</ele>
        <time>2019-07-07T14:23:30.709Z</time>
      </trkpt>
      <trkpt lat="43.059705" lon="-0.489995">
        <ele>975.0</ele>
        <time>2019-07-07T14:23:31.700Z</time>
      </trkpt>
      <trkpt lat="43.059705" lon="-0.489995">
        <ele>975.0</ele>
        <time>2019-07-07T14:23:32.666Z</time>
      </trkpt>
      <trkpt lat="43.05968667" lon="-0.49005">
        <ele>976.0</ele>
        <time>2019-07-07T14:23:33.694Z</time>
      </trkpt>
      <trkpt lat="43.05966667" lon="-0.490075">
        <ele>976.0</ele>
        <time>2019-07-07T14:23:34.666Z</time>
      </trkpt>
      <trkpt lat="43.05966667" lon="-0.490075">
        <ele>976.0</ele>
        <time>2019-07-07T14:23:35.672Z</time>
      </trkpt>
      <trkpt lat="43.05966" lon="-0.49008333">
        <ele>976.0</ele>
        <time>2019-07-07T14:23:36.692Z</time>
      </trkpt>
      <trkpt lat="43.05966" lon="-0.49008333">
        <ele>976.0</ele>
        <time>2019-07-07T14:23:37.700Z</time>
      </trkpt>
      <trkpt lat="43.05965333" lon="-0.49011">
        <ele>977.0</ele>
        <time>2019-07-07T14:23:38.670Z</time>
      </trkpt>
      <trkpt lat="43.05965333" lon="-0.49011">
        <ele>977.0</ele>
        <time>2019-07-07T14:23:39.676Z</time>
      </trkpt>
      <trkpt lat="43.059645" lon="-0.49014833">
        <ele>978.0</ele>
        <time>2019-07-07T14:23:40.680Z</time>
      </trkpt>
      <trkpt lat="43.05962333" lon="-0.490195">
        <ele>978.0</ele>
        <time>2019-07-07T14:23:41.700Z</time>
      </trkpt>
      <trkpt lat="43.05962333" lon="-0.490195">
        <ele>978.0</ele>
        <time>2019-07-07T14:23:42.690Z</time>
      </trkpt>
      <trkpt lat="43.05962667" lon="-0.49022">
        <ele>979.0</ele>
        <time>2019-07-07T14:23:43.709Z</time>
      </trkpt>
      <trkpt lat="43.05962667" lon="-0.49022">
        <ele>979.0</ele>
        <time>2019-07-07T14:23:44.668Z</time>
      </trkpt>
      <trkpt lat="43.05962333" lon="-0.49023">
        <ele>979.0</ele>
        <time>2019-07-07T14:23:45.685Z</time>
      </trkpt>
      <trkpt lat="43.05962333" lon="-0.49023">
        <ele>979.0</ele>
        <time>2019-07-07T14:23:46.688Z</time>
      </trkpt>
      <trkpt lat="43.05962" lon="-0.49026">
        <ele>980.0</ele>
        <time>2019-07-07T14:23:47.700Z</time>
      </trkpt>
      <trkpt lat="43.05958833" lon="-0.49031833">
        <ele>980.0</ele>
        <time>2019-07-07T14:23:48.718Z</time>
      </trkpt>
      <trkpt lat="43.05958833" lon="-0.49031833">
        <ele>980.0</ele>
        <time>2019-07-07T14:23:49.692Z</time>
      </trkpt>
      <trkpt lat="43.05958833" lon="-0.49031833">
        <ele>980.0</ele>
        <time>2019-07-07T14:23:50.699Z</time>
      </trkpt>
      <trkpt lat="43.05954333" lon="-0.490375">
        <ele>981.0</ele>
        <time>2019-07-07T14:23:51.701Z</time>
      </trkpt>
      <trkpt lat="43.05954333" lon="-0.490375">
        <ele>981.0</ele>
        <time>2019-07-07T14:23:52.667Z</time>
      </trkpt>
      <trkpt lat="43.05949667" lon="-0.49043833">
        <ele>982.0</ele>
        <time>2019-07-07T14:23:53.680Z</time>
      </trkpt>
      <trkpt lat="43.059465" lon="-0.490515">
        <ele>983.0</ele>
        <time>2019-07-07T14:23:54.705Z</time>
      </trkpt>
      <trkpt lat="43.059465" lon="-0.490515">
        <ele>983.0</ele>
        <time>2019-07-07T14:23:55.677Z</time>
      </trkpt>
      <trkpt lat="43.05943833" lon="-0.49055">
        <ele>983.0</ele>
        <time>2019-07-07T14:23:56.669Z</time>
      </trkpt>
      <trkpt lat="43.05943833" lon="-0.49055">
        <ele>983.0</ele>
        <time>2019-07-07T14:23:57.675Z</time>
      </trkpt>
      <trkpt lat="43.05941333" lon="-0.49062333">
        <ele>984.0</ele>
        <time>2019-07-07T14:23:58.674Z</time>
      </trkpt>
      <trkpt lat="43.05941333" lon="-0.49062333">
        <ele>984.0</ele>
        <time>2019-07-07T14:23:59.679Z</time>
      </trkpt>
      <trkpt lat="43.05938333" lon="-0.49068">
        <ele>985.0</ele>
        <time>2019-07-07T14:24:00.680Z</time>
      </trkpt>
      <trkpt lat="43.05936833" lon="-0.490705">
        <ele>985.0</ele>
        <time>2019-07-07T14:24:01.690Z</time>
      </trkpt>
      <trkpt lat="43.05936833" lon="-0.490705">
        <ele>985.0</ele>
        <time>2019-07-07T14:24:02.719Z</time>
      </trkpt>
      <trkpt lat="43.05933" lon="-0.49075333">
        <ele>986.0</ele>
        <time>2019-07-07T14:24:03.702Z</time>
      </trkpt>
      <trkpt lat="43.05933" lon="-0.49075333">
        <ele>986.0</ele>
        <time>2019-07-07T14:24:04.668Z</time>
      </trkpt>
      <trkpt lat="43.059285" lon="-0.49080667">
        <ele>987.0</ele>
        <time>2019-07-07T14:24:05.700Z</time>
      </trkpt>
      <trkpt lat="43.059285" lon="-0.49080667">
        <ele>987.0</ele>
        <time>2019-07-07T14:24:06.666Z</time>
      </trkpt>
      <trkpt lat="43.059245" lon="-0.49085333">
        <ele>987.0</ele>
        <time>2019-07-07T14:24:07.703Z</time>
      </trkpt>
      <trkpt lat="43.059245" lon="-0.49085333">
        <ele>987.0</ele>
        <time>2019-07-07T14:24:08.669Z</time>
      </trkpt>
      <trkpt lat="43.05921167" lon="-0.49091333">
        <ele>988.0</ele>
        <time>2019-07-07T14:24:09.680Z</time>
      </trkpt>
      <trkpt lat="43.059195" lon="-0.49094">
        <ele>988.0</ele>
        <time>2019-07-07T14:24:10.669Z</time>
      </trkpt>
      <trkpt lat="43.059195" lon="-0.49094">
        <ele>988.0</ele>
        <time>2019-07-07T14:24:11.674Z</time>
      </trkpt>
      <trkpt lat="43.05915667" lon="-0.49100667">
        <ele>988.0</ele>
        <time>2019-07-07T14:24:12.665Z</time>
      </trkpt>
      <trkpt lat="43.05915667" lon="-0.49100667">
        <ele>988.0</ele>
        <time>2019-07-07T14:24:13.671Z</time>
      </trkpt>
      <trkpt lat="43.05913167" lon="-0.49108">
        <ele>989.0</ele>
        <time>2019-07-07T14:24:14.667Z</time>
      </trkpt>
      <trkpt lat="43.05912167" lon="-0.49111667">
        <ele>989.0</ele>
        <time>2019-07-07T14:24:15.682Z</time>
      </trkpt>
      <trkpt lat="43.05911167" lon="-0.49115167">
        <ele>989.0</ele>
        <time>2019-07-07T14:24:16.695Z</time>
      </trkpt>
      <trkpt lat="43.05911167" lon="-0.49115167">
        <ele>989.0</ele>
        <time>2019-07-07T14:24:17.701Z</time>
      </trkpt>
      <trkpt lat="43.05908667" lon="-0.49122">
        <ele>990.0</ele>
        <time>2019-07-07T14:24:18.673Z</time>
      </trkpt>
      <trkpt lat="43.059085" lon="-0.491255">
        <ele>990.0</ele>
        <time>2019-07-07T14:24:19.682Z</time>
      </trkpt>
      <trkpt lat="43.059085" lon="-0.491255">
        <ele>990.0</ele>
        <time>2019-07-07T14:24:20.689Z</time>
      </trkpt>
      <trkpt lat="43.059075" lon="-0.49131833">
        <ele>991.0</ele>
        <time>2019-07-07T14:24:21.700Z</time>
      </trkpt>
      <trkpt lat="43.059075" lon="-0.49131833">
        <ele>991.0</ele>
        <time>2019-07-07T14:24:22.666Z</time>
      </trkpt>
      <trkpt lat="43.05907167" lon="-0.49138">
        <ele>991.0</ele>
        <time>2019-07-07T14:24:23.700Z</time>
      </trkpt>
      <trkpt lat="43.05907167" lon="-0.49138">
        <ele>991.0</ele>
        <time>2019-07-07T14:24:24.666Z</time>
      </trkpt>
      <trkpt lat="43.059065" lon="-0.49144167">
        <ele>992.0</ele>
        <time>2019-07-07T14:24:25.700Z</time>
      </trkpt>
      <trkpt lat="43.059065" lon="-0.49144167">
        <ele>992.0</ele>
        <time>2019-07-07T14:24:26.666Z</time>
      </trkpt>
      <trkpt lat="43.05904167" lon="-0.49154667">
        <ele>992.0</ele>
        <time>2019-07-07T14:24:27.676Z</time>
      </trkpt>
      <trkpt lat="43.05901667" lon="-0.491585">
        <ele>992.0</ele>
        <time>2019-07-07T14:24:28.692Z</time>
      </trkpt>
      <trkpt lat="43.05901667" lon="-0.491585">
        <ele>992.0</ele>
        <time>2019-07-07T14:24:29.709Z</time>
      </trkpt>
      <trkpt lat="43.05900333" lon="-0.491675">
        <ele>993.0</ele>
        <time>2019-07-07T14:24:30.681Z</time>
      </trkpt>
      <trkpt lat="43.05899833" lon="-0.49171333">
        <ele>993.0</ele>
        <time>2019-07-07T14:24:31.693Z</time>
      </trkpt>
      <trkpt lat="43.05899833" lon="-0.49171333">
        <ele>993.0</ele>
        <time>2019-07-07T14:24:32.701Z</time>
      </trkpt>
      <trkpt lat="43.058975" lon="-0.49178667">
        <ele>993.0</ele>
        <time>2019-07-07T14:24:33.676Z</time>
      </trkpt>
      <trkpt lat="43.058965" lon="-0.49181833">
        <ele>994.0</ele>
        <time>2019-07-07T14:24:34.680Z</time>
      </trkpt>
      <trkpt lat="43.058965" lon="-0.49181833">
        <ele>994.0</ele>
        <time>2019-07-07T14:24:35.694Z</time>
      </trkpt>
      <trkpt lat="43.05894833" lon="-0.49188833">
        <ele>994.0</ele>
        <time>2019-07-07T14:24:36.696Z</time>
      </trkpt>
      <trkpt lat="43.05892333" lon="-0.49193167">
        <ele>995.0</ele>
        <time>2019-07-07T14:24:37.665Z</time>
      </trkpt>
      <trkpt lat="43.05892333" lon="-0.49193167">
        <ele>995.0</ele>
        <time>2019-07-07T14:24:38.671Z</time>
      </trkpt>
      <trkpt lat="43.05888167" lon="-0.49201333">
        <ele>996.0</ele>
        <time>2019-07-07T14:24:39.674Z</time>
      </trkpt>
      <trkpt lat="43.05886667" lon="-0.49204667">
        <ele>996.0</ele>
        <time>2019-07-07T14:24:40.694Z</time>
      </trkpt>
      <trkpt lat="43.05886667" lon="-0.49204667">
        <ele>996.0</ele>
        <time>2019-07-07T14:24:41.703Z</time>
      </trkpt>
      <trkpt lat="43.058825" lon="-0.49211167">
        <ele>997.0</ele>
        <time>2019-07-07T14:24:42.699Z</time>
      </trkpt>
      <trkpt lat="43.05880667" lon="-0.49214167">
        <ele>997.0</ele>
        <time>2019-07-07T14:24:43.665Z</time>
      </trkpt>
      <trkpt lat="43.05880667" lon="-0.49214167">
        <ele>997.0</ele>
        <time>2019-07-07T14:24:44.671Z</time>
      </trkpt>
      <trkpt lat="43.05877167" lon="-0.49220833">
        <ele>998.0</ele>
        <time>2019-07-07T14:24:45.670Z</time>
      </trkpt>
      <trkpt lat="43.05877167" lon="-0.49220833">
        <ele>998.0</ele>
        <time>2019-07-07T14:24:46.678Z</time>
      </trkpt>
      <trkpt lat="43.058725" lon="-0.49228167">
        <ele>998.0</ele>
        <time>2019-07-07T14:24:47.700Z</time>
      </trkpt>
      <trkpt lat="43.058725" lon="-0.49228167">
        <ele>998.0</ele>
        <time>2019-07-07T14:24:48.666Z</time>
      </trkpt>
      <trkpt lat="43.05869333" lon="-0.49234667">
        <ele>998.0</ele>
        <time>2019-07-07T14:24:49.670Z</time>
      </trkpt>
      <trkpt lat="43.05867333" lon="-0.49237667">
        <ele>999.0</ele>
        <time>2019-07-07T14:24:50.678Z</time>
      </trkpt>
      <trkpt lat="43.05867333" lon="-0.49237667">
        <ele>999.0</ele>
        <time>2019-07-07T14:24:51.685Z</time>
      </trkpt>
      <trkpt lat="43.05863333" lon="-0.49243667">
        <ele>999.0</ele>
        <time>2019-07-07T14:24:52.683Z</time>
      </trkpt>
      <trkpt lat="43.05863333" lon="-0.49243667">
        <ele>999.0</ele>
        <time>2019-07-07T14:24:53.696Z</time>
      </trkpt>
      <trkpt lat="43.05858667" lon="-0.49249833">
        <ele>999.0</ele>
        <time>2019-07-07T14:24:54.670Z</time>
      </trkpt>
      <trkpt lat="43.058565" lon="-0.49253">
        <ele>999.0</ele>
        <time>2019-07-07T14:24:55.676Z</time>
      </trkpt>
      <trkpt lat="43.058565" lon="-0.49253">
        <ele>999.0</ele>
        <time>2019-07-07T14:24:56.681Z</time>
      </trkpt>
      <trkpt lat="43.05850667" lon="-0.49263833">
        <ele>999.0</ele>
        <time>2019-07-07T14:24:57.694Z</time>
      </trkpt>
      <trkpt lat="43.05850667" lon="-0.49263833">
        <ele>999.0</ele>
        <time>2019-07-07T14:24:58.667Z</time>
      </trkpt>
      <trkpt lat="43.05850667" lon="-0.49263833">
        <ele>999.0</ele>
        <time>2019-07-07T14:24:59.673Z</time>
      </trkpt>
      <trkpt lat="43.058455" lon="-0.49270333">
        <ele>999.0</ele>
        <time>2019-07-07T14:25:00.700Z</time>
      </trkpt>
      <trkpt lat="43.058455" lon="-0.49270333">
        <ele>999.0</ele>
        <time>2019-07-07T14:25:01.665Z</time>
      </trkpt>
      <trkpt lat="43.05841167" lon="-0.49276667">
        <ele>999.0</ele>
        <time>2019-07-07T14:25:02.700Z</time>
      </trkpt>
      <trkpt lat="43.05841167" lon="-0.49276667">
        <ele>999.0</ele>
        <time>2019-07-07T14:25:03.666Z</time>
      </trkpt>
      <trkpt lat="43.0584" lon="-0.49282167">
        <ele>998.0</ele>
        <time>2019-07-07T14:25:04.690Z</time>
      </trkpt>
      <trkpt lat="43.0584" lon="-0.49282167">
        <ele>998.0</ele>
        <time>2019-07-07T14:25:05.702Z</time>
      </trkpt>
      <trkpt lat="43.05839" lon="-0.49288833">
        <ele>998.0</ele>
        <time>2019-07-07T14:25:06.680Z</time>
      </trkpt>
      <trkpt lat="43.05839" lon="-0.49288833">
        <ele>998.0</ele>
        <time>2019-07-07T14:25:07.694Z</time>
      </trkpt>
      <trkpt lat="43.058385" lon="-0.49295667">
        <ele>998.0</ele>
        <time>2019-07-07T14:25:08.670Z</time>
      </trkpt>
      <trkpt lat="43.058385" lon="-0.49295667">
        <ele>998.0</ele>
        <time>2019-07-07T14:25:09.676Z</time>
      </trkpt>
      <trkpt lat="43.05839167" lon="-0.49303167">
        <ele>998.0</ele>
        <time>2019-07-07T14:25:10.679Z</time>
      </trkpt>
      <trkpt lat="43.05839167" lon="-0.49303167">
        <ele>998.0</ele>
        <time>2019-07-07T14:25:11.691Z</time>
      </trkpt>
      <trkpt lat="43.05843167" lon="-0.49312167">
        <ele>998.0</ele>
        <time>2019-07-07T14:25:12.700Z</time>
      </trkpt>
      <trkpt lat="43.05843167" lon="-0.49312167">
        <ele>998.0</ele>
        <time>2019-07-07T14:25:13.666Z</time>
      </trkpt>
      <trkpt lat="43.05843167" lon="-0.49312167">
        <ele>998.0</ele>
        <time>2019-07-07T14:25:14.671Z</time>
      </trkpt>
      <trkpt lat="43.058475" lon="-0.49317">
        <ele>998.0</ele>
        <time>2019-07-07T14:25:15.669Z</time>
      </trkpt>
      <trkpt lat="43.0585" lon="-0.493195">
        <ele>998.0</ele>
        <time>2019-07-07T14:25:16.707Z</time>
      </trkpt>
      <trkpt lat="43.0585" lon="-0.493195">
        <ele>998.0</ele>
        <time>2019-07-07T14:25:17.673Z</time>
      </trkpt>
      <trkpt lat="43.05853833" lon="-0.49323833">
        <ele>998.0</ele>
        <time>2019-07-07T14:25:18.680Z</time>
      </trkpt>
      <trkpt lat="43.05855833" lon="-0.49326167">
        <ele>998.0</ele>
        <time>2019-07-07T14:25:19.668Z</time>
      </trkpt>
      <trkpt lat="43.05855833" lon="-0.49326167">
        <ele>998.0</ele>
        <time>2019-07-07T14:25:20.674Z</time>
      </trkpt>
      <trkpt lat="43.0586" lon="-0.49330333">
        <ele>998.0</ele>
        <time>2019-07-07T14:25:21.667Z</time>
      </trkpt>
      <trkpt lat="43.05861667" lon="-0.49332833">
        <ele>999.0</ele>
        <time>2019-07-07T14:25:22.704Z</time>
      </trkpt>
      <trkpt lat="43.05861667" lon="-0.49332833">
        <ele>999.0</ele>
        <time>2019-07-07T14:25:23.670Z</time>
      </trkpt>
      <trkpt lat="43.05866167" lon="-0.49340667">
        <ele>999.0</ele>
        <time>2019-07-07T14:25:24.703Z</time>
      </trkpt>
      <trkpt lat="43.05866167" lon="-0.49340667">
        <ele>999.0</ele>
        <time>2019-07-07T14:25:25.668Z</time>
      </trkpt>
      <trkpt lat="43.05866167" lon="-0.49340667">
        <ele>999.0</ele>
        <time>2019-07-07T14:25:26.674Z</time>
      </trkpt>
      <trkpt lat="43.05870333" lon="-0.49344167">
        <ele>999.0</ele>
        <time>2019-07-07T14:25:27.699Z</time>
      </trkpt>
      <trkpt lat="43.05872" lon="-0.493445">
        <ele>999.0</ele>
        <time>2019-07-07T14:25:28.666Z</time>
      </trkpt>
      <trkpt lat="43.05872" lon="-0.493445">
        <ele>999.0</ele>
        <time>2019-07-07T14:25:29.672Z</time>
      </trkpt>
      <trkpt lat="43.058755" lon="-0.49347167">
        <ele>999.0</ele>
        <time>2019-07-07T14:25:30.684Z</time>
      </trkpt>
      <trkpt lat="43.0588" lon="-0.49349333">
        <ele>999.0</ele>
        <time>2019-07-07T14:25:31.705Z</time>
      </trkpt>
      <trkpt lat="43.0588" lon="-0.49349333">
        <ele>999.0</ele>
        <time>2019-07-07T14:25:32.682Z</time>
      </trkpt>
      <trkpt lat="43.0588" lon="-0.49349333">
        <ele>999.0</ele>
        <time>2019-07-07T14:25:33.700Z</time>
      </trkpt>
      <trkpt lat="43.05883667" lon="-0.4935">
        <ele>1000.0</ele>
        <time>2019-07-07T14:25:34.692Z</time>
      </trkpt>
      <trkpt lat="43.05883667" lon="-0.4935">
        <ele>1000.0</ele>
        <time>2019-07-07T14:25:35.699Z</time>
      </trkpt>
      <trkpt lat="43.05886333" lon="-0.49349">
        <ele>1001.0</ele>
        <time>2019-07-07T14:25:36.701Z</time>
      </trkpt>
      <trkpt lat="43.05889167" lon="-0.493475">
        <ele>1001.0</ele>
        <time>2019-07-07T14:25:37.695Z</time>
      </trkpt>
      <trkpt lat="43.05889167" lon="-0.493475">
        <ele>1001.0</ele>
        <time>2019-07-07T14:25:38.703Z</time>
      </trkpt>
      <trkpt lat="43.05893" lon="-0.49345833">
        <ele>1002.0</ele>
        <time>2019-07-07T14:25:39.684Z</time>
      </trkpt>
      <trkpt lat="43.05894833" lon="-0.49344167">
        <ele>1002.0</ele>
        <time>2019-07-07T14:25:40.691Z</time>
      </trkpt>
      <trkpt lat="43.05894833" lon="-0.49344167">
        <ele>1002.0</ele>
        <time>2019-07-07T14:25:41.700Z</time>
      </trkpt>
      <trkpt lat="43.05899167" lon="-0.49340333">
        <ele>1002.0</ele>
        <time>2019-07-07T14:25:42.670Z</time>
      </trkpt>
      <trkpt lat="43.05899167" lon="-0.49340333">
        <ele>1002.0</ele>
        <time>2019-07-07T14:25:43.676Z</time>
      </trkpt>
      <trkpt lat="43.05904167" lon="-0.49335833">
        <ele>1003.0</ele>
        <time>2019-07-07T14:25:44.668Z</time>
      </trkpt>
      <trkpt lat="43.05904167" lon="-0.49335833">
        <ele>1003.0</ele>
        <time>2019-07-07T14:25:45.698Z</time>
      </trkpt>
      <trkpt lat="43.05908333" lon="-0.4933">
        <ele>1004.0</ele>
        <time>2019-07-07T14:25:46.680Z</time>
      </trkpt>
      <trkpt lat="43.05908333" lon="-0.4933">
        <ele>1004.0</ele>
        <time>2019-07-07T14:25:47.698Z</time>
      </trkpt>
      <trkpt lat="43.05911" lon="-0.493235">
        <ele>1004.0</ele>
        <time>2019-07-07T14:25:48.682Z</time>
      </trkpt>
      <trkpt lat="43.059125" lon="-0.49320333">
        <ele>1004.0</ele>
        <time>2019-07-07T14:25:49.670Z</time>
      </trkpt>
      <trkpt lat="43.059125" lon="-0.49320333">
        <ele>1004.0</ele>
        <time>2019-07-07T14:25:50.676Z</time>
      </trkpt>
      <trkpt lat="43.05915833" lon="-0.49313">
        <ele>1005.0</ele>
        <time>2019-07-07T14:25:51.669Z</time>
      </trkpt>
      <trkpt lat="43.05918" lon="-0.49309">
        <ele>1005.0</ele>
        <time>2019-07-07T14:25:52.697Z</time>
      </trkpt>
      <trkpt lat="43.05918" lon="-0.49309">
        <ele>1005.0</ele>
        <time>2019-07-07T14:25:53.708Z</time>
      </trkpt>
      <trkpt lat="43.05920167" lon="-0.49302833">
        <ele>1005.0</ele>
        <time>2019-07-07T14:25:54.670Z</time>
      </trkpt>
      <trkpt lat="43.05920167" lon="-0.49302833">
        <ele>1005.0</ele>
        <time>2019-07-07T14:25:55.676Z</time>
      </trkpt>
      <trkpt lat="43.05922833" lon="-0.49296667">
        <ele>1006.0</ele>
        <time>2019-07-07T14:25:56.676Z</time>
      </trkpt>
      <trkpt lat="43.05922833" lon="-0.49296667">
        <ele>1006.0</ele>
        <time>2019-07-07T14:25:57.682Z</time>
      </trkpt>
      <trkpt lat="43.059275" lon="-0.49287167">
        <ele>1007.0</ele>
        <time>2019-07-07T14:25:58.696Z</time>
      </trkpt>
      <trkpt lat="43.059275" lon="-0.49287167">
        <ele>1007.0</ele>
        <time>2019-07-07T14:25:59.703Z</time>
      </trkpt>
      <trkpt lat="43.05931333" lon="-0.49276167">
        <ele>1008.0</ele>
        <time>2019-07-07T14:26:00.670Z</time>
      </trkpt>
      <trkpt lat="43.05931333" lon="-0.49276167">
        <ele>1008.0</ele>
        <time>2019-07-07T14:26:01.676Z</time>
      </trkpt>
      <trkpt lat="43.05934167" lon="-0.49267">
        <ele>1008.0</ele>
        <time>2019-07-07T14:26:02.685Z</time>
      </trkpt>
      <trkpt lat="43.05933" lon="-0.49257167">
        <ele>1009.0</ele>
        <time>2019-07-07T14:26:03.709Z</time>
      </trkpt>
      <trkpt lat="43.05933" lon="-0.49257167">
        <ele>1009.0</ele>
        <time>2019-07-07T14:26:04.728Z</time>
      </trkpt>
      <trkpt lat="43.05933833" lon="-0.49250167">
        <ele>1009.0</ele>
        <time>2019-07-07T14:26:05.695Z</time>
      </trkpt>
      <trkpt lat="43.05933833" lon="-0.49250167">
        <ele>1009.0</ele>
        <time>2019-07-07T14:26:06.701Z</time>
      </trkpt>
      <trkpt lat="43.05938167" lon="-0.49235667">
        <ele>1009.0</ele>
        <time>2019-07-07T14:26:07.691Z</time>
      </trkpt>
      <trkpt lat="43.05938167" lon="-0.49235667">
        <ele>1009.0</ele>
        <time>2019-07-07T14:26:08.705Z</time>
      </trkpt>
      <trkpt lat="43.059395" lon="-0.49222333">
        <ele>1010.0</ele>
        <time>2019-07-07T14:26:09.680Z</time>
      </trkpt>
      <trkpt lat="43.0594" lon="-0.49215833">
        <ele>1010.0</ele>
        <time>2019-07-07T14:26:10.697Z</time>
      </trkpt>
      <trkpt lat="43.0594" lon="-0.49215833">
        <ele>1010.0</ele>
        <time>2019-07-07T14:26:11.706Z</time>
      </trkpt>
      <trkpt lat="43.059435" lon="-0.49201">
        <ele>1010.0</ele>
        <time>2019-07-07T14:26:12.669Z</time>
      </trkpt>
      <trkpt lat="43.059435" lon="-0.49201">
        <ele>1010.0</ele>
        <time>2019-07-07T14:26:13.674Z</time>
      </trkpt>
      <trkpt lat="43.05945167" lon="-0.49186667">
        <ele>1010.0</ele>
        <time>2019-07-07T14:26:14.680Z</time>
      </trkpt>
      <trkpt lat="43.05945167" lon="-0.49186667">
        <ele>1010.0</ele>
        <time>2019-07-07T14:26:15.670Z</time>
      </trkpt>
      <trkpt lat="43.05947667" lon="-0.49169167">
        <ele>1010.0</ele>
        <time>2019-07-07T14:26:16.697Z</time>
      </trkpt>
      <trkpt lat="43.05947667" lon="-0.49169167">
        <ele>1010.0</ele>
        <time>2019-07-07T14:26:17.703Z</time>
      </trkpt>
      <trkpt lat="43.059525" lon="-0.49153">
        <ele>1010.0</ele>
        <time>2019-07-07T14:26:18.668Z</time>
      </trkpt>
      <trkpt lat="43.05954" lon="-0.49146833">
        <ele>1010.0</ele>
        <time>2019-07-07T14:26:19.694Z</time>
      </trkpt>
      <trkpt lat="43.05954" lon="-0.49146833">
        <ele>1010.0</ele>
        <time>2019-07-07T14:26:20.701Z</time>
      </trkpt>
      <trkpt lat="43.05961167" lon="-0.49133333">
        <ele>1010.0</ele>
        <time>2019-07-07T14:26:21.695Z</time>
      </trkpt>
      <trkpt lat="43.05961167" lon="-0.49133333">
        <ele>1010.0</ele>
        <time>2019-07-07T14:26:22.704Z</time>
      </trkpt>
      <trkpt lat="43.059705" lon="-0.49118833">
        <ele>1010.0</ele>
        <time>2019-07-07T14:26:23.669Z</time>
      </trkpt>
      <trkpt lat="43.059705" lon="-0.49118833">
        <ele>1010.0</ele>
        <time>2019-07-07T14:26:24.675Z</time>
      </trkpt>
      <trkpt lat="43.05980833" lon="-0.491025">
        <ele>1010.0</ele>
        <time>2019-07-07T14:26:25.670Z</time>
      </trkpt>
      <trkpt lat="43.05980833" lon="-0.491025">
        <ele>1010.0</ele>
        <time>2019-07-07T14:26:26.676Z</time>
      </trkpt>
      <trkpt lat="43.05991" lon="-0.4909">
        <ele>1010.0</ele>
        <time>2019-07-07T14:26:27.668Z</time>
      </trkpt>
      <trkpt lat="43.06001167" lon="-0.4909">
        <ele>1010.0</ele>
        <time>2019-07-07T14:26:28.678Z</time>
      </trkpt>
      <trkpt lat="43.06001167" lon="-0.4909">
        <ele>1010.0</ele>
        <time>2019-07-07T14:26:29.683Z</time>
      </trkpt>
      <trkpt lat="43.06013667" lon="-0.49101167">
        <ele>1010.0</ele>
        <time>2019-07-07T14:26:30.699Z</time>
      </trkpt>
      <trkpt lat="43.06019667" lon="-0.49119167">
        <ele>1009.0</ele>
        <time>2019-07-07T14:26:31.711Z</time>
      </trkpt>
      <trkpt lat="43.06019667" lon="-0.49119167">
        <ele>1009.0</ele>
        <time>2019-07-07T14:26:32.674Z</time>
      </trkpt>
      <trkpt lat="43.060225" lon="-0.49129">
        <ele>1009.0</ele>
        <time>2019-07-07T14:26:33.672Z</time>
      </trkpt>
      <trkpt lat="43.06026167" lon="-0.491385">
        <ele>1009.0</ele>
        <time>2019-07-07T14:26:34.665Z</time>
      </trkpt>
      <trkpt lat="43.06026167" lon="-0.491385">
        <ele>1009.0</ele>
        <time>2019-07-07T14:26:35.671Z</time>
      </trkpt>
      <trkpt lat="43.06034667" lon="-0.49158333">
        <ele>1009.0</ele>
        <time>2019-07-07T14:26:36.667Z</time>
      </trkpt>
      <trkpt lat="43.06034667" lon="-0.49158333">
        <ele>1009.0</ele>
        <time>2019-07-07T14:26:37.674Z</time>
      </trkpt>
      <trkpt lat="43.06044667" lon="-0.49181667">
        <ele>1009.0</ele>
        <time>2019-07-07T14:26:38.674Z</time>
      </trkpt>
      <trkpt lat="43.06048833" lon="-0.491945">
        <ele>1009.0</ele>
        <time>2019-07-07T14:26:39.686Z</time>
      </trkpt>
      <trkpt lat="43.06053" lon="-0.49207333">
        <ele>1008.0</ele>
        <time>2019-07-07T14:26:40.696Z</time>
      </trkpt>
      <trkpt lat="43.06059" lon="-0.492345">
        <ele>1007.0</ele>
        <time>2019-07-07T14:26:41.703Z</time>
      </trkpt>
      <trkpt lat="43.06059" lon="-0.492345">
        <ele>1007.0</ele>
        <time>2019-07-07T14:26:42.701Z</time>
      </trkpt>
      <trkpt lat="43.06059" lon="-0.492345">
        <ele>1007.0</ele>
        <time>2019-07-07T14:26:43.682Z</time>
      </trkpt>
      <trkpt lat="43.06061167" lon="-0.49261333">
        <ele>1007.0</ele>
        <time>2019-07-07T14:26:44.680Z</time>
      </trkpt>
      <trkpt lat="43.06061167" lon="-0.49261333">
        <ele>1007.0</ele>
        <time>2019-07-07T14:26:45.668Z</time>
      </trkpt>
      <trkpt lat="43.060605" lon="-0.49288167">
        <ele>1006.0</ele>
        <time>2019-07-07T14:26:46.675Z</time>
      </trkpt>
      <trkpt lat="43.060605" lon="-0.49288167">
        <ele>1006.0</ele>
        <time>2019-07-07T14:26:47.681Z</time>
      </trkpt>
      <trkpt lat="43.06053167" lon="-0.49312667">
        <ele>1006.0</ele>
        <time>2019-07-07T14:26:48.680Z</time>
      </trkpt>
      <trkpt lat="43.06053167" lon="-0.49312667">
        <ele>1006.0</ele>
        <time>2019-07-07T14:26:49.687Z</time>
      </trkpt>
      <trkpt lat="43.06042167" lon="-0.493375">
        <ele>1005.0</ele>
        <time>2019-07-07T14:26:50.698Z</time>
      </trkpt>
      <trkpt lat="43.06042167" lon="-0.493375">
        <ele>1005.0</ele>
        <time>2019-07-07T14:26:51.704Z</time>
      </trkpt>
      <trkpt lat="43.06029" lon="-0.49362">
        <ele>1004.0</ele>
        <time>2019-07-07T14:26:52.692Z</time>
      </trkpt>
      <trkpt lat="43.06029" lon="-0.49362">
        <ele>1004.0</ele>
        <time>2019-07-07T14:26:53.698Z</time>
      </trkpt>
      <trkpt lat="43.060185" lon="-0.49388">
        <ele>1004.0</ele>
        <time>2019-07-07T14:26:54.679Z</time>
      </trkpt>
      <trkpt lat="43.060185" lon="-0.49388">
        <ele>1004.0</ele>
        <time>2019-07-07T14:26:55.685Z</time>
      </trkpt>
      <trkpt lat="43.0601" lon="-0.49415833">
        <ele>1003.0</ele>
        <time>2019-07-07T14:26:56.670Z</time>
      </trkpt>
      <trkpt lat="43.0601" lon="-0.49415833">
        <ele>1003.0</ele>
        <time>2019-07-07T14:26:57.677Z</time>
      </trkpt>
      <trkpt lat="43.06012167" lon="-0.49441833">
        <ele>1001.0</ele>
        <time>2019-07-07T14:26:58.680Z</time>
      </trkpt>
      <trkpt lat="43.06012167" lon="-0.49441833">
        <ele>1001.0</ele>
        <time>2019-07-07T14:26:59.687Z</time>
      </trkpt>
      <trkpt lat="43.06015667" lon="-0.49469167">
        <ele>1000.0</ele>
        <time>2019-07-07T14:27:00.682Z</time>
      </trkpt>
      <trkpt lat="43.06015667" lon="-0.49469167">
        <ele>1000.0</ele>
        <time>2019-07-07T14:27:01.695Z</time>
      </trkpt>
      <trkpt lat="43.06022333" lon="-0.49496667">
        <ele>999.0</ele>
        <time>2019-07-07T14:27:02.699Z</time>
      </trkpt>
      <trkpt lat="43.06022333" lon="-0.49496667">
        <ele>999.0</ele>
        <time>2019-07-07T14:27:03.665Z</time>
      </trkpt>
      <trkpt lat="43.06030667" lon="-0.49524">
        <ele>999.0</ele>
        <time>2019-07-07T14:27:04.667Z</time>
      </trkpt>
      <trkpt lat="43.06030667" lon="-0.49524">
        <ele>999.0</ele>
        <time>2019-07-07T14:27:05.673Z</time>
      </trkpt>
      <trkpt lat="43.06039" lon="-0.49551167">
        <ele>998.0</ele>
        <time>2019-07-07T14:27:06.679Z</time>
      </trkpt>
      <trkpt lat="43.06042833" lon="-0.49564833">
        <ele>997.0</ele>
        <time>2019-07-07T14:27:07.696Z</time>
      </trkpt>
      <trkpt lat="43.06042833" lon="-0.49564833">
        <ele>997.0</ele>
        <time>2019-07-07T14:27:08.707Z</time>
      </trkpt>
      <trkpt lat="43.06049167" lon="-0.49592167">
        <ele>996.0</ele>
        <time>2019-07-07T14:27:09.678Z</time>
      </trkpt>
      <trkpt lat="43.06053667" lon="-0.49604333">
        <ele>996.0</ele>
        <time>2019-07-07T14:27:10.669Z</time>
      </trkpt>
      <trkpt lat="43.06053667" lon="-0.49604333">
        <ele>996.0</ele>
        <time>2019-07-07T14:27:11.676Z</time>
      </trkpt>
      <trkpt lat="43.06063833" lon="-0.49623167">
        <ele>995.0</ele>
        <time>2019-07-07T14:27:12.666Z</time>
      </trkpt>
      <trkpt lat="43.06076167" lon="-0.49624">
        <ele>995.0</ele>
        <time>2019-07-07T14:27:13.673Z</time>
      </trkpt>
      <trkpt lat="43.06076167" lon="-0.49624">
        <ele>995.0</ele>
        <time>2019-07-07T14:27:14.679Z</time>
      </trkpt>
      <trkpt lat="43.06095167" lon="-0.496305">
        <ele>994.0</ele>
        <time>2019-07-07T14:27:15.667Z</time>
      </trkpt>
      <trkpt lat="43.06095167" lon="-0.496305">
        <ele>994.0</ele>
        <time>2019-07-07T14:27:16.673Z</time>
      </trkpt>
      <trkpt lat="43.06112833" lon="-0.49637667">
        <ele>994.0</ele>
        <time>2019-07-07T14:27:17.680Z</time>
      </trkpt>
      <trkpt lat="43.06112833" lon="-0.49637667">
        <ele>994.0</ele>
        <time>2019-07-07T14:27:18.686Z</time>
      </trkpt>
      <trkpt lat="43.06130667" lon="-0.49640333">
        <ele>993.0</ele>
        <time>2019-07-07T14:27:19.684Z</time>
      </trkpt>
      <trkpt lat="43.06130667" lon="-0.49640333">
        <ele>993.0</ele>
        <time>2019-07-07T14:27:20.681Z</time>
      </trkpt>
      <trkpt lat="43.06160167" lon="-0.496435">
        <ele>992.0</ele>
        <time>2019-07-07T14:27:21.701Z</time>
      </trkpt>
      <trkpt lat="43.06160167" lon="-0.496435">
        <ele>992.0</ele>
        <time>2019-07-07T14:27:22.666Z</time>
      </trkpt>
      <trkpt lat="43.06160167" lon="-0.496435">
        <ele>992.0</ele>
        <time>2019-07-07T14:27:23.672Z</time>
      </trkpt>
      <trkpt lat="43.061785" lon="-0.4965">
        <ele>991.0</ele>
        <time>2019-07-07T14:27:24.686Z</time>
      </trkpt>
      <trkpt lat="43.061785" lon="-0.4965">
        <ele>991.0</ele>
        <time>2019-07-07T14:27:25.704Z</time>
      </trkpt>
      <trkpt lat="43.06195833" lon="-0.49658">
        <ele>991.0</ele>
        <time>2019-07-07T14:27:26.667Z</time>
      </trkpt>
      <trkpt lat="43.06195833" lon="-0.49658">
        <ele>991.0</ele>
        <time>2019-07-07T14:27:27.673Z</time>
      </trkpt>
      <trkpt lat="43.06207333" lon="-0.496725">
        <ele>991.0</ele>
        <time>2019-07-07T14:27:28.704Z</time>
      </trkpt>
      <trkpt lat="43.06207333" lon="-0.496725">
        <ele>991.0</ele>
        <time>2019-07-07T14:27:29.669Z</time>
      </trkpt>
      <trkpt lat="43.06221167" lon="-0.49689833">
        <ele>990.0</ele>
        <time>2019-07-07T14:27:30.679Z</time>
      </trkpt>
      <trkpt lat="43.062305" lon="-0.49694333">
        <ele>990.0</ele>
        <time>2019-07-07T14:27:31.670Z</time>
      </trkpt>
      <trkpt lat="43.062305" lon="-0.49694333">
        <ele>990.0</ele>
        <time>2019-07-07T14:27:32.676Z</time>
      </trkpt>
      <trkpt lat="43.06250333" lon="-0.49702333">
        <ele>990.0</ele>
        <time>2019-07-07T14:27:33.679Z</time>
      </trkpt>
      <trkpt lat="43.06259" lon="-0.49707333">
        <ele>990.0</ele>
        <time>2019-07-07T14:27:34.680Z</time>
      </trkpt>
      <trkpt lat="43.06259" lon="-0.49707333">
        <ele>990.0</ele>
        <time>2019-07-07T14:27:35.701Z</time>
      </trkpt>
      <trkpt lat="43.06275" lon="-0.49723833">
        <ele>990.0</ele>
        <time>2019-07-07T14:27:36.700Z</time>
      </trkpt>
      <trkpt lat="43.06275" lon="-0.49723833">
        <ele>990.0</ele>
        <time>2019-07-07T14:27:37.665Z</time>
      </trkpt>
      <trkpt lat="43.06290333" lon="-0.497425">
        <ele>989.0</ele>
        <time>2019-07-07T14:27:38.701Z</time>
      </trkpt>
      <trkpt lat="43.06290333" lon="-0.497425">
        <ele>989.0</ele>
        <time>2019-07-07T14:27:39.678Z</time>
      </trkpt>
      <trkpt lat="43.063055" lon="-0.49757333">
        <ele>989.0</ele>
        <time>2019-07-07T14:27:40.667Z</time>
      </trkpt>
      <trkpt lat="43.063055" lon="-0.49757333">
        <ele>989.0</ele>
        <time>2019-07-07T14:27:41.673Z</time>
      </trkpt>
      <trkpt lat="43.06319833" lon="-0.49773">
        <ele>988.0</ele>
        <time>2019-07-07T14:27:42.670Z</time>
      </trkpt>
      <trkpt lat="43.06319833" lon="-0.49773">
        <ele>988.0</ele>
        <time>2019-07-07T14:27:43.675Z</time>
      </trkpt>
      <trkpt lat="43.06332167" lon="-0.49793667">
        <ele>988.0</ele>
        <time>2019-07-07T14:27:44.678Z</time>
      </trkpt>
      <trkpt lat="43.06332167" lon="-0.49793667">
        <ele>988.0</ele>
        <time>2019-07-07T14:27:45.686Z</time>
      </trkpt>
      <trkpt lat="43.06345833" lon="-0.49814833">
        <ele>987.0</ele>
        <time>2019-07-07T14:27:46.702Z</time>
      </trkpt>
      <trkpt lat="43.06345833" lon="-0.49814833">
        <ele>987.0</ele>
        <time>2019-07-07T14:27:47.667Z</time>
      </trkpt>
      <trkpt lat="43.06365833" lon="-0.49844">
        <ele>987.0</ele>
        <time>2019-07-07T14:27:48.703Z</time>
      </trkpt>
      <trkpt lat="43.06365833" lon="-0.49844">
        <ele>987.0</ele>
        <time>2019-07-07T14:27:49.668Z</time>
      </trkpt>
      <trkpt lat="43.06365833" lon="-0.49844">
        <ele>987.0</ele>
        <time>2019-07-07T14:27:50.674Z</time>
      </trkpt>
      <trkpt lat="43.0638" lon="-0.49860167">
        <ele>986.0</ele>
        <time>2019-07-07T14:27:51.683Z</time>
      </trkpt>
      <trkpt lat="43.063895" lon="-0.49864333">
        <ele>986.0</ele>
        <time>2019-07-07T14:27:52.666Z</time>
      </trkpt>
      <trkpt lat="43.063895" lon="-0.49864333">
        <ele>986.0</ele>
        <time>2019-07-07T14:27:53.672Z</time>
      </trkpt>
      <trkpt lat="43.06407333" lon="-0.49864167">
        <ele>985.0</ele>
        <time>2019-07-07T14:27:54.700Z</time>
      </trkpt>
      <trkpt lat="43.06407333" lon="-0.49864167">
        <ele>985.0</ele>
        <time>2019-07-07T14:27:55.666Z</time>
      </trkpt>
      <trkpt lat="43.06431167" lon="-0.49850667">
        <ele>985.0</ele>
        <time>2019-07-07T14:27:56.704Z</time>
      </trkpt>
      <trkpt lat="43.06431167" lon="-0.49850667">
        <ele>985.0</ele>
        <time>2019-07-07T14:27:57.680Z</time>
      </trkpt>
      <trkpt lat="43.06431167" lon="-0.49850667">
        <ele>985.0</ele>
        <time>2019-07-07T14:27:58.687Z</time>
      </trkpt>
      <trkpt lat="43.06446833" lon="-0.49837667">
        <ele>984.0</ele>
        <time>2019-07-07T14:27:59.706Z</time>
      </trkpt>
      <trkpt lat="43.06453167" lon="-0.49831333">
        <ele>984.0</ele>
        <time>2019-07-07T14:28:00.705Z</time>
      </trkpt>
      <trkpt lat="43.06453167" lon="-0.49831333">
        <ele>984.0</ele>
        <time>2019-07-07T14:28:01.709Z</time>
      </trkpt>
      <trkpt lat="43.06473" lon="-0.498215">
        <ele>984.0</ele>
        <time>2019-07-07T14:28:02.669Z</time>
      </trkpt>
      <trkpt lat="43.06473" lon="-0.498215">
        <ele>984.0</ele>
        <time>2019-07-07T14:28:03.675Z</time>
      </trkpt>
      <trkpt lat="43.06491" lon="-0.49826667">
        <ele>984.0</ele>
        <time>2019-07-07T14:28:04.698Z</time>
      </trkpt>
      <trkpt lat="43.06491" lon="-0.49826667">
        <ele>984.0</ele>
        <time>2019-07-07T14:28:05.705Z</time>
      </trkpt>
      <trkpt lat="43.065035" lon="-0.49845333">
        <ele>984.0</ele>
        <time>2019-07-07T14:28:06.672Z</time>
      </trkpt>
      <trkpt lat="43.06507333" lon="-0.49856833">
        <ele>984.0</ele>
        <time>2019-07-07T14:28:07.668Z</time>
      </trkpt>
      <trkpt lat="43.06507333" lon="-0.49856833">
        <ele>984.0</ele>
        <time>2019-07-07T14:28:08.676Z</time>
      </trkpt>
      <trkpt lat="43.06514167" lon="-0.498815">
        <ele>984.0</ele>
        <time>2019-07-07T14:28:09.690Z</time>
      </trkpt>
      <trkpt lat="43.06516" lon="-0.49894">
        <ele>984.0</ele>
        <time>2019-07-07T14:28:10.697Z</time>
      </trkpt>
      <trkpt lat="43.065195" lon="-0.49917667">
        <ele>983.0</ele>
        <time>2019-07-07T14:28:11.709Z</time>
      </trkpt>
      <trkpt lat="43.065195" lon="-0.49917667">
        <ele>983.0</ele>
        <time>2019-07-07T14:28:12.670Z</time>
      </trkpt>
      <trkpt lat="43.065215" lon="-0.49929833">
        <ele>983.0</ele>
        <time>2019-07-07T14:28:13.670Z</time>
      </trkpt>
      <trkpt lat="43.065215" lon="-0.49929833">
        <ele>983.0</ele>
        <time>2019-07-07T14:28:14.676Z</time>
      </trkpt>
      <trkpt lat="43.06524167" lon="-0.49953167">
        <ele>982.0</ele>
        <time>2019-07-07T14:28:15.671Z</time>
      </trkpt>
      <trkpt lat="43.06523667" lon="-0.49966333">
        <ele>982.0</ele>
        <time>2019-07-07T14:28:16.670Z</time>
      </trkpt>
      <trkpt lat="43.06523667" lon="-0.49966333">
        <ele>982.0</ele>
        <time>2019-07-07T14:28:17.676Z</time>
      </trkpt>
      <trkpt lat="43.06521167" lon="-0.49992">
        <ele>982.0</ele>
        <time>2019-07-07T14:28:18.695Z</time>
      </trkpt>
      <trkpt lat="43.06521167" lon="-0.49992">
        <ele>982.0</ele>
        <time>2019-07-07T14:28:19.665Z</time>
      </trkpt>
      <trkpt lat="43.06517" lon="-0.500285">
        <ele>981.0</ele>
        <time>2019-07-07T14:28:20.705Z</time>
      </trkpt>
      <trkpt lat="43.06517" lon="-0.500285">
        <ele>981.0</ele>
        <time>2019-07-07T14:28:21.680Z</time>
      </trkpt>
      <trkpt lat="43.06517" lon="-0.500285">
        <ele>981.0</ele>
        <time>2019-07-07T14:28:22.686Z</time>
      </trkpt>
      <trkpt lat="43.06516" lon="-0.50051333">
        <ele>981.0</ele>
        <time>2019-07-07T14:28:23.696Z</time>
      </trkpt>
      <trkpt lat="43.06516" lon="-0.50051333">
        <ele>981.0</ele>
        <time>2019-07-07T14:28:24.702Z</time>
      </trkpt>
      <trkpt lat="43.06514167" lon="-0.50073667">
        <ele>980.0</ele>
        <time>2019-07-07T14:28:25.670Z</time>
      </trkpt>
      <trkpt lat="43.06514167" lon="-0.50073667">
        <ele>980.0</ele>
        <time>2019-07-07T14:28:26.676Z</time>
      </trkpt>
      <trkpt lat="43.06510833" lon="-0.500975">
        <ele>980.0</ele>
        <time>2019-07-07T14:28:27.686Z</time>
      </trkpt>
      <trkpt lat="43.06510833" lon="-0.500975">
        <ele>980.0</ele>
        <time>2019-07-07T14:28:28.699Z</time>
      </trkpt>
      <trkpt lat="43.06508667" lon="-0.50123333">
        <ele>981.0</ele>
        <time>2019-07-07T14:28:29.675Z</time>
      </trkpt>
      <trkpt lat="43.06508667" lon="-0.50123333">
        <ele>981.0</ele>
        <time>2019-07-07T14:28:30.682Z</time>
      </trkpt>
      <trkpt lat="43.06508" lon="-0.50149667">
        <ele>981.0</ele>
        <time>2019-07-07T14:28:31.670Z</time>
      </trkpt>
      <trkpt lat="43.06508" lon="-0.50149667">
        <ele>981.0</ele>
        <time>2019-07-07T14:28:32.676Z</time>
      </trkpt>
      <trkpt lat="43.06512167" lon="-0.50174">
        <ele>981.0</ele>
        <time>2019-07-07T14:28:33.688Z</time>
      </trkpt>
      <trkpt lat="43.065155" lon="-0.50184333">
        <ele>981.0</ele>
        <time>2019-07-07T14:28:34.677Z</time>
      </trkpt>
      <trkpt lat="43.065155" lon="-0.50184333">
        <ele>981.0</ele>
        <time>2019-07-07T14:28:35.684Z</time>
      </trkpt>
      <trkpt lat="43.06524333" lon="-0.50196833">
        <ele>981.0</ele>
        <time>2019-07-07T14:28:36.670Z</time>
      </trkpt>
      <trkpt lat="43.06527833" lon="-0.50196">
        <ele>981.0</ele>
        <time>2019-07-07T14:28:37.700Z</time>
      </trkpt>
      <trkpt lat="43.06527833" lon="-0.50196">
        <ele>981.0</ele>
        <time>2019-07-07T14:28:38.666Z</time>
      </trkpt>
      <trkpt lat="43.06538" lon="-0.50184167">
        <ele>981.0</ele>
        <time>2019-07-07T14:28:39.667Z</time>
      </trkpt>
      <trkpt lat="43.06544167" lon="-0.50176833">
        <ele>981.0</ele>
        <time>2019-07-07T14:28:40.676Z</time>
      </trkpt>
      <trkpt lat="43.06544167" lon="-0.50176833">
        <ele>981.0</ele>
        <time>2019-07-07T14:28:41.682Z</time>
      </trkpt>
      <trkpt lat="43.06557333" lon="-0.50162667">
        <ele>981.0</ele>
        <time>2019-07-07T14:28:42.699Z</time>
      </trkpt>
      <trkpt lat="43.06564" lon="-0.50155667">
        <ele>981.0</ele>
        <time>2019-07-07T14:28:43.668Z</time>
      </trkpt>
      <trkpt lat="43.06564" lon="-0.50155667">
        <ele>981.0</ele>
        <time>2019-07-07T14:28:44.674Z</time>
      </trkpt>
      <trkpt lat="43.06578667" lon="-0.50141">
        <ele>982.0</ele>
        <time>2019-07-07T14:28:45.665Z</time>
      </trkpt>
      <trkpt lat="43.06578667" lon="-0.50141">
        <ele>982.0</ele>
        <time>2019-07-07T14:28:46.673Z</time>
      </trkpt>
      <trkpt lat="43.06592833" lon="-0.501275">
        <ele>982.0</ele>
        <time>2019-07-07T14:28:47.700Z</time>
      </trkpt>
      <trkpt lat="43.06592833" lon="-0.501275">
        <ele>982.0</ele>
        <time>2019-07-07T14:28:48.666Z</time>
      </trkpt>
      <trkpt lat="43.06607667" lon="-0.501145">
        <ele>982.0</ele>
        <time>2019-07-07T14:28:49.667Z</time>
      </trkpt>
      <trkpt lat="43.06607667" lon="-0.501145">
        <ele>982.0</ele>
        <time>2019-07-07T14:28:50.673Z</time>
      </trkpt>
      <trkpt lat="43.06621667" lon="-0.50102667">
        <ele>982.0</ele>
        <time>2019-07-07T14:28:51.670Z</time>
      </trkpt>
      <trkpt lat="43.06628167" lon="-0.50097667">
        <ele>983.0</ele>
        <time>2019-07-07T14:28:52.672Z</time>
      </trkpt>
      <trkpt lat="43.06628167" lon="-0.50097667">
        <ele>983.0</ele>
        <time>2019-07-07T14:28:53.678Z</time>
      </trkpt>
      <trkpt lat="43.06644167" lon="-0.50085667">
        <ele>983.0</ele>
        <time>2019-07-07T14:28:54.677Z</time>
      </trkpt>
      <trkpt lat="43.06652" lon="-0.50079833">
        <ele>983.0</ele>
        <time>2019-07-07T14:28:55.680Z</time>
      </trkpt>
      <trkpt lat="43.06660667" lon="-0.50074">
        <ele>984.0</ele>
        <time>2019-07-07T14:28:56.694Z</time>
      </trkpt>
      <trkpt lat="43.06660667" lon="-0.50074">
        <ele>984.0</ele>
        <time>2019-07-07T14:28:57.700Z</time>
      </trkpt>
      <trkpt lat="43.06677667" lon="-0.50061667">
        <ele>984.0</ele>
        <time>2019-07-07T14:28:58.666Z</time>
      </trkpt>
      <trkpt lat="43.06677667" lon="-0.50061667">
        <ele>984.0</ele>
        <time>2019-07-07T14:28:59.673Z</time>
      </trkpt>
      <trkpt lat="43.06695" lon="-0.50050833">
        <ele>984.0</ele>
        <time>2019-07-07T14:29:00.672Z</time>
      </trkpt>
      <trkpt lat="43.06695" lon="-0.50050833">
        <ele>984.0</ele>
        <time>2019-07-07T14:29:01.678Z</time>
      </trkpt>
      <trkpt lat="43.067125" lon="-0.500465">
        <ele>984.0</ele>
        <time>2019-07-07T14:29:02.684Z</time>
      </trkpt>
      <trkpt lat="43.06722" lon="-0.50047167">
        <ele>985.0</ele>
        <time>2019-07-07T14:29:03.690Z</time>
      </trkpt>
      <trkpt lat="43.06731167" lon="-0.500495">
        <ele>985.0</ele>
        <time>2019-07-07T14:29:04.690Z</time>
      </trkpt>
      <trkpt lat="43.06731167" lon="-0.500495">
        <ele>985.0</ele>
        <time>2019-07-07T14:29:05.666Z</time>
      </trkpt>
      <trkpt lat="43.06748667" lon="-0.50054333">
        <ele>985.0</ele>
        <time>2019-07-07T14:29:06.676Z</time>
      </trkpt>
      <trkpt lat="43.06757333" lon="-0.50055333">
        <ele>985.0</ele>
        <time>2019-07-07T14:29:07.679Z</time>
      </trkpt>
      <trkpt lat="43.06757333" lon="-0.50055333">
        <ele>985.0</ele>
        <time>2019-07-07T14:29:08.685Z</time>
      </trkpt>
      <trkpt lat="43.06775167" lon="-0.50057">
        <ele>985.0</ele>
        <time>2019-07-07T14:29:09.681Z</time>
      </trkpt>
      <trkpt lat="43.06783667" lon="-0.50059667">
        <ele>986.0</ele>
        <time>2019-07-07T14:29:10.680Z</time>
      </trkpt>
      <trkpt lat="43.06783667" lon="-0.50059667">
        <ele>986.0</ele>
        <time>2019-07-07T14:29:11.686Z</time>
      </trkpt>
      <trkpt lat="43.06797333" lon="-0.50068833">
        <ele>986.0</ele>
        <time>2019-07-07T14:29:12.690Z</time>
      </trkpt>
      <trkpt lat="43.06803333" lon="-0.50074">
        <ele>986.0</ele>
        <time>2019-07-07T14:29:13.700Z</time>
      </trkpt>
      <trkpt lat="43.06803333" lon="-0.50074">
        <ele>986.0</ele>
        <time>2019-07-07T14:29:14.666Z</time>
      </trkpt>
      <trkpt lat="43.06816667" lon="-0.50082167">
        <ele>987.0</ele>
        <time>2019-07-07T14:29:15.670Z</time>
      </trkpt>
      <trkpt lat="43.06816667" lon="-0.50082167">
        <ele>987.0</ele>
        <time>2019-07-07T14:29:16.676Z</time>
      </trkpt>
      <trkpt lat="43.06828667" lon="-0.50086833">
        <ele>987.0</ele>
        <time>2019-07-07T14:29:17.670Z</time>
      </trkpt>
      <trkpt lat="43.068345" lon="-0.50089833">
        <ele>988.0</ele>
        <time>2019-07-07T14:29:18.670Z</time>
      </trkpt>
      <trkpt lat="43.068345" lon="-0.50089833">
        <ele>988.0</ele>
        <time>2019-07-07T14:29:19.676Z</time>
      </trkpt>
      <trkpt lat="43.06844833" lon="-0.50097">
        <ele>989.0</ele>
        <time>2019-07-07T14:29:20.680Z</time>
      </trkpt>
      <trkpt lat="43.06848333" lon="-0.50100833">
        <ele>989.0</ele>
        <time>2019-07-07T14:29:21.675Z</time>
      </trkpt>
      <trkpt lat="43.06851667" lon="-0.50104667">
        <ele>989.0</ele>
        <time>2019-07-07T14:29:22.680Z</time>
      </trkpt>
      <trkpt lat="43.06851667" lon="-0.50104667">
        <ele>989.0</ele>
        <time>2019-07-07T14:29:23.686Z</time>
      </trkpt>
      <trkpt lat="43.06857167" lon="-0.50113333">
        <ele>990.0</ele>
        <time>2019-07-07T14:29:24.683Z</time>
      </trkpt>
      <trkpt lat="43.06857167" lon="-0.50113333">
        <ele>990.0</ele>
        <time>2019-07-07T14:29:25.690Z</time>
      </trkpt>
      <trkpt lat="43.06861833" lon="-0.50121">
        <ele>991.0</ele>
        <time>2019-07-07T14:29:26.695Z</time>
      </trkpt>
      <trkpt lat="43.068645" lon="-0.501255">
        <ele>991.0</ele>
        <time>2019-07-07T14:29:27.675Z</time>
      </trkpt>
      <trkpt lat="43.06868" lon="-0.501305">
        <ele>991.0</ele>
        <time>2019-07-07T14:29:28.670Z</time>
      </trkpt>
      <trkpt lat="43.06868" lon="-0.501305">
        <ele>991.0</ele>
        <time>2019-07-07T14:29:29.676Z</time>
      </trkpt>
      <trkpt lat="43.06873833" lon="-0.5014">
        <ele>992.0</ele>
        <time>2019-07-07T14:29:30.677Z</time>
      </trkpt>
      <trkpt lat="43.06873833" lon="-0.5014">
        <ele>992.0</ele>
        <time>2019-07-07T14:29:31.683Z</time>
      </trkpt>
      <trkpt lat="43.06880167" lon="-0.50149">
        <ele>992.0</ele>
        <time>2019-07-07T14:29:32.690Z</time>
      </trkpt>
      <trkpt lat="43.06880167" lon="-0.50149">
        <ele>992.0</ele>
        <time>2019-07-07T14:29:33.702Z</time>
      </trkpt>
      <trkpt lat="43.06884167" lon="-0.50157333">
        <ele>993.0</ele>
        <time>2019-07-07T14:29:34.701Z</time>
      </trkpt>
      <trkpt lat="43.06884167" lon="-0.50157333">
        <ele>993.0</ele>
        <time>2019-07-07T14:29:35.681Z</time>
      </trkpt>
      <trkpt lat="43.0689" lon="-0.50163833">
        <ele>993.0</ele>
        <time>2019-07-07T14:29:36.684Z</time>
      </trkpt>
      <trkpt lat="43.06893333" lon="-0.50167">
        <ele>993.0</ele>
        <time>2019-07-07T14:29:37.688Z</time>
      </trkpt>
      <trkpt lat="43.06893333" lon="-0.50167">
        <ele>993.0</ele>
        <time>2019-07-07T14:29:38.666Z</time>
      </trkpt>
      <trkpt lat="43.06899667" lon="-0.50172667">
        <ele>994.0</ele>
        <time>2019-07-07T14:29:39.667Z</time>
      </trkpt>
      <trkpt lat="43.06903167" lon="-0.501755">
        <ele>994.0</ele>
        <time>2019-07-07T14:29:40.680Z</time>
      </trkpt>
      <trkpt lat="43.06903167" lon="-0.501755">
        <ele>994.0</ele>
        <time>2019-07-07T14:29:41.686Z</time>
      </trkpt>
      <trkpt lat="43.06911" lon="-0.50184">
        <ele>995.0</ele>
        <time>2019-07-07T14:29:42.687Z</time>
      </trkpt>
      <trkpt lat="43.06911" lon="-0.50184">
        <ele>995.0</ele>
        <time>2019-07-07T14:29:43.665Z</time>
      </trkpt>
      <trkpt lat="43.06917667" lon="-0.50193">
        <ele>996.0</ele>
        <time>2019-07-07T14:29:44.677Z</time>
      </trkpt>
      <trkpt lat="43.06917667" lon="-0.50193">
        <ele>996.0</ele>
        <time>2019-07-07T14:29:45.667Z</time>
      </trkpt>
      <trkpt lat="43.06923" lon="-0.50201667">
        <ele>996.0</ele>
        <time>2019-07-07T14:29:46.679Z</time>
      </trkpt>
      <trkpt lat="43.06923" lon="-0.50201667">
        <ele>996.0</ele>
        <time>2019-07-07T14:29:47.685Z</time>
      </trkpt>
      <trkpt lat="43.06927333" lon="-0.50211167">
        <ele>997.0</ele>
        <time>2019-07-07T14:29:48.690Z</time>
      </trkpt>
      <trkpt lat="43.06927333" lon="-0.50211167">
        <ele>997.0</ele>
        <time>2019-07-07T14:29:49.666Z</time>
      </trkpt>
      <trkpt lat="43.06931" lon="-0.50221">
        <ele>997.0</ele>
        <time>2019-07-07T14:29:50.672Z</time>
      </trkpt>
      <trkpt lat="43.06932667" lon="-0.50225833">
        <ele>997.0</ele>
        <time>2019-07-07T14:29:51.680Z</time>
      </trkpt>
      <trkpt lat="43.06934333" lon="-0.50230667">
        <ele>997.0</ele>
        <time>2019-07-07T14:29:52.688Z</time>
      </trkpt>
      <trkpt lat="43.06934333" lon="-0.50230667">
        <ele>997.0</ele>
        <time>2019-07-07T14:29:53.665Z</time>
      </trkpt>
      <trkpt lat="43.06937667" lon="-0.50239833">
        <ele>998.0</ele>
        <time>2019-07-07T14:29:54.673Z</time>
      </trkpt>
      <trkpt lat="43.06937667" lon="-0.50239833">
        <ele>998.0</ele>
        <time>2019-07-07T14:29:55.680Z</time>
      </trkpt>
      <trkpt lat="43.069395" lon="-0.50249167">
        <ele>998.0</ele>
        <time>2019-07-07T14:29:56.687Z</time>
      </trkpt>
      <trkpt lat="43.069395" lon="-0.50249167">
        <ele>998.0</ele>
        <time>2019-07-07T14:29:57.699Z</time>
      </trkpt>
      <trkpt lat="43.06939333" lon="-0.50258833">
        <ele>999.0</ele>
        <time>2019-07-07T14:29:58.696Z</time>
      </trkpt>
      <trkpt lat="43.06939333" lon="-0.50258833">
        <ele>999.0</ele>
        <time>2019-07-07T14:29:59.703Z</time>
      </trkpt>
      <trkpt lat="43.069405" lon="-0.50267667">
        <ele>1000.0</ele>
        <time>2019-07-07T14:30:00.673Z</time>
      </trkpt>
      <trkpt lat="43.06941333" lon="-0.50272333">
        <ele>1001.0</ele>
        <time>2019-07-07T14:30:01.677Z</time>
      </trkpt>
      <trkpt lat="43.06941333" lon="-0.50272333">
        <ele>1001.0</ele>
        <time>2019-07-07T14:30:02.683Z</time>
      </trkpt>
      <trkpt lat="43.06943" lon="-0.50282167">
        <ele>1002.0</ele>
        <time>2019-07-07T14:30:03.702Z</time>
      </trkpt>
      <trkpt lat="43.06943167" lon="-0.50287">
        <ele>1002.0</ele>
        <time>2019-07-07T14:30:04.667Z</time>
      </trkpt>
      <trkpt lat="43.06943167" lon="-0.50287">
        <ele>1002.0</ele>
        <time>2019-07-07T14:30:05.673Z</time>
      </trkpt>
      <trkpt lat="43.069415" lon="-0.50297667">
        <ele>1003.0</ele>
        <time>2019-07-07T14:30:06.690Z</time>
      </trkpt>
      <trkpt lat="43.06941833" lon="-0.50302833">
        <ele>1003.0</ele>
        <time>2019-07-07T14:30:07.672Z</time>
      </trkpt>
      <trkpt lat="43.06941833" lon="-0.50302833">
        <ele>1003.0</ele>
        <time>2019-07-07T14:30:08.678Z</time>
      </trkpt>
      <trkpt lat="43.06941833" lon="-0.50312667">
        <ele>1004.0</ele>
        <time>2019-07-07T14:30:09.680Z</time>
      </trkpt>
      <trkpt lat="43.06941667" lon="-0.503175">
        <ele>1004.0</ele>
        <time>2019-07-07T14:30:10.685Z</time>
      </trkpt>
      <trkpt lat="43.06941667" lon="-0.503175">
        <ele>1004.0</ele>
        <time>2019-07-07T14:30:11.665Z</time>
      </trkpt>
      <trkpt lat="43.06941167" lon="-0.50326833">
        <ele>1005.0</ele>
        <time>2019-07-07T14:30:12.674Z</time>
      </trkpt>
      <trkpt lat="43.069415" lon="-0.503315">
        <ele>1005.0</ele>
        <time>2019-07-07T14:30:13.674Z</time>
      </trkpt>
      <trkpt lat="43.069415" lon="-0.503315">
        <ele>1005.0</ele>
        <time>2019-07-07T14:30:14.680Z</time>
      </trkpt>
      <trkpt lat="43.06941" lon="-0.503405">
        <ele>1005.0</ele>
        <time>2019-07-07T14:30:15.677Z</time>
      </trkpt>
      <trkpt lat="43.069405" lon="-0.503455">
        <ele>1005.0</ele>
        <time>2019-07-07T14:30:16.676Z</time>
      </trkpt>
      <trkpt lat="43.069405" lon="-0.503455">
        <ele>1005.0</ele>
        <time>2019-07-07T14:30:17.682Z</time>
      </trkpt>
      <trkpt lat="43.06941333" lon="-0.50354667">
        <ele>1005.0</ele>
        <time>2019-07-07T14:30:18.680Z</time>
      </trkpt>
      <trkpt lat="43.06941333" lon="-0.50354667">
        <ele>1005.0</ele>
        <time>2019-07-07T14:30:19.686Z</time>
      </trkpt>
      <trkpt lat="43.06939833" lon="-0.50364">
        <ele>1006.0</ele>
        <time>2019-07-07T14:30:20.684Z</time>
      </trkpt>
      <trkpt lat="43.06939" lon="-0.50369">
        <ele>1006.0</ele>
        <time>2019-07-07T14:30:21.702Z</time>
      </trkpt>
      <trkpt lat="43.069395" lon="-0.50374">
        <ele>1006.0</ele>
        <time>2019-07-07T14:30:22.679Z</time>
      </trkpt>
      <trkpt lat="43.069395" lon="-0.50374">
        <ele>1006.0</ele>
        <time>2019-07-07T14:30:23.687Z</time>
      </trkpt>
      <trkpt lat="43.06939833" lon="-0.503825">
        <ele>1006.0</ele>
        <time>2019-07-07T14:30:24.671Z</time>
      </trkpt>
      <trkpt lat="43.06939833" lon="-0.503825">
        <ele>1006.0</ele>
        <time>2019-07-07T14:30:25.678Z</time>
      </trkpt>
      <trkpt lat="43.06938167" lon="-0.50391167">
        <ele>1007.0</ele>
        <time>2019-07-07T14:30:26.696Z</time>
      </trkpt>
      <trkpt lat="43.06936333" lon="-0.50395667">
        <ele>1007.0</ele>
        <time>2019-07-07T14:30:27.704Z</time>
      </trkpt>
      <trkpt lat="43.06934667" lon="-0.50399667">
        <ele>1007.0</ele>
        <time>2019-07-07T14:30:28.673Z</time>
      </trkpt>
      <trkpt lat="43.06934667" lon="-0.50399667">
        <ele>1007.0</ele>
        <time>2019-07-07T14:30:29.680Z</time>
      </trkpt>
      <trkpt lat="43.06932333" lon="-0.50409667">
        <ele>1008.0</ele>
        <time>2019-07-07T14:30:30.680Z</time>
      </trkpt>
      <trkpt lat="43.06932333" lon="-0.50409667">
        <ele>1008.0</ele>
        <time>2019-07-07T14:30:31.686Z</time>
      </trkpt>
      <trkpt lat="43.06932167" lon="-0.504185">
        <ele>1008.0</ele>
        <time>2019-07-07T14:30:32.687Z</time>
      </trkpt>
      <trkpt lat="43.06932167" lon="-0.504185">
        <ele>1008.0</ele>
        <time>2019-07-07T14:30:33.700Z</time>
      </trkpt>
      <trkpt lat="43.06929833" lon="-0.50426">
        <ele>1009.0</ele>
        <time>2019-07-07T14:30:34.690Z</time>
      </trkpt>
      <trkpt lat="43.06924" lon="-0.50438333">
        <ele>1010.0</ele>
        <time>2019-07-07T14:30:35.703Z</time>
      </trkpt>
      <trkpt lat="43.06924" lon="-0.50438333">
        <ele>1010.0</ele>
        <time>2019-07-07T14:30:36.669Z</time>
      </trkpt>
      <trkpt lat="43.06924" lon="-0.50438333">
        <ele>1010.0</ele>
        <time>2019-07-07T14:30:37.675Z</time>
      </trkpt>
      <trkpt lat="43.06922333" lon="-0.50449667">
        <ele>1010.0</ele>
        <time>2019-07-07T14:30:38.681Z</time>
      </trkpt>
      <trkpt lat="43.06922333" lon="-0.50449667">
        <ele>1010.0</ele>
        <time>2019-07-07T14:30:39.686Z</time>
      </trkpt>
      <trkpt lat="43.06920833" lon="-0.504605">
        <ele>1010.0</ele>
        <time>2019-07-07T14:30:40.719Z</time>
      </trkpt>
      <trkpt lat="43.06920833" lon="-0.504605">
        <ele>1010.0</ele>
        <time>2019-07-07T14:30:41.665Z</time>
      </trkpt>
      <trkpt lat="43.0692" lon="-0.50472">
        <ele>1011.0</ele>
        <time>2019-07-07T14:30:42.700Z</time>
      </trkpt>
      <trkpt lat="43.0692" lon="-0.50472">
        <ele>1011.0</ele>
        <time>2019-07-07T14:30:43.667Z</time>
      </trkpt>
      <trkpt lat="43.06920667" lon="-0.50483">
        <ele>1011.0</ele>
        <time>2019-07-07T14:30:44.665Z</time>
      </trkpt>
      <trkpt lat="43.06920667" lon="-0.50483">
        <ele>1011.0</ele>
        <time>2019-07-07T14:30:45.684Z</time>
      </trkpt>
      <trkpt lat="43.06921833" lon="-0.50493667">
        <ele>1011.0</ele>
        <time>2019-07-07T14:30:46.668Z</time>
      </trkpt>
      <trkpt lat="43.06921833" lon="-0.50493667">
        <ele>1011.0</ele>
        <time>2019-07-07T14:30:47.675Z</time>
      </trkpt>
      <trkpt lat="43.069245" lon="-0.50503">
        <ele>1011.0</ele>
        <time>2019-07-07T14:30:48.670Z</time>
      </trkpt>
      <trkpt lat="43.069245" lon="-0.50503">
        <ele>1011.0</ele>
        <time>2019-07-07T14:30:49.676Z</time>
      </trkpt>
      <trkpt lat="43.06927333" lon="-0.50512333">
        <ele>1011.0</ele>
        <time>2019-07-07T14:30:50.675Z</time>
      </trkpt>
      <trkpt lat="43.06928167" lon="-0.50516833">
        <ele>1011.0</ele>
        <time>2019-07-07T14:30:51.671Z</time>
      </trkpt>
      <trkpt lat="43.06928833" lon="-0.50521667">
        <ele>1012.0</ele>
        <time>2019-07-07T14:30:52.669Z</time>
      </trkpt>
      <trkpt lat="43.0693" lon="-0.50525833">
        <ele>1012.0</ele>
        <time>2019-07-07T14:30:53.682Z</time>
      </trkpt>
      <trkpt lat="43.0693" lon="-0.50525833">
        <ele>1012.0</ele>
        <time>2019-07-07T14:30:54.688Z</time>
      </trkpt>
      <trkpt lat="43.06932" lon="-0.505335">
        <ele>1012.0</ele>
        <time>2019-07-07T14:30:55.670Z</time>
      </trkpt>
      <trkpt lat="43.06932833" lon="-0.50537667">
        <ele>1013.0</ele>
        <time>2019-07-07T14:30:56.670Z</time>
      </trkpt>
      <trkpt lat="43.06932833" lon="-0.50537667">
        <ele>1013.0</ele>
        <time>2019-07-07T14:30:57.676Z</time>
      </trkpt>
      <trkpt lat="43.06935667" lon="-0.50545167">
        <ele>1013.0</ele>
        <time>2019-07-07T14:30:58.701Z</time>
      </trkpt>
      <trkpt lat="43.06935667" lon="-0.50545167">
        <ele>1013.0</ele>
        <time>2019-07-07T14:30:59.667Z</time>
      </trkpt>
      <trkpt lat="43.06938167" lon="-0.50553">
        <ele>1013.0</ele>
        <time>2019-07-07T14:31:00.666Z</time>
      </trkpt>
      <trkpt lat="43.06938167" lon="-0.50553">
        <ele>1013.0</ele>
        <time>2019-07-07T14:31:01.673Z</time>
      </trkpt>
      <trkpt lat="43.069425" lon="-0.505595">
        <ele>1014.0</ele>
        <time>2019-07-07T14:31:02.670Z</time>
      </trkpt>
      <trkpt lat="43.069425" lon="-0.505595">
        <ele>1014.0</ele>
        <time>2019-07-07T14:31:03.676Z</time>
      </trkpt>
      <trkpt lat="43.06946833" lon="-0.50567167">
        <ele>1014.0</ele>
        <time>2019-07-07T14:31:04.667Z</time>
      </trkpt>
      <trkpt lat="43.06946833" lon="-0.50567167">
        <ele>1014.0</ele>
        <time>2019-07-07T14:31:05.673Z</time>
      </trkpt>
      <trkpt lat="43.06949333" lon="-0.50575167">
        <ele>1014.0</ele>
        <time>2019-07-07T14:31:06.672Z</time>
      </trkpt>
      <trkpt lat="43.06949333" lon="-0.50575167">
        <ele>1014.0</ele>
        <time>2019-07-07T14:31:07.678Z</time>
      </trkpt>
      <trkpt lat="43.06950667" lon="-0.50584">
        <ele>1014.0</ele>
        <time>2019-07-07T14:31:08.671Z</time>
      </trkpt>
      <trkpt lat="43.06950667" lon="-0.50588167">
        <ele>1015.0</ele>
        <time>2019-07-07T14:31:09.699Z</time>
      </trkpt>
      <trkpt lat="43.06950667" lon="-0.50588167">
        <ele>1015.0</ele>
        <time>2019-07-07T14:31:10.667Z</time>
      </trkpt>
      <trkpt lat="43.069565" lon="-0.50595167">
        <ele>1015.0</ele>
        <time>2019-07-07T14:31:11.677Z</time>
      </trkpt>
      <trkpt lat="43.06957" lon="-0.50599833">
        <ele>1015.0</ele>
        <time>2019-07-07T14:31:12.686Z</time>
      </trkpt>
      <trkpt lat="43.06957" lon="-0.50599833">
        <ele>1015.0</ele>
        <time>2019-07-07T14:31:13.701Z</time>
      </trkpt>
      <trkpt lat="43.06962667" lon="-0.50606667">
        <ele>1016.0</ele>
        <time>2019-07-07T14:31:14.700Z</time>
      </trkpt>
      <trkpt lat="43.06964" lon="-0.50610167">
        <ele>1016.0</ele>
        <time>2019-07-07T14:31:15.666Z</time>
      </trkpt>
      <trkpt lat="43.069665" lon="-0.50613">
        <ele>1016.0</ele>
        <time>2019-07-07T14:31:16.698Z</time>
      </trkpt>
      <trkpt lat="43.069665" lon="-0.50613">
        <ele>1016.0</ele>
        <time>2019-07-07T14:31:17.668Z</time>
      </trkpt>
      <trkpt lat="43.06972167" lon="-0.50616667">
        <ele>1017.0</ele>
        <time>2019-07-07T14:31:18.680Z</time>
      </trkpt>
      <trkpt lat="43.06974333" lon="-0.50617167">
        <ele>1018.0</ele>
        <time>2019-07-07T14:31:19.685Z</time>
      </trkpt>
      <trkpt lat="43.06974333" lon="-0.50617167">
        <ele>1018.0</ele>
        <time>2019-07-07T14:31:20.667Z</time>
      </trkpt>
      <trkpt lat="43.069815" lon="-0.50620667">
        <ele>1018.0</ele>
        <time>2019-07-07T14:31:21.703Z</time>
      </trkpt>
      <trkpt lat="43.069875" lon="-0.50624">
        <ele>1019.0</ele>
        <time>2019-07-07T14:31:22.701Z</time>
      </trkpt>
      <trkpt lat="43.069875" lon="-0.50624">
        <ele>1019.0</ele>
        <time>2019-07-07T14:31:23.666Z</time>
      </trkpt>
      <trkpt lat="43.06995167" lon="-0.50629333">
        <ele>1020.0</ele>
        <time>2019-07-07T14:31:24.702Z</time>
      </trkpt>
      <trkpt lat="43.06995167" lon="-0.50629333">
        <ele>1020.0</ele>
        <time>2019-07-07T14:31:25.668Z</time>
      </trkpt>
      <trkpt lat="43.07002" lon="-0.50635167">
        <ele>1021.0</ele>
        <time>2019-07-07T14:31:26.670Z</time>
      </trkpt>
      <trkpt lat="43.07005833" lon="-0.50638167">
        <ele>1021.0</ele>
        <time>2019-07-07T14:31:27.676Z</time>
      </trkpt>
      <trkpt lat="43.07009833" lon="-0.50640833">
        <ele>1022.0</ele>
        <time>2019-07-07T14:31:28.696Z</time>
      </trkpt>
      <trkpt lat="43.07009833" lon="-0.50640833">
        <ele>1022.0</ele>
        <time>2019-07-07T14:31:29.672Z</time>
      </trkpt>
      <trkpt lat="43.07014833" lon="-0.50648333">
        <ele>1023.0</ele>
        <time>2019-07-07T14:31:30.680Z</time>
      </trkpt>
      <trkpt lat="43.07014833" lon="-0.50648333">
        <ele>1023.0</ele>
        <time>2019-07-07T14:31:31.686Z</time>
      </trkpt>
      <trkpt lat="43.07018333" lon="-0.50656833">
        <ele>1023.0</ele>
        <time>2019-07-07T14:31:32.698Z</time>
      </trkpt>
      <trkpt lat="43.07018333" lon="-0.50656833">
        <ele>1023.0</ele>
        <time>2019-07-07T14:31:33.667Z</time>
      </trkpt>
      <trkpt lat="43.07021667" lon="-0.50663833">
        <ele>1024.0</ele>
        <time>2019-07-07T14:31:34.680Z</time>
      </trkpt>
      <trkpt lat="43.07022667" lon="-0.50668333">
        <ele>1024.0</ele>
        <time>2019-07-07T14:31:35.677Z</time>
      </trkpt>
      <trkpt lat="43.07022667" lon="-0.50668333">
        <ele>1024.0</ele>
        <time>2019-07-07T14:31:36.683Z</time>
      </trkpt>
      <trkpt lat="43.07025667" lon="-0.50677">
        <ele>1024.0</ele>
        <time>2019-07-07T14:31:37.700Z</time>
      </trkpt>
      <trkpt lat="43.07027333" lon="-0.506825">
        <ele>1025.0</ele>
        <time>2019-07-07T14:31:38.671Z</time>
      </trkpt>
      <trkpt lat="43.07027333" lon="-0.506825">
        <ele>1025.0</ele>
        <time>2019-07-07T14:31:39.677Z</time>
      </trkpt>
      <trkpt lat="43.07032167" lon="-0.50690667">
        <ele>1025.0</ele>
        <time>2019-07-07T14:31:40.690Z</time>
      </trkpt>
      <trkpt lat="43.07032167" lon="-0.50690667">
        <ele>1025.0</ele>
        <time>2019-07-07T14:31:41.667Z</time>
      </trkpt>
      <trkpt lat="43.07036333" lon="-0.50698667">
        <ele>1026.0</ele>
        <time>2019-07-07T14:31:42.673Z</time>
      </trkpt>
      <trkpt lat="43.07037833" lon="-0.507035">
        <ele>1027.0</ele>
        <time>2019-07-07T14:31:43.668Z</time>
      </trkpt>
      <trkpt lat="43.07037833" lon="-0.507035">
        <ele>1027.0</ele>
        <time>2019-07-07T14:31:44.674Z</time>
      </trkpt>
      <trkpt lat="43.07040167" lon="-0.507125">
        <ele>1027.0</ele>
        <time>2019-07-07T14:31:45.678Z</time>
      </trkpt>
      <trkpt lat="43.07041667" lon="-0.50717333">
        <ele>1028.0</ele>
        <time>2019-07-07T14:31:46.683Z</time>
      </trkpt>
      <trkpt lat="43.07041667" lon="-0.50717333">
        <ele>1028.0</ele>
        <time>2019-07-07T14:31:47.689Z</time>
      </trkpt>
      <trkpt lat="43.07040333" lon="-0.50725167">
        <ele>1028.0</ele>
        <time>2019-07-07T14:31:48.701Z</time>
      </trkpt>
      <trkpt lat="43.07038167" lon="-0.50728167">
        <ele>1028.0</ele>
        <time>2019-07-07T14:31:49.680Z</time>
      </trkpt>
      <trkpt lat="43.07036333" lon="-0.507305">
        <ele>1029.0</ele>
        <time>2019-07-07T14:31:50.686Z</time>
      </trkpt>
      <trkpt lat="43.07036333" lon="-0.507305">
        <ele>1029.0</ele>
        <time>2019-07-07T14:31:51.667Z</time>
      </trkpt>
      <trkpt lat="43.07035833" lon="-0.507315">
        <ele>1029.0</ele>
        <time>2019-07-07T14:31:52.665Z</time>
      </trkpt>
      <trkpt lat="43.07035833" lon="-0.507315">
        <ele>1029.0</ele>
        <time>2019-07-07T14:31:53.674Z</time>
      </trkpt>
      <trkpt lat="43.07035833" lon="-0.50731167">
        <ele>1029.0</ele>
        <time>2019-07-07T14:31:54.678Z</time>
      </trkpt>
      <trkpt lat="43.07046333" lon="-0.50743167">
        <ele>1025.0</ele>
        <time>2019-07-07T14:31:55.670Z</time>
      </trkpt>
      <trkpt lat="43.07046333" lon="-0.50743167">
        <ele>1025.0</ele>
        <time>2019-07-07T14:31:56.696Z</time>
      </trkpt>
      <trkpt lat="43.07046667" lon="-0.507485">
        <ele>1025.0</ele>
        <time>2019-07-07T14:31:57.693Z</time>
      </trkpt>
      <trkpt lat="43.07047167" lon="-0.50752167">
        <ele>1025.0</ele>
        <time>2019-07-07T14:31:58.704Z</time>
      </trkpt>
      <trkpt lat="43.07047167" lon="-0.50752167">
        <ele>1025.0</ele>
        <time>2019-07-07T14:31:59.686Z</time>
      </trkpt>
      <trkpt lat="43.07048167" lon="-0.50760667">
        <ele>1024.0</ele>
        <time>2019-07-07T14:32:00.686Z</time>
      </trkpt>
      <trkpt lat="43.07048333" lon="-0.50765667">
        <ele>1024.0</ele>
        <time>2019-07-07T14:32:01.682Z</time>
      </trkpt>
      <trkpt lat="43.07048333" lon="-0.50771333">
        <ele>1024.0</ele>
        <time>2019-07-07T14:32:02.702Z</time>
      </trkpt>
      <trkpt lat="43.07048333" lon="-0.50771333">
        <ele>1024.0</ele>
        <time>2019-07-07T14:32:03.667Z</time>
      </trkpt>
      <trkpt lat="43.07046" lon="-0.50784167">
        <ele>1023.0</ele>
        <time>2019-07-07T14:32:04.675Z</time>
      </trkpt>
      <trkpt lat="43.07042833" lon="-0.50790833">
        <ele>1022.0</ele>
        <time>2019-07-07T14:32:05.685Z</time>
      </trkpt>
      <trkpt lat="43.07042833" lon="-0.50790833">
        <ele>1022.0</ele>
        <time>2019-07-07T14:32:06.690Z</time>
      </trkpt>
      <trkpt lat="43.07034667" lon="-0.50804">
        <ele>1021.0</ele>
        <time>2019-07-07T14:32:07.704Z</time>
      </trkpt>
      <trkpt lat="43.07030333" lon="-0.50810167">
        <ele>1020.0</ele>
        <time>2019-07-07T14:32:08.673Z</time>
      </trkpt>
      <trkpt lat="43.07030333" lon="-0.50810167">
        <ele>1020.0</ele>
        <time>2019-07-07T14:32:09.681Z</time>
      </trkpt>
      <trkpt lat="43.07020667" lon="-0.50823">
        <ele>1019.0</ele>
        <time>2019-07-07T14:32:10.685Z</time>
      </trkpt>
      <trkpt lat="43.07016167" lon="-0.50829333">
        <ele>1018.0</ele>
        <time>2019-07-07T14:32:11.695Z</time>
      </trkpt>
      <trkpt lat="43.07016167" lon="-0.50829333">
        <ele>1018.0</ele>
        <time>2019-07-07T14:32:12.703Z</time>
      </trkpt>
      <trkpt lat="43.070065" lon="-0.50842667">
        <ele>1017.0</ele>
        <time>2019-07-07T14:32:13.665Z</time>
      </trkpt>
      <trkpt lat="43.070065" lon="-0.50842667">
        <ele>1017.0</ele>
        <time>2019-07-07T14:32:14.683Z</time>
      </trkpt>
      <trkpt lat="43.06995667" lon="-0.50857667">
        <ele>1016.0</ele>
        <time>2019-07-07T14:32:15.702Z</time>
      </trkpt>
      <trkpt lat="43.06990167" lon="-0.508655">
        <ele>1015.0</ele>
        <time>2019-07-07T14:32:16.700Z</time>
      </trkpt>
      <trkpt lat="43.06984167" lon="-0.50873167">
        <ele>1014.0</ele>
        <time>2019-07-07T14:32:17.685Z</time>
      </trkpt>
      <trkpt lat="43.06984167" lon="-0.50873167">
        <ele>1014.0</ele>
        <time>2019-07-07T14:32:18.688Z</time>
      </trkpt>
      <trkpt lat="43.069725" lon="-0.50887167">
        <ele>1013.0</ele>
        <time>2019-07-07T14:32:19.684Z</time>
      </trkpt>
      <trkpt lat="43.069725" lon="-0.50887167">
        <ele>1013.0</ele>
        <time>2019-07-07T14:32:20.665Z</time>
      </trkpt>
      <trkpt lat="43.06959" lon="-0.509015">
        <ele>1012.0</ele>
        <time>2019-07-07T14:32:21.665Z</time>
      </trkpt>
      <trkpt lat="43.06959" lon="-0.509015">
        <ele>1012.0</ele>
        <time>2019-07-07T14:32:22.690Z</time>
      </trkpt>
      <trkpt lat="43.06944833" lon="-0.50914333">
        <ele>1011.0</ele>
        <time>2019-07-07T14:32:23.687Z</time>
      </trkpt>
      <trkpt lat="43.06944833" lon="-0.50914333">
        <ele>1011.0</ele>
        <time>2019-07-07T14:32:24.699Z</time>
      </trkpt>
      <trkpt lat="43.06929667" lon="-0.509275">
        <ele>1009.0</ele>
        <time>2019-07-07T14:32:25.694Z</time>
      </trkpt>
      <trkpt lat="43.06921333" lon="-0.509345">
        <ele>1008.0</ele>
        <time>2019-07-07T14:32:26.673Z</time>
      </trkpt>
      <trkpt lat="43.06921333" lon="-0.509345">
        <ele>1008.0</ele>
        <time>2019-07-07T14:32:27.667Z</time>
      </trkpt>
      <trkpt lat="43.06903" lon="-0.509495">
        <ele>1007.0</ele>
        <time>2019-07-07T14:32:28.684Z</time>
      </trkpt>
      <trkpt lat="43.06894" lon="-0.509565">
        <ele>1006.0</ele>
        <time>2019-07-07T14:32:29.675Z</time>
      </trkpt>
      <trkpt lat="43.06894" lon="-0.509565">
        <ele>1006.0</ele>
        <time>2019-07-07T14:32:30.681Z</time>
      </trkpt>
      <trkpt lat="43.06876667" lon="-0.50969">
        <ele>1005.0</ele>
        <time>2019-07-07T14:32:31.682Z</time>
      </trkpt>
      <trkpt lat="43.06869" lon="-0.50973833">
        <ele>1004.0</ele>
        <time>2019-07-07T14:32:32.677Z</time>
      </trkpt>
      <trkpt lat="43.06869" lon="-0.50973833">
        <ele>1004.0</ele>
        <time>2019-07-07T14:32:33.687Z</time>
      </trkpt>
      <trkpt lat="43.068575" lon="-0.509845">
        <ele>1002.0</ele>
        <time>2019-07-07T14:32:34.688Z</time>
      </trkpt>
      <trkpt lat="43.068575" lon="-0.509845">
        <ele>1002.0</ele>
        <time>2019-07-07T14:32:35.673Z</time>
      </trkpt>
      <trkpt lat="43.06855167" lon="-0.50996833">
        <ele>1001.0</ele>
        <time>2019-07-07T14:32:36.665Z</time>
      </trkpt>
      <trkpt lat="43.06855167" lon="-0.50996833">
        <ele>1001.0</ele>
        <time>2019-07-07T14:32:37.670Z</time>
      </trkpt>
      <trkpt lat="43.06859833" lon="-0.51005333">
        <ele>1000.0</ele>
        <time>2019-07-07T14:32:38.701Z</time>
      </trkpt>
      <trkpt lat="43.06859833" lon="-0.51005333">
        <ele>1000.0</ele>
        <time>2019-07-07T14:32:39.666Z</time>
      </trkpt>
      <trkpt lat="43.06872" lon="-0.51010833">
        <ele>998.0</ele>
        <time>2019-07-07T14:32:40.699Z</time>
      </trkpt>
      <trkpt lat="43.068815" lon="-0.510135">
        <ele>997.0</ele>
        <time>2019-07-07T14:32:41.665Z</time>
      </trkpt>
      <trkpt lat="43.068815" lon="-0.510135">
        <ele>997.0</ele>
        <time>2019-07-07T14:32:42.667Z</time>
      </trkpt>
      <trkpt lat="43.068955" lon="-0.51016667">
        <ele>996.0</ele>
        <time>2019-07-07T14:32:43.685Z</time>
      </trkpt>
      <trkpt lat="43.069025" lon="-0.51018667">
        <ele>995.0</ele>
        <time>2019-07-07T14:32:44.681Z</time>
      </trkpt>
      <trkpt lat="43.069025" lon="-0.51018667">
        <ele>995.0</ele>
        <time>2019-07-07T14:32:45.668Z</time>
      </trkpt>
      <trkpt lat="43.069165" lon="-0.510215">
        <ele>994.0</ele>
        <time>2019-07-07T14:32:46.665Z</time>
      </trkpt>
      <trkpt lat="43.06925167" lon="-0.51022833">
        <ele>993.0</ele>
        <time>2019-07-07T14:32:47.668Z</time>
      </trkpt>
      <trkpt lat="43.06925167" lon="-0.51022833">
        <ele>993.0</ele>
        <time>2019-07-07T14:32:48.689Z</time>
      </trkpt>
      <trkpt lat="43.06944667" lon="-0.51030167">
        <ele>991.0</ele>
        <time>2019-07-07T14:32:49.665Z</time>
      </trkpt>
      <trkpt lat="43.06953667" lon="-0.51035167">
        <ele>990.0</ele>
        <time>2019-07-07T14:32:50.705Z</time>
      </trkpt>
      <trkpt lat="43.06953667" lon="-0.51035167">
        <ele>990.0</ele>
        <time>2019-07-07T14:32:51.671Z</time>
      </trkpt>
      <trkpt lat="43.06971" lon="-0.51045">
        <ele>989.0</ele>
        <time>2019-07-07T14:32:52.686Z</time>
      </trkpt>
      <trkpt lat="43.06971" lon="-0.51045">
        <ele>989.0</ele>
        <time>2019-07-07T14:32:53.691Z</time>
      </trkpt>
      <trkpt lat="43.06988833" lon="-0.51056">
        <ele>987.0</ele>
        <time>2019-07-07T14:32:54.690Z</time>
      </trkpt>
      <trkpt lat="43.06988833" lon="-0.51056">
        <ele>987.0</ele>
        <time>2019-07-07T14:32:55.695Z</time>
      </trkpt>
      <trkpt lat="43.07003" lon="-0.51074333">
        <ele>985.0</ele>
        <time>2019-07-07T14:32:56.675Z</time>
      </trkpt>
      <trkpt lat="43.07003" lon="-0.51074333">
        <ele>985.0</ele>
        <time>2019-07-07T14:32:57.683Z</time>
      </trkpt>
      <trkpt lat="43.07014333" lon="-0.510995">
        <ele>983.0</ele>
        <time>2019-07-07T14:32:58.682Z</time>
      </trkpt>
      <trkpt lat="43.07019333" lon="-0.51112833">
        <ele>982.0</ele>
        <time>2019-07-07T14:32:59.695Z</time>
      </trkpt>
      <trkpt lat="43.07019333" lon="-0.51112833">
        <ele>982.0</ele>
        <time>2019-07-07T14:33:00.672Z</time>
      </trkpt>
      <trkpt lat="43.07029167" lon="-0.51139">
        <ele>980.0</ele>
        <time>2019-07-07T14:33:01.697Z</time>
      </trkpt>
      <trkpt lat="43.07029167" lon="-0.51139">
        <ele>980.0</ele>
        <time>2019-07-07T14:33:02.676Z</time>
      </trkpt>
      <trkpt lat="43.07035167" lon="-0.511645">
        <ele>979.0</ele>
        <time>2019-07-07T14:33:03.683Z</time>
      </trkpt>
      <trkpt lat="43.07037833" lon="-0.511765">
        <ele>978.0</ele>
        <time>2019-07-07T14:33:04.700Z</time>
      </trkpt>
      <trkpt lat="43.07037833" lon="-0.511765">
        <ele>978.0</ele>
        <time>2019-07-07T14:33:05.665Z</time>
      </trkpt>
      <trkpt lat="43.07037333" lon="-0.51201">
        <ele>976.0</ele>
        <time>2019-07-07T14:33:06.672Z</time>
      </trkpt>
      <trkpt lat="43.07037333" lon="-0.51201">
        <ele>976.0</ele>
        <time>2019-07-07T14:33:07.682Z</time>
      </trkpt>
      <trkpt lat="43.07037667" lon="-0.51223667">
        <ele>973.0</ele>
        <time>2019-07-07T14:33:08.680Z</time>
      </trkpt>
      <trkpt lat="43.07037667" lon="-0.51223667">
        <ele>973.0</ele>
        <time>2019-07-07T14:33:09.685Z</time>
      </trkpt>
      <trkpt lat="43.07049" lon="-0.512425">
        <ele>970.0</ele>
        <time>2019-07-07T14:33:10.679Z</time>
      </trkpt>
      <trkpt lat="43.07055333" lon="-0.51252">
        <ele>968.0</ele>
        <time>2019-07-07T14:33:11.703Z</time>
      </trkpt>
      <trkpt lat="43.07055333" lon="-0.51252">
        <ele>968.0</ele>
        <time>2019-07-07T14:33:12.668Z</time>
      </trkpt>
      <trkpt lat="43.07068333" lon="-0.512745">
        <ele>966.0</ele>
        <time>2019-07-07T14:33:13.685Z</time>
      </trkpt>
      <trkpt lat="43.07068333" lon="-0.512745">
        <ele>966.0</ele>
        <time>2019-07-07T14:33:14.697Z</time>
      </trkpt>
      <trkpt lat="43.07079167" lon="-0.51300167">
        <ele>964.0</ele>
        <time>2019-07-07T14:33:15.675Z</time>
      </trkpt>
      <trkpt lat="43.07081667" lon="-0.51313">
        <ele>962.0</ele>
        <time>2019-07-07T14:33:16.666Z</time>
      </trkpt>
      <trkpt lat="43.070825" lon="-0.51325167">
        <ele>961.0</ele>
        <time>2019-07-07T14:33:17.680Z</time>
      </trkpt>
      <trkpt lat="43.070825" lon="-0.51325167">
        <ele>961.0</ele>
        <time>2019-07-07T14:33:18.666Z</time>
      </trkpt>
      <trkpt lat="43.07083333" lon="-0.51344833">
        <ele>959.0</ele>
        <time>2019-07-07T14:33:19.700Z</time>
      </trkpt>
      <trkpt lat="43.07083333" lon="-0.51344833">
        <ele>959.0</ele>
        <time>2019-07-07T14:33:20.666Z</time>
      </trkpt>
      <trkpt lat="43.07080167" lon="-0.51357">
        <ele>957.0</ele>
        <time>2019-07-07T14:33:21.701Z</time>
      </trkpt>
      <trkpt lat="43.07080167" lon="-0.51357">
        <ele>957.0</ele>
        <time>2019-07-07T14:33:22.666Z</time>
      </trkpt>
      <trkpt lat="43.07077333" lon="-0.51366">
        <ele>955.0</ele>
        <time>2019-07-07T14:33:23.682Z</time>
      </trkpt>
      <trkpt lat="43.07077333" lon="-0.51366">
        <ele>955.0</ele>
        <time>2019-07-07T14:33:24.700Z</time>
      </trkpt>
      <trkpt lat="43.07071333" lon="-0.513775">
        <ele>953.0</ele>
        <time>2019-07-07T14:33:25.675Z</time>
      </trkpt>
      <trkpt lat="43.07068" lon="-0.51384833">
        <ele>951.0</ele>
        <time>2019-07-07T14:33:26.704Z</time>
      </trkpt>
      <trkpt lat="43.07068" lon="-0.51384833">
        <ele>951.0</ele>
        <time>2019-07-07T14:33:27.672Z</time>
      </trkpt>
      <trkpt lat="43.07063167" lon="-0.51401333">
        <ele>949.0</ele>
        <time>2019-07-07T14:33:28.685Z</time>
      </trkpt>
      <trkpt lat="43.07059667" lon="-0.51410667">
        <ele>948.0</ele>
        <time>2019-07-07T14:33:29.665Z</time>
      </trkpt>
      <trkpt lat="43.07059667" lon="-0.51410667">
        <ele>948.0</ele>
        <time>2019-07-07T14:33:30.668Z</time>
      </trkpt>
      <trkpt lat="43.07058833" lon="-0.51432667">
        <ele>945.0</ele>
        <time>2019-07-07T14:33:31.675Z</time>
      </trkpt>
      <trkpt lat="43.07058833" lon="-0.51432667">
        <ele>945.0</ele>
        <time>2019-07-07T14:33:32.682Z</time>
      </trkpt>
      <trkpt lat="43.070565" lon="-0.51457833">
        <ele>943.0</ele>
        <time>2019-07-07T14:33:33.705Z</time>
      </trkpt>
      <trkpt lat="43.070565" lon="-0.51457833">
        <ele>943.0</ele>
        <time>2019-07-07T14:33:34.676Z</time>
      </trkpt>
      <trkpt lat="43.07055667" lon="-0.51481667">
        <ele>941.0</ele>
        <time>2019-07-07T14:33:35.704Z</time>
      </trkpt>
      <trkpt lat="43.07055667" lon="-0.51481667">
        <ele>941.0</ele>
        <time>2019-07-07T14:33:36.686Z</time>
      </trkpt>
      <trkpt lat="43.07057333" lon="-0.51504667">
        <ele>939.0</ele>
        <time>2019-07-07T14:33:37.691Z</time>
      </trkpt>
      <trkpt lat="43.07057833" lon="-0.51515833">
        <ele>938.0</ele>
        <time>2019-07-07T14:33:38.700Z</time>
      </trkpt>
      <trkpt lat="43.07057833" lon="-0.51515833">
        <ele>938.0</ele>
        <time>2019-07-07T14:33:39.681Z</time>
      </trkpt>
      <trkpt lat="43.07058167" lon="-0.515405">
        <ele>936.0</ele>
        <time>2019-07-07T14:33:40.685Z</time>
      </trkpt>
      <trkpt lat="43.070565" lon="-0.515535">
        <ele>935.0</ele>
        <time>2019-07-07T14:33:41.675Z</time>
      </trkpt>
      <trkpt lat="43.070565" lon="-0.515535">
        <ele>935.0</ele>
        <time>2019-07-07T14:33:42.704Z</time>
      </trkpt>
      <trkpt lat="43.07051833" lon="-0.51578833">
        <ele>932.0</ele>
        <time>2019-07-07T14:33:43.702Z</time>
      </trkpt>
      <trkpt lat="43.07051167" lon="-0.51590833">
        <ele>931.0</ele>
        <time>2019-07-07T14:33:44.699Z</time>
      </trkpt>
      <trkpt lat="43.07051167" lon="-0.51590833">
        <ele>931.0</ele>
        <time>2019-07-07T14:33:45.682Z</time>
      </trkpt>
      <trkpt lat="43.07052667" lon="-0.51615667">
        <ele>928.0</ele>
        <time>2019-07-07T14:33:46.705Z</time>
      </trkpt>
      <trkpt lat="43.070555" lon="-0.51628333">
        <ele>926.0</ele>
        <time>2019-07-07T14:33:47.687Z</time>
      </trkpt>
      <trkpt lat="43.070555" lon="-0.51628333">
        <ele>926.0</ele>
        <time>2019-07-07T14:33:48.692Z</time>
      </trkpt>
      <trkpt lat="43.0706" lon="-0.516555">
        <ele>924.0</ele>
        <time>2019-07-07T14:33:49.679Z</time>
      </trkpt>
      <trkpt lat="43.07061167" lon="-0.51670333">
        <ele>922.0</ele>
        <time>2019-07-07T14:33:50.665Z</time>
      </trkpt>
      <trkpt lat="43.07061167" lon="-0.51670333">
        <ele>922.0</ele>
        <time>2019-07-07T14:33:51.702Z</time>
      </trkpt>
      <trkpt lat="43.0706" lon="-0.517">
        <ele>921.0</ele>
        <time>2019-07-07T14:33:52.675Z</time>
      </trkpt>
      <trkpt lat="43.0706" lon="-0.517">
        <ele>921.0</ele>
        <time>2019-07-07T14:33:53.699Z</time>
      </trkpt>
      <trkpt lat="43.07057" lon="-0.51732">
        <ele>918.0</ele>
        <time>2019-07-07T14:33:54.685Z</time>
      </trkpt>
      <trkpt lat="43.07057" lon="-0.51732">
        <ele>918.0</ele>
        <time>2019-07-07T14:33:55.692Z</time>
      </trkpt>
      <trkpt lat="43.07052667" lon="-0.517655">
        <ele>916.0</ele>
        <time>2019-07-07T14:33:56.690Z</time>
      </trkpt>
      <trkpt lat="43.07052667" lon="-0.517655">
        <ele>916.0</ele>
        <time>2019-07-07T14:33:57.704Z</time>
      </trkpt>
      <trkpt lat="43.07047333" lon="-0.517975">
        <ele>914.0</ele>
        <time>2019-07-07T14:33:58.702Z</time>
      </trkpt>
      <trkpt lat="43.07047333" lon="-0.517975">
        <ele>914.0</ele>
        <time>2019-07-07T14:33:59.667Z</time>
      </trkpt>
      <trkpt lat="43.07041833" lon="-0.51828">
        <ele>911.0</ele>
        <time>2019-07-07T14:34:00.665Z</time>
      </trkpt>
      <trkpt lat="43.07041833" lon="-0.51828">
        <ele>911.0</ele>
        <time>2019-07-07T14:34:01.697Z</time>
      </trkpt>
      <trkpt lat="43.07032" lon="-0.51855">
        <ele>908.0</ele>
        <time>2019-07-07T14:34:02.694Z</time>
      </trkpt>
      <trkpt lat="43.07032" lon="-0.51855">
        <ele>908.0</ele>
        <time>2019-07-07T14:34:03.677Z</time>
      </trkpt>
      <trkpt lat="43.07022833" lon="-0.51882333">
        <ele>906.0</ele>
        <time>2019-07-07T14:34:04.686Z</time>
      </trkpt>
      <trkpt lat="43.07018667" lon="-0.51896833">
        <ele>904.0</ele>
        <time>2019-07-07T14:34:05.695Z</time>
      </trkpt>
      <trkpt lat="43.07018667" lon="-0.51896833">
        <ele>904.0</ele>
        <time>2019-07-07T14:34:06.672Z</time>
      </trkpt>
      <trkpt lat="43.07009" lon="-0.519235">
        <ele>902.0</ele>
        <time>2019-07-07T14:34:07.690Z</time>
      </trkpt>
      <trkpt lat="43.07007" lon="-0.519375">
        <ele>900.0</ele>
        <time>2019-07-07T14:34:08.665Z</time>
      </trkpt>
      <trkpt lat="43.07007333" lon="-0.51952167">
        <ele>899.0</ele>
        <time>2019-07-07T14:34:09.693Z</time>
      </trkpt>
      <trkpt lat="43.07007333" lon="-0.51952167">
        <ele>899.0</ele>
        <time>2019-07-07T14:34:10.698Z</time>
      </trkpt>
      <trkpt lat="43.070095" lon="-0.519815">
        <ele>896.0</ele>
        <time>2019-07-07T14:34:11.690Z</time>
      </trkpt>
      <trkpt lat="43.070095" lon="-0.519815">
        <ele>896.0</ele>
        <time>2019-07-07T14:34:12.700Z</time>
      </trkpt>
      <trkpt lat="43.07015" lon="-0.52012167">
        <ele>895.0</ele>
        <time>2019-07-07T14:34:13.701Z</time>
      </trkpt>
      <trkpt lat="43.07016833" lon="-0.52028167">
        <ele>894.0</ele>
        <time>2019-07-07T14:34:14.678Z</time>
      </trkpt>
      <trkpt lat="43.07016833" lon="-0.52028167">
        <ele>894.0</ele>
        <time>2019-07-07T14:34:15.670Z</time>
      </trkpt>
      <trkpt lat="43.07018" lon="-0.52061167">
        <ele>892.0</ele>
        <time>2019-07-07T14:34:16.685Z</time>
      </trkpt>
      <trkpt lat="43.07018" lon="-0.52061167">
        <ele>892.0</ele>
        <time>2019-07-07T14:34:17.699Z</time>
      </trkpt>
      <trkpt lat="43.07015" lon="-0.52095167">
        <ele>889.0</ele>
        <time>2019-07-07T14:34:18.669Z</time>
      </trkpt>
      <trkpt lat="43.07015" lon="-0.52095167">
        <ele>889.0</ele>
        <time>2019-07-07T14:34:19.680Z</time>
      </trkpt>
      <trkpt lat="43.07012667" lon="-0.52127167">
        <ele>886.0</ele>
        <time>2019-07-07T14:34:20.695Z</time>
      </trkpt>
      <trkpt lat="43.07012667" lon="-0.52127167">
        <ele>886.0</ele>
        <time>2019-07-07T14:34:21.669Z</time>
      </trkpt>
      <trkpt lat="43.07009833" lon="-0.521555">
        <ele>883.0</ele>
        <time>2019-07-07T14:34:22.691Z</time>
      </trkpt>
      <trkpt lat="43.07008667" lon="-0.521685">
        <ele>881.0</ele>
        <time>2019-07-07T14:34:23.691Z</time>
      </trkpt>
      <trkpt lat="43.07008667" lon="-0.521685">
        <ele>881.0</ele>
        <time>2019-07-07T14:34:24.696Z</time>
      </trkpt>
      <trkpt lat="43.07011667" lon="-0.52199">
        <ele>879.0</ele>
        <time>2019-07-07T14:34:25.695Z</time>
      </trkpt>
      <trkpt lat="43.07011667" lon="-0.52199">
        <ele>879.0</ele>
        <time>2019-07-07T14:34:26.702Z</time>
      </trkpt>
      <trkpt lat="43.070135" lon="-0.52231">
        <ele>875.0</ele>
        <time>2019-07-07T14:34:27.703Z</time>
      </trkpt>
      <trkpt lat="43.07015167" lon="-0.52248">
        <ele>874.0</ele>
        <time>2019-07-07T14:34:28.683Z</time>
      </trkpt>
      <trkpt lat="43.07015167" lon="-0.52248">
        <ele>874.0</ele>
        <time>2019-07-07T14:34:29.690Z</time>
      </trkpt>
      <trkpt lat="43.07020333" lon="-0.52281833">
        <ele>871.0</ele>
        <time>2019-07-07T14:34:30.695Z</time>
      </trkpt>
      <trkpt lat="43.07020333" lon="-0.52281833">
        <ele>871.0</ele>
        <time>2019-07-07T14:34:31.667Z</time>
      </trkpt>
      <trkpt lat="43.07026833" lon="-0.52314667">
        <ele>867.0</ele>
        <time>2019-07-07T14:34:32.683Z</time>
      </trkpt>
      <trkpt lat="43.07026833" lon="-0.52314667">
        <ele>867.0</ele>
        <time>2019-07-07T14:34:33.675Z</time>
      </trkpt>
      <trkpt lat="43.07037167" lon="-0.52348833">
        <ele>864.0</ele>
        <time>2019-07-07T14:34:34.665Z</time>
      </trkpt>
      <trkpt lat="43.07037167" lon="-0.52348833">
        <ele>864.0</ele>
        <time>2019-07-07T14:34:35.697Z</time>
      </trkpt>
      <trkpt lat="43.07049167" lon="-0.52382167">
        <ele>860.0</ele>
        <time>2019-07-07T14:34:36.694Z</time>
      </trkpt>
      <trkpt lat="43.07049167" lon="-0.52382167">
        <ele>860.0</ele>
        <time>2019-07-07T14:34:37.703Z</time>
      </trkpt>
      <trkpt lat="43.07059667" lon="-0.52416667">
        <ele>857.0</ele>
        <time>2019-07-07T14:34:38.670Z</time>
      </trkpt>
      <trkpt lat="43.07059667" lon="-0.52416667">
        <ele>857.0</ele>
        <time>2019-07-07T14:34:39.701Z</time>
      </trkpt>
      <trkpt lat="43.07070167" lon="-0.52452833">
        <ele>853.0</ele>
        <time>2019-07-07T14:34:40.665Z</time>
      </trkpt>
      <trkpt lat="43.07074833" lon="-0.52471333">
        <ele>851.0</ele>
        <time>2019-07-07T14:34:41.695Z</time>
      </trkpt>
      <trkpt lat="43.07074833" lon="-0.52471333">
        <ele>851.0</ele>
        <time>2019-07-07T14:34:42.668Z</time>
      </trkpt>
      <trkpt lat="43.07084333" lon="-0.525075">
        <ele>847.0</ele>
        <time>2019-07-07T14:34:43.673Z</time>
      </trkpt>
      <trkpt lat="43.07084333" lon="-0.525075">
        <ele>847.0</ele>
        <time>2019-07-07T14:34:44.693Z</time>
      </trkpt>
      <trkpt lat="43.07093833" lon="-0.52543">
        <ele>842.0</ele>
        <time>2019-07-07T14:34:45.695Z</time>
      </trkpt>
      <trkpt lat="43.07093833" lon="-0.52543">
        <ele>842.0</ele>
        <time>2019-07-07T14:34:46.694Z</time>
      </trkpt>
      <trkpt lat="43.07104" lon="-0.52577">
        <ele>837.0</ele>
        <time>2019-07-07T14:34:47.678Z</time>
      </trkpt>
      <trkpt lat="43.07104" lon="-0.52577">
        <ele>837.0</ele>
        <time>2019-07-07T14:34:48.694Z</time>
      </trkpt>
      <trkpt lat="43.07116167" lon="-0.526105">
        <ele>832.0</ele>
        <time>2019-07-07T14:34:49.682Z</time>
      </trkpt>
      <trkpt lat="43.07116167" lon="-0.526105">
        <ele>832.0</ele>
        <time>2019-07-07T14:34:50.687Z</time>
      </trkpt>
      <trkpt lat="43.071265" lon="-0.52645667">
        <ele>828.0</ele>
        <time>2019-07-07T14:34:51.685Z</time>
      </trkpt>
      <trkpt lat="43.071305" lon="-0.52664">
        <ele>827.0</ele>
        <time>2019-07-07T14:34:52.682Z</time>
      </trkpt>
      <trkpt lat="43.071305" lon="-0.52664">
        <ele>827.0</ele>
        <time>2019-07-07T14:34:53.666Z</time>
      </trkpt>
      <trkpt lat="43.07139167" lon="-0.52701167">
        <ele>822.0</ele>
        <time>2019-07-07T14:34:54.673Z</time>
      </trkpt>
      <trkpt lat="43.07139167" lon="-0.52701167">
        <ele>822.0</ele>
        <time>2019-07-07T14:34:55.698Z</time>
      </trkpt>
      <trkpt lat="43.07147167" lon="-0.52734833">
        <ele>819.0</ele>
        <time>2019-07-07T14:34:56.670Z</time>
      </trkpt>
      <trkpt lat="43.07147167" lon="-0.52734833">
        <ele>819.0</ele>
        <time>2019-07-07T14:34:57.693Z</time>
      </trkpt>
      <trkpt lat="43.071535" lon="-0.52764833">
        <ele>816.0</ele>
        <time>2019-07-07T14:34:58.694Z</time>
      </trkpt>
      <trkpt lat="43.07155833" lon="-0.52777833">
        <ele>814.0</ele>
        <time>2019-07-07T14:34:59.673Z</time>
      </trkpt>
      <trkpt lat="43.07155833" lon="-0.52777833">
        <ele>814.0</ele>
        <time>2019-07-07T14:35:00.666Z</time>
      </trkpt>
      <trkpt lat="43.07167333" lon="-0.52799667">
        <ele>810.0</ele>
        <time>2019-07-07T14:35:01.680Z</time>
      </trkpt>
      <trkpt lat="43.07167333" lon="-0.52799667">
        <ele>810.0</ele>
        <time>2019-07-07T14:35:02.686Z</time>
      </trkpt>
      <trkpt lat="43.07186667" lon="-0.52807333">
        <ele>808.0</ele>
        <time>2019-07-07T14:35:03.683Z</time>
      </trkpt>
      <trkpt lat="43.07186667" lon="-0.52807333">
        <ele>808.0</ele>
        <time>2019-07-07T14:35:04.698Z</time>
      </trkpt>
      <trkpt lat="43.0721" lon="-0.52812">
        <ele>805.0</ele>
        <time>2019-07-07T14:35:05.690Z</time>
      </trkpt>
      <trkpt lat="43.0721" lon="-0.52812">
        <ele>805.0</ele>
        <time>2019-07-07T14:35:06.684Z</time>
      </trkpt>
      <trkpt lat="43.07229667" lon="-0.528295">
        <ele>801.0</ele>
        <time>2019-07-07T14:35:07.690Z</time>
      </trkpt>
      <trkpt lat="43.07229667" lon="-0.528295">
        <ele>801.0</ele>
        <time>2019-07-07T14:35:08.697Z</time>
      </trkpt>
      <trkpt lat="43.07243167" lon="-0.52857333">
        <ele>799.0</ele>
        <time>2019-07-07T14:35:09.693Z</time>
      </trkpt>
      <trkpt lat="43.07243167" lon="-0.52857333">
        <ele>799.0</ele>
        <time>2019-07-07T14:35:10.670Z</time>
      </trkpt>
      <trkpt lat="43.072525" lon="-0.52889">
        <ele>796.0</ele>
        <time>2019-07-07T14:35:11.686Z</time>
      </trkpt>
      <trkpt lat="43.072525" lon="-0.52889">
        <ele>796.0</ele>
        <time>2019-07-07T14:35:12.665Z</time>
      </trkpt>
      <trkpt lat="43.07263667" lon="-0.52919333">
        <ele>793.0</ele>
        <time>2019-07-07T14:35:13.695Z</time>
      </trkpt>
      <trkpt lat="43.07271667" lon="-0.52933333">
        <ele>791.0</ele>
        <time>2019-07-07T14:35:14.675Z</time>
      </trkpt>
      <trkpt lat="43.07280333" lon="-0.52947167">
        <ele>790.0</ele>
        <time>2019-07-07T14:35:15.690Z</time>
      </trkpt>
      <trkpt lat="43.07280333" lon="-0.52947167">
        <ele>790.0</ele>
        <time>2019-07-07T14:35:16.668Z</time>
      </trkpt>
      <trkpt lat="43.07299833" lon="-0.52972833">
        <ele>788.0</ele>
        <time>2019-07-07T14:35:17.667Z</time>
      </trkpt>
      <trkpt lat="43.07299833" lon="-0.52972833">
        <ele>788.0</ele>
        <time>2019-07-07T14:35:18.667Z</time>
      </trkpt>
      <trkpt lat="43.07319333" lon="-0.52992833">
        <ele>784.0</ele>
        <time>2019-07-07T14:35:19.705Z</time>
      </trkpt>
      <trkpt lat="43.073295" lon="-0.530015">
        <ele>783.0</ele>
        <time>2019-07-07T14:35:20.685Z</time>
      </trkpt>
      <trkpt lat="43.073295" lon="-0.530015">
        <ele>783.0</ele>
        <time>2019-07-07T14:35:21.667Z</time>
      </trkpt>
      <trkpt lat="43.07346" lon="-0.53023333">
        <ele>778.0</ele>
        <time>2019-07-07T14:35:22.665Z</time>
      </trkpt>
      <trkpt lat="43.07349833" lon="-0.53040167">
        <ele>775.0</ele>
        <time>2019-07-07T14:35:23.695Z</time>
      </trkpt>
      <trkpt lat="43.07349833" lon="-0.53040167">
        <ele>775.0</ele>
        <time>2019-07-07T14:35:24.701Z</time>
      </trkpt>
      <trkpt lat="43.07353" lon="-0.53076833">
        <ele>771.0</ele>
        <time>2019-07-07T14:35:25.665Z</time>
      </trkpt>
      <trkpt lat="43.07352833" lon="-0.53095833">
        <ele>769.0</ele>
        <time>2019-07-07T14:35:26.693Z</time>
      </trkpt>
      <trkpt lat="43.07352833" lon="-0.53095833">
        <ele>769.0</ele>
        <time>2019-07-07T14:35:27.683Z</time>
      </trkpt>
      <trkpt lat="43.07349333" lon="-0.53133167">
        <ele>764.0</ele>
        <time>2019-07-07T14:35:28.704Z</time>
      </trkpt>
      <trkpt lat="43.07343833" lon="-0.53150833">
        <ele>762.0</ele>
        <time>2019-07-07T14:35:29.704Z</time>
      </trkpt>
      <trkpt lat="43.07343833" lon="-0.53150833">
        <ele>762.0</ele>
        <time>2019-07-07T14:35:30.672Z</time>
      </trkpt>
      <trkpt lat="43.07328167" lon="-0.53184167">
        <ele>757.0</ele>
        <time>2019-07-07T14:35:31.681Z</time>
      </trkpt>
      <trkpt lat="43.073195" lon="-0.53199333">
        <ele>755.0</ele>
        <time>2019-07-07T14:35:32.695Z</time>
      </trkpt>
      <trkpt lat="43.073195" lon="-0.53199333">
        <ele>755.0</ele>
        <time>2019-07-07T14:35:33.671Z</time>
      </trkpt>
      <trkpt lat="43.07302833" lon="-0.53229333">
        <ele>750.0</ele>
        <time>2019-07-07T14:35:34.696Z</time>
      </trkpt>
      <trkpt lat="43.07296" lon="-0.53245667">
        <ele>748.0</ele>
        <time>2019-07-07T14:35:35.702Z</time>
      </trkpt>
      <trkpt lat="43.07296" lon="-0.53245667">
        <ele>748.0</ele>
        <time>2019-07-07T14:35:36.670Z</time>
      </trkpt>
      <trkpt lat="43.07288833" lon="-0.53282">
        <ele>745.0</ele>
        <time>2019-07-07T14:35:37.666Z</time>
      </trkpt>
      <trkpt lat="43.07287667" lon="-0.53301167">
        <ele>743.0</ele>
        <time>2019-07-07T14:35:38.668Z</time>
      </trkpt>
      <trkpt lat="43.07287667" lon="-0.53301167">
        <ele>743.0</ele>
        <time>2019-07-07T14:35:39.685Z</time>
      </trkpt>
      <trkpt lat="43.07289667" lon="-0.53339167">
        <ele>739.0</ele>
        <time>2019-07-07T14:35:40.715Z</time>
      </trkpt>
      <trkpt lat="43.072915" lon="-0.53358">
        <ele>738.0</ele>
        <time>2019-07-07T14:35:41.692Z</time>
      </trkpt>
      <trkpt lat="43.072915" lon="-0.53358">
        <ele>738.0</ele>
        <time>2019-07-07T14:35:42.689Z</time>
      </trkpt>
      <trkpt lat="43.07298167" lon="-0.533945">
        <ele>734.0</ele>
        <time>2019-07-07T14:35:43.675Z</time>
      </trkpt>
      <trkpt lat="43.07304333" lon="-0.53411833">
        <ele>732.0</ele>
        <time>2019-07-07T14:35:44.686Z</time>
      </trkpt>
      <trkpt lat="43.07304333" lon="-0.53411833">
        <ele>732.0</ele>
        <time>2019-07-07T14:35:45.674Z</time>
      </trkpt>
      <trkpt lat="43.07318333" lon="-0.53443333">
        <ele>728.0</ele>
        <time>2019-07-07T14:35:46.685Z</time>
      </trkpt>
      <trkpt lat="43.073245" lon="-0.53459">
        <ele>726.0</ele>
        <time>2019-07-07T14:35:47.665Z</time>
      </trkpt>
      <trkpt lat="43.073245" lon="-0.53459">
        <ele>726.0</ele>
        <time>2019-07-07T14:35:48.671Z</time>
      </trkpt>
      <trkpt lat="43.07333167" lon="-0.53494833">
        <ele>722.0</ele>
        <time>2019-07-07T14:35:49.680Z</time>
      </trkpt>
      <trkpt lat="43.07333167" lon="-0.53494833">
        <ele>722.0</ele>
        <time>2019-07-07T14:35:50.682Z</time>
      </trkpt>
      <trkpt lat="43.07337" lon="-0.53533333">
        <ele>718.0</ele>
        <time>2019-07-07T14:35:51.671Z</time>
      </trkpt>
      <trkpt lat="43.073385" lon="-0.53552667">
        <ele>716.0</ele>
        <time>2019-07-07T14:35:52.673Z</time>
      </trkpt>
      <trkpt lat="43.073385" lon="-0.53552667">
        <ele>716.0</ele>
        <time>2019-07-07T14:35:53.680Z</time>
      </trkpt>
      <trkpt lat="43.07342" lon="-0.53589667">
        <ele>713.0</ele>
        <time>2019-07-07T14:35:54.705Z</time>
      </trkpt>
      <trkpt lat="43.07342" lon="-0.53589667">
        <ele>713.0</ele>
        <time>2019-07-07T14:35:55.687Z</time>
      </trkpt>
      <trkpt lat="43.07341333" lon="-0.53627833">
        <ele>710.0</ele>
        <time>2019-07-07T14:35:56.685Z</time>
      </trkpt>
      <trkpt lat="43.07341333" lon="-0.53627833">
        <ele>710.0</ele>
        <time>2019-07-07T14:35:57.666Z</time>
      </trkpt>
      <trkpt lat="43.07336167" lon="-0.53668">
        <ele>707.0</ele>
        <time>2019-07-07T14:35:58.684Z</time>
      </trkpt>
      <trkpt lat="43.073325" lon="-0.53688333">
        <ele>705.0</ele>
        <time>2019-07-07T14:35:59.695Z</time>
      </trkpt>
      <trkpt lat="43.073325" lon="-0.53688333">
        <ele>705.0</ele>
        <time>2019-07-07T14:36:00.666Z</time>
      </trkpt>
      <trkpt lat="43.073275" lon="-0.53728167">
        <ele>702.0</ele>
        <time>2019-07-07T14:36:01.680Z</time>
      </trkpt>
      <trkpt lat="43.07326667" lon="-0.53749167">
        <ele>700.0</ele>
        <time>2019-07-07T14:36:02.695Z</time>
      </trkpt>
      <trkpt lat="43.07326667" lon="-0.53749167">
        <ele>700.0</ele>
        <time>2019-07-07T14:36:03.671Z</time>
      </trkpt>
      <trkpt lat="43.07327833" lon="-0.53790333">
        <ele>697.0</ele>
        <time>2019-07-07T14:36:04.686Z</time>
      </trkpt>
      <trkpt lat="43.07329667" lon="-0.53810667">
        <ele>695.0</ele>
        <time>2019-07-07T14:36:05.669Z</time>
      </trkpt>
      <trkpt lat="43.07329667" lon="-0.53810667">
        <ele>695.0</ele>
        <time>2019-07-07T14:36:06.688Z</time>
      </trkpt>
      <trkpt lat="43.07335" lon="-0.53851">
        <ele>691.0</ele>
        <time>2019-07-07T14:36:07.705Z</time>
      </trkpt>
      <trkpt lat="43.07335" lon="-0.53851">
        <ele>691.0</ele>
        <time>2019-07-07T14:36:08.665Z</time>
      </trkpt>
      <trkpt lat="43.07342833" lon="-0.53889333">
        <ele>688.0</ele>
        <time>2019-07-07T14:36:09.681Z</time>
      </trkpt>
      <trkpt lat="43.07342833" lon="-0.53889333">
        <ele>688.0</ele>
        <time>2019-07-07T14:36:10.702Z</time>
      </trkpt>
      <trkpt lat="43.07354333" lon="-0.53928167">
        <ele>683.0</ele>
        <time>2019-07-07T14:36:11.667Z</time>
      </trkpt>
      <trkpt lat="43.07354333" lon="-0.53928167">
        <ele>683.0</ele>
        <time>2019-07-07T14:36:12.694Z</time>
      </trkpt>
      <trkpt lat="43.07372333" lon="-0.53965">
        <ele>679.0</ele>
        <time>2019-07-07T14:36:13.682Z</time>
      </trkpt>
      <trkpt lat="43.07372333" lon="-0.53965">
        <ele>679.0</ele>
        <time>2019-07-07T14:36:14.703Z</time>
      </trkpt>
      <trkpt lat="43.07392" lon="-0.54000833">
        <ele>675.0</ele>
        <time>2019-07-07T14:36:15.670Z</time>
      </trkpt>
      <trkpt lat="43.07392" lon="-0.54000833">
        <ele>675.0</ele>
        <time>2019-07-07T14:36:16.693Z</time>
      </trkpt>
      <trkpt lat="43.07411" lon="-0.54035833">
        <ele>671.0</ele>
        <time>2019-07-07T14:36:17.693Z</time>
      </trkpt>
      <trkpt lat="43.07411" lon="-0.54035833">
        <ele>671.0</ele>
        <time>2019-07-07T14:36:18.676Z</time>
      </trkpt>
      <trkpt lat="43.074295" lon="-0.54070333">
        <ele>667.0</ele>
        <time>2019-07-07T14:36:19.692Z</time>
      </trkpt>
      <trkpt lat="43.074295" lon="-0.54070333">
        <ele>667.0</ele>
        <time>2019-07-07T14:36:20.666Z</time>
      </trkpt>
      <trkpt lat="43.07443667" lon="-0.541065">
        <ele>662.0</ele>
        <time>2019-07-07T14:36:21.695Z</time>
      </trkpt>
      <trkpt lat="43.07449833" lon="-0.54124833">
        <ele>659.0</ele>
        <time>2019-07-07T14:36:22.697Z</time>
      </trkpt>
      <trkpt lat="43.07449833" lon="-0.54124833">
        <ele>659.0</ele>
        <time>2019-07-07T14:36:23.682Z</time>
      </trkpt>
      <trkpt lat="43.07459333" lon="-0.54162667">
        <ele>654.0</ele>
        <time>2019-07-07T14:36:24.694Z</time>
      </trkpt>
      <trkpt lat="43.07459333" lon="-0.54162667">
        <ele>654.0</ele>
        <time>2019-07-07T14:36:25.676Z</time>
      </trkpt>
      <trkpt lat="43.07462" lon="-0.54203333">
        <ele>649.0</ele>
        <time>2019-07-07T14:36:26.684Z</time>
      </trkpt>
      <trkpt lat="43.07462" lon="-0.54203333">
        <ele>649.0</ele>
        <time>2019-07-07T14:36:27.701Z</time>
      </trkpt>
      <trkpt lat="43.07458333" lon="-0.54245833">
        <ele>646.0</ele>
        <time>2019-07-07T14:36:28.695Z</time>
      </trkpt>
      <trkpt lat="43.074565" lon="-0.54266167">
        <ele>645.0</ele>
        <time>2019-07-07T14:36:29.672Z</time>
      </trkpt>
      <trkpt lat="43.074565" lon="-0.54266167">
        <ele>645.0</ele>
        <time>2019-07-07T14:36:30.689Z</time>
      </trkpt>
      <trkpt lat="43.07456667" lon="-0.54303333">
        <ele>641.0</ele>
        <time>2019-07-07T14:36:31.665Z</time>
      </trkpt>
      <trkpt lat="43.07456667" lon="-0.54303333">
        <ele>641.0</ele>
        <time>2019-07-07T14:36:32.693Z</time>
      </trkpt>
      <trkpt lat="43.07461667" lon="-0.54333833">
        <ele>638.0</ele>
        <time>2019-07-07T14:36:33.684Z</time>
      </trkpt>
      <trkpt lat="43.07466" lon="-0.54347">
        <ele>636.0</ele>
        <time>2019-07-07T14:36:34.686Z</time>
      </trkpt>
      <trkpt lat="43.07466" lon="-0.54347">
        <ele>636.0</ele>
        <time>2019-07-07T14:36:35.692Z</time>
      </trkpt>
      <trkpt lat="43.074755" lon="-0.54375333">
        <ele>634.0</ele>
        <time>2019-07-07T14:36:36.695Z</time>
      </trkpt>
      <trkpt lat="43.074755" lon="-0.54375333">
        <ele>634.0</ele>
        <time>2019-07-07T14:36:37.673Z</time>
      </trkpt>
      <trkpt lat="43.07480833" lon="-0.54408333">
        <ele>631.0</ele>
        <time>2019-07-07T14:36:38.671Z</time>
      </trkpt>
      <trkpt lat="43.07480333" lon="-0.544265">
        <ele>629.0</ele>
        <time>2019-07-07T14:36:39.687Z</time>
      </trkpt>
      <trkpt lat="43.07480333" lon="-0.544265">
        <ele>629.0</ele>
        <time>2019-07-07T14:36:40.695Z</time>
      </trkpt>
      <trkpt lat="43.074735" lon="-0.54462833">
        <ele>626.0</ele>
        <time>2019-07-07T14:36:41.675Z</time>
      </trkpt>
      <trkpt lat="43.074735" lon="-0.54462833">
        <ele>626.0</ele>
        <time>2019-07-07T14:36:42.694Z</time>
      </trkpt>
      <trkpt lat="43.07467167" lon="-0.54499">
        <ele>622.0</ele>
        <time>2019-07-07T14:36:43.693Z</time>
      </trkpt>
      <trkpt lat="43.07467167" lon="-0.54499">
        <ele>622.0</ele>
        <time>2019-07-07T14:36:44.700Z</time>
      </trkpt>
      <trkpt lat="43.07467667" lon="-0.54536667">
        <ele>619.0</ele>
        <time>2019-07-07T14:36:45.686Z</time>
      </trkpt>
      <trkpt lat="43.07467667" lon="-0.54536667">
        <ele>619.0</ele>
        <time>2019-07-07T14:36:46.686Z</time>
      </trkpt>
      <trkpt lat="43.07477167" lon="-0.54574333">
        <ele>616.0</ele>
        <time>2019-07-07T14:36:47.695Z</time>
      </trkpt>
      <trkpt lat="43.07477167" lon="-0.54574333">
        <ele>616.0</ele>
        <time>2019-07-07T14:36:48.685Z</time>
      </trkpt>
      <trkpt lat="43.07487833" lon="-0.54612167">
        <ele>612.0</ele>
        <time>2019-07-07T14:36:49.695Z</time>
      </trkpt>
      <trkpt lat="43.07492833" lon="-0.54632">
        <ele>611.0</ele>
        <time>2019-07-07T14:36:50.692Z</time>
      </trkpt>
      <trkpt lat="43.07492833" lon="-0.54632">
        <ele>611.0</ele>
        <time>2019-07-07T14:36:51.701Z</time>
      </trkpt>
      <trkpt lat="43.07498333" lon="-0.54673833">
        <ele>608.0</ele>
        <time>2019-07-07T14:36:52.694Z</time>
      </trkpt>
      <trkpt lat="43.07498333" lon="-0.54673833">
        <ele>608.0</ele>
        <time>2019-07-07T14:36:53.702Z</time>
      </trkpt>
      <trkpt lat="43.075025" lon="-0.547175">
        <ele>604.0</ele>
        <time>2019-07-07T14:36:54.686Z</time>
      </trkpt>
      <trkpt lat="43.07505167" lon="-0.547395">
        <ele>602.0</ele>
        <time>2019-07-07T14:36:55.684Z</time>
      </trkpt>
      <trkpt lat="43.07505167" lon="-0.547395">
        <ele>602.0</ele>
        <time>2019-07-07T14:36:56.670Z</time>
      </trkpt>
      <trkpt lat="43.0751" lon="-0.54784667">
        <ele>597.0</ele>
        <time>2019-07-07T14:36:57.672Z</time>
      </trkpt>
      <trkpt lat="43.0751" lon="-0.54784667">
        <ele>597.0</ele>
        <time>2019-07-07T14:36:58.689Z</time>
      </trkpt>
      <trkpt lat="43.07514" lon="-0.548315">
        <ele>593.0</ele>
        <time>2019-07-07T14:36:59.685Z</time>
      </trkpt>
      <trkpt lat="43.07514" lon="-0.548315">
        <ele>593.0</ele>
        <time>2019-07-07T14:37:00.689Z</time>
      </trkpt>
      <trkpt lat="43.07519" lon="-0.54878333">
        <ele>589.0</ele>
        <time>2019-07-07T14:37:01.695Z</time>
      </trkpt>
      <trkpt lat="43.07519" lon="-0.54878333">
        <ele>589.0</ele>
        <time>2019-07-07T14:37:02.671Z</time>
      </trkpt>
      <trkpt lat="43.075245" lon="-0.54925333">
        <ele>584.0</ele>
        <time>2019-07-07T14:37:03.675Z</time>
      </trkpt>
      <trkpt lat="43.075245" lon="-0.54925333">
        <ele>584.0</ele>
        <time>2019-07-07T14:37:04.668Z</time>
      </trkpt>
      <trkpt lat="43.0753" lon="-0.54972333">
        <ele>579.0</ele>
        <time>2019-07-07T14:37:05.675Z</time>
      </trkpt>
      <trkpt lat="43.0753" lon="-0.54972333">
        <ele>579.0</ele>
        <time>2019-07-07T14:37:06.703Z</time>
      </trkpt>
      <trkpt lat="43.075375" lon="-0.55017833">
        <ele>577.0</ele>
        <time>2019-07-07T14:37:07.690Z</time>
      </trkpt>
      <trkpt lat="43.07539667" lon="-0.55038667">
        <ele>574.0</ele>
        <time>2019-07-07T14:37:08.695Z</time>
      </trkpt>
      <trkpt lat="43.07542333" lon="-0.55059">
        <ele>573.0</ele>
        <time>2019-07-07T14:37:09.685Z</time>
      </trkpt>
      <trkpt lat="43.07542333" lon="-0.55059">
        <ele>573.0</ele>
        <time>2019-07-07T14:37:10.700Z</time>
      </trkpt>
      <trkpt lat="43.07545167" lon="-0.550985">
        <ele>569.0</ele>
        <time>2019-07-07T14:37:11.695Z</time>
      </trkpt>
      <trkpt lat="43.07545167" lon="-0.550985">
        <ele>569.0</ele>
        <time>2019-07-07T14:37:12.679Z</time>
      </trkpt>
      <trkpt lat="43.07543167" lon="-0.551385">
        <ele>565.0</ele>
        <time>2019-07-07T14:37:13.685Z</time>
      </trkpt>
      <trkpt lat="43.07539833" lon="-0.55158167">
        <ele>563.0</ele>
        <time>2019-07-07T14:37:14.680Z</time>
      </trkpt>
      <trkpt lat="43.07539833" lon="-0.55158167">
        <ele>563.0</ele>
        <time>2019-07-07T14:37:15.700Z</time>
      </trkpt>
      <trkpt lat="43.075385" lon="-0.55196333">
        <ele>559.0</ele>
        <time>2019-07-07T14:37:16.684Z</time>
      </trkpt>
      <trkpt lat="43.075385" lon="-0.55196333">
        <ele>559.0</ele>
        <time>2019-07-07T14:37:17.703Z</time>
      </trkpt>
      <trkpt lat="43.07542333" lon="-0.55233333">
        <ele>556.0</ele>
        <time>2019-07-07T14:37:18.691Z</time>
      </trkpt>
      <trkpt lat="43.07542333" lon="-0.55233333">
        <ele>556.0</ele>
        <time>2019-07-07T14:37:19.666Z</time>
      </trkpt>
      <trkpt lat="43.07550833" lon="-0.552685">
        <ele>553.0</ele>
        <time>2019-07-07T14:37:20.681Z</time>
      </trkpt>
      <trkpt lat="43.07556333" lon="-0.552855">
        <ele>551.0</ele>
        <time>2019-07-07T14:37:21.683Z</time>
      </trkpt>
      <trkpt lat="43.075645" lon="-0.55302333">
        <ele>549.0</ele>
        <time>2019-07-07T14:37:22.665Z</time>
      </trkpt>
      <trkpt lat="43.075645" lon="-0.55302333">
        <ele>549.0</ele>
        <time>2019-07-07T14:37:23.686Z</time>
      </trkpt>
      <trkpt lat="43.07582" lon="-0.55330167">
        <ele>546.0</ele>
        <time>2019-07-07T14:37:24.695Z</time>
      </trkpt>
      <trkpt lat="43.07582" lon="-0.55330167">
        <ele>546.0</ele>
        <time>2019-07-07T14:37:25.700Z</time>
      </trkpt>
      <trkpt lat="43.07600167" lon="-0.55355667">
        <ele>542.0</ele>
        <time>2019-07-07T14:37:26.665Z</time>
      </trkpt>
      <trkpt lat="43.07600167" lon="-0.55355667">
        <ele>542.0</ele>
        <time>2019-07-07T14:37:27.672Z</time>
      </trkpt>
      <trkpt lat="43.076155" lon="-0.55385667">
        <ele>539.0</ele>
        <time>2019-07-07T14:37:28.672Z</time>
      </trkpt>
      <trkpt lat="43.076155" lon="-0.55385667">
        <ele>539.0</ele>
        <time>2019-07-07T14:37:29.695Z</time>
      </trkpt>
      <trkpt lat="43.07628333" lon="-0.55420833">
        <ele>535.0</ele>
        <time>2019-07-07T14:37:30.675Z</time>
      </trkpt>
      <trkpt lat="43.07628333" lon="-0.55420833">
        <ele>535.0</ele>
        <time>2019-07-07T14:37:31.671Z</time>
      </trkpt>
      <trkpt lat="43.07639833" lon="-0.55456667">
        <ele>531.0</ele>
        <time>2019-07-07T14:37:32.685Z</time>
      </trkpt>
      <trkpt lat="43.07639833" lon="-0.55456667">
        <ele>531.0</ele>
        <time>2019-07-07T14:37:33.687Z</time>
      </trkpt>
      <trkpt lat="43.0765" lon="-0.55493833">
        <ele>528.0</ele>
        <time>2019-07-07T14:37:34.688Z</time>
      </trkpt>
      <trkpt lat="43.0765" lon="-0.55493833">
        <ele>528.0</ele>
        <time>2019-07-07T14:37:35.693Z</time>
      </trkpt>
      <trkpt lat="43.07657167" lon="-0.55531667">
        <ele>525.0</ele>
        <time>2019-07-07T14:37:36.692Z</time>
      </trkpt>
      <trkpt lat="43.07657167" lon="-0.55531667">
        <ele>525.0</ele>
        <time>2019-07-07T14:37:37.673Z</time>
      </trkpt>
      <trkpt lat="43.076605" lon="-0.555705">
        <ele>522.0</ele>
        <time>2019-07-07T14:37:38.695Z</time>
      </trkpt>
      <trkpt lat="43.076605" lon="-0.555705">
        <ele>522.0</ele>
        <time>2019-07-07T14:37:39.680Z</time>
      </trkpt>
      <trkpt lat="43.076685" lon="-0.55607">
        <ele>519.0</ele>
        <time>2019-07-07T14:37:40.681Z</time>
      </trkpt>
      <trkpt lat="43.07672833" lon="-0.55625">
        <ele>517.0</ele>
        <time>2019-07-07T14:37:41.690Z</time>
      </trkpt>
      <trkpt lat="43.07672833" lon="-0.55625">
        <ele>517.0</ele>
        <time>2019-07-07T14:37:42.700Z</time>
      </trkpt>
      <trkpt lat="43.07679167" lon="-0.55662">
        <ele>514.0</ele>
        <time>2019-07-07T14:37:43.703Z</time>
      </trkpt>
      <trkpt lat="43.07683667" lon="-0.55680167">
        <ele>513.0</ele>
        <time>2019-07-07T14:37:44.680Z</time>
      </trkpt>
      <trkpt lat="43.07683667" lon="-0.55680167">
        <ele>513.0</ele>
        <time>2019-07-07T14:37:45.667Z</time>
      </trkpt>
      <trkpt lat="43.0769" lon="-0.55717">
        <ele>511.0</ele>
        <time>2019-07-07T14:37:46.675Z</time>
      </trkpt>
      <trkpt lat="43.0769" lon="-0.55717">
        <ele>511.0</ele>
        <time>2019-07-07T14:37:47.689Z</time>
      </trkpt>
      <trkpt lat="43.07692167" lon="-0.55756">
        <ele>508.0</ele>
        <time>2019-07-07T14:37:48.695Z</time>
      </trkpt>
      <trkpt lat="43.07692167" lon="-0.55756">
        <ele>508.0</ele>
        <time>2019-07-07T14:37:49.702Z</time>
      </trkpt>
      <trkpt lat="43.07697667" lon="-0.557945">
        <ele>505.0</ele>
        <time>2019-07-07T14:37:50.669Z</time>
      </trkpt>
      <trkpt lat="43.07697667" lon="-0.557945">
        <ele>505.0</ele>
        <time>2019-07-07T14:37:51.666Z</time>
      </trkpt>
      <trkpt lat="43.07705667" lon="-0.55831833">
        <ele>502.0</ele>
        <time>2019-07-07T14:37:52.682Z</time>
      </trkpt>
      <trkpt lat="43.07712" lon="-0.55851">
        <ele>502.0</ele>
        <time>2019-07-07T14:37:53.674Z</time>
      </trkpt>
      <trkpt lat="43.07712" lon="-0.55851">
        <ele>502.0</ele>
        <time>2019-07-07T14:37:54.686Z</time>
      </trkpt>
      <trkpt lat="43.07724333" lon="-0.55887667">
        <ele>500.0</ele>
        <time>2019-07-07T14:37:55.695Z</time>
      </trkpt>
      <trkpt lat="43.07724333" lon="-0.55887667">
        <ele>500.0</ele>
        <time>2019-07-07T14:37:56.689Z</time>
      </trkpt>
      <trkpt lat="43.07737167" lon="-0.55922833">
        <ele>498.0</ele>
        <time>2019-07-07T14:37:57.690Z</time>
      </trkpt>
      <trkpt lat="43.07737167" lon="-0.55922833">
        <ele>498.0</ele>
        <time>2019-07-07T14:37:58.673Z</time>
      </trkpt>
      <trkpt lat="43.07750333" lon="-0.55957333">
        <ele>496.0</ele>
        <time>2019-07-07T14:37:59.685Z</time>
      </trkpt>
      <trkpt lat="43.07750333" lon="-0.55957333">
        <ele>496.0</ele>
        <time>2019-07-07T14:38:00.665Z</time>
      </trkpt>
      <trkpt lat="43.07764" lon="-0.55987167">
        <ele>494.0</ele>
        <time>2019-07-07T14:38:01.665Z</time>
      </trkpt>
      <trkpt lat="43.07772" lon="-0.560005">
        <ele>493.0</ele>
        <time>2019-07-07T14:38:02.671Z</time>
      </trkpt>
      <trkpt lat="43.07781" lon="-0.56012167">
        <ele>491.0</ele>
        <time>2019-07-07T14:38:03.685Z</time>
      </trkpt>
      <trkpt lat="43.07781" lon="-0.56012167">
        <ele>491.0</ele>
        <time>2019-07-07T14:38:04.690Z</time>
      </trkpt>
      <trkpt lat="43.07797667" lon="-0.5604">
        <ele>489.0</ele>
        <time>2019-07-07T14:38:05.695Z</time>
      </trkpt>
      <trkpt lat="43.07797667" lon="-0.5604">
        <ele>489.0</ele>
        <time>2019-07-07T14:38:06.666Z</time>
      </trkpt>
      <trkpt lat="43.078105" lon="-0.56071167">
        <ele>486.0</ele>
        <time>2019-07-07T14:38:07.668Z</time>
      </trkpt>
      <trkpt lat="43.07816167" lon="-0.56087333">
        <ele>485.0</ele>
        <time>2019-07-07T14:38:08.701Z</time>
      </trkpt>
      <trkpt lat="43.07816167" lon="-0.56087333">
        <ele>485.0</ele>
        <time>2019-07-07T14:38:09.666Z</time>
      </trkpt>
      <trkpt lat="43.07823333" lon="-0.561205">
        <ele>482.0</ele>
        <time>2019-07-07T14:38:10.683Z</time>
      </trkpt>
      <trkpt lat="43.07826333" lon="-0.56137833">
        <ele>481.0</ele>
        <time>2019-07-07T14:38:11.695Z</time>
      </trkpt>
      <trkpt lat="43.07826333" lon="-0.56137833">
        <ele>481.0</ele>
        <time>2019-07-07T14:38:12.700Z</time>
      </trkpt>
      <trkpt lat="43.078295" lon="-0.56173667">
        <ele>479.0</ele>
        <time>2019-07-07T14:38:13.677Z</time>
      </trkpt>
      <trkpt lat="43.07831667" lon="-0.561905">
        <ele>478.0</ele>
        <time>2019-07-07T14:38:14.675Z</time>
      </trkpt>
      <trkpt lat="43.07831667" lon="-0.561905">
        <ele>478.0</ele>
        <time>2019-07-07T14:38:15.699Z</time>
      </trkpt>
      <trkpt lat="43.07836167" lon="-0.56222833">
        <ele>476.0</ele>
        <time>2019-07-07T14:38:16.665Z</time>
      </trkpt>
      <trkpt lat="43.078315" lon="-0.56242667">
        <ele>475.0</ele>
        <time>2019-07-07T14:38:17.683Z</time>
      </trkpt>
      <trkpt lat="43.078315" lon="-0.56242667">
        <ele>475.0</ele>
        <time>2019-07-07T14:38:18.672Z</time>
      </trkpt>
      <trkpt lat="43.07836" lon="-0.56276">
        <ele>473.0</ele>
        <time>2019-07-07T14:38:19.675Z</time>
      </trkpt>
      <trkpt lat="43.07843167" lon="-0.56289833">
        <ele>472.0</ele>
        <time>2019-07-07T14:38:20.678Z</time>
      </trkpt>
      <trkpt lat="43.07843167" lon="-0.56289833">
        <ele>472.0</ele>
        <time>2019-07-07T14:38:21.684Z</time>
      </trkpt>
      <trkpt lat="43.0786" lon="-0.56314667">
        <ele>470.0</ele>
        <time>2019-07-07T14:38:22.694Z</time>
      </trkpt>
      <trkpt lat="43.07869833" lon="-0.56325167">
        <ele>469.0</ele>
        <time>2019-07-07T14:38:23.705Z</time>
      </trkpt>
      <trkpt lat="43.07869833" lon="-0.56325167">
        <ele>469.0</ele>
        <time>2019-07-07T14:38:24.675Z</time>
      </trkpt>
      <trkpt lat="43.07894333" lon="-0.56336667">
        <ele>467.0</ele>
        <time>2019-07-07T14:38:25.695Z</time>
      </trkpt>
      <trkpt lat="43.079065" lon="-0.56338667">
        <ele>466.0</ele>
        <time>2019-07-07T14:38:26.700Z</time>
      </trkpt>
      <trkpt lat="43.079065" lon="-0.56338667">
        <ele>466.0</ele>
        <time>2019-07-07T14:38:27.671Z</time>
      </trkpt>
      <trkpt lat="43.07932833" lon="-0.56340833">
        <ele>463.0</ele>
        <time>2019-07-07T14:38:28.693Z</time>
      </trkpt>
      <trkpt lat="43.07932833" lon="-0.56340833">
        <ele>463.0</ele>
        <time>2019-07-07T14:38:29.698Z</time>
      </trkpt>
      <trkpt lat="43.07957167" lon="-0.56345667">
        <ele>461.0</ele>
        <time>2019-07-07T14:38:30.665Z</time>
      </trkpt>
      <trkpt lat="43.07957167" lon="-0.56345667">
        <ele>461.0</ele>
        <time>2019-07-07T14:38:31.684Z</time>
      </trkpt>
      <trkpt lat="43.07980167" lon="-0.56360333">
        <ele>462.0</ele>
        <time>2019-07-07T14:38:32.677Z</time>
      </trkpt>
      <trkpt lat="43.07980167" lon="-0.56360333">
        <ele>462.0</ele>
        <time>2019-07-07T14:38:33.701Z</time>
      </trkpt>
      <trkpt lat="43.079995" lon="-0.563855">
        <ele>460.0</ele>
        <time>2019-07-07T14:38:34.665Z</time>
      </trkpt>
      <trkpt lat="43.079995" lon="-0.563855">
        <ele>460.0</ele>
        <time>2019-07-07T14:38:35.696Z</time>
      </trkpt>
      <trkpt lat="43.08003" lon="-0.56418667">
        <ele>460.0</ele>
        <time>2019-07-07T14:38:36.699Z</time>
      </trkpt>
      <trkpt lat="43.08003" lon="-0.56418667">
        <ele>460.0</ele>
        <time>2019-07-07T14:38:37.665Z</time>
      </trkpt>
      <trkpt lat="43.08007333" lon="-0.56453">
        <ele>460.0</ele>
        <time>2019-07-07T14:38:38.667Z</time>
      </trkpt>
      <trkpt lat="43.08007333" lon="-0.56453">
        <ele>460.0</ele>
        <time>2019-07-07T14:38:39.697Z</time>
      </trkpt>
      <trkpt lat="43.08012667" lon="-0.56486333">
        <ele>460.0</ele>
        <time>2019-07-07T14:38:40.704Z</time>
      </trkpt>
      <trkpt lat="43.080145" lon="-0.565025">
        <ele>460.0</ele>
        <time>2019-07-07T14:38:41.703Z</time>
      </trkpt>
      <trkpt lat="43.080145" lon="-0.565025">
        <ele>460.0</ele>
        <time>2019-07-07T14:38:42.685Z</time>
      </trkpt>
      <trkpt lat="43.08022167" lon="-0.56535333">
        <ele>460.0</ele>
        <time>2019-07-07T14:38:43.688Z</time>
      </trkpt>
      <trkpt lat="43.08022167" lon="-0.56535333">
        <ele>460.0</ele>
        <time>2019-07-07T14:38:44.695Z</time>
      </trkpt>
      <trkpt lat="43.08026667" lon="-0.56567333">
        <ele>459.0</ele>
        <time>2019-07-07T14:38:45.682Z</time>
      </trkpt>
      <trkpt lat="43.080275" lon="-0.56583667">
        <ele>460.0</ele>
        <time>2019-07-07T14:38:46.665Z</time>
      </trkpt>
      <trkpt lat="43.080275" lon="-0.56583667">
        <ele>460.0</ele>
        <time>2019-07-07T14:38:47.699Z</time>
      </trkpt>
      <trkpt lat="43.08027333" lon="-0.56616667">
        <ele>460.0</ele>
        <time>2019-07-07T14:38:48.697Z</time>
      </trkpt>
      <trkpt lat="43.08027333" lon="-0.56616667">
        <ele>460.0</ele>
        <time>2019-07-07T14:38:49.704Z</time>
      </trkpt>
      <trkpt lat="43.08023" lon="-0.56648333">
        <ele>459.0</ele>
        <time>2019-07-07T14:38:50.679Z</time>
      </trkpt>
      <trkpt lat="43.08023" lon="-0.56648333">
        <ele>459.0</ele>
        <time>2019-07-07T14:38:51.704Z</time>
      </trkpt>
      <trkpt lat="43.08015833" lon="-0.566785">
        <ele>459.0</ele>
        <time>2019-07-07T14:38:52.665Z</time>
      </trkpt>
      <trkpt lat="43.08015833" lon="-0.566785">
        <ele>459.0</ele>
        <time>2019-07-07T14:38:53.674Z</time>
      </trkpt>
      <trkpt lat="43.08009833" lon="-0.56708833">
        <ele>459.0</ele>
        <time>2019-07-07T14:38:54.699Z</time>
      </trkpt>
      <trkpt lat="43.08009833" lon="-0.56708833">
        <ele>459.0</ele>
        <time>2019-07-07T14:38:55.665Z</time>
      </trkpt>
      <trkpt lat="43.08008667" lon="-0.567415">
        <ele>458.0</ele>
        <time>2019-07-07T14:38:56.665Z</time>
      </trkpt>
      <trkpt lat="43.08008667" lon="-0.567415">
        <ele>458.0</ele>
        <time>2019-07-07T14:38:57.697Z</time>
      </trkpt>
      <trkpt lat="43.080145" lon="-0.56774333">
        <ele>457.0</ele>
        <time>2019-07-07T14:38:58.690Z</time>
      </trkpt>
      <trkpt lat="43.08020833" lon="-0.56790667">
        <ele>457.0</ele>
        <time>2019-07-07T14:38:59.665Z</time>
      </trkpt>
      <trkpt lat="43.08027667" lon="-0.56806833">
        <ele>457.0</ele>
        <time>2019-07-07T14:39:00.685Z</time>
      </trkpt>
      <trkpt lat="43.08027667" lon="-0.56806833">
        <ele>457.0</ele>
        <time>2019-07-07T14:39:01.696Z</time>
      </trkpt>
      <trkpt lat="43.08039667" lon="-0.56839333">
        <ele>455.0</ele>
        <time>2019-07-07T14:39:02.695Z</time>
      </trkpt>
      <trkpt lat="43.08039667" lon="-0.56839333">
        <ele>455.0</ele>
        <time>2019-07-07T14:39:03.700Z</time>
      </trkpt>
      <trkpt lat="43.0805" lon="-0.56873333">
        <ele>455.0</ele>
        <time>2019-07-07T14:39:04.694Z</time>
      </trkpt>
      <trkpt lat="43.0805" lon="-0.56873333">
        <ele>455.0</ele>
        <time>2019-07-07T14:39:05.699Z</time>
      </trkpt>
      <trkpt lat="43.080575" lon="-0.56907833">
        <ele>454.0</ele>
        <time>2019-07-07T14:39:06.700Z</time>
      </trkpt>
      <trkpt lat="43.080575" lon="-0.56907833">
        <ele>454.0</ele>
        <time>2019-07-07T14:39:07.666Z</time>
      </trkpt>
      <trkpt lat="43.080585" lon="-0.56944">
        <ele>453.0</ele>
        <time>2019-07-07T14:39:08.695Z</time>
      </trkpt>
      <trkpt lat="43.08057" lon="-0.56962333">
        <ele>453.0</ele>
        <time>2019-07-07T14:39:09.694Z</time>
      </trkpt>
      <trkpt lat="43.08057" lon="-0.56962333">
        <ele>453.0</ele>
        <time>2019-07-07T14:39:10.701Z</time>
      </trkpt>
      <trkpt lat="43.08054667" lon="-0.56998667">
        <ele>453.0</ele>
        <time>2019-07-07T14:39:11.698Z</time>
      </trkpt>
      <trkpt lat="43.08054667" lon="-0.56998667">
        <ele>453.0</ele>
        <time>2019-07-07T14:39:12.685Z</time>
      </trkpt>
      <trkpt lat="43.08056333" lon="-0.57034167">
        <ele>452.0</ele>
        <time>2019-07-07T14:39:13.686Z</time>
      </trkpt>
      <trkpt lat="43.08058333" lon="-0.57051167">
        <ele>452.0</ele>
        <time>2019-07-07T14:39:14.686Z</time>
      </trkpt>
      <trkpt lat="43.08058333" lon="-0.57051167">
        <ele>452.0</ele>
        <time>2019-07-07T14:39:15.701Z</time>
      </trkpt>
      <trkpt lat="43.08070167" lon="-0.57083">
        <ele>450.0</ele>
        <time>2019-07-07T14:39:16.682Z</time>
      </trkpt>
      <trkpt lat="43.08079167" lon="-0.570965">
        <ele>449.0</ele>
        <time>2019-07-07T14:39:17.695Z</time>
      </trkpt>
      <trkpt lat="43.08079167" lon="-0.570965">
        <ele>449.0</ele>
        <time>2019-07-07T14:39:18.667Z</time>
      </trkpt>
      <trkpt lat="43.08098667" lon="-0.57122667">
        <ele>448.0</ele>
        <time>2019-07-07T14:39:19.684Z</time>
      </trkpt>
      <trkpt lat="43.08098667" lon="-0.57122667">
        <ele>448.0</ele>
        <time>2019-07-07T14:39:20.666Z</time>
      </trkpt>
      <trkpt lat="43.08115667" lon="-0.57152833">
        <ele>447.0</ele>
        <time>2019-07-07T14:39:21.680Z</time>
      </trkpt>
      <trkpt lat="43.08121833" lon="-0.57169333">
        <ele>446.0</ele>
        <time>2019-07-07T14:39:22.665Z</time>
      </trkpt>
      <trkpt lat="43.08123667" lon="-0.57187667">
        <ele>445.0</ele>
        <time>2019-07-07T14:39:23.685Z</time>
      </trkpt>
      <trkpt lat="43.08123667" lon="-0.57187667">
        <ele>445.0</ele>
        <time>2019-07-07T14:39:24.699Z</time>
      </trkpt>
      <trkpt lat="43.08126" lon="-0.57224667">
        <ele>444.0</ele>
        <time>2019-07-07T14:39:25.700Z</time>
      </trkpt>
      <trkpt lat="43.081265" lon="-0.57242833">
        <ele>443.0</ele>
        <time>2019-07-07T14:39:26.703Z</time>
      </trkpt>
      <trkpt lat="43.081265" lon="-0.57242833">
        <ele>443.0</ele>
        <time>2019-07-07T14:39:27.673Z</time>
      </trkpt>
      <trkpt lat="43.08125833" lon="-0.572795">
        <ele>441.0</ele>
        <time>2019-07-07T14:39:28.687Z</time>
      </trkpt>
      <trkpt lat="43.08124167" lon="-0.57297333">
        <ele>440.0</ele>
        <time>2019-07-07T14:39:29.670Z</time>
      </trkpt>
      <trkpt lat="43.08124167" lon="-0.57297333">
        <ele>440.0</ele>
        <time>2019-07-07T14:39:30.678Z</time>
      </trkpt>
      <trkpt lat="43.08118667" lon="-0.57329667">
        <ele>438.0</ele>
        <time>2019-07-07T14:39:31.693Z</time>
      </trkpt>
      <trkpt lat="43.08114667" lon="-0.573435">
        <ele>437.0</ele>
        <time>2019-07-07T14:39:32.695Z</time>
      </trkpt>
      <trkpt lat="43.08114667" lon="-0.573435">
        <ele>437.0</ele>
        <time>2019-07-07T14:39:33.700Z</time>
      </trkpt>
      <trkpt lat="43.08104833" lon="-0.57368667">
        <ele>435.0</ele>
        <time>2019-07-07T14:39:34.679Z</time>
      </trkpt>
      <trkpt lat="43.08100333" lon="-0.57381167">
        <ele>433.0</ele>
        <time>2019-07-07T14:39:35.685Z</time>
      </trkpt>
      <trkpt lat="43.08100333" lon="-0.57381167">
        <ele>433.0</ele>
        <time>2019-07-07T14:39:36.701Z</time>
      </trkpt>
      <trkpt lat="43.080915" lon="-0.574105">
        <ele>431.0</ele>
        <time>2019-07-07T14:39:37.701Z</time>
      </trkpt>
      <trkpt lat="43.08089667" lon="-0.574275">
        <ele>430.0</ele>
        <time>2019-07-07T14:39:38.687Z</time>
      </trkpt>
      <trkpt lat="43.08089667" lon="-0.574275">
        <ele>430.0</ele>
        <time>2019-07-07T14:39:39.704Z</time>
      </trkpt>
      <trkpt lat="43.08084" lon="-0.57462">
        <ele>428.0</ele>
        <time>2019-07-07T14:39:40.683Z</time>
      </trkpt>
      <trkpt lat="43.08084" lon="-0.57462">
        <ele>428.0</ele>
        <time>2019-07-07T14:39:41.667Z</time>
      </trkpt>
      <trkpt lat="43.08080333" lon="-0.57498">
        <ele>426.0</ele>
        <time>2019-07-07T14:39:42.695Z</time>
      </trkpt>
      <trkpt lat="43.08080333" lon="-0.57498">
        <ele>426.0</ele>
        <time>2019-07-07T14:39:43.678Z</time>
      </trkpt>
      <trkpt lat="43.08080833" lon="-0.57535833">
        <ele>424.0</ele>
        <time>2019-07-07T14:39:44.692Z</time>
      </trkpt>
      <trkpt lat="43.08080833" lon="-0.57535833">
        <ele>424.0</ele>
        <time>2019-07-07T14:39:45.668Z</time>
      </trkpt>
      <trkpt lat="43.08087" lon="-0.57568667">
        <ele>423.0</ele>
        <time>2019-07-07T14:39:46.695Z</time>
      </trkpt>
      <trkpt lat="43.08094167" lon="-0.57582333">
        <ele>422.0</ele>
        <time>2019-07-07T14:39:47.703Z</time>
      </trkpt>
      <trkpt lat="43.08094167" lon="-0.57582333">
        <ele>422.0</ele>
        <time>2019-07-07T14:39:48.668Z</time>
      </trkpt>
      <trkpt lat="43.08108333" lon="-0.57614">
        <ele>420.0</ele>
        <time>2019-07-07T14:39:49.703Z</time>
      </trkpt>
      <trkpt lat="43.08114833" lon="-0.57630667">
        <ele>419.0</ele>
        <time>2019-07-07T14:39:50.692Z</time>
      </trkpt>
      <trkpt lat="43.08114833" lon="-0.57630667">
        <ele>419.0</ele>
        <time>2019-07-07T14:39:51.704Z</time>
      </trkpt>
      <trkpt lat="43.08124" lon="-0.57666667">
        <ele>417.0</ele>
        <time>2019-07-07T14:39:52.670Z</time>
      </trkpt>
      <trkpt lat="43.08124" lon="-0.57666667">
        <ele>417.0</ele>
        <time>2019-07-07T14:39:53.687Z</time>
      </trkpt>
      <trkpt lat="43.08131833" lon="-0.577005">
        <ele>415.0</ele>
        <time>2019-07-07T14:39:54.670Z</time>
      </trkpt>
      <trkpt lat="43.08131833" lon="-0.577005">
        <ele>415.0</ele>
        <time>2019-07-07T14:39:55.674Z</time>
      </trkpt>
      <trkpt lat="43.08135833" lon="-0.57732167">
        <ele>413.0</ele>
        <time>2019-07-07T14:39:56.684Z</time>
      </trkpt>
      <trkpt lat="43.08138667" lon="-0.57748333">
        <ele>412.0</ele>
        <time>2019-07-07T14:39:57.704Z</time>
      </trkpt>
      <trkpt lat="43.08138667" lon="-0.57748333">
        <ele>412.0</ele>
        <time>2019-07-07T14:39:58.669Z</time>
      </trkpt>
      <trkpt lat="43.08143333" lon="-0.57781667">
        <ele>410.0</ele>
        <time>2019-07-07T14:39:59.675Z</time>
      </trkpt>
      <trkpt lat="43.08143333" lon="-0.57781667">
        <ele>410.0</ele>
        <time>2019-07-07T14:40:00.685Z</time>
      </trkpt>
      <trkpt lat="43.08141833" lon="-0.57813833">
        <ele>408.0</ele>
        <time>2019-07-07T14:40:01.689Z</time>
      </trkpt>
      <trkpt lat="43.08140833" lon="-0.57829333">
        <ele>407.0</ele>
        <time>2019-07-07T14:40:02.666Z</time>
      </trkpt>
      <trkpt lat="43.08140833" lon="-0.57829333">
        <ele>407.0</ele>
        <time>2019-07-07T14:40:03.694Z</time>
      </trkpt>
      <trkpt lat="43.081205" lon="-0.57861">
        <ele>405.0</ele>
        <time>2019-07-07T14:40:04.695Z</time>
      </trkpt>
      <trkpt lat="43.08105667" lon="-0.578735">
        <ele>405.0</ele>
        <time>2019-07-07T14:40:05.697Z</time>
      </trkpt>
      <trkpt lat="43.08105667" lon="-0.578735">
        <ele>405.0</ele>
        <time>2019-07-07T14:40:06.702Z</time>
      </trkpt>
      <trkpt lat="43.08073667" lon="-0.57887333">
        <ele>404.0</ele>
        <time>2019-07-07T14:40:07.665Z</time>
      </trkpt>
      <trkpt lat="43.08059833" lon="-0.57888667">
        <ele>403.0</ele>
        <time>2019-07-07T14:40:08.678Z</time>
      </trkpt>
      <trkpt lat="43.08047833" lon="-0.57887">
        <ele>402.0</ele>
        <time>2019-07-07T14:40:09.687Z</time>
      </trkpt>
      <trkpt lat="43.08047833" lon="-0.57887">
        <ele>402.0</ele>
        <time>2019-07-07T14:40:10.667Z</time>
      </trkpt>
      <trkpt lat="43.08024667" lon="-0.57874333">
        <ele>400.0</ele>
        <time>2019-07-07T14:40:11.673Z</time>
      </trkpt>
      <trkpt lat="43.08024667" lon="-0.57874333">
        <ele>400.0</ele>
        <time>2019-07-07T14:40:12.698Z</time>
      </trkpt>
      <trkpt lat="43.08008833" lon="-0.57851">
        <ele>397.0</ele>
        <time>2019-07-07T14:40:13.686Z</time>
      </trkpt>
      <trkpt lat="43.08008833" lon="-0.57851">
        <ele>397.0</ele>
        <time>2019-07-07T14:40:14.696Z</time>
      </trkpt>
      <trkpt lat="43.08000333" lon="-0.57825667">
        <ele>395.0</ele>
        <time>2019-07-07T14:40:15.694Z</time>
      </trkpt>
      <trkpt lat="43.08000333" lon="-0.57825667">
        <ele>395.0</ele>
        <time>2019-07-07T14:40:16.670Z</time>
      </trkpt>
      <trkpt lat="43.079895" lon="-0.578105">
        <ele>392.0</ele>
        <time>2019-07-07T14:40:17.665Z</time>
      </trkpt>
      <trkpt lat="43.079895" lon="-0.578105">
        <ele>392.0</ele>
        <time>2019-07-07T14:40:18.665Z</time>
      </trkpt>
      <trkpt lat="43.0798" lon="-0.578165">
        <ele>389.0</ele>
        <time>2019-07-07T14:40:19.693Z</time>
      </trkpt>
      <trkpt lat="43.0798" lon="-0.578165">
        <ele>389.0</ele>
        <time>2019-07-07T14:40:20.699Z</time>
      </trkpt>
      <trkpt lat="43.07969167" lon="-0.57836833">
        <ele>387.0</ele>
        <time>2019-07-07T14:40:21.684Z</time>
      </trkpt>
      <trkpt lat="43.07956333" lon="-0.57852833">
        <ele>386.0</ele>
        <time>2019-07-07T14:40:22.694Z</time>
      </trkpt>
      <trkpt lat="43.07948167" lon="-0.57864167">
        <ele>385.0</ele>
        <time>2019-07-07T14:40:23.694Z</time>
      </trkpt>
      <trkpt lat="43.07948167" lon="-0.57864167">
        <ele>385.0</ele>
        <time>2019-07-07T14:40:24.700Z</time>
      </trkpt>
      <trkpt lat="43.07933" lon="-0.57886667">
        <ele>383.0</ele>
        <time>2019-07-07T14:40:25.685Z</time>
      </trkpt>
      <trkpt lat="43.07933" lon="-0.57886667">
        <ele>383.0</ele>
        <time>2019-07-07T14:40:26.696Z</time>
      </trkpt>
      <trkpt lat="43.07923667" lon="-0.57911667">
        <ele>381.0</ele>
        <time>2019-07-07T14:40:27.671Z</time>
      </trkpt>
      <trkpt lat="43.07923667" lon="-0.57911667">
        <ele>381.0</ele>
        <time>2019-07-07T14:40:28.666Z</time>
      </trkpt>
      <trkpt lat="43.07920667" lon="-0.57941667">
        <ele>379.0</ele>
        <time>2019-07-07T14:40:29.700Z</time>
      </trkpt>
      <trkpt lat="43.07920667" lon="-0.57941667">
        <ele>379.0</ele>
        <time>2019-07-07T14:40:30.665Z</time>
      </trkpt>
      <trkpt lat="43.07918" lon="-0.579725">
        <ele>378.0</ele>
        <time>2019-07-07T14:40:31.670Z</time>
      </trkpt>
      <trkpt lat="43.07915333" lon="-0.57988167">
        <ele>377.0</ele>
        <time>2019-07-07T14:40:32.701Z</time>
      </trkpt>
      <trkpt lat="43.07915333" lon="-0.57988167">
        <ele>377.0</ele>
        <time>2019-07-07T14:40:33.666Z</time>
      </trkpt>
      <trkpt lat="43.07912833" lon="-0.58018833">
        <ele>375.0</ele>
        <time>2019-07-07T14:40:34.703Z</time>
      </trkpt>
      <trkpt lat="43.079115" lon="-0.58034167">
        <ele>375.0</ele>
        <time>2019-07-07T14:40:35.669Z</time>
      </trkpt>
      <trkpt lat="43.079115" lon="-0.58034167">
        <ele>375.0</ele>
        <time>2019-07-07T14:40:36.670Z</time>
      </trkpt>
      <trkpt lat="43.07905833" lon="-0.58066667">
        <ele>374.0</ele>
        <time>2019-07-07T14:40:37.675Z</time>
      </trkpt>
      <trkpt lat="43.07905833" lon="-0.58066667">
        <ele>374.0</ele>
        <time>2019-07-07T14:40:38.687Z</time>
      </trkpt>
      <trkpt lat="43.07902167" lon="-0.58098167">
        <ele>373.0</ele>
        <time>2019-07-07T14:40:39.673Z</time>
      </trkpt>
      <trkpt lat="43.07902167" lon="-0.58098167">
        <ele>373.0</ele>
        <time>2019-07-07T14:40:40.682Z</time>
      </trkpt>
      <trkpt lat="43.07892167" lon="-0.58136167">
        <ele>373.0</ele>
        <time>2019-07-07T14:40:41.682Z</time>
      </trkpt>
      <trkpt lat="43.07886" lon="-0.58155">
        <ele>373.0</ele>
        <time>2019-07-07T14:40:42.683Z</time>
      </trkpt>
      <trkpt lat="43.07886" lon="-0.58155">
        <ele>373.0</ele>
        <time>2019-07-07T14:40:43.699Z</time>
      </trkpt>
      <trkpt lat="43.07877167" lon="-0.58187333">
        <ele>372.0</ele>
        <time>2019-07-07T14:40:44.690Z</time>
      </trkpt>
      <trkpt lat="43.07877167" lon="-0.58187333">
        <ele>372.0</ele>
        <time>2019-07-07T14:40:45.668Z</time>
      </trkpt>
      <trkpt lat="43.07871167" lon="-0.58219167">
        <ele>371.0</ele>
        <time>2019-07-07T14:40:46.674Z</time>
      </trkpt>
      <trkpt lat="43.07869667" lon="-0.58237">
        <ele>371.0</ele>
        <time>2019-07-07T14:40:47.681Z</time>
      </trkpt>
      <trkpt lat="43.07869667" lon="-0.58237">
        <ele>371.0</ele>
        <time>2019-07-07T14:40:48.694Z</time>
      </trkpt>
      <trkpt lat="43.078675" lon="-0.58273">
        <ele>370.0</ele>
        <time>2019-07-07T14:40:49.705Z</time>
      </trkpt>
      <trkpt lat="43.078675" lon="-0.58273">
        <ele>370.0</ele>
        <time>2019-07-07T14:40:50.695Z</time>
      </trkpt>
      <trkpt lat="43.07866167" lon="-0.58309">
        <ele>370.0</ele>
        <time>2019-07-07T14:40:51.694Z</time>
      </trkpt>
      <trkpt lat="43.07866167" lon="-0.58309">
        <ele>370.0</ele>
        <time>2019-07-07T14:40:52.699Z</time>
      </trkpt>
      <trkpt lat="43.07864667" lon="-0.583445">
        <ele>369.0</ele>
        <time>2019-07-07T14:40:53.693Z</time>
      </trkpt>
      <trkpt lat="43.07864667" lon="-0.583445">
        <ele>369.0</ele>
        <time>2019-07-07T14:40:54.698Z</time>
      </trkpt>
      <trkpt lat="43.0787" lon="-0.5838">
        <ele>369.0</ele>
        <time>2019-07-07T14:40:55.699Z</time>
      </trkpt>
      <trkpt lat="43.0787" lon="-0.5838">
        <ele>369.0</ele>
        <time>2019-07-07T14:40:56.677Z</time>
      </trkpt>
      <trkpt lat="43.07879" lon="-0.58414667">
        <ele>367.0</ele>
        <time>2019-07-07T14:40:57.674Z</time>
      </trkpt>
      <trkpt lat="43.07883167" lon="-0.58431833">
        <ele>367.0</ele>
        <time>2019-07-07T14:40:58.704Z</time>
      </trkpt>
      <trkpt lat="43.07883167" lon="-0.58431833">
        <ele>367.0</ele>
        <time>2019-07-07T14:40:59.669Z</time>
      </trkpt>
      <trkpt lat="43.07893" lon="-0.58466167">
        <ele>366.0</ele>
        <time>2019-07-07T14:41:00.696Z</time>
      </trkpt>
      <trkpt lat="43.07893" lon="-0.58466167">
        <ele>366.0</ele>
        <time>2019-07-07T14:41:01.668Z</time>
      </trkpt>
      <trkpt lat="43.07898833" lon="-0.58501">
        <ele>365.0</ele>
        <time>2019-07-07T14:41:02.694Z</time>
      </trkpt>
      <trkpt lat="43.07898833" lon="-0.58501">
        <ele>365.0</ele>
        <time>2019-07-07T14:41:03.675Z</time>
      </trkpt>
      <trkpt lat="43.07903" lon="-0.585365">
        <ele>365.0</ele>
        <time>2019-07-07T14:41:04.687Z</time>
      </trkpt>
      <trkpt lat="43.079055" lon="-0.58553833">
        <ele>365.0</ele>
        <time>2019-07-07T14:41:05.669Z</time>
      </trkpt>
      <trkpt lat="43.079055" lon="-0.58553833">
        <ele>365.0</ele>
        <time>2019-07-07T14:41:06.670Z</time>
      </trkpt>
      <trkpt lat="43.07907333" lon="-0.58587833">
        <ele>365.0</ele>
        <time>2019-07-07T14:41:07.693Z</time>
      </trkpt>
      <trkpt lat="43.079085" lon="-0.586045">
        <ele>364.0</ele>
        <time>2019-07-07T14:41:08.695Z</time>
      </trkpt>
      <trkpt lat="43.079085" lon="-0.586045">
        <ele>364.0</ele>
        <time>2019-07-07T14:41:09.666Z</time>
      </trkpt>
      <trkpt lat="43.07908333" lon="-0.58635667">
        <ele>363.0</ele>
        <time>2019-07-07T14:41:10.669Z</time>
      </trkpt>
      <trkpt lat="43.07907333" lon="-0.58650333">
        <ele>363.0</ele>
        <time>2019-07-07T14:41:11.668Z</time>
      </trkpt>
      <trkpt lat="43.07907333" lon="-0.58650333">
        <ele>363.0</ele>
        <time>2019-07-07T14:41:12.687Z</time>
      </trkpt>
      <trkpt lat="43.07903833" lon="-0.586815">
        <ele>362.0</ele>
        <time>2019-07-07T14:41:13.680Z</time>
      </trkpt>
      <trkpt lat="43.079005" lon="-0.58696667">
        <ele>362.0</ele>
        <time>2019-07-07T14:41:14.693Z</time>
      </trkpt>
      <trkpt lat="43.079005" lon="-0.58696667">
        <ele>362.0</ele>
        <time>2019-07-07T14:41:15.667Z</time>
      </trkpt>
      <trkpt lat="43.07891667" lon="-0.58728167">
        <ele>361.0</ele>
        <time>2019-07-07T14:41:16.701Z</time>
      </trkpt>
      <trkpt lat="43.07891667" lon="-0.58728167">
        <ele>361.0</ele>
        <time>2019-07-07T14:41:17.666Z</time>
      </trkpt>
      <trkpt lat="43.07883667" lon="-0.58760667">
        <ele>360.0</ele>
        <time>2019-07-07T14:41:18.665Z</time>
      </trkpt>
      <trkpt lat="43.07883667" lon="-0.58760667">
        <ele>360.0</ele>
        <time>2019-07-07T14:41:19.699Z</time>
      </trkpt>
      <trkpt lat="43.07873" lon="-0.58796333">
        <ele>361.0</ele>
        <time>2019-07-07T14:41:20.697Z</time>
      </trkpt>
      <trkpt lat="43.07867" lon="-0.58814667">
        <ele>362.0</ele>
        <time>2019-07-07T14:41:21.695Z</time>
      </trkpt>
      <trkpt lat="43.07867" lon="-0.58814667">
        <ele>362.0</ele>
        <time>2019-07-07T14:41:22.702Z</time>
      </trkpt>
      <trkpt lat="43.07859833" lon="-0.58851833">
        <ele>362.0</ele>
        <time>2019-07-07T14:41:23.684Z</time>
      </trkpt>
      <trkpt lat="43.07859833" lon="-0.58851833">
        <ele>362.0</ele>
        <time>2019-07-07T14:41:24.665Z</time>
      </trkpt>
      <trkpt lat="43.07858667" lon="-0.58888167">
        <ele>361.0</ele>
        <time>2019-07-07T14:41:25.685Z</time>
      </trkpt>
      <trkpt lat="43.07857" lon="-0.589075">
        <ele>361.0</ele>
        <time>2019-07-07T14:41:26.700Z</time>
      </trkpt>
      <trkpt lat="43.07857" lon="-0.589075">
        <ele>361.0</ele>
        <time>2019-07-07T14:41:27.665Z</time>
      </trkpt>
      <trkpt lat="43.07853667" lon="-0.58947">
        <ele>360.0</ele>
        <time>2019-07-07T14:41:28.678Z</time>
      </trkpt>
      <trkpt lat="43.07851167" lon="-0.58967">
        <ele>360.0</ele>
        <time>2019-07-07T14:41:29.685Z</time>
      </trkpt>
      <trkpt lat="43.07851167" lon="-0.58967">
        <ele>360.0</ele>
        <time>2019-07-07T14:41:30.694Z</time>
      </trkpt>
      <trkpt lat="43.0785" lon="-0.590045">
        <ele>359.0</ele>
        <time>2019-07-07T14:41:31.694Z</time>
      </trkpt>
      <trkpt lat="43.078505" lon="-0.59023167">
        <ele>359.0</ele>
        <time>2019-07-07T14:41:32.691Z</time>
      </trkpt>
      <trkpt lat="43.078505" lon="-0.59023167">
        <ele>359.0</ele>
        <time>2019-07-07T14:41:33.699Z</time>
      </trkpt>
      <trkpt lat="43.07851333" lon="-0.59059">
        <ele>358.0</ele>
        <time>2019-07-07T14:41:34.692Z</time>
      </trkpt>
      <trkpt lat="43.07851333" lon="-0.59059">
        <ele>358.0</ele>
        <time>2019-07-07T14:41:35.669Z</time>
      </trkpt>
      <trkpt lat="43.078515" lon="-0.59094">
        <ele>357.0</ele>
        <time>2019-07-07T14:41:36.665Z</time>
      </trkpt>
      <trkpt lat="43.078515" lon="-0.59094">
        <ele>357.0</ele>
        <time>2019-07-07T14:41:37.694Z</time>
      </trkpt>
      <trkpt lat="43.078505" lon="-0.591275">
        <ele>356.0</ele>
        <time>2019-07-07T14:41:38.665Z</time>
      </trkpt>
      <trkpt lat="43.078505" lon="-0.591275">
        <ele>356.0</ele>
        <time>2019-07-07T14:41:39.695Z</time>
      </trkpt>
      <trkpt lat="43.07850833" lon="-0.59160167">
        <ele>355.0</ele>
        <time>2019-07-07T14:41:40.665Z</time>
      </trkpt>
      <trkpt lat="43.0785" lon="-0.59176167">
        <ele>355.0</ele>
        <time>2019-07-07T14:41:41.697Z</time>
      </trkpt>
      <trkpt lat="43.0785" lon="-0.59176167">
        <ele>355.0</ele>
        <time>2019-07-07T14:41:42.679Z</time>
      </trkpt>
      <trkpt lat="43.07848" lon="-0.59207333">
        <ele>354.0</ele>
        <time>2019-07-07T14:41:43.680Z</time>
      </trkpt>
      <trkpt lat="43.07848" lon="-0.59207333">
        <ele>354.0</ele>
        <time>2019-07-07T14:41:44.669Z</time>
      </trkpt>
      <trkpt lat="43.07844833" lon="-0.59239167">
        <ele>354.0</ele>
        <time>2019-07-07T14:41:45.668Z</time>
      </trkpt>
      <trkpt lat="43.07844833" lon="-0.59239167">
        <ele>354.0</ele>
        <time>2019-07-07T14:41:46.689Z</time>
      </trkpt>
      <trkpt lat="43.078405" lon="-0.59271167">
        <ele>354.0</ele>
        <time>2019-07-07T14:41:47.700Z</time>
      </trkpt>
      <trkpt lat="43.078405" lon="-0.59271167">
        <ele>354.0</ele>
        <time>2019-07-07T14:41:48.677Z</time>
      </trkpt>
      <trkpt lat="43.07835333" lon="-0.59304167">
        <ele>353.0</ele>
        <time>2019-07-07T14:41:49.673Z</time>
      </trkpt>
      <trkpt lat="43.07832833" lon="-0.5932">
        <ele>352.0</ele>
        <time>2019-07-07T14:41:50.679Z</time>
      </trkpt>
      <trkpt lat="43.07832833" lon="-0.5932">
        <ele>352.0</ele>
        <time>2019-07-07T14:41:51.699Z</time>
      </trkpt>
      <trkpt lat="43.07826333" lon="-0.593505">
        <ele>352.0</ele>
        <time>2019-07-07T14:41:52.665Z</time>
      </trkpt>
      <trkpt lat="43.07822833" lon="-0.59365333">
        <ele>352.0</ele>
        <time>2019-07-07T14:41:53.669Z</time>
      </trkpt>
      <trkpt lat="43.07822833" lon="-0.59365333">
        <ele>352.0</ele>
        <time>2019-07-07T14:41:54.693Z</time>
      </trkpt>
      <trkpt lat="43.07813333" lon="-0.59394833">
        <ele>350.0</ele>
        <time>2019-07-07T14:41:55.691Z</time>
      </trkpt>
      <trkpt lat="43.07813333" lon="-0.59394833">
        <ele>350.0</ele>
        <time>2019-07-07T14:41:56.668Z</time>
      </trkpt>
      <trkpt lat="43.07802833" lon="-0.59426167">
        <ele>349.0</ele>
        <time>2019-07-07T14:41:57.685Z</time>
      </trkpt>
      <trkpt lat="43.07802833" lon="-0.59426167">
        <ele>349.0</ele>
        <time>2019-07-07T14:41:58.693Z</time>
      </trkpt>
      <trkpt lat="43.07796167" lon="-0.594585">
        <ele>349.0</ele>
        <time>2019-07-07T14:41:59.680Z</time>
      </trkpt>
      <trkpt lat="43.07796167" lon="-0.594585">
        <ele>349.0</ele>
        <time>2019-07-07T14:42:00.690Z</time>
      </trkpt>
      <trkpt lat="43.07793" lon="-0.59492">
        <ele>348.0</ele>
        <time>2019-07-07T14:42:01.688Z</time>
      </trkpt>
      <trkpt lat="43.07792833" lon="-0.59508667">
        <ele>347.0</ele>
        <time>2019-07-07T14:42:02.684Z</time>
      </trkpt>
      <trkpt lat="43.07793" lon="-0.595255">
        <ele>347.0</ele>
        <time>2019-07-07T14:42:03.684Z</time>
      </trkpt>
      <trkpt lat="43.07793" lon="-0.595255">
        <ele>347.0</ele>
        <time>2019-07-07T14:42:04.665Z</time>
      </trkpt>
      <trkpt lat="43.07793833" lon="-0.595585">
        <ele>346.0</ele>
        <time>2019-07-07T14:42:05.672Z</time>
      </trkpt>
      <trkpt lat="43.07793833" lon="-0.595585">
        <ele>346.0</ele>
        <time>2019-07-07T14:42:06.684Z</time>
      </trkpt>
      <trkpt lat="43.077915" lon="-0.59590833">
        <ele>345.0</ele>
        <time>2019-07-07T14:42:07.674Z</time>
      </trkpt>
      <trkpt lat="43.077915" lon="-0.59590833">
        <ele>345.0</ele>
        <time>2019-07-07T14:42:08.683Z</time>
      </trkpt>
      <trkpt lat="43.07781833" lon="-0.59619833">
        <ele>344.0</ele>
        <time>2019-07-07T14:42:09.695Z</time>
      </trkpt>
      <trkpt lat="43.07775667" lon="-0.59633833">
        <ele>344.0</ele>
        <time>2019-07-07T14:42:10.665Z</time>
      </trkpt>
      <trkpt lat="43.07769" lon="-0.59646667">
        <ele>343.0</ele>
        <time>2019-07-07T14:42:11.667Z</time>
      </trkpt>
      <trkpt lat="43.07769" lon="-0.59646667">
        <ele>343.0</ele>
        <time>2019-07-07T14:42:12.695Z</time>
      </trkpt>
      <trkpt lat="43.07754" lon="-0.59669667">
        <ele>343.0</ele>
        <time>2019-07-07T14:42:13.705Z</time>
      </trkpt>
      <trkpt lat="43.07754" lon="-0.59669667">
        <ele>343.0</ele>
        <time>2019-07-07T14:42:14.680Z</time>
      </trkpt>
      <trkpt lat="43.07740167" lon="-0.596935">
        <ele>341.0</ele>
        <time>2019-07-07T14:42:15.685Z</time>
      </trkpt>
      <trkpt lat="43.07740167" lon="-0.596935">
        <ele>341.0</ele>
        <time>2019-07-07T14:42:16.694Z</time>
      </trkpt>
      <trkpt lat="43.07730833" lon="-0.59721833">
        <ele>340.0</ele>
        <time>2019-07-07T14:42:17.687Z</time>
      </trkpt>
      <trkpt lat="43.07730833" lon="-0.59721833">
        <ele>340.0</ele>
        <time>2019-07-07T14:42:18.685Z</time>
      </trkpt>
      <trkpt lat="43.07727667" lon="-0.59754333">
        <ele>339.0</ele>
        <time>2019-07-07T14:42:19.695Z</time>
      </trkpt>
      <trkpt lat="43.07726667" lon="-0.59771">
        <ele>339.0</ele>
        <time>2019-07-07T14:42:20.701Z</time>
      </trkpt>
      <trkpt lat="43.07726" lon="-0.59787">
        <ele>338.0</ele>
        <time>2019-07-07T14:42:21.687Z</time>
      </trkpt>
      <trkpt lat="43.07725833" lon="-0.59803">
        <ele>338.0</ele>
        <time>2019-07-07T14:42:22.695Z</time>
      </trkpt>
      <trkpt lat="43.07725833" lon="-0.59803">
        <ele>338.0</ele>
        <time>2019-07-07T14:42:23.700Z</time>
      </trkpt>
      <trkpt lat="43.07725167" lon="-0.598345">
        <ele>337.0</ele>
        <time>2019-07-07T14:42:24.695Z</time>
      </trkpt>
      <trkpt lat="43.07725167" lon="-0.598345">
        <ele>337.0</ele>
        <time>2019-07-07T14:42:25.691Z</time>
      </trkpt>
      <trkpt lat="43.07720667" lon="-0.59865167">
        <ele>336.0</ele>
        <time>2019-07-07T14:42:26.701Z</time>
      </trkpt>
      <trkpt lat="43.07720667" lon="-0.59865167">
        <ele>336.0</ele>
        <time>2019-07-07T14:42:27.666Z</time>
      </trkpt>
      <trkpt lat="43.07716" lon="-0.59896667">
        <ele>335.0</ele>
        <time>2019-07-07T14:42:28.696Z</time>
      </trkpt>
      <trkpt lat="43.077135" lon="-0.59912167">
        <ele>335.0</ele>
        <time>2019-07-07T14:42:29.704Z</time>
      </trkpt>
      <trkpt lat="43.077135" lon="-0.59912167">
        <ele>335.0</ele>
        <time>2019-07-07T14:42:30.670Z</time>
      </trkpt>
      <trkpt lat="43.07706" lon="-0.599435">
        <ele>334.0</ele>
        <time>2019-07-07T14:42:31.685Z</time>
      </trkpt>
      <trkpt lat="43.07703333" lon="-0.59959167">
        <ele>334.0</ele>
        <time>2019-07-07T14:42:32.685Z</time>
      </trkpt>
      <trkpt lat="43.07703333" lon="-0.59959167">
        <ele>334.0</ele>
        <time>2019-07-07T14:42:33.691Z</time>
      </trkpt>
      <trkpt lat="43.07699167" lon="-0.5999">
        <ele>333.0</ele>
        <time>2019-07-07T14:42:34.679Z</time>
      </trkpt>
      <trkpt lat="43.07699" lon="-0.60005667">
        <ele>332.0</ele>
        <time>2019-07-07T14:42:35.688Z</time>
      </trkpt>
      <trkpt lat="43.07699" lon="-0.60005667">
        <ele>332.0</ele>
        <time>2019-07-07T14:42:36.694Z</time>
      </trkpt>
      <trkpt lat="43.07701" lon="-0.60037333">
        <ele>331.0</ele>
        <time>2019-07-07T14:42:37.699Z</time>
      </trkpt>
      <trkpt lat="43.07701" lon="-0.60037333">
        <ele>331.0</ele>
        <time>2019-07-07T14:42:38.678Z</time>
      </trkpt>
      <trkpt lat="43.07702333" lon="-0.60069167">
        <ele>330.0</ele>
        <time>2019-07-07T14:42:39.665Z</time>
      </trkpt>
      <trkpt lat="43.07702333" lon="-0.60069167">
        <ele>330.0</ele>
        <time>2019-07-07T14:42:40.688Z</time>
      </trkpt>
      <trkpt lat="43.07702833" lon="-0.60101">
        <ele>330.0</ele>
        <time>2019-07-07T14:42:41.688Z</time>
      </trkpt>
      <trkpt lat="43.07702833" lon="-0.60101">
        <ele>330.0</ele>
        <time>2019-07-07T14:42:42.677Z</time>
      </trkpt>
      <trkpt lat="43.07701333" lon="-0.60132333">
        <ele>329.0</ele>
        <time>2019-07-07T14:42:43.694Z</time>
      </trkpt>
      <trkpt lat="43.07701333" lon="-0.60132333">
        <ele>329.0</ele>
        <time>2019-07-07T14:42:44.699Z</time>
      </trkpt>
      <trkpt lat="43.07698667" lon="-0.601615">
        <ele>329.0</ele>
        <time>2019-07-07T14:42:45.688Z</time>
      </trkpt>
      <trkpt lat="43.07698667" lon="-0.601615">
        <ele>329.0</ele>
        <time>2019-07-07T14:42:46.685Z</time>
      </trkpt>
      <trkpt lat="43.07696" lon="-0.60189833">
        <ele>329.0</ele>
        <time>2019-07-07T14:42:47.681Z</time>
      </trkpt>
      <trkpt lat="43.07696" lon="-0.60189833">
        <ele>329.0</ele>
        <time>2019-07-07T14:42:48.674Z</time>
      </trkpt>
      <trkpt lat="43.07693333" lon="-0.602165">
        <ele>329.0</ele>
        <time>2019-07-07T14:42:49.680Z</time>
      </trkpt>
      <trkpt lat="43.07692" lon="-0.60229667">
        <ele>328.0</ele>
        <time>2019-07-07T14:42:50.675Z</time>
      </trkpt>
      <trkpt lat="43.07692" lon="-0.60229667">
        <ele>328.0</ele>
        <time>2019-07-07T14:42:51.681Z</time>
      </trkpt>
      <trkpt lat="43.07690333" lon="-0.60254667">
        <ele>328.0</ele>
        <time>2019-07-07T14:42:52.669Z</time>
      </trkpt>
      <trkpt lat="43.07690667" lon="-0.60266833">
        <ele>328.0</ele>
        <time>2019-07-07T14:42:53.695Z</time>
      </trkpt>
      <trkpt lat="43.07690667" lon="-0.60266833">
        <ele>328.0</ele>
        <time>2019-07-07T14:42:54.700Z</time>
      </trkpt>
      <trkpt lat="43.07693" lon="-0.60290833">
        <ele>328.0</ele>
        <time>2019-07-07T14:42:55.703Z</time>
      </trkpt>
      <trkpt lat="43.07693" lon="-0.60290833">
        <ele>328.0</ele>
        <time>2019-07-07T14:42:56.668Z</time>
      </trkpt>
      <trkpt lat="43.07694" lon="-0.603135">
        <ele>328.0</ele>
        <time>2019-07-07T14:42:57.666Z</time>
      </trkpt>
      <trkpt lat="43.07694" lon="-0.603135">
        <ele>328.0</ele>
        <time>2019-07-07T14:42:58.671Z</time>
      </trkpt>
      <trkpt lat="43.07692" lon="-0.60335833">
        <ele>327.0</ele>
        <time>2019-07-07T14:42:59.692Z</time>
      </trkpt>
      <trkpt lat="43.07692" lon="-0.60335833">
        <ele>327.0</ele>
        <time>2019-07-07T14:43:00.673Z</time>
      </trkpt>
      <trkpt lat="43.07688833" lon="-0.60358333">
        <ele>327.0</ele>
        <time>2019-07-07T14:43:01.678Z</time>
      </trkpt>
      <trkpt lat="43.07687667" lon="-0.60369333">
        <ele>327.0</ele>
        <time>2019-07-07T14:43:02.693Z</time>
      </trkpt>
      <trkpt lat="43.07687667" lon="-0.60369333">
        <ele>327.0</ele>
        <time>2019-07-07T14:43:03.669Z</time>
      </trkpt>
      <trkpt lat="43.07686333" lon="-0.60391667">
        <ele>327.0</ele>
        <time>2019-07-07T14:43:04.702Z</time>
      </trkpt>
      <trkpt lat="43.07686333" lon="-0.60402833">
        <ele>327.0</ele>
        <time>2019-07-07T14:43:05.675Z</time>
      </trkpt>
      <trkpt lat="43.07686333" lon="-0.60402833">
        <ele>327.0</ele>
        <time>2019-07-07T14:43:06.673Z</time>
      </trkpt>
      <trkpt lat="43.07686667" lon="-0.60425">
        <ele>327.0</ele>
        <time>2019-07-07T14:43:07.675Z</time>
      </trkpt>
      <trkpt lat="43.07686667" lon="-0.60425">
        <ele>327.0</ele>
        <time>2019-07-07T14:43:08.688Z</time>
      </trkpt>
      <trkpt lat="43.076875" lon="-0.604465">
        <ele>327.0</ele>
        <time>2019-07-07T14:43:09.685Z</time>
      </trkpt>
      <trkpt lat="43.076875" lon="-0.604465">
        <ele>327.0</ele>
        <time>2019-07-07T14:43:10.668Z</time>
      </trkpt>
      <trkpt lat="43.07688833" lon="-0.60467">
        <ele>327.0</ele>
        <time>2019-07-07T14:43:11.695Z</time>
      </trkpt>
      <trkpt lat="43.07688833" lon="-0.60467">
        <ele>327.0</ele>
        <time>2019-07-07T14:43:12.669Z</time>
      </trkpt>
      <trkpt lat="43.0769" lon="-0.604865">
        <ele>327.0</ele>
        <time>2019-07-07T14:43:13.701Z</time>
      </trkpt>
      <trkpt lat="43.0769" lon="-0.604865">
        <ele>327.0</ele>
        <time>2019-07-07T14:43:14.666Z</time>
      </trkpt>
      <trkpt lat="43.07690667" lon="-0.60505">
        <ele>327.0</ele>
        <time>2019-07-07T14:43:15.703Z</time>
      </trkpt>
      <trkpt lat="43.07690667" lon="-0.60505">
        <ele>327.0</ele>
        <time>2019-07-07T14:43:16.668Z</time>
      </trkpt>
      <trkpt lat="43.07689833" lon="-0.60523333">
        <ele>326.0</ele>
        <time>2019-07-07T14:43:17.671Z</time>
      </trkpt>
      <trkpt lat="43.07689833" lon="-0.60523333">
        <ele>326.0</ele>
        <time>2019-07-07T14:43:18.698Z</time>
      </trkpt>
      <trkpt lat="43.07687833" lon="-0.60540833">
        <ele>327.0</ele>
        <time>2019-07-07T14:43:19.685Z</time>
      </trkpt>
      <trkpt lat="43.07687833" lon="-0.60540833">
        <ele>327.0</ele>
        <time>2019-07-07T14:43:20.676Z</time>
      </trkpt>
      <trkpt lat="43.076855" lon="-0.60558167">
        <ele>327.0</ele>
        <time>2019-07-07T14:43:21.665Z</time>
      </trkpt>
      <trkpt lat="43.076855" lon="-0.60558167">
        <ele>327.0</ele>
        <time>2019-07-07T14:43:22.691Z</time>
      </trkpt>
      <trkpt lat="43.076825" lon="-0.60574333">
        <ele>326.0</ele>
        <time>2019-07-07T14:43:23.695Z</time>
      </trkpt>
      <trkpt lat="43.076825" lon="-0.60574333">
        <ele>326.0</ele>
        <time>2019-07-07T14:43:24.704Z</time>
      </trkpt>
      <trkpt lat="43.0768" lon="-0.605875">
        <ele>326.0</ele>
        <time>2019-07-07T14:43:25.693Z</time>
      </trkpt>
      <trkpt lat="43.076785" lon="-0.60593">
        <ele>326.0</ele>
        <time>2019-07-07T14:43:26.682Z</time>
      </trkpt>
      <trkpt lat="43.076785" lon="-0.60593">
        <ele>326.0</ele>
        <time>2019-07-07T14:43:27.693Z</time>
      </trkpt>
      <trkpt lat="43.07675667" lon="-0.60601333">
        <ele>325.0</ele>
        <time>2019-07-07T14:43:28.692Z</time>
      </trkpt>
      <trkpt lat="43.07675667" lon="-0.60601333">
        <ele>325.0</ele>
        <time>2019-07-07T14:43:29.677Z</time>
      </trkpt>
      <trkpt lat="43.076735" lon="-0.60608">
        <ele>325.0</ele>
        <time>2019-07-07T14:43:30.675Z</time>
      </trkpt>
      <trkpt lat="43.076735" lon="-0.60608">
        <ele>325.0</ele>
        <time>2019-07-07T14:43:31.670Z</time>
      </trkpt>
      <trkpt lat="43.07672167" lon="-0.60612833">
        <ele>324.0</ele>
        <time>2019-07-07T14:43:32.675Z</time>
      </trkpt>
      <trkpt lat="43.07672167" lon="-0.60612833">
        <ele>324.0</ele>
        <time>2019-07-07T14:43:33.700Z</time>
      </trkpt>
      <trkpt lat="43.0767" lon="-0.60612667">
        <ele>325.0</ele>
        <time>2019-07-07T14:43:34.693Z</time>
      </trkpt>
      <trkpt lat="43.076685" lon="-0.60613">
        <ele>325.0</ele>
        <time>2019-07-07T14:43:35.683Z</time>
      </trkpt>
      <trkpt lat="43.076685" lon="-0.60613">
        <ele>325.0</ele>
        <time>2019-07-07T14:43:36.680Z</time>
      </trkpt>
      <trkpt lat="43.07664667" lon="-0.60611167">
        <ele>325.0</ele>
        <time>2019-07-07T14:43:37.675Z</time>
      </trkpt>
      <trkpt lat="43.076625" lon="-0.60608833">
        <ele>325.0</ele>
        <time>2019-07-07T14:43:38.684Z</time>
      </trkpt>
      <trkpt lat="43.076625" lon="-0.60608833">
        <ele>325.0</ele>
        <time>2019-07-07T14:43:39.704Z</time>
      </trkpt>
      <trkpt lat="43.07658333" lon="-0.606065">
        <ele>325.0</ele>
        <time>2019-07-07T14:43:40.675Z</time>
      </trkpt>
      <trkpt lat="43.07658333" lon="-0.606065">
        <ele>325.0</ele>
        <time>2019-07-07T14:43:41.704Z</time>
      </trkpt>
      <trkpt lat="43.07654167" lon="-0.60607333">
        <ele>325.0</ele>
        <time>2019-07-07T14:43:42.665Z</time>
      </trkpt>
      <trkpt lat="43.07654167" lon="-0.60607333">
        <ele>325.0</ele>
        <time>2019-07-07T14:43:43.696Z</time>
      </trkpt>
      <trkpt lat="43.07652" lon="-0.60608667">
        <ele>325.0</ele>
        <time>2019-07-07T14:43:44.671Z</time>
      </trkpt>
      <trkpt lat="43.07652" lon="-0.60608667">
        <ele>325.0</ele>
        <time>2019-07-07T14:43:45.673Z</time>
      </trkpt>
      <trkpt lat="43.076515" lon="-0.60608333">
        <ele>324.0</ele>
        <time>2019-07-07T14:43:46.688Z</time>
      </trkpt>
      <trkpt lat="43.076515" lon="-0.60608333">
        <ele>324.0</ele>
        <time>2019-07-07T14:43:47.677Z</time>
      </trkpt>
      <trkpt lat="43.07660833" lon="-0.60602667">
        <ele>322.0</ele>
        <time>2019-07-07T14:43:48.703Z</time>
      </trkpt>
      <trkpt lat="43.07660833" lon="-0.60602667">
        <ele>322.0</ele>
        <time>2019-07-07T14:43:49.694Z</time>
      </trkpt>
      <trkpt lat="43.07665333" lon="-0.60605667">
        <ele>322.0</ele>
        <time>2019-07-07T14:43:50.699Z</time>
      </trkpt>
      <trkpt lat="43.07665667" lon="-0.606085">
        <ele>322.0</ele>
        <time>2019-07-07T14:43:51.675Z</time>
      </trkpt>
      <trkpt lat="43.07665667" lon="-0.606085">
        <ele>322.0</ele>
        <time>2019-07-07T14:43:52.677Z</time>
      </trkpt>
      <trkpt lat="43.07666667" lon="-0.60615167">
        <ele>323.0</ele>
        <time>2019-07-07T14:43:53.673Z</time>
      </trkpt>
      <trkpt lat="43.07667833" lon="-0.60617833">
        <ele>323.0</ele>
        <time>2019-07-07T14:43:54.675Z</time>
      </trkpt>
      <trkpt lat="43.07667833" lon="-0.60617833">
        <ele>323.0</ele>
        <time>2019-07-07T14:43:55.690Z</time>
      </trkpt>
      <trkpt lat="43.07671167" lon="-0.60623833">
        <ele>323.0</ele>
        <time>2019-07-07T14:43:56.698Z</time>
      </trkpt>
      <trkpt lat="43.07671167" lon="-0.60623833">
        <ele>323.0</ele>
        <time>2019-07-07T14:43:57.685Z</time>
      </trkpt>
      <trkpt lat="43.07673667" lon="-0.60630667">
        <ele>324.0</ele>
        <time>2019-07-07T14:43:58.705Z</time>
      </trkpt>
      <trkpt lat="43.07674833" lon="-0.60633833">
        <ele>324.0</ele>
        <time>2019-07-07T14:43:59.703Z</time>
      </trkpt>
      <trkpt lat="43.07674833" lon="-0.60633833">
        <ele>324.0</ele>
        <time>2019-07-07T14:44:00.690Z</time>
      </trkpt>
      <trkpt lat="43.07677833" lon="-0.60641">
        <ele>324.0</ele>
        <time>2019-07-07T14:44:01.701Z</time>
      </trkpt>
      <trkpt lat="43.07677833" lon="-0.60641">
        <ele>324.0</ele>
        <time>2019-07-07T14:44:02.683Z</time>
      </trkpt>
      <trkpt lat="43.07681667" lon="-0.60648333">
        <ele>324.0</ele>
        <time>2019-07-07T14:44:03.697Z</time>
      </trkpt>
      <trkpt lat="43.07681667" lon="-0.60648333">
        <ele>324.0</ele>
        <time>2019-07-07T14:44:04.677Z</time>
      </trkpt>
      <trkpt lat="43.07682833" lon="-0.606575">
        <ele>325.0</ele>
        <time>2019-07-07T14:44:05.691Z</time>
      </trkpt>
      <trkpt lat="43.07684" lon="-0.60661833">
        <ele>325.0</ele>
        <time>2019-07-07T14:44:06.673Z</time>
      </trkpt>
      <trkpt lat="43.07684" lon="-0.60661833">
        <ele>325.0</ele>
        <time>2019-07-07T14:44:07.686Z</time>
      </trkpt>
      <trkpt lat="43.076865" lon="-0.60671">
        <ele>326.0</ele>
        <time>2019-07-07T14:44:08.701Z</time>
      </trkpt>
      <trkpt lat="43.07688167" lon="-0.60675167">
        <ele>326.0</ele>
        <time>2019-07-07T14:44:09.665Z</time>
      </trkpt>
      <trkpt lat="43.07688167" lon="-0.60675167">
        <ele>326.0</ele>
        <time>2019-07-07T14:44:10.673Z</time>
      </trkpt>
      <trkpt lat="43.07692" lon="-0.60683667">
        <ele>326.0</ele>
        <time>2019-07-07T14:44:11.686Z</time>
      </trkpt>
      <trkpt lat="43.07692" lon="-0.60683667">
        <ele>326.0</ele>
        <time>2019-07-07T14:44:12.701Z</time>
      </trkpt>
      <trkpt lat="43.07696833" lon="-0.606915">
        <ele>326.0</ele>
        <time>2019-07-07T14:44:13.669Z</time>
      </trkpt>
      <trkpt lat="43.07696833" lon="-0.606915">
        <ele>326.0</ele>
        <time>2019-07-07T14:44:14.683Z</time>
      </trkpt>
      <trkpt lat="43.07702333" lon="-0.60698833">
        <ele>327.0</ele>
        <time>2019-07-07T14:44:15.670Z</time>
      </trkpt>
      <trkpt lat="43.07702333" lon="-0.60698833">
        <ele>327.0</ele>
        <time>2019-07-07T14:44:16.673Z</time>
      </trkpt>
      <trkpt lat="43.07709667" lon="-0.60705">
        <ele>327.0</ele>
        <time>2019-07-07T14:44:17.684Z</time>
      </trkpt>
      <trkpt lat="43.07712833" lon="-0.60709333">
        <ele>327.0</ele>
        <time>2019-07-07T14:44:18.672Z</time>
      </trkpt>
      <trkpt lat="43.07715167" lon="-0.60713167">
        <ele>327.0</ele>
        <time>2019-07-07T14:44:19.701Z</time>
      </trkpt>
      <trkpt lat="43.07715167" lon="-0.60713167">
        <ele>327.0</ele>
        <time>2019-07-07T14:44:20.694Z</time>
      </trkpt>
      <trkpt lat="43.07723" lon="-0.60718">
        <ele>327.0</ele>
        <time>2019-07-07T14:44:21.703Z</time>
      </trkpt>
      <trkpt lat="43.07723" lon="-0.60718">
        <ele>327.0</ele>
        <time>2019-07-07T14:44:22.671Z</time>
      </trkpt>
      <trkpt lat="43.07729667" lon="-0.60723">
        <ele>328.0</ele>
        <time>2019-07-07T14:44:23.679Z</time>
      </trkpt>
      <trkpt lat="43.07733333" lon="-0.60725167">
        <ele>328.0</ele>
        <time>2019-07-07T14:44:24.696Z</time>
      </trkpt>
      <trkpt lat="43.07733333" lon="-0.60725167">
        <ele>328.0</ele>
        <time>2019-07-07T14:44:25.684Z</time>
      </trkpt>
      <trkpt lat="43.077395" lon="-0.60733">
        <ele>330.0</ele>
        <time>2019-07-07T14:44:26.702Z</time>
      </trkpt>
      <trkpt lat="43.077435" lon="-0.607365">
        <ele>330.0</ele>
        <time>2019-07-07T14:44:27.679Z</time>
      </trkpt>
      <trkpt lat="43.077435" lon="-0.607365">
        <ele>330.0</ele>
        <time>2019-07-07T14:44:28.700Z</time>
      </trkpt>
      <trkpt lat="43.07750833" lon="-0.60743167">
        <ele>330.0</ele>
        <time>2019-07-07T14:44:29.675Z</time>
      </trkpt>
      <trkpt lat="43.07754667" lon="-0.60746833">
        <ele>331.0</ele>
        <time>2019-07-07T14:44:30.676Z</time>
      </trkpt>
      <trkpt lat="43.07754667" lon="-0.60746833">
        <ele>331.0</ele>
        <time>2019-07-07T14:44:31.692Z</time>
      </trkpt>
      <trkpt lat="43.07764833" lon="-0.60754667">
        <ele>330.0</ele>
        <time>2019-07-07T14:44:32.703Z</time>
      </trkpt>
      <trkpt lat="43.07764833" lon="-0.60754667">
        <ele>330.0</ele>
        <time>2019-07-07T14:44:33.684Z</time>
      </trkpt>
      <trkpt lat="43.07776333" lon="-0.607645">
        <ele>330.0</ele>
        <time>2019-07-07T14:44:34.697Z</time>
      </trkpt>
      <trkpt lat="43.07776333" lon="-0.607645">
        <ele>330.0</ele>
        <time>2019-07-07T14:44:35.694Z</time>
      </trkpt>
      <trkpt lat="43.077885" lon="-0.60776333">
        <ele>330.0</ele>
        <time>2019-07-07T14:44:36.703Z</time>
      </trkpt>
      <trkpt lat="43.077885" lon="-0.60776333">
        <ele>330.0</ele>
        <time>2019-07-07T14:44:37.691Z</time>
      </trkpt>
      <trkpt lat="43.07801" lon="-0.60788">
        <ele>330.0</ele>
        <time>2019-07-07T14:44:38.703Z</time>
      </trkpt>
      <trkpt lat="43.07801" lon="-0.60788">
        <ele>330.0</ele>
        <time>2019-07-07T14:44:39.673Z</time>
      </trkpt>
      <trkpt lat="43.07814" lon="-0.607985">
        <ele>330.0</ele>
        <time>2019-07-07T14:44:40.683Z</time>
      </trkpt>
      <trkpt lat="43.07814" lon="-0.607985">
        <ele>330.0</ele>
        <time>2019-07-07T14:44:41.684Z</time>
      </trkpt>
      <trkpt lat="43.07827833" lon="-0.60808167">
        <ele>330.0</ele>
        <time>2019-07-07T14:44:42.701Z</time>
      </trkpt>
      <trkpt lat="43.07827833" lon="-0.60808167">
        <ele>330.0</ele>
        <time>2019-07-07T14:44:43.675Z</time>
      </trkpt>
      <trkpt lat="43.07841667" lon="-0.60818">
        <ele>330.0</ele>
        <time>2019-07-07T14:44:44.683Z</time>
      </trkpt>
      <trkpt lat="43.07841667" lon="-0.60818">
        <ele>330.0</ele>
        <time>2019-07-07T14:44:45.676Z</time>
      </trkpt>
      <trkpt lat="43.07854833" lon="-0.60827167">
        <ele>330.0</ele>
        <time>2019-07-07T14:44:46.690Z</time>
      </trkpt>
      <trkpt lat="43.07854833" lon="-0.60827167">
        <ele>330.0</ele>
        <time>2019-07-07T14:44:47.695Z</time>
      </trkpt>
      <trkpt lat="43.07868" lon="-0.60836333">
        <ele>330.0</ele>
        <time>2019-07-07T14:44:48.707Z</time>
      </trkpt>
      <trkpt lat="43.07868" lon="-0.60836333">
        <ele>330.0</ele>
        <time>2019-07-07T14:44:49.695Z</time>
      </trkpt>
      <trkpt lat="43.07881167" lon="-0.60846">
        <ele>329.0</ele>
        <time>2019-07-07T14:44:50.703Z</time>
      </trkpt>
      <trkpt lat="43.07881167" lon="-0.60846">
        <ele>329.0</ele>
        <time>2019-07-07T14:44:51.694Z</time>
      </trkpt>
      <trkpt lat="43.07894667" lon="-0.60853833">
        <ele>329.0</ele>
        <time>2019-07-07T14:44:52.666Z</time>
      </trkpt>
      <trkpt lat="43.07901667" lon="-0.60857">
        <ele>329.0</ele>
        <time>2019-07-07T14:44:53.683Z</time>
      </trkpt>
      <trkpt lat="43.07909" lon="-0.6086">
        <ele>329.0</ele>
        <time>2019-07-07T14:44:54.665Z</time>
      </trkpt>
      <trkpt lat="43.07909" lon="-0.6086">
        <ele>329.0</ele>
        <time>2019-07-07T14:44:55.674Z</time>
      </trkpt>
      <trkpt lat="43.07923833" lon="-0.60865167">
        <ele>328.0</ele>
        <time>2019-07-07T14:44:56.681Z</time>
      </trkpt>
      <trkpt lat="43.07931167" lon="-0.60867333">
        <ele>328.0</ele>
        <time>2019-07-07T14:44:57.696Z</time>
      </trkpt>
      <trkpt lat="43.07931167" lon="-0.60867333">
        <ele>328.0</ele>
        <time>2019-07-07T14:44:58.694Z</time>
      </trkpt>
      <trkpt lat="43.07945667" lon="-0.60871167">
        <ele>328.0</ele>
        <time>2019-07-07T14:44:59.703Z</time>
      </trkpt>
      <trkpt lat="43.07953" lon="-0.60873">
        <ele>328.0</ele>
        <time>2019-07-07T14:45:00.677Z</time>
      </trkpt>
      <trkpt lat="43.07953" lon="-0.60873">
        <ele>328.0</ele>
        <time>2019-07-07T14:45:01.673Z</time>
      </trkpt>
      <trkpt lat="43.07967667" lon="-0.608765">
        <ele>327.0</ele>
        <time>2019-07-07T14:45:02.683Z</time>
      </trkpt>
      <trkpt lat="43.07967667" lon="-0.608765">
        <ele>327.0</ele>
        <time>2019-07-07T14:45:03.676Z</time>
      </trkpt>
      <trkpt lat="43.079825" lon="-0.6088">
        <ele>327.0</ele>
        <time>2019-07-07T14:45:04.685Z</time>
      </trkpt>
      <trkpt lat="43.079825" lon="-0.6088">
        <ele>327.0</ele>
        <time>2019-07-07T14:45:05.693Z</time>
      </trkpt>
      <trkpt lat="43.07997667" lon="-0.60883167">
        <ele>327.0</ele>
        <time>2019-07-07T14:45:06.704Z</time>
      </trkpt>
      <trkpt lat="43.07997667" lon="-0.60883167">
        <ele>327.0</ele>
        <time>2019-07-07T14:45:07.670Z</time>
      </trkpt>
      <trkpt lat="43.08012833" lon="-0.60885667">
        <ele>327.0</ele>
        <time>2019-07-07T14:45:08.693Z</time>
      </trkpt>
      <trkpt lat="43.08020667" lon="-0.608865">
        <ele>327.0</ele>
        <time>2019-07-07T14:45:09.665Z</time>
      </trkpt>
      <trkpt lat="43.08020667" lon="-0.608865">
        <ele>327.0</ele>
        <time>2019-07-07T14:45:10.694Z</time>
      </trkpt>
      <trkpt lat="43.08036333" lon="-0.60886833">
        <ele>327.0</ele>
        <time>2019-07-07T14:45:11.713Z</time>
      </trkpt>
      <trkpt lat="43.08044" lon="-0.60886167">
        <ele>327.0</ele>
        <time>2019-07-07T14:45:12.681Z</time>
      </trkpt>
      <trkpt lat="43.08044" lon="-0.60886167">
        <ele>327.0</ele>
        <time>2019-07-07T14:45:13.698Z</time>
      </trkpt>
      <trkpt lat="43.08059333" lon="-0.60883667">
        <ele>328.0</ele>
        <time>2019-07-07T14:45:14.665Z</time>
      </trkpt>
      <trkpt lat="43.08059333" lon="-0.60883667">
        <ele>328.0</ele>
        <time>2019-07-07T14:45:15.669Z</time>
      </trkpt>
      <trkpt lat="43.08073833" lon="-0.60881333">
        <ele>328.0</ele>
        <time>2019-07-07T14:45:16.680Z</time>
      </trkpt>
      <trkpt lat="43.08073833" lon="-0.60881333">
        <ele>328.0</ele>
        <time>2019-07-07T14:45:17.665Z</time>
      </trkpt>
      <trkpt lat="43.08089167" lon="-0.60878333">
        <ele>328.0</ele>
        <time>2019-07-07T14:45:18.679Z</time>
      </trkpt>
      <trkpt lat="43.08096667" lon="-0.60876333">
        <ele>328.0</ele>
        <time>2019-07-07T14:45:19.702Z</time>
      </trkpt>
      <trkpt lat="43.08096667" lon="-0.60876333">
        <ele>328.0</ele>
        <time>2019-07-07T14:45:20.673Z</time>
      </trkpt>
      <trkpt lat="43.08111833" lon="-0.60869333">
        <ele>328.0</ele>
        <time>2019-07-07T14:45:21.695Z</time>
      </trkpt>
      <trkpt lat="43.08111833" lon="-0.60869333">
        <ele>328.0</ele>
        <time>2019-07-07T14:45:22.675Z</time>
      </trkpt>
      <trkpt lat="43.08126833" lon="-0.608595">
        <ele>327.0</ele>
        <time>2019-07-07T14:45:23.699Z</time>
      </trkpt>
      <trkpt lat="43.08134333" lon="-0.60857833">
        <ele>327.0</ele>
        <time>2019-07-07T14:45:24.704Z</time>
      </trkpt>
      <trkpt lat="43.08134333" lon="-0.60857833">
        <ele>327.0</ele>
        <time>2019-07-07T14:45:25.683Z</time>
      </trkpt>
      <trkpt lat="43.08149667" lon="-0.60862">
        <ele>326.0</ele>
        <time>2019-07-07T14:45:26.704Z</time>
      </trkpt>
      <trkpt lat="43.08149667" lon="-0.60862">
        <ele>326.0</ele>
        <time>2019-07-07T14:45:27.699Z</time>
      </trkpt>
      <trkpt lat="43.08163667" lon="-0.60868">
        <ele>326.0</ele>
        <time>2019-07-07T14:45:28.682Z</time>
      </trkpt>
      <trkpt lat="43.08163667" lon="-0.60868">
        <ele>326.0</ele>
        <time>2019-07-07T14:45:29.675Z</time>
      </trkpt>
      <trkpt lat="43.08178167" lon="-0.608735">
        <ele>326.0</ele>
        <time>2019-07-07T14:45:30.689Z</time>
      </trkpt>
      <trkpt lat="43.08178167" lon="-0.608735">
        <ele>326.0</ele>
        <time>2019-07-07T14:45:31.676Z</time>
      </trkpt>
      <trkpt lat="43.08193" lon="-0.60877833">
        <ele>325.0</ele>
        <time>2019-07-07T14:45:32.684Z</time>
      </trkpt>
      <trkpt lat="43.08193" lon="-0.60877833">
        <ele>325.0</ele>
        <time>2019-07-07T14:45:33.674Z</time>
      </trkpt>
      <trkpt lat="43.082085" lon="-0.60877833">
        <ele>325.0</ele>
        <time>2019-07-07T14:45:34.685Z</time>
      </trkpt>
      <trkpt lat="43.082085" lon="-0.60877833">
        <ele>325.0</ele>
        <time>2019-07-07T14:45:35.671Z</time>
      </trkpt>
      <trkpt lat="43.08224833" lon="-0.60872667">
        <ele>324.0</ele>
        <time>2019-07-07T14:45:36.683Z</time>
      </trkpt>
      <trkpt lat="43.08224833" lon="-0.60872667">
        <ele>324.0</ele>
        <time>2019-07-07T14:45:37.690Z</time>
      </trkpt>
      <trkpt lat="43.082415" lon="-0.60862667">
        <ele>324.0</ele>
        <time>2019-07-07T14:45:38.702Z</time>
      </trkpt>
      <trkpt lat="43.08249833" lon="-0.60857167">
        <ele>323.0</ele>
        <time>2019-07-07T14:45:39.705Z</time>
      </trkpt>
      <trkpt lat="43.08249833" lon="-0.60857167">
        <ele>323.0</ele>
        <time>2019-07-07T14:45:40.672Z</time>
      </trkpt>
      <trkpt lat="43.08267833" lon="-0.60848333">
        <ele>322.0</ele>
        <time>2019-07-07T14:45:41.685Z</time>
      </trkpt>
      <trkpt lat="43.08277167" lon="-0.60848167">
        <ele>322.0</ele>
        <time>2019-07-07T14:45:42.665Z</time>
      </trkpt>
      <trkpt lat="43.08277167" lon="-0.60848167">
        <ele>322.0</ele>
        <time>2019-07-07T14:45:43.684Z</time>
      </trkpt>
      <trkpt lat="43.08292667" lon="-0.60857333">
        <ele>322.0</ele>
        <time>2019-07-07T14:45:44.673Z</time>
      </trkpt>
      <trkpt lat="43.082985" lon="-0.608645">
        <ele>322.0</ele>
        <time>2019-07-07T14:45:45.681Z</time>
      </trkpt>
      <trkpt lat="43.082985" lon="-0.608645">
        <ele>322.0</ele>
        <time>2019-07-07T14:45:46.682Z</time>
      </trkpt>
      <trkpt lat="43.08306667" lon="-0.60879833">
        <ele>321.0</ele>
        <time>2019-07-07T14:45:47.694Z</time>
      </trkpt>
      <trkpt lat="43.08306667" lon="-0.608895">
        <ele>322.0</ele>
        <time>2019-07-07T14:45:48.697Z</time>
      </trkpt>
      <trkpt lat="43.08306667" lon="-0.608895">
        <ele>322.0</ele>
        <time>2019-07-07T14:45:49.678Z</time>
      </trkpt>
      <trkpt lat="43.08309167" lon="-0.60907">
        <ele>322.0</ele>
        <time>2019-07-07T14:45:50.702Z</time>
      </trkpt>
      <trkpt lat="43.08310667" lon="-0.60915167">
        <ele>322.0</ele>
        <time>2019-07-07T14:45:51.692Z</time>
      </trkpt>
      <trkpt lat="43.08312333" lon="-0.60923333">
        <ele>322.0</ele>
        <time>2019-07-07T14:45:52.702Z</time>
      </trkpt>
      <trkpt lat="43.08312333" lon="-0.60923333">
        <ele>322.0</ele>
        <time>2019-07-07T14:45:53.691Z</time>
      </trkpt>
      <trkpt lat="43.08316167" lon="-0.60938667">
        <ele>322.0</ele>
        <time>2019-07-07T14:45:54.703Z</time>
      </trkpt>
      <trkpt lat="43.08316167" lon="-0.60938667">
        <ele>322.0</ele>
        <time>2019-07-07T14:45:55.667Z</time>
      </trkpt>
      <trkpt lat="43.083225" lon="-0.609545">
        <ele>322.0</ele>
        <time>2019-07-07T14:45:56.684Z</time>
      </trkpt>
      <trkpt lat="43.083225" lon="-0.609545">
        <ele>322.0</ele>
        <time>2019-07-07T14:45:57.684Z</time>
      </trkpt>
      <trkpt lat="43.08328333" lon="-0.60972333">
        <ele>321.0</ele>
        <time>2019-07-07T14:45:58.700Z</time>
      </trkpt>
      <trkpt lat="43.08328333" lon="-0.60972333">
        <ele>321.0</ele>
        <time>2019-07-07T14:45:59.681Z</time>
      </trkpt>
      <trkpt lat="43.08333333" lon="-0.60993">
        <ele>320.0</ele>
        <time>2019-07-07T14:46:00.691Z</time>
      </trkpt>
      <trkpt lat="43.08333333" lon="-0.60993">
        <ele>320.0</ele>
        <time>2019-07-07T14:46:01.674Z</time>
      </trkpt>
      <trkpt lat="43.08338333" lon="-0.61015833">
        <ele>319.0</ele>
        <time>2019-07-07T14:46:02.684Z</time>
      </trkpt>
      <trkpt lat="43.08338333" lon="-0.61015833">
        <ele>319.0</ele>
        <time>2019-07-07T14:46:03.674Z</time>
      </trkpt>
      <trkpt lat="43.083445" lon="-0.610415">
        <ele>317.0</ele>
        <time>2019-07-07T14:46:04.683Z</time>
      </trkpt>
      <trkpt lat="43.083445" lon="-0.610415">
        <ele>317.0</ele>
        <time>2019-07-07T14:46:05.685Z</time>
      </trkpt>
      <trkpt lat="43.08352667" lon="-0.61067333">
        <ele>316.0</ele>
        <time>2019-07-07T14:46:06.691Z</time>
      </trkpt>
      <trkpt lat="43.08352667" lon="-0.61067333">
        <ele>316.0</ele>
        <time>2019-07-07T14:46:07.692Z</time>
      </trkpt>
      <trkpt lat="43.08362" lon="-0.61090333">
        <ele>315.0</ele>
        <time>2019-07-07T14:46:08.703Z</time>
      </trkpt>
      <trkpt lat="43.08368333" lon="-0.611">
        <ele>315.0</ele>
        <time>2019-07-07T14:46:09.697Z</time>
      </trkpt>
      <trkpt lat="43.08368333" lon="-0.611">
        <ele>315.0</ele>
        <time>2019-07-07T14:46:10.668Z</time>
      </trkpt>
      <trkpt lat="43.08383333" lon="-0.611145">
        <ele>314.0</ele>
        <time>2019-07-07T14:46:11.692Z</time>
      </trkpt>
      <trkpt lat="43.08383333" lon="-0.611145">
        <ele>314.0</ele>
        <time>2019-07-07T14:46:12.679Z</time>
      </trkpt>
      <trkpt lat="43.08399333" lon="-0.611245">
        <ele>314.0</ele>
        <time>2019-07-07T14:46:13.681Z</time>
      </trkpt>
      <trkpt lat="43.08399333" lon="-0.611245">
        <ele>314.0</ele>
        <time>2019-07-07T14:46:14.685Z</time>
      </trkpt>
      <trkpt lat="43.08414167" lon="-0.61135667">
        <ele>313.0</ele>
        <time>2019-07-07T14:46:15.675Z</time>
      </trkpt>
      <trkpt lat="43.08414167" lon="-0.61135667">
        <ele>313.0</ele>
        <time>2019-07-07T14:46:16.684Z</time>
      </trkpt>
      <trkpt lat="43.08426833" lon="-0.61149167">
        <ele>313.0</ele>
        <time>2019-07-07T14:46:17.695Z</time>
      </trkpt>
      <trkpt lat="43.084335" lon="-0.61155167">
        <ele>313.0</ele>
        <time>2019-07-07T14:46:18.698Z</time>
      </trkpt>
      <trkpt lat="43.084335" lon="-0.61155167">
        <ele>313.0</ele>
        <time>2019-07-07T14:46:19.674Z</time>
      </trkpt>
      <trkpt lat="43.08447833" lon="-0.611635">
        <ele>312.0</ele>
        <time>2019-07-07T14:46:20.684Z</time>
      </trkpt>
      <trkpt lat="43.08455667" lon="-0.61165667">
        <ele>313.0</ele>
        <time>2019-07-07T14:46:21.700Z</time>
      </trkpt>
      <trkpt lat="43.08455667" lon="-0.61165667">
        <ele>313.0</ele>
        <time>2019-07-07T14:46:22.699Z</time>
      </trkpt>
      <trkpt lat="43.08471833" lon="-0.61166667">
        <ele>312.0</ele>
        <time>2019-07-07T14:46:23.666Z</time>
      </trkpt>
      <trkpt lat="43.0848" lon="-0.61165167">
        <ele>312.0</ele>
        <time>2019-07-07T14:46:24.706Z</time>
      </trkpt>
      <trkpt lat="43.0848" lon="-0.61165167">
        <ele>312.0</ele>
        <time>2019-07-07T14:46:25.705Z</time>
      </trkpt>
      <trkpt lat="43.08496" lon="-0.61159">
        <ele>311.0</ele>
        <time>2019-07-07T14:46:26.676Z</time>
      </trkpt>
      <trkpt lat="43.08496" lon="-0.61159">
        <ele>311.0</ele>
        <time>2019-07-07T14:46:27.705Z</time>
      </trkpt>
      <trkpt lat="43.085115" lon="-0.61150833">
        <ele>311.0</ele>
        <time>2019-07-07T14:46:28.683Z</time>
      </trkpt>
      <trkpt lat="43.085115" lon="-0.61150833">
        <ele>311.0</ele>
        <time>2019-07-07T14:46:29.684Z</time>
      </trkpt>
      <trkpt lat="43.08526667" lon="-0.61142">
        <ele>310.0</ele>
        <time>2019-07-07T14:46:30.692Z</time>
      </trkpt>
      <trkpt lat="43.08526667" lon="-0.61142">
        <ele>310.0</ele>
        <time>2019-07-07T14:46:31.684Z</time>
      </trkpt>
      <trkpt lat="43.08542167" lon="-0.61134667">
        <ele>310.0</ele>
        <time>2019-07-07T14:46:32.694Z</time>
      </trkpt>
      <trkpt lat="43.085505" lon="-0.61131333">
        <ele>310.0</ele>
        <time>2019-07-07T14:46:33.693Z</time>
      </trkpt>
      <trkpt lat="43.085505" lon="-0.61131333">
        <ele>310.0</ele>
        <time>2019-07-07T14:46:34.705Z</time>
      </trkpt>
      <trkpt lat="43.08568" lon="-0.61128">
        <ele>310.0</ele>
        <time>2019-07-07T14:46:35.676Z</time>
      </trkpt>
      <trkpt lat="43.08576833" lon="-0.611275">
        <ele>311.0</ele>
        <time>2019-07-07T14:46:36.705Z</time>
      </trkpt>
      <trkpt lat="43.08576833" lon="-0.611275">
        <ele>311.0</ele>
        <time>2019-07-07T14:46:37.683Z</time>
      </trkpt>
      <trkpt lat="43.08594167" lon="-0.61125667">
        <ele>311.0</ele>
        <time>2019-07-07T14:46:38.693Z</time>
      </trkpt>
      <trkpt lat="43.08594167" lon="-0.61125667">
        <ele>311.0</ele>
        <time>2019-07-07T14:46:39.673Z</time>
      </trkpt>
      <trkpt lat="43.08612167" lon="-0.61122167">
        <ele>311.0</ele>
        <time>2019-07-07T14:46:40.681Z</time>
      </trkpt>
      <trkpt lat="43.08621167" lon="-0.61120333">
        <ele>311.0</ele>
        <time>2019-07-07T14:46:41.683Z</time>
      </trkpt>
      <trkpt lat="43.08630667" lon="-0.61118167">
        <ele>311.0</ele>
        <time>2019-07-07T14:46:42.700Z</time>
      </trkpt>
      <trkpt lat="43.08630667" lon="-0.61118167">
        <ele>311.0</ele>
        <time>2019-07-07T14:46:43.675Z</time>
      </trkpt>
      <trkpt lat="43.08650333" lon="-0.611145">
        <ele>311.0</ele>
        <time>2019-07-07T14:46:44.683Z</time>
      </trkpt>
      <trkpt lat="43.08660667" lon="-0.61112667">
        <ele>310.0</ele>
        <time>2019-07-07T14:46:45.667Z</time>
      </trkpt>
      <trkpt lat="43.08660667" lon="-0.61112667">
        <ele>310.0</ele>
        <time>2019-07-07T14:46:46.684Z</time>
      </trkpt>
      <trkpt lat="43.08680667" lon="-0.61110667">
        <ele>310.0</ele>
        <time>2019-07-07T14:46:47.693Z</time>
      </trkpt>
      <trkpt lat="43.08690833" lon="-0.61110167">
        <ele>309.0</ele>
        <time>2019-07-07T14:46:48.665Z</time>
      </trkpt>
      <trkpt lat="43.08690833" lon="-0.61110167">
        <ele>309.0</ele>
        <time>2019-07-07T14:46:49.694Z</time>
      </trkpt>
      <trkpt lat="43.08711333" lon="-0.61109167">
        <ele>308.0</ele>
        <time>2019-07-07T14:46:50.703Z</time>
      </trkpt>
      <trkpt lat="43.08721333" lon="-0.61108167">
        <ele>308.0</ele>
        <time>2019-07-07T14:46:51.698Z</time>
      </trkpt>
      <trkpt lat="43.08721333" lon="-0.61108167">
        <ele>308.0</ele>
        <time>2019-07-07T14:46:52.696Z</time>
      </trkpt>
      <trkpt lat="43.08741" lon="-0.61106333">
        <ele>308.0</ele>
        <time>2019-07-07T14:46:53.703Z</time>
      </trkpt>
      <trkpt lat="43.087505" lon="-0.61105">
        <ele>309.0</ele>
        <time>2019-07-07T14:46:54.682Z</time>
      </trkpt>
      <trkpt lat="43.087505" lon="-0.61105">
        <ele>309.0</ele>
        <time>2019-07-07T14:46:55.684Z</time>
      </trkpt>
      <trkpt lat="43.08769333" lon="-0.611015">
        <ele>310.0</ele>
        <time>2019-07-07T14:46:56.705Z</time>
      </trkpt>
      <trkpt lat="43.087785" lon="-0.610995">
        <ele>310.0</ele>
        <time>2019-07-07T14:46:57.680Z</time>
      </trkpt>
      <trkpt lat="43.087785" lon="-0.610995">
        <ele>310.0</ele>
        <time>2019-07-07T14:46:58.697Z</time>
      </trkpt>
      <trkpt lat="43.08796167" lon="-0.61095833">
        <ele>310.0</ele>
        <time>2019-07-07T14:46:59.668Z</time>
      </trkpt>
      <trkpt lat="43.08804833" lon="-0.61093667">
        <ele>310.0</ele>
        <time>2019-07-07T14:47:00.675Z</time>
      </trkpt>
      <trkpt lat="43.08804833" lon="-0.61093667">
        <ele>310.0</ele>
        <time>2019-07-07T14:47:01.684Z</time>
      </trkpt>
      <trkpt lat="43.088215" lon="-0.610885">
        <ele>310.0</ele>
        <time>2019-07-07T14:47:02.694Z</time>
      </trkpt>
      <trkpt lat="43.08829333" lon="-0.61084667">
        <ele>310.0</ele>
        <time>2019-07-07T14:47:03.700Z</time>
      </trkpt>
      <trkpt lat="43.08829333" lon="-0.61084667">
        <ele>310.0</ele>
        <time>2019-07-07T14:47:04.691Z</time>
      </trkpt>
      <trkpt lat="43.08845333" lon="-0.61074833">
        <ele>310.0</ele>
        <time>2019-07-07T14:47:05.703Z</time>
      </trkpt>
      <trkpt lat="43.088545" lon="-0.61071833">
        <ele>310.0</ele>
        <time>2019-07-07T14:47:06.695Z</time>
      </trkpt>
      <trkpt lat="43.088545" lon="-0.61071833">
        <ele>310.0</ele>
        <time>2019-07-07T14:47:07.694Z</time>
      </trkpt>
      <trkpt lat="43.088725" lon="-0.610705">
        <ele>311.0</ele>
        <time>2019-07-07T14:47:08.705Z</time>
      </trkpt>
      <trkpt lat="43.08881" lon="-0.61070833">
        <ele>310.0</ele>
        <time>2019-07-07T14:47:09.667Z</time>
      </trkpt>
      <trkpt lat="43.08881" lon="-0.61070833">
        <ele>310.0</ele>
        <time>2019-07-07T14:47:10.694Z</time>
      </trkpt>
      <trkpt lat="43.088975" lon="-0.61070833">
        <ele>310.0</ele>
        <time>2019-07-07T14:47:11.705Z</time>
      </trkpt>
      <trkpt lat="43.08905667" lon="-0.61070667">
        <ele>310.0</ele>
        <time>2019-07-07T14:47:12.669Z</time>
      </trkpt>
      <trkpt lat="43.08905667" lon="-0.61070667">
        <ele>310.0</ele>
        <time>2019-07-07T14:47:13.685Z</time>
      </trkpt>
      <trkpt lat="43.08921833" lon="-0.61071167">
        <ele>310.0</ele>
        <time>2019-07-07T14:47:14.703Z</time>
      </trkpt>
      <trkpt lat="43.08929833" lon="-0.61071667">
        <ele>310.0</ele>
        <time>2019-07-07T14:47:15.705Z</time>
      </trkpt>
      <trkpt lat="43.08929833" lon="-0.61071667">
        <ele>310.0</ele>
        <time>2019-07-07T14:47:16.684Z</time>
      </trkpt>
      <trkpt lat="43.08946167" lon="-0.61072833">
        <ele>310.0</ele>
        <time>2019-07-07T14:47:17.696Z</time>
      </trkpt>
      <trkpt lat="43.08954167" lon="-0.61073667">
        <ele>310.0</ele>
        <time>2019-07-07T14:47:18.674Z</time>
      </trkpt>
      <trkpt lat="43.08954167" lon="-0.61073667">
        <ele>310.0</ele>
        <time>2019-07-07T14:47:19.680Z</time>
      </trkpt>
      <trkpt lat="43.08969833" lon="-0.61075667">
        <ele>310.0</ele>
        <time>2019-07-07T14:47:20.696Z</time>
      </trkpt>
      <trkpt lat="43.08977667" lon="-0.610765">
        <ele>310.0</ele>
        <time>2019-07-07T14:47:21.687Z</time>
      </trkpt>
      <trkpt lat="43.08977667" lon="-0.610765">
        <ele>310.0</ele>
        <time>2019-07-07T14:47:22.686Z</time>
      </trkpt>
      <trkpt lat="43.089925" lon="-0.610785">
        <ele>310.0</ele>
        <time>2019-07-07T14:47:23.701Z</time>
      </trkpt>
      <trkpt lat="43.089925" lon="-0.610785">
        <ele>310.0</ele>
        <time>2019-07-07T14:47:24.680Z</time>
      </trkpt>
      <trkpt lat="43.09005667" lon="-0.61082167">
        <ele>311.0</ele>
        <time>2019-07-07T14:47:25.703Z</time>
      </trkpt>
      <trkpt lat="43.09005667" lon="-0.61082167">
        <ele>311.0</ele>
        <time>2019-07-07T14:47:26.692Z</time>
      </trkpt>
      <trkpt lat="43.09018167" lon="-0.61085333">
        <ele>311.0</ele>
        <time>2019-07-07T14:47:27.672Z</time>
      </trkpt>
      <trkpt lat="43.09018167" lon="-0.61085333">
        <ele>311.0</ele>
        <time>2019-07-07T14:47:28.690Z</time>
      </trkpt>
      <trkpt lat="43.090305" lon="-0.61088167">
        <ele>311.0</ele>
        <time>2019-07-07T14:47:29.702Z</time>
      </trkpt>
      <trkpt lat="43.090305" lon="-0.61088167">
        <ele>311.0</ele>
        <time>2019-07-07T14:47:30.698Z</time>
      </trkpt>
      <trkpt lat="43.09042167" lon="-0.61092333">
        <ele>312.0</ele>
        <time>2019-07-07T14:47:31.695Z</time>
      </trkpt>
      <trkpt lat="43.09042167" lon="-0.61092333">
        <ele>312.0</ele>
        <time>2019-07-07T14:47:32.679Z</time>
      </trkpt>
      <trkpt lat="43.09053833" lon="-0.61095667">
        <ele>312.0</ele>
        <time>2019-07-07T14:47:33.700Z</time>
      </trkpt>
      <trkpt lat="43.09059167" lon="-0.610975">
        <ele>313.0</ele>
        <time>2019-07-07T14:47:34.703Z</time>
      </trkpt>
      <trkpt lat="43.09059167" lon="-0.610975">
        <ele>313.0</ele>
        <time>2019-07-07T14:47:35.687Z</time>
      </trkpt>
      <trkpt lat="43.090695" lon="-0.61101333">
        <ele>314.0</ele>
        <time>2019-07-07T14:47:36.705Z</time>
      </trkpt>
      <trkpt lat="43.090695" lon="-0.61101333">
        <ele>314.0</ele>
        <time>2019-07-07T14:47:37.693Z</time>
      </trkpt>
      <trkpt lat="43.09081167" lon="-0.61101667">
        <ele>313.0</ele>
        <time>2019-07-07T14:47:38.702Z</time>
      </trkpt>
      <trkpt lat="43.09086333" lon="-0.61103333">
        <ele>314.0</ele>
        <time>2019-07-07T14:47:39.697Z</time>
      </trkpt>
      <trkpt lat="43.09086333" lon="-0.61103333">
        <ele>314.0</ele>
        <time>2019-07-07T14:47:40.675Z</time>
      </trkpt>
      <trkpt lat="43.09096333" lon="-0.61107167">
        <ele>315.0</ele>
        <time>2019-07-07T14:47:41.686Z</time>
      </trkpt>
      <trkpt lat="43.091015" lon="-0.61109">
        <ele>315.0</ele>
        <time>2019-07-07T14:47:42.690Z</time>
      </trkpt>
      <trkpt lat="43.091015" lon="-0.61109">
        <ele>315.0</ele>
        <time>2019-07-07T14:47:43.682Z</time>
      </trkpt>
      <trkpt lat="43.09112333" lon="-0.61112667">
        <ele>315.0</ele>
        <time>2019-07-07T14:47:44.699Z</time>
      </trkpt>
      <trkpt lat="43.09112333" lon="-0.61112667">
        <ele>315.0</ele>
        <time>2019-07-07T14:47:45.674Z</time>
      </trkpt>
      <trkpt lat="43.09123667" lon="-0.61116">
        <ele>315.0</ele>
        <time>2019-07-07T14:47:46.685Z</time>
      </trkpt>
      <trkpt lat="43.09123667" lon="-0.61116">
        <ele>315.0</ele>
        <time>2019-07-07T14:47:47.671Z</time>
      </trkpt>
      <trkpt lat="43.091355" lon="-0.611175">
        <ele>317.0</ele>
        <time>2019-07-07T14:47:48.684Z</time>
      </trkpt>
      <trkpt lat="43.091355" lon="-0.611175">
        <ele>317.0</ele>
        <time>2019-07-07T14:47:49.670Z</time>
      </trkpt>
      <trkpt lat="43.09148333" lon="-0.61117167">
        <ele>317.0</ele>
        <time>2019-07-07T14:47:50.679Z</time>
      </trkpt>
      <trkpt lat="43.09153833" lon="-0.61118333">
        <ele>318.0</ele>
        <time>2019-07-07T14:47:51.686Z</time>
      </trkpt>
      <trkpt lat="43.09153833" lon="-0.61118333">
        <ele>318.0</ele>
        <time>2019-07-07T14:47:52.700Z</time>
      </trkpt>
      <trkpt lat="43.09165" lon="-0.61122">
        <ele>321.0</ele>
        <time>2019-07-07T14:47:53.690Z</time>
      </trkpt>
      <trkpt lat="43.09170833" lon="-0.61125">
        <ele>322.0</ele>
        <time>2019-07-07T14:47:54.686Z</time>
      </trkpt>
      <trkpt lat="43.09170833" lon="-0.61125">
        <ele>322.0</ele>
        <time>2019-07-07T14:47:55.700Z</time>
      </trkpt>
      <trkpt lat="43.091815" lon="-0.61133667">
        <ele>323.0</ele>
        <time>2019-07-07T14:47:56.668Z</time>
      </trkpt>
      <trkpt lat="43.09186667" lon="-0.61139">
        <ele>322.0</ele>
        <time>2019-07-07T14:47:57.693Z</time>
      </trkpt>
      <trkpt lat="43.09186667" lon="-0.61139">
        <ele>322.0</ele>
        <time>2019-07-07T14:47:58.684Z</time>
      </trkpt>
      <trkpt lat="43.09196333" lon="-0.61150167">
        <ele>322.0</ele>
        <time>2019-07-07T14:47:59.695Z</time>
      </trkpt>
      <trkpt lat="43.09201" lon="-0.61156">
        <ele>322.0</ele>
        <time>2019-07-07T14:48:00.698Z</time>
      </trkpt>
      <trkpt lat="43.09201" lon="-0.61156">
        <ele>322.0</ele>
        <time>2019-07-07T14:48:01.677Z</time>
      </trkpt>
      <trkpt lat="43.09211333" lon="-0.61167167">
        <ele>322.0</ele>
        <time>2019-07-07T14:48:02.692Z</time>
      </trkpt>
      <trkpt lat="43.09211333" lon="-0.61167167">
        <ele>322.0</ele>
        <time>2019-07-07T14:48:03.684Z</time>
      </trkpt>
      <trkpt lat="43.092215" lon="-0.61179167">
        <ele>322.0</ele>
        <time>2019-07-07T14:48:04.697Z</time>
      </trkpt>
      <trkpt lat="43.092215" lon="-0.61179167">
        <ele>322.0</ele>
        <time>2019-07-07T14:48:05.673Z</time>
      </trkpt>
      <trkpt lat="43.09232" lon="-0.61192333">
        <ele>321.0</ele>
        <time>2019-07-07T14:48:06.685Z</time>
      </trkpt>
      <trkpt lat="43.09232" lon="-0.61192333">
        <ele>321.0</ele>
        <time>2019-07-07T14:48:07.677Z</time>
      </trkpt>
      <trkpt lat="43.09242667" lon="-0.61205333">
        <ele>322.0</ele>
        <time>2019-07-07T14:48:08.687Z</time>
      </trkpt>
      <trkpt lat="43.09242667" lon="-0.61205333">
        <ele>322.0</ele>
        <time>2019-07-07T14:48:09.685Z</time>
      </trkpt>
      <trkpt lat="43.09255" lon="-0.612175">
        <ele>321.0</ele>
        <time>2019-07-07T14:48:10.696Z</time>
      </trkpt>
      <trkpt lat="43.09261" lon="-0.61224167">
        <ele>320.0</ele>
        <time>2019-07-07T14:48:11.667Z</time>
      </trkpt>
      <trkpt lat="43.09261" lon="-0.61224167">
        <ele>320.0</ele>
        <time>2019-07-07T14:48:12.684Z</time>
      </trkpt>
      <trkpt lat="43.09273" lon="-0.61236833">
        <ele>320.0</ele>
        <time>2019-07-07T14:48:13.694Z</time>
      </trkpt>
      <trkpt lat="43.09273" lon="-0.61236833">
        <ele>320.0</ele>
        <time>2019-07-07T14:48:14.684Z</time>
      </trkpt>
      <trkpt lat="43.09287" lon="-0.61247167">
        <ele>319.0</ele>
        <time>2019-07-07T14:48:15.693Z</time>
      </trkpt>
      <trkpt lat="43.09287" lon="-0.61247167">
        <ele>319.0</ele>
        <time>2019-07-07T14:48:16.703Z</time>
      </trkpt>
      <trkpt lat="43.09302167" lon="-0.61254167">
        <ele>318.0</ele>
        <time>2019-07-07T14:48:17.673Z</time>
      </trkpt>
      <trkpt lat="43.09302167" lon="-0.61254167">
        <ele>318.0</ele>
        <time>2019-07-07T14:48:18.686Z</time>
      </trkpt>
      <trkpt lat="43.09318167" lon="-0.61258667">
        <ele>317.0</ele>
        <time>2019-07-07T14:48:19.701Z</time>
      </trkpt>
      <trkpt lat="43.09318167" lon="-0.61258667">
        <ele>317.0</ele>
        <time>2019-07-07T14:48:20.678Z</time>
      </trkpt>
      <trkpt lat="43.093345" lon="-0.61261167">
        <ele>317.0</ele>
        <time>2019-07-07T14:48:21.701Z</time>
      </trkpt>
      <trkpt lat="43.093345" lon="-0.61261167">
        <ele>317.0</ele>
        <time>2019-07-07T14:48:22.675Z</time>
      </trkpt>
      <trkpt lat="43.093505" lon="-0.61263833">
        <ele>318.0</ele>
        <time>2019-07-07T14:48:23.696Z</time>
      </trkpt>
      <trkpt lat="43.09358333" lon="-0.61265">
        <ele>318.0</ele>
        <time>2019-07-07T14:48:24.678Z</time>
      </trkpt>
      <trkpt lat="43.09358333" lon="-0.61265">
        <ele>318.0</ele>
        <time>2019-07-07T14:48:25.673Z</time>
      </trkpt>
      <trkpt lat="43.09373333" lon="-0.61267833">
        <ele>318.0</ele>
        <time>2019-07-07T14:48:26.696Z</time>
      </trkpt>
      <trkpt lat="43.09373333" lon="-0.61267833">
        <ele>318.0</ele>
        <time>2019-07-07T14:48:27.702Z</time>
      </trkpt>
      <trkpt lat="43.09388" lon="-0.612705">
        <ele>319.0</ele>
        <time>2019-07-07T14:48:28.675Z</time>
      </trkpt>
      <trkpt lat="43.09388" lon="-0.612705">
        <ele>319.0</ele>
        <time>2019-07-07T14:48:29.688Z</time>
      </trkpt>
      <trkpt lat="43.094025" lon="-0.61272667">
        <ele>319.0</ele>
        <time>2019-07-07T14:48:30.702Z</time>
      </trkpt>
      <trkpt lat="43.094025" lon="-0.61272667">
        <ele>319.0</ele>
        <time>2019-07-07T14:48:31.681Z</time>
      </trkpt>
      <trkpt lat="43.09416333" lon="-0.61274833">
        <ele>320.0</ele>
        <time>2019-07-07T14:48:32.695Z</time>
      </trkpt>
      <trkpt lat="43.09416333" lon="-0.61274833">
        <ele>320.0</ele>
        <time>2019-07-07T14:48:33.686Z</time>
      </trkpt>
      <trkpt lat="43.094295" lon="-0.61276833">
        <ele>320.0</ele>
        <time>2019-07-07T14:48:34.699Z</time>
      </trkpt>
      <trkpt lat="43.094295" lon="-0.61276833">
        <ele>320.0</ele>
        <time>2019-07-07T14:48:35.674Z</time>
      </trkpt>
      <trkpt lat="43.09443" lon="-0.61276833">
        <ele>320.0</ele>
        <time>2019-07-07T14:48:36.684Z</time>
      </trkpt>
      <trkpt lat="43.09443" lon="-0.61276833">
        <ele>320.0</ele>
        <time>2019-07-07T14:48:37.705Z</time>
      </trkpt>
      <trkpt lat="43.09455667" lon="-0.61276167">
        <ele>320.0</ele>
        <time>2019-07-07T14:48:38.678Z</time>
      </trkpt>
      <trkpt lat="43.09462" lon="-0.61275167">
        <ele>320.0</ele>
        <time>2019-07-07T14:48:39.665Z</time>
      </trkpt>
      <trkpt lat="43.09462" lon="-0.61275167">
        <ele>320.0</ele>
        <time>2019-07-07T14:48:40.682Z</time>
      </trkpt>
      <trkpt lat="43.094745" lon="-0.61272167">
        <ele>321.0</ele>
        <time>2019-07-07T14:48:41.706Z</time>
      </trkpt>
      <trkpt lat="43.09481" lon="-0.61271">
        <ele>322.0</ele>
        <time>2019-07-07T14:48:42.684Z</time>
      </trkpt>
      <trkpt lat="43.09481" lon="-0.61271">
        <ele>322.0</ele>
        <time>2019-07-07T14:48:43.674Z</time>
      </trkpt>
      <trkpt lat="43.09493" lon="-0.61269167">
        <ele>322.0</ele>
        <time>2019-07-07T14:48:44.684Z</time>
      </trkpt>
      <trkpt lat="43.09493" lon="-0.61269167">
        <ele>322.0</ele>
        <time>2019-07-07T14:48:45.669Z</time>
      </trkpt>
      <trkpt lat="43.095045" lon="-0.612675">
        <ele>324.0</ele>
        <time>2019-07-07T14:48:46.667Z</time>
      </trkpt>
      <trkpt lat="43.095045" lon="-0.612675">
        <ele>324.0</ele>
        <time>2019-07-07T14:48:47.676Z</time>
      </trkpt>
      <trkpt lat="43.095165" lon="-0.61265167">
        <ele>325.0</ele>
        <time>2019-07-07T14:48:48.686Z</time>
      </trkpt>
      <trkpt lat="43.095165" lon="-0.61265167">
        <ele>325.0</ele>
        <time>2019-07-07T14:48:49.672Z</time>
      </trkpt>
      <trkpt lat="43.09527833" lon="-0.612625">
        <ele>326.0</ele>
        <time>2019-07-07T14:48:50.685Z</time>
      </trkpt>
      <trkpt lat="43.095335" lon="-0.61261333">
        <ele>327.0</ele>
        <time>2019-07-07T14:48:51.698Z</time>
      </trkpt>
      <trkpt lat="43.09539333" lon="-0.61259833">
        <ele>327.0</ele>
        <time>2019-07-07T14:48:52.682Z</time>
      </trkpt>
      <trkpt lat="43.09539333" lon="-0.61259833">
        <ele>327.0</ele>
        <time>2019-07-07T14:48:53.705Z</time>
      </trkpt>
      <trkpt lat="43.09551" lon="-0.61257667">
        <ele>325.0</ele>
        <time>2019-07-07T14:48:54.684Z</time>
      </trkpt>
      <trkpt lat="43.09551" lon="-0.61257667">
        <ele>325.0</ele>
        <time>2019-07-07T14:48:55.689Z</time>
      </trkpt>
      <trkpt lat="43.09562667" lon="-0.61255167">
        <ele>325.0</ele>
        <time>2019-07-07T14:48:56.702Z</time>
      </trkpt>
      <trkpt lat="43.09569167" lon="-0.61253833">
        <ele>325.0</ele>
        <time>2019-07-07T14:48:57.704Z</time>
      </trkpt>
      <trkpt lat="43.09569167" lon="-0.61253833">
        <ele>325.0</ele>
        <time>2019-07-07T14:48:58.681Z</time>
      </trkpt>
      <trkpt lat="43.09583" lon="-0.61250167">
        <ele>323.0</ele>
        <time>2019-07-07T14:48:59.703Z</time>
      </trkpt>
      <trkpt lat="43.09583" lon="-0.61250167">
        <ele>323.0</ele>
        <time>2019-07-07T14:49:00.687Z</time>
      </trkpt>
      <trkpt lat="43.09597167" lon="-0.61247167">
        <ele>324.0</ele>
        <time>2019-07-07T14:49:01.685Z</time>
      </trkpt>
      <trkpt lat="43.09597167" lon="-0.61247167">
        <ele>324.0</ele>
        <time>2019-07-07T14:49:02.694Z</time>
      </trkpt>
      <trkpt lat="43.09611833" lon="-0.61244833">
        <ele>324.0</ele>
        <time>2019-07-07T14:49:03.707Z</time>
      </trkpt>
      <trkpt lat="43.09611833" lon="-0.61244833">
        <ele>324.0</ele>
        <time>2019-07-07T14:49:04.685Z</time>
      </trkpt>
      <trkpt lat="43.09627333" lon="-0.612435">
        <ele>322.0</ele>
        <time>2019-07-07T14:49:05.696Z</time>
      </trkpt>
      <trkpt lat="43.09627333" lon="-0.612435">
        <ele>322.0</ele>
        <time>2019-07-07T14:49:06.687Z</time>
      </trkpt>
      <trkpt lat="43.09643333" lon="-0.61242833">
        <ele>320.0</ele>
        <time>2019-07-07T14:49:07.679Z</time>
      </trkpt>
      <trkpt lat="43.09643333" lon="-0.61242833">
        <ele>320.0</ele>
        <time>2019-07-07T14:49:08.688Z</time>
      </trkpt>
      <trkpt lat="43.09659833" lon="-0.612425">
        <ele>319.0</ele>
        <time>2019-07-07T14:49:09.701Z</time>
      </trkpt>
      <trkpt lat="43.09668333" lon="-0.612425">
        <ele>318.0</ele>
        <time>2019-07-07T14:49:10.679Z</time>
      </trkpt>
      <trkpt lat="43.09668333" lon="-0.612425">
        <ele>318.0</ele>
        <time>2019-07-07T14:49:11.684Z</time>
      </trkpt>
      <trkpt lat="43.09685667" lon="-0.61242167">
        <ele>317.0</ele>
        <time>2019-07-07T14:49:12.696Z</time>
      </trkpt>
      <trkpt lat="43.09685667" lon="-0.61242167">
        <ele>317.0</ele>
        <time>2019-07-07T14:49:13.705Z</time>
      </trkpt>
      <trkpt lat="43.09703333" lon="-0.61242333">
        <ele>317.0</ele>
        <time>2019-07-07T14:49:14.678Z</time>
      </trkpt>
      <trkpt lat="43.09703333" lon="-0.61242333">
        <ele>317.0</ele>
        <time>2019-07-07T14:49:15.674Z</time>
      </trkpt>
      <trkpt lat="43.09721167" lon="-0.61243667">
        <ele>317.0</ele>
        <time>2019-07-07T14:49:16.685Z</time>
      </trkpt>
      <trkpt lat="43.09729333" lon="-0.612455">
        <ele>318.0</ele>
        <time>2019-07-07T14:49:17.708Z</time>
      </trkpt>
      <trkpt lat="43.09737333" lon="-0.61247167">
        <ele>318.0</ele>
        <time>2019-07-07T14:49:18.674Z</time>
      </trkpt>
      <trkpt lat="43.09737333" lon="-0.61247167">
        <ele>318.0</ele>
        <time>2019-07-07T14:49:19.677Z</time>
      </trkpt>
      <trkpt lat="43.09752167" lon="-0.612495">
        <ele>318.0</ele>
        <time>2019-07-07T14:49:20.689Z</time>
      </trkpt>
      <trkpt lat="43.09752167" lon="-0.612495">
        <ele>318.0</ele>
        <time>2019-07-07T14:49:21.666Z</time>
      </trkpt>
      <trkpt lat="43.09766333" lon="-0.612515">
        <ele>318.0</ele>
        <time>2019-07-07T14:49:22.681Z</time>
      </trkpt>
      <trkpt lat="43.09766333" lon="-0.612515">
        <ele>318.0</ele>
        <time>2019-07-07T14:49:23.694Z</time>
      </trkpt>
      <trkpt lat="43.09779167" lon="-0.61253667">
        <ele>317.0</ele>
        <time>2019-07-07T14:49:24.703Z</time>
      </trkpt>
      <trkpt lat="43.09779167" lon="-0.61253667">
        <ele>317.0</ele>
        <time>2019-07-07T14:49:25.675Z</time>
      </trkpt>
      <trkpt lat="43.09792333" lon="-0.61254833">
        <ele>317.0</ele>
        <time>2019-07-07T14:49:26.683Z</time>
      </trkpt>
      <trkpt lat="43.09798667" lon="-0.61254667">
        <ele>318.0</ele>
        <time>2019-07-07T14:49:27.685Z</time>
      </trkpt>
      <trkpt lat="43.09798667" lon="-0.61254667">
        <ele>318.0</ele>
        <time>2019-07-07T14:49:28.684Z</time>
      </trkpt>
      <trkpt lat="43.098115" lon="-0.612545">
        <ele>318.0</ele>
        <time>2019-07-07T14:49:29.665Z</time>
      </trkpt>
      <trkpt lat="43.09818167" lon="-0.61253833">
        <ele>318.0</ele>
        <time>2019-07-07T14:49:30.685Z</time>
      </trkpt>
      <trkpt lat="43.09818167" lon="-0.61253833">
        <ele>318.0</ele>
        <time>2019-07-07T14:49:31.678Z</time>
      </trkpt>
      <trkpt lat="43.09830333" lon="-0.61252167">
        <ele>318.0</ele>
        <time>2019-07-07T14:49:32.693Z</time>
      </trkpt>
      <trkpt lat="43.09837" lon="-0.61251167">
        <ele>319.0</ele>
        <time>2019-07-07T14:49:33.670Z</time>
      </trkpt>
      <trkpt lat="43.09837" lon="-0.61251167">
        <ele>319.0</ele>
        <time>2019-07-07T14:49:34.684Z</time>
      </trkpt>
      <trkpt lat="43.09850333" lon="-0.61248833">
        <ele>320.0</ele>
        <time>2019-07-07T14:49:35.700Z</time>
      </trkpt>
      <trkpt lat="43.09856833" lon="-0.61247833">
        <ele>321.0</ele>
        <time>2019-07-07T14:49:36.693Z</time>
      </trkpt>
      <trkpt lat="43.09856833" lon="-0.61247833">
        <ele>321.0</ele>
        <time>2019-07-07T14:49:37.691Z</time>
      </trkpt>
      <trkpt lat="43.0987" lon="-0.61246667">
        <ele>324.0</ele>
        <time>2019-07-07T14:49:38.700Z</time>
      </trkpt>
      <trkpt lat="43.09876333" lon="-0.61246667">
        <ele>325.0</ele>
        <time>2019-07-07T14:49:39.665Z</time>
      </trkpt>
      <trkpt lat="43.09876333" lon="-0.61246667">
        <ele>325.0</ele>
        <time>2019-07-07T14:49:40.694Z</time>
      </trkpt>
      <trkpt lat="43.09889667" lon="-0.61247667">
        <ele>326.0</ele>
        <time>2019-07-07T14:49:41.705Z</time>
      </trkpt>
      <trkpt lat="43.09889667" lon="-0.61247667">
        <ele>326.0</ele>
        <time>2019-07-07T14:49:42.704Z</time>
      </trkpt>
      <trkpt lat="43.09902333" lon="-0.61249167">
        <ele>326.0</ele>
        <time>2019-07-07T14:49:43.679Z</time>
      </trkpt>
      <trkpt lat="43.09902333" lon="-0.61249167">
        <ele>326.0</ele>
        <time>2019-07-07T14:49:44.678Z</time>
      </trkpt>
      <trkpt lat="43.09914667" lon="-0.61250833">
        <ele>327.0</ele>
        <time>2019-07-07T14:49:45.723Z</time>
      </trkpt>
      <trkpt lat="43.09914667" lon="-0.61250833">
        <ele>327.0</ele>
        <time>2019-07-07T14:49:46.689Z</time>
      </trkpt>
      <trkpt lat="43.09926333" lon="-0.61251">
        <ele>327.0</ele>
        <time>2019-07-07T14:49:47.702Z</time>
      </trkpt>
      <trkpt lat="43.09926333" lon="-0.61251">
        <ele>327.0</ele>
        <time>2019-07-07T14:49:48.675Z</time>
      </trkpt>
      <trkpt lat="43.09938667" lon="-0.61253">
        <ele>323.0</ele>
        <time>2019-07-07T14:49:49.688Z</time>
      </trkpt>
      <trkpt lat="43.09938667" lon="-0.61253">
        <ele>323.0</ele>
        <time>2019-07-07T14:49:50.689Z</time>
      </trkpt>
      <trkpt lat="43.099505" lon="-0.61255167">
        <ele>323.0</ele>
        <time>2019-07-07T14:49:51.706Z</time>
      </trkpt>
      <trkpt lat="43.099505" lon="-0.61255167">
        <ele>323.0</ele>
        <time>2019-07-07T14:49:52.672Z</time>
      </trkpt>
      <trkpt lat="43.09961833" lon="-0.61257833">
        <ele>324.0</ele>
        <time>2019-07-07T14:49:53.682Z</time>
      </trkpt>
      <trkpt lat="43.09967167" lon="-0.61259">
        <ele>324.0</ele>
        <time>2019-07-07T14:49:54.669Z</time>
      </trkpt>
      <trkpt lat="43.09967167" lon="-0.61259">
        <ele>324.0</ele>
        <time>2019-07-07T14:49:55.702Z</time>
      </trkpt>
      <trkpt lat="43.099775" lon="-0.61261833">
        <ele>325.0</ele>
        <time>2019-07-07T14:49:56.685Z</time>
      </trkpt>
      <trkpt lat="43.099775" lon="-0.61261833">
        <ele>325.0</ele>
        <time>2019-07-07T14:49:57.684Z</time>
      </trkpt>
      <trkpt lat="43.09988" lon="-0.61265">
        <ele>324.0</ele>
        <time>2019-07-07T14:49:58.706Z</time>
      </trkpt>
      <trkpt lat="43.09988" lon="-0.61265">
        <ele>324.0</ele>
        <time>2019-07-07T14:49:59.700Z</time>
      </trkpt>
      <trkpt lat="43.09998167" lon="-0.612675">
        <ele>325.0</ele>
        <time>2019-07-07T14:50:00.675Z</time>
      </trkpt>
      <trkpt lat="43.09998167" lon="-0.612675">
        <ele>325.0</ele>
        <time>2019-07-07T14:50:01.703Z</time>
      </trkpt>
      <trkpt lat="43.10008" lon="-0.6127">
        <ele>324.0</ele>
        <time>2019-07-07T14:50:02.670Z</time>
      </trkpt>
      <trkpt lat="43.10012667" lon="-0.61271333">
        <ele>323.0</ele>
        <time>2019-07-07T14:50:03.699Z</time>
      </trkpt>
      <trkpt lat="43.10012667" lon="-0.61271333">
        <ele>323.0</ele>
        <time>2019-07-07T14:50:04.695Z</time>
      </trkpt>
      <trkpt lat="43.100215" lon="-0.61275167">
        <ele>323.0</ele>
        <time>2019-07-07T14:50:05.705Z</time>
      </trkpt>
      <trkpt lat="43.10026167" lon="-0.61277">
        <ele>322.0</ele>
        <time>2019-07-07T14:50:06.697Z</time>
      </trkpt>
      <trkpt lat="43.10026167" lon="-0.61277">
        <ele>322.0</ele>
        <time>2019-07-07T14:50:07.671Z</time>
      </trkpt>
      <trkpt lat="43.10035" lon="-0.61282">
        <ele>321.0</ele>
        <time>2019-07-07T14:50:08.684Z</time>
      </trkpt>
      <trkpt lat="43.10035" lon="-0.61282">
        <ele>321.0</ele>
        <time>2019-07-07T14:50:09.699Z</time>
      </trkpt>
      <trkpt lat="43.10044167" lon="-0.612855">
        <ele>320.0</ele>
        <time>2019-07-07T14:50:10.669Z</time>
      </trkpt>
      <trkpt lat="43.10044167" lon="-0.612855">
        <ele>320.0</ele>
        <time>2019-07-07T14:50:11.704Z</time>
      </trkpt>
      <trkpt lat="43.10053" lon="-0.61288833">
        <ele>320.0</ele>
        <time>2019-07-07T14:50:12.688Z</time>
      </trkpt>
      <trkpt lat="43.10057667" lon="-0.61289833">
        <ele>319.0</ele>
        <time>2019-07-07T14:50:13.666Z</time>
      </trkpt>
      <trkpt lat="43.10057667" lon="-0.61289833">
        <ele>319.0</ele>
        <time>2019-07-07T14:50:14.694Z</time>
      </trkpt>
      <trkpt lat="43.10066667" lon="-0.61293">
        <ele>319.0</ele>
        <time>2019-07-07T14:50:15.707Z</time>
      </trkpt>
      <trkpt lat="43.10066667" lon="-0.61293">
        <ele>319.0</ele>
        <time>2019-07-07T14:50:16.684Z</time>
      </trkpt>
      <trkpt lat="43.100755" lon="-0.612955">
        <ele>319.0</ele>
        <time>2019-07-07T14:50:17.673Z</time>
      </trkpt>
      <trkpt lat="43.10080333" lon="-0.61295">
        <ele>319.0</ele>
        <time>2019-07-07T14:50:18.698Z</time>
      </trkpt>
      <trkpt lat="43.10080333" lon="-0.61295">
        <ele>319.0</ele>
        <time>2019-07-07T14:50:19.687Z</time>
      </trkpt>
      <trkpt lat="43.100885" lon="-0.61298833">
        <ele>319.0</ele>
        <time>2019-07-07T14:50:20.703Z</time>
      </trkpt>
      <trkpt lat="43.10093" lon="-0.61301333">
        <ele>320.0</ele>
        <time>2019-07-07T14:50:21.700Z</time>
      </trkpt>
      <trkpt lat="43.10093" lon="-0.61301333">
        <ele>320.0</ele>
        <time>2019-07-07T14:50:22.675Z</time>
      </trkpt>
      <trkpt lat="43.10102167" lon="-0.613065">
        <ele>321.0</ele>
        <time>2019-07-07T14:50:23.687Z</time>
      </trkpt>
      <trkpt lat="43.10106333" lon="-0.613095">
        <ele>322.0</ele>
        <time>2019-07-07T14:50:24.667Z</time>
      </trkpt>
      <trkpt lat="43.10106333" lon="-0.613095">
        <ele>322.0</ele>
        <time>2019-07-07T14:50:25.681Z</time>
      </trkpt>
      <trkpt lat="43.10114" lon="-0.61314333">
        <ele>324.0</ele>
        <time>2019-07-07T14:50:26.697Z</time>
      </trkpt>
      <trkpt lat="43.10114" lon="-0.61314333">
        <ele>324.0</ele>
        <time>2019-07-07T14:50:27.695Z</time>
      </trkpt>
      <trkpt lat="43.10121" lon="-0.613215">
        <ele>325.0</ele>
        <time>2019-07-07T14:50:28.704Z</time>
      </trkpt>
      <trkpt lat="43.10124667" lon="-0.61324333">
        <ele>326.0</ele>
        <time>2019-07-07T14:50:29.706Z</time>
      </trkpt>
      <trkpt lat="43.10127" lon="-0.61329">
        <ele>327.0</ele>
        <time>2019-07-07T14:50:30.688Z</time>
      </trkpt>
      <trkpt lat="43.10127" lon="-0.61329">
        <ele>327.0</ele>
        <time>2019-07-07T14:50:31.705Z</time>
      </trkpt>
      <trkpt lat="43.10133333" lon="-0.61336333">
        <ele>329.0</ele>
        <time>2019-07-07T14:50:32.674Z</time>
      </trkpt>
      <trkpt lat="43.10133333" lon="-0.61336333">
        <ele>329.0</ele>
        <time>2019-07-07T14:50:33.694Z</time>
      </trkpt>
      <trkpt lat="43.10140333" lon="-0.61343">
        <ele>331.0</ele>
        <time>2019-07-07T14:50:34.665Z</time>
      </trkpt>
      <trkpt lat="43.10140333" lon="-0.61343">
        <ele>331.0</ele>
        <time>2019-07-07T14:50:35.705Z</time>
      </trkpt>
      <trkpt lat="43.101465" lon="-0.613505">
        <ele>334.0</ele>
        <time>2019-07-07T14:50:36.678Z</time>
      </trkpt>
      <trkpt lat="43.101465" lon="-0.613505">
        <ele>334.0</ele>
        <time>2019-07-07T14:50:37.678Z</time>
      </trkpt>
      <trkpt lat="43.10153333" lon="-0.61355667">
        <ele>334.0</ele>
        <time>2019-07-07T14:50:38.686Z</time>
      </trkpt>
      <trkpt lat="43.10153333" lon="-0.61355667">
        <ele>334.0</ele>
        <time>2019-07-07T14:50:39.669Z</time>
      </trkpt>
      <trkpt lat="43.10161167" lon="-0.61358667">
        <ele>335.0</ele>
        <time>2019-07-07T14:50:40.711Z</time>
      </trkpt>
      <trkpt lat="43.10161167" lon="-0.61358667">
        <ele>335.0</ele>
        <time>2019-07-07T14:50:41.693Z</time>
      </trkpt>
      <trkpt lat="43.101695" lon="-0.613605">
        <ele>336.0</ele>
        <time>2019-07-07T14:50:42.703Z</time>
      </trkpt>
      <trkpt lat="43.101695" lon="-0.613605">
        <ele>336.0</ele>
        <time>2019-07-07T14:50:43.672Z</time>
      </trkpt>
      <trkpt lat="43.10178167" lon="-0.61363">
        <ele>335.0</ele>
        <time>2019-07-07T14:50:44.682Z</time>
      </trkpt>
      <trkpt lat="43.10182333" lon="-0.61363667">
        <ele>336.0</ele>
        <time>2019-07-07T14:50:45.690Z</time>
      </trkpt>
      <trkpt lat="43.10182333" lon="-0.61363667">
        <ele>336.0</ele>
        <time>2019-07-07T14:50:46.678Z</time>
      </trkpt>
      <trkpt lat="43.10190833" lon="-0.61364167">
        <ele>338.0</ele>
        <time>2019-07-07T14:50:47.666Z</time>
      </trkpt>
      <trkpt lat="43.10194833" lon="-0.613645">
        <ele>338.0</ele>
        <time>2019-07-07T14:50:48.700Z</time>
      </trkpt>
      <trkpt lat="43.10198667" lon="-0.61364167">
        <ele>339.0</ele>
        <time>2019-07-07T14:50:49.700Z</time>
      </trkpt>
      <trkpt lat="43.10198667" lon="-0.61364167">
        <ele>339.0</ele>
        <time>2019-07-07T14:50:50.678Z</time>
      </trkpt>
      <trkpt lat="43.10207167" lon="-0.61364667">
        <ele>341.0</ele>
        <time>2019-07-07T14:50:51.687Z</time>
      </trkpt>
      <trkpt lat="43.10211667" lon="-0.61365167">
        <ele>341.0</ele>
        <time>2019-07-07T14:50:52.666Z</time>
      </trkpt>
      <trkpt lat="43.10211667" lon="-0.61365167">
        <ele>341.0</ele>
        <time>2019-07-07T14:50:53.685Z</time>
      </trkpt>
      <trkpt lat="43.102195" lon="-0.61366833">
        <ele>343.0</ele>
        <time>2019-07-07T14:50:54.683Z</time>
      </trkpt>
      <trkpt lat="43.102195" lon="-0.61366833">
        <ele>343.0</ele>
        <time>2019-07-07T14:50:55.701Z</time>
      </trkpt>
      <trkpt lat="43.10227833" lon="-0.61368833">
        <ele>344.0</ele>
        <time>2019-07-07T14:50:56.673Z</time>
      </trkpt>
      <trkpt lat="43.10232167" lon="-0.61369833">
        <ele>344.0</ele>
        <time>2019-07-07T14:50:57.685Z</time>
      </trkpt>
      <trkpt lat="43.10232167" lon="-0.61369833">
        <ele>344.0</ele>
        <time>2019-07-07T14:50:58.671Z</time>
      </trkpt>
      <trkpt lat="43.10241" lon="-0.61371667">
        <ele>344.0</ele>
        <time>2019-07-07T14:50:59.689Z</time>
      </trkpt>
      <trkpt lat="43.102455" lon="-0.61372833">
        <ele>344.0</ele>
        <time>2019-07-07T14:51:00.685Z</time>
      </trkpt>
      <trkpt lat="43.10249833" lon="-0.61374">
        <ele>344.0</ele>
        <time>2019-07-07T14:51:01.686Z</time>
      </trkpt>
      <trkpt lat="43.10249833" lon="-0.61374">
        <ele>344.0</ele>
        <time>2019-07-07T14:51:02.672Z</time>
      </trkpt>
      <trkpt lat="43.102585" lon="-0.61376333">
        <ele>345.0</ele>
        <time>2019-07-07T14:51:03.684Z</time>
      </trkpt>
      <trkpt lat="43.102585" lon="-0.61376333">
        <ele>345.0</ele>
        <time>2019-07-07T14:51:04.705Z</time>
      </trkpt>
      <trkpt lat="43.10267333" lon="-0.61378833">
        <ele>346.0</ele>
        <time>2019-07-07T14:51:05.706Z</time>
      </trkpt>
      <trkpt lat="43.10271667" lon="-0.61380167">
        <ele>347.0</ele>
        <time>2019-07-07T14:51:06.699Z</time>
      </trkpt>
      <trkpt lat="43.10271667" lon="-0.61380167">
        <ele>347.0</ele>
        <time>2019-07-07T14:51:07.679Z</time>
      </trkpt>
      <trkpt lat="43.1028" lon="-0.61383167">
        <ele>347.0</ele>
        <time>2019-07-07T14:51:08.690Z</time>
      </trkpt>
      <trkpt lat="43.10284167" lon="-0.61385">
        <ele>347.0</ele>
        <time>2019-07-07T14:51:09.683Z</time>
      </trkpt>
      <trkpt lat="43.10284167" lon="-0.61385">
        <ele>347.0</ele>
        <time>2019-07-07T14:51:10.667Z</time>
      </trkpt>
      <trkpt lat="43.10292" lon="-0.61389">
        <ele>346.0</ele>
        <time>2019-07-07T14:51:11.683Z</time>
      </trkpt>
      <trkpt lat="43.10296" lon="-0.61391333">
        <ele>347.0</ele>
        <time>2019-07-07T14:51:12.683Z</time>
      </trkpt>
      <trkpt lat="43.10296" lon="-0.61391333">
        <ele>347.0</ele>
        <time>2019-07-07T14:51:13.697Z</time>
      </trkpt>
      <trkpt lat="43.10304" lon="-0.61396167">
        <ele>347.0</ele>
        <time>2019-07-07T14:51:14.674Z</time>
      </trkpt>
      <trkpt lat="43.10304" lon="-0.61396167">
        <ele>347.0</ele>
        <time>2019-07-07T14:51:15.698Z</time>
      </trkpt>
      <trkpt lat="43.10311833" lon="-0.61400833">
        <ele>347.0</ele>
        <time>2019-07-07T14:51:16.677Z</time>
      </trkpt>
      <trkpt lat="43.10311833" lon="-0.61400833">
        <ele>347.0</ele>
        <time>2019-07-07T14:51:17.683Z</time>
      </trkpt>
      <trkpt lat="43.10319667" lon="-0.61405333">
        <ele>348.0</ele>
        <time>2019-07-07T14:51:18.693Z</time>
      </trkpt>
      <trkpt lat="43.10319667" lon="-0.61405333">
        <ele>348.0</ele>
        <time>2019-07-07T14:51:19.675Z</time>
      </trkpt>
      <trkpt lat="43.10327667" lon="-0.61410333">
        <ele>348.0</ele>
        <time>2019-07-07T14:51:20.691Z</time>
      </trkpt>
      <trkpt lat="43.10327667" lon="-0.61410333">
        <ele>348.0</ele>
        <time>2019-07-07T14:51:21.704Z</time>
      </trkpt>
      <trkpt lat="43.103355" lon="-0.61415833">
        <ele>349.0</ele>
        <time>2019-07-07T14:51:22.680Z</time>
      </trkpt>
      <trkpt lat="43.103355" lon="-0.61415833">
        <ele>349.0</ele>
        <time>2019-07-07T14:51:23.681Z</time>
      </trkpt>
      <trkpt lat="43.10343167" lon="-0.61421">
        <ele>349.0</ele>
        <time>2019-07-07T14:51:24.692Z</time>
      </trkpt>
      <trkpt lat="43.10343167" lon="-0.61421">
        <ele>349.0</ele>
        <time>2019-07-07T14:51:25.704Z</time>
      </trkpt>
      <trkpt lat="43.10350833" lon="-0.614255">
        <ele>349.0</ele>
        <time>2019-07-07T14:51:26.688Z</time>
      </trkpt>
      <trkpt lat="43.103545" lon="-0.614285">
        <ele>350.0</ele>
        <time>2019-07-07T14:51:27.678Z</time>
      </trkpt>
      <trkpt lat="43.103545" lon="-0.614285">
        <ele>350.0</ele>
        <time>2019-07-07T14:51:28.677Z</time>
      </trkpt>
      <trkpt lat="43.10361833" lon="-0.61434333">
        <ele>350.0</ele>
        <time>2019-07-07T14:51:29.687Z</time>
      </trkpt>
      <trkpt lat="43.10365667" lon="-0.61437167">
        <ele>350.0</ele>
        <time>2019-07-07T14:51:30.693Z</time>
      </trkpt>
      <trkpt lat="43.10365667" lon="-0.61437167">
        <ele>350.0</ele>
        <time>2019-07-07T14:51:31.680Z</time>
      </trkpt>
      <trkpt lat="43.10373167" lon="-0.61442833">
        <ele>350.0</ele>
        <time>2019-07-07T14:51:32.696Z</time>
      </trkpt>
      <trkpt lat="43.10377" lon="-0.61445833">
        <ele>350.0</ele>
        <time>2019-07-07T14:51:33.696Z</time>
      </trkpt>
      <trkpt lat="43.10377" lon="-0.61445833">
        <ele>350.0</ele>
        <time>2019-07-07T14:51:34.691Z</time>
      </trkpt>
      <trkpt lat="43.10384333" lon="-0.61451667">
        <ele>351.0</ele>
        <time>2019-07-07T14:51:35.702Z</time>
      </trkpt>
      <trkpt lat="43.10388333" lon="-0.61454667">
        <ele>351.0</ele>
        <time>2019-07-07T14:51:36.689Z</time>
      </trkpt>
      <trkpt lat="43.10388333" lon="-0.61454667">
        <ele>351.0</ele>
        <time>2019-07-07T14:51:37.678Z</time>
      </trkpt>
      <trkpt lat="43.10395833" lon="-0.61461">
        <ele>352.0</ele>
        <time>2019-07-07T14:51:38.688Z</time>
      </trkpt>
      <trkpt lat="43.10395833" lon="-0.61461">
        <ele>352.0</ele>
        <time>2019-07-07T14:51:39.685Z</time>
      </trkpt>
      <trkpt lat="43.10403333" lon="-0.614685">
        <ele>352.0</ele>
        <time>2019-07-07T14:51:40.695Z</time>
      </trkpt>
      <trkpt lat="43.10403333" lon="-0.614685">
        <ele>352.0</ele>
        <time>2019-07-07T14:51:41.704Z</time>
      </trkpt>
      <trkpt lat="43.10410667" lon="-0.61476667">
        <ele>352.0</ele>
        <time>2019-07-07T14:51:42.680Z</time>
      </trkpt>
      <trkpt lat="43.10410667" lon="-0.61476667">
        <ele>352.0</ele>
        <time>2019-07-07T14:51:43.695Z</time>
      </trkpt>
      <trkpt lat="43.10417833" lon="-0.61484833">
        <ele>353.0</ele>
        <time>2019-07-07T14:51:44.706Z</time>
      </trkpt>
      <trkpt lat="43.10417833" lon="-0.61484833">
        <ele>353.0</ele>
        <time>2019-07-07T14:51:45.684Z</time>
      </trkpt>
      <trkpt lat="43.10424833" lon="-0.61492833">
        <ele>353.0</ele>
        <time>2019-07-07T14:51:46.697Z</time>
      </trkpt>
      <trkpt lat="43.10428167" lon="-0.61496833">
        <ele>353.0</ele>
        <time>2019-07-07T14:51:47.667Z</time>
      </trkpt>
      <trkpt lat="43.104315" lon="-0.61501">
        <ele>353.0</ele>
        <time>2019-07-07T14:51:48.671Z</time>
      </trkpt>
      <trkpt lat="43.104315" lon="-0.61501">
        <ele>353.0</ele>
        <time>2019-07-07T14:51:49.686Z</time>
      </trkpt>
      <trkpt lat="43.104385" lon="-0.61509667">
        <ele>353.0</ele>
        <time>2019-07-07T14:51:50.666Z</time>
      </trkpt>
      <trkpt lat="43.104385" lon="-0.61509667">
        <ele>353.0</ele>
        <time>2019-07-07T14:51:51.694Z</time>
      </trkpt>
      <trkpt lat="43.10446167" lon="-0.61518333">
        <ele>353.0</ele>
        <time>2019-07-07T14:51:52.697Z</time>
      </trkpt>
      <trkpt lat="43.10446167" lon="-0.61518333">
        <ele>353.0</ele>
        <time>2019-07-07T14:51:53.676Z</time>
      </trkpt>
      <trkpt lat="43.104545" lon="-0.61525667">
        <ele>352.0</ele>
        <time>2019-07-07T14:51:54.685Z</time>
      </trkpt>
      <trkpt lat="43.104545" lon="-0.61525667">
        <ele>352.0</ele>
        <time>2019-07-07T14:51:55.676Z</time>
      </trkpt>
      <trkpt lat="43.10462833" lon="-0.615315">
        <ele>352.0</ele>
        <time>2019-07-07T14:51:56.683Z</time>
      </trkpt>
      <trkpt lat="43.104675" lon="-0.61534">
        <ele>352.0</ele>
        <time>2019-07-07T14:51:57.705Z</time>
      </trkpt>
      <trkpt lat="43.10472333" lon="-0.61536333">
        <ele>352.0</ele>
        <time>2019-07-07T14:51:58.689Z</time>
      </trkpt>
      <trkpt lat="43.10472333" lon="-0.61536333">
        <ele>352.0</ele>
        <time>2019-07-07T14:51:59.693Z</time>
      </trkpt>
      <trkpt lat="43.10483" lon="-0.61540667">
        <ele>352.0</ele>
        <time>2019-07-07T14:52:00.704Z</time>
      </trkpt>
      <trkpt lat="43.10483" lon="-0.61540667">
        <ele>352.0</ele>
        <time>2019-07-07T14:52:01.701Z</time>
      </trkpt>
      <trkpt lat="43.104945" lon="-0.61543167">
        <ele>351.0</ele>
        <time>2019-07-07T14:52:02.669Z</time>
      </trkpt>
      <trkpt lat="43.10500667" lon="-0.615445">
        <ele>351.0</ele>
        <time>2019-07-07T14:52:03.672Z</time>
      </trkpt>
      <trkpt lat="43.10500667" lon="-0.615445">
        <ele>351.0</ele>
        <time>2019-07-07T14:52:04.697Z</time>
      </trkpt>
      <trkpt lat="43.105135" lon="-0.61545">
        <ele>351.0</ele>
        <time>2019-07-07T14:52:05.706Z</time>
      </trkpt>
      <trkpt lat="43.10519833" lon="-0.61544333">
        <ele>350.0</ele>
        <time>2019-07-07T14:52:06.699Z</time>
      </trkpt>
      <trkpt lat="43.10519833" lon="-0.61544333">
        <ele>350.0</ele>
        <time>2019-07-07T14:52:07.704Z</time>
      </trkpt>
      <trkpt lat="43.10532167" lon="-0.6154">
        <ele>350.0</ele>
        <time>2019-07-07T14:52:08.674Z</time>
      </trkpt>
      <trkpt lat="43.10538333" lon="-0.615365">
        <ele>349.0</ele>
        <time>2019-07-07T14:52:09.693Z</time>
      </trkpt>
      <trkpt lat="43.10538333" lon="-0.615365">
        <ele>349.0</ele>
        <time>2019-07-07T14:52:10.680Z</time>
      </trkpt>
      <trkpt lat="43.10550167" lon="-0.615265">
        <ele>349.0</ele>
        <time>2019-07-07T14:52:11.692Z</time>
      </trkpt>
      <trkpt lat="43.10556" lon="-0.61520833">
        <ele>348.0</ele>
        <time>2019-07-07T14:52:12.686Z</time>
      </trkpt>
      <trkpt lat="43.10556" lon="-0.61520833">
        <ele>348.0</ele>
        <time>2019-07-07T14:52:13.698Z</time>
      </trkpt>
      <trkpt lat="43.105685" lon="-0.61508833">
        <ele>348.0</ele>
        <time>2019-07-07T14:52:14.665Z</time>
      </trkpt>
      <trkpt lat="43.10575" lon="-0.615035">
        <ele>348.0</ele>
        <time>2019-07-07T14:52:15.669Z</time>
      </trkpt>
      <trkpt lat="43.10575" lon="-0.615035">
        <ele>348.0</ele>
        <time>2019-07-07T14:52:16.699Z</time>
      </trkpt>
      <trkpt lat="43.10588667" lon="-0.61493667">
        <ele>346.0</ele>
        <time>2019-07-07T14:52:17.684Z</time>
      </trkpt>
      <trkpt lat="43.10596667" lon="-0.61489167">
        <ele>346.0</ele>
        <time>2019-07-07T14:52:18.665Z</time>
      </trkpt>
      <trkpt lat="43.10596667" lon="-0.61489167">
        <ele>346.0</ele>
        <time>2019-07-07T14:52:19.686Z</time>
      </trkpt>
      <trkpt lat="43.10613333" lon="-0.61479833">
        <ele>345.0</ele>
        <time>2019-07-07T14:52:20.702Z</time>
      </trkpt>
      <trkpt lat="43.10622333" lon="-0.61475">
        <ele>344.0</ele>
        <time>2019-07-07T14:52:21.683Z</time>
      </trkpt>
      <trkpt lat="43.10632" lon="-0.614695">
        <ele>343.0</ele>
        <time>2019-07-07T14:52:22.678Z</time>
      </trkpt>
      <trkpt lat="43.10632" lon="-0.614695">
        <ele>343.0</ele>
        <time>2019-07-07T14:52:23.677Z</time>
      </trkpt>
      <trkpt lat="43.10652667" lon="-0.61455667">
        <ele>341.0</ele>
        <time>2019-07-07T14:52:24.688Z</time>
      </trkpt>
      <trkpt lat="43.10652667" lon="-0.61455667">
        <ele>341.0</ele>
        <time>2019-07-07T14:52:25.692Z</time>
      </trkpt>
      <trkpt lat="43.10672833" lon="-0.61439333">
        <ele>340.0</ele>
        <time>2019-07-07T14:52:26.702Z</time>
      </trkpt>
      <trkpt lat="43.10672833" lon="-0.61439333">
        <ele>340.0</ele>
        <time>2019-07-07T14:52:27.686Z</time>
      </trkpt>
      <trkpt lat="43.10696333" lon="-0.61419833">
        <ele>338.0</ele>
        <time>2019-07-07T14:52:28.697Z</time>
      </trkpt>
      <trkpt lat="43.10696333" lon="-0.61419833">
        <ele>338.0</ele>
        <time>2019-07-07T14:52:29.704Z</time>
      </trkpt>
      <trkpt lat="43.10721333" lon="-0.61399667">
        <ele>336.0</ele>
        <time>2019-07-07T14:52:30.672Z</time>
      </trkpt>
      <trkpt lat="43.10721333" lon="-0.61399667">
        <ele>336.0</ele>
        <time>2019-07-07T14:52:31.671Z</time>
      </trkpt>
      <trkpt lat="43.107485" lon="-0.6138">
        <ele>333.0</ele>
        <time>2019-07-07T14:52:32.692Z</time>
      </trkpt>
      <trkpt lat="43.107485" lon="-0.6138">
        <ele>333.0</ele>
        <time>2019-07-07T14:52:33.677Z</time>
      </trkpt>
      <trkpt lat="43.10776333" lon="-0.61359667">
        <ele>330.0</ele>
        <time>2019-07-07T14:52:34.685Z</time>
      </trkpt>
      <trkpt lat="43.10776333" lon="-0.61359667">
        <ele>330.0</ele>
        <time>2019-07-07T14:52:35.669Z</time>
      </trkpt>
      <trkpt lat="43.10804833" lon="-0.61339667">
        <ele>328.0</ele>
        <time>2019-07-07T14:52:36.673Z</time>
      </trkpt>
      <trkpt lat="43.10804833" lon="-0.61339667">
        <ele>328.0</ele>
        <time>2019-07-07T14:52:37.679Z</time>
      </trkpt>
      <trkpt lat="43.10832833" lon="-0.61319667">
        <ele>325.0</ele>
        <time>2019-07-07T14:52:38.695Z</time>
      </trkpt>
      <trkpt lat="43.108465" lon="-0.61310167">
        <ele>324.0</ele>
        <time>2019-07-07T14:52:39.696Z</time>
      </trkpt>
      <trkpt lat="43.10859833" lon="-0.61303667">
        <ele>323.0</ele>
        <time>2019-07-07T14:52:40.698Z</time>
      </trkpt>
      <trkpt lat="43.108735" lon="-0.61301167">
        <ele>322.0</ele>
        <time>2019-07-07T14:52:41.683Z</time>
      </trkpt>
      <trkpt lat="43.108735" lon="-0.61301167">
        <ele>322.0</ele>
        <time>2019-07-07T14:52:42.685Z</time>
      </trkpt>
      <trkpt lat="43.10897" lon="-0.61305667">
        <ele>321.0</ele>
        <time>2019-07-07T14:52:43.697Z</time>
      </trkpt>
      <trkpt lat="43.10897" lon="-0.61305667">
        <ele>321.0</ele>
        <time>2019-07-07T14:52:44.695Z</time>
      </trkpt>
      <trkpt lat="43.109165" lon="-0.61304167">
        <ele>318.0</ele>
        <time>2019-07-07T14:52:45.693Z</time>
      </trkpt>
      <trkpt lat="43.10924833" lon="-0.61297">
        <ele>318.0</ele>
        <time>2019-07-07T14:52:46.689Z</time>
      </trkpt>
      <trkpt lat="43.10924833" lon="-0.61297">
        <ele>318.0</ele>
        <time>2019-07-07T14:52:47.678Z</time>
      </trkpt>
      <trkpt lat="43.109385" lon="-0.61276">
        <ele>317.0</ele>
        <time>2019-07-07T14:52:48.699Z</time>
      </trkpt>
      <trkpt lat="43.10944667" lon="-0.61264667">
        <ele>316.0</ele>
        <time>2019-07-07T14:52:49.690Z</time>
      </trkpt>
      <trkpt lat="43.10944667" lon="-0.61264667">
        <ele>316.0</ele>
        <time>2019-07-07T14:52:50.699Z</time>
      </trkpt>
      <trkpt lat="43.10957" lon="-0.61240833">
        <ele>316.0</ele>
        <time>2019-07-07T14:52:51.670Z</time>
      </trkpt>
      <trkpt lat="43.10963167" lon="-0.61229">
        <ele>315.0</ele>
        <time>2019-07-07T14:52:52.667Z</time>
      </trkpt>
      <trkpt lat="43.10963167" lon="-0.61229">
        <ele>315.0</ele>
        <time>2019-07-07T14:52:53.701Z</time>
      </trkpt>
      <trkpt lat="43.10976167" lon="-0.61206333">
        <ele>315.0</ele>
        <time>2019-07-07T14:52:54.673Z</time>
      </trkpt>
      <trkpt lat="43.10976167" lon="-0.61206333">
        <ele>315.0</ele>
        <time>2019-07-07T14:52:55.687Z</time>
      </trkpt>
      <trkpt lat="43.10990333" lon="-0.61186167">
        <ele>314.0</ele>
        <time>2019-07-07T14:52:56.673Z</time>
      </trkpt>
      <trkpt lat="43.10990333" lon="-0.61186167">
        <ele>314.0</ele>
        <time>2019-07-07T14:52:57.679Z</time>
      </trkpt>
      <trkpt lat="43.11005167" lon="-0.61168167">
        <ele>314.0</ele>
        <time>2019-07-07T14:52:58.692Z</time>
      </trkpt>
      <trkpt lat="43.11005167" lon="-0.61168167">
        <ele>314.0</ele>
        <time>2019-07-07T14:52:59.677Z</time>
      </trkpt>
      <trkpt lat="43.11020333" lon="-0.61150333">
        <ele>313.0</ele>
        <time>2019-07-07T14:53:00.689Z</time>
      </trkpt>
      <trkpt lat="43.11020333" lon="-0.61150333">
        <ele>313.0</ele>
        <time>2019-07-07T14:53:01.669Z</time>
      </trkpt>
      <trkpt lat="43.11034333" lon="-0.61133333">
        <ele>312.0</ele>
        <time>2019-07-07T14:53:02.686Z</time>
      </trkpt>
      <trkpt lat="43.11034333" lon="-0.61133333">
        <ele>312.0</ele>
        <time>2019-07-07T14:53:03.700Z</time>
      </trkpt>
      <trkpt lat="43.11048" lon="-0.61118333">
        <ele>310.0</ele>
        <time>2019-07-07T14:53:04.693Z</time>
      </trkpt>
      <trkpt lat="43.11048" lon="-0.61118333">
        <ele>310.0</ele>
        <time>2019-07-07T14:53:05.666Z</time>
      </trkpt>
      <trkpt lat="43.11061833" lon="-0.611055">
        <ele>309.0</ele>
        <time>2019-07-07T14:53:06.685Z</time>
      </trkpt>
      <trkpt lat="43.11061833" lon="-0.611055">
        <ele>309.0</ele>
        <time>2019-07-07T14:53:07.690Z</time>
      </trkpt>
      <trkpt lat="43.110795" lon="-0.61096">
        <ele>307.0</ele>
        <time>2019-07-07T14:53:08.668Z</time>
      </trkpt>
      <trkpt lat="43.11087833" lon="-0.610915">
        <ele>307.0</ele>
        <time>2019-07-07T14:53:09.695Z</time>
      </trkpt>
      <trkpt lat="43.11087833" lon="-0.610915">
        <ele>307.0</ele>
        <time>2019-07-07T14:53:10.684Z</time>
      </trkpt>
      <trkpt lat="43.111025" lon="-0.610835">
        <ele>305.0</ele>
        <time>2019-07-07T14:53:11.698Z</time>
      </trkpt>
      <trkpt lat="43.111025" lon="-0.610835">
        <ele>305.0</ele>
        <time>2019-07-07T14:53:12.680Z</time>
      </trkpt>
      <trkpt lat="43.11116333" lon="-0.61075333">
        <ele>305.0</ele>
        <time>2019-07-07T14:53:13.689Z</time>
      </trkpt>
      <trkpt lat="43.11123333" lon="-0.61071333">
        <ele>304.0</ele>
        <time>2019-07-07T14:53:14.670Z</time>
      </trkpt>
      <trkpt lat="43.11123333" lon="-0.61071333">
        <ele>304.0</ele>
        <time>2019-07-07T14:53:15.680Z</time>
      </trkpt>
      <trkpt lat="43.11137333" lon="-0.61063">
        <ele>304.0</ele>
        <time>2019-07-07T14:53:16.690Z</time>
      </trkpt>
      <trkpt lat="43.11137333" lon="-0.61063">
        <ele>304.0</ele>
        <time>2019-07-07T14:53:17.668Z</time>
      </trkpt>
      <trkpt lat="43.11151333" lon="-0.610515">
        <ele>303.0</ele>
        <time>2019-07-07T14:53:18.681Z</time>
      </trkpt>
      <trkpt lat="43.11151333" lon="-0.610515">
        <ele>303.0</ele>
        <time>2019-07-07T14:53:19.690Z</time>
      </trkpt>
      <trkpt lat="43.11162833" lon="-0.61038333">
        <ele>302.0</ele>
        <time>2019-07-07T14:53:20.702Z</time>
      </trkpt>
      <trkpt lat="43.11162833" lon="-0.61038333">
        <ele>302.0</ele>
        <time>2019-07-07T14:53:21.684Z</time>
      </trkpt>
      <trkpt lat="43.11171833" lon="-0.61022333">
        <ele>302.0</ele>
        <time>2019-07-07T14:53:22.696Z</time>
      </trkpt>
      <trkpt lat="43.11171833" lon="-0.61022333">
        <ele>302.0</ele>
        <time>2019-07-07T14:53:23.666Z</time>
      </trkpt>
      <trkpt lat="43.11179333" lon="-0.61005">
        <ele>301.0</ele>
        <time>2019-07-07T14:53:24.679Z</time>
      </trkpt>
      <trkpt lat="43.11179333" lon="-0.61005">
        <ele>301.0</ele>
        <time>2019-07-07T14:53:25.694Z</time>
      </trkpt>
      <trkpt lat="43.111835" lon="-0.60986333">
        <ele>301.0</ele>
        <time>2019-07-07T14:53:26.666Z</time>
      </trkpt>
      <trkpt lat="43.111835" lon="-0.60986333">
        <ele>301.0</ele>
        <time>2019-07-07T14:53:27.671Z</time>
      </trkpt>
      <trkpt lat="43.11186333" lon="-0.60968">
        <ele>300.0</ele>
        <time>2019-07-07T14:53:28.700Z</time>
      </trkpt>
      <trkpt lat="43.11186333" lon="-0.60968">
        <ele>300.0</ele>
        <time>2019-07-07T14:53:29.675Z</time>
      </trkpt>
      <trkpt lat="43.111865" lon="-0.60948833">
        <ele>300.0</ele>
        <time>2019-07-07T14:53:30.683Z</time>
      </trkpt>
      <trkpt lat="43.111865" lon="-0.60948833">
        <ele>300.0</ele>
        <time>2019-07-07T14:53:31.690Z</time>
      </trkpt>
      <trkpt lat="43.111875" lon="-0.609295">
        <ele>299.0</ele>
        <time>2019-07-07T14:53:32.683Z</time>
      </trkpt>
      <trkpt lat="43.11188167" lon="-0.6092">
        <ele>299.0</ele>
        <time>2019-07-07T14:53:33.688Z</time>
      </trkpt>
      <trkpt lat="43.11188167" lon="-0.6092">
        <ele>299.0</ele>
        <time>2019-07-07T14:53:34.701Z</time>
      </trkpt>
      <trkpt lat="43.1119" lon="-0.609015">
        <ele>300.0</ele>
        <time>2019-07-07T14:53:35.672Z</time>
      </trkpt>
      <trkpt lat="43.111915" lon="-0.608925">
        <ele>299.0</ele>
        <time>2019-07-07T14:53:36.668Z</time>
      </trkpt>
      <trkpt lat="43.111915" lon="-0.608925">
        <ele>299.0</ele>
        <time>2019-07-07T14:53:37.681Z</time>
      </trkpt>
      <trkpt lat="43.11198333" lon="-0.60876333">
        <ele>299.0</ele>
        <time>2019-07-07T14:53:38.690Z</time>
      </trkpt>
      <trkpt lat="43.11198333" lon="-0.60876333">
        <ele>299.0</ele>
        <time>2019-07-07T14:53:39.680Z</time>
      </trkpt>
      <trkpt lat="43.11206667" lon="-0.60862">
        <ele>299.0</ele>
        <time>2019-07-07T14:53:40.693Z</time>
      </trkpt>
      <trkpt lat="43.11210833" lon="-0.60854833">
        <ele>299.0</ele>
        <time>2019-07-07T14:53:41.684Z</time>
      </trkpt>
      <trkpt lat="43.11215167" lon="-0.60847833">
        <ele>298.0</ele>
        <time>2019-07-07T14:53:42.676Z</time>
      </trkpt>
      <trkpt lat="43.11215167" lon="-0.60847833">
        <ele>298.0</ele>
        <time>2019-07-07T14:53:43.668Z</time>
      </trkpt>
      <trkpt lat="43.11224667" lon="-0.60834333">
        <ele>298.0</ele>
        <time>2019-07-07T14:53:44.680Z</time>
      </trkpt>
      <trkpt lat="43.11224667" lon="-0.60834333">
        <ele>298.0</ele>
        <time>2019-07-07T14:53:45.677Z</time>
      </trkpt>
      <trkpt lat="43.112335" lon="-0.608205">
        <ele>298.0</ele>
        <time>2019-07-07T14:53:46.691Z</time>
      </trkpt>
      <trkpt lat="43.112335" lon="-0.608205">
        <ele>298.0</ele>
        <time>2019-07-07T14:53:47.685Z</time>
      </trkpt>
      <trkpt lat="43.11242333" lon="-0.60805833">
        <ele>298.0</ele>
        <time>2019-07-07T14:53:48.695Z</time>
      </trkpt>
      <trkpt lat="43.11247667" lon="-0.607985">
        <ele>298.0</ele>
        <time>2019-07-07T14:53:49.696Z</time>
      </trkpt>
      <trkpt lat="43.11247667" lon="-0.607985">
        <ele>298.0</ele>
        <time>2019-07-07T14:53:50.701Z</time>
      </trkpt>
      <trkpt lat="43.112555" lon="-0.60782167">
        <ele>297.0</ele>
        <time>2019-07-07T14:53:51.668Z</time>
      </trkpt>
      <trkpt lat="43.11257833" lon="-0.60773">
        <ele>297.0</ele>
        <time>2019-07-07T14:53:52.700Z</time>
      </trkpt>
      <trkpt lat="43.11257833" lon="-0.60773">
        <ele>297.0</ele>
        <time>2019-07-07T14:53:53.685Z</time>
      </trkpt>
      <trkpt lat="43.11259833" lon="-0.60753">
        <ele>296.0</ele>
        <time>2019-07-07T14:53:54.694Z</time>
      </trkpt>
      <trkpt lat="43.11259833" lon="-0.60753">
        <ele>296.0</ele>
        <time>2019-07-07T14:53:55.693Z</time>
      </trkpt>
      <trkpt lat="43.11265167" lon="-0.60732833">
        <ele>295.0</ele>
        <time>2019-07-07T14:53:56.702Z</time>
      </trkpt>
      <trkpt lat="43.11265167" lon="-0.60732833">
        <ele>295.0</ele>
        <time>2019-07-07T14:53:57.700Z</time>
      </trkpt>
      <trkpt lat="43.11276167" lon="-0.60715667">
        <ele>295.0</ele>
        <time>2019-07-07T14:53:58.668Z</time>
      </trkpt>
      <trkpt lat="43.11283167" lon="-0.607095">
        <ele>294.0</ele>
        <time>2019-07-07T14:53:59.690Z</time>
      </trkpt>
      <trkpt lat="43.11290833" lon="-0.60706667">
        <ele>294.0</ele>
        <time>2019-07-07T14:54:00.679Z</time>
      </trkpt>
      <trkpt lat="43.11290833" lon="-0.60706667">
        <ele>294.0</ele>
        <time>2019-07-07T14:54:01.694Z</time>
      </trkpt>
      <trkpt lat="43.11306333" lon="-0.60705833">
        <ele>294.0</ele>
        <time>2019-07-07T14:54:02.665Z</time>
      </trkpt>
      <trkpt lat="43.11306333" lon="-0.60705833">
        <ele>294.0</ele>
        <time>2019-07-07T14:54:03.694Z</time>
      </trkpt>
      <trkpt lat="43.11320833" lon="-0.60706833">
        <ele>293.0</ele>
        <time>2019-07-07T14:54:04.704Z</time>
      </trkpt>
      <trkpt lat="43.11320833" lon="-0.60706833">
        <ele>293.0</ele>
        <time>2019-07-07T14:54:05.704Z</time>
      </trkpt>
      <trkpt lat="43.11335667" lon="-0.607085">
        <ele>293.0</ele>
        <time>2019-07-07T14:54:06.675Z</time>
      </trkpt>
      <trkpt lat="43.11335667" lon="-0.607085">
        <ele>293.0</ele>
        <time>2019-07-07T14:54:07.681Z</time>
      </trkpt>
      <trkpt lat="43.11350333" lon="-0.60709833">
        <ele>294.0</ele>
        <time>2019-07-07T14:54:08.695Z</time>
      </trkpt>
      <trkpt lat="43.11350333" lon="-0.60709833">
        <ele>294.0</ele>
        <time>2019-07-07T14:54:09.704Z</time>
      </trkpt>
      <trkpt lat="43.113655" lon="-0.60710333">
        <ele>295.0</ele>
        <time>2019-07-07T14:54:10.671Z</time>
      </trkpt>
      <trkpt lat="43.113655" lon="-0.60710333">
        <ele>295.0</ele>
        <time>2019-07-07T14:54:11.677Z</time>
      </trkpt>
      <trkpt lat="43.11379833" lon="-0.6071">
        <ele>295.0</ele>
        <time>2019-07-07T14:54:12.687Z</time>
      </trkpt>
      <trkpt lat="43.11379833" lon="-0.6071">
        <ele>295.0</ele>
        <time>2019-07-07T14:54:13.681Z</time>
      </trkpt>
      <trkpt lat="43.113925" lon="-0.60706333">
        <ele>296.0</ele>
        <time>2019-07-07T14:54:14.692Z</time>
      </trkpt>
      <trkpt lat="43.113925" lon="-0.60706333">
        <ele>296.0</ele>
        <time>2019-07-07T14:54:15.701Z</time>
      </trkpt>
      <trkpt lat="43.11404333" lon="-0.60699333">
        <ele>296.0</ele>
        <time>2019-07-07T14:54:16.670Z</time>
      </trkpt>
      <trkpt lat="43.11404333" lon="-0.60699333">
        <ele>296.0</ele>
        <time>2019-07-07T14:54:17.683Z</time>
      </trkpt>
      <trkpt lat="43.11415833" lon="-0.60692">
        <ele>297.0</ele>
        <time>2019-07-07T14:54:18.700Z</time>
      </trkpt>
      <trkpt lat="43.11415833" lon="-0.60692">
        <ele>297.0</ele>
        <time>2019-07-07T14:54:19.702Z</time>
      </trkpt>
      <trkpt lat="43.11426667" lon="-0.60685167">
        <ele>298.0</ele>
        <time>2019-07-07T14:54:20.679Z</time>
      </trkpt>
      <trkpt lat="43.11432" lon="-0.60682167">
        <ele>298.0</ele>
        <time>2019-07-07T14:54:21.674Z</time>
      </trkpt>
      <trkpt lat="43.11437333" lon="-0.606795">
        <ele>298.0</ele>
        <time>2019-07-07T14:54:22.699Z</time>
      </trkpt>
      <trkpt lat="43.11437333" lon="-0.606795">
        <ele>298.0</ele>
        <time>2019-07-07T14:54:23.680Z</time>
      </trkpt>
      <trkpt lat="43.11448667" lon="-0.60673667">
        <ele>298.0</ele>
        <time>2019-07-07T14:54:24.689Z</time>
      </trkpt>
      <trkpt lat="43.11448667" lon="-0.60673667">
        <ele>298.0</ele>
        <time>2019-07-07T14:54:25.672Z</time>
      </trkpt>
      <trkpt lat="43.11458833" lon="-0.60668167">
        <ele>298.0</ele>
        <time>2019-07-07T14:54:26.686Z</time>
      </trkpt>
      <trkpt lat="43.11458833" lon="-0.60668167">
        <ele>298.0</ele>
        <time>2019-07-07T14:54:27.702Z</time>
      </trkpt>
      <trkpt lat="43.11468" lon="-0.606625">
        <ele>298.0</ele>
        <time>2019-07-07T14:54:28.672Z</time>
      </trkpt>
      <trkpt lat="43.11471667" lon="-0.60659667">
        <ele>298.0</ele>
        <time>2019-07-07T14:54:29.709Z</time>
      </trkpt>
      <trkpt lat="43.11471667" lon="-0.60659667">
        <ele>298.0</ele>
        <time>2019-07-07T14:54:30.689Z</time>
      </trkpt>
      <trkpt lat="43.114775" lon="-0.60654833">
        <ele>298.0</ele>
        <time>2019-07-07T14:54:31.686Z</time>
      </trkpt>
      <trkpt lat="43.11479833" lon="-0.60653333">
        <ele>298.0</ele>
        <time>2019-07-07T14:54:32.684Z</time>
      </trkpt>
      <trkpt lat="43.11479833" lon="-0.60653333">
        <ele>298.0</ele>
        <time>2019-07-07T14:54:33.704Z</time>
      </trkpt>
      <trkpt lat="43.11483333" lon="-0.60648">
        <ele>298.0</ele>
        <time>2019-07-07T14:54:34.673Z</time>
      </trkpt>
      <trkpt lat="43.11484667" lon="-0.60646">
        <ele>298.0</ele>
        <time>2019-07-07T14:54:35.665Z</time>
      </trkpt>
      <trkpt lat="43.11484667" lon="-0.60646">
        <ele>298.0</ele>
        <time>2019-07-07T14:54:36.685Z</time>
      </trkpt>
      <trkpt lat="43.11485167" lon="-0.60645333">
        <ele>298.0</ele>
        <time>2019-07-07T14:54:37.698Z</time>
      </trkpt>
      <trkpt lat="43.11485167" lon="-0.60645167">
        <ele>297.0</ele>
        <time>2019-07-07T14:54:38.680Z</time>
      </trkpt>
      <trkpt lat="43.11493667" lon="-0.60641667">
        <ele>293.0</ele>
        <time>2019-07-07T14:54:39.679Z</time>
      </trkpt>
      <trkpt lat="43.11493667" lon="-0.60641667">
        <ele>293.0</ele>
        <time>2019-07-07T14:54:40.677Z</time>
      </trkpt>
      <trkpt lat="43.11498667" lon="-0.60645">
        <ele>292.0</ele>
        <time>2019-07-07T14:54:41.682Z</time>
      </trkpt>
      <trkpt lat="43.11498667" lon="-0.60645">
        <ele>292.0</ele>
        <time>2019-07-07T14:54:42.679Z</time>
      </trkpt>
      <trkpt lat="43.11504833" lon="-0.60651333">
        <ele>292.0</ele>
        <time>2019-07-07T14:54:43.697Z</time>
      </trkpt>
      <trkpt lat="43.11504833" lon="-0.60651333">
        <ele>292.0</ele>
        <time>2019-07-07T14:54:44.691Z</time>
      </trkpt>
      <trkpt lat="43.11513667" lon="-0.60658333">
        <ele>292.0</ele>
        <time>2019-07-07T14:54:45.673Z</time>
      </trkpt>
      <trkpt lat="43.11513667" lon="-0.60658333">
        <ele>292.0</ele>
        <time>2019-07-07T14:54:46.694Z</time>
      </trkpt>
      <trkpt lat="43.11525" lon="-0.60666">
        <ele>291.0</ele>
        <time>2019-07-07T14:54:47.665Z</time>
      </trkpt>
      <trkpt lat="43.11525" lon="-0.60666">
        <ele>291.0</ele>
        <time>2019-07-07T14:54:48.677Z</time>
      </trkpt>
      <trkpt lat="43.11536833" lon="-0.60676667">
        <ele>291.0</ele>
        <time>2019-07-07T14:54:49.688Z</time>
      </trkpt>
      <trkpt lat="43.11536833" lon="-0.60676667">
        <ele>291.0</ele>
        <time>2019-07-07T14:54:50.696Z</time>
      </trkpt>
      <trkpt lat="43.11547167" lon="-0.60693167">
        <ele>291.0</ele>
        <time>2019-07-07T14:54:51.666Z</time>
      </trkpt>
      <trkpt lat="43.11547167" lon="-0.60693167">
        <ele>291.0</ele>
        <time>2019-07-07T14:54:52.670Z</time>
      </trkpt>
      <trkpt lat="43.11551667" lon="-0.60716667">
        <ele>290.0</ele>
        <time>2019-07-07T14:54:53.679Z</time>
      </trkpt>
      <trkpt lat="43.11551667" lon="-0.60716667">
        <ele>290.0</ele>
        <time>2019-07-07T14:54:54.703Z</time>
      </trkpt>
      <trkpt lat="43.11554" lon="-0.60743">
        <ele>289.0</ele>
        <time>2019-07-07T14:54:55.674Z</time>
      </trkpt>
      <trkpt lat="43.11554" lon="-0.60743">
        <ele>289.0</ele>
        <time>2019-07-07T14:54:56.674Z</time>
      </trkpt>
      <trkpt lat="43.11560167" lon="-0.60770667">
        <ele>288.0</ele>
        <time>2019-07-07T14:54:57.692Z</time>
      </trkpt>
      <trkpt lat="43.11560167" lon="-0.60770667">
        <ele>288.0</ele>
        <time>2019-07-07T14:54:58.689Z</time>
      </trkpt>
      <trkpt lat="43.11571667" lon="-0.60797667">
        <ele>287.0</ele>
        <time>2019-07-07T14:54:59.665Z</time>
      </trkpt>
      <trkpt lat="43.11578667" lon="-0.60809667">
        <ele>286.0</ele>
        <time>2019-07-07T14:55:00.672Z</time>
      </trkpt>
      <trkpt lat="43.11578667" lon="-0.60809667">
        <ele>286.0</ele>
        <time>2019-07-07T14:55:01.692Z</time>
      </trkpt>
      <trkpt lat="43.11595" lon="-0.60830333">
        <ele>284.0</ele>
        <time>2019-07-07T14:55:02.669Z</time>
      </trkpt>
      <trkpt lat="43.11606667" lon="-0.60835833">
        <ele>284.0</ele>
        <time>2019-07-07T14:55:03.683Z</time>
      </trkpt>
      <trkpt lat="43.11606667" lon="-0.60835833">
        <ele>284.0</ele>
        <time>2019-07-07T14:55:04.682Z</time>
      </trkpt>
      <trkpt lat="43.11631" lon="-0.608395">
        <ele>282.0</ele>
        <time>2019-07-07T14:55:05.699Z</time>
      </trkpt>
      <trkpt lat="43.11631" lon="-0.608395">
        <ele>282.0</ele>
        <time>2019-07-07T14:55:06.702Z</time>
      </trkpt>
      <trkpt lat="43.11656167" lon="-0.60839833">
        <ele>279.0</ele>
        <time>2019-07-07T14:55:07.668Z</time>
      </trkpt>
      <trkpt lat="43.11656167" lon="-0.60839833">
        <ele>279.0</ele>
        <time>2019-07-07T14:55:08.702Z</time>
      </trkpt>
      <trkpt lat="43.1168" lon="-0.60839167">
        <ele>279.0</ele>
        <time>2019-07-07T14:55:09.680Z</time>
      </trkpt>
      <trkpt lat="43.1168" lon="-0.60839167">
        <ele>279.0</ele>
        <time>2019-07-07T14:55:10.676Z</time>
      </trkpt>
      <trkpt lat="43.11702833" lon="-0.60834">
        <ele>277.0</ele>
        <time>2019-07-07T14:55:11.685Z</time>
      </trkpt>
      <trkpt lat="43.11702833" lon="-0.60834">
        <ele>277.0</ele>
        <time>2019-07-07T14:55:12.677Z</time>
      </trkpt>
      <trkpt lat="43.117245" lon="-0.60826833">
        <ele>276.0</ele>
        <time>2019-07-07T14:55:13.689Z</time>
      </trkpt>
      <trkpt lat="43.117245" lon="-0.60826833">
        <ele>276.0</ele>
        <time>2019-07-07T14:55:14.692Z</time>
      </trkpt>
      <trkpt lat="43.11746" lon="-0.60818333">
        <ele>275.0</ele>
        <time>2019-07-07T14:55:15.685Z</time>
      </trkpt>
      <trkpt lat="43.11746" lon="-0.60818333">
        <ele>275.0</ele>
        <time>2019-07-07T14:55:16.671Z</time>
      </trkpt>
      <trkpt lat="43.11767167" lon="-0.60810167">
        <ele>274.0</ele>
        <time>2019-07-07T14:55:17.682Z</time>
      </trkpt>
      <trkpt lat="43.11767167" lon="-0.60810167">
        <ele>274.0</ele>
        <time>2019-07-07T14:55:18.696Z</time>
      </trkpt>
      <trkpt lat="43.11788167" lon="-0.608025">
        <ele>272.0</ele>
        <time>2019-07-07T14:55:19.673Z</time>
      </trkpt>
      <trkpt lat="43.11799" lon="-0.60799833">
        <ele>271.0</ele>
        <time>2019-07-07T14:55:20.696Z</time>
      </trkpt>
      <trkpt lat="43.11809833" lon="-0.60799833">
        <ele>270.0</ele>
        <time>2019-07-07T14:55:21.687Z</time>
      </trkpt>
      <trkpt lat="43.11809833" lon="-0.60799833">
        <ele>270.0</ele>
        <time>2019-07-07T14:55:22.702Z</time>
      </trkpt>
      <trkpt lat="43.11830167" lon="-0.60812">
        <ele>269.0</ele>
        <time>2019-07-07T14:55:23.669Z</time>
      </trkpt>
      <trkpt lat="43.11838667" lon="-0.608225">
        <ele>269.0</ele>
        <time>2019-07-07T14:55:24.701Z</time>
      </trkpt>
      <trkpt lat="43.11838667" lon="-0.608225">
        <ele>269.0</ele>
        <time>2019-07-07T14:55:25.704Z</time>
      </trkpt>
      <trkpt lat="43.11851333" lon="-0.60845167">
        <ele>269.0</ele>
        <time>2019-07-07T14:55:26.676Z</time>
      </trkpt>
      <trkpt lat="43.11856333" lon="-0.60855667">
        <ele>269.0</ele>
        <time>2019-07-07T14:55:27.680Z</time>
      </trkpt>
      <trkpt lat="43.11856333" lon="-0.60855667">
        <ele>269.0</ele>
        <time>2019-07-07T14:55:28.697Z</time>
      </trkpt>
      <trkpt lat="43.11865833" lon="-0.60875667">
        <ele>269.0</ele>
        <time>2019-07-07T14:55:29.674Z</time>
      </trkpt>
      <trkpt lat="43.11865833" lon="-0.60875667">
        <ele>269.0</ele>
        <time>2019-07-07T14:55:30.671Z</time>
      </trkpt>
      <trkpt lat="43.11875167" lon="-0.60895">
        <ele>268.0</ele>
        <time>2019-07-07T14:55:31.680Z</time>
      </trkpt>
      <trkpt lat="43.11875167" lon="-0.60895">
        <ele>268.0</ele>
        <time>2019-07-07T14:55:32.681Z</time>
      </trkpt>
      <trkpt lat="43.11884833" lon="-0.60914667">
        <ele>268.0</ele>
        <time>2019-07-07T14:55:33.665Z</time>
      </trkpt>
      <trkpt lat="43.11884833" lon="-0.60914667">
        <ele>268.0</ele>
        <time>2019-07-07T14:55:34.686Z</time>
      </trkpt>
      <trkpt lat="43.11896" lon="-0.609355">
        <ele>267.0</ele>
        <time>2019-07-07T14:55:35.700Z</time>
      </trkpt>
      <trkpt lat="43.11896" lon="-0.609355">
        <ele>267.0</ele>
        <time>2019-07-07T14:55:36.676Z</time>
      </trkpt>
      <trkpt lat="43.11906833" lon="-0.60957">
        <ele>267.0</ele>
        <time>2019-07-07T14:55:37.689Z</time>
      </trkpt>
      <trkpt lat="43.11913" lon="-0.60967333">
        <ele>267.0</ele>
        <time>2019-07-07T14:55:38.701Z</time>
      </trkpt>
      <trkpt lat="43.11919833" lon="-0.60976833">
        <ele>266.0</ele>
        <time>2019-07-07T14:55:39.668Z</time>
      </trkpt>
      <trkpt lat="43.11919833" lon="-0.60976833">
        <ele>266.0</ele>
        <time>2019-07-07T14:55:40.683Z</time>
      </trkpt>
      <trkpt lat="43.11934667" lon="-0.60992167">
        <ele>266.0</ele>
        <time>2019-07-07T14:55:41.694Z</time>
      </trkpt>
      <trkpt lat="43.11942333" lon="-0.60998167">
        <ele>267.0</ele>
        <time>2019-07-07T14:55:42.691Z</time>
      </trkpt>
      <trkpt lat="43.11942333" lon="-0.60998167">
        <ele>267.0</ele>
        <time>2019-07-07T14:55:43.698Z</time>
      </trkpt>
      <trkpt lat="43.11958167" lon="-0.61007167">
        <ele>267.0</ele>
        <time>2019-07-07T14:55:44.683Z</time>
      </trkpt>
      <trkpt lat="43.11965833" lon="-0.61010833">
        <ele>267.0</ele>
        <time>2019-07-07T14:55:45.690Z</time>
      </trkpt>
      <trkpt lat="43.11965833" lon="-0.61010833">
        <ele>267.0</ele>
        <time>2019-07-07T14:55:46.671Z</time>
      </trkpt>
      <trkpt lat="43.11980667" lon="-0.61018167">
        <ele>268.0</ele>
        <time>2019-07-07T14:55:47.683Z</time>
      </trkpt>
      <trkpt lat="43.119875" lon="-0.61022333">
        <ele>268.0</ele>
        <time>2019-07-07T14:55:48.665Z</time>
      </trkpt>
      <trkpt lat="43.119875" lon="-0.61022333">
        <ele>268.0</ele>
        <time>2019-07-07T14:55:49.676Z</time>
      </trkpt>
      <trkpt lat="43.12" lon="-0.61033333">
        <ele>268.0</ele>
        <time>2019-07-07T14:55:50.692Z</time>
      </trkpt>
      <trkpt lat="43.120055" lon="-0.610395">
        <ele>268.0</ele>
        <time>2019-07-07T14:55:51.672Z</time>
      </trkpt>
      <trkpt lat="43.120055" lon="-0.610395">
        <ele>268.0</ele>
        <time>2019-07-07T14:55:52.687Z</time>
      </trkpt>
      <trkpt lat="43.12015833" lon="-0.61052667">
        <ele>268.0</ele>
        <time>2019-07-07T14:55:53.679Z</time>
      </trkpt>
      <trkpt lat="43.12015833" lon="-0.61052667">
        <ele>268.0</ele>
        <time>2019-07-07T14:55:54.686Z</time>
      </trkpt>
      <trkpt lat="43.12025333" lon="-0.610665">
        <ele>269.0</ele>
        <time>2019-07-07T14:55:55.693Z</time>
      </trkpt>
      <trkpt lat="43.12025333" lon="-0.610665">
        <ele>269.0</ele>
        <time>2019-07-07T14:55:56.677Z</time>
      </trkpt>
      <trkpt lat="43.12034667" lon="-0.6108">
        <ele>269.0</ele>
        <time>2019-07-07T14:55:57.686Z</time>
      </trkpt>
      <trkpt lat="43.12034667" lon="-0.6108">
        <ele>269.0</ele>
        <time>2019-07-07T14:55:58.684Z</time>
      </trkpt>
      <trkpt lat="43.12044333" lon="-0.61093167">
        <ele>269.0</ele>
        <time>2019-07-07T14:55:59.694Z</time>
      </trkpt>
      <trkpt lat="43.12049333" lon="-0.61099833">
        <ele>269.0</ele>
        <time>2019-07-07T14:56:00.679Z</time>
      </trkpt>
      <trkpt lat="43.12049333" lon="-0.61099833">
        <ele>269.0</ele>
        <time>2019-07-07T14:56:01.702Z</time>
      </trkpt>
      <trkpt lat="43.12059167" lon="-0.61112667">
        <ele>269.0</ele>
        <time>2019-07-07T14:56:02.702Z</time>
      </trkpt>
      <trkpt lat="43.12064" lon="-0.61119">
        <ele>269.0</ele>
        <time>2019-07-07T14:56:03.703Z</time>
      </trkpt>
      <trkpt lat="43.12064" lon="-0.61119">
        <ele>269.0</ele>
        <time>2019-07-07T14:56:04.677Z</time>
      </trkpt>
      <trkpt lat="43.120735" lon="-0.61132">
        <ele>269.0</ele>
        <time>2019-07-07T14:56:05.689Z</time>
      </trkpt>
      <trkpt lat="43.12078167" lon="-0.61138333">
        <ele>269.0</ele>
        <time>2019-07-07T14:56:06.671Z</time>
      </trkpt>
      <trkpt lat="43.12082667" lon="-0.61144667">
        <ele>269.0</ele>
        <time>2019-07-07T14:56:07.682Z</time>
      </trkpt>
      <trkpt lat="43.12082667" lon="-0.61144667">
        <ele>269.0</ele>
        <time>2019-07-07T14:56:08.691Z</time>
      </trkpt>
      <trkpt lat="43.12091667" lon="-0.61157333">
        <ele>270.0</ele>
        <time>2019-07-07T14:56:09.704Z</time>
      </trkpt>
      <trkpt lat="43.12091667" lon="-0.61157333">
        <ele>270.0</ele>
        <time>2019-07-07T14:56:10.702Z</time>
      </trkpt>
      <trkpt lat="43.121005" lon="-0.61169833">
        <ele>270.0</ele>
        <time>2019-07-07T14:56:11.687Z</time>
      </trkpt>
      <trkpt lat="43.12104833" lon="-0.61176">
        <ele>270.0</ele>
        <time>2019-07-07T14:56:12.671Z</time>
      </trkpt>
      <trkpt lat="43.12104833" lon="-0.61176">
        <ele>270.0</ele>
        <time>2019-07-07T14:56:13.694Z</time>
      </trkpt>
      <trkpt lat="43.12113667" lon="-0.61188">
        <ele>270.0</ele>
        <time>2019-07-07T14:56:14.704Z</time>
      </trkpt>
      <trkpt lat="43.12118333" lon="-0.61193833">
        <ele>271.0</ele>
        <time>2019-07-07T14:56:15.693Z</time>
      </trkpt>
      <trkpt lat="43.12118333" lon="-0.61193833">
        <ele>271.0</ele>
        <time>2019-07-07T14:56:16.676Z</time>
      </trkpt>
      <trkpt lat="43.12127667" lon="-0.61204">
        <ele>271.0</ele>
        <time>2019-07-07T14:56:17.701Z</time>
      </trkpt>
      <trkpt lat="43.12132167" lon="-0.61209">
        <ele>271.0</ele>
        <time>2019-07-07T14:56:18.686Z</time>
      </trkpt>
      <trkpt lat="43.12132167" lon="-0.61209">
        <ele>271.0</ele>
        <time>2019-07-07T14:56:19.702Z</time>
      </trkpt>
      <trkpt lat="43.12141333" lon="-0.61219167">
        <ele>272.0</ele>
        <time>2019-07-07T14:56:20.672Z</time>
      </trkpt>
      <trkpt lat="43.12145833" lon="-0.61224333">
        <ele>272.0</ele>
        <time>2019-07-07T14:56:21.672Z</time>
      </trkpt>
      <trkpt lat="43.12145833" lon="-0.61224333">
        <ele>272.0</ele>
        <time>2019-07-07T14:56:22.672Z</time>
      </trkpt>
      <trkpt lat="43.121545" lon="-0.61234667">
        <ele>273.0</ele>
        <time>2019-07-07T14:56:23.680Z</time>
      </trkpt>
      <trkpt lat="43.121545" lon="-0.61234667">
        <ele>273.0</ele>
        <time>2019-07-07T14:56:24.673Z</time>
      </trkpt>
      <trkpt lat="43.12162833" lon="-0.612455">
        <ele>273.0</ele>
        <time>2019-07-07T14:56:25.696Z</time>
      </trkpt>
      <trkpt lat="43.12162833" lon="-0.612455">
        <ele>273.0</ele>
        <time>2019-07-07T14:56:26.671Z</time>
      </trkpt>
      <trkpt lat="43.121705" lon="-0.61257">
        <ele>273.0</ele>
        <time>2019-07-07T14:56:27.682Z</time>
      </trkpt>
      <trkpt lat="43.121705" lon="-0.61257">
        <ele>273.0</ele>
        <time>2019-07-07T14:56:28.691Z</time>
      </trkpt>
      <trkpt lat="43.121775" lon="-0.61269">
        <ele>273.0</ele>
        <time>2019-07-07T14:56:29.672Z</time>
      </trkpt>
      <trkpt lat="43.12181333" lon="-0.61274833">
        <ele>273.0</ele>
        <time>2019-07-07T14:56:30.680Z</time>
      </trkpt>
      <trkpt lat="43.12181333" lon="-0.61274833">
        <ele>273.0</ele>
        <time>2019-07-07T14:56:31.699Z</time>
      </trkpt>
      <trkpt lat="43.12188833" lon="-0.61286">
        <ele>274.0</ele>
        <time>2019-07-07T14:56:32.673Z</time>
      </trkpt>
      <trkpt lat="43.12188833" lon="-0.61286">
        <ele>274.0</ele>
        <time>2019-07-07T14:56:33.678Z</time>
      </trkpt>
      <trkpt lat="43.12195667" lon="-0.612975">
        <ele>274.0</ele>
        <time>2019-07-07T14:56:34.688Z</time>
      </trkpt>
      <trkpt lat="43.12199" lon="-0.61303167">
        <ele>274.0</ele>
        <time>2019-07-07T14:56:35.703Z</time>
      </trkpt>
      <trkpt lat="43.12199" lon="-0.61303167">
        <ele>274.0</ele>
        <time>2019-07-07T14:56:36.678Z</time>
      </trkpt>
      <trkpt lat="43.12205333" lon="-0.61314333">
        <ele>275.0</ele>
        <time>2019-07-07T14:56:37.671Z</time>
      </trkpt>
      <trkpt lat="43.12205333" lon="-0.61314333">
        <ele>275.0</ele>
        <time>2019-07-07T14:56:38.681Z</time>
      </trkpt>
      <trkpt lat="43.12211167" lon="-0.61325167">
        <ele>275.0</ele>
        <time>2019-07-07T14:56:39.696Z</time>
      </trkpt>
      <trkpt lat="43.12211167" lon="-0.61325167">
        <ele>275.0</ele>
        <time>2019-07-07T14:56:40.671Z</time>
      </trkpt>
      <trkpt lat="43.12216667" lon="-0.61335">
        <ele>275.0</ele>
        <time>2019-07-07T14:56:41.689Z</time>
      </trkpt>
      <trkpt lat="43.12216667" lon="-0.61335">
        <ele>275.0</ele>
        <time>2019-07-07T14:56:42.671Z</time>
      </trkpt>
      <trkpt lat="43.12220667" lon="-0.61343">
        <ele>276.0</ele>
        <time>2019-07-07T14:56:43.684Z</time>
      </trkpt>
      <trkpt lat="43.12222167" lon="-0.61346">
        <ele>276.0</ele>
        <time>2019-07-07T14:56:44.692Z</time>
      </trkpt>
      <trkpt lat="43.12223333" lon="-0.613485">
        <ele>276.0</ele>
        <time>2019-07-07T14:56:45.666Z</time>
      </trkpt>
      <trkpt lat="43.12223333" lon="-0.613485">
        <ele>276.0</ele>
        <time>2019-07-07T14:56:46.681Z</time>
      </trkpt>
      <trkpt lat="43.12225167" lon="-0.613525">
        <ele>276.0</ele>
        <time>2019-07-07T14:56:47.690Z</time>
      </trkpt>
      <trkpt lat="43.12225833" lon="-0.61354167">
        <ele>277.0</ele>
        <time>2019-07-07T14:56:48.666Z</time>
      </trkpt>
      <trkpt lat="43.12225833" lon="-0.61354167">
        <ele>277.0</ele>
        <time>2019-07-07T14:56:49.669Z</time>
      </trkpt>
      <trkpt lat="43.12225833" lon="-0.613565">
        <ele>277.0</ele>
        <time>2019-07-07T14:56:50.677Z</time>
      </trkpt>
      <trkpt lat="43.12225833" lon="-0.61356667">
        <ele>277.0</ele>
        <time>2019-07-07T14:56:51.692Z</time>
      </trkpt>
      <trkpt lat="43.12225833" lon="-0.61356667">
        <ele>277.0</ele>
        <time>2019-07-07T14:56:52.691Z</time>
      </trkpt>
      <trkpt lat="43.12222" lon="-0.613655">
        <ele>277.0</ele>
        <time>2019-07-07T14:56:53.681Z</time>
      </trkpt>
      <trkpt lat="43.12222" lon="-0.613655">
        <ele>277.0</ele>
        <time>2019-07-07T14:56:54.676Z</time>
      </trkpt>
      <trkpt lat="43.12215" lon="-0.61367167">
        <ele>277.0</ele>
        <time>2019-07-07T14:56:55.681Z</time>
      </trkpt>
      <trkpt lat="43.12215" lon="-0.61367167">
        <ele>277.0</ele>
        <time>2019-07-07T14:56:56.713Z</time>
      </trkpt>
      <trkpt lat="43.12205167" lon="-0.61368333">
        <ele>276.0</ele>
        <time>2019-07-07T14:56:57.694Z</time>
      </trkpt>
      <trkpt lat="43.12205167" lon="-0.61368333">
        <ele>276.0</ele>
        <time>2019-07-07T14:56:58.691Z</time>
      </trkpt>
      <trkpt lat="43.12194333" lon="-0.61369667">
        <ele>276.0</ele>
        <time>2019-07-07T14:56:59.700Z</time>
      </trkpt>
      <trkpt lat="43.121885" lon="-0.61370333">
        <ele>276.0</ele>
        <time>2019-07-07T14:57:00.678Z</time>
      </trkpt>
      <trkpt lat="43.121885" lon="-0.61370333">
        <ele>276.0</ele>
        <time>2019-07-07T14:57:01.668Z</time>
      </trkpt>
      <trkpt lat="43.121765" lon="-0.61372833">
        <ele>275.0</ele>
        <time>2019-07-07T14:57:02.677Z</time>
      </trkpt>
      <trkpt lat="43.121705" lon="-0.61374667">
        <ele>275.0</ele>
        <time>2019-07-07T14:57:03.676Z</time>
      </trkpt>
      <trkpt lat="43.121705" lon="-0.61374667">
        <ele>275.0</ele>
        <time>2019-07-07T14:57:04.685Z</time>
      </trkpt>
      <trkpt lat="43.12158" lon="-0.61379167">
        <ele>274.0</ele>
        <time>2019-07-07T14:57:05.698Z</time>
      </trkpt>
      <trkpt lat="43.12151833" lon="-0.61381">
        <ele>274.0</ele>
        <time>2019-07-07T14:57:06.692Z</time>
      </trkpt>
      <trkpt lat="43.12151833" lon="-0.61381">
        <ele>274.0</ele>
        <time>2019-07-07T14:57:07.668Z</time>
      </trkpt>
      <trkpt lat="43.12138667" lon="-0.61384167">
        <ele>274.0</ele>
        <time>2019-07-07T14:57:08.699Z</time>
      </trkpt>
      <trkpt lat="43.12131833" lon="-0.61385667">
        <ele>274.0</ele>
        <time>2019-07-07T14:57:09.687Z</time>
      </trkpt>
      <trkpt lat="43.12131833" lon="-0.61385667">
        <ele>274.0</ele>
        <time>2019-07-07T14:57:10.675Z</time>
      </trkpt>
      <trkpt lat="43.12118167" lon="-0.613885">
        <ele>274.0</ele>
        <time>2019-07-07T14:57:11.687Z</time>
      </trkpt>
      <trkpt lat="43.121115" lon="-0.61389667">
        <ele>274.0</ele>
        <time>2019-07-07T14:57:12.700Z</time>
      </trkpt>
      <trkpt lat="43.121115" lon="-0.61389667">
        <ele>274.0</ele>
        <time>2019-07-07T14:57:13.671Z</time>
      </trkpt>
      <trkpt lat="43.12097833" lon="-0.61392833">
        <ele>273.0</ele>
        <time>2019-07-07T14:57:14.690Z</time>
      </trkpt>
      <trkpt lat="43.12090833" lon="-0.61394">
        <ele>273.0</ele>
        <time>2019-07-07T14:57:15.667Z</time>
      </trkpt>
      <trkpt lat="43.12090833" lon="-0.61394">
        <ele>273.0</ele>
        <time>2019-07-07T14:57:16.669Z</time>
      </trkpt>
      <trkpt lat="43.120765" lon="-0.613955">
        <ele>273.0</ele>
        <time>2019-07-07T14:57:17.680Z</time>
      </trkpt>
      <trkpt lat="43.12069333" lon="-0.61395667">
        <ele>273.0</ele>
        <time>2019-07-07T14:57:18.687Z</time>
      </trkpt>
      <trkpt lat="43.12069333" lon="-0.61395667">
        <ele>273.0</ele>
        <time>2019-07-07T14:57:19.688Z</time>
      </trkpt>
      <trkpt lat="43.12055333" lon="-0.61394667">
        <ele>272.0</ele>
        <time>2019-07-07T14:57:20.687Z</time>
      </trkpt>
      <trkpt lat="43.12048333" lon="-0.61394167">
        <ele>272.0</ele>
        <time>2019-07-07T14:57:21.681Z</time>
      </trkpt>
      <trkpt lat="43.12048333" lon="-0.61394167">
        <ele>272.0</ele>
        <time>2019-07-07T14:57:22.683Z</time>
      </trkpt>
      <trkpt lat="43.120345" lon="-0.613935">
        <ele>271.0</ele>
        <time>2019-07-07T14:57:23.700Z</time>
      </trkpt>
      <trkpt lat="43.12027667" lon="-0.61392833">
        <ele>271.0</ele>
        <time>2019-07-07T14:57:24.674Z</time>
      </trkpt>
      <trkpt lat="43.12021" lon="-0.61392333">
        <ele>271.0</ele>
        <time>2019-07-07T14:57:25.704Z</time>
      </trkpt>
      <trkpt lat="43.12021" lon="-0.61392333">
        <ele>271.0</ele>
        <time>2019-07-07T14:57:26.684Z</time>
      </trkpt>
      <trkpt lat="43.12007167" lon="-0.61392333">
        <ele>270.0</ele>
        <time>2019-07-07T14:57:27.698Z</time>
      </trkpt>
      <trkpt lat="43.12007167" lon="-0.61392333">
        <ele>270.0</ele>
        <time>2019-07-07T14:57:28.697Z</time>
      </trkpt>
      <trkpt lat="43.11993" lon="-0.61391833">
        <ele>270.0</ele>
        <time>2019-07-07T14:57:29.670Z</time>
      </trkpt>
      <trkpt lat="43.11993" lon="-0.61391833">
        <ele>270.0</ele>
        <time>2019-07-07T14:57:30.669Z</time>
      </trkpt>
      <trkpt lat="43.119795" lon="-0.61390667">
        <ele>269.0</ele>
        <time>2019-07-07T14:57:31.687Z</time>
      </trkpt>
      <trkpt lat="43.119795" lon="-0.61390667">
        <ele>269.0</ele>
        <time>2019-07-07T14:57:32.697Z</time>
      </trkpt>
      <trkpt lat="43.119655" lon="-0.61390667">
        <ele>269.0</ele>
        <time>2019-07-07T14:57:33.680Z</time>
      </trkpt>
      <trkpt lat="43.119655" lon="-0.61390667">
        <ele>269.0</ele>
        <time>2019-07-07T14:57:34.695Z</time>
      </trkpt>
      <trkpt lat="43.119515" lon="-0.613905">
        <ele>269.0</ele>
        <time>2019-07-07T14:57:35.673Z</time>
      </trkpt>
      <trkpt lat="43.119515" lon="-0.613905">
        <ele>269.0</ele>
        <time>2019-07-07T14:57:36.669Z</time>
      </trkpt>
      <trkpt lat="43.11937833" lon="-0.613905">
        <ele>268.0</ele>
        <time>2019-07-07T14:57:37.687Z</time>
      </trkpt>
      <trkpt lat="43.11937833" lon="-0.613905">
        <ele>268.0</ele>
        <time>2019-07-07T14:57:38.685Z</time>
      </trkpt>
      <trkpt lat="43.11924167" lon="-0.61390333">
        <ele>268.0</ele>
        <time>2019-07-07T14:57:39.698Z</time>
      </trkpt>
      <trkpt lat="43.11924167" lon="-0.61390333">
        <ele>268.0</ele>
        <time>2019-07-07T14:57:40.681Z</time>
      </trkpt>
      <trkpt lat="43.11910667" lon="-0.61389333">
        <ele>268.0</ele>
        <time>2019-07-07T14:57:41.703Z</time>
      </trkpt>
      <trkpt lat="43.11910667" lon="-0.61389333">
        <ele>268.0</ele>
        <time>2019-07-07T14:57:42.668Z</time>
      </trkpt>
      <trkpt lat="43.11897333" lon="-0.61389667">
        <ele>268.0</ele>
        <time>2019-07-07T14:57:43.678Z</time>
      </trkpt>
      <trkpt lat="43.11897333" lon="-0.61389667">
        <ele>268.0</ele>
        <time>2019-07-07T14:57:44.669Z</time>
      </trkpt>
      <trkpt lat="43.11883667" lon="-0.61389667">
        <ele>268.0</ele>
        <time>2019-07-07T14:57:45.690Z</time>
      </trkpt>
      <trkpt lat="43.11883667" lon="-0.61389667">
        <ele>268.0</ele>
        <time>2019-07-07T14:57:46.687Z</time>
      </trkpt>
      <trkpt lat="43.1187" lon="-0.61388833">
        <ele>268.0</ele>
        <time>2019-07-07T14:57:47.695Z</time>
      </trkpt>
      <trkpt lat="43.1187" lon="-0.61388833">
        <ele>268.0</ele>
        <time>2019-07-07T14:57:48.699Z</time>
      </trkpt>
      <trkpt lat="43.11856667" lon="-0.61389333">
        <ele>267.0</ele>
        <time>2019-07-07T14:57:49.674Z</time>
      </trkpt>
      <trkpt lat="43.118495" lon="-0.61390333">
        <ele>267.0</ele>
        <time>2019-07-07T14:57:50.680Z</time>
      </trkpt>
      <trkpt lat="43.118495" lon="-0.61390333">
        <ele>267.0</ele>
        <time>2019-07-07T14:57:51.696Z</time>
      </trkpt>
      <trkpt lat="43.118355" lon="-0.61392833">
        <ele>267.0</ele>
        <time>2019-07-07T14:57:52.667Z</time>
      </trkpt>
      <trkpt lat="43.118355" lon="-0.61392833">
        <ele>267.0</ele>
        <time>2019-07-07T14:57:53.704Z</time>
      </trkpt>
      <trkpt lat="43.11822333" lon="-0.61397667">
        <ele>267.0</ele>
        <time>2019-07-07T14:57:54.676Z</time>
      </trkpt>
      <trkpt lat="43.11816167" lon="-0.61400667">
        <ele>267.0</ele>
        <time>2019-07-07T14:57:55.672Z</time>
      </trkpt>
      <trkpt lat="43.11816167" lon="-0.61400667">
        <ele>267.0</ele>
        <time>2019-07-07T14:57:56.682Z</time>
      </trkpt>
      <trkpt lat="43.118045" lon="-0.61409167">
        <ele>267.0</ele>
        <time>2019-07-07T14:57:57.700Z</time>
      </trkpt>
      <trkpt lat="43.118045" lon="-0.61409167">
        <ele>267.0</ele>
        <time>2019-07-07T14:57:58.672Z</time>
      </trkpt>
      <trkpt lat="43.11793667" lon="-0.61419167">
        <ele>266.0</ele>
        <time>2019-07-07T14:57:59.681Z</time>
      </trkpt>
      <trkpt lat="43.11793667" lon="-0.61419167">
        <ele>266.0</ele>
        <time>2019-07-07T14:58:00.688Z</time>
      </trkpt>
      <trkpt lat="43.11784167" lon="-0.61429167">
        <ele>266.0</ele>
        <time>2019-07-07T14:58:01.703Z</time>
      </trkpt>
      <trkpt lat="43.11784167" lon="-0.61429167">
        <ele>266.0</ele>
        <time>2019-07-07T14:58:02.688Z</time>
      </trkpt>
      <trkpt lat="43.11774833" lon="-0.61438333">
        <ele>266.0</ele>
        <time>2019-07-07T14:58:03.701Z</time>
      </trkpt>
      <trkpt lat="43.11774833" lon="-0.61438333">
        <ele>266.0</ele>
        <time>2019-07-07T14:58:04.695Z</time>
      </trkpt>
      <trkpt lat="43.11765167" lon="-0.61445333">
        <ele>267.0</ele>
        <time>2019-07-07T14:58:05.669Z</time>
      </trkpt>
      <trkpt lat="43.11765167" lon="-0.61445333">
        <ele>267.0</ele>
        <time>2019-07-07T14:58:06.671Z</time>
      </trkpt>
      <trkpt lat="43.11755667" lon="-0.61444667">
        <ele>267.0</ele>
        <time>2019-07-07T14:58:07.678Z</time>
      </trkpt>
      <trkpt lat="43.11755667" lon="-0.61444667">
        <ele>267.0</ele>
        <time>2019-07-07T14:58:08.699Z</time>
      </trkpt>
      <trkpt lat="43.11749667" lon="-0.614365">
        <ele>267.0</ele>
        <time>2019-07-07T14:58:09.682Z</time>
      </trkpt>
      <trkpt lat="43.11749667" lon="-0.614365">
        <ele>267.0</ele>
        <time>2019-07-07T14:58:10.674Z</time>
      </trkpt>
      <trkpt lat="43.11752" lon="-0.61425">
        <ele>267.0</ele>
        <time>2019-07-07T14:58:11.686Z</time>
      </trkpt>
      <trkpt lat="43.11753667" lon="-0.61418833">
        <ele>267.0</ele>
        <time>2019-07-07T14:58:12.696Z</time>
      </trkpt>
      <trkpt lat="43.11753667" lon="-0.61418833">
        <ele>267.0</ele>
        <time>2019-07-07T14:58:13.685Z</time>
      </trkpt>
      <trkpt lat="43.11756167" lon="-0.61405667">
        <ele>268.0</ele>
        <time>2019-07-07T14:58:14.697Z</time>
      </trkpt>
      <trkpt lat="43.11756167" lon="-0.61405667">
        <ele>268.0</ele>
        <time>2019-07-07T14:58:15.691Z</time>
      </trkpt>
      <trkpt lat="43.11760333" lon="-0.61392667">
        <ele>268.0</ele>
        <time>2019-07-07T14:58:16.700Z</time>
      </trkpt>
      <trkpt lat="43.11760333" lon="-0.61392667">
        <ele>268.0</ele>
        <time>2019-07-07T14:58:17.671Z</time>
      </trkpt>
      <trkpt lat="43.11766167" lon="-0.61380167">
        <ele>268.0</ele>
        <time>2019-07-07T14:58:18.680Z</time>
      </trkpt>
      <trkpt lat="43.11769333" lon="-0.61374333">
        <ele>268.0</ele>
        <time>2019-07-07T14:58:19.700Z</time>
      </trkpt>
      <trkpt lat="43.11769333" lon="-0.61374333">
        <ele>268.0</ele>
        <time>2019-07-07T14:58:20.692Z</time>
      </trkpt>
      <trkpt lat="43.11776667" lon="-0.61363167">
        <ele>268.0</ele>
        <time>2019-07-07T14:58:21.703Z</time>
      </trkpt>
      <trkpt lat="43.11776667" lon="-0.61363167">
        <ele>268.0</ele>
        <time>2019-07-07T14:58:22.701Z</time>
      </trkpt>
      <trkpt lat="43.117845" lon="-0.61352">
        <ele>267.0</ele>
        <time>2019-07-07T14:58:23.669Z</time>
      </trkpt>
      <trkpt lat="43.117845" lon="-0.61352">
        <ele>267.0</ele>
        <time>2019-07-07T14:58:24.674Z</time>
      </trkpt>
      <trkpt lat="43.117915" lon="-0.61340167">
        <ele>267.0</ele>
        <time>2019-07-07T14:58:25.689Z</time>
      </trkpt>
      <trkpt lat="43.117915" lon="-0.61340167">
        <ele>267.0</ele>
        <time>2019-07-07T14:58:26.686Z</time>
      </trkpt>
      <trkpt lat="43.11795333" lon="-0.61326333">
        <ele>267.0</ele>
        <time>2019-07-07T14:58:27.681Z</time>
      </trkpt>
      <trkpt lat="43.11796333" lon="-0.61319333">
        <ele>267.0</ele>
        <time>2019-07-07T14:58:28.695Z</time>
      </trkpt>
      <trkpt lat="43.11796333" lon="-0.61319333">
        <ele>267.0</ele>
        <time>2019-07-07T14:58:29.698Z</time>
      </trkpt>
      <trkpt lat="43.117975" lon="-0.61305833">
        <ele>267.0</ele>
        <time>2019-07-07T14:58:30.668Z</time>
      </trkpt>
      <trkpt lat="43.11798" lon="-0.61299833">
        <ele>267.0</ele>
        <time>2019-07-07T14:58:31.681Z</time>
      </trkpt>
      <trkpt lat="43.11798" lon="-0.61299833">
        <ele>267.0</ele>
        <time>2019-07-07T14:58:32.688Z</time>
      </trkpt>
      <trkpt lat="43.11798667" lon="-0.61288">
        <ele>267.0</ele>
        <time>2019-07-07T14:58:33.696Z</time>
      </trkpt>
      <trkpt lat="43.11798667" lon="-0.61288">
        <ele>267.0</ele>
        <time>2019-07-07T14:58:34.684Z</time>
      </trkpt>
      <trkpt lat="43.11798333" lon="-0.61275667">
        <ele>266.0</ele>
        <time>2019-07-07T14:58:35.694Z</time>
      </trkpt>
      <trkpt lat="43.117975" lon="-0.61269333">
        <ele>266.0</ele>
        <time>2019-07-07T14:58:36.699Z</time>
      </trkpt>
      <trkpt lat="43.117975" lon="-0.61269333">
        <ele>266.0</ele>
        <time>2019-07-07T14:58:37.678Z</time>
      </trkpt>
      <trkpt lat="43.11794" lon="-0.61256833">
        <ele>265.0</ele>
        <time>2019-07-07T14:58:38.690Z</time>
      </trkpt>
      <trkpt lat="43.11791833" lon="-0.61250833">
        <ele>265.0</ele>
        <time>2019-07-07T14:58:39.694Z</time>
      </trkpt>
      <trkpt lat="43.11791833" lon="-0.61250833">
        <ele>265.0</ele>
        <time>2019-07-07T14:58:40.669Z</time>
      </trkpt>
      <trkpt lat="43.11787" lon="-0.612415">
        <ele>265.0</ele>
        <time>2019-07-07T14:58:41.677Z</time>
      </trkpt>
      <trkpt lat="43.11784833" lon="-0.61238333">
        <ele>265.0</ele>
        <time>2019-07-07T14:58:42.686Z</time>
      </trkpt>
      <trkpt lat="43.11784833" lon="-0.61238333">
        <ele>265.0</ele>
        <time>2019-07-07T14:58:43.699Z</time>
      </trkpt>
      <trkpt lat="43.117805" lon="-0.61233333">
        <ele>266.0</ele>
        <time>2019-07-07T14:58:44.679Z</time>
      </trkpt>
      <trkpt lat="43.117805" lon="-0.61233333">
        <ele>266.0</ele>
        <time>2019-07-07T14:58:45.678Z</time>
      </trkpt>
      <trkpt lat="43.11776833" lon="-0.61229333">
        <ele>266.0</ele>
        <time>2019-07-07T14:58:46.694Z</time>
      </trkpt>
      <trkpt lat="43.11776833" lon="-0.61229333">
        <ele>266.0</ele>
        <time>2019-07-07T14:58:47.678Z</time>
      </trkpt>
      <trkpt lat="43.117735" lon="-0.61227667">
        <ele>265.0</ele>
        <time>2019-07-07T14:58:48.689Z</time>
      </trkpt>
      <trkpt lat="43.117715" lon="-0.61228">
        <ele>265.0</ele>
        <time>2019-07-07T14:58:49.671Z</time>
      </trkpt>
      <trkpt lat="43.117715" lon="-0.61228">
        <ele>265.0</ele>
        <time>2019-07-07T14:58:50.671Z</time>
      </trkpt>
      <trkpt lat="43.117685" lon="-0.61231833">
        <ele>265.0</ele>
        <time>2019-07-07T14:58:51.679Z</time>
      </trkpt>
      <trkpt lat="43.117685" lon="-0.61231833">
        <ele>265.0</ele>
        <time>2019-07-07T14:58:52.670Z</time>
      </trkpt>
      <trkpt lat="43.11766333" lon="-0.612365">
        <ele>265.0</ele>
        <time>2019-07-07T14:58:53.679Z</time>
      </trkpt>
      <trkpt lat="43.11766333" lon="-0.612365">
        <ele>265.0</ele>
        <time>2019-07-07T14:58:54.692Z</time>
      </trkpt>
      <trkpt lat="43.11763167" lon="-0.61240167">
        <ele>265.0</ele>
        <time>2019-07-07T14:58:55.700Z</time>
      </trkpt>
      <trkpt lat="43.11761667" lon="-0.61242167">
        <ele>265.0</ele>
        <time>2019-07-07T14:58:56.668Z</time>
      </trkpt>
      <trkpt lat="43.11760333" lon="-0.61243833">
        <ele>265.0</ele>
        <time>2019-07-07T14:58:57.694Z</time>
      </trkpt>
      <trkpt lat="43.11760333" lon="-0.61243833">
        <ele>265.0</ele>
        <time>2019-07-07T14:58:58.671Z</time>
      </trkpt>
      <trkpt lat="43.11757667" lon="-0.612485">
        <ele>265.0</ele>
        <time>2019-07-07T14:58:59.683Z</time>
      </trkpt>
      <trkpt lat="43.11756333" lon="-0.61250667">
        <ele>265.0</ele>
        <time>2019-07-07T14:59:00.672Z</time>
      </trkpt>
      <trkpt lat="43.11756333" lon="-0.61250667">
        <ele>265.0</ele>
        <time>2019-07-07T14:59:01.678Z</time>
      </trkpt>
      <trkpt lat="43.117535" lon="-0.61255667">
        <ele>265.0</ele>
        <time>2019-07-07T14:59:02.689Z</time>
      </trkpt>
      <trkpt lat="43.11751833" lon="-0.61258">
        <ele>265.0</ele>
        <time>2019-07-07T14:59:03.672Z</time>
      </trkpt>
      <trkpt lat="43.11751833" lon="-0.61258">
        <ele>265.0</ele>
        <time>2019-07-07T14:59:04.692Z</time>
      </trkpt>
      <trkpt lat="43.117485" lon="-0.61261167">
        <ele>264.0</ele>
        <time>2019-07-07T14:59:05.699Z</time>
      </trkpt>
      <trkpt lat="43.117485" lon="-0.61261167">
        <ele>264.0</ele>
        <time>2019-07-07T14:59:06.678Z</time>
      </trkpt>
      <trkpt lat="43.11746167" lon="-0.61263333">
        <ele>264.0</ele>
        <time>2019-07-07T14:59:07.688Z</time>
      </trkpt>
      <trkpt lat="43.11745667" lon="-0.61263833">
        <ele>264.0</ele>
        <time>2019-07-07T14:59:08.678Z</time>
      </trkpt>
      <trkpt lat="43.11745667" lon="-0.61264">
        <ele>264.0</ele>
        <time>2019-07-07T14:59:09.700Z</time>
      </trkpt>
      <trkpt lat="43.11745833" lon="-0.61264167">
        <ele>264.0</ele>
        <time>2019-07-07T14:59:10.673Z</time>
      </trkpt>
      <trkpt lat="43.117365" lon="-0.61263333">
        <ele>265.0</ele>
        <time>2019-07-07T14:59:11.665Z</time>
      </trkpt>
      <trkpt lat="43.117365" lon="-0.61263333">
        <ele>265.0</ele>
        <time>2019-07-07T14:59:12.692Z</time>
      </trkpt>
      <trkpt lat="43.11734667" lon="-0.61264333">
        <ele>265.0</ele>
        <time>2019-07-07T14:59:13.694Z</time>
      </trkpt>
      <trkpt lat="43.11734667" lon="-0.61264333">
        <ele>265.0</ele>
        <time>2019-07-07T14:59:14.690Z</time>
      </trkpt>
      <trkpt lat="43.11732667" lon="-0.612645">
        <ele>265.0</ele>
        <time>2019-07-07T14:59:15.681Z</time>
      </trkpt>
      <trkpt lat="43.11732667" lon="-0.612645">
        <ele>265.0</ele>
        <time>2019-07-07T14:59:16.689Z</time>
      </trkpt>
    </trkseg>
  </trk>
</gpx>
